<?xml version='1.0' encoding='UTF-8'?><gpx version="1.1" creator="JPX - https://github.com/jenetics/jpx" xmlns="http://www.topografix.com/GPX/1/1"><trk><trkseg><trkpt lat="43.415878238605735" lon="11.458605321709198"><ele>445.99999999999994</ele><time>2026-04-25T06:57:56Z</time></trkpt><trkpt lat="43.41585481845588" lon="11.458723391394432"><ele>446.0</ele><time>2026-04-25T06:57:59Z</time></trkpt><trkpt lat="43.41584470494576" lon="11.458819332986458"><ele>446.0</ele><time>2026-04-25T06:58:01Z</time></trkpt><trkpt lat="43.4158387211419" lon="11.458932859721328"><ele>446.0</ele><time>2026-04-25T06:58:03Z</time></trkpt><trkpt lat="43.41583728472833" lon="11.459055155867746"><ele>445.99999999999994</ele><time>2026-04-25T06:58:05Z</time></trkpt><trkpt lat="43.415849487498335" lon="11.459166302240385"><ele>446.0</ele><time>2026-04-25T06:58:07Z</time></trkpt><trkpt lat="43.41585899273973" lon="11.459253410697704"><ele>446.8</ele><time>2026-04-25T06:58:08Z</time></trkpt><trkpt lat="43.415871242511884" lon="11.4593781164473"><ele>447.6</ele><time>2026-04-25T06:58:10Z</time></trkpt><trkpt lat="43.41588748316616" lon="11.459512283677464"><ele>448.4</ele><time>2026-04-25T06:58:17Z</time></trkpt><trkpt lat="43.415878225607145" lon="11.459631518309573"><ele>449.2</ele><time>2026-04-25T06:58:19Z</time></trkpt><trkpt lat="43.41587882953283" lon="11.459773402820263"><ele>450.0</ele><time>2026-04-25T06:58:21Z</time></trkpt><trkpt lat="43.41588054606262" lon="11.45987972737236"><ele>451.1666666666667</ele><time>2026-04-25T06:58:22Z</time></trkpt><trkpt lat="43.415883742264405" lon="11.459980006391504"><ele>452.33333333333337</ele><time>2026-04-25T06:58:23Z</time></trkpt><trkpt lat="43.41588570099495" lon="11.460088691788632"><ele>453.5</ele><time>2026-04-25T06:58:24Z</time></trkpt><trkpt lat="43.4158890417157" lon="11.460196979310032"><ele>454.6666666666667</ele><time>2026-04-25T06:58:25Z</time></trkpt><trkpt lat="43.415887201113705" lon="11.460303058900458"><ele>455.83333333333337</ele><time>2026-04-25T06:58:26Z</time></trkpt><trkpt lat="43.41589221094868" lon="11.46041931163003"><ele>457.0</ele><time>2026-04-25T06:58:27Z</time></trkpt><trkpt lat="43.41589978909392" lon="11.460512612839066"><ele>459.33333333333337</ele><time>2026-04-25T06:58:28Z</time></trkpt><trkpt lat="43.41590541463229" lon="11.460612259356237"><ele>461.6666666666667</ele><time>2026-04-25T06:58:29Z</time></trkpt><trkpt lat="43.41592584511665" lon="11.460701285945735"><ele>464.0</ele><time>2026-04-25T06:58:30Z</time></trkpt><trkpt lat="43.415993756005214" lon="11.46086103354237"><ele>466.33333333333337</ele><time>2026-04-25T06:58:32Z</time></trkpt><trkpt lat="43.41604315224844" lon="11.460924034415608"><ele>468.6666666666667</ele><time>2026-04-25T06:58:33Z</time></trkpt><trkpt lat="43.41608037405917" lon="11.461008784764015"><ele>471.0</ele><time>2026-04-25T06:58:34Z</time></trkpt><trkpt lat="43.41613242629249" lon="11.461150431351246"><ele>471.0</ele><time>2026-04-25T06:58:36Z</time></trkpt><trkpt lat="43.41612974967229" lon="11.461246962131566"><ele>471.0</ele><time>2026-04-25T06:58:38Z</time></trkpt><trkpt lat="43.41605886371915" lon="11.461365211738096"><ele>471.0</ele><time>2026-04-25T06:58:40Z</time></trkpt><trkpt lat="43.415987878615375" lon="11.46139266624743"><ele>471.0</ele><time>2026-04-25T06:58:41Z</time></trkpt><trkpt lat="43.41591624053166" lon="11.461418625456863"><ele>471.0</ele><time>2026-04-25T06:58:42Z</time></trkpt><trkpt lat="43.41583432371788" lon="11.461426030961722"><ele>471.0</ele><time>2026-04-25T06:58:43Z</time></trkpt><trkpt lat="43.41574462759082" lon="11.46132250409704"><ele>471.0</ele><time>2026-04-25T06:58:45Z</time></trkpt><trkpt lat="43.41570502920981" lon="11.461230168564937"><ele>471.0</ele><time>2026-04-25T06:58:46Z</time></trkpt><trkpt lat="43.415679217198296" lon="11.461117734389674"><ele>471.0</ele><time>2026-04-25T06:58:47Z</time></trkpt><trkpt lat="43.415648651953354" lon="11.460992413692393"><ele>471.0</ele><time>2026-04-25T06:58:48Z</time></trkpt><trkpt lat="43.41561631352927" lon="11.460891311488846"><ele>471.0</ele><time>2026-04-25T06:58:49Z</time></trkpt><trkpt lat="43.41558218220895" lon="11.460805854643196"><ele>471.0</ele><time>2026-04-25T06:58:50Z</time></trkpt><trkpt lat="43.415541041565895" lon="11.460733552495867"><ele>472.8</ele><time>2026-04-25T06:58:51Z</time></trkpt><trkpt lat="43.41548527249614" lon="11.460673460122177"><ele>474.6</ele><time>2026-04-25T06:58:52Z</time></trkpt><trkpt lat="43.41541680960751" lon="11.460627262137463"><ele>476.4</ele><time>2026-04-25T06:58:53Z</time></trkpt><trkpt lat="43.41532386399477" lon="11.460575020418526"><ele>478.2</ele><time>2026-04-25T06:58:55Z</time></trkpt><trkpt lat="43.41525937109847" lon="11.460610674481998"><ele>480.0</ele><time>2026-04-25T06:58:57.999Z</time></trkpt><trkpt lat="43.41530280111134" lon="11.460794670241263"><ele>480.0</ele><time>2026-04-25T06:59:01.999Z</time></trkpt><trkpt lat="43.415357351337306" lon="11.460854399729458"><ele>480.0</ele><time>2026-04-25T06:59:02.999Z</time></trkpt><trkpt lat="43.41542670685125" lon="11.460942772315763"><ele>480.0</ele><time>2026-04-25T06:59:04.999Z</time></trkpt><trkpt lat="43.415461229827365" lon="11.461047470416482"><ele>480.0</ele><time>2026-04-25T06:59:07Z</time></trkpt><trkpt lat="43.41546724971506" lon="11.461195175440603"><ele>480.0</ele><time>2026-04-25T06:59:09Z</time></trkpt><trkpt lat="43.41542677104435" lon="11.461358309236024"><ele>481.6666666666667</ele><time>2026-04-25T06:59:11Z</time></trkpt><trkpt lat="43.41540092881802" lon="11.46144634455342"><ele>483.33333333333337</ele><time>2026-04-25T06:59:12Z</time></trkpt><trkpt lat="43.415373833729475" lon="11.461606488889489"><ele>485.0</ele><time>2026-04-25T06:59:14Z</time></trkpt><trkpt lat="43.41535908228935" lon="11.461732782399784"><ele>486.6666666666667</ele><time>2026-04-25T06:59:16Z</time></trkpt><trkpt lat="43.415289249618056" lon="11.46174652107947"><ele>488.33333333333337</ele><time>2026-04-25T06:59:18Z</time></trkpt><trkpt lat="43.41523998125006" lon="11.461666090827478"><ele>490.0</ele><time>2026-04-25T06:59:20Z</time></trkpt><trkpt lat="43.41522877084468" lon="11.461490666768656"><ele>490.0</ele><time>2026-04-25T06:59:22Z</time></trkpt><trkpt lat="43.41516431346925" lon="11.461379543724622"><ele>490.0</ele><time>2026-04-25T06:59:24Z</time></trkpt><trkpt lat="43.415079226251" lon="11.461340996772915"><ele>490.0</ele><time>2026-04-25T06:59:26Z</time></trkpt><trkpt lat="43.41500054613318" lon="11.46141817271045"><ele>490.0</ele><time>2026-04-25T06:59:28Z</time></trkpt><trkpt lat="43.41496618887252" lon="11.461573548152133"><ele>490.0</ele><time>2026-04-25T06:59:30Z</time></trkpt><trkpt lat="43.414953614140884" lon="11.461700762643588"><ele>490.00000000000006</ele><time>2026-04-25T06:59:31Z</time></trkpt><trkpt lat="43.4149314214488" lon="11.461828383028841"><ele>490.0</ele><time>2026-04-25T06:59:32Z</time></trkpt><trkpt lat="43.41490959563179" lon="11.461932576572984"><ele>490.0</ele><time>2026-04-25T06:59:33Z</time></trkpt><trkpt lat="43.414876920560786" lon="11.462013538819841"><ele>490.0</ele><time>2026-04-25T06:59:34Z</time></trkpt><trkpt lat="43.41481829390251" lon="11.462072690415607"><ele>490.00000000000006</ele><time>2026-04-25T06:59:35Z</time></trkpt><trkpt lat="43.414753262262856" lon="11.462195481262535"><ele>490.0</ele><time>2026-04-25T06:59:37Z</time></trkpt><trkpt lat="43.41471158350763" lon="11.462262565359332"><ele>491.6</ele><time>2026-04-25T06:59:38Z</time></trkpt><trkpt lat="43.41471698717391" lon="11.462371111840174"><ele>493.2</ele><time>2026-04-25T06:59:39Z</time></trkpt><trkpt lat="43.41469544020899" lon="11.462480149272352"><ele>494.79999999999995</ele><time>2026-04-25T06:59:40Z</time></trkpt><trkpt lat="43.41464664827736" lon="11.462629721661154"><ele>496.4</ele><time>2026-04-25T06:59:42Z</time></trkpt><trkpt lat="43.41457401790186" lon="11.462815050167809"><ele>498.0</ele><time>2026-04-25T06:59:44Z</time></trkpt><trkpt lat="43.41456166011421" lon="11.462922359462693"><ele>503.0</ele><time>2026-04-25T06:59:45Z</time></trkpt><trkpt lat="43.414551482013856" lon="11.463025931671057"><ele>508.0</ele><time>2026-04-25T06:59:46Z</time></trkpt><trkpt lat="43.414557176958795" lon="11.463152377919242"><ele>513.0</ele><time>2026-04-25T06:59:47Z</time></trkpt><trkpt lat="43.41456274687167" lon="11.463238824249329"><ele>518.0</ele><time>2026-04-25T06:59:48Z</time></trkpt><trkpt lat="43.414571316912216" lon="11.463343729038636"><ele>523.0</ele><time>2026-04-25T06:59:49Z</time></trkpt><trkpt lat="43.41457820651664" lon="11.463453059115917"><ele>528.0</ele><time>2026-04-25T06:59:50Z</time></trkpt><trkpt lat="43.41458564206872" lon="11.463555578374935"><ele>528.0</ele><time>2026-04-25T06:59:51Z</time></trkpt><trkpt lat="43.414576375326554" lon="11.463664349868441"><ele>528.0</ele><time>2026-04-25T06:59:52Z</time></trkpt><trkpt lat="43.414564060795435" lon="11.463769709641582"><ele>528.0</ele><time>2026-04-25T06:59:53Z</time></trkpt><trkpt lat="43.41453096273984" lon="11.463878098172287"><ele>528.0</ele><time>2026-04-25T06:59:54Z</time></trkpt><trkpt lat="43.41449445578614" lon="11.463976995556514"><ele>528.0</ele><time>2026-04-25T06:59:55Z</time></trkpt><trkpt lat="43.41444183365673" lon="11.464042149634547"><ele>528.0</ele><time>2026-04-25T06:59:56Z</time></trkpt><trkpt lat="43.41439628664485" lon="11.464108889276496"><ele>527.4285714285714</ele><time>2026-04-25T06:59:57Z</time></trkpt><trkpt lat="43.414332718721575" lon="11.464148089143185"><ele>526.8571428571429</ele><time>2026-04-25T06:59:58Z</time></trkpt><trkpt lat="43.41428075613341" lon="11.464214828349988"><ele>526.2857142857143</ele><time>2026-04-25T06:59:59Z</time></trkpt><trkpt lat="43.41422536878714" lon="11.464275370968853"><ele>525.7142857142858</ele><time>2026-04-25T07:00:00Z</time></trkpt><trkpt lat="43.414162818001" lon="11.464336342005073"><ele>525.1428571428572</ele><time>2026-04-25T07:00:01Z</time></trkpt><trkpt lat="43.41410217733364" lon="11.464394927474482"><ele>524.5714285714286</ele><time>2026-04-25T07:00:02Z</time></trkpt><trkpt lat="43.414038956335524" lon="11.464444381370235"><ele>524.0</ele><time>2026-04-25T07:00:03Z</time></trkpt><trkpt lat="43.413962076229105" lon="11.46447276458419"><ele>524.0</ele><time>2026-04-25T07:00:04Z</time></trkpt><trkpt lat="43.413871029259866" lon="11.464520362409125"><ele>524.0</ele><time>2026-04-25T07:00:05Z</time></trkpt><trkpt lat="43.41377979354377" lon="11.464559904425293"><ele>524.0</ele><time>2026-04-25T07:00:06Z</time></trkpt><trkpt lat="43.413691869361145" lon="11.464586079900366"><ele>524.0</ele><time>2026-04-25T07:00:07Z</time></trkpt><trkpt lat="43.41360715913974" lon="11.464610694151267"><ele>524.0</ele><time>2026-04-25T07:00:08Z</time></trkpt><trkpt lat="43.41354079799613" lon="11.464624757594464"><ele>524.0</ele><time>2026-04-25T07:00:09Z</time></trkpt><trkpt lat="43.41346380243938" lon="11.464624088203596"><ele>525.0</ele><time>2026-04-25T07:00:10Z</time></trkpt><trkpt lat="43.413387436645856" lon="11.464610122332903"><ele>526.0</ele><time>2026-04-25T07:00:11Z</time></trkpt><trkpt lat="43.41331521566407" lon="11.464581625076793"><ele>527.0</ele><time>2026-04-25T07:00:12Z</time></trkpt><trkpt lat="43.4132444763557" lon="11.464542122616265"><ele>528.0</ele><time>2026-04-25T07:00:13Z</time></trkpt><trkpt lat="43.41318057097541" lon="11.464503460531995"><ele>529.0</ele><time>2026-04-25T07:00:14Z</time></trkpt><trkpt lat="43.41311701303738" lon="11.464453599626461"><ele>530.0</ele><time>2026-04-25T07:00:15Z</time></trkpt><trkpt lat="43.413049486486315" lon="11.46441502998291"><ele>531.0</ele><time>2026-04-25T07:00:16Z</time></trkpt><trkpt lat="43.412981248433546" lon="11.46438922822219"><ele>528.5714285714286</ele><time>2026-04-25T07:00:17Z</time></trkpt><trkpt lat="43.412909775053485" lon="11.46437159855454"><ele>526.1428571428572</ele><time>2026-04-25T07:00:18Z</time></trkpt><trkpt lat="43.412833011906706" lon="11.464366168154854"><ele>523.7142857142858</ele><time>2026-04-25T07:00:19Z</time></trkpt><trkpt lat="43.412750867957634" lon="11.464362670025904"><ele>521.2857142857143</ele><time>2026-04-25T07:00:20Z</time></trkpt><trkpt lat="43.41268032330511" lon="11.46435465233359"><ele>518.8571428571429</ele><time>2026-04-25T07:00:21Z</time></trkpt><trkpt lat="43.412612929195475" lon="11.464330639094936"><ele>516.4285714285714</ele><time>2026-04-25T07:00:22Z</time></trkpt><trkpt lat="43.412542497584866" lon="11.464325946257281"><ele>514.0</ele><time>2026-04-25T07:00:23Z</time></trkpt><trkpt lat="43.41247569370575" lon="11.464337651376688"><ele>514.0</ele><time>2026-04-25T07:00:24Z</time></trkpt><trkpt lat="43.41240400730098" lon="11.464370550555094"><ele>514.0</ele><time>2026-04-25T07:00:25Z</time></trkpt><trkpt lat="43.41233446487626" lon="11.46441911197286"><ele>514.0</ele><time>2026-04-25T07:00:26Z</time></trkpt><trkpt lat="43.412267219644704" lon="11.464467040673837"><ele>514.0</ele><time>2026-04-25T07:00:27Z</time></trkpt><trkpt lat="43.41220791397902" lon="11.464532534783594"><ele>514.0</ele><time>2026-04-25T07:00:28Z</time></trkpt><trkpt lat="43.412133188422324" lon="11.464562279415693"><ele>514.0</ele><time>2026-04-25T07:00:29Z</time></trkpt><trkpt lat="43.41207008052826" lon="11.464615211730274"><ele>511.79999999999995</ele><time>2026-04-25T07:00:30Z</time></trkpt><trkpt lat="43.4120041008632" lon="11.464663208687174"><ele>509.59999999999997</ele><time>2026-04-25T07:00:31Z</time></trkpt><trkpt lat="43.411942545509824" lon="11.46470101169291"><ele>507.4</ele><time>2026-04-25T07:00:32Z</time></trkpt><trkpt lat="43.41182535138761" lon="11.464750217037672"><ele>505.2</ele><time>2026-04-25T07:00:34Z</time></trkpt><trkpt lat="43.41172711857836" lon="11.46479121702069"><ele>503.0</ele><time>2026-04-25T07:00:36Z</time></trkpt><trkpt lat="43.411644658268315" lon="11.464803434312236"><ele>502.99999999999994</ele><time>2026-04-25T07:00:38Z</time></trkpt><trkpt lat="43.41156818765037" lon="11.464785579450885"><ele>503.0</ele><time>2026-04-25T07:00:40Z</time></trkpt><trkpt lat="43.411483062877004" lon="11.46474173685989"><ele>503.0</ele><time>2026-04-25T07:00:42Z</time></trkpt><trkpt lat="43.41137600486457" lon="11.464686364480263"><ele>503.0</ele><time>2026-04-25T07:00:44Z</time></trkpt><trkpt lat="43.41131253219676" lon="11.464652310487601"><ele>502.99999999999994</ele><time>2026-04-25T07:00:45Z</time></trkpt><trkpt lat="43.41125907934441" lon="11.464606304156975"><ele>503.0</ele><time>2026-04-25T07:00:46Z</time></trkpt><trkpt lat="43.41115901845009" lon="11.464520125251605"><ele>501.2</ele><time>2026-04-25T07:00:48Z</time></trkpt><trkpt lat="43.41105174138543" lon="11.46445984803992"><ele>499.4</ele><time>2026-04-25T07:00:50Z</time></trkpt><trkpt lat="43.410942396164" lon="11.464410547192776"><ele>497.59999999999997</ele><time>2026-04-25T07:00:52Z</time></trkpt><trkpt lat="43.41086482318437" lon="11.464412564884526"><ele>495.79999999999995</ele><time>2026-04-25T07:00:53Z</time></trkpt><trkpt lat="43.41078794487726" lon="11.464422936286356"><ele>494.0</ele><time>2026-04-25T07:00:54Z</time></trkpt><trkpt lat="43.41068880220614" lon="11.464437505999177"><ele>494.0</ele><time>2026-04-25T07:00:56Z</time></trkpt><trkpt lat="43.41056960636049" lon="11.464449709751314"><ele>494.0</ele><time>2026-04-25T07:00:58Z</time></trkpt><trkpt lat="43.41047252778661" lon="11.46445359437797"><ele>494.0</ele><time>2026-04-25T07:00:59Z</time></trkpt><trkpt lat="43.410342376418065" lon="11.46445499391973"><ele>494.0</ele><time>2026-04-25T07:01:00Z</time></trkpt><trkpt lat="43.41019647372468" lon="11.464477657639513"><ele>493.3333333333333</ele><time>2026-04-25T07:01:01Z</time></trkpt><trkpt lat="43.41003348002092" lon="11.464478897481266"><ele>492.66666666666663</ele><time>2026-04-25T07:01:02Z</time></trkpt><trkpt lat="43.409869394890784" lon="11.464477247673683"><ele>492.0</ele><time>2026-04-25T07:01:03Z</time></trkpt><trkpt lat="43.409734575388974" lon="11.464484986011211"><ele>492.25</ele><time>2026-04-25T07:01:03.999Z</time></trkpt><trkpt lat="43.40961351720965" lon="11.464495290069781"><ele>492.5</ele><time>2026-04-25T07:01:04.999Z</time></trkpt><trkpt lat="43.40947269277915" lon="11.4644969962548"><ele>492.75</ele><time>2026-04-25T07:01:05.999Z</time></trkpt><trkpt lat="43.40934675928152" lon="11.464510357577227"><ele>493.0</ele><time>2026-04-25T07:01:06.999Z</time></trkpt><trkpt lat="43.409242437354465" lon="11.464509118618912"><ele>493.00000000000006</ele><time>2026-04-25T07:01:07.999Z</time></trkpt><trkpt lat="43.409150872065" lon="11.464526857191672"><ele>493.0</ele><time>2026-04-25T07:01:08.999Z</time></trkpt><trkpt lat="43.40906089085589" lon="11.464540243290482"><ele>493.0</ele><time>2026-04-25T07:01:09.999Z</time></trkpt><trkpt lat="43.40897823024259" lon="11.46455364318483"><ele>493.0</ele><time>2026-04-25T07:01:10.999Z</time></trkpt><trkpt lat="43.40889432469872" lon="11.464557905886478"><ele>493.00000000000006</ele><time>2026-04-25T07:01:11.999Z</time></trkpt><trkpt lat="43.40881782919897" lon="11.46456167823283"><ele>493.0</ele><time>2026-04-25T07:01:12.999Z</time></trkpt><trkpt lat="43.40874352884239" lon="11.46457251331364"><ele>492.33333333333337</ele><time>2026-04-25T07:01:13.999Z</time></trkpt><trkpt lat="43.40866677071922" lon="11.464570508907702"><ele>491.6666666666667</ele><time>2026-04-25T07:01:14.999Z</time></trkpt><trkpt lat="43.40859388278289" lon="11.464563173249608"><ele>491.0</ele><time>2026-04-25T07:01:15.999Z</time></trkpt><trkpt lat="43.40852252396294" lon="11.464553901327127"><ele>490.33333333333337</ele><time>2026-04-25T07:01:16.999Z</time></trkpt><trkpt lat="43.40844236498677" lon="11.464550206807472"><ele>489.6666666666667</ele><time>2026-04-25T07:01:17.999Z</time></trkpt><trkpt lat="43.40836479095208" lon="11.464540685220218"><ele>489.0</ele><time>2026-04-25T07:01:18.999Z</time></trkpt><trkpt lat="43.40828100101259" lon="11.464539976074205"><ele>489.0</ele><time>2026-04-25T07:01:20Z</time></trkpt><trkpt lat="43.40820324690454" lon="11.464530895110373"><ele>489.0</ele><time>2026-04-25T07:01:21Z</time></trkpt><trkpt lat="43.408114598750785" lon="11.46454056690864"><ele>489.0</ele><time>2026-04-25T07:01:22Z</time></trkpt><trkpt lat="43.40801493960608" lon="11.464547634065719"><ele>489.0</ele><time>2026-04-25T07:01:23Z</time></trkpt><trkpt lat="43.40789102301341" lon="11.464556208285648"><ele>489.0</ele><time>2026-04-25T07:01:24Z</time></trkpt><trkpt lat="43.407754477869275" lon="11.46455925722686"><ele>487.0</ele><time>2026-04-25T07:01:25Z</time></trkpt><trkpt lat="43.40763054630132" lon="11.464576686542639"><ele>485.0</ele><time>2026-04-25T07:01:26Z</time></trkpt><trkpt lat="43.40750855017246" lon="11.46459231667514"><ele>483.0</ele><time>2026-04-25T07:01:27Z</time></trkpt><trkpt lat="43.407400465025006" lon="11.464609647942684"><ele>481.0</ele><time>2026-04-25T07:01:28Z</time></trkpt><trkpt lat="43.40730146498027" lon="11.464623794658129"><ele>481.00000000000006</ele><time>2026-04-25T07:01:29Z</time></trkpt><trkpt lat="43.40720374187899" lon="11.464640554973494"><ele>481.0</ele><time>2026-04-25T07:01:30Z</time></trkpt><trkpt lat="43.40710930663066" lon="11.464654026813546"><ele>481.0</ele><time>2026-04-25T07:01:31Z</time></trkpt><trkpt lat="43.40702516604757" lon="11.464660597318794"><ele>481.0</ele><time>2026-04-25T07:01:32Z</time></trkpt><trkpt lat="43.40694947815904" lon="11.4646319357047"><ele>481.00000000000006</ele><time>2026-04-25T07:01:33Z</time></trkpt><trkpt lat="43.40687127949499" lon="11.464607753611807"><ele>481.0</ele><time>2026-04-25T07:01:34Z</time></trkpt><trkpt lat="43.406790993214244" lon="11.464575191669692"><ele>479.83333333333337</ele><time>2026-04-25T07:01:35Z</time></trkpt><trkpt lat="43.40670335310821" lon="11.464545001668476"><ele>478.6666666666667</ele><time>2026-04-25T07:01:36Z</time></trkpt><trkpt lat="43.40661664826537" lon="11.464516800599796"><ele>477.5</ele><time>2026-04-25T07:01:37Z</time></trkpt><trkpt lat="43.40652741796408" lon="11.464487490941568"><ele>476.33333333333337</ele><time>2026-04-25T07:01:38Z</time></trkpt><trkpt lat="43.40644273089649" lon="11.464459501988596"><ele>475.1666666666667</ele><time>2026-04-25T07:01:39Z</time></trkpt><trkpt lat="43.4063561675673" lon="11.46443089470176"><ele>474.0</ele><time>2026-04-25T07:01:40Z</time></trkpt><trkpt lat="43.406270181550624" lon="11.464412516316406"><ele>473.0</ele><time>2026-04-25T07:01:41Z</time></trkpt><trkpt lat="43.406187370724915" lon="11.464385203259999"><ele>472.0</ele><time>2026-04-25T07:01:42Z</time></trkpt><trkpt lat="43.40610815812859" lon="11.464358529600375"><ele>471.0</ele><time>2026-04-25T07:01:43Z</time></trkpt><trkpt lat="43.40602730618376" lon="11.464312611650442"><ele>470.0</ele><time>2026-04-25T07:01:44Z</time></trkpt><trkpt lat="43.40595221598192" lon="11.46426159290958"><ele>469.0</ele><time>2026-04-25T07:01:45Z</time></trkpt><trkpt lat="43.40587417384969" lon="11.46420135447961"><ele>468.0</ele><time>2026-04-25T07:01:46Z</time></trkpt><trkpt lat="43.405803682808546" lon="11.46414491037297"><ele>468.0</ele><time>2026-04-25T07:01:47Z</time></trkpt><trkpt lat="43.40572909633152" lon="11.46408263264543"><ele>468.0</ele><time>2026-04-25T07:01:48Z</time></trkpt><trkpt lat="43.40565711293699" lon="11.464015179762356"><ele>468.0</ele><time>2026-04-25T07:01:49Z</time></trkpt><trkpt lat="43.40558749240285" lon="11.463951864756071"><ele>468.0</ele><time>2026-04-25T07:01:50Z</time></trkpt><trkpt lat="43.40552009572617" lon="11.463887227917139"><ele>468.0</ele><time>2026-04-25T07:01:51Z</time></trkpt><trkpt lat="43.40545291480751" lon="11.46382384126775"><ele>468.0</ele><time>2026-04-25T07:01:52Z</time></trkpt><trkpt lat="43.405393742078296" lon="11.463759417422796"><ele>465.0</ele><time>2026-04-25T07:01:53Z</time></trkpt><trkpt lat="43.405337745897825" lon="11.463697533049254"><ele>461.99999999999994</ele><time>2026-04-25T07:01:54Z</time></trkpt><trkpt lat="43.40525908053179" lon="11.463571110241764"><ele>458.99999999999994</ele><time>2026-04-25T07:01:56Z</time></trkpt><trkpt lat="43.40517442145256" lon="11.46347687806187"><ele>456.0</ele><time>2026-04-25T07:01:58Z</time></trkpt><trkpt lat="43.405095009970026" lon="11.463371223995795"><ele>453.0</ele><time>2026-04-25T07:02:00Z</time></trkpt><trkpt lat="43.4050307084414" lon="11.46327619069539"><ele>453.0</ele><time>2026-04-25T07:02:02Z</time></trkpt><trkpt lat="43.40496668003376" lon="11.463193041294728"><ele>453.0</ele><time>2026-04-25T07:02:04Z</time></trkpt><trkpt lat="43.404938335012616" lon="11.463114481447846"><ele>453.0</ele><time>2026-04-25T07:02:05Z</time></trkpt><trkpt lat="43.40489514770149" lon="11.463031872587804"><ele>453.0</ele><time>2026-04-25T07:02:06Z</time></trkpt><trkpt lat="43.40484974076178" lon="11.462949159465525"><ele>453.0</ele><time>2026-04-25T07:02:07Z</time></trkpt><trkpt lat="43.40480445891667" lon="11.462857102739214"><ele>453.0</ele><time>2026-04-25T07:02:08Z</time></trkpt><trkpt lat="43.40474999105585" lon="11.462764391401157"><ele>452.5</ele><time>2026-04-25T07:02:09Z</time></trkpt><trkpt lat="43.40472466209078" lon="11.462638995364639"><ele>452.0</ele><time>2026-04-25T07:02:10Z</time></trkpt><trkpt lat="43.40470198622153" lon="11.462497718300463"><ele>451.5</ele><time>2026-04-25T07:02:11Z</time></trkpt><trkpt lat="43.40467141256545" lon="11.462322981194879"><ele>451.0</ele><time>2026-04-25T07:02:12Z</time></trkpt><trkpt lat="43.40463631694792" lon="11.46212180171613"><ele>452.0</ele><time>2026-04-25T07:02:13Z</time></trkpt><trkpt lat="43.404611581420866" lon="11.461925280694745"><ele>453.0</ele><time>2026-04-25T07:02:14Z</time></trkpt><trkpt lat="43.40458675572317" lon="11.461779925611799"><ele>454.0</ele><time>2026-04-25T07:02:15Z</time></trkpt><trkpt lat="43.40456380402379" lon="11.46165449006345"><ele>455.0</ele><time>2026-04-25T07:02:16Z</time></trkpt><trkpt lat="43.40452580102871" lon="11.461544322364553"><ele>456.0</ele><time>2026-04-25T07:02:17Z</time></trkpt><trkpt lat="43.40446541781252" lon="11.461417480814037"><ele>456.66666666666663</ele><time>2026-04-25T07:02:18Z</time></trkpt><trkpt lat="43.40439573651313" lon="11.46124550531824"><ele>457.3333333333333</ele><time>2026-04-25T07:02:19Z</time></trkpt><trkpt lat="43.404308020714716" lon="11.461061857384273"><ele>458.0</ele><time>2026-04-25T07:02:20Z</time></trkpt><trkpt lat="43.404221133836856" lon="11.46089010714046"><ele>458.0</ele><time>2026-04-25T07:02:21Z</time></trkpt><trkpt lat="43.40415448745882" lon="11.460748218677617"><ele>457.99999999999994</ele><time>2026-04-25T07:02:22Z</time></trkpt><trkpt lat="43.404109205366034" lon="11.460627810147388"><ele>457.99999999999994</ele><time>2026-04-25T07:02:23Z</time></trkpt><trkpt lat="43.40408710706654" lon="11.4605161777572"><ele>458.0</ele><time>2026-04-25T07:02:24Z</time></trkpt><trkpt lat="43.40408092142305" lon="11.460399770768852"><ele>458.0</ele><time>2026-04-25T07:02:25Z</time></trkpt><trkpt lat="43.404090762450366" lon="11.460260605646098"><ele>457.59999999999997</ele><time>2026-04-25T07:02:26Z</time></trkpt><trkpt lat="43.40412939964267" lon="11.46009461518603"><ele>457.19999999999993</ele><time>2026-04-25T07:02:27Z</time></trkpt><trkpt lat="43.40415448720912" lon="11.459925630159399"><ele>456.8</ele><time>2026-04-25T07:02:28Z</time></trkpt><trkpt lat="43.40416369499606" lon="11.459786304582192"><ele>456.4</ele><time>2026-04-25T07:02:29Z</time></trkpt><trkpt lat="43.40418994296285" lon="11.459670905548096"><ele>456.0</ele><time>2026-04-25T07:02:30Z</time></trkpt><trkpt lat="43.40422538999118" lon="11.459561521993155"><ele>455.8</ele><time>2026-04-25T07:02:31Z</time></trkpt><trkpt lat="43.404270623778714" lon="11.459451425189302"><ele>455.6</ele><time>2026-04-25T07:02:32Z</time></trkpt><trkpt lat="43.40432119100972" lon="11.45934562085133"><ele>455.4</ele><time>2026-04-25T07:02:33Z</time></trkpt><trkpt lat="43.404375745214004" lon="11.459252685093343"><ele>455.2</ele><time>2026-04-25T07:02:34Z</time></trkpt><trkpt lat="43.404446458023926" lon="11.459143780655316"><ele>455.0</ele><time>2026-04-25T07:02:35Z</time></trkpt><trkpt lat="43.40452670415768" lon="11.459026504796823"><ele>454.99999999999994</ele><time>2026-04-25T07:02:36Z</time></trkpt><trkpt lat="43.40459817577733" lon="11.458932485301826"><ele>455.0</ele><time>2026-04-25T07:02:37Z</time></trkpt><trkpt lat="43.404663443769536" lon="11.45885024502463"><ele>455.0</ele><time>2026-04-25T07:02:38Z</time></trkpt><trkpt lat="43.40471838869613" lon="11.458774748485126"><ele>455.0</ele><time>2026-04-25T07:02:39Z</time></trkpt><trkpt lat="43.40476756222086" lon="11.458696079677104"><ele>454.99999999999994</ele><time>2026-04-25T07:02:40Z</time></trkpt><trkpt lat="43.40479863484599" lon="11.458604189792245"><ele>455.0</ele><time>2026-04-25T07:02:41Z</time></trkpt><trkpt lat="43.40482061483543" lon="11.458495887733525"><ele>454.2</ele><time>2026-04-25T07:02:42Z</time></trkpt><trkpt lat="43.404838584985114" lon="11.458386585485087"><ele>453.4</ele><time>2026-04-25T07:02:43Z</time></trkpt><trkpt lat="43.404858610769736" lon="11.45829887600244"><ele>452.6</ele><time>2026-04-25T07:02:44Z</time></trkpt><trkpt lat="43.40491288710926" lon="11.45816474734487"><ele>451.8</ele><time>2026-04-25T07:02:46Z</time></trkpt><trkpt lat="43.404995974929065" lon="11.458051587788525"><ele>451.0</ele><time>2026-04-25T07:02:48Z</time></trkpt><trkpt lat="43.40504180003964" lon="11.457907362181423"><ele>449.6666666666667</ele><time>2026-04-25T07:02:50Z</time></trkpt><trkpt lat="43.405044286815006" lon="11.457802004107954"><ele>448.33333333333337</ele><time>2026-04-25T07:02:51Z</time></trkpt><trkpt lat="43.40503445664562" lon="11.457684995671977"><ele>447.0</ele><time>2026-04-25T07:02:52Z</time></trkpt><trkpt lat="43.40502520951741" lon="11.45756636347132"><ele>445.66666666666663</ele><time>2026-04-25T07:02:53Z</time></trkpt><trkpt lat="43.40501431673986" lon="11.45744772849125"><ele>444.3333333333333</ele><time>2026-04-25T07:02:54Z</time></trkpt><trkpt lat="43.405004440171716" lon="11.457334845041757"><ele>443.0</ele><time>2026-04-25T07:02:55Z</time></trkpt><trkpt lat="43.40499486418907" lon="11.457218036838775"><ele>441.8333333333333</ele><time>2026-04-25T07:02:56Z</time></trkpt><trkpt lat="43.4049752651818" lon="11.457104450107318"><ele>440.66666666666663</ele><time>2026-04-25T07:02:57Z</time></trkpt><trkpt lat="43.404952489703284" lon="11.456993250431568"><ele>439.5</ele><time>2026-04-25T07:02:58Z</time></trkpt><trkpt lat="43.40493995678385" lon="11.45688357314363"><ele>438.33333333333337</ele><time>2026-04-25T07:02:59Z</time></trkpt><trkpt lat="43.40489586143743" lon="11.456802127456813"><ele>437.1666666666667</ele><time>2026-04-25T07:03:00Z</time></trkpt><trkpt lat="43.40486809070473" lon="11.45672325815558"><ele>436.0</ele><time>2026-04-25T07:03:01Z</time></trkpt><trkpt lat="43.40484020277487" lon="11.456640415749543"><ele>436.0</ele><time>2026-04-25T07:03:02Z</time></trkpt><trkpt lat="43.40481176024365" lon="11.456508672730603"><ele>436.0</ele><time>2026-04-25T07:03:04Z</time></trkpt><trkpt lat="43.40482867933595" lon="11.45639876782272"><ele>436.0</ele><time>2026-04-25T07:03:06Z</time></trkpt><trkpt lat="43.40489402098083" lon="11.456362895975484"><ele>436.0</ele><time>2026-04-25T07:03:07Z</time></trkpt><trkpt lat="43.405021553075194" lon="11.456349295521353"><ele>436.0</ele><time>2026-04-25T07:03:09Z</time></trkpt><trkpt lat="43.4051198428507" lon="11.456363836986965"><ele>436.0</ele><time>2026-04-25T07:03:09.999Z</time></trkpt><trkpt lat="43.405236036665116" lon="11.456381661654515"><ele>436.0</ele><time>2026-04-25T07:03:10.999Z</time></trkpt><trkpt lat="43.405344129439506" lon="11.456393198675773"><ele>436.0</ele><time>2026-04-25T07:03:11.999Z</time></trkpt><trkpt lat="43.40543618740826" lon="11.456402351603852"><ele>436.0</ele><time>2026-04-25T07:03:12.999Z</time></trkpt><trkpt lat="43.40551968423122" lon="11.45641060742851"><ele>436.0</ele><time>2026-04-25T07:03:13.999Z</time></trkpt><trkpt lat="43.40559110163214" lon="11.456405071976878"><ele>434.50000000000006</ele><time>2026-04-25T07:03:14.999Z</time></trkpt><trkpt lat="43.405658690086184" lon="11.456380610976273"><ele>433.0</ele><time>2026-04-25T07:03:15.999Z</time></trkpt><trkpt lat="43.40572562305258" lon="11.456327238712388"><ele>431.5</ele><time>2026-04-25T07:03:16.999Z</time></trkpt><trkpt lat="43.40579588598046" lon="11.456257839994393"><ele>430.0</ele><time>2026-04-25T07:03:17.999Z</time></trkpt><trkpt lat="43.40585814519978" lon="11.456179501122646"><ele>428.50000000000006</ele><time>2026-04-25T07:03:18.999Z</time></trkpt><trkpt lat="43.4059166855795" lon="11.456090239700416"><ele>427.0</ele><time>2026-04-25T07:03:19.999Z</time></trkpt><trkpt lat="43.40596809512843" lon="11.45598992445192"><ele>426.8</ele><time>2026-04-25T07:03:20.999Z</time></trkpt><trkpt lat="43.40601060535274" lon="11.455874459730417"><ele>426.6</ele><time>2026-04-25T07:03:21.999Z</time></trkpt><trkpt lat="43.40603939731838" lon="11.455750977304643"><ele>426.40000000000003</ele><time>2026-04-25T07:03:22.999Z</time></trkpt><trkpt lat="43.406060393548415" lon="11.45562656432629"><ele>426.20000000000005</ele><time>2026-04-25T07:03:23.999Z</time></trkpt><trkpt lat="43.406078821218124" lon="11.455500169138677"><ele>426.0</ele><time>2026-04-25T07:03:24.999Z</time></trkpt><trkpt lat="43.406097335088255" lon="11.455371323690871"><ele>425.20000000000005</ele><time>2026-04-25T07:03:25.999Z</time></trkpt><trkpt lat="43.40612146541129" lon="11.455236561651068"><ele>424.40000000000003</ele><time>2026-04-25T07:03:26.999Z</time></trkpt><trkpt lat="43.40615826173762" lon="11.455071712501713"><ele>423.6</ele><time>2026-04-25T07:03:27.999Z</time></trkpt><trkpt lat="43.4061905569086" lon="11.454930177324696"><ele>422.8</ele><time>2026-04-25T07:03:29Z</time></trkpt><trkpt lat="43.40622499372301" lon="11.454816145502045"><ele>422.0</ele><time>2026-04-25T07:03:30Z</time></trkpt><trkpt lat="43.406269721099356" lon="11.45470247721545"><ele>419.5</ele><time>2026-04-25T07:03:31Z</time></trkpt><trkpt lat="43.406336317689416" lon="11.454584934442524"><ele>417.0</ele><time>2026-04-25T07:03:32Z</time></trkpt><trkpt lat="43.40642060839239" lon="11.454447551710507"><ele>414.5</ele><time>2026-04-25T07:03:33Z</time></trkpt><trkpt lat="43.406481753524154" lon="11.454318755024126"><ele>412.0</ele><time>2026-04-25T07:03:34Z</time></trkpt><trkpt lat="43.40652546460414" lon="11.454178780226346"><ele>412.0</ele><time>2026-04-25T07:03:35Z</time></trkpt><trkpt lat="43.40655913164719" lon="11.454026880722303"><ele>412.0</ele><time>2026-04-25T07:03:36Z</time></trkpt><trkpt lat="43.406580312226055" lon="11.453884099565173"><ele>412.0</ele><time>2026-04-25T07:03:37Z</time></trkpt><trkpt lat="43.40658407391193" lon="11.453756799765141"><ele>412.0</ele><time>2026-04-25T07:03:38Z</time></trkpt><trkpt lat="43.40656534630493" lon="11.45364076588089"><ele>412.0</ele><time>2026-04-25T07:03:39Z</time></trkpt><trkpt lat="43.40652332428609" lon="11.453512797917185"><ele>412.0</ele><time>2026-04-25T07:03:40Z</time></trkpt><trkpt lat="43.40647279734643" lon="11.453346269923934"><ele>412.0</ele><time>2026-04-25T07:03:41Z</time></trkpt><trkpt lat="43.40644550161695" lon="11.453197463669785"><ele>412.0</ele><time>2026-04-25T07:03:42Z</time></trkpt><trkpt lat="43.406445943104366" lon="11.453064011763235"><ele>412.0</ele><time>2026-04-25T07:03:43Z</time></trkpt><trkpt lat="43.40646012976712" lon="11.452936628418904"><ele>412.0</ele><time>2026-04-25T07:03:44Z</time></trkpt><trkpt lat="43.40648372570593" lon="11.452817307534078"><ele>411.40000000000003</ele><time>2026-04-25T07:03:45Z</time></trkpt><trkpt lat="43.40651258713247" lon="11.452694797470226"><ele>410.8</ele><time>2026-04-25T07:03:46Z</time></trkpt><trkpt lat="43.40652994256146" lon="11.452536259544006"><ele>410.2</ele><time>2026-04-25T07:03:47Z</time></trkpt><trkpt lat="43.40653730187262" lon="11.452362309527025"><ele>409.6</ele><time>2026-04-25T07:03:48Z</time></trkpt><trkpt lat="43.40653267961832" lon="11.45220970862296"><ele>409.0</ele><time>2026-04-25T07:03:49Z</time></trkpt><trkpt lat="43.40651964280591" lon="11.452069260487912"><ele>409.5</ele><time>2026-04-25T07:03:50Z</time></trkpt><trkpt lat="43.406486607871805" lon="11.451935282937328"><ele>410.0</ele><time>2026-04-25T07:03:51Z</time></trkpt><trkpt lat="43.40644059498255" lon="11.451802081227829"><ele>410.5</ele><time>2026-04-25T07:03:52Z</time></trkpt><trkpt lat="43.4063630192986" lon="11.451653105841412"><ele>411.0</ele><time>2026-04-25T07:03:53Z</time></trkpt><trkpt lat="43.40628928328992" lon="11.451457516067732"><ele>411.0</ele><time>2026-04-25T07:03:54Z</time></trkpt><trkpt lat="43.4061954485105" lon="11.45132666149266"><ele>411.0</ele><time>2026-04-25T07:03:55Z</time></trkpt><trkpt lat="43.40612985577596" lon="11.451210898374692"><ele>411.0</ele><time>2026-04-25T07:03:56Z</time></trkpt><trkpt lat="43.40606949653131" lon="11.451102672244652"><ele>411.0</ele><time>2026-04-25T07:03:57Z</time></trkpt><trkpt lat="43.40601697203469" lon="11.450989476811515"><ele>411.0</ele><time>2026-04-25T07:03:58Z</time></trkpt><trkpt lat="43.405976274603425" lon="11.45087068639113"><ele>411.0</ele><time>2026-04-25T07:03:59Z</time></trkpt><trkpt lat="43.40594118355788" lon="11.450746771881782"><ele>411.0</ele><time>2026-04-25T07:04:00Z</time></trkpt><trkpt lat="43.40591416614324" lon="11.450628819227896"><ele>411.0</ele><time>2026-04-25T07:04:01Z</time></trkpt><trkpt lat="43.40588885903458" lon="11.450515709643774"><ele>411.0</ele><time>2026-04-25T07:04:02Z</time></trkpt><trkpt lat="43.40586037969881" lon="11.450401166641196"><ele>411.0</ele><time>2026-04-25T07:04:03Z</time></trkpt><trkpt lat="43.40583332821072" lon="11.450287991234216"><ele>411.0</ele><time>2026-04-25T07:04:04Z</time></trkpt><trkpt lat="43.40578981825134" lon="11.450184756467117"><ele>410.4</ele><time>2026-04-25T07:04:05Z</time></trkpt><trkpt lat="43.405745699032124" lon="11.450083548019588"><ele>409.8</ele><time>2026-04-25T07:04:06Z</time></trkpt><trkpt lat="43.40570065134333" lon="11.449980206050018"><ele>409.2</ele><time>2026-04-25T07:04:07Z</time></trkpt><trkpt lat="43.40564735389241" lon="11.449880412991055"><ele>408.59999999999997</ele><time>2026-04-25T07:04:08Z</time></trkpt><trkpt lat="43.405599521586524" lon="11.449738799624514"><ele>408.0</ele><time>2026-04-25T07:04:09Z</time></trkpt><trkpt lat="43.40549031496744" lon="11.449584914928352"><ele>406.25</ele><time>2026-04-25T07:04:10Z</time></trkpt><trkpt lat="43.40539188518809" lon="11.449409999127509"><ele>404.5</ele><time>2026-04-25T07:04:11Z</time></trkpt><trkpt lat="43.40530773972831" lon="11.44928641414381"><ele>402.75</ele><time>2026-04-25T07:04:12Z</time></trkpt><trkpt lat="43.405240862653045" lon="11.449179746924841"><ele>401.0</ele><time>2026-04-25T07:04:13Z</time></trkpt><trkpt lat="43.405182132656506" lon="11.449082785950392"><ele>400.99999999999994</ele><time>2026-04-25T07:04:14Z</time></trkpt><trkpt lat="43.40514050734816" lon="11.449002934212482"><ele>401.0</ele><time>2026-04-25T07:04:15Z</time></trkpt><trkpt lat="43.4051038483202" lon="11.448857728791742"><ele>401.0</ele><time>2026-04-25T07:04:17Z</time></trkpt><trkpt lat="43.405075448908946" lon="11.448755137334924"><ele>401.0</ele><time>2026-04-25T07:04:19Z</time></trkpt><trkpt lat="43.405002713185645" lon="11.448662922033456"><ele>400.99999999999994</ele><time>2026-04-25T07:04:20Z</time></trkpt><trkpt lat="43.4049391990767" lon="11.448606048316844"><ele>401.0</ele><time>2026-04-25T07:04:21Z</time></trkpt><trkpt lat="43.404859803985104" lon="11.44855203742108"><ele>400.6</ele><time>2026-04-25T07:04:22Z</time></trkpt><trkpt lat="43.4047759065664" lon="11.448474498156786"><ele>400.20000000000005</ele><time>2026-04-25T07:04:23Z</time></trkpt><trkpt lat="43.40468353124835" lon="11.448397250687844"><ele>399.79999999999995</ele><time>2026-04-25T07:04:24Z</time></trkpt><trkpt lat="43.40459419839119" lon="11.448328746744822"><ele>399.4</ele><time>2026-04-25T07:04:25Z</time></trkpt><trkpt lat="43.404505968743564" lon="11.448261250291502"><ele>399.0</ele><time>2026-04-25T07:04:26Z</time></trkpt><trkpt lat="43.4044103313095" lon="11.448193315664364"><ele>398.75</ele><time>2026-04-25T07:04:27Z</time></trkpt><trkpt lat="43.404310849335516" lon="11.448125349853955"><ele>398.5</ele><time>2026-04-25T07:04:28Z</time></trkpt><trkpt lat="43.40420939662549" lon="11.448052840906916"><ele>398.25</ele><time>2026-04-25T07:04:29Z</time></trkpt><trkpt lat="43.4041103239703" lon="11.447968230145932"><ele>398.0</ele><time>2026-04-25T07:04:30Z</time></trkpt><trkpt lat="43.40400952341427" lon="11.447900541661719"><ele>398.2</ele><time>2026-04-25T07:04:31Z</time></trkpt><trkpt lat="43.40390536175445" lon="11.447848979412594"><ele>398.4</ele><time>2026-04-25T07:04:32Z</time></trkpt><trkpt lat="43.40380772941368" lon="11.44781029309531"><ele>398.59999999999997</ele><time>2026-04-25T07:04:33Z</time></trkpt><trkpt lat="43.4037125087956" lon="11.44777226794981"><ele>398.79999999999995</ele><time>2026-04-25T07:04:34Z</time></trkpt><trkpt lat="43.403622146944755" lon="11.447734479812137"><ele>399.0</ele><time>2026-04-25T07:04:35Z</time></trkpt><trkpt lat="43.40352584319563" lon="11.447688575887826"><ele>399.0</ele><time>2026-04-25T07:04:36Z</time></trkpt><trkpt lat="43.403437239547735" lon="11.447643212493228"><ele>399.0</ele><time>2026-04-25T07:04:37Z</time></trkpt><trkpt lat="43.40334820479437" lon="11.44760427741268"><ele>399.0</ele><time>2026-04-25T07:04:38Z</time></trkpt><trkpt lat="43.40326337292623" lon="11.447556701516392"><ele>399.0</ele><time>2026-04-25T07:04:39Z</time></trkpt><trkpt lat="43.403174867979835" lon="11.447504357552564"><ele>399.0</ele><time>2026-04-25T07:04:40Z</time></trkpt><trkpt lat="43.4030862725498" lon="11.44745922434411"><ele>397.0</ele><time>2026-04-25T07:04:41Z</time></trkpt><trkpt lat="43.40299635750333" lon="11.447407636310187"><ele>395.0</ele><time>2026-04-25T07:04:42Z</time></trkpt><trkpt lat="43.40290588929667" lon="11.44735667593338"><ele>393.0</ele><time>2026-04-25T07:04:43Z</time></trkpt><trkpt lat="43.40280563080891" lon="11.447284430711578"><ele>391.0</ele><time>2026-04-25T07:04:44Z</time></trkpt><trkpt lat="43.40267047994982" lon="11.447218789971084"><ele>391.0</ele><time>2026-04-25T07:04:45Z</time></trkpt><trkpt lat="43.40254232414593" lon="11.447148455300761"><ele>391.0</ele><time>2026-04-25T07:04:46Z</time></trkpt><trkpt lat="43.402415513443735" lon="11.447076155226904"><ele>391.0</ele><time>2026-04-25T07:04:47Z</time></trkpt><trkpt lat="43.402292084120226" lon="11.447001447097367"><ele>391.0</ele><time>2026-04-25T07:04:48Z</time></trkpt><trkpt lat="43.402174102772356" lon="11.446917443100672"><ele>390.25</ele><time>2026-04-25T07:04:49Z</time></trkpt><trkpt lat="43.402060820566064" lon="11.446829577866637"><ele>389.5</ele><time>2026-04-25T07:04:50Z</time></trkpt><trkpt lat="43.40194808733293" lon="11.44673291341324"><ele>388.75</ele><time>2026-04-25T07:04:51Z</time></trkpt><trkpt lat="43.40185306827827" lon="11.446603778900053"><ele>388.0</ele><time>2026-04-25T07:04:52Z</time></trkpt><trkpt lat="43.401740680688896" lon="11.446473518911766"><ele>388.0</ele><time>2026-04-25T07:04:53Z</time></trkpt><trkpt lat="43.401623403057606" lon="11.44636616586985"><ele>388.0</ele><time>2026-04-25T07:04:54Z</time></trkpt><trkpt lat="43.40153105398992" lon="11.446244730440503"><ele>388.0</ele><time>2026-04-25T07:04:55Z</time></trkpt><trkpt lat="43.40144446402878" lon="11.446106710919798"><ele>388.0</ele><time>2026-04-25T07:04:56Z</time></trkpt><trkpt lat="43.40134353193988" lon="11.445951565847999"><ele>386.33333333333337</ele><time>2026-04-25T07:04:57Z</time></trkpt><trkpt lat="43.40124005277401" lon="11.445803694344029"><ele>384.6666666666667</ele><time>2026-04-25T07:04:58Z</time></trkpt><trkpt lat="43.401139679613465" lon="11.445646529801293"><ele>383.0</ele><time>2026-04-25T07:04:59Z</time></trkpt><trkpt lat="43.401033995455045" lon="11.44546596927723"><ele>382.6666666666667</ele><time>2026-04-25T07:05:00Z</time></trkpt><trkpt lat="43.40092044650975" lon="11.445286908323054"><ele>382.3333333333333</ele><time>2026-04-25T07:05:01Z</time></trkpt><trkpt lat="43.40080088749697" lon="11.445125776778044"><ele>382.0</ele><time>2026-04-25T07:05:02Z</time></trkpt><trkpt lat="43.40068044396495" lon="11.444964102715415"><ele>382.0</ele><time>2026-04-25T07:05:03Z</time></trkpt><trkpt lat="43.40056208643602" lon="11.444808198427646"><ele>382.0</ele><time>2026-04-25T07:05:04Z</time></trkpt><trkpt lat="43.40045021223468" lon="11.444659896975953"><ele>382.0</ele><time>2026-04-25T07:05:05Z</time></trkpt><trkpt lat="43.40033901807446" lon="11.444514713280654"><ele>380.75</ele><time>2026-04-25T07:05:06Z</time></trkpt><trkpt lat="43.40023284622948" lon="11.444373074230601"><ele>379.5</ele><time>2026-04-25T07:05:07Z</time></trkpt><trkpt lat="43.40013238453858" lon="11.444236887274656"><ele>378.25</ele><time>2026-04-25T07:05:08Z</time></trkpt><trkpt lat="43.40003173151821" lon="11.444103461828698"><ele>377.0</ele><time>2026-04-25T07:05:09Z</time></trkpt><trkpt lat="43.399928948513086" lon="11.443968785105247"><ele>377.0</ele><time>2026-04-25T07:05:10Z</time></trkpt><trkpt lat="43.3998283105195" lon="11.44384276830203"><ele>377.0</ele><time>2026-04-25T07:05:11Z</time></trkpt><trkpt lat="43.399726527535684" lon="11.443742492540483"><ele>377.0</ele><time>2026-04-25T07:05:12Z</time></trkpt><trkpt lat="43.39961160151217" lon="11.443674787159432"><ele>377.0</ele><time>2026-04-25T07:05:13Z</time></trkpt><trkpt lat="43.39948501908002" lon="11.443628173652796"><ele>376.75</ele><time>2026-04-25T07:05:14Z</time></trkpt><trkpt lat="43.399357038361586" lon="11.443577927285496"><ele>376.5</ele><time>2026-04-25T07:05:15Z</time></trkpt><trkpt lat="43.39923258400207" lon="11.443521079029457"><ele>376.25</ele><time>2026-04-25T07:05:15.999Z</time></trkpt><trkpt lat="43.39911915406546" lon="11.443479894449258"><ele>376.0</ele><time>2026-04-25T07:05:16.999Z</time></trkpt><trkpt lat="43.399007435658206" lon="11.443456985319232"><ele>376.0</ele><time>2026-04-25T07:05:17.999Z</time></trkpt><trkpt lat="43.39888724882001" lon="11.443455681120946"><ele>376.0</ele><time>2026-04-25T07:05:18.999Z</time></trkpt><trkpt lat="43.39875773099218" lon="11.443483791481764"><ele>376.0</ele><time>2026-04-25T07:05:19.999Z</time></trkpt><trkpt lat="43.39862125012031" lon="11.443511911561629"><ele>376.0</ele><time>2026-04-25T07:05:20.999Z</time></trkpt><trkpt lat="43.39847657240041" lon="11.443532098610564"><ele>376.0</ele><time>2026-04-25T07:05:21.999Z</time></trkpt><trkpt lat="43.39834109629939" lon="11.44356860612985"><ele>376.0</ele><time>2026-04-25T07:05:22.999Z</time></trkpt><trkpt lat="43.398215429843916" lon="11.443584575204753"><ele>376.0</ele><time>2026-04-25T07:05:23.999Z</time></trkpt><trkpt lat="43.398095191158646" lon="11.443591027923654"><ele>376.0</ele><time>2026-04-25T07:05:24.999Z</time></trkpt><trkpt lat="43.39797938457124" lon="11.443628272736175"><ele>375.25</ele><time>2026-04-25T07:05:25.999Z</time></trkpt><trkpt lat="43.39787369190178" lon="11.443625464679634"><ele>374.5</ele><time>2026-04-25T07:05:26.999Z</time></trkpt><trkpt lat="43.39777574245319" lon="11.443592544796886"><ele>373.75</ele><time>2026-04-25T07:05:27.999Z</time></trkpt><trkpt lat="43.39766151238351" lon="11.443544489851725"><ele>373.0</ele><time>2026-04-25T07:05:28.999Z</time></trkpt><trkpt lat="43.39753487094884" lon="11.443514384684446"><ele>373.0</ele><time>2026-04-25T07:05:29.999Z</time></trkpt><trkpt lat="43.39741279266605" lon="11.44346086906205"><ele>373.0</ele><time>2026-04-25T07:05:30.999Z</time></trkpt><trkpt lat="43.39729142003707" lon="11.44341577547768"><ele>373.0</ele><time>2026-04-25T07:05:32Z</time></trkpt><trkpt lat="43.39717469163227" lon="11.443369680939865"><ele>373.0</ele><time>2026-04-25T07:05:33Z</time></trkpt><trkpt lat="43.397054851148575" lon="11.443327282999995"><ele>372.5</ele><time>2026-04-25T07:05:34Z</time></trkpt><trkpt lat="43.39693163756536" lon="11.443274511373932"><ele>372.0</ele><time>2026-04-25T07:05:35Z</time></trkpt><trkpt lat="43.39680710535224" lon="11.443232322780142"><ele>371.5</ele><time>2026-04-25T07:05:36Z</time></trkpt><trkpt lat="43.39668999506613" lon="11.443188355046718"><ele>371.0</ele><time>2026-04-25T07:05:37Z</time></trkpt><trkpt lat="43.39657991866296" lon="11.44314414723077"><ele>371.0</ele><time>2026-04-25T07:05:38Z</time></trkpt><trkpt lat="43.396471757642146" lon="11.44310044382318"><ele>371.0</ele><time>2026-04-25T07:05:39Z</time></trkpt><trkpt lat="43.396370221599675" lon="11.443057722424733"><ele>371.0</ele><time>2026-04-25T07:05:40Z</time></trkpt><trkpt lat="43.39627502478248" lon="11.443018122444606"><ele>371.0</ele><time>2026-04-25T07:05:41Z</time></trkpt><trkpt lat="43.39617800291018" lon="11.442981247851266"><ele>371.0</ele><time>2026-04-25T07:05:42Z</time></trkpt><trkpt lat="43.39607209041367" lon="11.442945973550584"><ele>370.0</ele><time>2026-04-25T07:05:43Z</time></trkpt><trkpt lat="43.395964579045156" lon="11.44289821841491"><ele>369.0</ele><time>2026-04-25T07:05:44Z</time></trkpt><trkpt lat="43.39585682540244" lon="11.442854369136013"><ele>368.0</ele><time>2026-04-25T07:05:45Z</time></trkpt><trkpt lat="43.39574715255062" lon="11.442810763112682"><ele>367.0</ele><time>2026-04-25T07:05:46Z</time></trkpt><trkpt lat="43.395636975668864" lon="11.442769408776718"><ele>367.0</ele><time>2026-04-25T07:05:47Z</time></trkpt><trkpt lat="43.39552642304026" lon="11.44273041178968"><ele>367.0</ele><time>2026-04-25T07:05:48Z</time></trkpt><trkpt lat="43.395415665943936" lon="11.442684849764088"><ele>367.0</ele><time>2026-04-25T07:05:49Z</time></trkpt><trkpt lat="43.395298864279475" lon="11.442671394612718"><ele>367.0</ele><time>2026-04-25T07:05:50Z</time></trkpt><trkpt lat="43.395176072767555" lon="11.442669732877064"><ele>367.25</ele><time>2026-04-25T07:05:51Z</time></trkpt><trkpt lat="43.39505439985607" lon="11.442675918954398"><ele>367.5</ele><time>2026-04-25T07:05:52Z</time></trkpt><trkpt lat="43.3949286955049" lon="11.442677356098939"><ele>367.75</ele><time>2026-04-25T07:05:53Z</time></trkpt><trkpt lat="43.39480291685429" lon="11.442695175164726"><ele>368.0</ele><time>2026-04-25T07:05:54Z</time></trkpt><trkpt lat="43.394675560700094" lon="11.44269681455596"><ele>368.0</ele><time>2026-04-25T07:05:55Z</time></trkpt><trkpt lat="43.394548472611405" lon="11.442696005261032"><ele>368.0</ele><time>2026-04-25T07:05:56Z</time></trkpt><trkpt lat="43.39442134800316" lon="11.442687606047588"><ele>368.0</ele><time>2026-04-25T07:05:57Z</time></trkpt><trkpt lat="43.39429685247332" lon="11.442672294009133"><ele>368.0</ele><time>2026-04-25T07:05:58Z</time></trkpt><trkpt lat="43.39417122140337" lon="11.442658123492224"><ele>368.0</ele><time>2026-04-25T07:05:59Z</time></trkpt><trkpt lat="43.3940385499045" lon="11.442638966251991"><ele>368.0</ele><time>2026-04-25T07:06:00Z</time></trkpt><trkpt lat="43.393903033159035" lon="11.442619353317466"><ele>368.0</ele><time>2026-04-25T07:06:01Z</time></trkpt><trkpt lat="43.39376835283116" lon="11.442600003541365"><ele>368.0</ele><time>2026-04-25T07:06:02Z</time></trkpt><trkpt lat="43.393638338412146" lon="11.442549989474399"><ele>368.0</ele><time>2026-04-25T07:06:03Z</time></trkpt><trkpt lat="43.39350844883108" lon="11.442502643205474"><ele>368.0</ele><time>2026-04-25T07:06:04Z</time></trkpt><trkpt lat="43.39337314871875" lon="11.442436442959243"><ele>368.0</ele><time>2026-04-25T07:06:05Z</time></trkpt><trkpt lat="43.39323877334057" lon="11.442369464243315"><ele>368.0</ele><time>2026-04-25T07:06:06Z</time></trkpt><trkpt lat="43.393101611926284" lon="11.442332915872813"><ele>368.25</ele><time>2026-04-25T07:06:07Z</time></trkpt><trkpt lat="43.39296564947699" lon="11.442291842003414"><ele>368.5</ele><time>2026-04-25T07:06:08Z</time></trkpt><trkpt lat="43.39282419245024" lon="11.442282954554189"><ele>368.75</ele><time>2026-04-25T07:06:09Z</time></trkpt><trkpt lat="43.392684635834904" lon="11.442300061597933"><ele>369.0</ele><time>2026-04-25T07:06:10Z</time></trkpt><trkpt lat="43.392548314656736" lon="11.442340445467039"><ele>369.0</ele><time>2026-04-25T07:06:11Z</time></trkpt><trkpt lat="43.3924143027306" lon="11.442393688838477"><ele>369.0</ele><time>2026-04-25T07:06:12Z</time></trkpt><trkpt lat="43.39228285524874" lon="11.442461807238598"><ele>369.0</ele><time>2026-04-25T07:06:13Z</time></trkpt><trkpt lat="43.39214934503191" lon="11.442545868245782"><ele>369.0</ele><time>2026-04-25T07:06:14Z</time></trkpt><trkpt lat="43.39202371341747" lon="11.442633645798374"><ele>368.25</ele><time>2026-04-25T07:06:15Z</time></trkpt><trkpt lat="43.391907339522795" lon="11.442717414402633"><ele>367.5</ele><time>2026-04-25T07:06:16Z</time></trkpt><trkpt lat="43.391792824929205" lon="11.442794990652787"><ele>366.75</ele><time>2026-04-25T07:06:17Z</time></trkpt><trkpt lat="43.391666889456125" lon="11.442821414909412"><ele>366.0</ele><time>2026-04-25T07:06:18Z</time></trkpt><trkpt lat="43.39153997953096" lon="11.442830192867405"><ele>366.0</ele><time>2026-04-25T07:06:19Z</time></trkpt><trkpt lat="43.39141126541572" lon="11.442831028270101"><ele>366.0</ele><time>2026-04-25T07:06:20Z</time></trkpt><trkpt lat="43.39127756658393" lon="11.442836077992894"><ele>366.0</ele><time>2026-04-25T07:06:21Z</time></trkpt><trkpt lat="43.39114206250789" lon="11.442849458201717"><ele>366.0</ele><time>2026-04-25T07:06:22Z</time></trkpt><trkpt lat="43.39100650458667" lon="11.442894074513086"><ele>365.75</ele><time>2026-04-25T07:06:23Z</time></trkpt><trkpt lat="43.39087262915464" lon="11.44292275398645"><ele>365.5</ele><time>2026-04-25T07:06:24Z</time></trkpt><trkpt lat="43.39074189889198" lon="11.442924871496933"><ele>365.25</ele><time>2026-04-25T07:06:25Z</time></trkpt><trkpt lat="43.39061619798795" lon="11.442939499209459"><ele>365.0</ele><time>2026-04-25T07:06:26Z</time></trkpt><trkpt lat="43.390489763753735" lon="11.442938318344764"><ele>365.0</ele><time>2026-04-25T07:06:27Z</time></trkpt><trkpt lat="43.39035893346737" lon="11.44292266786147"><ele>365.0</ele><time>2026-04-25T07:06:28Z</time></trkpt><trkpt lat="43.39022609504932" lon="11.442904344224383"><ele>365.0</ele><time>2026-04-25T07:06:29Z</time></trkpt><trkpt lat="43.390105355881644" lon="11.442886160894684"><ele>365.0</ele><time>2026-04-25T07:06:30Z</time></trkpt><trkpt lat="43.38999727785328" lon="11.442867655597137"><ele>365.0</ele><time>2026-04-25T07:06:31Z</time></trkpt><trkpt lat="43.389898132586076" lon="11.442850654552592"><ele>365.0</ele><time>2026-04-25T07:06:32Z</time></trkpt><trkpt lat="43.38981109469953" lon="11.442774954981202"><ele>365.0</ele><time>2026-04-25T07:06:33Z</time></trkpt><trkpt lat="43.38976149274363" lon="11.442640355109141"><ele>365.0</ele><time>2026-04-25T07:06:34Z</time></trkpt><trkpt lat="43.38971050617499" lon="11.442503036680268"><ele>365.0</ele><time>2026-04-25T07:06:35Z</time></trkpt><trkpt lat="43.38963973712393" lon="11.442371730853369"><ele>363.0</ele><time>2026-04-25T07:06:36Z</time></trkpt><trkpt lat="43.389580220913025" lon="11.44223663560736"><ele>361.0</ele><time>2026-04-25T07:06:37Z</time></trkpt><trkpt lat="43.389506943009266" lon="11.442110985996573"><ele>359.0</ele><time>2026-04-25T07:06:38Z</time></trkpt><trkpt lat="43.389430888834674" lon="11.441989507447776"><ele>357.0</ele><time>2026-04-25T07:06:39Z</time></trkpt><trkpt lat="43.389355148731646" lon="11.441874116328997"><ele>357.0</ele><time>2026-04-25T07:06:40Z</time></trkpt><trkpt lat="43.38929260593747" lon="11.441746805620937"><ele>357.0</ele><time>2026-04-25T07:06:41Z</time></trkpt><trkpt lat="43.38921252441708" lon="11.441640912108914"><ele>357.0</ele><time>2026-04-25T07:06:42Z</time></trkpt><trkpt lat="43.38913268871" lon="11.441526986233038"><ele>357.0</ele><time>2026-04-25T07:06:43Z</time></trkpt><trkpt lat="43.389055693114855" lon="11.44139374189094"><ele>356.25</ele><time>2026-04-25T07:06:44Z</time></trkpt><trkpt lat="43.3889660511563" lon="11.441260873574624"><ele>355.5</ele><time>2026-04-25T07:06:45Z</time></trkpt><trkpt lat="43.38887706177019" lon="11.44112553811919"><ele>354.75</ele><time>2026-04-25T07:06:46Z</time></trkpt><trkpt lat="43.388780689533526" lon="11.44099596117978"><ele>354.0</ele><time>2026-04-25T07:06:47Z</time></trkpt><trkpt lat="43.3886771515099" lon="11.440875912452286"><ele>354.0</ele><time>2026-04-25T07:06:48Z</time></trkpt><trkpt lat="43.3885690478601" lon="11.440767765214597"><ele>354.0</ele><time>2026-04-25T07:06:49Z</time></trkpt><trkpt lat="43.38846148848882" lon="11.440653311487134"><ele>354.0</ele><time>2026-04-25T07:06:50Z</time></trkpt><trkpt lat="43.388361312654844" lon="11.440528301083098"><ele>354.0</ele><time>2026-04-25T07:06:51Z</time></trkpt><trkpt lat="43.38826417379433" lon="11.44038767471184"><ele>352.0</ele><time>2026-04-25T07:06:52Z</time></trkpt><trkpt lat="43.388166759956626" lon="11.44024399153211"><ele>350.0</ele><time>2026-04-25T07:06:53Z</time></trkpt><trkpt lat="43.38806975835041" lon="11.440108478254242"><ele>348.0</ele><time>2026-04-25T07:06:54Z</time></trkpt><trkpt lat="43.38799417846319" lon="11.439954446198934"><ele>346.0</ele><time>2026-04-25T07:06:55Z</time></trkpt><trkpt lat="43.38790805904873" lon="11.439809584107945"><ele>346.0</ele><time>2026-04-25T07:06:56Z</time></trkpt><trkpt lat="43.387817459760775" lon="11.439681231538055"><ele>346.0</ele><time>2026-04-25T07:06:57Z</time></trkpt><trkpt lat="43.387743997537854" lon="11.439527650710309"><ele>346.0</ele><time>2026-04-25T07:06:58Z</time></trkpt><trkpt lat="43.387658049376924" lon="11.43937074061942"><ele>346.0</ele><time>2026-04-25T07:06:59Z</time></trkpt><trkpt lat="43.387562942595906" lon="11.439213653681325"><ele>345.0</ele><time>2026-04-25T07:07:00Z</time></trkpt><trkpt lat="43.38746905444534" lon="11.439068379099924"><ele>344.0</ele><time>2026-04-25T07:07:01Z</time></trkpt><trkpt lat="43.38738709945605" lon="11.438909470565871"><ele>343.0</ele><time>2026-04-25T07:07:02Z</time></trkpt><trkpt lat="43.38730054222422" lon="11.438762525790047"><ele>342.0</ele><time>2026-04-25T07:07:03Z</time></trkpt><trkpt lat="43.387222659041775" lon="11.438622516391796"><ele>342.25</ele><time>2026-04-25T07:07:04Z</time></trkpt><trkpt lat="43.38715329355724" lon="11.438473937019616"><ele>342.5</ele><time>2026-04-25T07:07:05Z</time></trkpt><trkpt lat="43.387095657767915" lon="11.43831077476769"><ele>342.75</ele><time>2026-04-25T07:07:06Z</time></trkpt><trkpt lat="43.38703617826807" lon="11.438137115940098"><ele>343.0</ele><time>2026-04-25T07:07:07Z</time></trkpt><trkpt lat="43.38698956398095" lon="11.437942392684135"><ele>343.25</ele><time>2026-04-25T07:07:08Z</time></trkpt><trkpt lat="43.386964693514436" lon="11.437753839581575"><ele>343.5</ele><time>2026-04-25T07:07:09Z</time></trkpt><trkpt lat="43.38692020892369" lon="11.437575583705126"><ele>343.75</ele><time>2026-04-25T07:07:10Z</time></trkpt><trkpt lat="43.38686926163551" lon="11.437394994149537"><ele>344.0</ele><time>2026-04-25T07:07:11Z</time></trkpt><trkpt lat="43.38680329207895" lon="11.437237132576513"><ele>342.0</ele><time>2026-04-25T07:07:12Z</time></trkpt><trkpt lat="43.386742527151725" lon="11.437075079314383"><ele>340.0</ele><time>2026-04-25T07:07:13Z</time></trkpt><trkpt lat="43.3866645319725" lon="11.436928471962048"><ele>338.0</ele><time>2026-04-25T07:07:14Z</time></trkpt><trkpt lat="43.386551577133595" lon="11.436810926934188"><ele>336.0</ele><time>2026-04-25T07:07:15Z</time></trkpt><trkpt lat="43.38643091471687" lon="11.436698553182783"><ele>336.0</ele><time>2026-04-25T07:07:16Z</time></trkpt><trkpt lat="43.386324629080335" lon="11.436565170611821"><ele>336.0</ele><time>2026-04-25T07:07:17Z</time></trkpt><trkpt lat="43.38621782709324" lon="11.43644188362857"><ele>336.0</ele><time>2026-04-25T07:07:18Z</time></trkpt><trkpt lat="43.38611370626756" lon="11.436312900441171"><ele>336.0</ele><time>2026-04-25T07:07:19Z</time></trkpt><trkpt lat="43.386014887198066" lon="11.436183060992116"><ele>336.0</ele><time>2026-04-25T07:07:20Z</time></trkpt><trkpt lat="43.38592637645463" lon="11.436047850854555"><ele>336.0</ele><time>2026-04-25T07:07:21Z</time></trkpt><trkpt lat="43.38582178240691" lon="11.435942013491298"><ele>336.0</ele><time>2026-04-25T07:07:21.999Z</time></trkpt><trkpt lat="43.385710291779695" lon="11.435839323422408"><ele>336.0</ele><time>2026-04-25T07:07:22.999Z</time></trkpt><trkpt lat="43.38558416235793" lon="11.435740067862799"><ele>334.3333333333333</ele><time>2026-04-25T07:07:23.999Z</time></trkpt><trkpt lat="43.385454145939654" lon="11.435636339601869"><ele>332.66666666666663</ele><time>2026-04-25T07:07:24.999Z</time></trkpt><trkpt lat="43.3853188178795" lon="11.43553265223454"><ele>331.0</ele><time>2026-04-25T07:07:25.999Z</time></trkpt><trkpt lat="43.385186984129035" lon="11.435420100150445"><ele>330.3333333333333</ele><time>2026-04-25T07:07:26.999Z</time></trkpt><trkpt lat="43.38505138484289" lon="11.43531390244365"><ele>329.6666666666667</ele><time>2026-04-25T07:07:27.999Z</time></trkpt><trkpt lat="43.38490377819309" lon="11.435226730725525"><ele>329.0</ele><time>2026-04-25T07:07:28.999Z</time></trkpt><trkpt lat="43.384746179925436" lon="11.435170410404545"><ele>327.6666666666667</ele><time>2026-04-25T07:07:30Z</time></trkpt><trkpt lat="43.38458774414598" lon="11.435138857128617"><ele>326.3333333333333</ele><time>2026-04-25T07:07:31Z</time></trkpt><trkpt lat="43.3844238209671" lon="11.435107138089846"><ele>325.0</ele><time>2026-04-25T07:07:32Z</time></trkpt><trkpt lat="43.384268331215985" lon="11.435071772385758"><ele>325.0</ele><time>2026-04-25T07:07:33Z</time></trkpt><trkpt lat="43.38411701677061" lon="11.435033624961823"><ele>325.0</ele><time>2026-04-25T07:07:34Z</time></trkpt><trkpt lat="43.383967331221385" lon="11.434972268647373"><ele>325.0</ele><time>2026-04-25T07:07:35Z</time></trkpt><trkpt lat="43.38381323659126" lon="11.434927932506337"><ele>324.66666666666663</ele><time>2026-04-25T07:07:36Z</time></trkpt><trkpt lat="43.38365636909205" lon="11.434872479474855"><ele>324.3333333333333</ele><time>2026-04-25T07:07:37Z</time></trkpt><trkpt lat="43.38350744133046" lon="11.434800842136662"><ele>324.0</ele><time>2026-04-25T07:07:38Z</time></trkpt><trkpt lat="43.383367913688836" lon="11.434704325502995"><ele>325.0</ele><time>2026-04-25T07:07:39Z</time></trkpt><trkpt lat="43.383238308480585" lon="11.434598808290312"><ele>326.0</ele><time>2026-04-25T07:07:40Z</time></trkpt><trkpt lat="43.38311405791668" lon="11.434477941824142"><ele>327.0</ele><time>2026-04-25T07:07:41Z</time></trkpt><trkpt lat="43.38298773764115" lon="11.434353786645017"><ele>327.0</ele><time>2026-04-25T07:07:42Z</time></trkpt><trkpt lat="43.382861754789985" lon="11.43423885606379"><ele>327.0</ele><time>2026-04-25T07:07:43Z</time></trkpt><trkpt lat="43.382715667240234" lon="11.434164025112471"><ele>327.0</ele><time>2026-04-25T07:07:44Z</time></trkpt><trkpt lat="43.382574864316595" lon="11.434104083379848"><ele>327.0</ele><time>2026-04-25T07:07:45Z</time></trkpt><trkpt lat="43.382429514203906" lon="11.434063679157303"><ele>327.0</ele><time>2026-04-25T07:07:46Z</time></trkpt><trkpt lat="43.38228206079642" lon="11.43403326944887"><ele>327.0</ele><time>2026-04-25T07:07:47Z</time></trkpt><trkpt lat="43.38213446235093" lon="11.434012829445807"><ele>327.0</ele><time>2026-04-25T07:07:48Z</time></trkpt><trkpt lat="43.38199977953559" lon="11.43398235400258"><ele>326.6</ele><time>2026-04-25T07:07:49Z</time></trkpt><trkpt lat="43.38188268147174" lon="11.433969985296814"><ele>326.20000000000005</ele><time>2026-04-25T07:07:50Z</time></trkpt><trkpt lat="43.3817779888128" lon="11.43395287634959"><ele>325.8</ele><time>2026-04-25T07:07:51Z</time></trkpt><trkpt lat="43.38168349947113" lon="11.433914336130492"><ele>325.4</ele><time>2026-04-25T07:07:52Z</time></trkpt><trkpt lat="43.38158656690216" lon="11.43385695518721"><ele>325.0</ele><time>2026-04-25T07:07:53Z</time></trkpt><trkpt lat="43.38148181997038" lon="11.433787326369107"><ele>323.75</ele><time>2026-04-25T07:07:54Z</time></trkpt><trkpt lat="43.38137355468661" lon="11.43371558055775"><ele>322.5</ele><time>2026-04-25T07:07:55Z</time></trkpt><trkpt lat="43.3812607507971" lon="11.433655740431345"><ele>321.25</ele><time>2026-04-25T07:07:56Z</time></trkpt><trkpt lat="43.38115740742767" lon="11.433573638320581"><ele>320.0</ele><time>2026-04-25T07:07:57Z</time></trkpt><trkpt lat="43.38104732090675" lon="11.43350459348013"><ele>319.25</ele><time>2026-04-25T07:07:58Z</time></trkpt><trkpt lat="43.380945839673906" lon="11.433406393526555"><ele>318.5</ele><time>2026-04-25T07:07:59Z</time></trkpt><trkpt lat="43.38085288995424" lon="11.433284808743702"><ele>317.75</ele><time>2026-04-25T07:08:00Z</time></trkpt><trkpt lat="43.38079350776191" lon="11.43313262730276"><ele>317.0</ele><time>2026-04-25T07:08:01Z</time></trkpt><trkpt lat="43.380719081768774" lon="11.433004994972071"><ele>317.2</ele><time>2026-04-25T07:08:02Z</time></trkpt><trkpt lat="43.38066239025304" lon="11.432878210638641"><ele>317.4</ele><time>2026-04-25T07:08:03Z</time></trkpt><trkpt lat="43.38059051032365" lon="11.43278171548244"><ele>317.6</ele><time>2026-04-25T07:08:04Z</time></trkpt><trkpt lat="43.38049462614784" lon="11.432714221733713"><ele>317.8</ele><time>2026-04-25T07:08:05Z</time></trkpt><trkpt lat="43.3803902619361" lon="11.4326829954627"><ele>318.0</ele><time>2026-04-25T07:08:06Z</time></trkpt><trkpt lat="43.380299653528134" lon="11.432669079211685"><ele>318.5</ele><time>2026-04-25T07:08:07Z</time></trkpt><trkpt lat="43.38021890762934" lon="11.432653279785809"><ele>319.0</ele><time>2026-04-25T07:08:08Z</time></trkpt><trkpt lat="43.38012373263678" lon="11.432635266316845"><ele>319.5</ele><time>2026-04-25T07:08:10Z</time></trkpt><trkpt lat="43.38003617699171" lon="11.432624340399835"><ele>320.0</ele><time>2026-04-25T07:08:12Z</time></trkpt><trkpt lat="43.379948069228625" lon="11.43261004391534"><ele>320.5</ele><time>2026-04-25T07:08:14Z</time></trkpt><trkpt lat="43.37987282242605" lon="11.432603561096341"><ele>321.0</ele><time>2026-04-25T07:08:16Z</time></trkpt><trkpt lat="43.3797615805599" lon="11.432573002001947"><ele>321.0</ele><time>2026-04-25T07:08:18Z</time></trkpt><trkpt lat="43.379686640252345" lon="11.432552438169749"><ele>321.0</ele><time>2026-04-25T07:08:19Z</time></trkpt><trkpt lat="43.37959928645974" lon="11.432521077571993"><ele>321.0</ele><time>2026-04-25T07:08:20Z</time></trkpt><trkpt lat="43.37949485357759" lon="11.432476010175261"><ele>321.0</ele><time>2026-04-25T07:08:21Z</time></trkpt><trkpt lat="43.379380725311044" lon="11.43242123080641"><ele>321.0</ele><time>2026-04-25T07:08:22Z</time></trkpt><trkpt lat="43.37923835362186" lon="11.432354682702353"><ele>320.0</ele><time>2026-04-25T07:08:23Z</time></trkpt><trkpt lat="43.37906327961379" lon="11.432273267569263"><ele>319.0</ele><time>2026-04-25T07:08:24Z</time></trkpt><trkpt lat="43.378870623559635" lon="11.432183086762405"><ele>318.0</ele><time>2026-04-25T07:08:25Z</time></trkpt><trkpt lat="43.378662066903786" lon="11.432080561905973"><ele>317.6666666666667</ele><time>2026-04-25T07:08:26Z</time></trkpt><trkpt lat="43.378459509877665" lon="11.431958324227896"><ele>317.33333333333337</ele><time>2026-04-25T07:08:27Z</time></trkpt><trkpt lat="43.37826916926946" lon="11.431888199956248"><ele>317.0</ele><time>2026-04-25T07:08:28Z</time></trkpt><trkpt lat="43.37809042773204" lon="11.431791225716724"><ele>317.6666666666667</ele><time>2026-04-25T07:08:29Z</time></trkpt><trkpt lat="43.377926063578734" lon="11.431702926974966"><ele>318.3333333333333</ele><time>2026-04-25T07:08:30Z</time></trkpt><trkpt lat="43.37777433139863" lon="11.431622224186963"><ele>319.0</ele><time>2026-04-25T07:08:31Z</time></trkpt><trkpt lat="43.37763133968366" lon="11.431549044987847"><ele>319.0</ele><time>2026-04-25T07:08:32Z</time></trkpt><trkpt lat="43.377496563144454" lon="11.431481347838934"><ele>319.0</ele><time>2026-04-25T07:08:33Z</time></trkpt><trkpt lat="43.377368172501015" lon="11.43143095906341"><ele>319.0</ele><time>2026-04-25T07:08:34Z</time></trkpt><trkpt lat="43.377241773978824" lon="11.431398416015723"><ele>319.0</ele><time>2026-04-25T07:08:35Z</time></trkpt><trkpt lat="43.3771102838939" lon="11.431369397396995"><ele>318.25</ele><time>2026-04-25T07:08:36Z</time></trkpt><trkpt lat="43.37697387899998" lon="11.431349053543407"><ele>317.5</ele><time>2026-04-25T07:08:37Z</time></trkpt><trkpt lat="43.37683348925033" lon="11.431329314763865"><ele>316.75</ele><time>2026-04-25T07:08:38Z</time></trkpt><trkpt lat="43.376697583180025" lon="11.431313221567619"><ele>316.0</ele><time>2026-04-25T07:08:39Z</time></trkpt><trkpt lat="43.376563716575696" lon="11.43129606416994"><ele>315.25</ele><time>2026-04-25T07:08:40Z</time></trkpt><trkpt lat="43.376431412404195" lon="11.431285807059963"><ele>314.5</ele><time>2026-04-25T07:08:41Z</time></trkpt><trkpt lat="43.376305183550144" lon="11.431246655356642"><ele>313.75</ele><time>2026-04-25T07:08:42Z</time></trkpt><trkpt lat="43.37617773894926" lon="11.431225427801479"><ele>313.0</ele><time>2026-04-25T07:08:43Z</time></trkpt><trkpt lat="43.376052629597304" lon="11.431202223118879"><ele>313.0</ele><time>2026-04-25T07:08:44Z</time></trkpt><trkpt lat="43.375928648137304" lon="11.431176315539792"><ele>313.0</ele><time>2026-04-25T07:08:45Z</time></trkpt><trkpt lat="43.37580009508953" lon="11.431158131509234"><ele>313.0</ele><time>2026-04-25T07:08:46Z</time></trkpt><trkpt lat="43.375671914619254" lon="11.431082602083267"><ele>313.0</ele><time>2026-04-25T07:08:47Z</time></trkpt><trkpt lat="43.37554136926369" lon="11.430994487330995"><ele>310.75</ele><time>2026-04-25T07:08:48Z</time></trkpt><trkpt lat="43.375414067225904" lon="11.430895710204352"><ele>308.5</ele><time>2026-04-25T07:08:49Z</time></trkpt><trkpt lat="43.37529353565331" lon="11.430792766961508"><ele>306.25</ele><time>2026-04-25T07:08:50Z</time></trkpt><trkpt lat="43.37516941223036" lon="11.430690779424427"><ele>304.0</ele><time>2026-04-25T07:08:51Z</time></trkpt><trkpt lat="43.37503536637009" lon="11.43061318889444"><ele>304.0</ele><time>2026-04-25T07:08:52Z</time></trkpt><trkpt lat="43.37489784624242" lon="11.430544439599469"><ele>304.0</ele><time>2026-04-25T07:08:53Z</time></trkpt><trkpt lat="43.37475980935545" lon="11.43048530383993"><ele>304.0</ele><time>2026-04-25T07:08:54Z</time></trkpt><trkpt lat="43.374628222461716" lon="11.430411948725006"><ele>304.0</ele><time>2026-04-25T07:08:55Z</time></trkpt><trkpt lat="43.37448642157473" lon="11.430389979693055"><ele>304.25</ele><time>2026-04-25T07:08:56Z</time></trkpt><trkpt lat="43.374345674119375" lon="11.430342546999153"><ele>304.5</ele><time>2026-04-25T07:08:57Z</time></trkpt><trkpt lat="43.37420651732953" lon="11.430299028964576"><ele>304.75</ele><time>2026-04-25T07:08:58Z</time></trkpt><trkpt lat="43.37407309147616" lon="11.430258453611545"><ele>305.0</ele><time>2026-04-25T07:08:59Z</time></trkpt><trkpt lat="43.37394467592221" lon="11.430213183270851"><ele>304.75</ele><time>2026-04-25T07:09:00Z</time></trkpt><trkpt lat="43.3738174840697" lon="11.430165805227675"><ele>304.5</ele><time>2026-04-25T07:09:01Z</time></trkpt><trkpt lat="43.373688322802266" lon="11.43010941536344"><ele>304.25</ele><time>2026-04-25T07:09:02Z</time></trkpt><trkpt lat="43.37355577629391" lon="11.430044598416938"><ele>304.0</ele><time>2026-04-25T07:09:03Z</time></trkpt><trkpt lat="43.373420490698955" lon="11.42997076093771"><ele>304.0</ele><time>2026-04-25T07:09:04Z</time></trkpt><trkpt lat="43.373283035841226" lon="11.4298892048126"><ele>304.0</ele><time>2026-04-25T07:09:05Z</time></trkpt><trkpt lat="43.37314483049482" lon="11.42980962671326"><ele>304.0</ele><time>2026-04-25T07:09:06Z</time></trkpt><trkpt lat="43.37300579788984" lon="11.429728083508778"><ele>302.25</ele><time>2026-04-25T07:09:07Z</time></trkpt><trkpt lat="43.37286365053875" lon="11.429642680855345"><ele>300.5</ele><time>2026-04-25T07:09:08Z</time></trkpt><trkpt lat="43.37272505515319" lon="11.429556367246125"><ele>298.75</ele><time>2026-04-25T07:09:09Z</time></trkpt><trkpt lat="43.37259410034971" lon="11.429481721447704"><ele>297.0</ele><time>2026-04-25T07:09:10Z</time></trkpt><trkpt lat="43.37246160765949" lon="11.429413152756956"><ele>297.0</ele><time>2026-04-25T07:09:11Z</time></trkpt><trkpt lat="43.37233060359793" lon="11.429341044713347"><ele>297.0</ele><time>2026-04-25T07:09:12Z</time></trkpt><trkpt lat="43.37219989475596" lon="11.4292666550265"><ele>297.0</ele><time>2026-04-25T07:09:13Z</time></trkpt><trkpt lat="43.3720661950888" lon="11.429191497522304"><ele>297.0</ele><time>2026-04-25T07:09:14Z</time></trkpt><trkpt lat="43.37193118712916" lon="11.429113601411197"><ele>296.0</ele><time>2026-04-25T07:09:15Z</time></trkpt><trkpt lat="43.37179584150871" lon="11.429041177145791"><ele>295.0</ele><time>2026-04-25T07:09:16Z</time></trkpt><trkpt lat="43.371660559776245" lon="11.428966274229731"><ele>294.0</ele><time>2026-04-25T07:09:17Z</time></trkpt><trkpt lat="43.371528607119366" lon="11.428891321210447"><ele>293.0</ele><time>2026-04-25T07:09:18Z</time></trkpt><trkpt lat="43.371391073277934" lon="11.42882862352726"><ele>293.25</ele><time>2026-04-25T07:09:19Z</time></trkpt><trkpt lat="43.371251546598884" lon="11.42878038524785"><ele>293.5</ele><time>2026-04-25T07:09:20Z</time></trkpt><trkpt lat="43.37110324953431" lon="11.428737311331792"><ele>293.75</ele><time>2026-04-25T07:09:21Z</time></trkpt><trkpt lat="43.37095290961572" lon="11.428701897529612"><ele>294.0</ele><time>2026-04-25T07:09:22Z</time></trkpt><trkpt lat="43.37079364322225" lon="11.428671669505245"><ele>294.0</ele><time>2026-04-25T07:09:23Z</time></trkpt><trkpt lat="43.3706287940252" lon="11.428645379081667"><ele>294.0</ele><time>2026-04-25T07:09:24Z</time></trkpt><trkpt lat="43.370462628001405" lon="11.428598035150783"><ele>294.0</ele><time>2026-04-25T07:09:25Z</time></trkpt><trkpt lat="43.37028816654643" lon="11.42859510778536"><ele>291.6666666666667</ele><time>2026-04-25T07:09:26Z</time></trkpt><trkpt lat="43.37011155885462" lon="11.428570912542183"><ele>289.33333333333337</ele><time>2026-04-25T07:09:27.001Z</time></trkpt><trkpt lat="43.36993180405072" lon="11.428549278982413"><ele>287.0</ele><time>2026-04-25T07:09:28Z</time></trkpt><trkpt lat="43.36975867020892" lon="11.4285316311253"><ele>285.33333333333337</ele><time>2026-04-25T07:09:29Z</time></trkpt><trkpt lat="43.36958766831695" lon="11.428512676685521"><ele>283.6666666666667</ele><time>2026-04-25T07:09:30Z</time></trkpt><trkpt lat="43.36941860907757" lon="11.428494594458302"><ele>282.0</ele><time>2026-04-25T07:09:31Z</time></trkpt><trkpt lat="43.369260344721866" lon="11.428489742327766"><ele>282.0</ele><time>2026-04-25T07:09:32Z</time></trkpt><trkpt lat="43.369113086153014" lon="11.428485277651198"><ele>282.0</ele><time>2026-04-25T07:09:33Z</time></trkpt><trkpt lat="43.36897402813238" lon="11.428479571152408"><ele>282.0</ele><time>2026-04-25T07:09:34Z</time></trkpt><trkpt lat="43.368844473240785" lon="11.428461493934845"><ele>282.0</ele><time>2026-04-25T07:09:35Z</time></trkpt><trkpt lat="43.3687204413871" lon="11.428423206896888"><ele>282.5</ele><time>2026-04-25T07:09:36Z</time></trkpt><trkpt lat="43.36860004856346" lon="11.428360372453856"><ele>283.0</ele><time>2026-04-25T07:09:37Z</time></trkpt><trkpt lat="43.36848102118498" lon="11.428276568818431"><ele>283.5</ele><time>2026-04-25T07:09:38Z</time></trkpt><trkpt lat="43.36836881450609" lon="11.42817614553803"><ele>284.0</ele><time>2026-04-25T07:09:39Z</time></trkpt><trkpt lat="43.36826503842785" lon="11.428054503762874"><ele>283.75</ele><time>2026-04-25T07:09:40Z</time></trkpt><trkpt lat="43.36817504496626" lon="11.4279117675147"><ele>283.5</ele><time>2026-04-25T07:09:41Z</time></trkpt><trkpt lat="43.368105566359084" lon="11.427748334380786"><ele>283.25</ele><time>2026-04-25T07:09:42Z</time></trkpt><trkpt lat="43.36805166843654" lon="11.427575326194466"><ele>283.0</ele><time>2026-04-25T07:09:43Z</time></trkpt><trkpt lat="43.368004284174695" lon="11.427407457935223"><ele>283.0</ele><time>2026-04-25T07:09:44Z</time></trkpt><trkpt lat="43.36795528607353" lon="11.427245504831307"><ele>283.0</ele><time>2026-04-25T07:09:45Z</time></trkpt><trkpt lat="43.367898713074936" lon="11.4270986333652"><ele>283.0</ele><time>2026-04-25T07:09:46Z</time></trkpt><trkpt lat="43.36783855324646" lon="11.4269795529927"><ele>283.0</ele><time>2026-04-25T07:09:47Z</time></trkpt><trkpt lat="43.36776759389247" lon="11.426889609206528"><ele>283.25</ele><time>2026-04-25T07:09:48Z</time></trkpt><trkpt lat="43.36768797258006" lon="11.426801333122715"><ele>283.5</ele><time>2026-04-25T07:09:49Z</time></trkpt><trkpt lat="43.36758345665068" lon="11.426738579159288"><ele>283.75</ele><time>2026-04-25T07:09:50Z</time></trkpt><trkpt lat="43.36746394772059" lon="11.426684920391091"><ele>284.0</ele><time>2026-04-25T07:09:51Z</time></trkpt><trkpt lat="43.36733157611799" lon="11.426630467024284"><ele>285.6666666666667</ele><time>2026-04-25T07:09:52Z</time></trkpt><trkpt lat="43.36718070339847" lon="11.42658845525597"><ele>287.3333333333333</ele><time>2026-04-25T07:09:53Z</time></trkpt><trkpt lat="43.367036529018336" lon="11.426523255051555"><ele>289.0</ele><time>2026-04-25T07:09:54Z</time></trkpt><trkpt lat="43.36689103191603" lon="11.426459561841648"><ele>289.0</ele><time>2026-04-25T07:09:55Z</time></trkpt><trkpt lat="43.3667451711029" lon="11.426402560384384"><ele>289.0</ele><time>2026-04-25T07:09:56Z</time></trkpt><trkpt lat="43.366605676479786" lon="11.42635982566392"><ele>289.0</ele><time>2026-04-25T07:09:57Z</time></trkpt><trkpt lat="43.366471321625035" lon="11.426346599417483"><ele>289.0</ele><time>2026-04-25T07:09:58Z</time></trkpt><trkpt lat="43.366339560443315" lon="11.42635700087129"><ele>288.5</ele><time>2026-04-25T07:09:59Z</time></trkpt><trkpt lat="43.36620619822204" lon="11.426378758412158"><ele>288.0</ele><time>2026-04-25T07:10:00Z</time></trkpt><trkpt lat="43.366080867625634" lon="11.42638664098684"><ele>287.5</ele><time>2026-04-25T07:10:01Z</time></trkpt><trkpt lat="43.365968958924086" lon="11.426378498500435"><ele>287.0</ele><time>2026-04-25T07:10:02Z</time></trkpt><trkpt lat="43.365867061281165" lon="11.426335187183167"><ele>287.75</ele><time>2026-04-25T07:10:03Z</time></trkpt><trkpt lat="43.36577922781662" lon="11.42625699907921"><ele>288.5</ele><time>2026-04-25T07:10:04Z</time></trkpt><trkpt lat="43.3656973859419" lon="11.42614778058542"><ele>289.25</ele><time>2026-04-25T07:10:05Z</time></trkpt><trkpt lat="43.36561947706641" lon="11.426017544464363"><ele>290.0</ele><time>2026-04-25T07:10:06Z</time></trkpt><trkpt lat="43.36553816185159" lon="11.425879094829034"><ele>288.0</ele><time>2026-04-25T07:10:07Z</time></trkpt><trkpt lat="43.365447453421766" lon="11.425739207158534"><ele>286.0</ele><time>2026-04-25T07:10:08Z</time></trkpt><trkpt lat="43.36537604760629" lon="11.425596135087842"><ele>284.0</ele><time>2026-04-25T07:10:09Z</time></trkpt><trkpt lat="43.3652851737495" lon="11.425479908771836"><ele>282.0</ele><time>2026-04-25T07:10:10Z</time></trkpt><trkpt lat="43.36521768944468" lon="11.425341070093012"><ele>281.75</ele><time>2026-04-25T07:10:11Z</time></trkpt><trkpt lat="43.36513122687411" lon="11.425230541943835"><ele>281.5</ele><time>2026-04-25T07:10:12Z</time></trkpt><trkpt lat="43.365056652439385" lon="11.425111721334773"><ele>281.25</ele><time>2026-04-25T07:10:13Z</time></trkpt><trkpt lat="43.364985795259976" lon="11.424982863958954"><ele>281.0</ele><time>2026-04-25T07:10:14Z</time></trkpt><trkpt lat="43.36491684070161" lon="11.424862951616776"><ele>281.0</ele><time>2026-04-25T07:10:15Z</time></trkpt><trkpt lat="43.364849202276226" lon="11.424740056280786"><ele>281.0</ele><time>2026-04-25T07:10:16Z</time></trkpt><trkpt lat="43.36478351837069" lon="11.424614448893944"><ele>281.0</ele><time>2026-04-25T07:10:17Z</time></trkpt><trkpt lat="43.36473246413645" lon="11.424478004640989"><ele>281.0</ele><time>2026-04-25T07:10:18Z</time></trkpt><trkpt lat="43.36468556661229" lon="11.424340509619293"><ele>281.0</ele><time>2026-04-25T07:10:19Z</time></trkpt><trkpt lat="43.364634739404224" lon="11.424205228678426"><ele>280.25</ele><time>2026-04-25T07:10:20Z</time></trkpt><trkpt lat="43.36460416167596" lon="11.424057978820422"><ele>279.5</ele><time>2026-04-25T07:10:21Z</time></trkpt><trkpt lat="43.36457173696099" lon="11.423907062728762"><ele>278.75</ele><time>2026-04-25T07:10:22Z</time></trkpt><trkpt lat="43.3645490956528" lon="11.42374178962722"><ele>278.0</ele><time>2026-04-25T07:10:23Z</time></trkpt><trkpt lat="43.36453001486506" lon="11.423565473025342"><ele>276.25</ele><time>2026-04-25T07:10:24Z</time></trkpt><trkpt lat="43.36452181504523" lon="11.423386366847607"><ele>274.5</ele><time>2026-04-25T07:10:25Z</time></trkpt><trkpt lat="43.364512848806896" lon="11.42321976041204"><ele>272.75</ele><time>2026-04-25T07:10:26Z</time></trkpt><trkpt lat="43.36451256042125" lon="11.42304335675867"><ele>271.0</ele><time>2026-04-25T07:10:27Z</time></trkpt><trkpt lat="43.36450004363398" lon="11.42286149615572"><ele>269.25</ele><time>2026-04-25T07:10:28Z</time></trkpt><trkpt lat="43.36449271407876" lon="11.42268340897911"><ele>267.5</ele><time>2026-04-25T07:10:29Z</time></trkpt><trkpt lat="43.36448368869134" lon="11.422506892567984"><ele>265.75</ele><time>2026-04-25T07:10:30Z</time></trkpt><trkpt lat="43.36447550368388" lon="11.42232933959909"><ele>264.0</ele><time>2026-04-25T07:10:31Z</time></trkpt><trkpt lat="43.36446793065724" lon="11.422156923033544"><ele>262.25</ele><time>2026-04-25T07:10:32Z</time></trkpt><trkpt lat="43.364458337224306" lon="11.421984369428015"><ele>260.5</ele><time>2026-04-25T07:10:33Z</time></trkpt><trkpt lat="43.364448833724" lon="11.421815332120019"><ele>258.75</ele><time>2026-04-25T07:10:34Z</time></trkpt><trkpt lat="43.36443727061614" lon="11.421644737594056"><ele>257.0</ele><time>2026-04-25T07:10:35Z</time></trkpt><trkpt lat="43.364418008569366" lon="11.421471984992486"><ele>256.75</ele><time>2026-04-25T07:10:36Z</time></trkpt><trkpt lat="43.36438577188982" lon="11.421299315752464"><ele>256.5</ele><time>2026-04-25T07:10:37Z</time></trkpt><trkpt lat="43.36433570585785" lon="11.421123480902045"><ele>256.25</ele><time>2026-04-25T07:10:38Z</time></trkpt><trkpt lat="43.36427188321438" lon="11.420944061879094"><ele>256.0</ele><time>2026-04-25T07:10:39Z</time></trkpt><trkpt lat="43.36420971367606" lon="11.42077298634633"><ele>256.0</ele><time>2026-04-25T07:10:40Z</time></trkpt><trkpt lat="43.364161708077056" lon="11.420606499892196"><ele>256.0</ele><time>2026-04-25T07:10:41Z</time></trkpt><trkpt lat="43.36412601335548" lon="11.420446796676437"><ele>256.0</ele><time>2026-04-25T07:10:42Z</time></trkpt><trkpt lat="43.3641045256952" lon="11.420282489363181"><ele>256.0</ele><time>2026-04-25T07:10:43Z</time></trkpt><trkpt lat="43.36409070839559" lon="11.420117219709757"><ele>255.60000000000002</ele><time>2026-04-25T07:10:44Z</time></trkpt><trkpt lat="43.36407811041356" lon="11.419959965208683"><ele>255.20000000000002</ele><time>2026-04-25T07:10:45Z</time></trkpt><trkpt lat="43.36406284871624" lon="11.419812119745892"><ele>254.79999999999998</ele><time>2026-04-25T07:10:46Z</time></trkpt><trkpt lat="43.364052936962594" lon="11.419670028538832"><ele>254.39999999999998</ele><time>2026-04-25T07:10:47Z</time></trkpt><trkpt lat="43.36404199659512" lon="11.419531066860852"><ele>254.0</ele><time>2026-04-25T07:10:48Z</time></trkpt><trkpt lat="43.36403270100257" lon="11.41939456491238"><ele>253.2</ele><time>2026-04-25T07:10:49Z</time></trkpt><trkpt lat="43.364025419115826" lon="11.419261252096094"><ele>252.39999999999998</ele><time>2026-04-25T07:10:50Z</time></trkpt><trkpt lat="43.36402402467435" lon="11.419134905905537"><ele>251.6</ele><time>2026-04-25T07:10:51Z</time></trkpt><trkpt lat="43.36401851517504" lon="11.419013396700231"><ele>250.8</ele><time>2026-04-25T07:10:52Z</time></trkpt><trkpt lat="43.36401576922515" lon="11.418908233239893"><ele>250.0</ele><time>2026-04-25T07:10:53Z</time></trkpt><trkpt lat="43.36402413310537" lon="11.418758886069039"><ele>248.5</ele><time>2026-04-25T07:10:55Z</time></trkpt><trkpt lat="43.363916408201355" lon="11.418640164060742"><ele>247.0</ele><time>2026-04-25T07:10:57Z</time></trkpt><trkpt lat="43.363816834012056" lon="11.41856999347858"><ele>245.5</ele><time>2026-04-25T07:10:59.001Z</time></trkpt><trkpt lat="43.363727115611304" lon="11.418524393286063"><ele>244.0</ele><time>2026-04-25T07:11:01.001Z</time></trkpt><trkpt lat="43.36360241691672" lon="11.418469251090038"><ele>243.33333333333331</ele><time>2026-04-25T07:11:03.001Z</time></trkpt><trkpt lat="43.363524362179824" lon="11.418462512990033"><ele>242.66666666666666</ele><time>2026-04-25T07:11:04.001Z</time></trkpt><trkpt lat="43.363443872525714" lon="11.418469783799612"><ele>242.0</ele><time>2026-04-25T07:11:05.001Z</time></trkpt><trkpt lat="43.36336156506952" lon="11.418448785945888"><ele>241.33333333333331</ele><time>2026-04-25T07:11:06.001Z</time></trkpt><trkpt lat="43.363268816289896" lon="11.418465230630085"><ele>240.66666666666666</ele><time>2026-04-25T07:11:07.001Z</time></trkpt><trkpt lat="43.363176396210136" lon="11.418455658806133"><ele>240.0</ele><time>2026-04-25T07:11:08.001Z</time></trkpt><trkpt lat="43.363070565543055" lon="11.418434819834918"><ele>239.25</ele><time>2026-04-25T07:11:09.001Z</time></trkpt><trkpt lat="43.36296152761724" lon="11.4184103909709"><ele>238.5</ele><time>2026-04-25T07:11:10.001Z</time></trkpt><trkpt lat="43.36284394774529" lon="11.418376065905132"><ele>237.75</ele><time>2026-04-25T07:11:11.001Z</time></trkpt><trkpt lat="43.36271968060696" lon="11.418332185525761"><ele>237.0</ele><time>2026-04-25T07:11:12.001Z</time></trkpt><trkpt lat="43.36260246688856" lon="11.418285976378057"><ele>237.0</ele><time>2026-04-25T07:11:13.001Z</time></trkpt><trkpt lat="43.36249050329117" lon="11.418262411100542"><ele>237.0</ele><time>2026-04-25T07:11:14.001Z</time></trkpt><trkpt lat="43.36238169473254" lon="11.418224065522796"><ele>237.0</ele><time>2026-04-25T07:11:15.001Z</time></trkpt><trkpt lat="43.362271874068554" lon="11.418257436875445"><ele>237.0</ele><time>2026-04-25T07:11:16.001Z</time></trkpt><trkpt lat="43.36216379393213" lon="11.41831333778871"><ele>237.25</ele><time>2026-04-25T07:11:17.001Z</time></trkpt><trkpt lat="43.36206299859159" lon="11.418404070732407"><ele>237.5</ele><time>2026-04-25T07:11:18.001Z</time></trkpt><trkpt lat="43.36195009234537" lon="11.418530190496673"><ele>237.75</ele><time>2026-04-25T07:11:19.001Z</time></trkpt><trkpt lat="43.3618604344494" lon="11.418709488618278"><ele>238.0</ele><time>2026-04-25T07:11:20.001Z</time></trkpt><trkpt lat="43.361768821277394" lon="11.418867619602343"><ele>238.0</ele><time>2026-04-25T07:11:21.001Z</time></trkpt><trkpt lat="43.361674849171514" lon="11.4190033460202"><ele>238.0</ele><time>2026-04-25T07:11:22.001Z</time></trkpt><trkpt lat="43.36157001681635" lon="11.419108280236111"><ele>238.0</ele><time>2026-04-25T07:11:23.001Z</time></trkpt><trkpt lat="43.36144102885416" lon="11.419146912751975"><ele>238.0</ele><time>2026-04-25T07:11:24.001Z</time></trkpt><trkpt lat="43.36130820395856" lon="11.41921826591069"><ele>236.0</ele><time>2026-04-25T07:11:25.001Z</time></trkpt><trkpt lat="43.361157590635386" lon="11.419263641834286"><ele>234.0</ele><time>2026-04-25T07:11:26.001Z</time></trkpt><trkpt lat="43.36100439527107" lon="11.419321627766513"><ele>232.0</ele><time>2026-04-25T07:11:27.001Z</time></trkpt><trkpt lat="43.36085584307261" lon="11.419377873870346"><ele>232.0</ele><time>2026-04-25T07:11:28.001Z</time></trkpt><trkpt lat="43.36070919746842" lon="11.419431933962962"><ele>232.0</ele><time>2026-04-25T07:11:29.001Z</time></trkpt><trkpt lat="43.360562403242156" lon="11.419481518735571"><ele>232.0</ele><time>2026-04-25T07:11:30.001Z</time></trkpt><trkpt lat="43.36041384895212" lon="11.419536223933706"><ele>232.0</ele><time>2026-04-25T07:11:31.001Z</time></trkpt><trkpt lat="43.36025885778157" lon="11.419592086586098"><ele>232.0</ele><time>2026-04-25T07:11:32.001Z</time></trkpt><trkpt lat="43.360103727372255" lon="11.419652767663278"><ele>232.0</ele><time>2026-04-25T07:11:33.001Z</time></trkpt><trkpt lat="43.35994482530995" lon="11.419712419188327"><ele>232.0</ele><time>2026-04-25T07:11:34Z</time></trkpt><trkpt lat="43.359780521902515" lon="11.419774763231215"><ele>232.0</ele><time>2026-04-25T07:11:35Z</time></trkpt><trkpt lat="43.35962545685207" lon="11.41983224623689"><ele>232.0</ele><time>2026-04-25T07:11:36Z</time></trkpt><trkpt lat="43.359482017448904" lon="11.419885683856652"><ele>231.2</ele><time>2026-04-25T07:11:37Z</time></trkpt><trkpt lat="43.35935560169243" lon="11.419931128247608"><ele>230.39999999999998</ele><time>2026-04-25T07:11:38Z</time></trkpt><trkpt lat="43.35924773232632" lon="11.419955886930264"><ele>229.60000000000002</ele><time>2026-04-25T07:11:39Z</time></trkpt><trkpt lat="43.35914374022553" lon="11.419957179136807"><ele>228.8</ele><time>2026-04-25T07:11:40Z</time></trkpt><trkpt lat="43.359042287762236" lon="11.419918673687913"><ele>228.0</ele><time>2026-04-25T07:11:41Z</time></trkpt><trkpt lat="43.35894719589451" lon="11.41983532312878"><ele>227.25</ele><time>2026-04-25T07:11:42Z</time></trkpt><trkpt lat="43.358857482692756" lon="11.419711281821565"><ele>226.5</ele><time>2026-04-25T07:11:43Z</time></trkpt><trkpt lat="43.358765811961476" lon="11.419563514735115"><ele>225.75</ele><time>2026-04-25T07:11:44Z</time></trkpt><trkpt lat="43.3586634998147" lon="11.419406292570644"><ele>225.0</ele><time>2026-04-25T07:11:45Z</time></trkpt><trkpt lat="43.3585631978631" lon="11.41925903106582"><ele>224.25</ele><time>2026-04-25T07:11:46Z</time></trkpt><trkpt lat="43.358466534965935" lon="11.419111244338897"><ele>223.5</ele><time>2026-04-25T07:11:47Z</time></trkpt><trkpt lat="43.35837155036319" lon="11.418962032567046"><ele>222.75</ele><time>2026-04-25T07:11:48Z</time></trkpt><trkpt lat="43.358276075528934" lon="11.418816562034696"><ele>222.0</ele><time>2026-04-25T07:11:49Z</time></trkpt><trkpt lat="43.35817812972222" lon="11.418671545505454"><ele>221.75</ele><time>2026-04-25T07:11:50Z</time></trkpt><trkpt lat="43.358083006368936" lon="11.41852154371065"><ele>221.5</ele><time>2026-04-25T07:11:51Z</time></trkpt><trkpt lat="43.357984931723855" lon="11.418371534323141"><ele>221.25</ele><time>2026-04-25T07:11:52Z</time></trkpt><trkpt lat="43.35788904128396" lon="11.41822282711972"><ele>221.0</ele><time>2026-04-25T07:11:53Z</time></trkpt><trkpt lat="43.357793684970304" lon="11.418079841628801"><ele>220.75</ele><time>2026-04-25T07:11:54Z</time></trkpt><trkpt lat="43.35770266227486" lon="11.41793886895627"><ele>220.5</ele><time>2026-04-25T07:11:55Z</time></trkpt><trkpt lat="43.35761446011172" lon="11.417802048073364"><ele>220.25</ele><time>2026-04-25T07:11:56Z</time></trkpt><trkpt lat="43.357524559222824" lon="11.417662785949819"><ele>220.0</ele><time>2026-04-25T07:11:57Z</time></trkpt><trkpt lat="43.357438869259944" lon="11.4175284276396"><ele>220.0</ele><time>2026-04-25T07:11:58Z</time></trkpt><trkpt lat="43.357356616477055" lon="11.417401118870703"><ele>220.0</ele><time>2026-04-25T07:11:59Z</time></trkpt><trkpt lat="43.357279556022306" lon="11.417278639891506"><ele>220.0</ele><time>2026-04-25T07:12:00Z</time></trkpt><trkpt lat="43.357202858157386" lon="11.417162579266662"><ele>220.0</ele><time>2026-04-25T07:12:01Z</time></trkpt><trkpt lat="43.3571310892048" lon="11.417057067620714"><ele>219.8</ele><time>2026-04-25T07:12:02Z</time></trkpt><trkpt lat="43.35706548606177" lon="11.41695877952623"><ele>219.6</ele><time>2026-04-25T07:12:03Z</time></trkpt><trkpt lat="43.35700712182291" lon="11.416864035370498"><ele>219.39999999999998</ele><time>2026-04-25T07:12:04Z</time></trkpt><trkpt lat="43.35694425258575" lon="11.416774177378858"><ele>219.2</ele><time>2026-04-25T07:12:05Z</time></trkpt><trkpt lat="43.35687883572498" lon="11.416671736461812"><ele>219.0</ele><time>2026-04-25T07:12:06Z</time></trkpt><trkpt lat="43.356809045534234" lon="11.416564105358697"><ele>219.0</ele><time>2026-04-25T07:12:07Z</time></trkpt><trkpt lat="43.35673684077287" lon="11.41644754097193"><ele>218.99999999999997</ele><time>2026-04-25T07:12:08Z</time></trkpt><trkpt lat="43.356662181246655" lon="11.416322541958442"><ele>218.99999999999997</ele><time>2026-04-25T07:12:09Z</time></trkpt><trkpt lat="43.356590546652775" lon="11.416203781363015"><ele>219.0</ele><time>2026-04-25T07:12:10Z</time></trkpt><trkpt lat="43.35652801842661" lon="11.416092190877"><ele>219.0</ele><time>2026-04-25T07:12:11Z</time></trkpt><trkpt lat="43.356476959890074" lon="11.415999100588419"><ele>219.33333333333334</ele><time>2026-04-25T07:12:12Z</time></trkpt><trkpt lat="43.35643620544455" lon="11.415931590740731"><ele>219.66666666666669</ele><time>2026-04-25T07:12:13Z</time></trkpt><trkpt lat="43.35635654843702" lon="11.415846304290977"><ele>220.0</ele><time>2026-04-25T07:12:15Z</time></trkpt><trkpt lat="43.356239848473734" lon="11.415816482863884"><ele>220.33333333333334</ele><time>2026-04-25T07:12:17Z</time></trkpt><trkpt lat="43.35616561618934" lon="11.415822086186731"><ele>220.66666666666669</ele><time>2026-04-25T07:12:18Z</time></trkpt><trkpt lat="43.35608772398142" lon="11.415848817216599"><ele>221.0</ele><time>2026-04-25T07:12:19Z</time></trkpt><trkpt lat="43.35600937911343" lon="11.415881362856899"><ele>221.20000000000002</ele><time>2026-04-25T07:12:20Z</time></trkpt><trkpt lat="43.35592504881629" lon="11.415925993628893"><ele>221.40000000000003</ele><time>2026-04-25T07:12:21Z</time></trkpt><trkpt lat="43.35583068980044" lon="11.41598295721328"><ele>221.6</ele><time>2026-04-25T07:12:22Z</time></trkpt><trkpt lat="43.355734543714426" lon="11.416056915814455"><ele>221.8</ele><time>2026-04-25T07:12:23Z</time></trkpt><trkpt lat="43.35563680802904" lon="11.416126881379965"><ele>222.0</ele><time>2026-04-25T07:12:24Z</time></trkpt><trkpt lat="43.355534919431555" lon="11.416190844384944"><ele>223.25</ele><time>2026-04-25T07:12:25Z</time></trkpt><trkpt lat="43.35542417294758" lon="11.416235253980837"><ele>224.5</ele><time>2026-04-25T07:12:26Z</time></trkpt><trkpt lat="43.3553043599883" lon="11.416251411089414"><ele>225.75</ele><time>2026-04-25T07:12:27Z</time></trkpt><trkpt lat="43.35515958124675" lon="11.416237582019681"><ele>227.0</ele><time>2026-04-25T07:12:28Z</time></trkpt><trkpt lat="43.35499790839811" lon="11.416210696329742"><ele>227.0</ele><time>2026-04-25T07:12:29Z</time></trkpt><trkpt lat="43.354831658212774" lon="11.416187272965114"><ele>227.0</ele><time>2026-04-25T07:12:30Z</time></trkpt><trkpt lat="43.35465538818055" lon="11.416170118787468"><ele>227.0</ele><time>2026-04-25T07:12:31Z</time></trkpt><trkpt lat="43.354507338215846" lon="11.416153311346045"><ele>226.33333333333334</ele><time>2026-04-25T07:12:32Z</time></trkpt><trkpt lat="43.35435575561929" lon="11.416134888882864"><ele>225.66666666666669</ele><time>2026-04-25T07:12:33Z</time></trkpt><trkpt lat="43.35419117865307" lon="11.416114493597403"><ele>225.0</ele><time>2026-04-25T07:12:34Z</time></trkpt><trkpt lat="43.35404473957339" lon="11.416095485176754"><ele>225.0</ele><time>2026-04-25T07:12:35Z</time></trkpt><trkpt lat="43.35390621311953" lon="11.416079037097022"><ele>225.0</ele><time>2026-04-25T07:12:36Z</time></trkpt><trkpt lat="43.35376594880604" lon="11.416064000725433"><ele>225.0</ele><time>2026-04-25T07:12:37Z</time></trkpt><trkpt lat="43.35362250363116" lon="11.41603656945858"><ele>225.0</ele><time>2026-04-25T07:12:38Z</time></trkpt><trkpt lat="43.35347841166231" lon="11.416000710262763"><ele>224.5</ele><time>2026-04-25T07:12:39Z</time></trkpt><trkpt lat="43.353332764103136" lon="11.415958985683222"><ele>224.0</ele><time>2026-04-25T07:12:40Z</time></trkpt><trkpt lat="43.35318672225053" lon="11.41591064585491"><ele>223.5</ele><time>2026-04-25T07:12:41Z</time></trkpt><trkpt lat="43.35303996663661" lon="11.41586582917826"><ele>223.0</ele><time>2026-04-25T07:12:42Z</time></trkpt><trkpt lat="43.35289435141421" lon="11.415824284077868"><ele>223.0</ele><time>2026-04-25T07:12:43Z</time></trkpt><trkpt lat="43.35275785621012" lon="11.415787602839101"><ele>223.0</ele><time>2026-04-25T07:12:44Z</time></trkpt><trkpt lat="43.352621918217814" lon="11.415749173591742"><ele>223.0</ele><time>2026-04-25T07:12:45Z</time></trkpt><trkpt lat="43.35249903175085" lon="11.415715008390587"><ele>223.0</ele><time>2026-04-25T07:12:46Z</time></trkpt><trkpt lat="43.3523877744397" lon="11.415661875105208"><ele>223.0</ele><time>2026-04-25T07:12:47Z</time></trkpt><trkpt lat="43.35228110753274" lon="11.41563052971068"><ele>223.0</ele><time>2026-04-25T07:12:48Z</time></trkpt><trkpt lat="43.35217015146573" lon="11.415597923804125"><ele>223.0</ele><time>2026-04-25T07:12:49Z</time></trkpt><trkpt lat="43.3520529788005" lon="11.415565822406423"><ele>223.0</ele><time>2026-04-25T07:12:50.001Z</time></trkpt><trkpt lat="43.351928034404885" lon="11.41556627624106"><ele>222.5</ele><time>2026-04-25T07:12:51.001Z</time></trkpt><trkpt lat="43.35180405200493" lon="11.415524516987041"><ele>222.0</ele><time>2026-04-25T07:12:52.001Z</time></trkpt><trkpt lat="43.35167683943192" lon="11.415489685258562"><ele>221.5</ele><time>2026-04-25T07:12:53.001Z</time></trkpt><trkpt lat="43.35154728784135" lon="11.415444225893218"><ele>221.0</ele><time>2026-04-25T07:12:54.001Z</time></trkpt><trkpt lat="43.35141475716899" lon="11.41540387833843"><ele>220.66666666666669</ele><time>2026-04-25T07:12:55.001Z</time></trkpt><trkpt lat="43.35127205199585" lon="11.415360335042179"><ele>220.33333333333331</ele><time>2026-04-25T07:12:56.001Z</time></trkpt><trkpt lat="43.35112345772396" lon="11.415316672170668"><ele>220.0</ele><time>2026-04-25T07:12:57.001Z</time></trkpt><trkpt lat="43.35096649550254" lon="11.415272310587675"><ele>220.0</ele><time>2026-04-25T07:12:58.001Z</time></trkpt><trkpt lat="43.35080134540926" lon="11.415225641979038"><ele>220.0</ele><time>2026-04-25T07:12:59.001Z</time></trkpt><trkpt lat="43.350644372322975" lon="11.415179574486606"><ele>220.0</ele><time>2026-04-25T07:13:00.001Z</time></trkpt><trkpt lat="43.350490801576505" lon="11.4151356348159"><ele>221.5</ele><time>2026-04-25T07:13:01.001Z</time></trkpt><trkpt lat="43.35034881908633" lon="11.41509160795107"><ele>223.0</ele><time>2026-04-25T07:13:02.001Z</time></trkpt><trkpt lat="43.350215915915925" lon="11.415037510009315"><ele>224.5</ele><time>2026-04-25T07:13:03.001Z</time></trkpt><trkpt lat="43.35010541000574" lon="11.414929732190425"><ele>226.0</ele><time>2026-04-25T07:13:04.001Z</time></trkpt><trkpt lat="43.35000775433108" lon="11.414797082090608"><ele>226.25</ele><time>2026-04-25T07:13:05.001Z</time></trkpt><trkpt lat="43.34991998403565" lon="11.41463765974882"><ele>226.5</ele><time>2026-04-25T07:13:06.001Z</time></trkpt><trkpt lat="43.349818768039164" lon="11.41448552911765"><ele>226.75</ele><time>2026-04-25T07:13:07.001Z</time></trkpt><trkpt lat="43.34973942578578" lon="11.414309897998576"><ele>227.0</ele><time>2026-04-25T07:13:08.001Z</time></trkpt><trkpt lat="43.34963905338433" lon="11.414161809289865"><ele>227.0</ele><time>2026-04-25T07:13:09.001Z</time></trkpt><trkpt lat="43.34957331819081" lon="11.41397849356394"><ele>227.0</ele><time>2026-04-25T07:13:10.001Z</time></trkpt><trkpt lat="43.3495053382137" lon="11.413804733914914"><ele>227.0</ele><time>2026-04-25T07:13:11.001Z</time></trkpt><trkpt lat="43.34944160232768" lon="11.413619241304618"><ele>227.0</ele><time>2026-04-25T07:13:12.001Z</time></trkpt><trkpt lat="43.34937670086846" lon="11.413434266098262"><ele>227.0</ele><time>2026-04-25T07:13:13.001Z</time></trkpt><trkpt lat="43.349297240254586" lon="11.413252924566223"><ele>227.0</ele><time>2026-04-25T07:13:14.001Z</time></trkpt><trkpt lat="43.34918933640455" lon="11.413099470661058"><ele>227.0</ele><time>2026-04-25T07:13:15.001Z</time></trkpt><trkpt lat="43.34908711715321" lon="11.412949636783898"><ele>226.33333333333334</ele><time>2026-04-25T07:13:16.001Z</time></trkpt><trkpt lat="43.34898717889637" lon="11.412788807549493"><ele>225.66666666666669</ele><time>2026-04-25T07:13:17.001Z</time></trkpt><trkpt lat="43.348886057017786" lon="11.412636347259346"><ele>225.0</ele><time>2026-04-25T07:13:18.001Z</time></trkpt><trkpt lat="43.34878340325838" lon="11.41248032971306"><ele>227.33333333333331</ele><time>2026-04-25T07:13:19.001Z</time></trkpt><trkpt lat="43.348704886160235" lon="11.41229795207302"><ele>229.66666666666666</ele><time>2026-04-25T07:13:20.001Z</time></trkpt><trkpt lat="43.34865361187328" lon="11.412094979813304"><ele>232.0</ele><time>2026-04-25T07:13:21.001Z</time></trkpt><trkpt lat="43.34858378056099" lon="11.411902118106477"><ele>232.0</ele><time>2026-04-25T07:13:22.001Z</time></trkpt><trkpt lat="43.34854429431537" lon="11.411687120308947"><ele>232.0</ele><time>2026-04-25T07:13:23.001Z</time></trkpt><trkpt lat="43.34854129803423" lon="11.411462421807723"><ele>232.0</ele><time>2026-04-25T07:13:24.001Z</time></trkpt><trkpt lat="43.348527911597465" lon="11.41124143131085"><ele>234.0</ele><time>2026-04-25T07:13:25.001Z</time></trkpt><trkpt lat="43.34849522648333" lon="11.411018320583773"><ele>236.0</ele><time>2026-04-25T07:13:26.001Z</time></trkpt><trkpt lat="43.34846885490848" lon="11.410799986820459"><ele>238.0</ele><time>2026-04-25T07:13:27.001Z</time></trkpt><trkpt lat="43.348447749387674" lon="11.41057802721795"><ele>238.66666666666666</ele><time>2026-04-25T07:13:28.001Z</time></trkpt><trkpt lat="43.34839964083393" lon="11.410363333205126"><ele>239.33333333333331</ele><time>2026-04-25T07:13:29.001Z</time></trkpt><trkpt lat="43.348347423944425" lon="11.410151098643182"><ele>240.0</ele><time>2026-04-25T07:13:30.001Z</time></trkpt><trkpt lat="43.34829318324483" lon="11.409937795040197"><ele>240.0</ele><time>2026-04-25T07:13:31.001Z</time></trkpt><trkpt lat="43.348237226721416" lon="11.409719112435257"><ele>240.0</ele><time>2026-04-25T07:13:32.001Z</time></trkpt><trkpt lat="43.348181270225965" lon="11.409500430230736"><ele>240.0</ele><time>2026-04-25T07:13:33.001Z</time></trkpt><trkpt lat="43.34812851696607" lon="11.409287024587892"><ele>240.0</ele><time>2026-04-25T07:13:34.001Z</time></trkpt><trkpt lat="43.34807054317666" lon="11.409078350285963"><ele>240.0</ele><time>2026-04-25T07:13:35.001Z</time></trkpt><trkpt lat="43.34803919366354" lon="11.408863534113669"><ele>240.0</ele><time>2026-04-25T07:13:36.001Z</time></trkpt><trkpt lat="43.34804241562169" lon="11.408638553106776"><ele>248.0</ele><time>2026-04-25T07:13:37.001Z</time></trkpt><trkpt lat="43.34803405128036" lon="11.408404310612992"><ele>256.0</ele><time>2026-04-25T07:13:38.001Z</time></trkpt><trkpt lat="43.3480148303956" lon="11.408166708869297"><ele>264.0</ele><time>2026-04-25T07:13:39.001Z</time></trkpt><trkpt lat="43.348015167262076" lon="11.407930169888132"><ele>266.0</ele><time>2026-04-25T07:13:40Z</time></trkpt><trkpt lat="43.34803625145432" lon="11.407696760676414"><ele>268.0</ele><time>2026-04-25T07:13:41Z</time></trkpt><trkpt lat="43.348045300186115" lon="11.40746567531661"><ele>270.0</ele><time>2026-04-25T07:13:42Z</time></trkpt><trkpt lat="43.34805670964114" lon="11.40723821506006"><ele>263.0</ele><time>2026-04-25T07:13:43Z</time></trkpt><trkpt lat="43.3480688703557" lon="11.407014720693041"><ele>256.0</ele><time>2026-04-25T07:13:44Z</time></trkpt><trkpt lat="43.34806761035239" lon="11.4067958367007"><ele>249.0</ele><time>2026-04-25T07:13:45Z</time></trkpt><trkpt lat="43.34810792563777" lon="11.40658350592809"><ele>249.0</ele><time>2026-04-25T07:13:46Z</time></trkpt><trkpt lat="43.34814951239585" lon="11.406374399007179"><ele>249.0</ele><time>2026-04-25T07:13:47Z</time></trkpt><trkpt lat="43.3482042801738" lon="11.40617414784829"><ele>249.0</ele><time>2026-04-25T07:13:48Z</time></trkpt><trkpt lat="43.34826571653945" lon="11.405977309709487"><ele>251.33333333333331</ele><time>2026-04-25T07:13:49Z</time></trkpt><trkpt lat="43.34832472395015" lon="11.405783319827316"><ele>253.66666666666666</ele><time>2026-04-25T07:13:50Z</time></trkpt><trkpt lat="43.34835965373083" lon="11.405574092186546"><ele>256.0</ele><time>2026-04-25T07:13:51Z</time></trkpt><trkpt lat="43.34840555737275" lon="11.405361820776628"><ele>259.66666666666663</ele><time>2026-04-25T07:13:52Z</time></trkpt><trkpt lat="43.34843334737915" lon="11.405145562872406"><ele>263.3333333333333</ele><time>2026-04-25T07:13:53Z</time></trkpt><trkpt lat="43.348450865042054" lon="11.404930650494995"><ele>267.0</ele><time>2026-04-25T07:13:54Z</time></trkpt><trkpt lat="43.34849092520208" lon="11.404731232077099"><ele>267.5</ele><time>2026-04-25T07:13:55Z</time></trkpt><trkpt lat="43.34853595551537" lon="11.40452901627427"><ele>268.0</ele><time>2026-04-25T07:13:56Z</time></trkpt><trkpt lat="43.348592201901845" lon="11.404344031405747"><ele>268.5</ele><time>2026-04-25T07:13:57Z</time></trkpt><trkpt lat="43.34867978614167" lon="11.404177783297747"><ele>269.0</ele><time>2026-04-25T07:13:58Z</time></trkpt><trkpt lat="43.348781532193" lon="11.404029074522956"><ele>270.0</ele><time>2026-04-25T07:13:59Z</time></trkpt><trkpt lat="43.348889930890756" lon="11.403888582690206"><ele>271.0</ele><time>2026-04-25T07:14:00Z</time></trkpt><trkpt lat="43.34898390314405" lon="11.403729227974676"><ele>272.0</ele><time>2026-04-25T07:14:01Z</time></trkpt><trkpt lat="43.34905610444825" lon="11.403544092488396"><ele>272.0</ele><time>2026-04-25T07:14:02Z</time></trkpt><trkpt lat="43.34910326908199" lon="11.403358545247684"><ele>272.0</ele><time>2026-04-25T07:14:03Z</time></trkpt><trkpt lat="43.34912499217679" lon="11.403161468731795"><ele>272.0</ele><time>2026-04-25T07:14:04Z</time></trkpt><trkpt lat="43.3491414450197" lon="11.40295946550589"><ele>272.0</ele><time>2026-04-25T07:14:05Z</time></trkpt><trkpt lat="43.34915639484877" lon="11.4027744894331"><ele>273.75</ele><time>2026-04-25T07:14:06Z</time></trkpt><trkpt lat="43.34916851308775" lon="11.40259651320703"><ele>275.5</ele><time>2026-04-25T07:14:07Z</time></trkpt><trkpt lat="43.34918234430541" lon="11.402427208916741"><ele>277.25</ele><time>2026-04-25T07:14:08Z</time></trkpt><trkpt lat="43.349196702282995" lon="11.402260666657348"><ele>279.0</ele><time>2026-04-25T07:14:09Z</time></trkpt><trkpt lat="43.349216806453875" lon="11.402095710401449"><ele>281.0</ele><time>2026-04-25T07:14:10Z</time></trkpt><trkpt lat="43.34924784000623" lon="11.401935616694038"><ele>283.0</ele><time>2026-04-25T07:14:11Z</time></trkpt><trkpt lat="43.34929440497171" lon="11.401777800635916"><ele>285.0</ele><time>2026-04-25T07:14:12Z</time></trkpt><trkpt lat="43.349364739855716" lon="11.401646935219237"><ele>287.0</ele><time>2026-04-25T07:14:13Z</time></trkpt><trkpt lat="43.34945758621862" lon="11.401564669137393"><ele>287.0</ele><time>2026-04-25T07:14:14Z</time></trkpt><trkpt lat="43.349556017890464" lon="11.401520052672703"><ele>287.0</ele><time>2026-04-25T07:14:15Z</time></trkpt><trkpt lat="43.3496629888992" lon="11.40152252117239"><ele>287.0</ele><time>2026-04-25T07:14:16Z</time></trkpt><trkpt lat="43.349767483033325" lon="11.401560340467068"><ele>287.0</ele><time>2026-04-25T07:14:17Z</time></trkpt><trkpt lat="43.34986455853292" lon="11.4016164578052"><ele>287.0</ele><time>2026-04-25T07:14:18Z</time></trkpt><trkpt lat="43.34996520226017" lon="11.401655376612803"><ele>286.0</ele><time>2026-04-25T07:14:19Z</time></trkpt><trkpt lat="43.350056793196366" lon="11.401648982250093"><ele>285.0</ele><time>2026-04-25T07:14:20Z</time></trkpt><trkpt lat="43.35014675246242" lon="11.401603102983238"><ele>284.0</ele><time>2026-04-25T07:14:21Z</time></trkpt><trkpt lat="43.350213355925774" lon="11.401515202210563"><ele>283.0</ele><time>2026-04-25T07:14:22Z</time></trkpt><trkpt lat="43.350241825318754" lon="11.401394902375328"><ele>282.0</ele><time>2026-04-25T07:14:23Z</time></trkpt><trkpt lat="43.35023012630837" lon="11.401263796128697"><ele>284.5</ele><time>2026-04-25T07:14:24Z</time></trkpt><trkpt lat="43.35017169140984" lon="11.401134082929307"><ele>287.0</ele><time>2026-04-25T07:14:25Z</time></trkpt><trkpt lat="43.3500808203027" lon="11.401005572140676"><ele>289.5</ele><time>2026-04-25T07:14:26Z</time></trkpt><trkpt lat="43.34998810013633" lon="11.40088280041825"><ele>292.0</ele><time>2026-04-25T07:14:27Z</time></trkpt><trkpt lat="43.34989834945721" lon="11.40078207481182"><ele>292.0</ele><time>2026-04-25T07:14:28Z</time></trkpt><trkpt lat="43.34978991594531" lon="11.400685308371465"><ele>292.0</ele><time>2026-04-25T07:14:29Z</time></trkpt><trkpt lat="43.349661125405056" lon="11.400623241609294"><ele>292.0</ele><time>2026-04-25T07:14:30Z</time></trkpt><trkpt lat="43.349523233314684" lon="11.40061680560191"><ele>292.0</ele><time>2026-04-25T07:14:31Z</time></trkpt><trkpt lat="43.34939324651384" lon="11.400668015406145"><ele>292.5</ele><time>2026-04-25T07:14:32Z</time></trkpt><trkpt lat="43.34926910228327" lon="11.400753571600825"><ele>293.0</ele><time>2026-04-25T07:14:33Z</time></trkpt><trkpt lat="43.349144266786425" lon="11.400825925056907"><ele>293.5</ele><time>2026-04-25T07:14:34Z</time></trkpt><trkpt lat="43.349016904257724" lon="11.400897076852727"><ele>294.0</ele><time>2026-04-25T07:14:35Z</time></trkpt><trkpt lat="43.34890168520605" lon="11.400966908602356"><ele>295.2</ele><time>2026-04-25T07:14:36Z</time></trkpt><trkpt lat="43.34879979133212" lon="11.40102372498837"><ele>296.4</ele><time>2026-04-25T07:14:37Z</time></trkpt><trkpt lat="43.34870522094222" lon="11.401060925159701"><ele>297.6</ele><time>2026-04-25T07:14:38Z</time></trkpt><trkpt lat="43.34860534658405" lon="11.401049221414942"><ele>298.8</ele><time>2026-04-25T07:14:39Z</time></trkpt><trkpt lat="43.34850808045764" lon="11.400978087918615"><ele>300.0</ele><time>2026-04-25T07:14:40Z</time></trkpt><trkpt lat="43.348415090950695" lon="11.400865738685463"><ele>300.0</ele><time>2026-04-25T07:14:41Z</time></trkpt><trkpt lat="43.34831976833164" lon="11.40074849511815"><ele>300.0</ele><time>2026-04-25T07:14:42Z</time></trkpt><trkpt lat="43.34822672870881" lon="11.400646503291675"><ele>300.0</ele><time>2026-04-25T07:14:43Z</time></trkpt><trkpt lat="43.34813587602699" lon="11.40054451439849"><ele>300.0</ele><time>2026-04-25T07:14:44Z</time></trkpt><trkpt lat="43.34803222117441" lon="11.400456149856293"><ele>301.75</ele><time>2026-04-25T07:14:45Z</time></trkpt><trkpt lat="43.34791370297072" lon="11.40036471659103"><ele>303.5</ele><time>2026-04-25T07:14:46Z</time></trkpt><trkpt lat="43.34780523782167" lon="11.400294263102436"><ele>305.25</ele><time>2026-04-25T07:14:47Z</time></trkpt><trkpt lat="43.34770841881799" lon="11.400241458427997"><ele>307.0</ele><time>2026-04-25T07:14:48Z</time></trkpt><trkpt lat="43.347613243218255" lon="11.40017998610284"><ele>307.0</ele><time>2026-04-25T07:14:49Z</time></trkpt><trkpt lat="43.34752902547807" lon="11.400103274544962"><ele>307.0</ele><time>2026-04-25T07:14:50Z</time></trkpt><trkpt lat="43.347459520955425" lon="11.399997541347082"><ele>307.0</ele><time>2026-04-25T07:14:51.001Z</time></trkpt><trkpt lat="43.347417690856155" lon="11.399876375226603"><ele>307.0</ele><time>2026-04-25T07:14:52.001Z</time></trkpt><trkpt lat="43.34740054521911" lon="11.399749231399092"><ele>307.0</ele><time>2026-04-25T07:14:53.001Z</time></trkpt><trkpt lat="43.34741969166596" lon="11.399620143799153"><ele>307.2</ele><time>2026-04-25T07:14:54.001Z</time></trkpt><trkpt lat="43.347488621039396" lon="11.399519375731428"><ele>307.4</ele><time>2026-04-25T07:14:55.001Z</time></trkpt><trkpt lat="43.34754264284279" lon="11.399404921000597"><ele>307.6</ele><time>2026-04-25T07:14:56.001Z</time></trkpt><trkpt lat="43.347623185221025" lon="11.399326806283772"><ele>307.8</ele><time>2026-04-25T07:14:57.001Z</time></trkpt><trkpt lat="43.34770901211192" lon="11.399257013353182"><ele>308.0</ele><time>2026-04-25T07:14:58.001Z</time></trkpt><trkpt lat="43.347796827126935" lon="11.399199910665512"><ele>308.0</ele><time>2026-04-25T07:14:59.001Z</time></trkpt><trkpt lat="43.347889419217495" lon="11.399135448797015"><ele>308.0</ele><time>2026-04-25T07:15:00.001Z</time></trkpt><trkpt lat="43.347980463750574" lon="11.399092535501298"><ele>308.0</ele><time>2026-04-25T07:15:01.001Z</time></trkpt><trkpt lat="43.348063377753654" lon="11.399065278983732"><ele>308.0</ele><time>2026-04-25T07:15:02.001Z</time></trkpt><trkpt lat="43.34814160552791" lon="11.39904156969966"><ele>308.0</ele><time>2026-04-25T07:15:03.001Z</time></trkpt><trkpt lat="43.34821409680833" lon="11.39901849885325"><ele>308.0</ele><time>2026-04-25T07:15:04.001Z</time></trkpt><trkpt lat="43.348284275489924" lon="11.399010365040109"><ele>308.4</ele><time>2026-04-25T07:15:05.001Z</time></trkpt><trkpt lat="43.3483818532877" lon="11.39899269410382"><ele>308.8</ele><time>2026-04-25T07:15:07.001Z</time></trkpt><trkpt lat="43.34839725624866" lon="11.39878807189729"><ele>309.2</ele><time>2026-04-25T07:15:12.001Z</time></trkpt><trkpt lat="43.34834866837895" lon="11.398712078419477"><ele>309.6</ele><time>2026-04-25T07:15:13.001Z</time></trkpt><trkpt lat="43.3483050783559" lon="11.39863388751021"><ele>310.0</ele><time>2026-04-25T07:15:14.001Z</time></trkpt><trkpt lat="43.34826068977909" lon="11.398561840871244"><ele>309.16666666666663</ele><time>2026-04-25T07:15:15.001Z</time></trkpt><trkpt lat="43.348203655257905" lon="11.398503603234703"><ele>308.3333333333333</ele><time>2026-04-25T07:15:16.001Z</time></trkpt><trkpt lat="43.34813662888792" lon="11.398471857627866"><ele>307.5</ele><time>2026-04-25T07:15:17.001Z</time></trkpt><trkpt lat="43.348066036976945" lon="11.398469108424932"><ele>306.6666666666667</ele><time>2026-04-25T07:15:18.001Z</time></trkpt><trkpt lat="43.34796938404554" lon="11.398519985125048"><ele>305.83333333333337</ele><time>2026-04-25T07:15:19.001Z</time></trkpt><trkpt lat="43.347869254629686" lon="11.398582143631613"><ele>305.0</ele><time>2026-04-25T07:15:20.001Z</time></trkpt><trkpt lat="43.34775272108094" lon="11.398632261616127"><ele>303.5</ele><time>2026-04-25T07:15:21.001Z</time></trkpt><trkpt lat="43.34762213654076" lon="11.39864080877682"><ele>302.0</ele><time>2026-04-25T07:15:22.001Z</time></trkpt><trkpt lat="43.34749764467414" lon="11.398682026410423"><ele>300.5</ele><time>2026-04-25T07:15:23.001Z</time></trkpt><trkpt lat="43.34736396381458" lon="11.398700172692356"><ele>299.0</ele><time>2026-04-25T07:15:24.001Z</time></trkpt><trkpt lat="43.347229380640876" lon="11.398720064509783"><ele>299.75</ele><time>2026-04-25T07:15:25.001Z</time></trkpt><trkpt lat="43.34710640018623" lon="11.398741065705646"><ele>300.5</ele><time>2026-04-25T07:15:26.001Z</time></trkpt><trkpt lat="43.346990971622" lon="11.398757011643008"><ele>301.25</ele><time>2026-04-25T07:15:27.001Z</time></trkpt><trkpt lat="43.34688634925555" lon="11.398814254340929"><ele>302.0</ele><time>2026-04-25T07:15:28.001Z</time></trkpt><trkpt lat="43.34678717609648" lon="11.398902596910238"><ele>302.0</ele><time>2026-04-25T07:15:29.001Z</time></trkpt><trkpt lat="43.346694956236966" lon="11.39901684142344"><ele>302.0</ele><time>2026-04-25T07:15:30.001Z</time></trkpt><trkpt lat="43.34659594132934" lon="11.399152295993812"><ele>302.0</ele><time>2026-04-25T07:15:31.001Z</time></trkpt><trkpt lat="43.346504003055585" lon="11.399316869835197"><ele>302.0</ele><time>2026-04-25T07:15:32.001Z</time></trkpt><trkpt lat="43.34641171004471" lon="11.399470676770543"><ele>301.25</ele><time>2026-04-25T07:15:33.001Z</time></trkpt><trkpt lat="43.34631712897013" lon="11.399616760370654"><ele>300.5</ele><time>2026-04-25T07:15:34.001Z</time></trkpt><trkpt lat="43.346227121044826" lon="11.399769025973294"><ele>299.75</ele><time>2026-04-25T07:15:35.001Z</time></trkpt><trkpt lat="43.34613655614846" lon="11.399915671940652"><ele>299.0</ele><time>2026-04-25T07:15:36.001Z</time></trkpt><trkpt lat="43.34605354669069" lon="11.40004337044785"><ele>299.0</ele><time>2026-04-25T07:15:37.001Z</time></trkpt><trkpt lat="43.345975072834705" lon="11.400155838407146"><ele>299.0</ele><time>2026-04-25T07:15:38.001Z</time></trkpt><trkpt lat="43.34590950305793" lon="11.40025817342223"><ele>299.0</ele><time>2026-04-25T07:15:39.001Z</time></trkpt><trkpt lat="43.34584347010829" lon="11.4003604647177"><ele>299.0</ele><time>2026-04-25T07:15:40.001Z</time></trkpt><trkpt lat="43.34577371831845" lon="11.400454186889936"><ele>299.0</ele><time>2026-04-25T07:15:41.001Z</time></trkpt><trkpt lat="43.34571195141783" lon="11.400549330797732"><ele>299.0</ele><time>2026-04-25T07:15:42.001Z</time></trkpt><trkpt lat="43.34565275486203" lon="11.400639325907816"><ele>299.0</ele><time>2026-04-25T07:15:43.001Z</time></trkpt><trkpt lat="43.345595414013175" lon="11.400726399494143"><ele>299.0</ele><time>2026-04-25T07:15:44.001Z</time></trkpt><trkpt lat="43.345549050703056" lon="11.400800923434499"><ele>299.0</ele><time>2026-04-25T07:15:45.001Z</time></trkpt><trkpt lat="43.345499166373166" lon="11.400874522576688"><ele>299.0</ele><time>2026-04-25T07:15:46Z</time></trkpt><trkpt lat="43.34545600215371" lon="11.400939237797683"><ele>299.0</ele><time>2026-04-25T07:15:47Z</time></trkpt><trkpt lat="43.34539860862705" lon="11.400985753001576"><ele>299.0</ele><time>2026-04-25T07:15:48Z</time></trkpt><trkpt lat="43.34534716720835" lon="11.401038297688263"><ele>299.0</ele><time>2026-04-25T07:15:49Z</time></trkpt><trkpt lat="43.34529317549777" lon="11.401085306275228"><ele>299.0</ele><time>2026-04-25T07:15:50Z</time></trkpt><trkpt lat="43.34523281081243" lon="11.401118006885918"><ele>299.0</ele><time>2026-04-25T07:15:51Z</time></trkpt><trkpt lat="43.34516438730776" lon="11.40114807122616"><ele>299.0</ele><time>2026-04-25T07:15:52Z</time></trkpt><trkpt lat="43.345090735427334" lon="11.401179091335464"><ele>299.0</ele><time>2026-04-25T07:15:53Z</time></trkpt><trkpt lat="43.344995876078876" lon="11.401217942155219"><ele>299.0</ele><time>2026-04-25T07:15:54Z</time></trkpt><trkpt lat="43.344891223452606" lon="11.40125723415917"><ele>299.0</ele><time>2026-04-25T07:15:55Z</time></trkpt><trkpt lat="43.34478752316143" lon="11.401289691712826"><ele>299.0</ele><time>2026-04-25T07:15:56Z</time></trkpt><trkpt lat="43.34469644871936" lon="11.401304481124313"><ele>299.0</ele><time>2026-04-25T07:15:57Z</time></trkpt><trkpt lat="43.344598995237966" lon="11.401311093290307"><ele>299.0</ele><time>2026-04-25T07:15:58Z</time></trkpt><trkpt lat="43.34448033162262" lon="11.401306966711704"><ele>299.0</ele><time>2026-04-25T07:15:59Z</time></trkpt><trkpt lat="43.344367097867725" lon="11.40131604292479"><ele>297.8</ele><time>2026-04-25T07:16:00Z</time></trkpt><trkpt lat="43.34426391163287" lon="11.401338545268121"><ele>296.59999999999997</ele><time>2026-04-25T07:16:01Z</time></trkpt><trkpt lat="43.34416051191783" lon="11.401362201904611"><ele>295.4</ele><time>2026-04-25T07:16:02Z</time></trkpt><trkpt lat="43.344061777549925" lon="11.401387371592923"><ele>294.2</ele><time>2026-04-25T07:16:03Z</time></trkpt><trkpt lat="43.34395692506477" lon="11.401428129885424"><ele>293.0</ele><time>2026-04-25T07:16:04Z</time></trkpt><trkpt lat="43.343838570108176" lon="11.401497121225658"><ele>292.75</ele><time>2026-04-25T07:16:05Z</time></trkpt><trkpt lat="43.343709190519675" lon="11.401553727161986"><ele>292.5</ele><time>2026-04-25T07:16:06Z</time></trkpt><trkpt lat="43.343600359597154" lon="11.401616924170758"><ele>292.25</ele><time>2026-04-25T07:16:07Z</time></trkpt><trkpt lat="43.34350026402632" lon="11.40168049473956"><ele>292.0</ele><time>2026-04-25T07:16:08Z</time></trkpt><trkpt lat="43.34341849149957" lon="11.401763509854014"><ele>292.0</ele><time>2026-04-25T07:16:09Z</time></trkpt><trkpt lat="43.343337313748066" lon="11.401830204502303"><ele>292.0</ele><time>2026-04-25T07:16:10Z</time></trkpt><trkpt lat="43.343265494252805" lon="11.401908542638946"><ele>292.0</ele><time>2026-04-25T07:16:11Z</time></trkpt><trkpt lat="43.34321170658037" lon="11.4019944301858"><ele>292.0</ele><time>2026-04-25T07:16:12Z</time></trkpt><trkpt lat="43.343170025884824" lon="11.40208639911648"><ele>292.0</ele><time>2026-04-25T07:16:13Z</time></trkpt><trkpt lat="43.34313705063935" lon="11.402178147844886"><ele>292.0</ele><time>2026-04-25T07:16:14Z</time></trkpt><trkpt lat="43.34311142565191" lon="11.40227084454688"><ele>291.25</ele><time>2026-04-25T07:16:15Z</time></trkpt><trkpt lat="43.343079406659136" lon="11.40243915881306"><ele>290.5</ele><time>2026-04-25T07:16:17Z</time></trkpt><trkpt lat="43.34306515157448" lon="11.402576131504572"><ele>289.75</ele><time>2026-04-25T07:16:18Z</time></trkpt><trkpt lat="43.34305527555384" lon="11.402748047825538"><ele>289.0</ele><time>2026-04-25T07:16:19Z</time></trkpt><trkpt lat="43.34304314039488" lon="11.402894184155432"><ele>289.0</ele><time>2026-04-25T07:16:20Z</time></trkpt><trkpt lat="43.34302028761947" lon="11.403026348506097"><ele>289.0</ele><time>2026-04-25T07:16:21Z</time></trkpt><trkpt lat="43.34297583634072" lon="11.403146397178704"><ele>289.0</ele><time>2026-04-25T07:16:22Z</time></trkpt><trkpt lat="43.34289681692247" lon="11.403227133654498"><ele>289.0</ele><time>2026-04-25T07:16:23Z</time></trkpt><trkpt lat="43.34281777816535" lon="11.403286309004184"><ele>289.0</ele><time>2026-04-25T07:16:24Z</time></trkpt><trkpt lat="43.34272632173589" lon="11.403289608557039"><ele>289.0</ele><time>2026-04-25T07:16:25Z</time></trkpt><trkpt lat="43.342596184733104" lon="11.403309427597078"><ele>289.0</ele><time>2026-04-25T07:16:26Z</time></trkpt><trkpt lat="43.34246983516067" lon="11.403360617334675"><ele>289.0</ele><time>2026-04-25T07:16:27Z</time></trkpt><trkpt lat="43.34236416624932" lon="11.403406439054647"><ele>289.0</ele><time>2026-04-25T07:16:28Z</time></trkpt><trkpt lat="43.34225887094947" lon="11.403492647195156"><ele>287.3333333333333</ele><time>2026-04-25T07:16:29Z</time></trkpt><trkpt lat="43.34211426147831" lon="11.40365316479151"><ele>285.6666666666667</ele><time>2026-04-25T07:16:30Z</time></trkpt><trkpt lat="43.34195242145925" lon="11.40385183482494"><ele>284.0</ele><time>2026-04-25T07:16:31Z</time></trkpt><trkpt lat="43.34181798817184" lon="11.40400710443087"><ele>284.0</ele><time>2026-04-25T07:16:32Z</time></trkpt><trkpt lat="43.34171129327385" lon="11.40413189288217"><ele>284.0</ele><time>2026-04-25T07:16:33Z</time></trkpt><trkpt lat="43.341610739904745" lon="11.404244600689859"><ele>284.0</ele><time>2026-04-25T07:16:34Z</time></trkpt><trkpt lat="43.341510300155896" lon="11.404351817760762"><ele>284.0</ele><time>2026-04-25T07:16:35Z</time></trkpt><trkpt lat="43.341413487683" lon="11.404459405081276"><ele>285.5</ele><time>2026-04-25T07:16:36Z</time></trkpt><trkpt lat="43.341332914134064" lon="11.40457045622869"><ele>287.0</ele><time>2026-04-25T07:16:37Z</time></trkpt><trkpt lat="43.34124912479731" lon="11.40469042304814"><ele>288.5</ele><time>2026-04-25T07:16:38Z</time></trkpt><trkpt lat="43.341184650123225" lon="11.404814839104873"><ele>290.0</ele><time>2026-04-25T07:16:39Z</time></trkpt><trkpt lat="43.34111960202478" lon="11.404927028403343"><ele>290.0</ele><time>2026-04-25T07:16:40Z</time></trkpt><trkpt lat="43.34105266726039" lon="11.405033320647089"><ele>290.0</ele><time>2026-04-25T07:16:41Z</time></trkpt><trkpt lat="43.34097866053534" lon="11.40513659067846"><ele>290.0</ele><time>2026-04-25T07:16:42Z</time></trkpt><trkpt lat="43.3409025177401" lon="11.4052275800075"><ele>290.0</ele><time>2026-04-25T07:16:43Z</time></trkpt><trkpt lat="43.34082348865157" lon="11.405300083691216"><ele>290.0</ele><time>2026-04-25T07:16:44Z</time></trkpt><trkpt lat="43.34072452607563" lon="11.405373433963248"><ele>290.0</ele><time>2026-04-25T07:16:45Z</time></trkpt><trkpt lat="43.3406252940774" lon="11.405436726448109"><ele>290.0</ele><time>2026-04-25T07:16:46Z</time></trkpt><trkpt lat="43.340523590389836" lon="11.405500986014655"><ele>290.0</ele><time>2026-04-25T07:16:47Z</time></trkpt><trkpt lat="43.340418464655585" lon="11.405568416263836"><ele>290.0</ele><time>2026-04-25T07:16:48Z</time></trkpt><trkpt lat="43.34030283795231" lon="11.405636014857894"><ele>290.0</ele><time>2026-04-25T07:16:49Z</time></trkpt><trkpt lat="43.340164170470906" lon="11.40571756811104"><ele>290.0</ele><time>2026-04-25T07:16:50Z</time></trkpt><trkpt lat="43.34003197554811" lon="11.405797581540702"><ele>290.0</ele><time>2026-04-25T07:16:51Z</time></trkpt><trkpt lat="43.339925361918404" lon="11.405860601104363"><ele>290.0</ele><time>2026-04-25T07:16:52Z</time></trkpt><trkpt lat="43.33982823288298" lon="11.405921180660009"><ele>290.0</ele><time>2026-04-25T07:16:53Z</time></trkpt><trkpt lat="43.339738359466956" lon="11.4059820897233"><ele>290.0</ele><time>2026-04-25T07:16:54Z</time></trkpt><trkpt lat="43.33965433118076" lon="11.406032016720347"><ele>290.0</ele><time>2026-04-25T07:16:55Z</time></trkpt><trkpt lat="43.33958644052399" lon="11.406111706001528"><ele>290.0</ele><time>2026-04-25T07:16:56Z</time></trkpt><trkpt lat="43.33952934125164" lon="11.406209423020098"><ele>290.0</ele><time>2026-04-25T07:16:57Z</time></trkpt><trkpt lat="43.3394772742455" lon="11.406340775580835"><ele>289.4</ele><time>2026-04-25T07:16:58Z</time></trkpt><trkpt lat="43.33942737870283" lon="11.406479142424141"><ele>288.8</ele><time>2026-04-25T07:16:59Z</time></trkpt><trkpt lat="43.33936686230602" lon="11.406600793271938"><ele>288.2</ele><time>2026-04-25T07:17:00Z</time></trkpt><trkpt lat="43.33929220623138" lon="11.406717938804903"><ele>287.6</ele><time>2026-04-25T07:17:01Z</time></trkpt><trkpt lat="43.339208331753916" lon="11.406823636008342"><ele>287.0</ele><time>2026-04-25T07:17:02Z</time></trkpt><trkpt lat="43.33912030492921" lon="11.406920829353183"><ele>287.0</ele><time>2026-04-25T07:17:03Z</time></trkpt><trkpt lat="43.339035780220755" lon="11.407017773410589"><ele>287.0</ele><time>2026-04-25T07:17:04Z</time></trkpt><trkpt lat="43.33894772729477" lon="11.407122596447229"><ele>287.0</ele><time>2026-04-25T07:17:05Z</time></trkpt><trkpt lat="43.338868998229984" lon="11.407224069546581"><ele>287.0</ele><time>2026-04-25T07:17:06Z</time></trkpt><trkpt lat="43.338791228963174" lon="11.407319668506913"><ele>287.0</ele><time>2026-04-25T07:17:07Z</time></trkpt><trkpt lat="43.33871975950579" lon="11.407405323552965"><ele>287.4</ele><time>2026-04-25T07:17:08Z</time></trkpt><trkpt lat="43.338650418139444" lon="11.407482002113916"><ele>287.79999999999995</ele><time>2026-04-25T07:17:09Z</time></trkpt><trkpt lat="43.33858355979996" lon="11.407548517839546"><ele>288.2</ele><time>2026-04-25T07:17:10Z</time></trkpt><trkpt lat="43.33850785725499" lon="11.407613504116176"><ele>288.59999999999997</ele><time>2026-04-25T07:17:11.001Z</time></trkpt><trkpt lat="43.33841435304613" lon="11.407683222825014"><ele>289.0</ele><time>2026-04-25T07:17:12.001Z</time></trkpt><trkpt lat="43.338330460973495" lon="11.407746802210665"><ele>289.0</ele><time>2026-04-25T07:17:13.001Z</time></trkpt><trkpt lat="43.33825199202025" lon="11.407795368359247"><ele>289.0</ele><time>2026-04-25T07:17:14.001Z</time></trkpt><trkpt lat="43.33817115554529" lon="11.407805728853917"><ele>289.0</ele><time>2026-04-25T07:17:15.001Z</time></trkpt><trkpt lat="43.33810791911012" lon="11.407809437475981"><ele>289.0</ele><time>2026-04-25T07:17:16.001Z</time></trkpt><trkpt lat="43.338040892408316" lon="11.407822274960674"><ele>289.0</ele><time>2026-04-25T07:17:17.001Z</time></trkpt><trkpt lat="43.337970474297364" lon="11.40772668342345"><ele>289.0</ele><time>2026-04-25T07:17:18.001Z</time></trkpt><trkpt lat="43.33787449131338" lon="11.407634360545913"><ele>289.5</ele><time>2026-04-25T07:17:19.001Z</time></trkpt><trkpt lat="43.33775465482883" lon="11.407514341318022"><ele>290.0</ele><time>2026-04-25T07:17:20.001Z</time></trkpt><trkpt lat="43.337624562043295" lon="11.407386335133248"><ele>290.5</ele><time>2026-04-25T07:17:21.001Z</time></trkpt><trkpt lat="43.33751945266631" lon="11.407284719527944"><ele>291.0</ele><time>2026-04-25T07:17:22.001Z</time></trkpt><trkpt lat="43.33742993507491" lon="11.407203262492496"><ele>290.8</ele><time>2026-04-25T07:17:23.001Z</time></trkpt><trkpt lat="43.33734354572732" lon="11.407128885746843"><ele>290.6</ele><time>2026-04-25T07:17:24.001Z</time></trkpt><trkpt lat="43.33725466512832" lon="11.407078219747207"><ele>290.4</ele><time>2026-04-25T07:17:25.001Z</time></trkpt><trkpt lat="43.33716318539112" lon="11.407011281283966"><ele>290.2</ele><time>2026-04-25T07:17:26.001Z</time></trkpt><trkpt lat="43.33704168052756" lon="11.40692195397656"><ele>290.0</ele><time>2026-04-25T07:17:27.001Z</time></trkpt><trkpt lat="43.33691737298257" lon="11.406886650554123"><ele>290.4</ele><time>2026-04-25T07:17:28.001Z</time></trkpt><trkpt lat="43.336815079423" lon="11.40681920004807"><ele>290.8</ele><time>2026-04-25T07:17:29.001Z</time></trkpt><trkpt lat="43.33671312024854" lon="11.406773000274796"><ele>291.2</ele><time>2026-04-25T07:17:30.001Z</time></trkpt><trkpt lat="43.33661199740331" lon="11.406730182980786"><ele>291.6</ele><time>2026-04-25T07:17:31.001Z</time></trkpt><trkpt lat="43.33651232316622" lon="11.406713584853179"><ele>292.0</ele><time>2026-04-25T07:17:32.001Z</time></trkpt><trkpt lat="43.336422952378236" lon="11.40668472017276"><ele>293.16666666666663</ele><time>2026-04-25T07:17:33.001Z</time></trkpt><trkpt lat="43.33633519249336" lon="11.406664119287514"><ele>294.3333333333333</ele><time>2026-04-25T07:17:34.001Z</time></trkpt><trkpt lat="43.33625698916434" lon="11.406645943499354"><ele>295.5</ele><time>2026-04-25T07:17:35.001Z</time></trkpt><trkpt lat="43.336180371057026" lon="11.40663198775336"><ele>296.6666666666667</ele><time>2026-04-25T07:17:36.001Z</time></trkpt><trkpt lat="43.33610684192559" lon="11.406682658555319"><ele>297.83333333333337</ele><time>2026-04-25T07:17:37.001Z</time></trkpt><trkpt lat="43.336031546772645" lon="11.40672346578661"><ele>299.0</ele><time>2026-04-25T07:17:38.001Z</time></trkpt><trkpt lat="43.33595205541772" lon="11.406786704739297"><ele>299.0</ele><time>2026-04-25T07:17:39.001Z</time></trkpt><trkpt lat="43.3358603290196" lon="11.4068782187528"><ele>299.0</ele><time>2026-04-25T07:17:40.001Z</time></trkpt><trkpt lat="43.33575877922594" lon="11.406996909256133"><ele>299.0</ele><time>2026-04-25T07:17:41.001Z</time></trkpt><trkpt lat="43.33567306364107" lon="11.407112259050242"><ele>299.0</ele><time>2026-04-25T07:17:42.001Z</time></trkpt><trkpt lat="43.33559420742283" lon="11.407203379101949"><ele>298.59999999999997</ele><time>2026-04-25T07:17:43.001Z</time></trkpt><trkpt lat="43.33551566027726" lon="11.407287170563439"><ele>298.2</ele><time>2026-04-25T07:17:44.001Z</time></trkpt><trkpt lat="43.3354374519396" lon="11.407352196562146"><ele>297.79999999999995</ele><time>2026-04-25T07:17:45.001Z</time></trkpt><trkpt lat="43.33535827864468" lon="11.407385374047715"><ele>297.4</ele><time>2026-04-25T07:17:46.001Z</time></trkpt><trkpt lat="43.33527113368225" lon="11.407374112867007"><ele>297.0</ele><time>2026-04-25T07:17:47.001Z</time></trkpt><trkpt lat="43.335182764092266" lon="11.407368182445964"><ele>297.0</ele><time>2026-04-25T07:17:48.001Z</time></trkpt><trkpt lat="43.3349901413931" lon="11.407434646813458"><ele>297.0</ele><time>2026-04-25T07:17:50.001Z</time></trkpt><trkpt lat="43.33488461626095" lon="11.407444793885832"><ele>297.0</ele><time>2026-04-25T07:17:51.001Z</time></trkpt><trkpt lat="43.33477958807601" lon="11.407475771639216"><ele>297.0</ele><time>2026-04-25T07:17:52Z</time></trkpt><trkpt lat="43.33467339431175" lon="11.40748272536785"><ele>295.6</ele><time>2026-04-25T07:17:53Z</time></trkpt><trkpt lat="43.334569949350744" lon="11.407461696816416"><ele>294.2</ele><time>2026-04-25T07:17:54Z</time></trkpt><trkpt lat="43.334485697705745" lon="11.40746078408535"><ele>292.8</ele><time>2026-04-25T07:17:55Z</time></trkpt><trkpt lat="43.334369754655135" lon="11.407448243838434"><ele>291.4</ele><time>2026-04-25T07:17:57Z</time></trkpt><trkpt lat="43.33430144827194" lon="11.407404253670842"><ele>290.0</ele><time>2026-04-25T07:17:59Z</time></trkpt><trkpt lat="43.33426107514132" lon="11.407313491208773"><ele>290.0</ele><time>2026-04-25T07:18:01Z</time></trkpt><trkpt lat="43.33423133780955" lon="11.407205298971064"><ele>290.0</ele><time>2026-04-25T07:18:03Z</time></trkpt><trkpt lat="43.33421140637992" lon="11.40702032296899"><ele>290.0</ele><time>2026-04-25T07:18:05Z</time></trkpt><trkpt lat="43.33419910964762" lon="11.406898192755492"><ele>290.0</ele><time>2026-04-25T07:18:06Z</time></trkpt><trkpt lat="43.3341757022679" lon="11.406704642923998"><ele>289.75</ele><time>2026-04-25T07:18:07Z</time></trkpt><trkpt lat="43.33415000796273" lon="11.406459792046245"><ele>289.5</ele><time>2026-04-25T07:18:08Z</time></trkpt><trkpt lat="43.33411918603948" lon="11.406262512830203"><ele>289.25</ele><time>2026-04-25T07:18:09Z</time></trkpt><trkpt lat="43.33409990241709" lon="11.406113554984985"><ele>289.0</ele><time>2026-04-25T07:18:10Z</time></trkpt><trkpt lat="43.334084318506946" lon="11.405979704049717"><ele>288.25</ele><time>2026-04-25T07:18:11Z</time></trkpt><trkpt lat="43.334081592762736" lon="11.405846784846185"><ele>287.5</ele><time>2026-04-25T07:18:12Z</time></trkpt><trkpt lat="43.33409324664696" lon="11.405689176061568"><ele>286.75</ele><time>2026-04-25T07:18:13Z</time></trkpt><trkpt lat="43.33410874847037" lon="11.405476628684209"><ele>286.0</ele><time>2026-04-25T07:18:14Z</time></trkpt><trkpt lat="43.33412421153892" lon="11.405287600936148"><ele>285.0</ele><time>2026-04-25T07:18:15Z</time></trkpt><trkpt lat="43.334138387409325" lon="11.405122942259107"><ele>284.0</ele><time>2026-04-25T07:18:16Z</time></trkpt><trkpt lat="43.33415496656298" lon="11.404955337125251"><ele>283.0</ele><time>2026-04-25T07:18:17Z</time></trkpt><trkpt lat="43.33417162233613" lon="11.40478088031004"><ele>282.0</ele><time>2026-04-25T07:18:18Z</time></trkpt><trkpt lat="43.33418278562765" lon="11.404633546502922"><ele>282.0</ele><time>2026-04-25T07:18:19Z</time></trkpt><trkpt lat="43.334189853725974" lon="11.404505231408285"><ele>282.0</ele><time>2026-04-25T07:18:20Z</time></trkpt><trkpt lat="43.334200265260996" lon="11.404385229495865"><ele>282.0</ele><time>2026-04-25T07:18:21Z</time></trkpt><trkpt lat="43.33420563934702" lon="11.404273151838106"><ele>282.0</ele><time>2026-04-25T07:18:22Z</time></trkpt><trkpt lat="43.33421725102293" lon="11.404173523674801"><ele>282.0</ele><time>2026-04-25T07:18:23Z</time></trkpt><trkpt lat="43.33418118063125" lon="11.404088849061429"><ele>282.0</ele><time>2026-04-25T07:18:24Z</time></trkpt><trkpt lat="43.33411116612794" lon="11.40397189390272"><ele>282.0</ele><time>2026-04-25T07:18:26Z</time></trkpt><trkpt lat="43.33402813701188" lon="11.403984417736654"><ele>282.0</ele><time>2026-04-25T07:18:27Z</time></trkpt><trkpt lat="43.33394590131765" lon="11.404054877640784"><ele>282.0</ele><time>2026-04-25T07:18:28Z</time></trkpt><trkpt lat="43.33383962906645" lon="11.40412713094328"><ele>282.0</ele><time>2026-04-25T07:18:29Z</time></trkpt><trkpt lat="43.33373312706517" lon="11.404163488572923"><ele>282.0</ele><time>2026-04-25T07:18:30Z</time></trkpt><trkpt lat="43.333641018700824" lon="11.404209771207757"><ele>281.5</ele><time>2026-04-25T07:18:31Z</time></trkpt><trkpt lat="43.33353194531894" lon="11.40426575440506"><ele>281.0</ele><time>2026-04-25T07:18:32Z</time></trkpt><trkpt lat="43.333412722329875" lon="11.404350300811865"><ele>280.5</ele><time>2026-04-25T07:18:33Z</time></trkpt><trkpt lat="43.333285060245366" lon="11.404388796093016"><ele>280.0</ele><time>2026-04-25T07:18:34Z</time></trkpt><trkpt lat="43.33316798222155" lon="11.404446263577796"><ele>280.25</ele><time>2026-04-25T07:18:35Z</time></trkpt><trkpt lat="43.333054008728794" lon="11.404527301571973"><ele>280.5</ele><time>2026-04-25T07:18:36Z</time></trkpt><trkpt lat="43.33292625093538" lon="11.40459341926919"><ele>280.75</ele><time>2026-04-25T07:18:37Z</time></trkpt><trkpt lat="43.33280218133602" lon="11.404660056343095"><ele>281.0</ele><time>2026-04-25T07:18:38Z</time></trkpt><trkpt lat="43.33267995347301" lon="11.404726154082677"><ele>280.25</ele><time>2026-04-25T07:18:39Z</time></trkpt><trkpt lat="43.332551925118494" lon="11.404793251266128"><ele>279.5</ele><time>2026-04-25T07:18:40Z</time></trkpt><trkpt lat="43.33241830133302" lon="11.404871865961093"><ele>278.75</ele><time>2026-04-25T07:18:41Z</time></trkpt><trkpt lat="43.33229002776532" lon="11.404944038726814"><ele>278.0</ele><time>2026-04-25T07:18:42Z</time></trkpt><trkpt lat="43.33217429285669" lon="11.405001061204356"><ele>278.0</ele><time>2026-04-25T07:18:43Z</time></trkpt><trkpt lat="43.332065420677594" lon="11.405055734426218"><ele>278.0</ele><time>2026-04-25T07:18:44Z</time></trkpt><trkpt lat="43.33196257301614" lon="11.405115889427933"><ele>278.0</ele><time>2026-04-25T07:18:45Z</time></trkpt><trkpt lat="43.331847296247275" lon="11.405162826384998"><ele>278.0</ele><time>2026-04-25T07:18:46Z</time></trkpt><trkpt lat="43.33172212521578" lon="11.405196273918193"><ele>278.0</ele><time>2026-04-25T07:18:47Z</time></trkpt><trkpt lat="43.33159395676047" lon="11.405231934199838"><ele>278.0</ele><time>2026-04-25T07:18:48Z</time></trkpt><trkpt lat="43.33146545764739" lon="11.405284504282385"><ele>278.0</ele><time>2026-04-25T07:18:49Z</time></trkpt><trkpt lat="43.33132680389638" lon="11.405290463241252"><ele>278.0</ele><time>2026-04-25T07:18:50Z</time></trkpt><trkpt lat="43.33118948742456" lon="11.405337010514154"><ele>276.5</ele><time>2026-04-25T07:18:51Z</time></trkpt><trkpt lat="43.33105845370723" lon="11.40536990842869"><ele>275.0</ele><time>2026-04-25T07:18:52Z</time></trkpt><trkpt lat="43.33093046178918" lon="11.405405314790102"><ele>273.5</ele><time>2026-04-25T07:18:53Z</time></trkpt><trkpt lat="43.330805256196115" lon="11.405441959777672"><ele>272.0</ele><time>2026-04-25T07:18:54Z</time></trkpt><trkpt lat="43.33069672838007" lon="11.40547591622949"><ele>271.4</ele><time>2026-04-25T07:18:55Z</time></trkpt><trkpt lat="43.330601236871495" lon="11.405510324073378"><ele>270.79999999999995</ele><time>2026-04-25T07:18:56Z</time></trkpt><trkpt lat="43.3305130896279" lon="11.405528329342548"><ele>270.2</ele><time>2026-04-25T07:18:57Z</time></trkpt><trkpt lat="43.330422489548255" lon="11.40555817286934"><ele>269.59999999999997</ele><time>2026-04-25T07:18:58Z</time></trkpt><trkpt lat="43.33033332292431" lon="11.405601873014755"><ele>269.0</ele><time>2026-04-25T07:18:59Z</time></trkpt><trkpt lat="43.33024849175769" lon="11.40563979439947"><ele>268.0</ele><time>2026-04-25T07:19:00Z</time></trkpt><trkpt lat="43.33016325855355" lon="11.405685137393004"><ele>267.0</ele><time>2026-04-25T07:19:01Z</time></trkpt><trkpt lat="43.330070222311384" lon="11.405740918430899"><ele>266.0</ele><time>2026-04-25T07:19:02Z</time></trkpt><trkpt lat="43.32998088038199" lon="11.405791601828831"><ele>265.0</ele><time>2026-04-25T07:19:03Z</time></trkpt><trkpt lat="43.329879358456274" lon="11.405854855027311"><ele>264.0</ele><time>2026-04-25T07:19:04Z</time></trkpt><trkpt lat="43.329785563133" lon="11.40592389020111"><ele>263.0</ele><time>2026-04-25T07:19:05Z</time></trkpt><trkpt lat="43.329699470918875" lon="11.405989598072708"><ele>262.0</ele><time>2026-04-25T07:19:06Z</time></trkpt><trkpt lat="43.32961874912167" lon="11.406054200311694"><ele>261.0</ele><time>2026-04-25T07:19:07Z</time></trkpt><trkpt lat="43.32954347056691" lon="11.406124608772215"><ele>260.0</ele><time>2026-04-25T07:19:08Z</time></trkpt><trkpt lat="43.329446841271206" lon="11.406231318703304"><ele>259.0</ele><time>2026-04-25T07:19:09Z</time></trkpt><trkpt lat="43.32932324853653" lon="11.406390288073831"><ele>258.66666666666663</ele><time>2026-04-25T07:19:10Z</time></trkpt><trkpt lat="43.32918866400466" lon="11.406559247068609"><ele>258.3333333333333</ele><time>2026-04-25T07:19:11Z</time></trkpt><trkpt lat="43.32906562467372" lon="11.406707933148565"><ele>258.0</ele><time>2026-04-25T07:19:12Z</time></trkpt><trkpt lat="43.32893968681806" lon="11.406858571107916"><ele>257.6666666666667</ele><time>2026-04-25T07:19:13Z</time></trkpt><trkpt lat="43.32880020084557" lon="11.407026082009818"><ele>257.33333333333337</ele><time>2026-04-25T07:19:14Z</time></trkpt><trkpt lat="43.32867300947785" lon="11.40717821172821"><ele>257.0</ele><time>2026-04-25T07:19:15Z</time></trkpt><trkpt lat="43.3285292898614" lon="11.407344274155014"><ele>255.66666666666669</ele><time>2026-04-25T07:19:16Z</time></trkpt><trkpt lat="43.328384518032024" lon="11.407517204039873"><ele>254.33333333333331</ele><time>2026-04-25T07:19:17Z</time></trkpt><trkpt lat="43.328262665193385" lon="11.407666383256691"><ele>253.0</ele><time>2026-04-25T07:19:18Z</time></trkpt><trkpt lat="43.3281324032746" lon="11.40782467632648"><ele>253.0</ele><time>2026-04-25T07:19:19Z</time></trkpt><trkpt lat="43.32798726234171" lon="11.4079981128202"><ele>253.0</ele><time>2026-04-25T07:19:20Z</time></trkpt><trkpt lat="43.327858416292955" lon="11.408145878605692"><ele>253.0</ele><time>2026-04-25T07:19:21Z</time></trkpt><trkpt lat="43.32774808361058" lon="11.408272151691314"><ele>253.0</ele><time>2026-04-25T07:19:22.001Z</time></trkpt><trkpt lat="43.327646365834724" lon="11.40839041839806"><ele>253.0</ele><time>2026-04-25T07:19:23.001Z</time></trkpt><trkpt lat="43.32754850628363" lon="11.408503404390855"><ele>253.0</ele><time>2026-04-25T07:19:24.001Z</time></trkpt><trkpt lat="43.32743591418411" lon="11.408630249083286"><ele>253.0</ele><time>2026-04-25T07:19:25.001Z</time></trkpt><trkpt lat="43.32733556519421" lon="11.408745823486157"><ele>251.8</ele><time>2026-04-25T07:19:26.001Z</time></trkpt><trkpt lat="43.32724518618931" lon="11.408850429399777"><ele>250.60000000000002</ele><time>2026-04-25T07:19:27.001Z</time></trkpt><trkpt lat="43.327155364090856" lon="11.408952379828007"><ele>249.39999999999998</ele><time>2026-04-25T07:19:28.001Z</time></trkpt><trkpt lat="43.327073718980444" lon="11.40904926160049"><ele>248.2</ele><time>2026-04-25T07:19:29.001Z</time></trkpt><trkpt lat="43.32699807282153" lon="11.409151849985037"><ele>247.0</ele><time>2026-04-25T07:19:30.001Z</time></trkpt><trkpt lat="43.326915833445916" lon="11.409289718883434"><ele>246.75</ele><time>2026-04-25T07:19:31.001Z</time></trkpt><trkpt lat="43.32683368379641" lon="11.409425056582533"><ele>246.5</ele><time>2026-04-25T07:19:32.001Z</time></trkpt><trkpt lat="43.32676504821687" lon="11.409545153333703"><ele>246.25</ele><time>2026-04-25T07:19:33.001Z</time></trkpt><trkpt lat="43.326680219667175" lon="11.409666191181458"><ele>246.0</ele><time>2026-04-25T07:19:34.001Z</time></trkpt><trkpt lat="43.326581092804155" lon="11.409748087259969"><ele>245.4</ele><time>2026-04-25T07:19:35.001Z</time></trkpt><trkpt lat="43.32649568426809" lon="11.409836556891912"><ele>244.8</ele><time>2026-04-25T07:19:36.001Z</time></trkpt><trkpt lat="43.326417900240315" lon="11.409923961793309"><ele>244.20000000000002</ele><time>2026-04-25T07:19:37.001Z</time></trkpt><trkpt lat="43.32635809778833" lon="11.409999036336107"><ele>243.60000000000002</ele><time>2026-04-25T07:19:38.001Z</time></trkpt><trkpt lat="43.326306179057816" lon="11.410058173545432"><ele>243.0</ele><time>2026-04-25T07:19:39.001Z</time></trkpt><trkpt lat="43.32621401675697" lon="11.410162219636662"><ele>243.0</ele><time>2026-04-25T07:19:41.001Z</time></trkpt><trkpt lat="43.326137368364456" lon="11.410251125123116"><ele>243.0</ele><time>2026-04-25T07:19:43.001Z</time></trkpt><trkpt lat="43.32608485560399" lon="11.410309830678962"><ele>243.0</ele><time>2026-04-25T07:19:45.001Z</time></trkpt><trkpt lat="43.32602384104319" lon="11.410370885790547"><ele>243.0</ele><time>2026-04-25T07:19:50.001Z</time></trkpt><trkpt lat="43.32592864045088" lon="11.41020981491884"><ele>243.0</ele><time>2026-04-25T07:19:54.001Z</time></trkpt><trkpt lat="43.3258675035619" lon="11.410051801148345"><ele>243.0</ele><time>2026-04-25T07:19:56.001Z</time></trkpt><trkpt lat="43.325836667912206" lon="11.409950364834181"><ele>243.0</ele><time>2026-04-25T07:19:57.001Z</time></trkpt><trkpt lat="43.325814537300275" lon="11.409821621733824"><ele>243.0</ele><time>2026-04-25T07:19:58Z</time></trkpt><trkpt lat="43.32580311140398" lon="11.409664842067563"><ele>243.0</ele><time>2026-04-25T07:19:59Z</time></trkpt><trkpt lat="43.32582692315122" lon="11.409473908197377"><ele>243.0</ele><time>2026-04-25T07:20:00Z</time></trkpt><trkpt lat="43.32583873472905" lon="11.409254570081542"><ele>240.33333333333331</ele><time>2026-04-25T07:20:01Z</time></trkpt><trkpt lat="43.32583628800286" lon="11.409035207814293"><ele>237.66666666666666</ele><time>2026-04-25T07:20:02Z</time></trkpt><trkpt lat="43.32581094333051" lon="11.40879916066095"><ele>235.0</ele><time>2026-04-25T07:20:03Z</time></trkpt><trkpt lat="43.32578571766268" lon="11.408484347811717"><ele>233.0</ele><time>2026-04-25T07:20:04Z</time></trkpt><trkpt lat="43.32574904282579" lon="11.408143798802755"><ele>231.0</ele><time>2026-04-25T07:20:05Z</time></trkpt><trkpt lat="43.325715197921504" lon="11.407830756868389"><ele>229.66666666666669</ele><time>2026-04-25T07:20:06Z</time></trkpt><trkpt lat="43.32568616918473" lon="11.407564318097155"><ele>228.33333333333334</ele><time>2026-04-25T07:20:07Z</time></trkpt><trkpt lat="43.32565980167669" lon="11.407328341334159"><ele>227.0</ele><time>2026-04-25T07:20:08Z</time></trkpt><trkpt lat="43.325635978765895" lon="11.407115137541547"><ele>226.0</ele><time>2026-04-25T07:20:09Z</time></trkpt><trkpt lat="43.32561021434467" lon="11.40691073926007"><ele>225.0</ele><time>2026-04-25T07:20:10Z</time></trkpt><trkpt lat="43.32556266239503" lon="11.406722337660986"><ele>224.0</ele><time>2026-04-25T07:20:11Z</time></trkpt><trkpt lat="43.32549721937908" lon="11.406562906547778"><ele>223.0</ele><time>2026-04-25T07:20:12Z</time></trkpt><trkpt lat="43.32543030392811" lon="11.406423047773993"><ele>221.8</ele><time>2026-04-25T07:20:13Z</time></trkpt><trkpt lat="43.325364703580334" lon="11.4062919500806"><ele>220.60000000000002</ele><time>2026-04-25T07:20:14Z</time></trkpt><trkpt lat="43.32530181440712" lon="11.406171094264954"><ele>219.39999999999998</ele><time>2026-04-25T07:20:15Z</time></trkpt><trkpt lat="43.32523442834505" lon="11.406058398037688"><ele>218.2</ele><time>2026-04-25T07:20:16Z</time></trkpt><trkpt lat="43.32519348142399" lon="11.405929092846355"><ele>217.0</ele><time>2026-04-25T07:20:17Z</time></trkpt><trkpt lat="43.32515505385655" lon="11.405798592401686"><ele>217.0</ele><time>2026-04-25T07:20:18Z</time></trkpt><trkpt lat="43.32511519580837" lon="11.405671327117378"><ele>217.0</ele><time>2026-04-25T07:20:19Z</time></trkpt><trkpt lat="43.32507816542314" lon="11.405533354061866"><ele>217.0</ele><time>2026-04-25T07:20:20Z</time></trkpt><trkpt lat="43.32504137225709" lon="11.405382644556587"><ele>217.0</ele><time>2026-04-25T07:20:21Z</time></trkpt><trkpt lat="43.32500502204149" lon="11.40521828914068"><ele>217.0</ele><time>2026-04-25T07:20:22Z</time></trkpt><trkpt lat="43.32497302588682" lon="11.405039227968413"><ele>216.33333333333331</ele><time>2026-04-25T07:20:23Z</time></trkpt><trkpt lat="43.324953011576966" lon="11.404838715434025"><ele>215.66666666666669</ele><time>2026-04-25T07:20:24Z</time></trkpt><trkpt lat="43.324957412330185" lon="11.40462259905975"><ele>215.0</ele><time>2026-04-25T07:20:25Z</time></trkpt><trkpt lat="43.32495303024014" lon="11.40441258451043"><ele>214.75</ele><time>2026-04-25T07:20:26Z</time></trkpt><trkpt lat="43.32495087206375" lon="11.404204309524655"><ele>214.5</ele><time>2026-04-25T07:20:27Z</time></trkpt><trkpt lat="43.324951806844126" lon="11.403999317557476"><ele>214.25</ele><time>2026-04-25T07:20:28Z</time></trkpt><trkpt lat="43.32495664847475" lon="11.403796587335538"><ele>214.0</ele><time>2026-04-25T07:20:29Z</time></trkpt><trkpt lat="43.324964503208186" lon="11.403584738779765"><ele>213.33333333333331</ele><time>2026-04-25T07:20:30Z</time></trkpt><trkpt lat="43.3249811482282" lon="11.403343758636414"><ele>212.66666666666669</ele><time>2026-04-25T07:20:31Z</time></trkpt><trkpt lat="43.32500312828336" lon="11.403089477198309"><ele>212.0</ele><time>2026-04-25T07:20:32Z</time></trkpt><trkpt lat="43.32501010263893" lon="11.402822439559426"><ele>213.33333333333334</ele><time>2026-04-25T07:20:33Z</time></trkpt><trkpt lat="43.325035625074996" lon="11.402546606808766"><ele>214.66666666666669</ele><time>2026-04-25T07:20:34Z</time></trkpt><trkpt lat="43.325056620281615" lon="11.402278871265162"><ele>216.0</ele><time>2026-04-25T07:20:35Z</time></trkpt><trkpt lat="43.32507355493305" lon="11.402037193509516"><ele>219.33333333333331</ele><time>2026-04-25T07:20:36Z</time></trkpt><trkpt lat="43.32510120417698" lon="11.401812468852283"><ele>222.66666666666666</ele><time>2026-04-25T07:20:37Z</time></trkpt><trkpt lat="43.325103551206716" lon="11.401594940071828"><ele>226.0</ele><time>2026-04-25T07:20:38Z</time></trkpt><trkpt lat="43.325096810525004" lon="11.401378478666702"><ele>227.25</ele><time>2026-04-25T07:20:39Z</time></trkpt><trkpt lat="43.325089931026795" lon="11.401165729709124"><ele>228.5</ele><time>2026-04-25T07:20:40Z</time></trkpt><trkpt lat="43.325083334572845" lon="11.400989957130252"><ele>229.75</ele><time>2026-04-25T07:20:41Z</time></trkpt><trkpt lat="43.32508191963323" lon="11.40081988945107"><ele>231.0</ele><time>2026-04-25T07:20:42Z</time></trkpt><trkpt lat="43.325079514679985" lon="11.400640833370728"><ele>232.25</ele><time>2026-04-25T07:20:43Z</time></trkpt><trkpt lat="43.32512641043552" lon="11.400456495266871"><ele>233.5</ele><time>2026-04-25T07:20:44Z</time></trkpt><trkpt lat="43.32515519355733" lon="11.400267770135438"><ele>234.75</ele><time>2026-04-25T07:20:45Z</time></trkpt><trkpt lat="43.32517579970861" lon="11.400074855673777"><ele>236.0</ele><time>2026-04-25T07:20:46Z</time></trkpt><trkpt lat="43.325158222637654" lon="11.399873769970007"><ele>236.0</ele><time>2026-04-25T07:20:47Z</time></trkpt><trkpt lat="43.32516502555396" lon="11.399670542957184"><ele>236.0</ele><time>2026-04-25T07:20:48Z</time></trkpt><trkpt lat="43.32515266804459" lon="11.399463889698506"><ele>236.0</ele><time>2026-04-25T07:20:49Z</time></trkpt><trkpt lat="43.32514005789089" lon="11.399259270999265"><ele>236.0</ele><time>2026-04-25T07:20:50Z</time></trkpt><trkpt lat="43.32512688288713" lon="11.399046286654668"><ele>239.66666666666669</ele><time>2026-04-25T07:20:51Z</time></trkpt><trkpt lat="43.32511358346705" lon="11.398831291061146"><ele>243.33333333333331</ele><time>2026-04-25T07:20:52Z</time></trkpt><trkpt lat="43.325101011222685" lon="11.398618465789967"><ele>247.0</ele><time>2026-04-25T07:20:53Z</time></trkpt><trkpt lat="43.325093015764196" lon="11.398412582704433"><ele>247.0</ele><time>2026-04-25T07:20:54Z</time></trkpt><trkpt lat="43.32508782260317" lon="11.398223964266602"><ele>247.0</ele><time>2026-04-25T07:20:55Z</time></trkpt><trkpt lat="43.32508647484414" lon="11.39804811587259"><ele>247.0</ele><time>2026-04-25T07:20:56Z</time></trkpt><trkpt lat="43.325090987655145" lon="11.397890521402463"><ele>247.0</ele><time>2026-04-25T07:20:57Z</time></trkpt><trkpt lat="43.32511888426685" lon="11.39773182819341"><ele>247.0</ele><time>2026-04-25T07:20:58Z</time></trkpt><trkpt lat="43.32517490119704" lon="11.397572694836914"><ele>247.0</ele><time>2026-04-25T07:20:59Z</time></trkpt><trkpt lat="43.32523599722198" lon="11.397384807257197"><ele>247.0</ele><time>2026-04-25T07:21:00Z</time></trkpt><trkpt lat="43.32530119530599" lon="11.39719293065953"><ele>247.0</ele><time>2026-04-25T07:21:01Z</time></trkpt><trkpt lat="43.32535912710471" lon="11.39699891691136"><ele>247.0</ele><time>2026-04-25T07:21:02Z</time></trkpt><trkpt lat="43.32543023367898" lon="11.396810350847277"><ele>247.0</ele><time>2026-04-25T07:21:03Z</time></trkpt><trkpt lat="43.32547144327477" lon="11.396607407165357"><ele>247.0</ele><time>2026-04-25T07:21:04Z</time></trkpt><trkpt lat="43.32554100061881" lon="11.396426669789442"><ele>247.75</ele><time>2026-04-25T07:21:05Z</time></trkpt><trkpt lat="43.32559502034856" lon="11.396252662590813"><ele>248.5</ele><time>2026-04-25T07:21:06Z</time></trkpt><trkpt lat="43.32563055383605" lon="11.396077835933447"><ele>249.25</ele><time>2026-04-25T07:21:07Z</time></trkpt><trkpt lat="43.32567047341499" lon="11.395911403500246"><ele>250.0</ele><time>2026-04-25T07:21:08Z</time></trkpt><trkpt lat="43.32570880465612" lon="11.395734641461301"><ele>250.0</ele><time>2026-04-25T07:21:09Z</time></trkpt><trkpt lat="43.32571183231346" lon="11.395544374663833"><ele>250.0</ele><time>2026-04-25T07:21:10Z</time></trkpt><trkpt lat="43.32570725433736" lon="11.395356041697042"><ele>250.0</ele><time>2026-04-25T07:21:11Z</time></trkpt><trkpt lat="43.32568895978009" lon="11.395167678329368"><ele>250.0</ele><time>2026-04-25T07:21:12Z</time></trkpt><trkpt lat="43.325690198468834" lon="11.3949794618822"><ele>250.5</ele><time>2026-04-25T07:21:13Z</time></trkpt><trkpt lat="43.32568571522957" lon="11.394789166206367"><ele>251.0</ele><time>2026-04-25T07:21:14Z</time></trkpt><trkpt lat="43.32568450512366" lon="11.394589769465755"><ele>251.5</ele><time>2026-04-25T07:21:15Z</time></trkpt><trkpt lat="43.325627220051366" lon="11.39438874727407"><ele>252.0</ele><time>2026-04-25T07:21:16Z</time></trkpt><trkpt lat="43.325569959592755" lon="11.39417676475021"><ele>253.0</ele><time>2026-04-25T07:21:17Z</time></trkpt><trkpt lat="43.325507465787595" lon="11.393964517573382"><ele>254.0</ele><time>2026-04-25T07:21:18Z</time></trkpt><trkpt lat="43.3254496670484" lon="11.393765821439233"><ele>255.0</ele><time>2026-04-25T07:21:19.001Z</time></trkpt><trkpt lat="43.32538274678653" lon="11.393556807036475"><ele>256.6666666666667</ele><time>2026-04-25T07:21:20.001Z</time></trkpt><trkpt lat="43.325335608211475" lon="11.393345574246645"><ele>258.33333333333337</ele><time>2026-04-25T07:21:21.001Z</time></trkpt><trkpt lat="43.3252724013996" lon="11.39314374537339"><ele>260.0</ele><time>2026-04-25T07:21:22.001Z</time></trkpt><trkpt lat="43.32519648660747" lon="11.392956865369985"><ele>260.8</ele><time>2026-04-25T07:21:23.001Z</time></trkpt><trkpt lat="43.32514209471392" lon="11.392793523044167"><ele>261.6</ele><time>2026-04-25T07:21:24.001Z</time></trkpt><trkpt lat="43.32510519831285" lon="11.392652113066"><ele>262.4</ele><time>2026-04-25T07:21:25.001Z</time></trkpt><trkpt lat="43.325055841103854" lon="11.39255055878045"><ele>263.2</ele><time>2026-04-25T07:21:26.001Z</time></trkpt><trkpt lat="43.32496811659741" lon="11.392509658831592"><ele>264.0</ele><time>2026-04-25T07:21:27.001Z</time></trkpt><trkpt lat="43.32487350495524" lon="11.392500646257842"><ele>264.0</ele><time>2026-04-25T07:21:28.001Z</time></trkpt><trkpt lat="43.32476656343966" lon="11.3925312095597"><ele>264.0</ele><time>2026-04-25T07:21:29.001Z</time></trkpt><trkpt lat="43.3246524360657" lon="11.392557802481184"><ele>264.0</ele><time>2026-04-25T07:21:30.001Z</time></trkpt><trkpt lat="43.32452506765913" lon="11.392556916406583"><ele>264.0</ele><time>2026-04-25T07:21:31.001Z</time></trkpt><trkpt lat="43.324401930678185" lon="11.392524107074054"><ele>264.25</ele><time>2026-04-25T07:21:32.001Z</time></trkpt><trkpt lat="43.324291953585146" lon="11.392464766920668"><ele>264.5</ele><time>2026-04-25T07:21:33.001Z</time></trkpt><trkpt lat="43.32418393188797" lon="11.392399662254428"><ele>264.75</ele><time>2026-04-25T07:21:34.001Z</time></trkpt><trkpt lat="43.324065906072065" lon="11.392336035955626"><ele>265.0</ele><time>2026-04-25T07:21:35.001Z</time></trkpt><trkpt lat="43.32394689622737" lon="11.392272444996275"><ele>264.8</ele><time>2026-04-25T07:21:36.001Z</time></trkpt><trkpt lat="43.323823233333336" lon="11.39226100008868"><ele>264.6</ele><time>2026-04-25T07:21:37.001Z</time></trkpt><trkpt lat="43.32372340939091" lon="11.392246830734146"><ele>264.4</ele><time>2026-04-25T07:21:38.001Z</time></trkpt><trkpt lat="43.32362363824768" lon="11.392226975649246"><ele>264.2</ele><time>2026-04-25T07:21:39.001Z</time></trkpt><trkpt lat="43.32352638084057" lon="11.392215224996898"><ele>264.0</ele><time>2026-04-25T07:21:40.001Z</time></trkpt><trkpt lat="43.323434403633776" lon="11.392190225745095"><ele>262.59999999999997</ele><time>2026-04-25T07:21:41.001Z</time></trkpt><trkpt lat="43.32333210565974" lon="11.392169241343435"><ele>261.2</ele><time>2026-04-25T07:21:42.001Z</time></trkpt><trkpt lat="43.32323074833464" lon="11.3921431624552"><ele>259.79999999999995</ele><time>2026-04-25T07:21:43.001Z</time></trkpt><trkpt lat="43.32312809450984" lon="11.392129329651807"><ele>258.4</ele><time>2026-04-25T07:21:44.001Z</time></trkpt><trkpt lat="43.32302361316949" lon="11.392102675276497"><ele>257.0</ele><time>2026-04-25T07:21:45.001Z</time></trkpt><trkpt lat="43.3229138038518" lon="11.392076491697528"><ele>257.0</ele><time>2026-04-25T07:21:46.001Z</time></trkpt><trkpt lat="43.32280617105283" lon="11.39203397407934"><ele>257.0</ele><time>2026-04-25T07:21:47.001Z</time></trkpt><trkpt lat="43.32268919755707" lon="11.392003101500272"><ele>257.0</ele><time>2026-04-25T07:21:48.001Z</time></trkpt><trkpt lat="43.322570333177325" lon="11.391964487167424"><ele>257.0</ele><time>2026-04-25T07:21:49.001Z</time></trkpt><trkpt lat="43.32245044022563" lon="11.39193166023006"><ele>257.0</ele><time>2026-04-25T07:21:50.001Z</time></trkpt><trkpt lat="43.32233275857992" lon="11.39190359102483"><ele>257.0</ele><time>2026-04-25T07:21:51.001Z</time></trkpt><trkpt lat="43.32221140712859" lon="11.391864929846392"><ele>257.0</ele><time>2026-04-25T07:21:52.001Z</time></trkpt><trkpt lat="43.32208611601595" lon="11.391834686028954"><ele>257.0</ele><time>2026-04-25T07:21:53.001Z</time></trkpt><trkpt lat="43.321962476883854" lon="11.391800181000367"><ele>256.0</ele><time>2026-04-25T07:21:54.001Z</time></trkpt><trkpt lat="43.321840334264394" lon="11.39176633175684"><ele>255.0</ele><time>2026-04-25T07:21:55.001Z</time></trkpt><trkpt lat="43.321714985529944" lon="11.391726210577152"><ele>254.0</ele><time>2026-04-25T07:21:56.001Z</time></trkpt><trkpt lat="43.32158891172567" lon="11.391685761841796"><ele>253.0</ele><time>2026-04-25T07:21:57.001Z</time></trkpt><trkpt lat="43.32147136155135" lon="11.391597996441297"><ele>251.66666666666666</ele><time>2026-04-25T07:21:58.001Z</time></trkpt><trkpt lat="43.321334808017575" lon="11.391504773191919"><ele>250.33333333333331</ele><time>2026-04-25T07:21:59.001Z</time></trkpt><trkpt lat="43.32118739627825" lon="11.39139674715149"><ele>249.0</ele><time>2026-04-25T07:22:00.001Z</time></trkpt><trkpt lat="43.321042528723346" lon="11.391294618817993"><ele>249.0</ele><time>2026-04-25T07:22:01.001Z</time></trkpt><trkpt lat="43.32090332020295" lon="11.391199853085004"><ele>249.0</ele><time>2026-04-25T07:22:02.001Z</time></trkpt><trkpt lat="43.320776107422226" lon="11.39111325342229"><ele>249.0</ele><time>2026-04-25T07:22:03.001Z</time></trkpt><trkpt lat="43.32065887771894" lon="11.391040114379427"><ele>249.0</ele><time>2026-04-25T07:22:04Z</time></trkpt><trkpt lat="43.32054223708006" lon="11.390997506689262"><ele>249.0</ele><time>2026-04-25T07:22:05Z</time></trkpt><trkpt lat="43.32044162256503" lon="11.390954755821884"><ele>248.99999999999997</ele><time>2026-04-25T07:22:06Z</time></trkpt><trkpt lat="43.32034906929674" lon="11.390931715998128"><ele>248.99999999999997</ele><time>2026-04-25T07:22:07Z</time></trkpt><trkpt lat="43.32023052743652" lon="11.390913773673681"><ele>249.0</ele><time>2026-04-25T07:22:09Z</time></trkpt><trkpt lat="43.32014161879909" lon="11.390853626992492"><ele>249.0</ele><time>2026-04-25T07:22:11Z</time></trkpt><trkpt lat="43.32009665579183" lon="11.390722115223447"><ele>249.0</ele><time>2026-04-25T07:22:13Z</time></trkpt><trkpt lat="43.32008892375974" lon="11.390620482424094"><ele>248.99999999999997</ele><time>2026-04-25T07:22:14Z</time></trkpt><trkpt lat="43.32006893526062" lon="11.390497574112475"><ele>248.99999999999997</ele><time>2026-04-25T07:22:15Z</time></trkpt><trkpt lat="43.3200486970412" lon="11.390366957098216"><ele>249.0</ele><time>2026-04-25T07:22:16Z</time></trkpt><trkpt lat="43.32001512365174" lon="11.39024667408949"><ele>249.0</ele><time>2026-04-25T07:22:17Z</time></trkpt><trkpt lat="43.320002804868246" lon="11.390115507381514"><ele>248.6</ele><time>2026-04-25T07:22:18Z</time></trkpt><trkpt lat="43.31998082848752" lon="11.389988067055418"><ele>248.2</ele><time>2026-04-25T07:22:19Z</time></trkpt><trkpt lat="43.31995501269903" lon="11.389865608227048"><ele>247.79999999999998</ele><time>2026-04-25T07:22:20Z</time></trkpt><trkpt lat="43.31992361054921" lon="11.389739928260127"><ele>247.39999999999998</ele><time>2026-04-25T07:22:21Z</time></trkpt><trkpt lat="43.31988412824005" lon="11.389611894111592"><ele>247.0</ele><time>2026-04-25T07:22:22Z</time></trkpt><trkpt lat="43.31983586042228" lon="11.389473182522043"><ele>246.0</ele><time>2026-04-25T07:22:23Z</time></trkpt><trkpt lat="43.31980286835661" lon="11.38931138669394"><ele>245.0</ele><time>2026-04-25T07:22:24Z</time></trkpt><trkpt lat="43.31975960735009" lon="11.389149483888929"><ele>244.0</ele><time>2026-04-25T07:22:25Z</time></trkpt><trkpt lat="43.31971703918053" lon="11.388950384824941"><ele>243.0</ele><time>2026-04-25T07:22:26Z</time></trkpt><trkpt lat="43.3196631761629" lon="11.3887217885994"><ele>238.33333333333331</ele><time>2026-04-25T07:22:27Z</time></trkpt><trkpt lat="43.319595901320355" lon="11.388486576519773"><ele>233.66666666666666</ele><time>2026-04-25T07:22:28Z</time></trkpt><trkpt lat="43.31955356018804" lon="11.388265244527563"><ele>229.0</ele><time>2026-04-25T07:22:29Z</time></trkpt><trkpt lat="43.31951517674797" lon="11.38805059222594"><ele>229.0</ele><time>2026-04-25T07:22:30Z</time></trkpt><trkpt lat="43.31949814302526" lon="11.387859349821028"><ele>229.0</ele><time>2026-04-25T07:22:31Z</time></trkpt><trkpt lat="43.31946793263151" lon="11.387698822962156"><ele>229.0</ele><time>2026-04-25T07:22:32Z</time></trkpt><trkpt lat="43.31941025317176" lon="11.387558929734794"><ele>229.0</ele><time>2026-04-25T07:22:33Z</time></trkpt><trkpt lat="43.31934250048158" lon="11.387448992226044"><ele>229.0</ele><time>2026-04-25T07:22:34Z</time></trkpt><trkpt lat="43.319230158336964" lon="11.387382931831318"><ele>228.99999999999997</ele><time>2026-04-25T07:22:35Z</time></trkpt><trkpt lat="43.31911074436187" lon="11.387332673478888"><ele>228.99999999999997</ele><time>2026-04-25T07:22:36Z</time></trkpt><trkpt lat="43.31904502654579" lon="11.387234221234491"><ele>229.0</ele><time>2026-04-25T07:22:37Z</time></trkpt><trkpt lat="43.3190188008105" lon="11.387119695207666"><ele>229.0</ele><time>2026-04-25T07:22:38Z</time></trkpt><trkpt lat="43.31903692645757" lon="11.386979541820711"><ele>228.5</ele><time>2026-04-25T07:22:39Z</time></trkpt><trkpt lat="43.31907826690483" lon="11.386800549302666"><ele>228.0</ele><time>2026-04-25T07:22:40Z</time></trkpt><trkpt lat="43.31912835198278" lon="11.386651429852233"><ele>227.5</ele><time>2026-04-25T07:22:41Z</time></trkpt><trkpt lat="43.31918113862249" lon="11.386528376466531"><ele>227.0</ele><time>2026-04-25T07:22:42Z</time></trkpt><trkpt lat="43.319283946885314" lon="11.386473065323614"><ele>227.0</ele><time>2026-04-25T07:22:43Z</time></trkpt><trkpt lat="43.31940595301648" lon="11.386391930304931"><ele>227.0</ele><time>2026-04-25T07:22:44Z</time></trkpt><trkpt lat="43.31952432605156" lon="11.38630503590368"><ele>227.0</ele><time>2026-04-25T07:22:45Z</time></trkpt><trkpt lat="43.31963915813778" lon="11.386240151694256"><ele>227.0</ele><time>2026-04-25T07:22:46Z</time></trkpt><trkpt lat="43.31974496694189" lon="11.386180382966762"><ele>226.0</ele><time>2026-04-25T07:22:47Z</time></trkpt><trkpt lat="43.319844313546355" lon="11.386127692975247"><ele>225.0</ele><time>2026-04-25T07:22:48Z</time></trkpt><trkpt lat="43.3199327028381" lon="11.38606666132949"><ele>224.0</ele><time>2026-04-25T07:22:49Z</time></trkpt><trkpt lat="43.320009343724486" lon="11.385985258229203"><ele>223.0</ele><time>2026-04-25T07:22:50Z</time></trkpt><trkpt lat="43.32006716144241" lon="11.385881514338447"><ele>222.0</ele><time>2026-04-25T07:22:51Z</time></trkpt><trkpt lat="43.32010195071481" lon="11.385758195323971"><ele>222.0</ele><time>2026-04-25T07:22:52Z</time></trkpt><trkpt lat="43.320110902312805" lon="11.385616567337255"><ele>222.0</ele><time>2026-04-25T07:22:53Z</time></trkpt><trkpt lat="43.320124840918226" lon="11.38546722325695"><ele>222.0</ele><time>2026-04-25T07:22:54Z</time></trkpt><trkpt lat="43.32011563433589" lon="11.385328477094225"><ele>222.0</ele><time>2026-04-25T07:22:55Z</time></trkpt><trkpt lat="43.32011569051447" lon="11.385204003719604"><ele>222.0</ele><time>2026-04-25T07:22:56Z</time></trkpt><trkpt lat="43.320135507463846" lon="11.385072002241216"><ele>221.0</ele><time>2026-04-25T07:22:57Z</time></trkpt><trkpt lat="43.3201601268491" lon="11.384944892283814"><ele>220.0</ele><time>2026-04-25T07:22:58Z</time></trkpt><trkpt lat="43.32021734810801" lon="11.384831196315648"><ele>219.0</ele><time>2026-04-25T07:22:59Z</time></trkpt><trkpt lat="43.320301295858755" lon="11.384730107648886"><ele>218.0</ele><time>2026-04-25T07:23:00Z</time></trkpt><trkpt lat="43.32039612341638" lon="11.384610981687056"><ele>217.0</ele><time>2026-04-25T07:23:01Z</time></trkpt><trkpt lat="43.32050073377935" lon="11.384489426239242"><ele>215.6</ele><time>2026-04-25T07:23:02Z</time></trkpt><trkpt lat="43.32059586108613" lon="11.38437896261318"><ele>214.2</ele><time>2026-04-25T07:23:03Z</time></trkpt><trkpt lat="43.32067070871312" lon="11.384259476201654"><ele>212.8</ele><time>2026-04-25T07:23:04Z</time></trkpt><trkpt lat="43.32073578805113" lon="11.384144469736917"><ele>211.4</ele><time>2026-04-25T07:23:05Z</time></trkpt><trkpt lat="43.32077327248535" lon="11.384019777332027"><ele>210.0</ele><time>2026-04-25T07:23:06Z</time></trkpt><trkpt lat="43.320775597109375" lon="11.38389630850427"><ele>208.0</ele><time>2026-04-25T07:23:07Z</time></trkpt><trkpt lat="43.32075271305307" lon="11.383750629853747"><ele>206.0</ele><time>2026-04-25T07:23:08Z</time></trkpt><trkpt lat="43.32071799145565" lon="11.383592612525971"><ele>204.0</ele><time>2026-04-25T07:23:09Z</time></trkpt><trkpt lat="43.32067259249737" lon="11.383417429904346"><ele>202.0</ele><time>2026-04-25T07:23:10Z</time></trkpt><trkpt lat="43.32063304037207" lon="11.38324574293978"><ele>202.0</ele><time>2026-04-25T07:23:11Z</time></trkpt><trkpt lat="43.320594765110066" lon="11.383081910076278"><ele>202.0</ele><time>2026-04-25T07:23:12Z</time></trkpt><trkpt lat="43.320579115714224" lon="11.382900322811796"><ele>202.0</ele><time>2026-04-25T07:23:13Z</time></trkpt><trkpt lat="43.320559218562735" lon="11.382708266200485"><ele>202.0</ele><time>2026-04-25T07:23:14Z</time></trkpt><trkpt lat="43.32054375263659" lon="11.382513947716916"><ele>201.0</ele><time>2026-04-25T07:23:15Z</time></trkpt><trkpt lat="43.3205115234944" lon="11.382317517607175"><ele>200.0</ele><time>2026-04-25T07:23:16Z</time></trkpt><trkpt lat="43.32048447358987" lon="11.382108055393966"><ele>199.0</ele><time>2026-04-25T07:23:17Z</time></trkpt><trkpt lat="43.3204449179106" lon="11.38188509753811"><ele>198.66666666666666</ele><time>2026-04-25T07:23:18.001Z</time></trkpt><trkpt lat="43.320407182296584" lon="11.38167985814121"><ele>198.33333333333331</ele><time>2026-04-25T07:23:19.001Z</time></trkpt><trkpt lat="43.320372343052256" lon="11.381470757146076"><ele>198.0</ele><time>2026-04-25T07:23:20.001Z</time></trkpt><trkpt lat="43.32033906888567" lon="11.381269678366007"><ele>197.75</ele><time>2026-04-25T07:23:21.001Z</time></trkpt><trkpt lat="43.32031068563432" lon="11.381074222096093"><ele>197.5</ele><time>2026-04-25T07:23:22.001Z</time></trkpt><trkpt lat="43.32030468669567" lon="11.380878403752412"><ele>197.25</ele><time>2026-04-25T07:23:23.001Z</time></trkpt><trkpt lat="43.32031923308342" lon="11.380684549650862"><ele>197.0</ele><time>2026-04-25T07:23:24.001Z</time></trkpt><trkpt lat="43.32034722298946" lon="11.38050858597077"><ele>197.0</ele><time>2026-04-25T07:23:25.001Z</time></trkpt><trkpt lat="43.32037171336011" lon="11.3803493308574"><ele>197.0</ele><time>2026-04-25T07:23:26.001Z</time></trkpt><trkpt lat="43.32038735135529" lon="11.380207521473386"><ele>197.0</ele><time>2026-04-25T07:23:27.001Z</time></trkpt><trkpt lat="43.3204058995199" lon="11.380070489384899"><ele>197.0</ele><time>2026-04-25T07:23:28.001Z</time></trkpt><trkpt lat="43.32042891713042" lon="11.379938158769958"><ele>197.0</ele><time>2026-04-25T07:23:29.001Z</time></trkpt><trkpt lat="43.32044120106652" lon="11.379804264299938"><ele>197.00000000000003</ele><time>2026-04-25T07:23:30.001Z</time></trkpt><trkpt lat="43.320459865185256" lon="11.379684369770406"><ele>197.0</ele><time>2026-04-25T07:23:31.001Z</time></trkpt><trkpt lat="43.3204705625319" lon="11.379559408664973"><ele>197.0</ele><time>2026-04-25T07:23:32.001Z</time></trkpt><trkpt lat="43.320495038257725" lon="11.379438550112837"><ele>197.0</ele><time>2026-04-25T07:23:33.001Z</time></trkpt><trkpt lat="43.32051276224524" lon="11.379318124404508"><ele>197.00000000000003</ele><time>2026-04-25T07:23:34.001Z</time></trkpt><trkpt lat="43.32052694589562" lon="11.37920463931011"><ele>197.0</ele><time>2026-04-25T07:23:35.001Z</time></trkpt><trkpt lat="43.3205413872267" lon="11.379080253223199"><ele>197.6</ele><time>2026-04-25T07:23:36.001Z</time></trkpt><trkpt lat="43.32055502405563" lon="11.378950278917895"><ele>198.2</ele><time>2026-04-25T07:23:37.001Z</time></trkpt><trkpt lat="43.32057028458725" lon="11.378811315571193"><ele>198.8</ele><time>2026-04-25T07:23:38.001Z</time></trkpt><trkpt lat="43.32058657641746" lon="11.378671316080576"><ele>199.4</ele><time>2026-04-25T07:23:39.001Z</time></trkpt><trkpt lat="43.32059613426671" lon="11.378519884019546"><ele>200.0</ele><time>2026-04-25T07:23:40.001Z</time></trkpt><trkpt lat="43.320591040519616" lon="11.37835184264498"><ele>201.5</ele><time>2026-04-25T07:23:41.001Z</time></trkpt><trkpt lat="43.3205798526746" lon="11.378171981809226"><ele>203.0</ele><time>2026-04-25T07:23:42.001Z</time></trkpt><trkpt lat="43.32055475757433" lon="11.377997572117794"><ele>204.5</ele><time>2026-04-25T07:23:43.001Z</time></trkpt><trkpt lat="43.32053144232612" lon="11.377822288846692"><ele>206.0</ele><time>2026-04-25T07:23:44.001Z</time></trkpt><trkpt lat="43.32051167870707" lon="11.3776384819"><ele>208.0</ele><time>2026-04-25T07:23:45.001Z</time></trkpt><trkpt lat="43.32048125577155" lon="11.377458221243058"><ele>210.0</ele><time>2026-04-25T07:23:46.001Z</time></trkpt><trkpt lat="43.320461342755586" lon="11.377274759053995"><ele>212.0</ele><time>2026-04-25T07:23:47.001Z</time></trkpt><trkpt lat="43.320438791410005" lon="11.37708553925388"><ele>214.0</ele><time>2026-04-25T07:23:48.001Z</time></trkpt><trkpt lat="43.32042339057045" lon="11.376887777811755"><ele>215.75</ele><time>2026-04-25T07:23:49.001Z</time></trkpt><trkpt lat="43.320426288039585" lon="11.376694680465707"><ele>217.5</ele><time>2026-04-25T07:23:50.001Z</time></trkpt><trkpt lat="43.320442158126184" lon="11.376504215168678"><ele>219.25</ele><time>2026-04-25T07:23:51.001Z</time></trkpt><trkpt lat="43.320469680044866" lon="11.376309910203672"><ele>221.0</ele><time>2026-04-25T07:23:52.001Z</time></trkpt><trkpt lat="43.32049222539637" lon="11.37612809934171"><ele>221.0</ele><time>2026-04-25T07:23:53.001Z</time></trkpt><trkpt lat="43.32050021940289" lon="11.37594969502092"><ele>221.0</ele><time>2026-04-25T07:23:54.001Z</time></trkpt><trkpt lat="43.32050094820296" lon="11.375788827375292"><ele>221.0</ele><time>2026-04-25T07:23:55.001Z</time></trkpt><trkpt lat="43.32048938165196" lon="11.375646094997379"><ele>221.0</ele><time>2026-04-25T07:23:56.001Z</time></trkpt><trkpt lat="43.32046268667884" lon="11.375505825499285"><ele>220.60000000000002</ele><time>2026-04-25T07:23:57.001Z</time></trkpt><trkpt lat="43.32039678738497" lon="11.375371546094614"><ele>220.20000000000002</ele><time>2026-04-25T07:23:58.001Z</time></trkpt><trkpt lat="43.32032027802541" lon="11.375258865794999"><ele>219.79999999999998</ele><time>2026-04-25T07:23:59.001Z</time></trkpt><trkpt lat="43.32025565292356" lon="11.375151366272224"><ele>219.39999999999998</ele><time>2026-04-25T07:24:00.001Z</time></trkpt><trkpt lat="43.32021327395924" lon="11.375046539474043"><ele>219.0</ele><time>2026-04-25T07:24:01.001Z</time></trkpt><trkpt lat="43.32020173242943" lon="11.37492603760889"><ele>219.0</ele><time>2026-04-25T07:24:02.001Z</time></trkpt><trkpt lat="43.32024616848838" lon="11.374807805513578"><ele>218.99999999999997</ele><time>2026-04-25T07:24:03.001Z</time></trkpt><trkpt lat="43.32026283650578" lon="11.37466359069523"><ele>218.99999999999997</ele><time>2026-04-25T07:24:04.001Z</time></trkpt><trkpt lat="43.320295469114484" lon="11.37455143317069"><ele>219.0</ele><time>2026-04-25T07:24:05.001Z</time></trkpt><trkpt lat="43.32032283345018" lon="11.37443174455568"><ele>219.0</ele><time>2026-04-25T07:24:06.001Z</time></trkpt><trkpt lat="43.320351679464565" lon="11.374303718310257"><ele>219.39999999999998</ele><time>2026-04-25T07:24:07.001Z</time></trkpt><trkpt lat="43.32038220941924" lon="11.374176576988239"><ele>219.79999999999998</ele><time>2026-04-25T07:24:08.001Z</time></trkpt><trkpt lat="43.320427973516075" lon="11.374064316290239"><ele>220.20000000000002</ele><time>2026-04-25T07:24:09.001Z</time></trkpt><trkpt lat="43.32045058455467" lon="11.37393882597931"><ele>220.60000000000002</ele><time>2026-04-25T07:24:10Z</time></trkpt><trkpt lat="43.32050430491526" lon="11.373825122712413"><ele>221.0</ele><time>2026-04-25T07:24:11Z</time></trkpt><trkpt lat="43.32055680214207" lon="11.373690319799952"><ele>223.0</ele><time>2026-04-25T07:24:12Z</time></trkpt><trkpt lat="43.320622410908875" lon="11.37353994945895"><ele>225.0</ele><time>2026-04-25T07:24:13Z</time></trkpt><trkpt lat="43.320692877144644" lon="11.373386320589454"><ele>227.0</ele><time>2026-04-25T07:24:14Z</time></trkpt><trkpt lat="43.320760278792605" lon="11.373245574629978"><ele>229.0</ele><time>2026-04-25T07:24:15Z</time></trkpt><trkpt lat="43.320818901216306" lon="11.373103228573676"><ele>231.25</ele><time>2026-04-25T07:24:16Z</time></trkpt><trkpt lat="43.3208868327565" lon="11.37297234783769"><ele>233.5</ele><time>2026-04-25T07:24:17Z</time></trkpt><trkpt lat="43.32095159868056" lon="11.372850136911516"><ele>235.75</ele><time>2026-04-25T07:24:18Z</time></trkpt><trkpt lat="43.320997112977906" lon="11.372707379131763"><ele>238.0</ele><time>2026-04-25T07:24:19Z</time></trkpt><trkpt lat="43.321029424138736" lon="11.372540509748292"><ele>238.0</ele><time>2026-04-25T07:24:20Z</time></trkpt><trkpt lat="43.32105443137676" lon="11.372370229586428"><ele>238.0</ele><time>2026-04-25T07:24:21Z</time></trkpt><trkpt lat="43.32107789495587" lon="11.372197347208967"><ele>238.0</ele><time>2026-04-25T07:24:22Z</time></trkpt><trkpt lat="43.321108691994034" lon="11.372023788756682"><ele>238.0</ele><time>2026-04-25T07:24:23Z</time></trkpt><trkpt lat="43.32113580539202" lon="11.371844948700979"><ele>240.25</ele><time>2026-04-25T07:24:24Z</time></trkpt><trkpt lat="43.321172416366885" lon="11.37165915037604"><ele>242.5</ele><time>2026-04-25T07:24:25Z</time></trkpt><trkpt lat="43.32117611817734" lon="11.371473548715546"><ele>244.75</ele><time>2026-04-25T07:24:26Z</time></trkpt><trkpt lat="43.32119873814438" lon="11.371293480363235"><ele>247.0</ele><time>2026-04-25T07:24:27Z</time></trkpt><trkpt lat="43.32122772395603" lon="11.371115460462928"><ele>248.25</ele><time>2026-04-25T07:24:28Z</time></trkpt><trkpt lat="43.32126882894382" lon="11.370939300088743"><ele>249.5</ele><time>2026-04-25T07:24:29Z</time></trkpt><trkpt lat="43.32132076738988" lon="11.370773342440419"><ele>250.75</ele><time>2026-04-25T07:24:30Z</time></trkpt><trkpt lat="43.32138464564405" lon="11.370612060517104"><ele>252.0</ele><time>2026-04-25T07:24:31Z</time></trkpt><trkpt lat="43.32143848218721" lon="11.370448622287201"><ele>252.0</ele><time>2026-04-25T07:24:32Z</time></trkpt><trkpt lat="43.32148705134333" lon="11.370281233073708"><ele>252.0</ele><time>2026-04-25T07:24:33Z</time></trkpt><trkpt lat="43.32160595897419" lon="11.370154680951831"><ele>252.0</ele><time>2026-04-25T07:24:34Z</time></trkpt><trkpt lat="43.32167959744892" lon="11.370007454763714"><ele>252.0</ele><time>2026-04-25T07:24:35Z</time></trkpt><trkpt lat="43.32175451094256" lon="11.369858268137609"><ele>252.0</ele><time>2026-04-25T07:24:36Z</time></trkpt><trkpt lat="43.32182731467787" lon="11.369708295369076"><ele>252.0</ele><time>2026-04-25T07:24:37Z</time></trkpt><trkpt lat="43.321898723150746" lon="11.369565657261019"><ele>252.0</ele><time>2026-04-25T07:24:38Z</time></trkpt><trkpt lat="43.32195580724086" lon="11.369446443241436"><ele>252.0</ele><time>2026-04-25T07:24:39Z</time></trkpt><trkpt lat="43.32201830180489" lon="11.369357987521418"><ele>253.8</ele><time>2026-04-25T07:24:40Z</time></trkpt><trkpt lat="43.322019015244486" lon="11.369252462039016"><ele>255.6</ele><time>2026-04-25T07:24:41Z</time></trkpt><trkpt lat="43.32192934694499" lon="11.369129236906904"><ele>257.40000000000003</ele><time>2026-04-25T07:24:43Z</time></trkpt><trkpt lat="43.3218425846687" lon="11.369147724189363"><ele>259.2</ele><time>2026-04-25T07:24:44Z</time></trkpt><trkpt lat="43.32176415412653" lon="11.36922423696755"><ele>261.0</ele><time>2026-04-25T07:24:45Z</time></trkpt><trkpt lat="43.32166557113597" lon="11.369343637380105"><ele>261.0</ele><time>2026-04-25T07:24:46Z</time></trkpt><trkpt lat="43.32157700232881" lon="11.369408692486028"><ele>261.0</ele><time>2026-04-25T07:24:47Z</time></trkpt><trkpt lat="43.32149434843364" lon="11.36942887151958"><ele>261.0</ele><time>2026-04-25T07:24:48Z</time></trkpt><trkpt lat="43.32140283201754" lon="11.369401005873689"><ele>261.0</ele><time>2026-04-25T07:24:49Z</time></trkpt><trkpt lat="43.32131249316444" lon="11.369327619900904"><ele>261.0</ele><time>2026-04-25T07:24:50Z</time></trkpt><trkpt lat="43.32122164584919" lon="11.369210653373461"><ele>261.40000000000003</ele><time>2026-04-25T07:24:51Z</time></trkpt><trkpt lat="43.321132608296864" lon="11.369104688810262"><ele>261.8</ele><time>2026-04-25T07:24:52Z</time></trkpt><trkpt lat="43.321059799340425" lon="11.3690270672006"><ele>262.20000000000005</ele><time>2026-04-25T07:24:53Z</time></trkpt><trkpt lat="43.32100099614537" lon="11.368955601724728"><ele>262.6</ele><time>2026-04-25T07:24:54Z</time></trkpt><trkpt lat="43.32093287162351" lon="11.368851606881966"><ele>263.0</ele><time>2026-04-25T07:24:56Z</time></trkpt><trkpt lat="43.32096198189614" lon="11.368691456698164"><ele>263.0</ele><time>2026-04-25T07:24:58Z</time></trkpt><trkpt lat="43.32098749644468" lon="11.368573137379444"><ele>263.0</ele><time>2026-04-25T07:24:59Z</time></trkpt><trkpt lat="43.321016034117825" lon="11.368455380177735"><ele>263.0</ele><time>2026-04-25T07:25:00Z</time></trkpt><trkpt lat="43.321039429578455" lon="11.368353948574333"><ele>263.0</ele><time>2026-04-25T07:25:01Z</time></trkpt><trkpt lat="43.32106297727796" lon="11.368231052681024"><ele>263.0</ele><time>2026-04-25T07:25:02Z</time></trkpt><trkpt lat="43.32106751074156" lon="11.368091680821204"><ele>263.8</ele><time>2026-04-25T07:25:03Z</time></trkpt><trkpt lat="43.321076800821714" lon="11.36794676655333"><ele>264.6</ele><time>2026-04-25T07:25:04Z</time></trkpt><trkpt lat="43.321079798311445" lon="11.36779399182279"><ele>265.4</ele><time>2026-04-25T07:25:05Z</time></trkpt><trkpt lat="43.32108662060061" lon="11.367641333238343"><ele>266.2</ele><time>2026-04-25T07:25:06Z</time></trkpt><trkpt lat="43.321091144631666" lon="11.367475144113484"><ele>267.0</ele><time>2026-04-25T07:25:07Z</time></trkpt><trkpt lat="43.32109953794178" lon="11.367310763119324"><ele>268.0</ele><time>2026-04-25T07:25:08.001Z</time></trkpt><trkpt lat="43.32110324419237" lon="11.367146208640499"><ele>269.0</ele><time>2026-04-25T07:25:09Z</time></trkpt><trkpt lat="43.3211104749466" lon="11.366980925806887"><ele>270.0</ele><time>2026-04-25T07:25:10Z</time></trkpt><trkpt lat="43.32110872420893" lon="11.366831650967868"><ele>271.0</ele><time>2026-04-25T07:25:11Z</time></trkpt><trkpt lat="43.321098673776085" lon="11.366688844162935"><ele>271.0</ele><time>2026-04-25T07:25:12Z</time></trkpt><trkpt lat="43.321087236349534" lon="11.36655593821959"><ele>271.0</ele><time>2026-04-25T07:25:13Z</time></trkpt><trkpt lat="43.32107167811423" lon="11.366441140545419"><ele>271.0</ele><time>2026-04-25T07:25:14.001Z</time></trkpt><trkpt lat="43.32105722420613" lon="11.366325233801357"><ele>271.0</ele><time>2026-04-25T07:25:15.001Z</time></trkpt><trkpt lat="43.32103922415405" lon="11.366207233944957"><ele>271.0</ele><time>2026-04-25T07:25:16.001Z</time></trkpt><trkpt lat="43.32102116204659" lon="11.366088992800135"><ele>271.0</ele><time>2026-04-25T07:25:17.001Z</time></trkpt><trkpt lat="43.32099382844316" lon="11.365964691680649"><ele>271.0</ele><time>2026-04-25T07:25:18.001Z</time></trkpt><trkpt lat="43.320961598464876" lon="11.36583500257224"><ele>271.0</ele><time>2026-04-25T07:25:19.001Z</time></trkpt><trkpt lat="43.32092640206867" lon="11.365700429947443"><ele>271.0</ele><time>2026-04-25T07:25:20.001Z</time></trkpt><trkpt lat="43.320897588820905" lon="11.365557737500609"><ele>271.0</ele><time>2026-04-25T07:25:21.001Z</time></trkpt><trkpt lat="43.32085178174331" lon="11.365417547834033"><ele>271.0</ele><time>2026-04-25T07:25:22.001Z</time></trkpt><trkpt lat="43.32079975401103" lon="11.365272808533206"><ele>271.25</ele><time>2026-04-25T07:25:23.001Z</time></trkpt><trkpt lat="43.3207243952386" lon="11.365129121160779"><ele>271.5</ele><time>2026-04-25T07:25:24.001Z</time></trkpt><trkpt lat="43.320671752417084" lon="11.364984269478892"><ele>271.75</ele><time>2026-04-25T07:25:25.001Z</time></trkpt><trkpt lat="43.3206092666064" lon="11.364847499923485"><ele>272.0</ele><time>2026-04-25T07:25:26.001Z</time></trkpt><trkpt lat="43.320532442834065" lon="11.364711011491348"><ele>272.5</ele><time>2026-04-25T07:25:27.001Z</time></trkpt><trkpt lat="43.320461877562884" lon="11.364579589722746"><ele>273.0</ele><time>2026-04-25T07:25:28.001Z</time></trkpt><trkpt lat="43.32039622189273" lon="11.364455854812961"><ele>273.5</ele><time>2026-04-25T07:25:29.001Z</time></trkpt><trkpt lat="43.320320862979294" lon="11.364329868188332"><ele>274.0</ele><time>2026-04-25T07:25:30.001Z</time></trkpt><trkpt lat="43.320240703175884" lon="11.36419684263628"><ele>274.0</ele><time>2026-04-25T07:25:31.001Z</time></trkpt><trkpt lat="43.32016049651904" lon="11.364068555064291"><ele>274.0</ele><time>2026-04-25T07:25:32.001Z</time></trkpt><trkpt lat="43.32007840990102" lon="11.363942052337604"><ele>274.0</ele><time>2026-04-25T07:25:33.001Z</time></trkpt><trkpt lat="43.32000324966298" lon="11.363822954711077"><ele>274.0</ele><time>2026-04-25T07:25:34.001Z</time></trkpt><trkpt lat="43.31992947722562" lon="11.363701177974841"><ele>274.75</ele><time>2026-04-25T07:25:35.001Z</time></trkpt><trkpt lat="43.31984345235094" lon="11.363584206719677"><ele>275.5</ele><time>2026-04-25T07:25:36.001Z</time></trkpt><trkpt lat="43.31975535195857" lon="11.363469462097461"><ele>276.25</ele><time>2026-04-25T07:25:37.001Z</time></trkpt><trkpt lat="43.319685535847555" lon="11.36334520762821"><ele>277.0</ele><time>2026-04-25T07:25:38.001Z</time></trkpt><trkpt lat="43.319607189291006" lon="11.363239613870315"><ele>277.0</ele><time>2026-04-25T07:25:39.001Z</time></trkpt><trkpt lat="43.31952791118247" lon="11.3631369120846"><ele>277.0</ele><time>2026-04-25T07:25:40.001Z</time></trkpt><trkpt lat="43.31947601923491" lon="11.363004630708149"><ele>277.0</ele><time>2026-04-25T07:25:41.001Z</time></trkpt><trkpt lat="43.319429065484826" lon="11.362871767281863"><ele>277.0</ele><time>2026-04-25T07:25:42.001Z</time></trkpt><trkpt lat="43.319402777449966" lon="11.36272957000498"><ele>277.0</ele><time>2026-04-25T07:25:43.001Z</time></trkpt><trkpt lat="43.31936470239467" lon="11.362598508181664"><ele>275.6</ele><time>2026-04-25T07:25:44.001Z</time></trkpt><trkpt lat="43.3192963202969" lon="11.362490316193123"><ele>274.2</ele><time>2026-04-25T07:25:45.001Z</time></trkpt><trkpt lat="43.31922679729802" lon="11.362392458207834"><ele>272.8</ele><time>2026-04-25T07:25:46.001Z</time></trkpt><trkpt lat="43.31916095113389" lon="11.362293005146604"><ele>271.4</ele><time>2026-04-25T07:25:47.001Z</time></trkpt><trkpt lat="43.31909359956866" lon="11.362188975066498"><ele>270.0</ele><time>2026-04-25T07:25:48.001Z</time></trkpt><trkpt lat="43.31901993666837" lon="11.362073481447002"><ele>269.0</ele><time>2026-04-25T07:25:49.001Z</time></trkpt><trkpt lat="43.3189398158624" lon="11.361948776399416"><ele>268.0</ele><time>2026-04-25T07:25:50.001Z</time></trkpt><trkpt lat="43.31885843633692" lon="11.361818191501483"><ele>267.0</ele><time>2026-04-25T07:25:51.001Z</time></trkpt><trkpt lat="43.31878177642934" lon="11.361687979730158"><ele>266.0</ele><time>2026-04-25T07:25:52.001Z</time></trkpt><trkpt lat="43.31871808666537" lon="11.361553799344774"><ele>266.0</ele><time>2026-04-25T07:25:53.001Z</time></trkpt><trkpt lat="43.318662037393295" lon="11.361414886973616"><ele>266.0</ele><time>2026-04-25T07:25:54.001Z</time></trkpt><trkpt lat="43.31861334914873" lon="11.361273575302056"><ele>266.0</ele><time>2026-04-25T07:25:55.001Z</time></trkpt><trkpt lat="43.31856841281878" lon="11.361128737602808"><ele>266.0</ele><time>2026-04-25T07:25:56.001Z</time></trkpt><trkpt lat="43.31852247442723" lon="11.360983025814974"><ele>264.40000000000003</ele><time>2026-04-25T07:25:57.001Z</time></trkpt><trkpt lat="43.31846632867098" lon="11.36084606051087"><ele>262.8</ele><time>2026-04-25T07:25:58.001Z</time></trkpt><trkpt lat="43.31840351230591" lon="11.360717026105453"><ele>261.20000000000005</ele><time>2026-04-25T07:25:59.001Z</time></trkpt><trkpt lat="43.31834988559171" lon="11.360585371741474"><ele>259.6</ele><time>2026-04-25T07:26:00.001Z</time></trkpt><trkpt lat="43.31830085865424" lon="11.36045128309632"><ele>258.0</ele><time>2026-04-25T07:26:01.001Z</time></trkpt><trkpt lat="43.318241872475774" lon="11.360319428549722"><ele>256.25</ele><time>2026-04-25T07:26:02.001Z</time></trkpt><trkpt lat="43.318174357297416" lon="11.360187143853505"><ele>254.5</ele><time>2026-04-25T07:26:03.001Z</time></trkpt><trkpt lat="43.31810687983454" lon="11.36004808911855"><ele>252.75</ele><time>2026-04-25T07:26:04.001Z</time></trkpt><trkpt lat="43.31802226206643" lon="11.359929098227711"><ele>251.0</ele><time>2026-04-25T07:26:05.001Z</time></trkpt><trkpt lat="43.31794746937134" lon="11.359801780198731"><ele>248.5</ele><time>2026-04-25T07:26:06.001Z</time></trkpt><trkpt lat="43.31788261075377" lon="11.35966847480577"><ele>246.0</ele><time>2026-04-25T07:26:07.001Z</time></trkpt><trkpt lat="43.31782892272019" lon="11.359527515740721"><ele>243.5</ele><time>2026-04-25T07:26:08.001Z</time></trkpt><trkpt lat="43.31778298017865" lon="11.359384234929164"><ele>241.0</ele><time>2026-04-25T07:26:09.001Z</time></trkpt><trkpt lat="43.317754648990025" lon="11.359219212541017"><ele>241.0</ele><time>2026-04-25T07:26:10.001Z</time></trkpt><trkpt lat="43.31773674992155" lon="11.359063281970261"><ele>241.00000000000003</ele><time>2026-04-25T07:26:11.001Z</time></trkpt><trkpt lat="43.31770523350338" lon="11.358920228991026"><ele>241.00000000000003</ele><time>2026-04-25T07:26:12.001Z</time></trkpt><trkpt lat="43.31766703860806" lon="11.358780339112313"><ele>241.0</ele><time>2026-04-25T07:26:13.001Z</time></trkpt><trkpt lat="43.31761168224464" lon="11.358653184858813"><ele>241.0</ele><time>2026-04-25T07:26:14.001Z</time></trkpt><trkpt lat="43.3175411607769" lon="11.358538219825602"><ele>240.0</ele><time>2026-04-25T07:26:15.001Z</time></trkpt><trkpt lat="43.31745116136239" lon="11.358437853100677"><ele>239.0</ele><time>2026-04-25T07:26:15.999Z</time></trkpt><trkpt lat="43.31734665376012" lon="11.35836437637028"><ele>238.0</ele><time>2026-04-25T07:26:16.999Z</time></trkpt><trkpt lat="43.317232856719414" lon="11.3583131740446"><ele>237.0</ele><time>2026-04-25T07:26:17.999Z</time></trkpt><trkpt lat="43.31711061264056" lon="11.358303313752085"><ele>235.25</ele><time>2026-04-25T07:26:18.999Z</time></trkpt><trkpt lat="43.316983999260856" lon="11.358314260525024"><ele>233.5</ele><time>2026-04-25T07:26:19.999Z</time></trkpt><trkpt lat="43.316862802489226" lon="11.358305678435016"><ele>231.75</ele><time>2026-04-25T07:26:20.999Z</time></trkpt><trkpt lat="43.31675597967922" lon="11.358245453005068"><ele>230.0</ele><time>2026-04-25T07:26:21.999Z</time></trkpt><trkpt lat="43.31665465875522" lon="11.358174815771246"><ele>230.0</ele><time>2026-04-25T07:26:22.999Z</time></trkpt><trkpt lat="43.316569982619434" lon="11.358063348064244"><ele>230.0</ele><time>2026-04-25T07:26:23.999Z</time></trkpt><trkpt lat="43.31649616546229" lon="11.35793442401604"><ele>230.0</ele><time>2026-04-25T07:26:25Z</time></trkpt><trkpt lat="43.316427156747324" lon="11.35780280908827"><ele>230.0</ele><time>2026-04-25T07:26:25.999Z</time></trkpt><trkpt lat="43.31635194763368" lon="11.35767944757229"><ele>229.25</ele><time>2026-04-25T07:26:27Z</time></trkpt><trkpt lat="43.31628319269862" lon="11.357553104465298"><ele>228.5</ele><time>2026-04-25T07:26:28Z</time></trkpt><trkpt lat="43.31619038197943" lon="11.357454425514025"><ele>227.75</ele><time>2026-04-25T07:26:29Z</time></trkpt><trkpt lat="43.31612763962191" lon="11.357323830709586"><ele>227.0</ele><time>2026-04-25T07:26:30Z</time></trkpt><trkpt lat="43.31608676909988" lon="11.35717923634506"><ele>226.75</ele><time>2026-04-25T07:26:31Z</time></trkpt><trkpt lat="43.31605701151003" lon="11.357022819693748"><ele>226.5</ele><time>2026-04-25T07:26:32Z</time></trkpt><trkpt lat="43.31603860499801" lon="11.35686888995939"><ele>226.25</ele><time>2026-04-25T07:26:33Z</time></trkpt><trkpt lat="43.316028548812234" lon="11.356715553478313"><ele>226.0</ele><time>2026-04-25T07:26:34Z</time></trkpt><trkpt lat="43.31604249273993" lon="11.356570183143399"><ele>225.99999999999997</ele><time>2026-04-25T07:26:35Z</time></trkpt><trkpt lat="43.316038277146966" lon="11.356449905296696"><ele>226.0</ele><time>2026-04-25T07:26:36Z</time></trkpt><trkpt lat="43.31601412979415" lon="11.356356573033795"><ele>226.0</ele><time>2026-04-25T07:26:37Z</time></trkpt><trkpt lat="43.31600570127372" lon="11.356222690835335"><ele>226.0</ele><time>2026-04-25T07:26:39Z</time></trkpt><trkpt lat="43.31600097866555" lon="11.356133363219831"><ele>225.99999999999997</ele><time>2026-04-25T07:26:41Z</time></trkpt><trkpt lat="43.316090857861354" lon="11.356013627743003"><ele>226.0</ele><time>2026-04-25T07:26:43Z</time></trkpt><trkpt lat="43.31615275851615" lon="11.355901586980828"><ele>225.83333333333331</ele><time>2026-04-25T07:26:45Z</time></trkpt><trkpt lat="43.31621630045457" lon="11.355812102251807"><ele>225.66666666666666</ele><time>2026-04-25T07:26:47Z</time></trkpt><trkpt lat="43.31626481869488" lon="11.355735506236087"><ele>225.5</ele><time>2026-04-25T07:26:49Z</time></trkpt><trkpt lat="43.316313428585836" lon="11.355660788975287"><ele>225.33333333333331</ele><time>2026-04-25T07:26:51Z</time></trkpt><trkpt lat="43.31636787530242" lon="11.355564720617002"><ele>225.16666666666666</ele><time>2026-04-25T07:26:53Z</time></trkpt><trkpt lat="43.316390649221546" lon="11.355433047138808"><ele>225.0</ele><time>2026-04-25T07:26:55Z</time></trkpt><trkpt lat="43.31633432125588" lon="11.35528290393231"><ele>225.33333333333334</ele><time>2026-04-25T07:26:57Z</time></trkpt><trkpt lat="43.31623198645873" lon="11.355205420381363"><ele>225.66666666666669</ele><time>2026-04-25T07:26:59Z</time></trkpt><trkpt lat="43.316165220715476" lon="11.355191356848355"><ele>226.0</ele><time>2026-04-25T07:27:00Z</time></trkpt><trkpt lat="43.3160958368534" lon="11.355200351902004"><ele>226.33333333333334</ele><time>2026-04-25T07:27:01Z</time></trkpt><trkpt lat="43.31604063972136" lon="11.355132852950005"><ele>226.66666666666669</ele><time>2026-04-25T07:27:02Z</time></trkpt><trkpt lat="43.315993344938974" lon="11.355063030097586"><ele>227.0</ele><time>2026-04-25T07:27:03Z</time></trkpt><trkpt lat="43.315956346283535" lon="11.35498050042131"><ele>227.00000000000003</ele><time>2026-04-25T07:27:04Z</time></trkpt><trkpt lat="43.315926775587684" lon="11.354830910314295"><ele>227.0</ele><time>2026-04-25T07:27:06Z</time></trkpt><trkpt lat="43.315906089884216" lon="11.354725683303013"><ele>227.0</ele><time>2026-04-25T07:27:08Z</time></trkpt><trkpt lat="43.31587289726646" lon="11.35463366824123"><ele>227.0</ele><time>2026-04-25T07:27:34.001Z</time></trkpt><trkpt lat="43.31582955150698" lon="11.354537111518214"><ele>227.00000000000003</ele><time>2026-04-25T07:27:42.001Z</time></trkpt><trkpt lat="43.31581679421975" lon="11.35442673598439"><ele>227.0</ele><time>2026-04-25T07:27:44.001Z</time></trkpt><trkpt lat="43.31578933357962" lon="11.354324693846392"><ele>227.00000000000003</ele><time>2026-04-25T07:27:47.001Z</time></trkpt><trkpt lat="43.31581501311691" lon="11.354420117734145"><ele>227.0</ele><time>2026-04-25T07:27:54.001Z</time></trkpt><trkpt lat="43.31584050955358" lon="11.354514861192387"><ele>227.0</ele><time>2026-04-25T07:27:57.001Z</time></trkpt><trkpt lat="43.315870543679246" lon="11.354626466368101"><ele>227.0</ele><time>2026-04-25T07:28:00.001Z</time></trkpt><trkpt lat="43.31590020503762" lon="11.354735875436464"><ele>227.00000000000003</ele><time>2026-04-25T07:28:03.001Z</time></trkpt><trkpt lat="43.31593348301683" lon="11.354858492278556"><ele>227.0</ele><time>2026-04-25T07:28:06.001Z</time></trkpt><trkpt lat="43.31596168060418" lon="11.354960387328251"><ele>227.0</ele><time>2026-04-25T07:28:08.001Z</time></trkpt><trkpt lat="43.31600404365843" lon="11.355083320155156"><ele>227.0</ele><time>2026-04-25T07:28:10.001Z</time></trkpt><trkpt lat="43.31606479529588" lon="11.355192735076924"><ele>227.0</ele><time>2026-04-25T07:28:12.001Z</time></trkpt><trkpt lat="43.31613612958485" lon="11.355301141369775"><ele>227.0</ele><time>2026-04-25T07:28:14.001Z</time></trkpt><trkpt lat="43.315993070083685" lon="11.355495351462254"><ele>226.5</ele><time>2026-04-25T07:28:16.001Z</time></trkpt><trkpt lat="43.31610032490057" lon="11.355686378707048"><ele>226.0</ele><time>2026-04-25T07:28:17.001Z</time></trkpt><trkpt lat="43.31599588292222" lon="11.355810352535888"><ele>225.5</ele><time>2026-04-25T07:28:18.001Z</time></trkpt><trkpt lat="43.31594963963084" lon="11.355888955689032"><ele>225.0</ele><time>2026-04-25T07:28:19.001Z</time></trkpt><trkpt lat="43.31589110743216" lon="11.355965277288064"><ele>225.0</ele><time>2026-04-25T07:28:20.001Z</time></trkpt><trkpt lat="43.31583789814255" lon="11.356029398177725"><ele>225.0</ele><time>2026-04-25T07:28:21.001Z</time></trkpt><trkpt lat="43.31576855437359" lon="11.35608836158218"><ele>225.0</ele><time>2026-04-25T07:28:23Z</time></trkpt><trkpt lat="43.31554816962924" lon="11.35588963240573"><ele>225.0</ele><time>2026-04-25T07:29:13Z</time></trkpt><trkpt lat="43.31552907508569" lon="11.35600673494419"><ele>225.0</ele><time>2026-04-25T07:29:21.001Z</time></trkpt><trkpt lat="43.3155208942986" lon="11.356092946422853"><ele>225.0</ele><time>2026-04-25T07:29:24.001Z</time></trkpt><trkpt lat="43.315572658594895" lon="11.356027088124636"><ele>225.0</ele><time>2026-04-25T07:31:06.001Z</time></trkpt><trkpt lat="43.31556222463665" lon="11.355932277526593"><ele>225.0</ele><time>2026-04-25T07:31:39.001Z</time></trkpt><trkpt lat="43.3155091218589" lon="11.35585099235842"><ele>225.0</ele><time>2026-04-25T07:31:42.001Z</time></trkpt><trkpt lat="43.31539272847127" lon="11.35581385061561"><ele>225.0</ele><time>2026-04-25T07:31:44.001Z</time></trkpt><trkpt lat="43.3152706521442" lon="11.355794354766442"><ele>225.66666666666666</ele><time>2026-04-25T07:31:46.001Z</time></trkpt><trkpt lat="43.31520510156384" lon="11.355816081772018"><ele>226.33333333333331</ele><time>2026-04-25T07:31:47.001Z</time></trkpt><trkpt lat="43.31513245625338" lon="11.355850612073528"><ele>227.0</ele><time>2026-04-25T07:31:48.001Z</time></trkpt><trkpt lat="43.315059883689294" lon="11.35590724691107"><ele>227.66666666666666</ele><time>2026-04-25T07:31:49.001Z</time></trkpt><trkpt lat="43.31498304992199" lon="11.355979137171344"><ele>228.33333333333331</ele><time>2026-04-25T07:31:50.001Z</time></trkpt><trkpt lat="43.31490260913872" lon="11.356056817729948"><ele>229.0</ele><time>2026-04-25T07:31:51.001Z</time></trkpt><trkpt lat="43.31481844487733" lon="11.356135252599124"><ele>229.79999999999998</ele><time>2026-04-25T07:31:52.001Z</time></trkpt><trkpt lat="43.31472570436132" lon="11.356220942550708"><ele>230.59999999999997</ele><time>2026-04-25T07:31:53.001Z</time></trkpt><trkpt lat="43.31463721086868" lon="11.356302863230527"><ele>231.4</ele><time>2026-04-25T07:31:54.001Z</time></trkpt><trkpt lat="43.31456124540501" lon="11.356363719863813"><ele>232.2</ele><time>2026-04-25T07:31:55.001Z</time></trkpt><trkpt lat="43.314460376813315" lon="11.35639638350189"><ele>233.0</ele><time>2026-04-25T07:31:57.001Z</time></trkpt><trkpt lat="43.314415479043724" lon="11.356249070050398"><ele>235.0</ele><time>2026-04-25T07:31:59.001Z</time></trkpt><trkpt lat="43.31448390125384" lon="11.356076434859778"><ele>237.0</ele><time>2026-04-25T07:32:01.001Z</time></trkpt><trkpt lat="43.314525488216816" lon="11.355968147605337"><ele>239.0</ele><time>2026-04-25T07:32:02.001Z</time></trkpt><trkpt lat="43.314565363479055" lon="11.355849955344645"><ele>241.0</ele><time>2026-04-25T07:32:03.001Z</time></trkpt><trkpt lat="43.31460002987294" lon="11.355718430264664"><ele>243.0</ele><time>2026-04-25T07:32:04.001Z</time></trkpt><trkpt lat="43.31462616891808" lon="11.355582408855696"><ele>245.2</ele><time>2026-04-25T07:32:05.001Z</time></trkpt><trkpt lat="43.31464489389289" lon="11.355444288400912"><ele>247.4</ele><time>2026-04-25T07:32:06.001Z</time></trkpt><trkpt lat="43.314661660400944" lon="11.355305344283098"><ele>249.59999999999997</ele><time>2026-04-25T07:32:07.001Z</time></trkpt><trkpt lat="43.3146715830825" lon="11.355157375471347"><ele>251.79999999999998</ele><time>2026-04-25T07:32:08.001Z</time></trkpt><trkpt lat="43.314676269114614" lon="11.355014031700632"><ele>254.0</ele><time>2026-04-25T07:32:09.001Z</time></trkpt><trkpt lat="43.31467322945669" lon="11.354870170053625"><ele>254.0</ele><time>2026-04-25T07:32:10.001Z</time></trkpt><trkpt lat="43.31465772198889" lon="11.354729474426263"><ele>253.99999999999997</ele><time>2026-04-25T07:32:11.001Z</time></trkpt><trkpt lat="43.31463258093056" lon="11.354589574726711"><ele>253.99999999999997</ele><time>2026-04-25T07:32:12.001Z</time></trkpt><trkpt lat="43.31459078519762" lon="11.354462293158727"><ele>254.0</ele><time>2026-04-25T07:32:13.001Z</time></trkpt><trkpt lat="43.31451969414992" lon="11.354349188612797"><ele>254.0</ele><time>2026-04-25T07:32:14.001Z</time></trkpt><trkpt lat="43.314436899126726" lon="11.354250090827117"><ele>254.2</ele><time>2026-04-25T07:32:15.001Z</time></trkpt><trkpt lat="43.31435887416515" lon="11.354138601468408"><ele>254.39999999999998</ele><time>2026-04-25T07:32:16.001Z</time></trkpt><trkpt lat="43.314306393232265" lon="11.35401467975919"><ele>254.6</ele><time>2026-04-25T07:32:17.001Z</time></trkpt><trkpt lat="43.3142638893441" lon="11.353883482693709"><ele>254.8</ele><time>2026-04-25T07:32:18.001Z</time></trkpt><trkpt lat="43.31421281574654" lon="11.353757588652947"><ele>255.0</ele><time>2026-04-25T07:32:19.001Z</time></trkpt><trkpt lat="43.3141476927823" lon="11.353639993144293"><ele>255.0</ele><time>2026-04-25T07:32:20.001Z</time></trkpt><trkpt lat="43.31405106425395" lon="11.353530615942276"><ele>255.0</ele><time>2026-04-25T07:32:21.002Z</time></trkpt><trkpt lat="43.313946841812076" lon="11.353416710762161"><ele>255.0</ele><time>2026-04-25T07:32:22.002Z</time></trkpt><trkpt lat="43.31385854146087" lon="11.353310285050757"><ele>255.0</ele><time>2026-04-25T07:32:23.002Z</time></trkpt><trkpt lat="43.3137696690159" lon="11.353201768011226"><ele>257.8</ele><time>2026-04-25T07:32:24.002Z</time></trkpt><trkpt lat="43.31368527865904" lon="11.353098985141443"><ele>260.6</ele><time>2026-04-25T07:32:25.002Z</time></trkpt><trkpt lat="43.31360357086747" lon="11.352996972825382"><ele>263.4</ele><time>2026-04-25T07:32:26.002Z</time></trkpt><trkpt lat="43.31352921785242" lon="11.352898602115333"><ele>266.2</ele><time>2026-04-25T07:32:27.002Z</time></trkpt><trkpt lat="43.31345834733415" lon="11.35279263181663"><ele>269.0</ele><time>2026-04-25T07:32:28.002Z</time></trkpt><trkpt lat="43.31339214438973" lon="11.352683725880143"><ele>269.0</ele><time>2026-04-25T07:32:29.002Z</time></trkpt><trkpt lat="43.313315356398256" lon="11.35258503322806"><ele>269.0</ele><time>2026-04-25T07:32:30.002Z</time></trkpt><trkpt lat="43.31325696494374" lon="11.352465388193746"><ele>269.0</ele><time>2026-04-25T07:32:31.002Z</time></trkpt><trkpt lat="43.313196605536724" lon="11.352342923490777"><ele>269.0</ele><time>2026-04-25T07:32:32.002Z</time></trkpt><trkpt lat="43.31314768621051" lon="11.352240157728476"><ele>269.0</ele><time>2026-04-25T07:32:33.002Z</time></trkpt><trkpt lat="43.313109140639796" lon="11.352167634020866"><ele>270.4</ele><time>2026-04-25T07:32:34.001Z</time></trkpt><trkpt lat="43.313041700371535" lon="11.351998914310485"><ele>271.79999999999995</ele><time>2026-04-25T07:32:36.001Z</time></trkpt><trkpt lat="43.31299806909633" lon="11.351895345970776"><ele>273.20000000000005</ele><time>2026-04-25T07:32:37.001Z</time></trkpt><trkpt lat="43.31295626475452" lon="11.351780719475325"><ele>274.6</ele><time>2026-04-25T07:32:38.001Z</time></trkpt><trkpt lat="43.312920374853235" lon="11.351657928982442"><ele>276.0</ele><time>2026-04-25T07:32:39.001Z</time></trkpt><trkpt lat="43.31288756496863" lon="11.351528950631621"><ele>276.0</ele><time>2026-04-25T07:32:40.001Z</time></trkpt><trkpt lat="43.31284803123603" lon="11.351404838790884"><ele>276.0</ele><time>2026-04-25T07:32:41.001Z</time></trkpt><trkpt lat="43.312820811488265" lon="11.351274241770252"><ele>276.0</ele><time>2026-04-25T07:32:42.001Z</time></trkpt><trkpt lat="43.31280455480755" lon="11.351143828180557"><ele>276.0</ele><time>2026-04-25T07:32:43.001Z</time></trkpt><trkpt lat="43.31278399591733" lon="11.351017273563913"><ele>276.0</ele><time>2026-04-25T07:32:44Z</time></trkpt><trkpt lat="43.312749773739604" lon="11.350895248824607"><ele>276.5</ele><time>2026-04-25T07:32:45Z</time></trkpt><trkpt lat="43.312718376063906" lon="11.35077140540694"><ele>277.0</ele><time>2026-04-25T07:32:46Z</time></trkpt><trkpt lat="43.312686580914075" lon="11.350654262978932"><ele>277.5</ele><time>2026-04-25T07:32:47Z</time></trkpt><trkpt lat="43.3126490234609" lon="11.350549432726673"><ele>278.0</ele><time>2026-04-25T07:32:48Z</time></trkpt><trkpt lat="43.31261677670888" lon="11.350442528238938"><ele>278.5</ele><time>2026-04-25T07:32:49Z</time></trkpt><trkpt lat="43.31257490277116" lon="11.350332225410547"><ele>279.0</ele><time>2026-04-25T07:32:50Z</time></trkpt><trkpt lat="43.31252805029073" lon="11.350215966975744"><ele>279.0</ele><time>2026-04-25T07:32:51Z</time></trkpt><trkpt lat="43.312489024140895" lon="11.350107607718305"><ele>279.0</ele><time>2026-04-25T07:32:52Z</time></trkpt><trkpt lat="43.31248250637909" lon="11.349995583937837"><ele>279.0</ele><time>2026-04-25T07:32:53Z</time></trkpt><trkpt lat="43.312493129377174" lon="11.349836852535766"><ele>279.0</ele><time>2026-04-25T07:32:55Z</time></trkpt><trkpt lat="43.31252230105723" lon="11.349691491081558"><ele>279.0</ele><time>2026-04-25T07:32:57Z</time></trkpt><trkpt lat="43.31256232347782" lon="11.349622083323945"><ele>278.1666666666667</ele><time>2026-04-25T07:32:58Z</time></trkpt><trkpt lat="43.31260072090911" lon="11.349547517883181"><ele>277.3333333333333</ele><time>2026-04-25T07:32:59Z</time></trkpt><trkpt lat="43.31264428103392" lon="11.349461947616598"><ele>276.5</ele><time>2026-04-25T07:33:00Z</time></trkpt><trkpt lat="43.312677949264476" lon="11.349370860568778"><ele>275.66666666666663</ele><time>2026-04-25T07:33:01Z</time></trkpt><trkpt lat="43.31270307687884" lon="11.349279443052136"><ele>274.8333333333333</ele><time>2026-04-25T07:33:02Z</time></trkpt><trkpt lat="43.312732485032235" lon="11.349187814367996"><ele>274.0</ele><time>2026-04-25T07:33:03Z</time></trkpt><trkpt lat="43.312751430908285" lon="11.34902613836608"><ele>273.3333333333333</ele><time>2026-04-25T07:33:05Z</time></trkpt><trkpt lat="43.31273562076429" lon="11.348848922918574"><ele>272.66666666666663</ele><time>2026-04-25T07:33:07Z</time></trkpt><trkpt lat="43.31271371706043" lon="11.34875160484517"><ele>272.0</ele><time>2026-04-25T07:33:08Z</time></trkpt><trkpt lat="43.31267912344724" lon="11.34866513227085"><ele>271.3333333333333</ele><time>2026-04-25T07:33:09Z</time></trkpt><trkpt lat="43.31264735574919" lon="11.348571146838754"><ele>270.6666666666667</ele><time>2026-04-25T07:33:10Z</time></trkpt><trkpt lat="43.31261322844882" lon="11.34847934826918"><ele>270.0</ele><time>2026-04-25T07:33:11.001Z</time></trkpt><trkpt lat="43.312574991877284" lon="11.34839250735862"><ele>270.0</ele><time>2026-04-25T07:33:12.001Z</time></trkpt><trkpt lat="43.31253519668307" lon="11.348320844079979"><ele>270.0</ele><time>2026-04-25T07:33:13.001Z</time></trkpt><trkpt lat="43.31249225643973" lon="11.348252913349482"><ele>270.0</ele><time>2026-04-25T07:33:14.001Z</time></trkpt><trkpt lat="43.312444745921546" lon="11.348187091025318"><ele>270.0</ele><time>2026-04-25T07:33:15.001Z</time></trkpt><trkpt lat="43.31240086813809" lon="11.348117951247067"><ele>270.0</ele><time>2026-04-25T07:33:16.001Z</time></trkpt><trkpt lat="43.31232701923649" lon="11.348003679637099"><ele>270.0</ele><time>2026-04-25T07:33:18.001Z</time></trkpt><trkpt lat="43.31222573122325" lon="11.348095490754519"><ele>269.1666666666667</ele><time>2026-04-25T07:33:22.001Z</time></trkpt><trkpt lat="43.312189324508" lon="11.34817521965244"><ele>268.3333333333333</ele><time>2026-04-25T07:33:23.001Z</time></trkpt><trkpt lat="43.312144673301766" lon="11.348267847854611"><ele>267.5</ele><time>2026-04-25T07:33:24.001Z</time></trkpt><trkpt lat="43.31210814787012" lon="11.3483660342818"><ele>266.66666666666663</ele><time>2026-04-25T07:33:25.001Z</time></trkpt><trkpt lat="43.31206520198833" lon="11.348467577224852"><ele>265.8333333333333</ele><time>2026-04-25T07:33:26.001Z</time></trkpt><trkpt lat="43.31204200085042" lon="11.34860650204892"><ele>265.0</ele><time>2026-04-25T07:33:27.001Z</time></trkpt><trkpt lat="43.31200044210489" lon="11.34874023577668"><ele>264.4</ele><time>2026-04-25T07:33:28.001Z</time></trkpt><trkpt lat="43.31196286924166" lon="11.348883641271174"><ele>263.8</ele><time>2026-04-25T07:33:29.001Z</time></trkpt><trkpt lat="43.31192692345826" lon="11.34902060153995"><ele>263.2</ele><time>2026-04-25T07:33:30.001Z</time></trkpt><trkpt lat="43.31188695866292" lon="11.349152663643238"><ele>262.6</ele><time>2026-04-25T07:33:31.001Z</time></trkpt><trkpt lat="43.31184305798816" lon="11.349278660475495"><ele>262.0</ele><time>2026-04-25T07:33:32.001Z</time></trkpt><trkpt lat="43.31179437515232" lon="11.349398283820856"><ele>262.0</ele><time>2026-04-25T07:33:33.001Z</time></trkpt><trkpt lat="43.311733123657746" lon="11.349511570418517"><ele>262.0</ele><time>2026-04-25T07:33:34.001Z</time></trkpt><trkpt lat="43.31165323818422" lon="11.349618667403428"><ele>262.0</ele><time>2026-04-25T07:33:35.001Z</time></trkpt><trkpt lat="43.31156093281833" lon="11.349706528204457"><ele>262.0</ele><time>2026-04-25T07:33:36.001Z</time></trkpt><trkpt lat="43.31145867239476" lon="11.349770600659777"><ele>262.0</ele><time>2026-04-25T07:33:37.001Z</time></trkpt><trkpt lat="43.311353675505224" lon="11.349830818993624"><ele>262.0</ele><time>2026-04-25T07:33:38.001Z</time></trkpt><trkpt lat="43.31125203327077" lon="11.349855706260461"><ele>262.0</ele><time>2026-04-25T07:33:39.001Z</time></trkpt><trkpt lat="43.311159273854145" lon="11.349909920641625"><ele>262.0</ele><time>2026-04-25T07:33:40.001Z</time></trkpt><trkpt lat="43.31106827134129" lon="11.34991921412081"><ele>262.0</ele><time>2026-04-25T07:33:41.001Z</time></trkpt><trkpt lat="43.310984787799335" lon="11.349961889990116"><ele>262.0</ele><time>2026-04-25T07:33:42.001Z</time></trkpt><trkpt lat="43.31090572158486" lon="11.349969862397035"><ele>262.0</ele><time>2026-04-25T07:33:43.001Z</time></trkpt><trkpt lat="43.31083232595127" lon="11.34999422745606"><ele>262.0</ele><time>2026-04-25T07:33:44.001Z</time></trkpt><trkpt lat="43.310756442376565" lon="11.350044255067578"><ele>262.0</ele><time>2026-04-25T07:33:45.001Z</time></trkpt><trkpt lat="43.31067379050174" lon="11.350072052847196"><ele>262.0</ele><time>2026-04-25T07:33:46.001Z</time></trkpt><trkpt lat="43.310593412760696" lon="11.350122065627252"><ele>262.0</ele><time>2026-04-25T07:33:47.001Z</time></trkpt><trkpt lat="43.31050955345679" lon="11.350180552774084"><ele>262.0</ele><time>2026-04-25T07:33:48.001Z</time></trkpt><trkpt lat="43.310428929250605" lon="11.350251552248078"><ele>262.0</ele><time>2026-04-25T07:33:49.001Z</time></trkpt><trkpt lat="43.31036042822587" lon="11.350315413631792"><ele>262.0</ele><time>2026-04-25T07:33:50.001Z</time></trkpt><trkpt lat="43.3102862802322" lon="11.350387228430844"><ele>262.0</ele><time>2026-04-25T07:33:51.001Z</time></trkpt><trkpt lat="43.31020738450424" lon="11.350484774843563"><ele>262.0</ele><time>2026-04-25T07:33:52.001Z</time></trkpt><trkpt lat="43.31014362948108" lon="11.350549179289589"><ele>262.0</ele><time>2026-04-25T07:33:53.001Z</time></trkpt><trkpt lat="43.31007873334852" lon="11.350643447060088"><ele>261.8</ele><time>2026-04-25T07:33:54.001Z</time></trkpt><trkpt lat="43.31000822637027" lon="11.350735746768757"><ele>261.6</ele><time>2026-04-25T07:33:55.001Z</time></trkpt><trkpt lat="43.30993989800215" lon="11.350837815314057"><ele>261.40000000000003</ele><time>2026-04-25T07:33:56.001Z</time></trkpt><trkpt lat="43.309872696000504" lon="11.350944602301322"><ele>261.2</ele><time>2026-04-25T07:33:57.001Z</time></trkpt><trkpt lat="43.30981054500474" lon="11.351044412647155"><ele>261.0</ele><time>2026-04-25T07:33:58.001Z</time></trkpt><trkpt lat="43.30976126415784" lon="11.351148522776798"><ele>261.8</ele><time>2026-04-25T07:33:59.001Z</time></trkpt><trkpt lat="43.309712347543105" lon="11.351264201672768"><ele>262.6</ele><time>2026-04-25T07:34:00.001Z</time></trkpt><trkpt lat="43.3096703597835" lon="11.351383016392226"><ele>263.4</ele><time>2026-04-25T07:34:01.001Z</time></trkpt><trkpt lat="43.30962928501802" lon="11.351501540945826"><ele>264.2</ele><time>2026-04-25T07:34:02.001Z</time></trkpt><trkpt lat="43.30959601485088" lon="11.351615977432932"><ele>265.0</ele><time>2026-04-25T07:34:03.001Z</time></trkpt><trkpt lat="43.30956643570737" lon="11.351734558084987"><ele>265.0</ele><time>2026-04-25T07:34:04.001Z</time></trkpt><trkpt lat="43.30954658804794" lon="11.351860520817873"><ele>265.0</ele><time>2026-04-25T07:34:05.001Z</time></trkpt><trkpt lat="43.30952270472721" lon="11.351979187798158"><ele>265.0</ele><time>2026-04-25T07:34:06.001Z</time></trkpt><trkpt lat="43.30949819881183" lon="11.352097317875245"><ele>265.0</ele><time>2026-04-25T07:34:07.001Z</time></trkpt><trkpt lat="43.309475467818196" lon="11.352212310001482"><ele>265.0</ele><time>2026-04-25T07:34:08.001Z</time></trkpt><trkpt lat="43.30945390465412" lon="11.352328731086226"><ele>265.0</ele><time>2026-04-25T07:34:09.001Z</time></trkpt><trkpt lat="43.30943547714379" lon="11.352447575112238"><ele>265.0</ele><time>2026-04-25T07:34:10.001Z</time></trkpt><trkpt lat="43.309416085743884" lon="11.352556752523014"><ele>265.0</ele><time>2026-04-25T07:34:11.001Z</time></trkpt><trkpt lat="43.30939719254781" lon="11.352671780782188"><ele>265.0</ele><time>2026-04-25T07:34:12.001Z</time></trkpt><trkpt lat="43.30937786560059" lon="11.352776833085235"><ele>265.0</ele><time>2026-04-25T07:34:13.001Z</time></trkpt><trkpt lat="43.30936101525416" lon="11.35288263455021"><ele>265.0</ele><time>2026-04-25T07:34:14.001Z</time></trkpt><trkpt lat="43.30934267363079" lon="11.352984479565832"><ele>265.0</ele><time>2026-04-25T07:34:15.001Z</time></trkpt><trkpt lat="43.30932656772127" lon="11.353076219371593"><ele>265.0</ele><time>2026-04-25T07:34:16.001Z</time></trkpt><trkpt lat="43.309315132982555" lon="11.353163775375787"><ele>265.0</ele><time>2026-04-25T07:34:17.001Z</time></trkpt><trkpt lat="43.30930047574014" lon="11.353249374000056"><ele>265.0</ele><time>2026-04-25T07:34:18.001Z</time></trkpt><trkpt lat="43.30926622645106" lon="11.353408913536331"><ele>265.0</ele><time>2026-04-25T07:34:20.001Z</time></trkpt><trkpt lat="43.30924585799428" lon="11.353522652359198"><ele>265.0</ele><time>2026-04-25T07:34:22.001Z</time></trkpt><trkpt lat="43.3092438400597" lon="11.353656544245549"><ele>265.0</ele><time>2026-04-25T07:34:25.001Z</time></trkpt><trkpt lat="43.30923943785791" lon="11.353771579476255"><ele>264.4</ele><time>2026-04-25T07:34:28.001Z</time></trkpt><trkpt lat="43.309232187652434" lon="11.353907103770462"><ele>263.8</ele><time>2026-04-25T07:34:31.001Z</time></trkpt><trkpt lat="43.309231614120115" lon="11.354068239847381"><ele>263.2</ele><time>2026-04-25T07:34:33.001Z</time></trkpt><trkpt lat="43.30922400604747" lon="11.354174055167611"><ele>262.6</ele><time>2026-04-25T07:34:34.001Z</time></trkpt><trkpt lat="43.30921612211309" lon="11.354293251133871"><ele>262.0</ele><time>2026-04-25T07:34:35.001Z</time></trkpt><trkpt lat="43.309211671425075" lon="11.354417306108989"><ele>262.0</ele><time>2026-04-25T07:34:36.001Z</time></trkpt><trkpt lat="43.30920634086457" lon="11.354539797809654"><ele>262.0</ele><time>2026-04-25T07:34:37.001Z</time></trkpt><trkpt lat="43.30920178028579" lon="11.354669741373437"><ele>262.0</ele><time>2026-04-25T07:34:38.001Z</time></trkpt><trkpt lat="43.309202355752745" lon="11.35479925778971"><ele>262.0</ele><time>2026-04-25T07:34:39.001Z</time></trkpt><trkpt lat="43.3092107751541" lon="11.354916806303798"><ele>262.0</ele><time>2026-04-25T07:34:39.999Z</time></trkpt><trkpt lat="43.309222042632356" lon="11.355036493043448"><ele>262.2</ele><time>2026-04-25T07:34:40.999Z</time></trkpt><trkpt lat="43.309229268234525" lon="11.3551487144273"><ele>262.4</ele><time>2026-04-25T07:34:41.999Z</time></trkpt><trkpt lat="43.30924477719612" lon="11.355271772333369"><ele>262.6</ele><time>2026-04-25T07:34:42.999Z</time></trkpt><trkpt lat="43.30927750057731" lon="11.355397312660415"><ele>262.8</ele><time>2026-04-25T07:34:43.999Z</time></trkpt><trkpt lat="43.30929901568135" lon="11.355527861490819"><ele>263.0</ele><time>2026-04-25T07:34:44.999Z</time></trkpt><trkpt lat="43.30934538518174" lon="11.355655081199302"><ele>262.6</ele><time>2026-04-25T07:34:45.999Z</time></trkpt><trkpt lat="43.30937513421288" lon="11.355778063120304"><ele>262.20000000000005</ele><time>2026-04-25T07:34:46.999Z</time></trkpt><trkpt lat="43.309408741464004" lon="11.355916994465105"><ele>261.8</ele><time>2026-04-25T07:34:47.999Z</time></trkpt><trkpt lat="43.309430188821445" lon="11.356050418874137"><ele>261.40000000000003</ele><time>2026-04-25T07:34:48.999Z</time></trkpt><trkpt lat="43.30946218894383" lon="11.356180447021764"><ele>261.0</ele><time>2026-04-25T07:34:49.999Z</time></trkpt><trkpt lat="43.30948411181535" lon="11.35630669742986"><ele>259.8</ele><time>2026-04-25T07:34:50.999Z</time></trkpt><trkpt lat="43.3094921595581" lon="11.356434196290174"><ele>258.6</ele><time>2026-04-25T07:34:51.999Z</time></trkpt><trkpt lat="43.30948720239964" lon="11.356572220363633"><ele>257.4</ele><time>2026-04-25T07:34:52.999Z</time></trkpt><trkpt lat="43.30946598418097" lon="11.356710954035986"><ele>256.2</ele><time>2026-04-25T07:34:53.999Z</time></trkpt><trkpt lat="43.30943530527992" lon="11.356848475649082"><ele>255.0</ele><time>2026-04-25T07:34:54.999Z</time></trkpt><trkpt lat="43.30940094310025" lon="11.35697171055729"><ele>255.0</ele><time>2026-04-25T07:34:55.999Z</time></trkpt><trkpt lat="43.30935599396615" lon="11.357083983276715"><ele>255.0</ele><time>2026-04-25T07:34:56.999Z</time></trkpt><trkpt lat="43.30931534310239" lon="11.357198950101921"><ele>255.0</ele><time>2026-04-25T07:34:58Z</time></trkpt><trkpt lat="43.309256677259945" lon="11.35730855000561"><ele>255.0</ele><time>2026-04-25T07:34:59Z</time></trkpt><trkpt lat="43.30917813097715" lon="11.357405501397409"><ele>255.0</ele><time>2026-04-25T07:35:00Z</time></trkpt><trkpt lat="43.30908801265849" lon="11.357503014198338"><ele>254.5</ele><time>2026-04-25T07:35:01Z</time></trkpt><trkpt lat="43.30899500664612" lon="11.35760120529216"><ele>254.0</ele><time>2026-04-25T07:35:02Z</time></trkpt><trkpt lat="43.30888876534042" lon="11.357704839639238"><ele>253.5</ele><time>2026-04-25T07:35:03Z</time></trkpt><trkpt lat="43.308788579046954" lon="11.357807763694277"><ele>253.0</ele><time>2026-04-25T07:35:04Z</time></trkpt><trkpt lat="43.308686197716845" lon="11.357910406626285"><ele>251.5</ele><time>2026-04-25T07:35:05Z</time></trkpt><trkpt lat="43.30858615319519" lon="11.358012550901757"><ele>250.0</ele><time>2026-04-25T07:35:06Z</time></trkpt><trkpt lat="43.308482587483304" lon="11.35810889294514"><ele>248.5</ele><time>2026-04-25T07:35:07Z</time></trkpt><trkpt lat="43.308375152329724" lon="11.358191967480012"><ele>247.0</ele><time>2026-04-25T07:35:08Z</time></trkpt><trkpt lat="43.30826186058164" lon="11.358272582475784"><ele>247.0</ele><time>2026-04-25T07:35:09Z</time></trkpt><trkpt lat="43.30814785591529" lon="11.358362030110278"><ele>247.0</ele><time>2026-04-25T07:35:10Z</time></trkpt><trkpt lat="43.30803470265783" lon="11.358457058914809"><ele>247.0</ele><time>2026-04-25T07:35:11Z</time></trkpt><trkpt lat="43.30792695026441" lon="11.358565967277745"><ele>247.0</ele><time>2026-04-25T07:35:12Z</time></trkpt><trkpt lat="43.30781315471291" lon="11.358698794302738"><ele>244.75</ele><time>2026-04-25T07:35:13Z</time></trkpt><trkpt lat="43.30770583616034" lon="11.358835417527827"><ele>242.5</ele><time>2026-04-25T07:35:14Z</time></trkpt><trkpt lat="43.30760031268493" lon="11.358969792654385"><ele>240.25</ele><time>2026-04-25T07:35:15Z</time></trkpt><trkpt lat="43.30748975193269" lon="11.359097225938154"><ele>238.0</ele><time>2026-04-25T07:35:16Z</time></trkpt><trkpt lat="43.307371198709795" lon="11.359215142944851"><ele>238.0</ele><time>2026-04-25T07:35:17Z</time></trkpt><trkpt lat="43.30725803658375" lon="11.359353860638379"><ele>238.0</ele><time>2026-04-25T07:35:18Z</time></trkpt><trkpt lat="43.30714650624705" lon="11.359490330630624"><ele>238.0</ele><time>2026-04-25T07:35:19Z</time></trkpt><trkpt lat="43.307039698081155" lon="11.359619997243856"><ele>238.0</ele><time>2026-04-25T07:35:20Z</time></trkpt><trkpt lat="43.30693378667938" lon="11.359746596254393"><ele>238.75</ele><time>2026-04-25T07:35:21Z</time></trkpt><trkpt lat="43.30682967714653" lon="11.359874311162574"><ele>239.5</ele><time>2026-04-25T07:35:22Z</time></trkpt><trkpt lat="43.30673421209334" lon="11.360006702211818"><ele>240.25</ele><time>2026-04-25T07:35:23Z</time></trkpt><trkpt lat="43.30664535834852" lon="11.360138883599014"><ele>241.0</ele><time>2026-04-25T07:35:24Z</time></trkpt><trkpt lat="43.3065655505694" lon="11.360286992371364"><ele>241.0</ele><time>2026-04-25T07:35:25Z</time></trkpt><trkpt lat="43.306482586861584" lon="11.360426325555819"><ele>241.0</ele><time>2026-04-25T07:35:26Z</time></trkpt><trkpt lat="43.30639677378177" lon="11.360560069436437"><ele>241.0</ele><time>2026-04-25T07:35:27Z</time></trkpt><trkpt lat="43.30631338819245" lon="11.360684469943589"><ele>241.0</ele><time>2026-04-25T07:35:28Z</time></trkpt><trkpt lat="43.30622578018071" lon="11.360794417673315"><ele>243.75</ele><time>2026-04-25T07:35:29Z</time></trkpt><trkpt lat="43.306143772424555" lon="11.360911747695962"><ele>246.5</ele><time>2026-04-25T07:35:30Z</time></trkpt><trkpt lat="43.30609006278396" lon="11.36104462843948"><ele>249.25</ele><time>2026-04-25T07:35:31Z</time></trkpt><trkpt lat="43.306042774316396" lon="11.361186845341885"><ele>252.0</ele><time>2026-04-25T07:35:32Z</time></trkpt><trkpt lat="43.305985298226204" lon="11.361315452545238"><ele>251.0</ele><time>2026-04-25T07:35:33Z</time></trkpt><trkpt lat="43.30592919828117" lon="11.361427655087157"><ele>250.0</ele><time>2026-04-25T07:35:34Z</time></trkpt><trkpt lat="43.305860554384985" lon="11.361530247145454"><ele>249.0</ele><time>2026-04-25T07:35:35Z</time></trkpt><trkpt lat="43.30576720193404" lon="11.361585770632079"><ele>248.0</ele><time>2026-04-25T07:35:36Z</time></trkpt><trkpt lat="43.3056668004217" lon="11.361646425788177"><ele>247.0</ele><time>2026-04-25T07:35:37Z</time></trkpt><trkpt lat="43.30555320927079" lon="11.36167714695959"><ele>247.0</ele><time>2026-04-25T07:35:38Z</time></trkpt><trkpt lat="43.30543486217584" lon="11.36169844319659"><ele>247.0</ele><time>2026-04-25T07:35:39Z</time></trkpt><trkpt lat="43.30532297204994" lon="11.361743569484064"><ele>247.0</ele><time>2026-04-25T07:35:40Z</time></trkpt><trkpt lat="43.305212401734536" lon="11.361745997172623"><ele>247.0</ele><time>2026-04-25T07:35:41Z</time></trkpt><trkpt lat="43.30510231843807" lon="11.361771580995361"><ele>247.0</ele><time>2026-04-25T07:35:42Z</time></trkpt><trkpt lat="43.30499241673717" lon="11.361792383468268"><ele>247.0</ele><time>2026-04-25T07:35:43Z</time></trkpt><trkpt lat="43.30488785160012" lon="11.361815345578412"><ele>247.0</ele><time>2026-04-25T07:35:44Z</time></trkpt><trkpt lat="43.30479400712161" lon="11.361831881638834"><ele>247.0</ele><time>2026-04-25T07:35:45Z</time></trkpt><trkpt lat="43.30469300930224" lon="11.361842017583257"><ele>247.0</ele><time>2026-04-25T07:35:46Z</time></trkpt><trkpt lat="43.30459023374264" lon="11.361834921309772"><ele>244.5</ele><time>2026-04-25T07:35:47Z</time></trkpt><trkpt lat="43.30448592967317" lon="11.361844227896215"><ele>242.0</ele><time>2026-04-25T07:35:48Z</time></trkpt><trkpt lat="43.30438272111338" lon="11.361883315349614"><ele>239.5</ele><time>2026-04-25T07:35:49Z</time></trkpt><trkpt lat="43.304267859923684" lon="11.361946580134568"><ele>237.0</ele><time>2026-04-25T07:35:50Z</time></trkpt><trkpt lat="43.304147280681306" lon="11.362035729588504"><ele>237.0</ele><time>2026-04-25T07:35:51Z</time></trkpt><trkpt lat="43.30403161887535" lon="11.362126974618915"><ele>237.0</ele><time>2026-04-25T07:35:52Z</time></trkpt><trkpt lat="43.30392153310021" lon="11.362226087822544"><ele>237.0</ele><time>2026-04-25T07:35:53Z</time></trkpt><trkpt lat="43.30381774439569" lon="11.36231217315047"><ele>237.0</ele><time>2026-04-25T07:35:54Z</time></trkpt><trkpt lat="43.30371653963059" lon="11.362396847303078"><ele>238.8</ele><time>2026-04-25T07:35:55Z</time></trkpt><trkpt lat="43.30361563346589" lon="11.362487629700466"><ele>240.6</ele><time>2026-04-25T07:35:56Z</time></trkpt><trkpt lat="43.303535265289916" lon="11.362588278348383"><ele>242.40000000000003</ele><time>2026-04-25T07:35:57.001Z</time></trkpt><trkpt lat="43.30346388581367" lon="11.36269635218723"><ele>244.20000000000002</ele><time>2026-04-25T07:35:58.001Z</time></trkpt><trkpt lat="43.30341033449926" lon="11.362821194233776"><ele>246.0</ele><time>2026-04-25T07:35:59.001Z</time></trkpt><trkpt lat="43.30338360582202" lon="11.362974699172899"><ele>247.25</ele><time>2026-04-25T07:36:00.001Z</time></trkpt><trkpt lat="43.30337295575915" lon="11.363141287014997"><ele>248.5</ele><time>2026-04-25T07:36:01.001Z</time></trkpt><trkpt lat="43.30336174943661" lon="11.363303039002917"><ele>249.75</ele><time>2026-04-25T07:36:02.001Z</time></trkpt><trkpt lat="43.303343603647" lon="11.36346332844894"><ele>251.0</ele><time>2026-04-25T07:36:03.001Z</time></trkpt><trkpt lat="43.30331321278342" lon="11.363604291307862"><ele>251.0</ele><time>2026-04-25T07:36:04.001Z</time></trkpt><trkpt lat="43.30327117830673" lon="11.363739086660416"><ele>251.00000000000003</ele><time>2026-04-25T07:36:05.001Z</time></trkpt><trkpt lat="43.30322519981348" lon="11.363848758374107"><ele>251.00000000000003</ele><time>2026-04-25T07:36:06.001Z</time></trkpt><trkpt lat="43.3031446579348" lon="11.363926479413637"><ele>251.0</ele><time>2026-04-25T07:36:07.001Z</time></trkpt><trkpt lat="43.30304238691886" lon="11.363934627329"><ele>251.0</ele><time>2026-04-25T07:36:08.001Z</time></trkpt><trkpt lat="43.30294738296032" lon="11.363941260962344"><ele>251.4</ele><time>2026-04-25T07:36:09.001Z</time></trkpt><trkpt lat="43.30284807329629" lon="11.363946655437529"><ele>251.8</ele><time>2026-04-25T07:36:10.001Z</time></trkpt><trkpt lat="43.30275478812134" lon="11.363941092750698"><ele>252.20000000000002</ele><time>2026-04-25T07:36:11.001Z</time></trkpt><trkpt lat="43.30266836616108" lon="11.363962866087595"><ele>252.60000000000002</ele><time>2026-04-25T07:36:12.001Z</time></trkpt><trkpt lat="43.30258385102336" lon="11.363969498032342"><ele>253.0</ele><time>2026-04-25T07:36:13.001Z</time></trkpt><trkpt lat="43.302489136596606" lon="11.363996830704723"><ele>253.0</ele><time>2026-04-25T07:36:14.001Z</time></trkpt><trkpt lat="43.30239076345205" lon="11.364049265128438"><ele>253.0</ele><time>2026-04-25T07:36:15.001Z</time></trkpt><trkpt lat="43.3022909641995" lon="11.364108629134325"><ele>253.0</ele><time>2026-04-25T07:36:16.001Z</time></trkpt><trkpt lat="43.302193566151246" lon="11.364169581802807"><ele>253.0</ele><time>2026-04-25T07:36:17.001Z</time></trkpt><trkpt lat="43.30209599966553" lon="11.364235104452385"><ele>253.0</ele><time>2026-04-25T07:36:18.001Z</time></trkpt><trkpt lat="43.30200447073996" lon="11.364319769492917"><ele>251.0</ele><time>2026-04-25T07:36:19.001Z</time></trkpt><trkpt lat="43.30192288568268" lon="11.364418538070472"><ele>249.0</ele><time>2026-04-25T07:36:20.001Z</time></trkpt><trkpt lat="43.30185680303178" lon="11.364533691222213"><ele>247.0</ele><time>2026-04-25T07:36:21.001Z</time></trkpt><trkpt lat="43.30180498091285" lon="11.364664470511574"><ele>245.0</ele><time>2026-04-25T07:36:22.001Z</time></trkpt><trkpt lat="43.30176182356396" lon="11.364811028141022"><ele>243.0</ele><time>2026-04-25T07:36:23.001Z</time></trkpt><trkpt lat="43.30171469201838" lon="11.364947273315575"><ele>243.0</ele><time>2026-04-25T07:36:24.001Z</time></trkpt><trkpt lat="43.30167926846212" lon="11.36508130791349"><ele>243.0</ele><time>2026-04-25T07:36:25.001Z</time></trkpt><trkpt lat="43.30161791870736" lon="11.36519745349011"><ele>243.0</ele><time>2026-04-25T07:36:26.001Z</time></trkpt><trkpt lat="43.30152834864812" lon="11.365270490236389"><ele>243.0</ele><time>2026-04-25T07:36:27.001Z</time></trkpt><trkpt lat="43.30144266768255" lon="11.36535226134761"><ele>243.0</ele><time>2026-04-25T07:36:28.001Z</time></trkpt><trkpt lat="43.30133049439829" lon="11.365417175906897"><ele>242.5</ele><time>2026-04-25T07:36:29.001Z</time></trkpt><trkpt lat="43.30120584481044" lon="11.36546941602431"><ele>242.0</ele><time>2026-04-25T07:36:30.001Z</time></trkpt><trkpt lat="43.301101898682674" lon="11.365559171259727"><ele>241.5</ele><time>2026-04-25T07:36:31.001Z</time></trkpt><trkpt lat="43.300985227412866" lon="11.365618341774278"><ele>241.0</ele><time>2026-04-25T07:36:32.001Z</time></trkpt><trkpt lat="43.30088347202597" lon="11.36568171754075"><ele>241.0</ele><time>2026-04-25T07:36:33.001Z</time></trkpt><trkpt lat="43.30078879318184" lon="11.365724583568849"><ele>241.00000000000003</ele><time>2026-04-25T07:36:34.001Z</time></trkpt><trkpt lat="43.300694707163515" lon="11.365715750328528"><ele>241.00000000000003</ele><time>2026-04-25T07:36:35.001Z</time></trkpt><trkpt lat="43.30059776937756" lon="11.365717746287926"><ele>241.0</ele><time>2026-04-25T07:36:36.001Z</time></trkpt><trkpt lat="43.300496387527694" lon="11.365734867738004"><ele>241.0</ele><time>2026-04-25T07:36:37.001Z</time></trkpt><trkpt lat="43.30039771073307" lon="11.365728130502836"><ele>241.60000000000002</ele><time>2026-04-25T07:36:38.001Z</time></trkpt><trkpt lat="43.300301890678405" lon="11.36573186685369"><ele>242.20000000000002</ele><time>2026-04-25T07:36:39.001Z</time></trkpt><trkpt lat="43.30020399401322" lon="11.365741194452784"><ele>242.79999999999998</ele><time>2026-04-25T07:36:40.001Z</time></trkpt><trkpt lat="43.300111320539074" lon="11.365765606365592"><ele>243.39999999999998</ele><time>2026-04-25T07:36:41.001Z</time></trkpt><trkpt lat="43.300016484593755" lon="11.365827259040753"><ele>244.0</ele><time>2026-04-25T07:36:42.001Z</time></trkpt><trkpt lat="43.299930089687095" lon="11.365925563969794"><ele>244.0</ele><time>2026-04-25T07:36:43.001Z</time></trkpt><trkpt lat="43.29984310519708" lon="11.365998152645046"><ele>243.99999999999997</ele><time>2026-04-25T07:36:44.001Z</time></trkpt><trkpt lat="43.299772476660905" lon="11.366089418301682"><ele>243.99999999999997</ele><time>2026-04-25T07:36:45.001Z</time></trkpt><trkpt lat="43.299702059584504" lon="11.36618177924786"><ele>244.0</ele><time>2026-04-25T07:36:45.999Z</time></trkpt><trkpt lat="43.29961700666511" lon="11.366272952831638"><ele>244.0</ele><time>2026-04-25T07:36:46.999Z</time></trkpt><trkpt lat="43.29953751499039" lon="11.366377689341965"><ele>242.25</ele><time>2026-04-25T07:36:47.999Z</time></trkpt><trkpt lat="43.29945864700162" lon="11.366478744860428"><ele>240.5</ele><time>2026-04-25T07:36:48.999Z</time></trkpt><trkpt lat="43.29937650485493" lon="11.366580165368353"><ele>238.75</ele><time>2026-04-25T07:36:49.999Z</time></trkpt><trkpt lat="43.29929227713584" lon="11.366684464879842"><ele>237.0</ele><time>2026-04-25T07:36:50.999Z</time></trkpt><trkpt lat="43.2992062155165" lon="11.366797928645866"><ele>237.0</ele><time>2026-04-25T07:36:51.999Z</time></trkpt><trkpt lat="43.299124184716106" lon="11.36691529345511"><ele>237.0</ele><time>2026-04-25T07:36:52.999Z</time></trkpt><trkpt lat="43.29905660471018" lon="11.36704580153829"><ele>237.0</ele><time>2026-04-25T07:36:53.999Z</time></trkpt><trkpt lat="43.298997297130285" lon="11.367183761738684"><ele>237.0</ele><time>2026-04-25T07:36:54.999Z</time></trkpt><trkpt lat="43.29894145868687" lon="11.367335368628744"><ele>235.8</ele><time>2026-04-25T07:36:55.999Z</time></trkpt><trkpt lat="43.29889352893766" lon="11.367476381239674"><ele>234.6</ele><time>2026-04-25T07:36:56.999Z</time></trkpt><trkpt lat="43.298843330900844" lon="11.367610171072002"><ele>233.40000000000003</ele><time>2026-04-25T07:36:57.999Z</time></trkpt><trkpt lat="43.29879541855219" lon="11.367741089739162"><ele>232.20000000000002</ele><time>2026-04-25T07:36:58.999Z</time></trkpt><trkpt lat="43.29874582073705" lon="11.367869394867357"><ele>231.0</ele><time>2026-04-25T07:36:59.999Z</time></trkpt><trkpt lat="43.298691164112725" lon="11.367998505372654"><ele>231.8</ele><time>2026-04-25T07:37:00.999Z</time></trkpt><trkpt lat="43.29862836072491" lon="11.368116746029669"><ele>232.60000000000002</ele><time>2026-04-25T07:37:02Z</time></trkpt><trkpt lat="43.29856413752109" lon="11.368221291657354"><ele>233.4</ele><time>2026-04-25T07:37:03Z</time></trkpt><trkpt lat="43.29849355451028" lon="11.368310100217625"><ele>234.2</ele><time>2026-04-25T07:37:04Z</time></trkpt><trkpt lat="43.29841959766304" lon="11.368383983962826"><ele>235.0</ele><time>2026-04-25T07:37:05Z</time></trkpt><trkpt lat="43.298337118931734" lon="11.368434928908512"><ele>234.99999999999997</ele><time>2026-04-25T07:37:06Z</time></trkpt><trkpt lat="43.298258649480616" lon="11.368474717609319"><ele>235.0</ele><time>2026-04-25T07:37:07Z</time></trkpt><trkpt lat="43.2981758209262" lon="11.368483759429868"><ele>235.0</ele><time>2026-04-25T07:37:08Z</time></trkpt><trkpt lat="43.29809727289734" lon="11.368503912923023"><ele>235.0</ele><time>2026-04-25T07:37:09Z</time></trkpt><trkpt lat="43.29802003048386" lon="11.36853494887705"><ele>234.99999999999997</ele><time>2026-04-25T07:37:10Z</time></trkpt><trkpt lat="43.29793996706972" lon="11.368541679328734"><ele>235.0</ele><time>2026-04-25T07:37:11Z</time></trkpt><trkpt lat="43.29785645950763" lon="11.368496088679315"><ele>235.6</ele><time>2026-04-25T07:37:12Z</time></trkpt><trkpt lat="43.29777638277058" lon="11.36846352258341"><ele>236.2</ele><time>2026-04-25T07:37:13Z</time></trkpt><trkpt lat="43.29768937211565" lon="11.368425339919268"><ele>236.8</ele><time>2026-04-25T07:37:14Z</time></trkpt><trkpt lat="43.297602957578704" lon="11.368381981392908"><ele>237.4</ele><time>2026-04-25T07:37:15Z</time></trkpt><trkpt lat="43.29751679806719" lon="11.368328133978684"><ele>238.0</ele><time>2026-04-25T07:37:16Z</time></trkpt><trkpt lat="43.297422732190434" lon="11.368267102152675"><ele>238.0</ele><time>2026-04-25T07:37:17Z</time></trkpt><trkpt lat="43.29732059578693" lon="11.368209042166988"><ele>238.0</ele><time>2026-04-25T07:37:18Z</time></trkpt><trkpt lat="43.297207815365695" lon="11.36818106575438"><ele>238.0</ele><time>2026-04-25T07:37:19Z</time></trkpt><trkpt lat="43.297109516603946" lon="11.368129653694782"><ele>238.0</ele><time>2026-04-25T07:37:20Z</time></trkpt><trkpt lat="43.29700738530539" lon="11.368098817353308"><ele>238.0</ele><time>2026-04-25T07:37:21Z</time></trkpt><trkpt lat="43.296913458459635" lon="11.368065326048109"><ele>237.4</ele><time>2026-04-25T07:37:22Z</time></trkpt><trkpt lat="43.29681486682006" lon="11.368048659505622"><ele>236.8</ele><time>2026-04-25T07:37:23Z</time></trkpt><trkpt lat="43.296715523389956" lon="11.368018210390913"><ele>236.2</ele><time>2026-04-25T07:37:24Z</time></trkpt><trkpt lat="43.29661301060962" lon="11.368028009088423"><ele>235.6</ele><time>2026-04-25T07:37:25Z</time></trkpt><trkpt lat="43.296515239592885" lon="11.368022324034648"><ele>235.0</ele><time>2026-04-25T07:37:26Z</time></trkpt><trkpt lat="43.29641263659961" lon="11.368038210487217"><ele>237.0</ele><time>2026-04-25T07:37:27Z</time></trkpt><trkpt lat="43.296314365350646" lon="11.3680551171248"><ele>239.0</ele><time>2026-04-25T07:37:28Z</time></trkpt><trkpt lat="43.296214963782184" lon="11.368074481436373"><ele>241.0</ele><time>2026-04-25T07:37:29Z</time></trkpt><trkpt lat="43.29611758896945" lon="11.368089917185856"><ele>243.0</ele><time>2026-04-25T07:37:30Z</time></trkpt><trkpt lat="43.29601962143183" lon="11.368123210657512"><ele>245.0</ele><time>2026-04-25T07:37:31Z</time></trkpt><trkpt lat="43.29591748768356" lon="11.368176560275032"><ele>245.0</ele><time>2026-04-25T07:37:32Z</time></trkpt><trkpt lat="43.295822723906035" lon="11.368240891042365"><ele>245.0</ele><time>2026-04-25T07:37:33Z</time></trkpt><trkpt lat="43.295736460343896" lon="11.368286184947339"><ele>245.0</ele><time>2026-04-25T07:37:34Z</time></trkpt><trkpt lat="43.29565041276082" lon="11.368288321131507"><ele>245.0</ele><time>2026-04-25T07:37:35Z</time></trkpt><trkpt lat="43.29557094858407" lon="11.368320922160505"><ele>245.0</ele><time>2026-04-25T07:37:36Z</time></trkpt><trkpt lat="43.29547282327507" lon="11.368328676451172"><ele>243.6</ele><time>2026-04-25T07:37:37Z</time></trkpt><trkpt lat="43.29536911584438" lon="11.368334361364697"><ele>242.2</ele><time>2026-04-25T07:37:38Z</time></trkpt><trkpt lat="43.29526662231922" lon="11.368371817579213"><ele>240.8</ele><time>2026-04-25T07:37:39Z</time></trkpt><trkpt lat="43.295175265090826" lon="11.368418080754088"><ele>239.4</ele><time>2026-04-25T07:37:40Z</time></trkpt><trkpt lat="43.2950849939863" lon="11.368485722985865"><ele>238.0</ele><time>2026-04-25T07:37:41Z</time></trkpt><trkpt lat="43.294986675649255" lon="11.368579596525064"><ele>238.0</ele><time>2026-04-25T07:37:42Z</time></trkpt><trkpt lat="43.29490414347302" lon="11.368705007249993"><ele>238.0</ele><time>2026-04-25T07:37:43Z</time></trkpt><trkpt lat="43.29483881612338" lon="11.368856581256642"><ele>238.0</ele><time>2026-04-25T07:37:44Z</time></trkpt><trkpt lat="43.294780144017636" lon="11.368993171077024"><ele>238.0</ele><time>2026-04-25T07:37:45Z</time></trkpt><trkpt lat="43.29471127518359" lon="11.369104469289171"><ele>236.0</ele><time>2026-04-25T07:37:46Z</time></trkpt><trkpt lat="43.294614135781984" lon="11.369180200256285"><ele>234.0</ele><time>2026-04-25T07:37:47Z</time></trkpt><trkpt lat="43.29451338743515" lon="11.369275482683758"><ele>232.0</ele><time>2026-04-25T07:37:48Z</time></trkpt><trkpt lat="43.29436255182165" lon="11.369371358520771"><ele>230.0</ele><time>2026-04-25T07:37:49Z</time></trkpt><trkpt lat="43.29421607315369" lon="11.369456456861052"><ele>230.0</ele><time>2026-04-25T07:37:50Z</time></trkpt><trkpt lat="43.2940799424846" lon="11.36954253930109"><ele>230.0</ele><time>2026-04-25T07:37:51.001Z</time></trkpt><trkpt lat="43.29395270623598" lon="11.3696242774539"><ele>230.0</ele><time>2026-04-25T07:37:52.001Z</time></trkpt><trkpt lat="43.293832304332014" lon="11.369699917452131"><ele>230.0</ele><time>2026-04-25T07:37:53.001Z</time></trkpt><trkpt lat="43.29371226792211" lon="11.369777732596273"><ele>228.75</ele><time>2026-04-25T07:37:54.001Z</time></trkpt><trkpt lat="43.293591608284196" lon="11.369850472325222"><ele>227.5</ele><time>2026-04-25T07:37:55.001Z</time></trkpt><trkpt lat="43.29347143811291" lon="11.36991332266138"><ele>226.25</ele><time>2026-04-25T07:37:56.001Z</time></trkpt><trkpt lat="43.29334782814276" lon="11.36996657696824"><ele>225.0</ele><time>2026-04-25T07:37:57.001Z</time></trkpt><trkpt lat="43.29321966234262" lon="11.370001538080395"><ele>224.25</ele><time>2026-04-25T07:37:58.001Z</time></trkpt><trkpt lat="43.29308905049321" lon="11.37003782653433"><ele>223.5</ele><time>2026-04-25T07:37:59.001Z</time></trkpt><trkpt lat="43.29295783529529" lon="11.3700641209839"><ele>222.75</ele><time>2026-04-25T07:38:00.001Z</time></trkpt><trkpt lat="43.292822191792894" lon="11.370077372984186"><ele>222.0</ele><time>2026-04-25T07:38:01.001Z</time></trkpt><trkpt lat="43.29268828247702" lon="11.370071752805066"><ele>222.0</ele><time>2026-04-25T07:38:02.001Z</time></trkpt><trkpt lat="43.29255203532803" lon="11.3700606899854"><ele>222.0</ele><time>2026-04-25T07:38:03.001Z</time></trkpt><trkpt lat="43.292418316318034" lon="11.370055278558292"><ele>222.0</ele><time>2026-04-25T07:38:04.001Z</time></trkpt><trkpt lat="43.29229336642387" lon="11.370049559432942"><ele>222.0</ele><time>2026-04-25T07:38:05.001Z</time></trkpt><trkpt lat="43.292169007047974" lon="11.37005064448143"><ele>222.25</ele><time>2026-04-25T07:38:06.001Z</time></trkpt><trkpt lat="43.2920405203541" lon="11.370055228344127"><ele>222.5</ele><time>2026-04-25T07:38:07.001Z</time></trkpt><trkpt lat="43.291913765946795" lon="11.370074374041646"><ele>222.75</ele><time>2026-04-25T07:38:08.001Z</time></trkpt><trkpt lat="43.29178538136465" lon="11.370098522527298"><ele>223.0</ele><time>2026-04-25T07:38:09.001Z</time></trkpt><trkpt lat="43.29165780989637" lon="11.370139705305643"><ele>223.0</ele><time>2026-04-25T07:38:10.001Z</time></trkpt><trkpt lat="43.291533959145795" lon="11.37019733108764"><ele>223.0</ele><time>2026-04-25T07:38:11.001Z</time></trkpt><trkpt lat="43.29141405527319" lon="11.370271854278238"><ele>223.0</ele><time>2026-04-25T07:38:12.001Z</time></trkpt><trkpt lat="43.29129792533869" lon="11.370360732463867"><ele>223.0</ele><time>2026-04-25T07:38:13.001Z</time></trkpt><trkpt lat="43.29119029761383" lon="11.370444579331593"><ele>223.5</ele><time>2026-04-25T07:38:14.001Z</time></trkpt><trkpt lat="43.291081851833994" lon="11.37051844272072"><ele>224.0</ele><time>2026-04-25T07:38:15.001Z</time></trkpt><trkpt lat="43.29096702343392" lon="11.370578323916824"><ele>224.5</ele><time>2026-04-25T07:38:16.001Z</time></trkpt><trkpt lat="43.29084859751674" lon="11.370622157596653"><ele>225.0</ele><time>2026-04-25T07:38:17.001Z</time></trkpt><trkpt lat="43.29073601038307" lon="11.370655623431793"><ele>225.0</ele><time>2026-04-25T07:38:18.001Z</time></trkpt><trkpt lat="43.290635516027415" lon="11.370703692432862"><ele>225.0</ele><time>2026-04-25T07:38:19.001Z</time></trkpt><trkpt lat="43.29054771434522" lon="11.370771547515838"><ele>225.0</ele><time>2026-04-25T07:38:20.001Z</time></trkpt><trkpt lat="43.29046875952808" lon="11.37086367562757"><ele>225.0</ele><time>2026-04-25T07:38:21.001Z</time></trkpt><trkpt lat="43.290410115418105" lon="11.370975721377622"><ele>225.0</ele><time>2026-04-25T07:38:22.001Z</time></trkpt><trkpt lat="43.29036593006762" lon="11.371094889445724"><ele>225.0</ele><time>2026-04-25T07:38:23.001Z</time></trkpt><trkpt lat="43.29032740324149" lon="11.371218204099504"><ele>225.0</ele><time>2026-04-25T07:38:24.001Z</time></trkpt><trkpt lat="43.29026393870835" lon="11.371303760061082"><ele>225.0</ele><time>2026-04-25T07:38:25.001Z</time></trkpt><trkpt lat="43.290207193474934" lon="11.371400304253802"><ele>225.0</ele><time>2026-04-25T07:38:26.001Z</time></trkpt><trkpt lat="43.29011298536301" lon="11.371440170262453"><ele>225.0</ele><time>2026-04-25T07:38:27.001Z</time></trkpt><trkpt lat="43.290033519298966" lon="11.371502825831852"><ele>225.0</ele><time>2026-04-25T07:38:28.001Z</time></trkpt><trkpt lat="43.2899565335004" lon="11.371541604730316"><ele>225.0</ele><time>2026-04-25T07:38:29.001Z</time></trkpt><trkpt lat="43.28987837573585" lon="11.371636595967917"><ele>225.0</ele><time>2026-04-25T07:38:31.001Z</time></trkpt><trkpt lat="43.28988504888991" lon="11.371792100119217"><ele>225.0</ele><time>2026-04-25T07:38:33.001Z</time></trkpt><trkpt lat="43.289897056542976" lon="11.371928952722486"><ele>225.0</ele><time>2026-04-25T07:38:35.001Z</time></trkpt><trkpt lat="43.28986204497434" lon="11.372054457884266"><ele>225.0</ele><time>2026-04-25T07:38:37.001Z</time></trkpt><trkpt lat="43.28976048411963" lon="11.372159323021611"><ele>225.0</ele><time>2026-04-25T07:38:39.001Z</time></trkpt><trkpt lat="43.28969121786008" lon="11.372172278349193"><ele>225.0</ele><time>2026-04-25T07:38:40.001Z</time></trkpt><trkpt lat="43.289630078614174" lon="11.37220703251252"><ele>225.0</ele><time>2026-04-25T07:38:41.001Z</time></trkpt><trkpt lat="43.2895575448847" lon="11.372246264533375"><ele>225.0</ele><time>2026-04-25T07:38:42.001Z</time></trkpt><trkpt lat="43.28947841029569" lon="11.372289569043758"><ele>225.0</ele><time>2026-04-25T07:38:43.001Z</time></trkpt><trkpt lat="43.289388193527394" lon="11.372344656989782"><ele>223.4</ele><time>2026-04-25T07:38:44.001Z</time></trkpt><trkpt lat="43.28929986815089" lon="11.372395700107742"><ele>221.8</ele><time>2026-04-25T07:38:45.001Z</time></trkpt><trkpt lat="43.28922975508262" lon="11.372431035944581"><ele>220.2</ele><time>2026-04-25T07:38:46.001Z</time></trkpt><trkpt lat="43.28913854406619" lon="11.372506688990903"><ele>218.6</ele><time>2026-04-25T07:38:48.001Z</time></trkpt><trkpt lat="43.28909409535004" lon="11.372654520358955"><ele>217.0</ele><time>2026-04-25T07:38:50.001Z</time></trkpt><trkpt lat="43.28908539288851" lon="11.372775266645435"><ele>217.0</ele><time>2026-04-25T07:38:51.001Z</time></trkpt><trkpt lat="43.28908528178312" lon="11.37292736385987"><ele>217.0</ele><time>2026-04-25T07:38:52Z</time></trkpt><trkpt lat="43.28909213340719" lon="11.373103801287563"><ele>217.0</ele><time>2026-04-25T07:38:53Z</time></trkpt><trkpt lat="43.2890892222759" lon="11.373267774244173"><ele>217.0</ele><time>2026-04-25T07:38:54Z</time></trkpt><trkpt lat="43.28908196320753" lon="11.373445533903977"><ele>215.25</ele><time>2026-04-25T07:38:55Z</time></trkpt><trkpt lat="43.289074250400716" lon="11.37361753816346"><ele>213.5</ele><time>2026-04-25T07:38:56Z</time></trkpt><trkpt lat="43.28907194964382" lon="11.373779933145192"><ele>211.75</ele><time>2026-04-25T07:38:57Z</time></trkpt><trkpt lat="43.28907529048951" lon="11.37393676442583"><ele>210.0</ele><time>2026-04-25T07:38:58Z</time></trkpt><trkpt lat="43.289083807808595" lon="11.374093020451326"><ele>208.0</ele><time>2026-04-25T07:38:59Z</time></trkpt><trkpt lat="43.289090796469495" lon="11.37425662834391"><ele>206.0</ele><time>2026-04-25T07:39:00Z</time></trkpt><trkpt lat="43.28909696306271" lon="11.374419771213198"><ele>204.0</ele><time>2026-04-25T07:39:01Z</time></trkpt><trkpt lat="43.289104625066194" lon="11.374602548290074"><ele>202.0</ele><time>2026-04-25T07:39:02Z</time></trkpt><trkpt lat="43.28910904139925" lon="11.374795198022174"><ele>200.0</ele><time>2026-04-25T07:39:03Z</time></trkpt><trkpt lat="43.2891147332358" lon="11.374977032700329"><ele>198.0</ele><time>2026-04-25T07:39:04Z</time></trkpt><trkpt lat="43.28911852616818" lon="11.375150657167575"><ele>196.0</ele><time>2026-04-25T07:39:05Z</time></trkpt><trkpt lat="43.28912260544944" lon="11.375320117696807"><ele>194.0</ele><time>2026-04-25T07:39:06Z</time></trkpt><trkpt lat="43.28912847685536" lon="11.375482487832745"><ele>192.39999999999998</ele><time>2026-04-25T07:39:07Z</time></trkpt><trkpt lat="43.28913819072519" lon="11.375640097374031"><ele>190.8</ele><time>2026-04-25T07:39:08Z</time></trkpt><trkpt lat="43.28914230725568" lon="11.375790721454655"><ele>189.2</ele><time>2026-04-25T07:39:09Z</time></trkpt><trkpt lat="43.28914259204891" lon="11.375940745943579"><ele>187.60000000000002</ele><time>2026-04-25T07:39:10Z</time></trkpt><trkpt lat="43.28914370697067" lon="11.376093497910356"><ele>186.0</ele><time>2026-04-25T07:39:11Z</time></trkpt><trkpt lat="43.28914914009709" lon="11.376248961174952"><ele>185.25</ele><time>2026-04-25T07:39:12Z</time></trkpt><trkpt lat="43.289155719156284" lon="11.376403247632094"><ele>184.5</ele><time>2026-04-25T07:39:13Z</time></trkpt><trkpt lat="43.289165846797395" lon="11.376561825992873"><ele>183.75</ele><time>2026-04-25T07:39:14Z</time></trkpt><trkpt lat="43.28917711360421" lon="11.376732468310081"><ele>183.0</ele><time>2026-04-25T07:39:15Z</time></trkpt><trkpt lat="43.28918330031359" lon="11.376889269698868"><ele>183.0</ele><time>2026-04-25T07:39:16Z</time></trkpt><trkpt lat="43.289199976916436" lon="11.377044503438361"><ele>183.0</ele><time>2026-04-25T07:39:17Z</time></trkpt><trkpt lat="43.28921087475956" lon="11.377189473350759"><ele>183.0</ele><time>2026-04-25T07:39:18Z</time></trkpt><trkpt lat="43.289223622441504" lon="11.377330595941752"><ele>183.0</ele><time>2026-04-25T07:39:19Z</time></trkpt><trkpt lat="43.289234592526554" lon="11.377468778004895"><ele>183.0</ele><time>2026-04-25T07:39:20Z</time></trkpt><trkpt lat="43.28923364282864" lon="11.377601582153318"><ele>183.0</ele><time>2026-04-25T07:39:21Z</time></trkpt><trkpt lat="43.289224448533446" lon="11.377718116563273"><ele>183.0</ele><time>2026-04-25T07:39:22Z</time></trkpt><trkpt lat="43.28915061558554" lon="11.37782968319531"><ele>183.0</ele><time>2026-04-25T07:39:24Z</time></trkpt><trkpt lat="43.28901945567116" lon="11.377905662437778"><ele>183.0</ele><time>2026-04-25T07:39:26Z</time></trkpt><trkpt lat="43.28895404205672" lon="11.377963858250771"><ele>183.0</ele><time>2026-04-25T07:39:27Z</time></trkpt><trkpt lat="43.288882658891374" lon="11.37799692043871"><ele>185.5</ele><time>2026-04-25T07:39:28Z</time></trkpt><trkpt lat="43.288820277446824" lon="11.378033556741332"><ele>188.0</ele><time>2026-04-25T07:39:29Z</time></trkpt><trkpt lat="43.28875337627409" lon="11.378060940112814"><ele>190.5</ele><time>2026-04-25T07:39:30Z</time></trkpt><trkpt lat="43.2886919731903" lon="11.378115832444385"><ele>193.0</ele><time>2026-04-25T07:39:31Z</time></trkpt><trkpt lat="43.28858767640282" lon="11.378181971960087"><ele>195.5</ele><time>2026-04-25T07:39:33Z</time></trkpt><trkpt lat="43.2884861801102" lon="11.378240470277467"><ele>198.0</ele><time>2026-04-25T07:39:35Z</time></trkpt><trkpt lat="43.28838440856352" lon="11.378302350460327"><ele>198.0</ele><time>2026-04-25T07:39:37Z</time></trkpt><trkpt lat="43.288293264249184" lon="11.378396134139933"><ele>198.0</ele><time>2026-04-25T07:39:39Z</time></trkpt><trkpt lat="43.28819763524856" lon="11.37851815544193"><ele>198.0</ele><time>2026-04-25T07:39:41Z</time></trkpt><trkpt lat="43.28812169086943" lon="11.378644980760303"><ele>198.0</ele><time>2026-04-25T07:39:43Z</time></trkpt><trkpt lat="43.288047526370576" lon="11.378758040444273"><ele>198.4</ele><time>2026-04-25T07:39:45.001Z</time></trkpt><trkpt lat="43.28799050195535" lon="11.378883686714223"><ele>198.8</ele><time>2026-04-25T07:39:47.001Z</time></trkpt><trkpt lat="43.287981251925956" lon="11.379073372322502"><ele>199.2</ele><time>2026-04-25T07:39:49.001Z</time></trkpt><trkpt lat="43.28798795874869" lon="11.379218181972309"><ele>199.6</ele><time>2026-04-25T07:39:50.001Z</time></trkpt><trkpt lat="43.28800066299007" lon="11.37933267924477"><ele>200.0</ele><time>2026-04-25T07:39:51.001Z</time></trkpt><trkpt lat="43.28799777262387" lon="11.379453713619583"><ele>200.0</ele><time>2026-04-25T07:39:53.001Z</time></trkpt><trkpt lat="43.28793551287359" lon="11.379540946331826"><ele>200.0</ele><time>2026-04-25T07:39:56.001Z</time></trkpt><trkpt lat="43.28782419925441" lon="11.37961393152121"><ele>200.0</ele><time>2026-04-25T07:39:58.001Z</time></trkpt><trkpt lat="43.287743480953914" lon="11.379652760193624"><ele>200.0</ele><time>2026-04-25T07:39:59.001Z</time></trkpt><trkpt lat="43.28766151257622" lon="11.379690529582499"><ele>200.0</ele><time>2026-04-25T07:40:00.001Z</time></trkpt><trkpt lat="43.28756886608847" lon="11.379734411583932"><ele>199.5</ele><time>2026-04-25T07:40:01.001Z</time></trkpt><trkpt lat="43.287461716209755" lon="11.379789929656768"><ele>199.0</ele><time>2026-04-25T07:40:02.001Z</time></trkpt><trkpt lat="43.2873526833828" lon="11.37984061216672"><ele>198.5</ele><time>2026-04-25T07:40:03.001Z</time></trkpt><trkpt lat="43.28723647902154" lon="11.379875913492986"><ele>198.0</ele><time>2026-04-25T07:40:04.001Z</time></trkpt><trkpt lat="43.28711314604142" lon="11.379889675333157"><ele>197.25</ele><time>2026-04-25T07:40:05.001Z</time></trkpt><trkpt lat="43.286987879170724" lon="11.379883451898428"><ele>196.5</ele><time>2026-04-25T07:40:06.001Z</time></trkpt><trkpt lat="43.28685916251102" lon="11.379861065007058"><ele>195.75</ele><time>2026-04-25T07:40:07.001Z</time></trkpt><trkpt lat="43.28672812756092" lon="11.379826655144434"><ele>195.0</ele><time>2026-04-25T07:40:08.001Z</time></trkpt><trkpt lat="43.286593448877454" lon="11.37978714503674"><ele>195.0</ele><time>2026-04-25T07:40:09.001Z</time></trkpt><trkpt lat="43.28645610143325" lon="11.379737938375124"><ele>195.0</ele><time>2026-04-25T07:40:10.001Z</time></trkpt><trkpt lat="43.28632325709284" lon="11.379674937298232"><ele>195.0</ele><time>2026-04-25T07:40:11.001Z</time></trkpt><trkpt lat="43.28619209549741" lon="11.379600879378836"><ele>195.0</ele><time>2026-04-25T07:40:12.001Z</time></trkpt><trkpt lat="43.28606363253556" lon="11.379517663867793"><ele>194.75</ele><time>2026-04-25T07:40:13.001Z</time></trkpt><trkpt lat="43.28593732425368" lon="11.379424053075487"><ele>194.5</ele><time>2026-04-25T07:40:14.001Z</time></trkpt><trkpt lat="43.28581488775497" lon="11.379334387793818"><ele>194.25</ele><time>2026-04-25T07:40:15.001Z</time></trkpt><trkpt lat="43.28569261114252" lon="11.379244735033456"><ele>194.0</ele><time>2026-04-25T07:40:16.001Z</time></trkpt><trkpt lat="43.28556818329442" lon="11.379163873450487"><ele>194.0</ele><time>2026-04-25T07:40:17.001Z</time></trkpt><trkpt lat="43.28544377583224" lon="11.379087090273266"><ele>194.0</ele><time>2026-04-25T07:40:18.001Z</time></trkpt><trkpt lat="43.28530609361555" lon="11.37902921287965"><ele>194.0</ele><time>2026-04-25T07:40:19.001Z</time></trkpt><trkpt lat="43.285161342831" lon="11.37899738290672"><ele>194.0</ele><time>2026-04-25T07:40:20.001Z</time></trkpt><trkpt lat="43.285016642614366" lon="11.378978735821805"><ele>194.0</ele><time>2026-04-25T07:40:21.001Z</time></trkpt><trkpt lat="43.28487298672633" lon="11.378969269938326"><ele>194.0</ele><time>2026-04-25T07:40:22.001Z</time></trkpt><trkpt lat="43.284731855326335" lon="11.378962316998157"><ele>194.0</ele><time>2026-04-25T07:40:23.001Z</time></trkpt><trkpt lat="43.28459287186831" lon="11.378947064678796"><ele>194.0</ele><time>2026-04-25T07:40:24.001Z</time></trkpt><trkpt lat="43.2844555935765" lon="11.378924469531839"><ele>193.75</ele><time>2026-04-25T07:40:25.001Z</time></trkpt><trkpt lat="43.28432479053431" lon="11.378890476983191"><ele>193.5</ele><time>2026-04-25T07:40:26.001Z</time></trkpt><trkpt lat="43.28420263772449" lon="11.37883313370642"><ele>193.25</ele><time>2026-04-25T07:40:27.001Z</time></trkpt><trkpt lat="43.28409674529887" lon="11.378736705567656"><ele>193.0</ele><time>2026-04-25T07:40:28.001Z</time></trkpt><trkpt lat="43.28400885060857" lon="11.37860837318654"><ele>191.5</ele><time>2026-04-25T07:40:29.001Z</time></trkpt><trkpt lat="43.28393225718473" lon="11.37845567737623"><ele>190.0</ele><time>2026-04-25T07:40:30.001Z</time></trkpt><trkpt lat="43.283874701194186" lon="11.378298352587928"><ele>188.5</ele><time>2026-04-25T07:40:31.001Z</time></trkpt><trkpt lat="43.283816423979154" lon="11.3781574442798"><ele>187.0</ele><time>2026-04-25T07:40:32.001Z</time></trkpt><trkpt lat="43.28374091208241" lon="11.378038150939975"><ele>185.0</ele><time>2026-04-25T07:40:33.001Z</time></trkpt><trkpt lat="43.283662406828164" lon="11.377922931382345"><ele>183.0</ele><time>2026-04-25T07:40:34.001Z</time></trkpt><trkpt lat="43.28355076886424" lon="11.377870537474598"><ele>181.0</ele><time>2026-04-25T07:40:35.001Z</time></trkpt><trkpt lat="43.283441838612106" lon="11.377812787655333"><ele>179.0</ele><time>2026-04-25T07:40:36.001Z</time></trkpt><trkpt lat="43.2833283639301" lon="11.377774243214079"><ele>179.0</ele><time>2026-04-25T07:40:37.001Z</time></trkpt><trkpt lat="43.28321142887839" lon="11.37776215375605"><ele>179.0</ele><time>2026-04-25T07:40:38.001Z</time></trkpt><trkpt lat="43.28309604741781" lon="11.377773345680795"><ele>179.0</ele><time>2026-04-25T07:40:39.001Z</time></trkpt><trkpt lat="43.28298963760898" lon="11.37780145915347"><ele>179.0</ele><time>2026-04-25T07:40:40.001Z</time></trkpt><trkpt lat="43.28288369900425" lon="11.377838203766814"><ele>178.83333333333331</ele><time>2026-04-25T07:40:41.001Z</time></trkpt><trkpt lat="43.28278608426772" lon="11.377871281413459"><ele>178.66666666666666</ele><time>2026-04-25T07:40:42.001Z</time></trkpt><trkpt lat="43.28270066635549" lon="11.377896273148904"><ele>178.5</ele><time>2026-04-25T07:40:43.001Z</time></trkpt><trkpt lat="43.2826150705807" lon="11.377919013376486"><ele>178.33333333333334</ele><time>2026-04-25T07:40:44.001Z</time></trkpt><trkpt lat="43.28253228781745" lon="11.377931933406078"><ele>178.16666666666669</ele><time>2026-04-25T07:40:45.001Z</time></trkpt><trkpt lat="43.28245219586487" lon="11.37793042508728"><ele>178.0</ele><time>2026-04-25T07:40:46.001Z</time></trkpt><trkpt lat="43.28237174727159" lon="11.377921833374927"><ele>178.0</ele><time>2026-04-25T07:40:47.001Z</time></trkpt><trkpt lat="43.28228867944865" lon="11.377887605432862"><ele>178.0</ele><time>2026-04-25T07:40:48.002Z</time></trkpt><trkpt lat="43.28221222259651" lon="11.37783013387726"><ele>178.0</ele><time>2026-04-25T07:40:49.002Z</time></trkpt><trkpt lat="43.28215593043732" lon="11.377733803747816"><ele>178.0</ele><time>2026-04-25T07:40:50.002Z</time></trkpt><trkpt lat="43.28209482997651" lon="11.377648127879558"><ele>178.0</ele><time>2026-04-25T07:40:51.002Z</time></trkpt><trkpt lat="43.282049149021276" lon="11.377547855880618"><ele>178.0</ele><time>2026-04-25T07:40:52.002Z</time></trkpt><trkpt lat="43.282011259599045" lon="11.377438192198328"><ele>177.83333333333334</ele><time>2026-04-25T07:40:53.002Z</time></trkpt><trkpt lat="43.2819813698959" lon="11.377324678675846"><ele>177.66666666666669</ele><time>2026-04-25T07:40:54.002Z</time></trkpt><trkpt lat="43.28195511690598" lon="11.377216443179691"><ele>177.5</ele><time>2026-04-25T07:40:55.002Z</time></trkpt><trkpt lat="43.28193133046654" lon="11.377118372925842"><ele>177.33333333333334</ele><time>2026-04-25T07:40:56.002Z</time></trkpt><trkpt lat="43.28190906609413" lon="11.377030620689405"><ele>177.16666666666666</ele><time>2026-04-25T07:40:57.002Z</time></trkpt><trkpt lat="43.281888319600135" lon="11.376946929238697"><ele>177.0</ele><time>2026-04-25T07:40:58Z</time></trkpt><trkpt lat="43.28184564494655" lon="11.376795898229975"><ele>177.0</ele><time>2026-04-25T07:41:00Z</time></trkpt><trkpt lat="43.28186478642093" lon="11.37664015602388"><ele>177.0</ele><time>2026-04-25T07:41:02Z</time></trkpt><trkpt lat="43.28190108511111" lon="11.376558666969265"><ele>177.0</ele><time>2026-04-25T07:41:03Z</time></trkpt><trkpt lat="43.28193754066868" lon="11.376468240773384"><ele>177.0</ele><time>2026-04-25T07:41:04Z</time></trkpt><trkpt lat="43.28196000597575" lon="11.376363368377879"><ele>177.0</ele><time>2026-04-25T07:41:05Z</time></trkpt><trkpt lat="43.28196279905471" lon="11.376251377808739"><ele>177.0</ele><time>2026-04-25T07:41:06Z</time></trkpt><trkpt lat="43.28192796898277" lon="11.37613963932997"><ele>177.0</ele><time>2026-04-25T07:41:07Z</time></trkpt><trkpt lat="43.28187007243805" lon="11.37605364047416"><ele>177.0</ele><time>2026-04-25T07:41:08Z</time></trkpt><trkpt lat="43.28180080956178" lon="11.375989966858992"><ele>177.0</ele><time>2026-04-25T07:41:09Z</time></trkpt><trkpt lat="43.28173764666293" lon="11.375942204037296"><ele>177.0</ele><time>2026-04-25T07:41:10Z</time></trkpt><trkpt lat="43.28167808878268" lon="11.375887488872317"><ele>177.0</ele><time>2026-04-25T07:41:11Z</time></trkpt><trkpt lat="43.28162206445756" lon="11.37581143248136"><ele>177.0</ele><time>2026-04-25T07:41:12Z</time></trkpt><trkpt lat="43.28156356859255" lon="11.375741905258622"><ele>177.0</ele><time>2026-04-25T07:41:13Z</time></trkpt><trkpt lat="43.28157403480546" lon="11.375594262853848"><ele>177.0</ele><time>2026-04-25T07:41:14Z</time></trkpt><trkpt lat="43.28155293601962" lon="11.375447725382813"><ele>177.0</ele><time>2026-04-25T07:41:15Z</time></trkpt><trkpt lat="43.28153947507713" lon="11.375274022181186"><ele>177.0</ele><time>2026-04-25T07:41:16Z</time></trkpt><trkpt lat="43.28154004577465" lon="11.375083156502292"><ele>178.66666666666666</ele><time>2026-04-25T07:41:17Z</time></trkpt><trkpt lat="43.28155631960759" lon="11.374874587119308"><ele>180.33333333333331</ele><time>2026-04-25T07:41:18Z</time></trkpt><trkpt lat="43.28159434515239" lon="11.374637544936812"><ele>182.0</ele><time>2026-04-25T07:41:19Z</time></trkpt><trkpt lat="43.28167545787268" lon="11.374400963371103"><ele>184.33333333333331</ele><time>2026-04-25T07:41:20Z</time></trkpt><trkpt lat="43.28178793940143" lon="11.374162818960171"><ele>186.66666666666666</ele><time>2026-04-25T07:41:21Z</time></trkpt><trkpt lat="43.28190175164613" lon="11.373948674688098"><ele>189.0</ele><time>2026-04-25T07:41:22Z</time></trkpt><trkpt lat="43.2819992521734" lon="11.373761468291631"><ele>190.33333333333331</ele><time>2026-04-25T07:41:23Z</time></trkpt><trkpt lat="43.28208538317409" lon="11.37357630907861"><ele>191.66666666666666</ele><time>2026-04-25T07:41:24Z</time></trkpt><trkpt lat="43.28215238425022" lon="11.37339258384627"><ele>193.0</ele><time>2026-04-25T07:41:25Z</time></trkpt><trkpt lat="43.28220124741658" lon="11.373206674103685"><ele>193.5</ele><time>2026-04-25T07:41:26Z</time></trkpt><trkpt lat="43.28223280942353" lon="11.373015311917026"><ele>194.0</ele><time>2026-04-25T07:41:27Z</time></trkpt><trkpt lat="43.28225482283489" lon="11.372823335375157"><ele>194.5</ele><time>2026-04-25T07:41:28Z</time></trkpt><trkpt lat="43.28226766785783" lon="11.372628336250239"><ele>195.0</ele><time>2026-04-25T07:41:29Z</time></trkpt><trkpt lat="43.28229502166998" lon="11.37243612020184"><ele>195.0</ele><time>2026-04-25T07:41:30Z</time></trkpt><trkpt lat="43.28231071947595" lon="11.372243558184833"><ele>195.0</ele><time>2026-04-25T07:41:31Z</time></trkpt><trkpt lat="43.28232648159072" lon="11.372050207320996"><ele>195.0</ele><time>2026-04-25T07:41:32Z</time></trkpt><trkpt lat="43.28232828307742" lon="11.371854844659953"><ele>195.0</ele><time>2026-04-25T07:41:33Z</time></trkpt><trkpt lat="43.282345643947885" lon="11.371660362125438"><ele>196.0</ele><time>2026-04-25T07:41:34Z</time></trkpt><trkpt lat="43.28235892901971" lon="11.371467688803312"><ele>197.0</ele><time>2026-04-25T07:41:35Z</time></trkpt><trkpt lat="43.28239071159172" lon="11.37127735905666"><ele>198.0</ele><time>2026-04-25T07:41:36Z</time></trkpt><trkpt lat="43.28240753272237" lon="11.371086341882583"><ele>199.0</ele><time>2026-04-25T07:41:37Z</time></trkpt><trkpt lat="43.2824288165014" lon="11.370896409574783"><ele>199.5</ele><time>2026-04-25T07:41:38Z</time></trkpt><trkpt lat="43.28245266925053" lon="11.370708662377407"><ele>200.0</ele><time>2026-04-25T07:41:39Z</time></trkpt><trkpt lat="43.282488095867116" lon="11.370522981620644"><ele>200.5</ele><time>2026-04-25T07:41:40Z</time></trkpt><trkpt lat="43.28253375889588" lon="11.370335991936528"><ele>201.0</ele><time>2026-04-25T07:41:41Z</time></trkpt><trkpt lat="43.28257221355285" lon="11.370143066216341"><ele>202.0</ele><time>2026-04-25T07:41:42Z</time></trkpt><trkpt lat="43.28264318104374" lon="11.369961673105177"><ele>203.0</ele><time>2026-04-25T07:41:43Z</time></trkpt><trkpt lat="43.28272294152139" lon="11.369784996307287"><ele>204.0</ele><time>2026-04-25T07:41:44Z</time></trkpt><trkpt lat="43.282804117406634" lon="11.369610530524412"><ele>204.0</ele><time>2026-04-25T07:41:45Z</time></trkpt><trkpt lat="43.282891739827825" lon="11.36943935605749"><ele>204.0</ele><time>2026-04-25T07:41:46Z</time></trkpt><trkpt lat="43.282978876384014" lon="11.36926994334154"><ele>204.0</ele><time>2026-04-25T07:41:47.001Z</time></trkpt><trkpt lat="43.28306530569952" lon="11.369096504465128"><ele>204.75</ele><time>2026-04-25T07:41:48.001Z</time></trkpt><trkpt lat="43.2831507358168" lon="11.36892398077814"><ele>205.5</ele><time>2026-04-25T07:41:49.001Z</time></trkpt><trkpt lat="43.28322892071942" lon="11.368759607362119"><ele>206.25</ele><time>2026-04-25T07:41:50.001Z</time></trkpt><trkpt lat="43.283295671628714" lon="11.368600072435859"><ele>207.0</ele><time>2026-04-25T07:41:51.001Z</time></trkpt><trkpt lat="43.2833500557758" lon="11.368439998023183"><ele>207.25</ele><time>2026-04-25T07:41:52.001Z</time></trkpt><trkpt lat="43.28339405474791" lon="11.36828095050319"><ele>207.5</ele><time>2026-04-25T07:41:53.001Z</time></trkpt><trkpt lat="43.28342683174745" lon="11.368128110132128"><ele>207.75</ele><time>2026-04-25T07:41:54.001Z</time></trkpt><trkpt lat="43.283449492119104" lon="11.367970289464186"><ele>208.0</ele><time>2026-04-25T07:41:55.001Z</time></trkpt><trkpt lat="43.28346377819042" lon="11.367810192006562"><ele>208.0</ele><time>2026-04-25T07:41:56.001Z</time></trkpt><trkpt lat="43.283470178758066" lon="11.367649010977567"><ele>208.0</ele><time>2026-04-25T07:41:57.001Z</time></trkpt><trkpt lat="43.28346389359206" lon="11.367487271961325"><ele>208.0</ele><time>2026-04-25T07:41:58.001Z</time></trkpt><trkpt lat="43.28346737301859" lon="11.367324896032876"><ele>208.0</ele><time>2026-04-25T07:41:59.001Z</time></trkpt><trkpt lat="43.28344318037709" lon="11.367162622524702"><ele>208.75</ele><time>2026-04-25T07:42:00.001Z</time></trkpt><trkpt lat="43.28340716867418" lon="11.367007752785652"><ele>209.5</ele><time>2026-04-25T07:42:01.001Z</time></trkpt><trkpt lat="43.28334723198998" lon="11.366866251771283"><ele>210.25</ele><time>2026-04-25T07:42:02.001Z</time></trkpt><trkpt lat="43.283294368958515" lon="11.366721498481368"><ele>211.0</ele><time>2026-04-25T07:42:03.001Z</time></trkpt><trkpt lat="43.28323474664756" lon="11.366582848607063"><ele>211.0</ele><time>2026-04-25T07:42:04.001Z</time></trkpt><trkpt lat="43.2831702205392" lon="11.366449826548779"><ele>211.0</ele><time>2026-04-25T07:42:05.001Z</time></trkpt><trkpt lat="43.28309958919249" lon="11.366323931093529"><ele>211.0</ele><time>2026-04-25T07:42:06.001Z</time></trkpt><trkpt lat="43.28301917788896" lon="11.366207264276076"><ele>211.0</ele><time>2026-04-25T07:42:07.001Z</time></trkpt><trkpt lat="43.28292892924717" lon="11.366101195713116"><ele>212.0</ele><time>2026-04-25T07:42:08.001Z</time></trkpt><trkpt lat="43.28283876041675" lon="11.365998125266001"><ele>213.0</ele><time>2026-04-25T07:42:09.001Z</time></trkpt><trkpt lat="43.28274545119041" lon="11.365895941829761"><ele>214.0</ele><time>2026-04-25T07:42:10.001Z</time></trkpt><trkpt lat="43.282650084582144" lon="11.36579565423793"><ele>215.0</ele><time>2026-04-25T07:42:11.001Z</time></trkpt><trkpt lat="43.2825639388032" lon="11.365693953653407"><ele>215.0</ele><time>2026-04-25T07:42:12.001Z</time></trkpt><trkpt lat="43.28248706557737" lon="11.365604896537478"><ele>215.0</ele><time>2026-04-25T07:42:13.001Z</time></trkpt><trkpt lat="43.2824166130865" lon="11.365522006614794"><ele>215.0</ele><time>2026-04-25T07:42:14.001Z</time></trkpt><trkpt lat="43.28235143777311" lon="11.365440764963115"><ele>215.0</ele><time>2026-04-25T07:42:15.001Z</time></trkpt><trkpt lat="43.28228824315037" lon="11.365339408823422"><ele>215.0</ele><time>2026-04-25T07:42:16.001Z</time></trkpt><trkpt lat="43.28224166785154" lon="11.365219818360826"><ele>215.0</ele><time>2026-04-25T07:42:17.001Z</time></trkpt><trkpt lat="43.282202423446606" lon="11.365091783836077"><ele>215.0</ele><time>2026-04-25T07:42:18.001Z</time></trkpt><trkpt lat="43.282173047698905" lon="11.364955941008635"><ele>215.0</ele><time>2026-04-25T07:42:19.001Z</time></trkpt><trkpt lat="43.282156998289906" lon="11.364808109497194"><ele>215.0</ele><time>2026-04-25T07:42:20.001Z</time></trkpt><trkpt lat="43.28215633593299" lon="11.364659126401044"><ele>215.0</ele><time>2026-04-25T07:42:21.001Z</time></trkpt><trkpt lat="43.28216667084189" lon="11.364501083378943"><ele>214.0</ele><time>2026-04-25T07:42:22.001Z</time></trkpt><trkpt lat="43.2821858827712" lon="11.364338475856162"><ele>213.0</ele><time>2026-04-25T07:42:23.001Z</time></trkpt><trkpt lat="43.282211229460835" lon="11.364171867662474"><ele>212.0</ele><time>2026-04-25T07:42:24.001Z</time></trkpt><trkpt lat="43.28224901149588" lon="11.364004170075743"><ele>211.0</ele><time>2026-04-25T07:42:25.001Z</time></trkpt><trkpt lat="43.282298275636194" lon="11.363837544174235"><ele>213.25</ele><time>2026-04-25T07:42:26.001Z</time></trkpt><trkpt lat="43.28235977098147" lon="11.363679370430312"><ele>215.5</ele><time>2026-04-25T07:42:27.001Z</time></trkpt><trkpt lat="43.28242607365463" lon="11.363517474075278"><ele>217.75</ele><time>2026-04-25T07:42:28.001Z</time></trkpt><trkpt lat="43.28249051310845" lon="11.363359319711757"><ele>220.0</ele><time>2026-04-25T07:42:29.001Z</time></trkpt><trkpt lat="43.28256130368924" lon="11.363206313260143"><ele>220.0</ele><time>2026-04-25T07:42:30.001Z</time></trkpt><trkpt lat="43.28263848730711" lon="11.363054422676557"><ele>220.0</ele><time>2026-04-25T07:42:31.001Z</time></trkpt><trkpt lat="43.28272075755171" lon="11.362901990175992"><ele>220.0</ele><time>2026-04-25T07:42:32.001Z</time></trkpt><trkpt lat="43.282806688190284" lon="11.362738883296691"><ele>220.0</ele><time>2026-04-25T07:42:33.001Z</time></trkpt><trkpt lat="43.282890217158865" lon="11.362568082697088"><ele>221.5</ele><time>2026-04-25T07:42:34.001Z</time></trkpt><trkpt lat="43.2829732956215" lon="11.362398141782485"><ele>223.0</ele><time>2026-04-25T07:42:35.001Z</time></trkpt><trkpt lat="43.283037540469444" lon="11.362225428345592"><ele>224.5</ele><time>2026-04-25T07:42:36.001Z</time></trkpt><trkpt lat="43.28310202175231" lon="11.362056309498795"><ele>226.0</ele><time>2026-04-25T07:42:37.001Z</time></trkpt><trkpt lat="43.28316282705447" lon="11.361882662086478"><ele>226.0</ele><time>2026-04-25T07:42:38.001Z</time></trkpt><trkpt lat="43.28321767572566" lon="11.361711679168067"><ele>226.0</ele><time>2026-04-25T07:42:39.001Z</time></trkpt><trkpt lat="43.2832646686868" lon="11.361534754878388"><ele>226.0</ele><time>2026-04-25T07:42:40.001Z</time></trkpt><trkpt lat="43.28330470601564" lon="11.36134275380768"><ele>226.0</ele><time>2026-04-25T07:42:41.001Z</time></trkpt><trkpt lat="43.28333954209358" lon="11.361144247040734"><ele>225.0</ele><time>2026-04-25T07:42:42.001Z</time></trkpt><trkpt lat="43.28337715757857" lon="11.360942582689322"><ele>224.0</ele><time>2026-04-25T07:42:43.001Z</time></trkpt><trkpt lat="43.28341836859963" lon="11.360739442563426"><ele>223.0</ele><time>2026-04-25T07:42:44.001Z</time></trkpt><trkpt lat="43.28346538322047" lon="11.360537408941832"><ele>221.0</ele><time>2026-04-25T07:42:45.001Z</time></trkpt><trkpt lat="43.28351577666887" lon="11.360343687293941"><ele>219.0</ele><time>2026-04-25T07:42:46.001Z</time></trkpt><trkpt lat="43.28357271434013" lon="11.360147648784505"><ele>217.0</ele><time>2026-04-25T07:42:47.001Z</time></trkpt><trkpt lat="43.28362954929519" lon="11.359954736835919"><ele>217.0</ele><time>2026-04-25T07:42:48.002Z</time></trkpt><trkpt lat="43.283685148545075" lon="11.359755470132267"><ele>217.0</ele><time>2026-04-25T07:42:49.002Z</time></trkpt><trkpt lat="43.28374373948018" lon="11.359549779294627"><ele>217.0</ele><time>2026-04-25T07:42:50.002Z</time></trkpt><trkpt lat="43.28380241691126" lon="11.359350321160033"><ele>216.33333333333331</ele><time>2026-04-25T07:42:51.002Z</time></trkpt><trkpt lat="43.28386124324841" lon="11.35914697788808"><ele>215.66666666666669</ele><time>2026-04-25T07:42:52.002Z</time></trkpt><trkpt lat="43.28392168974762" lon="11.358947076734419"><ele>215.0</ele><time>2026-04-25T07:42:53.002Z</time></trkpt><trkpt lat="43.283978121492396" lon="11.358748509032358"><ele>219.66666666666669</ele><time>2026-04-25T07:42:54.002Z</time></trkpt><trkpt lat="43.28403281015817" lon="11.358554840461297"><ele>224.33333333333331</ele><time>2026-04-25T07:42:55.002Z</time></trkpt><trkpt lat="43.284084313484584" lon="11.358359851342328"><ele>229.0</ele><time>2026-04-25T07:42:56.002Z</time></trkpt><trkpt lat="43.284130185498086" lon="11.358161928197777"><ele>228.66666666666666</ele><time>2026-04-25T07:42:57.002Z</time></trkpt><trkpt lat="43.28416896386231" lon="11.357962432011606"><ele>228.33333333333331</ele><time>2026-04-25T07:42:58.002Z</time></trkpt><trkpt lat="43.28420575394815" lon="11.357763190121947"><ele>228.0</ele><time>2026-04-25T07:42:59.002Z</time></trkpt><trkpt lat="43.28424409780722" lon="11.357562536149812"><ele>228.0</ele><time>2026-04-25T07:43:00.002Z</time></trkpt><trkpt lat="43.28430346397183" lon="11.357363930807207"><ele>228.0</ele><time>2026-04-25T07:43:01.002Z</time></trkpt><trkpt lat="43.28433500909697" lon="11.357164517896212"><ele>228.0</ele><time>2026-04-25T07:43:02.002Z</time></trkpt><trkpt lat="43.284386813243565" lon="11.356975899114326"><ele>227.75</ele><time>2026-04-25T07:43:03.002Z</time></trkpt><trkpt lat="43.284438335002044" lon="11.35678900267688"><ele>227.5</ele><time>2026-04-25T07:43:04Z</time></trkpt><trkpt lat="43.284493260575914" lon="11.356607096659316"><ele>227.25</ele><time>2026-04-25T07:43:05Z</time></trkpt><trkpt lat="43.284550897960465" lon="11.356432520289447"><ele>227.0</ele><time>2026-04-25T07:43:06Z</time></trkpt><trkpt lat="43.28461189293609" lon="11.356251532488251"><ele>226.75</ele><time>2026-04-25T07:43:07Z</time></trkpt><trkpt lat="43.28467646924096" lon="11.356070094723508"><ele>226.5</ele><time>2026-04-25T07:43:08Z</time></trkpt><trkpt lat="43.2847413284076" lon="11.35589009513982"><ele>226.25</ele><time>2026-04-25T07:43:09Z</time></trkpt><trkpt lat="43.284804250220894" lon="11.355715019193552"><ele>226.0</ele><time>2026-04-25T07:43:10Z</time></trkpt><trkpt lat="43.28486286028562" lon="11.355551470943714"><ele>228.5</ele><time>2026-04-25T07:43:11Z</time></trkpt><trkpt lat="43.284923432662204" lon="11.355386028348718"><ele>231.0</ele><time>2026-04-25T07:43:12Z</time></trkpt><trkpt lat="43.28499568262243" lon="11.355231869645365"><ele>233.5</ele><time>2026-04-25T07:43:13Z</time></trkpt><trkpt lat="43.285052268010055" lon="11.3550622139867"><ele>236.0</ele><time>2026-04-25T07:43:14Z</time></trkpt><trkpt lat="43.28508035309339" lon="11.354896931850728"><ele>236.0</ele><time>2026-04-25T07:43:15Z</time></trkpt><trkpt lat="43.2851007892965" lon="11.354747844715504"><ele>236.00000000000003</ele><time>2026-04-25T07:43:16Z</time></trkpt><trkpt lat="43.28509912706189" lon="11.354600665504444"><ele>236.00000000000003</ele><time>2026-04-25T07:43:17Z</time></trkpt><trkpt lat="43.28506543530544" lon="11.354446832191792"><ele>236.0</ele><time>2026-04-25T07:43:18Z</time></trkpt><trkpt lat="43.28501466181956" lon="11.354306526349333"><ele>236.0</ele><time>2026-04-25T07:43:19Z</time></trkpt><trkpt lat="43.28494171218737" lon="11.354184261387308"><ele>236.0</ele><time>2026-04-25T07:43:20Z</time></trkpt><trkpt lat="43.28485795858297" lon="11.35407233315563"><ele>236.0</ele><time>2026-04-25T07:43:21Z</time></trkpt><trkpt lat="43.284771419399405" lon="11.353965221749203"><ele>236.0</ele><time>2026-04-25T07:43:22Z</time></trkpt><trkpt lat="43.284702966836015" lon="11.35383140278988"><ele>236.0</ele><time>2026-04-25T07:43:23Z</time></trkpt><trkpt lat="43.28463571379806" lon="11.353720691006275"><ele>236.00000000000003</ele><time>2026-04-25T07:43:24Z</time></trkpt><trkpt lat="43.28457714122503" lon="11.35361027075334"><ele>236.0</ele><time>2026-04-25T07:43:25Z</time></trkpt><trkpt lat="43.28452678215754" lon="11.353519266300479"><ele>236.0</ele><time>2026-04-25T07:43:26Z</time></trkpt><trkpt lat="43.284487273912866" lon="11.353447870461208"><ele>236.0</ele><time>2026-04-25T07:43:27Z</time></trkpt><trkpt lat="43.28443637042046" lon="11.353381559891336"><ele>236.00000000000003</ele><time>2026-04-25T07:43:29Z</time></trkpt><trkpt lat="43.28440729892649" lon="11.353303347767074"><ele>236.0</ele><time>2026-04-25T07:43:36Z</time></trkpt><trkpt lat="43.28432359587243" lon="11.353299720924982"><ele>236.0</ele><time>2026-04-25T07:43:37Z</time></trkpt><trkpt lat="43.2842322726482" lon="11.353391907380194"><ele>236.00000000000003</ele><time>2026-04-25T07:43:38Z</time></trkpt><trkpt lat="43.284153003750916" lon="11.353439076924035"><ele>236.00000000000003</ele><time>2026-04-25T07:43:39Z</time></trkpt><trkpt lat="43.2840721101709" lon="11.353485105767152"><ele>236.0</ele><time>2026-04-25T07:43:40Z</time></trkpt><trkpt lat="43.2839838175872" lon="11.353534032633046"><ele>236.0</ele><time>2026-04-25T07:43:41Z</time></trkpt><trkpt lat="43.28389087837927" lon="11.353584547974492"><ele>236.4</ele><time>2026-04-25T07:43:42Z</time></trkpt><trkpt lat="43.28378862561745" lon="11.353622409909086"><ele>236.8</ele><time>2026-04-25T07:43:43Z</time></trkpt><trkpt lat="43.28368469107937" lon="11.353649360179038"><ele>237.20000000000002</ele><time>2026-04-25T07:43:44Z</time></trkpt><trkpt lat="43.28357508872659" lon="11.353671105907889"><ele>237.60000000000002</ele><time>2026-04-25T07:43:45Z</time></trkpt><trkpt lat="43.283458028635266" lon="11.35368147646814"><ele>238.0</ele><time>2026-04-25T07:43:46Z</time></trkpt><trkpt lat="43.28333777894706" lon="11.353681492966075"><ele>238.0</ele><time>2026-04-25T07:43:47Z</time></trkpt><trkpt lat="43.2832069103493" lon="11.353666131538281"><ele>238.0</ele><time>2026-04-25T07:43:48Z</time></trkpt><trkpt lat="43.28307425681287" lon="11.353639469190172"><ele>238.0</ele><time>2026-04-25T07:43:49Z</time></trkpt><trkpt lat="43.28294296478373" lon="11.353615050254392"><ele>238.0</ele><time>2026-04-25T07:43:50Z</time></trkpt><trkpt lat="43.28280846727628" lon="11.353588835953076"><ele>238.0</ele><time>2026-04-25T07:43:51.001Z</time></trkpt><trkpt lat="43.28267102515325" lon="11.353558531127547"><ele>238.0</ele><time>2026-04-25T07:43:52.001Z</time></trkpt><trkpt lat="43.28252705014284" lon="11.353526009189533"><ele>238.0</ele><time>2026-04-25T07:43:53.001Z</time></trkpt><trkpt lat="43.2823893994585" lon="11.353496587017093"><ele>238.0</ele><time>2026-04-25T07:43:54.001Z</time></trkpt><trkpt lat="43.28225115212603" lon="11.353464721829548"><ele>238.0</ele><time>2026-04-25T07:43:55.001Z</time></trkpt><trkpt lat="43.282110616608755" lon="11.353432803971168"><ele>238.0</ele><time>2026-04-25T07:43:56.001Z</time></trkpt><trkpt lat="43.28196435677413" lon="11.353402609388903"><ele>238.0</ele><time>2026-04-25T07:43:57.001Z</time></trkpt><trkpt lat="43.28181571942227" lon="11.353368972748338"><ele>238.0</ele><time>2026-04-25T07:43:58.001Z</time></trkpt><trkpt lat="43.28166581950655" lon="11.353335413220012"><ele>238.0</ele><time>2026-04-25T07:43:59.001Z</time></trkpt><trkpt lat="43.28152132717504" lon="11.35330314913866"><ele>238.0</ele><time>2026-04-25T07:44:00.001Z</time></trkpt><trkpt lat="43.28138964124359" lon="11.353268416413403"><ele>238.0</ele><time>2026-04-25T07:44:01.001Z</time></trkpt><trkpt lat="43.281254680340936" lon="11.353235262700782"><ele>238.0</ele><time>2026-04-25T07:44:02.001Z</time></trkpt><trkpt lat="43.28112137275589" lon="11.353194432885427"><ele>238.0</ele><time>2026-04-25T07:44:03.001Z</time></trkpt><trkpt lat="43.2809860102181" lon="11.353146693410938"><ele>238.0</ele><time>2026-04-25T07:44:04.001Z</time></trkpt><trkpt lat="43.28085366434986" lon="11.35309701625678"><ele>238.0</ele><time>2026-04-25T07:44:05.001Z</time></trkpt><trkpt lat="43.28071935574526" lon="11.353049677767318"><ele>238.0</ele><time>2026-04-25T07:44:06.001Z</time></trkpt><trkpt lat="43.280583950355336" lon="11.353004749547075"><ele>236.0</ele><time>2026-04-25T07:44:07.001Z</time></trkpt><trkpt lat="43.28044719967736" lon="11.35295858975167"><ele>234.0</ele><time>2026-04-25T07:44:08.001Z</time></trkpt><trkpt lat="43.280312084356474" lon="11.352910088086924"><ele>232.0</ele><time>2026-04-25T07:44:09.001Z</time></trkpt><trkpt lat="43.280175726314965" lon="11.352862520996936"><ele>230.0</ele><time>2026-04-25T07:44:10.001Z</time></trkpt><trkpt lat="43.280034532885054" lon="11.352817587357103"><ele>230.0</ele><time>2026-04-25T07:44:11.001Z</time></trkpt><trkpt lat="43.27989378147828" lon="11.352776243360706"><ele>230.0</ele><time>2026-04-25T07:44:12.001Z</time></trkpt><trkpt lat="43.279749814067216" lon="11.352735839789124"><ele>230.0</ele><time>2026-04-25T07:44:13.001Z</time></trkpt><trkpt lat="43.27960270049076" lon="11.352700680236723"><ele>230.0</ele><time>2026-04-25T07:44:14.001Z</time></trkpt><trkpt lat="43.27945559476593" lon="11.352673611963318"><ele>229.25</ele><time>2026-04-25T07:44:15.001Z</time></trkpt><trkpt lat="43.27930700711885" lon="11.352651500001487"><ele>228.5</ele><time>2026-04-25T07:44:16.001Z</time></trkpt><trkpt lat="43.27915834103386" lon="11.352634052456516"><ele>227.75</ele><time>2026-04-25T07:44:17.001Z</time></trkpt><trkpt lat="43.27900769016197" lon="11.352628539637635"><ele>227.0</ele><time>2026-04-25T07:44:18.001Z</time></trkpt><trkpt lat="43.27885375285857" lon="11.352643983954708"><ele>227.0</ele><time>2026-04-25T07:44:19.001Z</time></trkpt><trkpt lat="43.278700857976744" lon="11.352678790194322"><ele>227.0</ele><time>2026-04-25T07:44:20.001Z</time></trkpt><trkpt lat="43.27855798972415" lon="11.35275158785725"><ele>227.0</ele><time>2026-04-25T07:44:21.001Z</time></trkpt><trkpt lat="43.27841808446842" lon="11.352834957369932"><ele>227.0</ele><time>2026-04-25T07:44:22.001Z</time></trkpt><trkpt lat="43.278278520178205" lon="11.352923390916656"><ele>227.0</ele><time>2026-04-25T07:44:23.001Z</time></trkpt><trkpt lat="43.278139358903395" lon="11.353009343428319"><ele>227.0</ele><time>2026-04-25T07:44:24.001Z</time></trkpt><trkpt lat="43.27799623609953" lon="11.353095105119225"><ele>228.33333333333334</ele><time>2026-04-25T07:44:25.001Z</time></trkpt><trkpt lat="43.277852346055234" lon="11.35318582732492"><ele>229.66666666666669</ele><time>2026-04-25T07:44:26.001Z</time></trkpt><trkpt lat="43.2777056478222" lon="11.353273529187051"><ele>231.0</ele><time>2026-04-25T07:44:27.001Z</time></trkpt><trkpt lat="43.27756015491814" lon="11.353360185139467"><ele>231.0</ele><time>2026-04-25T07:44:28.001Z</time></trkpt><trkpt lat="43.27741629000322" lon="11.353447932234438"><ele>231.0</ele><time>2026-04-25T07:44:29.001Z</time></trkpt><trkpt lat="43.27726934916979" lon="11.353529524317143"><ele>231.0</ele><time>2026-04-25T07:44:30.001Z</time></trkpt><trkpt lat="43.27711835599117" lon="11.353601139060183"><ele>231.33333333333331</ele><time>2026-04-25T07:44:31.001Z</time></trkpt><trkpt lat="43.276963939558044" lon="11.353655529054729"><ele>231.66666666666666</ele><time>2026-04-25T07:44:32.001Z</time></trkpt><trkpt lat="43.276807688600634" lon="11.353690405670836"><ele>232.0</ele><time>2026-04-25T07:44:33.001Z</time></trkpt><trkpt lat="43.276652707031225" lon="11.35372185946842"><ele>232.0</ele><time>2026-04-25T07:44:34.001Z</time></trkpt><trkpt lat="43.27649547713759" lon="11.353752648178196"><ele>232.0</ele><time>2026-04-25T07:44:35.001Z</time></trkpt><trkpt lat="43.27633399630658" lon="11.353782354279906"><ele>232.0</ele><time>2026-04-25T07:44:36.001Z</time></trkpt><trkpt lat="43.27617172599983" lon="11.353812358600354"><ele>230.33333333333331</ele><time>2026-04-25T07:44:37.001Z</time></trkpt><trkpt lat="43.276009821081814" lon="11.353843934152932"><ele>228.66666666666669</ele><time>2026-04-25T07:44:38.001Z</time></trkpt><trkpt lat="43.27584198469671" lon="11.353878958013416"><ele>227.0</ele><time>2026-04-25T07:44:39.001Z</time></trkpt><trkpt lat="43.27567590349406" lon="11.353911550372082"><ele>225.33333333333334</ele><time>2026-04-25T07:44:40.001Z</time></trkpt><trkpt lat="43.27551156131935" lon="11.353946805224469"><ele>223.66666666666669</ele><time>2026-04-25T07:44:41.001Z</time></trkpt><trkpt lat="43.27534865006926" lon="11.353975193740293"><ele>222.0</ele><time>2026-04-25T07:44:42.001Z</time></trkpt><trkpt lat="43.27519045172198" lon="11.354006419325945"><ele>222.0</ele><time>2026-04-25T07:44:43.001Z</time></trkpt><trkpt lat="43.27503466603321" lon="11.354040003481732"><ele>222.0</ele><time>2026-04-25T07:44:44.001Z</time></trkpt><trkpt lat="43.274882686681984" lon="11.354077976960872"><ele>222.0</ele><time>2026-04-25T07:44:45.001Z</time></trkpt><trkpt lat="43.27473412019373" lon="11.354133871436769"><ele>223.0</ele><time>2026-04-25T07:44:46.001Z</time></trkpt><trkpt lat="43.27459204550054" lon="11.354217709492168"><ele>224.0</ele><time>2026-04-25T07:44:47.001Z</time></trkpt><trkpt lat="43.274464166562886" lon="11.35433356606442"><ele>225.0</ele><time>2026-04-25T07:44:48.001Z</time></trkpt><trkpt lat="43.274353814815484" lon="11.354485860375503"><ele>225.0</ele><time>2026-04-25T07:44:49.001Z</time></trkpt><trkpt lat="43.27424736600368" lon="11.35463876146712"><ele>225.0</ele><time>2026-04-25T07:44:50.002Z</time></trkpt><trkpt lat="43.27414243332491" lon="11.35479508809733"><ele>225.0</ele><time>2026-04-25T07:44:51.002Z</time></trkpt><trkpt lat="43.274035857703545" lon="11.354950338935193"><ele>222.33333333333331</ele><time>2026-04-25T07:44:52.002Z</time></trkpt><trkpt lat="43.27392341205961" lon="11.355100134427216"><ele>219.66666666666666</ele><time>2026-04-25T07:44:53.002Z</time></trkpt><trkpt lat="43.273805360912796" lon="11.355241947150652"><ele>217.0</ele><time>2026-04-25T07:44:54.002Z</time></trkpt><trkpt lat="43.27368240437793" lon="11.35537824264384"><ele>217.0</ele><time>2026-04-25T07:44:55.002Z</time></trkpt><trkpt lat="43.27355697666883" lon="11.355510607626032"><ele>217.0</ele><time>2026-04-25T07:44:56.002Z</time></trkpt><trkpt lat="43.27343364084281" lon="11.355646665434865"><ele>217.0</ele><time>2026-04-25T07:44:57.002Z</time></trkpt><trkpt lat="43.27331242778778" lon="11.355785512507488"><ele>217.33333333333331</ele><time>2026-04-25T07:44:58.002Z</time></trkpt><trkpt lat="43.27318961500217" lon="11.355920672848871"><ele>217.66666666666669</ele><time>2026-04-25T07:44:59.002Z</time></trkpt><trkpt lat="43.27306965386178" lon="11.35605074886877"><ele>218.0</ele><time>2026-04-25T07:45:00.002Z</time></trkpt><trkpt lat="43.272950099214974" lon="11.35618246120738"><ele>218.0</ele><time>2026-04-25T07:45:01.002Z</time></trkpt><trkpt lat="43.272833236078554" lon="11.356316945526736"><ele>218.0</ele><time>2026-04-25T07:45:02.002Z</time></trkpt><trkpt lat="43.27272154017696" lon="11.356448380117198"><ele>218.0</ele><time>2026-04-25T07:45:03.002Z</time></trkpt><trkpt lat="43.272613247419706" lon="11.356572717126673"><ele>218.0</ele><time>2026-04-25T07:45:04.002Z</time></trkpt><trkpt lat="43.27250764482508" lon="11.356692052532631"><ele>219.25</ele><time>2026-04-25T07:45:05.002Z</time></trkpt><trkpt lat="43.27240336668016" lon="11.356811191607527"><ele>220.5</ele><time>2026-04-25T07:45:06.002Z</time></trkpt><trkpt lat="43.27230796108451" lon="11.356917040877695"><ele>221.75</ele><time>2026-04-25T07:45:07.002Z</time></trkpt><trkpt lat="43.272214665129354" lon="11.35700979385085"><ele>223.0</ele><time>2026-04-25T07:45:08.002Z</time></trkpt><trkpt lat="43.27212953319911" lon="11.357095588264292"><ele>222.99999999999997</ele><time>2026-04-25T07:45:09.002Z</time></trkpt><trkpt lat="43.272055061689045" lon="11.357177808082955"><ele>223.0</ele><time>2026-04-25T07:45:10Z</time></trkpt><trkpt lat="43.27199385687252" lon="11.357266856045626"><ele>223.0</ele><time>2026-04-25T07:45:11Z</time></trkpt><trkpt lat="43.27193475159101" lon="11.357336130403358"><ele>223.0</ele><time>2026-04-25T07:45:12Z</time></trkpt><trkpt lat="43.27187985625693" lon="11.357381614992546"><ele>222.99999999999997</ele><time>2026-04-25T07:45:13Z</time></trkpt><trkpt lat="43.27178255921626" lon="11.35739245903662"><ele>223.0</ele><time>2026-04-25T07:45:15Z</time></trkpt><trkpt lat="43.27170857630789" lon="11.357333461285787"><ele>222.99999999999997</ele><time>2026-04-25T07:45:17Z</time></trkpt><trkpt lat="43.27165452415365" lon="11.357247358616206"><ele>223.0</ele><time>2026-04-25T07:45:19Z</time></trkpt><trkpt lat="43.2715810799337" lon="11.357167026969716"><ele>223.0</ele><time>2026-04-25T07:45:21Z</time></trkpt><trkpt lat="43.271510997493316" lon="11.357089075988636"><ele>223.0</ele><time>2026-04-25T07:45:23Z</time></trkpt><trkpt lat="43.27145001474299" lon="11.357021246371087"><ele>222.99999999999997</ele><time>2026-04-25T07:45:25Z</time></trkpt><trkpt lat="43.27138854858976" lon="11.356952879077022"><ele>223.0</ele><time>2026-04-25T07:45:27Z</time></trkpt><trkpt lat="43.27132733424525" lon="11.356884791859635"><ele>222.83333333333331</ele><time>2026-04-25T07:45:29Z</time></trkpt><trkpt lat="43.27125675164279" lon="11.356807491229445"><ele>222.66666666666666</ele><time>2026-04-25T07:45:31Z</time></trkpt><trkpt lat="43.2711839713018" lon="11.35672986368783"><ele>222.5</ele><time>2026-04-25T07:45:33Z</time></trkpt><trkpt lat="43.271101281062286" lon="11.356645578562569"><ele>222.33333333333331</ele><time>2026-04-25T07:45:35Z</time></trkpt><trkpt lat="43.27105030890727" lon="11.356593673353752"><ele>222.16666666666666</ele><time>2026-04-25T07:45:36Z</time></trkpt><trkpt lat="43.27098285222713" lon="11.3565248188022"><ele>222.0</ele><time>2026-04-25T07:45:37Z</time></trkpt><trkpt lat="43.27091911308001" lon="11.35645971224134"><ele>222.0</ele><time>2026-04-25T07:45:38Z</time></trkpt><trkpt lat="43.270851679158454" lon="11.356390071463556"><ele>222.0</ele><time>2026-04-25T07:45:39Z</time></trkpt><trkpt lat="43.27077915834236" lon="11.356314564428128"><ele>222.0</ele><time>2026-04-25T07:45:40Z</time></trkpt><trkpt lat="43.270704523838816" lon="11.35623547192666"><ele>222.0</ele><time>2026-04-25T07:45:41Z</time></trkpt><trkpt lat="43.270621426094145" lon="11.356149997152459"><ele>222.0</ele><time>2026-04-25T07:45:42Z</time></trkpt><trkpt lat="43.270534959218566" lon="11.356092254089708"><ele>220.0</ele><time>2026-04-25T07:45:43Z</time></trkpt><trkpt lat="43.27046654484776" lon="11.35602095369014"><ele>218.0</ele><time>2026-04-25T07:45:44Z</time></trkpt><trkpt lat="43.270401392088324" lon="11.355965196812491"><ele>216.0</ele><time>2026-04-25T07:45:45Z</time></trkpt><trkpt lat="43.270338894584235" lon="11.355927796578095"><ele>214.0</ele><time>2026-04-25T07:45:46Z</time></trkpt><trkpt lat="43.27027129171569" lon="11.355908190672624"><ele>212.0</ele><time>2026-04-25T07:45:47Z</time></trkpt><trkpt lat="43.2701928912252" lon="11.355876814912122"><ele>210.0</ele><time>2026-04-25T07:45:48Z</time></trkpt><trkpt lat="43.27007786499578" lon="11.355877076043976"><ele>210.0</ele><time>2026-04-25T07:45:49Z</time></trkpt><trkpt lat="43.26996450689471" lon="11.355910526616816"><ele>210.0</ele><time>2026-04-25T07:45:50Z</time></trkpt><trkpt lat="43.26986345136266" lon="11.355924842135197"><ele>210.0</ele><time>2026-04-25T07:45:51Z</time></trkpt><trkpt lat="43.269770077164345" lon="11.355946970265878"><ele>210.0</ele><time>2026-04-25T07:45:52Z</time></trkpt><trkpt lat="43.26968924702541" lon="11.355984215240122"><ele>210.0</ele><time>2026-04-25T07:45:53Z</time></trkpt><trkpt lat="43.269606515396575" lon="11.356005284316238"><ele>208.85714285714286</ele><time>2026-04-25T07:45:54Z</time></trkpt><trkpt lat="43.269543223951835" lon="11.356072427479107"><ele>207.71428571428572</ele><time>2026-04-25T07:45:55Z</time></trkpt><trkpt lat="43.269481206837696" lon="11.356122300794304"><ele>206.57142857142856</ele><time>2026-04-25T07:45:56.001Z</time></trkpt><trkpt lat="43.269426572729124" lon="11.356176264547953"><ele>205.42857142857144</ele><time>2026-04-25T07:45:57.001Z</time></trkpt><trkpt lat="43.26936720559859" lon="11.356212275346044"><ele>204.28571428571428</ele><time>2026-04-25T07:45:58.001Z</time></trkpt><trkpt lat="43.26931874088619" lon="11.356268348105091"><ele>203.14285714285714</ele><time>2026-04-25T07:45:59.001Z</time></trkpt><trkpt lat="43.26928290832042" lon="11.356345010248031"><ele>202.0</ele><time>2026-04-25T07:46:00.001Z</time></trkpt><trkpt lat="43.26922839616247" lon="11.356389141666074"><ele>201.99999999999997</ele><time>2026-04-25T07:46:01.001Z</time></trkpt><trkpt lat="43.26918448979943" lon="11.35645164008085"><ele>202.0</ele><time>2026-04-25T07:46:02.001Z</time></trkpt><trkpt lat="43.269112381577706" lon="11.356582872395089"><ele>202.0</ele><time>2026-04-25T07:46:04.001Z</time></trkpt><trkpt lat="43.26905131245011" lon="11.356726772910212"><ele>202.0</ele><time>2026-04-25T07:46:06.001Z</time></trkpt><trkpt lat="43.269021694119346" lon="11.356803328241334"><ele>201.99999999999997</ele><time>2026-04-25T07:46:07.001Z</time></trkpt><trkpt lat="43.268994855688334" lon="11.356883673089808"><ele>202.0</ele><time>2026-04-25T07:46:08.001Z</time></trkpt><trkpt lat="43.26897031045759" lon="11.356971560390537"><ele>201.99999999999997</ele><time>2026-04-25T07:46:09.001Z</time></trkpt><trkpt lat="43.268967267961656" lon="11.357065856099988"><ele>202.0</ele><time>2026-04-25T07:46:10.001Z</time></trkpt><trkpt lat="43.26895067315152" lon="11.35715850827191"><ele>202.0</ele><time>2026-04-25T07:46:11.001Z</time></trkpt><trkpt lat="43.2689383396455" lon="11.357261681303735"><ele>202.0</ele><time>2026-04-25T07:46:12.001Z</time></trkpt><trkpt lat="43.26893309984215" lon="11.35737762788223"><ele>201.99999999999997</ele><time>2026-04-25T07:46:13.001Z</time></trkpt><trkpt lat="43.26892854611881" lon="11.357509955939584"><ele>202.0</ele><time>2026-04-25T07:46:14.001Z</time></trkpt><trkpt lat="43.26892529691848" lon="11.357678077718758"><ele>198.75</ele><time>2026-04-25T07:46:15.001Z</time></trkpt><trkpt lat="43.26892364574309" lon="11.357881872118217"><ele>195.5</ele><time>2026-04-25T07:46:16.001Z</time></trkpt><trkpt lat="43.26891534466583" lon="11.358091711513016"><ele>192.25</ele><time>2026-04-25T07:46:17.001Z</time></trkpt><trkpt lat="43.26890693008531" lon="11.358265684829261"><ele>189.0</ele><time>2026-04-25T07:46:18.001Z</time></trkpt><trkpt lat="43.268889166279905" lon="11.358418563171561"><ele>189.0</ele><time>2026-04-25T07:46:19.001Z</time></trkpt><trkpt lat="43.26885644989671" lon="11.35857573321233"><ele>189.0</ele><time>2026-04-25T07:46:20.001Z</time></trkpt><trkpt lat="43.26880901229648" lon="11.35872022574899"><ele>189.0</ele><time>2026-04-25T07:46:21.001Z</time></trkpt><trkpt lat="43.268752240688315" lon="11.358857874786382"><ele>189.0</ele><time>2026-04-25T07:46:22.001Z</time></trkpt><trkpt lat="43.26868542163464" lon="11.358980616208784"><ele>189.25</ele><time>2026-04-25T07:46:23.001Z</time></trkpt><trkpt lat="43.26860459232005" lon="11.359095763580177"><ele>189.5</ele><time>2026-04-25T07:46:24.001Z</time></trkpt><trkpt lat="43.26850113522041" lon="11.359177075397719"><ele>189.75</ele><time>2026-04-25T07:46:25.001Z</time></trkpt><trkpt lat="43.268400138866205" lon="11.359258057239762"><ele>190.0</ele><time>2026-04-25T07:46:26.001Z</time></trkpt><trkpt lat="43.26828269561926" lon="11.359316813797632"><ele>190.0</ele><time>2026-04-25T07:46:27.001Z</time></trkpt><trkpt lat="43.26817163657343" lon="11.359387045032177"><ele>190.0</ele><time>2026-04-25T07:46:28.001Z</time></trkpt><trkpt lat="43.268059042761216" lon="11.359411092107168"><ele>190.0</ele><time>2026-04-25T07:46:29.001Z</time></trkpt><trkpt lat="43.267948016390946" lon="11.359385672126633"><ele>190.0</ele><time>2026-04-25T07:46:30.001Z</time></trkpt><trkpt lat="43.26781915171784" lon="11.359359365462225"><ele>188.66666666666669</ele><time>2026-04-25T07:46:31.001Z</time></trkpt><trkpt lat="43.26767481947882" lon="11.359313655776159"><ele>187.33333333333334</ele><time>2026-04-25T07:46:32.001Z</time></trkpt><trkpt lat="43.26749833487326" lon="11.359247948782176"><ele>186.0</ele><time>2026-04-25T07:46:33.001Z</time></trkpt><trkpt lat="43.2673291394992" lon="11.359175440261017"><ele>185.66666666666666</ele><time>2026-04-25T07:46:34.001Z</time></trkpt><trkpt lat="43.26717883795373" lon="11.359108403186376"><ele>185.33333333333331</ele><time>2026-04-25T07:46:35.001Z</time></trkpt><trkpt lat="43.26702454679297" lon="11.359044521005936"><ele>185.0</ele><time>2026-04-25T07:46:36.001Z</time></trkpt><trkpt lat="43.26689488214507" lon="11.358991769954851"><ele>185.0</ele><time>2026-04-25T07:46:37.001Z</time></trkpt><trkpt lat="43.26678060493623" lon="11.358945278922384"><ele>185.0</ele><time>2026-04-25T07:46:38.001Z</time></trkpt><trkpt lat="43.26668225162849" lon="11.358905362126588"><ele>185.0</ele><time>2026-04-25T07:46:39.001Z</time></trkpt><trkpt lat="43.26660015869893" lon="11.358872073187255"><ele>185.0</ele><time>2026-04-25T07:46:40.001Z</time></trkpt><trkpt lat="43.266528891390784" lon="11.358843174073337"><ele>185.0</ele><time>2026-04-25T07:46:41.001Z</time></trkpt><trkpt lat="43.26641754631237" lon="11.358793843438205"><ele>185.0</ele><time>2026-04-25T07:46:43.001Z</time></trkpt><trkpt lat="43.266303252196096" lon="11.358742742582072"><ele>185.0</ele><time>2026-04-25T07:46:45.001Z</time></trkpt><trkpt lat="43.26622780086245" lon="11.358731881330076"><ele>185.0</ele><time>2026-04-25T07:46:46.001Z</time></trkpt><trkpt lat="43.26612684301591" lon="11.358686283643333"><ele>185.0</ele><time>2026-04-25T07:46:47.001Z</time></trkpt><trkpt lat="43.26598827588026" lon="11.35862609742517"><ele>185.0</ele><time>2026-04-25T07:46:48.001Z</time></trkpt><trkpt lat="43.265817284083326" lon="11.358529424035577"><ele>185.0</ele><time>2026-04-25T07:46:49.001Z</time></trkpt><trkpt lat="43.265616460173675" lon="11.358441938122738"><ele>185.0</ele><time>2026-04-25T07:46:50.001Z</time></trkpt><trkpt lat="43.26544662647065" lon="11.35836976653751"><ele>185.0</ele><time>2026-04-25T07:46:51.001Z</time></trkpt><trkpt lat="43.26528623410542" lon="11.358302978435624"><ele>184.8</ele><time>2026-04-25T07:46:52.001Z</time></trkpt><trkpt lat="43.265174171358765" lon="11.358256315010369"><ele>184.6</ele><time>2026-04-25T07:46:53.002Z</time></trkpt><trkpt lat="43.26507615086047" lon="11.3582154988543"><ele>184.39999999999998</ele><time>2026-04-25T07:46:54.002Z</time></trkpt><trkpt lat="43.264986278248344" lon="11.358207285801615"><ele>184.2</ele><time>2026-04-25T07:46:55.002Z</time></trkpt><trkpt lat="43.264894514626704" lon="11.35819049519871"><ele>184.0</ele><time>2026-04-25T07:46:56.002Z</time></trkpt><trkpt lat="43.26480809510054" lon="11.358201353257936"><ele>184.6</ele><time>2026-04-25T07:46:57.002Z</time></trkpt><trkpt lat="43.26471419427073" lon="11.35823954473979"><ele>185.2</ele><time>2026-04-25T07:46:58.002Z</time></trkpt><trkpt lat="43.264628229786666" lon="11.358307205636407"><ele>185.79999999999998</ele><time>2026-04-25T07:46:59.002Z</time></trkpt><trkpt lat="43.26454928587832" lon="11.358405976464654"><ele>186.39999999999998</ele><time>2026-04-25T07:47:00.002Z</time></trkpt><trkpt lat="43.264474018559" lon="11.358542814591818"><ele>187.0</ele><time>2026-04-25T07:47:01.002Z</time></trkpt><trkpt lat="43.264389252628696" lon="11.358718411390605"><ele>186.25</ele><time>2026-04-25T07:47:02.002Z</time></trkpt><trkpt lat="43.2643116220661" lon="11.358868384810465"><ele>185.5</ele><time>2026-04-25T07:47:03.002Z</time></trkpt><trkpt lat="43.264235876264486" lon="11.358990837010618"><ele>184.75</ele><time>2026-04-25T07:47:04.002Z</time></trkpt><trkpt lat="43.26414999296469" lon="11.35910198146665"><ele>184.0</ele><time>2026-04-25T07:47:05.002Z</time></trkpt><trkpt lat="43.26406111737849" lon="11.359206289581044"><ele>184.0</ele><time>2026-04-25T07:47:06.002Z</time></trkpt><trkpt lat="43.26396710957346" lon="11.359292281822247"><ele>184.0</ele><time>2026-04-25T07:47:07.002Z</time></trkpt><trkpt lat="43.263864557581485" lon="11.359365314057571"><ele>184.0</ele><time>2026-04-25T07:47:08.002Z</time></trkpt><trkpt lat="43.263768035332205" lon="11.359427256940439"><ele>184.0</ele><time>2026-04-25T07:47:09.002Z</time></trkpt><trkpt lat="43.263674490402934" lon="11.359483175298445"><ele>184.0</ele><time>2026-04-25T07:47:10.002Z</time></trkpt><trkpt lat="43.263577352257464" lon="11.359549010243748"><ele>183.79999999999998</ele><time>2026-04-25T07:47:11.002Z</time></trkpt><trkpt lat="43.26348262893482" lon="11.359620493635068"><ele>183.6</ele><time>2026-04-25T07:47:12.002Z</time></trkpt><trkpt lat="43.26339087280119" lon="11.359696608812905"><ele>183.4</ele><time>2026-04-25T07:47:13.002Z</time></trkpt><trkpt lat="43.26330105445702" lon="11.359780819492018"><ele>183.2</ele><time>2026-04-25T07:47:14.002Z</time></trkpt><trkpt lat="43.26320546363947" lon="11.359885590911658"><ele>183.0</ele><time>2026-04-25T07:47:15.002Z</time></trkpt><trkpt lat="43.26307783445866" lon="11.360030876948533"><ele>184.0</ele><time>2026-04-25T07:47:16Z</time></trkpt><trkpt lat="43.26293039357621" lon="11.360196713368461"><ele>185.0</ele><time>2026-04-25T07:47:17Z</time></trkpt><trkpt lat="43.262782770887" lon="11.360356515499129"><ele>186.0</ele><time>2026-04-25T07:47:18Z</time></trkpt><trkpt lat="43.262659338767435" lon="11.360501051809557"><ele>185.25</ele><time>2026-04-25T07:47:19Z</time></trkpt><trkpt lat="43.262551518515494" lon="11.360634621137038"><ele>184.5</ele><time>2026-04-25T07:47:20Z</time></trkpt><trkpt lat="43.26244439756944" lon="11.36076307289452"><ele>183.75</ele><time>2026-04-25T07:47:21Z</time></trkpt><trkpt lat="43.26233629508609" lon="11.360897791919193"><ele>183.0</ele><time>2026-04-25T07:47:22Z</time></trkpt><trkpt lat="43.262233890996036" lon="11.361034745773354"><ele>182.75</ele><time>2026-04-25T07:47:23Z</time></trkpt><trkpt lat="43.262141390918515" lon="11.361149328183284"><ele>182.5</ele><time>2026-04-25T07:47:24Z</time></trkpt><trkpt lat="43.26204142048579" lon="11.361266755720868"><ele>182.25</ele><time>2026-04-25T07:47:25Z</time></trkpt><trkpt lat="43.261939578286785" lon="11.361371580148647"><ele>182.0</ele><time>2026-04-25T07:47:26Z</time></trkpt><trkpt lat="43.261831131135445" lon="11.361464959295647"><ele>182.0</ele><time>2026-04-25T07:47:27Z</time></trkpt><trkpt lat="43.261718005811396" lon="11.361555957236105"><ele>182.0</ele><time>2026-04-25T07:47:28Z</time></trkpt><trkpt lat="43.26159820551241" lon="11.36163792238521"><ele>182.0</ele><time>2026-04-25T07:47:29Z</time></trkpt><trkpt lat="43.26148682388701" lon="11.361709821796557"><ele>182.0</ele><time>2026-04-25T07:47:30Z</time></trkpt><trkpt lat="43.26137453024801" lon="11.361752349168187"><ele>182.0</ele><time>2026-04-25T07:47:31Z</time></trkpt><trkpt lat="43.261273030864324" lon="11.361805599001338"><ele>182.0</ele><time>2026-04-25T07:47:32Z</time></trkpt><trkpt lat="43.261179518138015" lon="11.361846432054596"><ele>182.0</ele><time>2026-04-25T07:47:33Z</time></trkpt><trkpt lat="43.26108423794531" lon="11.361884679627082"><ele>182.0</ele><time>2026-04-25T07:47:34Z</time></trkpt><trkpt lat="43.26097286903438" lon="11.36191795399183"><ele>182.0</ele><time>2026-04-25T07:47:35Z</time></trkpt><trkpt lat="43.2608361887971" lon="11.361941819847072"><ele>182.0</ele><time>2026-04-25T07:47:36Z</time></trkpt><trkpt lat="43.26069235535521" lon="11.361943537615932"><ele>182.0</ele><time>2026-04-25T07:47:37Z</time></trkpt><trkpt lat="43.260551980167705" lon="11.36193014700096"><ele>182.0</ele><time>2026-04-25T07:47:38Z</time></trkpt><trkpt lat="43.26039310569569" lon="11.36190335578859"><ele>182.0</ele><time>2026-04-25T07:47:39Z</time></trkpt><trkpt lat="43.260213574550484" lon="11.361857717984233"><ele>183.0</ele><time>2026-04-25T07:47:40Z</time></trkpt><trkpt lat="43.26002540315312" lon="11.361801526108371"><ele>184.0</ele><time>2026-04-25T07:47:41Z</time></trkpt><trkpt lat="43.25984057997339" lon="11.3617422596336"><ele>185.0</ele><time>2026-04-25T07:47:42Z</time></trkpt><trkpt lat="43.25968121157341" lon="11.361681285296878"><ele>187.0</ele><time>2026-04-25T07:47:43Z</time></trkpt><trkpt lat="43.25954312683634" lon="11.361620784687878"><ele>189.0</ele><time>2026-04-25T07:47:44Z</time></trkpt><trkpt lat="43.25942143060932" lon="11.361561673973148"><ele>191.0</ele><time>2026-04-25T07:47:45Z</time></trkpt><trkpt lat="43.25931538853695" lon="11.361505859516942"><ele>193.0</ele><time>2026-04-25T07:47:46Z</time></trkpt><trkpt lat="43.25922101542654" lon="11.361455541354669"><ele>193.0</ele><time>2026-04-25T07:47:47Z</time></trkpt><trkpt lat="43.259132270377165" lon="11.361408223954086"><ele>193.0</ele><time>2026-04-25T07:47:48Z</time></trkpt><trkpt lat="43.25904525841583" lon="11.361358635650316"><ele>193.0</ele><time>2026-04-25T07:47:49Z</time></trkpt><trkpt lat="43.25896091541148" lon="11.361308643573574"><ele>193.0</ele><time>2026-04-25T07:47:50Z</time></trkpt><trkpt lat="43.258882742947094" lon="11.361255842650163"><ele>193.0</ele><time>2026-04-25T07:47:51Z</time></trkpt><trkpt lat="43.2588088912956" lon="11.361199586879772"><ele>193.33333333333331</ele><time>2026-04-25T07:47:52Z</time></trkpt><trkpt lat="43.25873934172978" lon="11.361139989823574"><ele>193.66666666666666</ele><time>2026-04-25T07:47:53Z</time></trkpt><trkpt lat="43.25867006189645" lon="11.361079790803151"><ele>194.0</ele><time>2026-04-25T07:47:54Z</time></trkpt><trkpt lat="43.25860349634425" lon="11.361019957894696"><ele>194.33333333333331</ele><time>2026-04-25T07:47:55Z</time></trkpt><trkpt lat="43.258539146217814" lon="11.360960570113662"><ele>194.66666666666666</ele><time>2026-04-25T07:47:56Z</time></trkpt><trkpt lat="43.25847024162871" lon="11.360896979057404"><ele>195.0</ele><time>2026-04-25T07:47:57Z</time></trkpt><trkpt lat="43.258403991873" lon="11.360836078840098"><ele>195.0</ele><time>2026-04-25T07:47:58Z</time></trkpt><trkpt lat="43.25832533135602" lon="11.36078141179739"><ele>195.0</ele><time>2026-04-25T07:47:59.001Z</time></trkpt><trkpt lat="43.25825512719234" lon="11.360699532344311"><ele>195.0</ele><time>2026-04-25T07:48:00.001Z</time></trkpt><trkpt lat="43.25817610103791" lon="11.360621829091775"><ele>195.0</ele><time>2026-04-25T07:48:01.001Z</time></trkpt><trkpt lat="43.25809618358759" lon="11.360548070768832"><ele>195.0</ele><time>2026-04-25T07:48:02.001Z</time></trkpt><trkpt lat="43.258020398503106" lon="11.36048266306738"><ele>195.0</ele><time>2026-04-25T07:48:03.001Z</time></trkpt><trkpt lat="43.25794659735421" lon="11.360428996688286"><ele>195.0</ele><time>2026-04-25T07:48:04.001Z</time></trkpt><trkpt lat="43.25786848976991" lon="11.36038781611161"><ele>195.0</ele><time>2026-04-25T07:48:05.001Z</time></trkpt><trkpt lat="43.25778958412366" lon="11.360352732884051"><ele>195.0</ele><time>2026-04-25T07:48:06.001Z</time></trkpt><trkpt lat="43.25771136802742" lon="11.36032090267282"><ele>195.0</ele><time>2026-04-25T07:48:07.001Z</time></trkpt><trkpt lat="43.257632572731765" lon="11.36028709362889"><ele>195.0</ele><time>2026-04-25T07:48:08.001Z</time></trkpt><trkpt lat="43.25756066500528" lon="11.36025522062817"><ele>195.0</ele><time>2026-04-25T07:48:09.001Z</time></trkpt><trkpt lat="43.25748379826407" lon="11.360225281816117"><ele>195.0</ele><time>2026-04-25T07:48:10.001Z</time></trkpt><trkpt lat="43.257415049080464" lon="11.360198507615705"><ele>195.0</ele><time>2026-04-25T07:48:11.001Z</time></trkpt><trkpt lat="43.25734473831701" lon="11.360169574266692"><ele>195.0</ele><time>2026-04-25T07:48:12.001Z</time></trkpt><trkpt lat="43.25727565551159" lon="11.36014272372517"><ele>195.0</ele><time>2026-04-25T07:48:13.001Z</time></trkpt><trkpt lat="43.25720547848055" lon="11.360124279029858"><ele>195.0</ele><time>2026-04-25T07:48:14.001Z</time></trkpt><trkpt lat="43.25713494963755" lon="11.360107323252075"><ele>195.0</ele><time>2026-04-25T07:48:15.001Z</time></trkpt><trkpt lat="43.25706224677174" lon="11.360076501309003"><ele>195.66666666666666</ele><time>2026-04-25T07:48:16.001Z</time></trkpt><trkpt lat="43.256987166930216" lon="11.360088957636227"><ele>196.33333333333331</ele><time>2026-04-25T07:48:17.001Z</time></trkpt><trkpt lat="43.25691296979761" lon="11.360078209609162"><ele>197.0</ele><time>2026-04-25T07:48:18.001Z</time></trkpt><trkpt lat="43.25684315139188" lon="11.360077026877745"><ele>197.66666666666666</ele><time>2026-04-25T07:48:19.001Z</time></trkpt><trkpt lat="43.256766753973956" lon="11.360082851118074"><ele>198.33333333333331</ele><time>2026-04-25T07:48:20.001Z</time></trkpt><trkpt lat="43.25668959407548" lon="11.360073282268477"><ele>199.0</ele><time>2026-04-25T07:48:21.001Z</time></trkpt><trkpt lat="43.25660779021537" lon="11.36008512145241"><ele>198.99999999999997</ele><time>2026-04-25T07:48:22.001Z</time></trkpt><trkpt lat="43.25653199637911" lon="11.360098232799448"><ele>199.0</ele><time>2026-04-25T07:48:23.001Z</time></trkpt><trkpt lat="43.25645438180857" lon="11.360114800364473"><ele>199.0</ele><time>2026-04-25T07:48:24.001Z</time></trkpt><trkpt lat="43.256384150901894" lon="11.360132103656598"><ele>199.0</ele><time>2026-04-25T07:48:25.001Z</time></trkpt><trkpt lat="43.25630539986298" lon="11.360152955002599"><ele>198.99999999999997</ele><time>2026-04-25T07:48:26.001Z</time></trkpt><trkpt lat="43.2562379298977" lon="11.360194674059759"><ele>199.0</ele><time>2026-04-25T07:48:27.001Z</time></trkpt><trkpt lat="43.256157323905434" lon="11.360218999416539"><ele>199.79999999999998</ele><time>2026-04-25T07:48:28.001Z</time></trkpt><trkpt lat="43.25607829125495" lon="11.360233991794153"><ele>200.6</ele><time>2026-04-25T07:48:29.001Z</time></trkpt><trkpt lat="43.25600911688938" lon="11.360303442528188"><ele>201.4</ele><time>2026-04-25T07:48:30.001Z</time></trkpt><trkpt lat="43.25593609099722" lon="11.360354407322964"><ele>202.2</ele><time>2026-04-25T07:48:31.001Z</time></trkpt><trkpt lat="43.25585618535607" lon="11.360415023989113"><ele>203.0</ele><time>2026-04-25T07:48:32.001Z</time></trkpt><trkpt lat="43.25574847954505" lon="11.36048696861092"><ele>203.4</ele><time>2026-04-25T07:48:33.001Z</time></trkpt><trkpt lat="43.255632355099515" lon="11.360546056537352"><ele>203.8</ele><time>2026-04-25T07:48:34.001Z</time></trkpt><trkpt lat="43.25554553470602" lon="11.360622268756194"><ele>204.2</ele><time>2026-04-25T07:48:35.001Z</time></trkpt><trkpt lat="43.2554629730675" lon="11.360685650252982"><ele>204.6</ele><time>2026-04-25T07:48:36.001Z</time></trkpt><trkpt lat="43.255377609624695" lon="11.360740702388883"><ele>205.0</ele><time>2026-04-25T07:48:37.001Z</time></trkpt><trkpt lat="43.255301312334936" lon="11.360816693111873"><ele>206.8</ele><time>2026-04-25T07:48:38.001Z</time></trkpt><trkpt lat="43.25523277262706" lon="11.360892656779372"><ele>208.6</ele><time>2026-04-25T07:48:39.001Z</time></trkpt><trkpt lat="43.25516256601683" lon="11.360983379802684"><ele>210.39999999999998</ele><time>2026-04-25T07:48:40.001Z</time></trkpt><trkpt lat="43.25510214434098" lon="11.361078389063719"><ele>212.2</ele><time>2026-04-25T07:48:41.001Z</time></trkpt><trkpt lat="43.255034665575955" lon="11.361174680771441"><ele>214.0</ele><time>2026-04-25T07:48:42.001Z</time></trkpt><trkpt lat="43.254983842061506" lon="11.361284734969738"><ele>214.0</ele><time>2026-04-25T07:48:43.001Z</time></trkpt><trkpt lat="43.25493100292276" lon="11.361391646928832"><ele>213.99999999999997</ele><time>2026-04-25T07:48:44.001Z</time></trkpt><trkpt lat="43.25487468062987" lon="11.36149610303537"><ele>213.99999999999997</ele><time>2026-04-25T07:48:45.001Z</time></trkpt><trkpt lat="43.254800178119645" lon="11.361633379881496"><ele>214.0</ele><time>2026-04-25T07:48:46.001Z</time></trkpt><trkpt lat="43.25472034506595" lon="11.361778502944947"><ele>214.0</ele><time>2026-04-25T07:48:47.001Z</time></trkpt><trkpt lat="43.254646709281324" lon="11.361901130991079"><ele>214.99999999999997</ele><time>2026-04-25T07:48:48.001Z</time></trkpt><trkpt lat="43.254578489750045" lon="11.361997415129514"><ele>216.0</ele><time>2026-04-25T07:48:49.001Z</time></trkpt><trkpt lat="43.25451043912943" lon="11.362074220878478"><ele>217.0</ele><time>2026-04-25T07:48:50.001Z</time></trkpt><trkpt lat="43.254437995117904" lon="11.362137372355647"><ele>218.0</ele><time>2026-04-25T07:48:51.001Z</time></trkpt><trkpt lat="43.25436733935235" lon="11.36219289353069"><ele>218.99999999999997</ele><time>2026-04-25T07:48:52.001Z</time></trkpt><trkpt lat="43.254287892016336" lon="11.362248598529904"><ele>220.0</ele><time>2026-04-25T07:48:53.001Z</time></trkpt><trkpt lat="43.254184000218885" lon="11.362304710167463"><ele>220.0</ele><time>2026-04-25T07:48:54.002Z</time></trkpt><trkpt lat="43.254043100951286" lon="11.362351389873904"><ele>220.0</ele><time>2026-04-25T07:48:55.002Z</time></trkpt><trkpt lat="43.253867276007924" lon="11.362358229359751"><ele>220.0</ele><time>2026-04-25T07:48:56.002Z</time></trkpt><trkpt lat="43.253693970935544" lon="11.3624071167851"><ele>221.66666666666666</ele><time>2026-04-25T07:48:57.002Z</time></trkpt><trkpt lat="43.253507192093004" lon="11.362444603690673"><ele>223.33333333333331</ele><time>2026-04-25T07:48:58.002Z</time></trkpt><trkpt lat="43.253304352333934" lon="11.362503358147379"><ele>225.0</ele><time>2026-04-25T07:48:59.002Z</time></trkpt><trkpt lat="43.25312303115324" lon="11.362565900344872"><ele>226.0</ele><time>2026-04-25T07:49:00.002Z</time></trkpt><trkpt lat="43.25294733937771" lon="11.362645722739613"><ele>227.0</ele><time>2026-04-25T07:49:01.002Z</time></trkpt><trkpt lat="43.25277317747982" lon="11.362744925450462"><ele>228.0</ele><time>2026-04-25T07:49:02.002Z</time></trkpt><trkpt lat="43.25263326893651" lon="11.36283662236594"><ele>228.0</ele><time>2026-04-25T07:49:03.002Z</time></trkpt><trkpt lat="43.25251750352133" lon="11.362914405299966"><ele>228.0</ele><time>2026-04-25T07:49:04.002Z</time></trkpt><trkpt lat="43.252412767126046" lon="11.363002547291261"><ele>228.0</ele><time>2026-04-25T07:49:05.002Z</time></trkpt><trkpt lat="43.25230589819925" lon="11.36311372675413"><ele>228.0</ele><time>2026-04-25T07:49:06.002Z</time></trkpt><trkpt lat="43.252185599247944" lon="11.363249993745091"><ele>229.25</ele><time>2026-04-25T07:49:07.002Z</time></trkpt><trkpt lat="43.2520754661594" lon="11.36337152749548"><ele>230.5</ele><time>2026-04-25T07:49:08.002Z</time></trkpt><trkpt lat="43.25197628934158" lon="11.363468684051899"><ele>231.75</ele><time>2026-04-25T07:49:09.002Z</time></trkpt><trkpt lat="43.25187680710905" lon="11.363510386698819"><ele>233.0</ele><time>2026-04-25T07:49:10.002Z</time></trkpt><trkpt lat="43.251785987953255" lon="11.363564790849365"><ele>233.00000000000003</ele><time>2026-04-25T07:49:11.002Z</time></trkpt><trkpt lat="43.25169256936693" lon="11.363589251201489"><ele>233.0</ele><time>2026-04-25T07:49:12.002Z</time></trkpt><trkpt lat="43.251601442216135" lon="11.36359963894341"><ele>233.0</ele><time>2026-04-25T07:49:13.002Z</time></trkpt><trkpt lat="43.251520119681196" lon="11.363598162089431"><ele>233.0</ele><time>2026-04-25T07:49:14.002Z</time></trkpt><trkpt lat="43.25144463219547" lon="11.363589968710393"><ele>233.00000000000003</ele><time>2026-04-25T07:49:15.002Z</time></trkpt><trkpt lat="43.25137057181658" lon="11.363577071462931"><ele>233.0</ele><time>2026-04-25T07:49:16.002Z</time></trkpt><trkpt lat="43.251293951673134" lon="11.363557094685964"><ele>231.0</ele><time>2026-04-25T07:49:17.002Z</time></trkpt><trkpt lat="43.251212173407474" lon="11.363525948047727"><ele>229.0</ele><time>2026-04-25T07:49:18.002Z</time></trkpt><trkpt lat="43.251109200637" lon="11.363477739216576"><ele>227.0</ele><time>2026-04-25T07:49:19.002Z</time></trkpt><trkpt lat="43.25097449946816" lon="11.363416599069959"><ele>225.0</ele><time>2026-04-25T07:49:20.002Z</time></trkpt><trkpt lat="43.250829861953335" lon="11.363359467458979"><ele>225.0</ele><time>2026-04-25T07:49:21.002Z</time></trkpt><trkpt lat="43.25068571637843" lon="11.363328147232354"><ele>225.0</ele><time>2026-04-25T07:49:22Z</time></trkpt><trkpt lat="43.25051705465847" lon="11.363260440399571"><ele>225.0</ele><time>2026-04-25T07:49:23Z</time></trkpt><trkpt lat="43.25032580608708" lon="11.363236036818643"><ele>224.33333333333331</ele><time>2026-04-25T07:49:24Z</time></trkpt><trkpt lat="43.250161709985605" lon="11.36319325814232"><ele>223.66666666666666</ele><time>2026-04-25T07:49:25Z</time></trkpt><trkpt lat="43.25000498645611" lon="11.363148847329144"><ele>223.0</ele><time>2026-04-25T07:49:26Z</time></trkpt><trkpt lat="43.249863024789654" lon="11.36310579009528"><ele>224.25</ele><time>2026-04-25T07:49:27Z</time></trkpt><trkpt lat="43.249738147437604" lon="11.363072397807235"><ele>225.5</ele><time>2026-04-25T07:49:28Z</time></trkpt><trkpt lat="43.24962122091338" lon="11.363058753446461"><ele>226.75</ele><time>2026-04-25T07:49:29Z</time></trkpt><trkpt lat="43.24950621132044" lon="11.363070303990602"><ele>228.0</ele><time>2026-04-25T07:49:30Z</time></trkpt><trkpt lat="43.24938902956958" lon="11.36310601289354"><ele>228.0</ele><time>2026-04-25T07:49:31Z</time></trkpt><trkpt lat="43.24927436100257" lon="11.363157123102486"><ele>228.0</ele><time>2026-04-25T07:49:32Z</time></trkpt><trkpt lat="43.24917438410195" lon="11.363229019643281"><ele>228.0</ele><time>2026-04-25T07:49:33Z</time></trkpt><trkpt lat="43.24908051907773" lon="11.363307911367862"><ele>228.0</ele><time>2026-04-25T07:49:34Z</time></trkpt><trkpt lat="43.24899406181699" lon="11.363396738166173"><ele>228.0</ele><time>2026-04-25T07:49:35Z</time></trkpt><trkpt lat="43.248917321941924" lon="11.363498701679552"><ele>228.0</ele><time>2026-04-25T07:49:36Z</time></trkpt><trkpt lat="43.248841596602745" lon="11.363627151542332"><ele>228.0</ele><time>2026-04-25T07:49:37Z</time></trkpt><trkpt lat="43.24876858217511" lon="11.363745055578267"><ele>228.0</ele><time>2026-04-25T07:49:38Z</time></trkpt><trkpt lat="43.24869609910709" lon="11.363854361413376"><ele>228.0</ele><time>2026-04-25T07:49:39Z</time></trkpt><trkpt lat="43.24862996775574" lon="11.363957443794122"><ele>227.8</ele><time>2026-04-25T07:49:40Z</time></trkpt><trkpt lat="43.24854937877319" lon="11.364038523169684"><ele>227.60000000000002</ele><time>2026-04-25T07:49:41Z</time></trkpt><trkpt lat="43.248482794859626" lon="11.364131734098804"><ele>227.39999999999998</ele><time>2026-04-25T07:49:42Z</time></trkpt><trkpt lat="43.248428455628" lon="11.364243687566757"><ele>227.2</ele><time>2026-04-25T07:49:43Z</time></trkpt><trkpt lat="43.248363543796835" lon="11.364321128577648"><ele>227.0</ele><time>2026-04-25T07:49:44Z</time></trkpt><trkpt lat="43.24830562930251" lon="11.364415975300588"><ele>227.0</ele><time>2026-04-25T07:49:45Z</time></trkpt><trkpt lat="43.24826450696324" lon="11.364534273436803"><ele>227.0</ele><time>2026-04-25T07:49:46Z</time></trkpt><trkpt lat="43.24824004837649" lon="11.364665561635737"><ele>227.0</ele><time>2026-04-25T07:49:47Z</time></trkpt><trkpt lat="43.24823063540537" lon="11.364837501572067"><ele>227.0</ele><time>2026-04-25T07:49:48Z</time></trkpt><trkpt lat="43.248240650472944" lon="11.365016191275066"><ele>226.6</ele><time>2026-04-25T07:49:49Z</time></trkpt><trkpt lat="43.248247373933495" lon="11.365146812736807"><ele>226.2</ele><time>2026-04-25T07:49:50Z</time></trkpt><trkpt lat="43.24824597376541" lon="11.365236787701996"><ele>225.8</ele><time>2026-04-25T07:49:51Z</time></trkpt><trkpt lat="43.24820616912733" lon="11.365367093258405"><ele>225.4</ele><time>2026-04-25T07:49:53.001Z</time></trkpt><trkpt lat="43.24816169098974" lon="11.365462425395775"><ele>225.0</ele><time>2026-04-25T07:49:55.001Z</time></trkpt><trkpt lat="43.24808939612053" lon="11.365589618707226"><ele>224.6</ele><time>2026-04-25T07:49:57.001Z</time></trkpt><trkpt lat="43.2480201819167" lon="11.365695746376717"><ele>224.2</ele><time>2026-04-25T07:49:59.001Z</time></trkpt><trkpt lat="43.24795882456916" lon="11.365781320668498"><ele>223.8</ele><time>2026-04-25T07:50:01.001Z</time></trkpt><trkpt lat="43.24787966998051" lon="11.365879577947766"><ele>223.4</ele><time>2026-04-25T07:50:03.001Z</time></trkpt><trkpt lat="43.247784577731615" lon="11.365963122877082"><ele>223.0</ele><time>2026-04-25T07:50:05.001Z</time></trkpt><trkpt lat="43.247663150486495" lon="11.366011604051542"><ele>222.99999999999997</ele><time>2026-04-25T07:50:07.001Z</time></trkpt><trkpt lat="43.24759029637239" lon="11.366030050271391"><ele>223.0</ele><time>2026-04-25T07:50:08.001Z</time></trkpt><trkpt lat="43.24750870514414" lon="11.366048823306539"><ele>223.0</ele><time>2026-04-25T07:50:09.001Z</time></trkpt><trkpt lat="43.24742007011363" lon="11.366064847536279"><ele>223.0</ele><time>2026-04-25T07:50:10.001Z</time></trkpt><trkpt lat="43.24732715064297" lon="11.366096647139441"><ele>222.99999999999997</ele><time>2026-04-25T07:50:11.001Z</time></trkpt><trkpt lat="43.24722529665548" lon="11.366102529800626"><ele>223.0</ele><time>2026-04-25T07:50:12.001Z</time></trkpt><trkpt lat="43.24710883511095" lon="11.366149134333382"><ele>222.33333333333331</ele><time>2026-04-25T07:50:13.001Z</time></trkpt><trkpt lat="43.24697573074143" lon="11.366192783590737"><ele>221.66666666666669</ele><time>2026-04-25T07:50:14.001Z</time></trkpt><trkpt lat="43.24681616879369" lon="11.36625232394591"><ele>221.0</ele><time>2026-04-25T07:50:15.001Z</time></trkpt><trkpt lat="43.246635637027104" lon="11.36633270538151"><ele>221.66666666666669</ele><time>2026-04-25T07:50:16.001Z</time></trkpt><trkpt lat="43.246465935204704" lon="11.366417499974176"><ele>222.33333333333331</ele><time>2026-04-25T07:50:17.001Z</time></trkpt><trkpt lat="43.246331225745344" lon="11.366501359101626"><ele>223.0</ele><time>2026-04-25T07:50:18.001Z</time></trkpt><trkpt lat="43.246223260677006" lon="11.366580832984608"><ele>223.2</ele><time>2026-04-25T07:50:19.001Z</time></trkpt><trkpt lat="43.246133963151586" lon="11.36667177401172"><ele>223.4</ele><time>2026-04-25T07:50:20.001Z</time></trkpt><trkpt lat="43.2460542527708" lon="11.36677342561475"><ele>223.59999999999997</ele><time>2026-04-25T07:50:21.001Z</time></trkpt><trkpt lat="43.245969427004795" lon="11.366866047921258"><ele>223.79999999999998</ele><time>2026-04-25T07:50:22.001Z</time></trkpt><trkpt lat="43.24588730301297" lon="11.36695967216626"><ele>224.0</ele><time>2026-04-25T07:50:23.001Z</time></trkpt><trkpt lat="43.24579783212757" lon="11.36704177123265"><ele>224.0</ele><time>2026-04-25T07:50:24.001Z</time></trkpt><trkpt lat="43.24571379340118" lon="11.367125832276306"><ele>223.99999999999997</ele><time>2026-04-25T07:50:25.001Z</time></trkpt><trkpt lat="43.24561979986938" lon="11.367199842868775"><ele>223.99999999999997</ele><time>2026-04-25T07:50:26.001Z</time></trkpt><trkpt lat="43.24552357600404" lon="11.367268380648058"><ele>224.0</ele><time>2026-04-25T07:50:27.001Z</time></trkpt><trkpt lat="43.245423309462915" lon="11.367332693870386"><ele>224.0</ele><time>2026-04-25T07:50:28.001Z</time></trkpt><trkpt lat="43.24531950275546" lon="11.3673887062898"><ele>223.2</ele><time>2026-04-25T07:50:29.001Z</time></trkpt><trkpt lat="43.245219613095735" lon="11.36743348743413"><ele>222.39999999999998</ele><time>2026-04-25T07:50:30.001Z</time></trkpt><trkpt lat="43.24511900370887" lon="11.367474809955375"><ele>221.6</ele><time>2026-04-25T07:50:31.001Z</time></trkpt><trkpt lat="43.245011158678025" lon="11.367489344189838"><ele>220.8</ele><time>2026-04-25T07:50:32.001Z</time></trkpt><trkpt lat="43.24490666494568" lon="11.367532683190696"><ele>220.0</ele><time>2026-04-25T07:50:33.001Z</time></trkpt><trkpt lat="43.244797681290166" lon="11.367556427757046"><ele>220.6</ele><time>2026-04-25T07:50:34.001Z</time></trkpt><trkpt lat="43.24468861002224" lon="11.367580954036578"><ele>221.2</ele><time>2026-04-25T07:50:35.001Z</time></trkpt><trkpt lat="43.244586529061706" lon="11.367609212664043"><ele>221.8</ele><time>2026-04-25T07:50:36.001Z</time></trkpt><trkpt lat="43.24448733543341" lon="11.367642382634205"><ele>222.4</ele><time>2026-04-25T07:50:37.001Z</time></trkpt><trkpt lat="43.244384251007695" lon="11.367677712019484"><ele>223.0</ele><time>2026-04-25T07:50:38.001Z</time></trkpt><trkpt lat="43.244258615930704" lon="11.367721205677121"><ele>223.0</ele><time>2026-04-25T07:50:39.001Z</time></trkpt><trkpt lat="43.244121196584814" lon="11.367769262151109"><ele>223.0</ele><time>2026-04-25T07:50:40.001Z</time></trkpt><trkpt lat="43.24399225855685" lon="11.367816530233249"><ele>223.0</ele><time>2026-04-25T07:50:41.001Z</time></trkpt><trkpt lat="43.2438555556543" lon="11.367862742531468"><ele>223.0</ele><time>2026-04-25T07:50:42.001Z</time></trkpt><trkpt lat="43.2437394352237" lon="11.36790012548921"><ele>223.60000000000002</ele><time>2026-04-25T07:50:43.001Z</time></trkpt><trkpt lat="43.24363463993774" lon="11.367928318396801"><ele>224.20000000000002</ele><time>2026-04-25T07:50:44.001Z</time></trkpt><trkpt lat="43.24352549781471" lon="11.367957279976073"><ele>224.8</ele><time>2026-04-25T07:50:45.001Z</time></trkpt><trkpt lat="43.24341237576901" lon="11.367983741580112"><ele>225.4</ele><time>2026-04-25T07:50:46.001Z</time></trkpt><trkpt lat="43.24329895864051" lon="11.368004804874332"><ele>226.0</ele><time>2026-04-25T07:50:47.001Z</time></trkpt><trkpt lat="43.24318830555877" lon="11.368024779724614"><ele>225.0</ele><time>2026-04-25T07:50:48.001Z</time></trkpt><trkpt lat="43.24307981921847" lon="11.368045903308753"><ele>224.0</ele><time>2026-04-25T07:50:49.001Z</time></trkpt><trkpt lat="43.242961957301695" lon="11.368085670010158"><ele>223.0</ele><time>2026-04-25T07:50:50.001Z</time></trkpt><trkpt lat="43.2428334833349" lon="11.368145669494115"><ele>222.0</ele><time>2026-04-25T07:50:51.001Z</time></trkpt><trkpt lat="43.242720798544354" lon="11.368222206677832"><ele>222.0</ele><time>2026-04-25T07:50:52.001Z</time></trkpt><trkpt lat="43.24261773837951" lon="11.368308652268773"><ele>222.0</ele><time>2026-04-25T07:50:53.001Z</time></trkpt><trkpt lat="43.24252122885064" lon="11.368409257392672"><ele>222.0</ele><time>2026-04-25T07:50:54.001Z</time></trkpt><trkpt lat="43.24241580669239" lon="11.368541893834223"><ele>222.0</ele><time>2026-04-25T07:50:55.001Z</time></trkpt><trkpt lat="43.24228531364215" lon="11.368714996943904"><ele>221.5</ele><time>2026-04-25T07:50:56.002Z</time></trkpt><trkpt lat="43.242171677642744" lon="11.368868190572265"><ele>221.0</ele><time>2026-04-25T07:50:57.002Z</time></trkpt><trkpt lat="43.24207380048734" lon="11.368999571394548"><ele>220.5</ele><time>2026-04-25T07:50:58.002Z</time></trkpt><trkpt lat="43.24199027399484" lon="11.369118956701804"><ele>220.0</ele><time>2026-04-25T07:50:59.002Z</time></trkpt><trkpt lat="43.2419137994189" lon="11.369218838485867"><ele>220.0</ele><time>2026-04-25T07:51:00.002Z</time></trkpt><trkpt lat="43.241848250523546" lon="11.369303336139046"><ele>220.0</ele><time>2026-04-25T07:51:01.002Z</time></trkpt><trkpt lat="43.24178764319187" lon="11.369374733093805"><ele>220.0</ele><time>2026-04-25T07:51:02.002Z</time></trkpt><trkpt lat="43.241735161454656" lon="11.36943817402008"><ele>220.0</ele><time>2026-04-25T07:51:03.002Z</time></trkpt><trkpt lat="43.24164771768927" lon="11.369548567139224"><ele>220.0</ele><time>2026-04-25T07:51:05.002Z</time></trkpt><trkpt lat="43.24156022797909" lon="11.369653874371846"><ele>219.25</ele><time>2026-04-25T07:51:07.002Z</time></trkpt><trkpt lat="43.24146716279103" lon="11.369761109840484"><ele>218.5</ele><time>2026-04-25T07:51:09.002Z</time></trkpt><trkpt lat="43.24137509869852" lon="11.369861088271596"><ele>217.75</ele><time>2026-04-25T07:51:11.002Z</time></trkpt><trkpt lat="43.24128824181288" lon="11.369945678140537"><ele>217.0</ele><time>2026-04-25T07:51:13.002Z</time></trkpt><trkpt lat="43.241194882678684" lon="11.370033273658542"><ele>216.6</ele><time>2026-04-25T07:51:15.002Z</time></trkpt><trkpt lat="43.24111151869123" lon="11.370120615681335"><ele>216.2</ele><time>2026-04-25T07:51:17.002Z</time></trkpt><trkpt lat="43.24102808441942" lon="11.370192003983501"><ele>215.8</ele><time>2026-04-25T07:51:19.002Z</time></trkpt><trkpt lat="43.240933037463584" lon="11.370255850222055"><ele>215.4</ele><time>2026-04-25T07:51:21.002Z</time></trkpt><trkpt lat="43.240843289843326" lon="11.370335934488999"><ele>215.0</ele><time>2026-04-25T07:51:23.002Z</time></trkpt><trkpt lat="43.240754416057825" lon="11.370431786645275"><ele>215.0</ele><time>2026-04-25T07:51:25.002Z</time></trkpt><trkpt lat="43.240655296634756" lon="11.370511045101768"><ele>215.0</ele><time>2026-04-25T07:51:27.002Z</time></trkpt><trkpt lat="43.24058078805393" lon="11.370620613999964"><ele>215.0</ele><time>2026-04-25T07:51:29.001Z</time></trkpt><trkpt lat="43.24050504458426" lon="11.37068928564176"><ele>215.0</ele><time>2026-04-25T07:51:31.001Z</time></trkpt><trkpt lat="43.240447385646476" lon="11.370761981155653"><ele>215.0</ele><time>2026-04-25T07:51:33Z</time></trkpt><trkpt lat="43.240400729535374" lon="11.37086935865257"><ele>214.75</ele><time>2026-04-25T07:51:35Z</time></trkpt><trkpt lat="43.2403110498349" lon="11.371013328459963"><ele>214.5</ele><time>2026-04-25T07:51:37Z</time></trkpt><trkpt lat="43.24023159873292" lon="11.371148195551973"><ele>214.25</ele><time>2026-04-25T07:51:38Z</time></trkpt><trkpt lat="43.240134009483825" lon="11.371320237618788"><ele>214.0</ele><time>2026-04-25T07:51:39Z</time></trkpt><trkpt lat="43.24001639623801" lon="11.371534898205397"><ele>214.0</ele><time>2026-04-25T07:51:40Z</time></trkpt><trkpt lat="43.23989593253658" lon="11.371764174788938"><ele>214.0</ele><time>2026-04-25T07:51:41Z</time></trkpt><trkpt lat="43.239801650116206" lon="11.37196248303118"><ele>214.0</ele><time>2026-04-25T07:51:42Z</time></trkpt><trkpt lat="43.23971497899258" lon="11.372155764706537"><ele>213.79999999999998</ele><time>2026-04-25T07:51:43Z</time></trkpt><trkpt lat="43.23963994448371" lon="11.372317120343084"><ele>213.59999999999997</ele><time>2026-04-25T07:51:44Z</time></trkpt><trkpt lat="43.23957987833486" lon="11.372436821218685"><ele>213.4</ele><time>2026-04-25T07:51:45Z</time></trkpt><trkpt lat="43.239525443626945" lon="11.37253163619866"><ele>213.2</ele><time>2026-04-25T07:51:46Z</time></trkpt><trkpt lat="43.23946678743854" lon="11.372604220387974"><ele>213.0</ele><time>2026-04-25T07:51:47Z</time></trkpt><trkpt lat="43.23939849227807" lon="11.372654261046945"><ele>213.0</ele><time>2026-04-25T07:51:48Z</time></trkpt><trkpt lat="43.23931247840441" lon="11.372682305443162"><ele>213.0</ele><time>2026-04-25T07:51:49Z</time></trkpt><trkpt lat="43.23922049389559" lon="11.372693905549301"><ele>213.0</ele><time>2026-04-25T07:51:50Z</time></trkpt><trkpt lat="43.239125419820056" lon="11.372686761453368"><ele>213.0</ele><time>2026-04-25T07:51:51Z</time></trkpt><trkpt lat="43.2390109369934" lon="11.372677515762131"><ele>213.0</ele><time>2026-04-25T07:51:52Z</time></trkpt><trkpt lat="43.23888225471351" lon="11.372679869076277"><ele>213.0</ele><time>2026-04-25T07:51:53Z</time></trkpt><trkpt lat="43.23876392877918" lon="11.37269848587583"><ele>213.0</ele><time>2026-04-25T07:51:54Z</time></trkpt><trkpt lat="43.23864664521434" lon="11.372745096619898"><ele>213.0</ele><time>2026-04-25T07:51:55.001Z</time></trkpt><trkpt lat="43.23852189097262" lon="11.372816370136272"><ele>213.0</ele><time>2026-04-25T07:51:56.001Z</time></trkpt><trkpt lat="43.23841246381405" lon="11.372892915356536"><ele>213.0</ele><time>2026-04-25T07:51:57.001Z</time></trkpt><trkpt lat="43.238324647105976" lon="11.372958557666937"><ele>213.0</ele><time>2026-04-25T07:51:58.001Z</time></trkpt><trkpt lat="43.23826245219449" lon="11.373032109568468"><ele>213.0</ele><time>2026-04-25T07:51:59.001Z</time></trkpt><trkpt lat="43.23821371787009" lon="11.373123766103056"><ele>213.0</ele><time>2026-04-25T07:52:00.001Z</time></trkpt><trkpt lat="43.238188982575345" lon="11.373254908280847"><ele>213.0</ele><time>2026-04-25T07:52:01.001Z</time></trkpt><trkpt lat="43.23818110129059" lon="11.373410751423435"><ele>211.0</ele><time>2026-04-25T07:52:02.001Z</time></trkpt><trkpt lat="43.23819861594199" lon="11.3736071197241"><ele>209.0</ele><time>2026-04-25T07:52:03.001Z</time></trkpt><trkpt lat="43.23822628847652" lon="11.373819107825094"><ele>207.0</ele><time>2026-04-25T07:52:04.001Z</time></trkpt><trkpt lat="43.23824416796989" lon="11.373989503313554"><ele>205.0</ele><time>2026-04-25T07:52:05.001Z</time></trkpt><trkpt lat="43.23825487081005" lon="11.374137012086173"><ele>204.8</ele><time>2026-04-25T07:52:06.001Z</time></trkpt><trkpt lat="43.238263995682615" lon="11.374276738329216"><ele>204.6</ele><time>2026-04-25T07:52:07.001Z</time></trkpt><trkpt lat="43.23827446988545" lon="11.37440983480268"><ele>204.39999999999998</ele><time>2026-04-25T07:52:08.001Z</time></trkpt><trkpt lat="43.23828497602744" lon="11.374528869855121"><ele>204.2</ele><time>2026-04-25T07:52:09.001Z</time></trkpt><trkpt lat="43.23829431481336" lon="11.37463140822294"><ele>204.0</ele><time>2026-04-25T07:52:10.001Z</time></trkpt><trkpt lat="43.238287224265584" lon="11.374776948174441"><ele>204.0</ele><time>2026-04-25T07:52:12.001Z</time></trkpt><trkpt lat="43.23826202372763" lon="11.374897580175668"><ele>204.0</ele><time>2026-04-25T07:52:14.001Z</time></trkpt><trkpt lat="43.23822205734894" lon="11.375002043879668"><ele>204.0</ele><time>2026-04-25T07:52:16.001Z</time></trkpt><trkpt lat="43.238135034707845" lon="11.375115153391492"><ele>204.0</ele><time>2026-04-25T07:52:18.001Z</time></trkpt><trkpt lat="43.238073441271304" lon="11.375178540323564"><ele>204.0</ele><time>2026-04-25T07:52:19.001Z</time></trkpt><trkpt lat="43.23800968163996" lon="11.375231595892583"><ele>204.0</ele><time>2026-04-25T07:52:20.001Z</time></trkpt><trkpt lat="43.237940199176165" lon="11.375293147204658"><ele>204.0</ele><time>2026-04-25T07:52:21.001Z</time></trkpt><trkpt lat="43.237863851356614" lon="11.37536078026138"><ele>204.0</ele><time>2026-04-25T07:52:22.001Z</time></trkpt><trkpt lat="43.23778946897445" lon="11.375426671801035"><ele>204.0</ele><time>2026-04-25T07:52:23.001Z</time></trkpt><trkpt lat="43.23771651947332" lon="11.375525354158269"><ele>204.0</ele><time>2026-04-25T07:52:24.001Z</time></trkpt><trkpt lat="43.23762100461206" lon="11.375618504663912"><ele>204.0</ele><time>2026-04-25T07:52:25.001Z</time></trkpt><trkpt lat="43.23749866561632" lon="11.375741206422036"><ele>202.33333333333331</ele><time>2026-04-25T07:52:26.001Z</time></trkpt><trkpt lat="43.23734598951539" lon="11.375911474678047"><ele>200.66666666666666</ele><time>2026-04-25T07:52:27.001Z</time></trkpt><trkpt lat="43.23719234904861" lon="11.376070453923049"><ele>199.0</ele><time>2026-04-25T07:52:28.001Z</time></trkpt><trkpt lat="43.23707775343077" lon="11.37619750239583"><ele>198.39999999999998</ele><time>2026-04-25T07:52:29.001Z</time></trkpt><trkpt lat="43.236993979142824" lon="11.376283233155887"><ele>197.8</ele><time>2026-04-25T07:52:30.001Z</time></trkpt><trkpt lat="43.23691442465719" lon="11.37634438996843"><ele>197.2</ele><time>2026-04-25T07:52:31.001Z</time></trkpt><trkpt lat="43.23682032239319" lon="11.376371776539647"><ele>196.60000000000002</ele><time>2026-04-25T07:52:32.001Z</time></trkpt><trkpt lat="43.236705722301465" lon="11.376380018691162"><ele>196.0</ele><time>2026-04-25T07:52:33.001Z</time></trkpt><trkpt lat="43.23659157214332" lon="11.376366218791073"><ele>196.0</ele><time>2026-04-25T07:52:34.001Z</time></trkpt><trkpt lat="43.23649093930063" lon="11.376331873255719"><ele>196.0</ele><time>2026-04-25T07:52:35.001Z</time></trkpt><trkpt lat="43.23640213015418" lon="11.376276190819752"><ele>196.0</ele><time>2026-04-25T07:52:36.001Z</time></trkpt><trkpt lat="43.236343942269045" lon="11.3761821184533"><ele>196.0</ele><time>2026-04-25T07:52:37.001Z</time></trkpt><trkpt lat="43.23629364728071" lon="11.376084901672634"><ele>196.0</ele><time>2026-04-25T07:52:38.001Z</time></trkpt><trkpt lat="43.23624495392429" lon="11.375969915771707"><ele>194.0</ele><time>2026-04-25T07:52:39.001Z</time></trkpt><trkpt lat="43.23622184204607" lon="11.375832431345271"><ele>192.0</ele><time>2026-04-25T07:52:40.001Z</time></trkpt><trkpt lat="43.236201197291734" lon="11.37568209575737"><ele>190.0</ele><time>2026-04-25T07:52:41.001Z</time></trkpt><trkpt lat="43.23618833436372" lon="11.375540558621875"><ele>188.0</ele><time>2026-04-25T07:52:42.001Z</time></trkpt><trkpt lat="43.236191258018735" lon="11.375414465148118"><ele>186.0</ele><time>2026-04-25T07:52:43.001Z</time></trkpt><trkpt lat="43.23621568214412" lon="11.37530521498188"><ele>185.0</ele><time>2026-04-25T07:52:44.001Z</time></trkpt><trkpt lat="43.23626275843314" lon="11.375194930757559"><ele>184.0</ele><time>2026-04-25T07:52:45.001Z</time></trkpt><trkpt lat="43.236322077315435" lon="11.375049756947861"><ele>183.0</ele><time>2026-04-25T07:52:46.001Z</time></trkpt><trkpt lat="43.236388939855274" lon="11.37489537763632"><ele>182.0</ele><time>2026-04-25T07:52:47.001Z</time></trkpt><trkpt lat="43.23643963909946" lon="11.374733673606332"><ele>184.25</ele><time>2026-04-25T07:52:48.001Z</time></trkpt><trkpt lat="43.23650635586076" lon="11.37456742112643"><ele>186.5</ele><time>2026-04-25T07:52:49.001Z</time></trkpt><trkpt lat="43.23654909102981" lon="11.374370965461306"><ele>188.75</ele><time>2026-04-25T07:52:50.001Z</time></trkpt><trkpt lat="43.23657260364604" lon="11.374200752205853"><ele>191.0</ele><time>2026-04-25T07:52:51.001Z</time></trkpt><trkpt lat="43.23658640148998" lon="11.374053460235656"><ele>191.0</ele><time>2026-04-25T07:52:52.001Z</time></trkpt><trkpt lat="43.23658751259962" lon="11.373909308533355"><ele>191.0</ele><time>2026-04-25T07:52:53.001Z</time></trkpt><trkpt lat="43.23656930373592" lon="11.3737680469299"><ele>191.0</ele><time>2026-04-25T07:52:54.001Z</time></trkpt><trkpt lat="43.23652797704466" lon="11.373639860510071"><ele>191.0</ele><time>2026-04-25T07:52:55.001Z</time></trkpt><trkpt lat="43.23647026006037" lon="11.373526086631813"><ele>191.0</ele><time>2026-04-25T07:52:56.001Z</time></trkpt><trkpt lat="43.236381368298346" lon="11.373444108189506"><ele>188.75</ele><time>2026-04-25T07:52:57.001Z</time></trkpt><trkpt lat="43.23627601299045" lon="11.373385535298405"><ele>186.5</ele><time>2026-04-25T07:52:58.001Z</time></trkpt><trkpt lat="43.23615251551912" lon="11.37339283824624"><ele>184.25</ele><time>2026-04-25T07:52:59.001Z</time></trkpt><trkpt lat="43.236019380859986" lon="11.37339689058835"><ele>182.0</ele><time>2026-04-25T07:53:00.001Z</time></trkpt><trkpt lat="43.235844703287285" lon="11.373395004807133"><ele>182.0</ele><time>2026-04-25T07:53:01.001Z</time></trkpt><trkpt lat="43.235637248517364" lon="11.373420008752994"><ele>182.0</ele><time>2026-04-25T07:53:02.001Z</time></trkpt><trkpt lat="43.235457116457766" lon="11.373442393898088"><ele>182.0</ele><time>2026-04-25T07:53:03.001Z</time></trkpt><trkpt lat="43.23527223969273" lon="11.373459723190795"><ele>180.66666666666666</ele><time>2026-04-25T07:53:04.001Z</time></trkpt><trkpt lat="43.23510289419176" lon="11.373475596706992"><ele>179.33333333333334</ele><time>2026-04-25T07:53:05.002Z</time></trkpt><trkpt lat="43.23493545408894" lon="11.373491291594668"><ele>178.0</ele><time>2026-04-25T07:53:06.002Z</time></trkpt><trkpt lat="43.234763060467024" lon="11.373507450806338"><ele>178.0</ele><time>2026-04-25T07:53:07.002Z</time></trkpt><trkpt lat="43.23458697080296" lon="11.373522160984315"><ele>178.0</ele><time>2026-04-25T07:53:08.002Z</time></trkpt><trkpt lat="43.23443446892462" lon="11.373533897502492"><ele>178.0</ele><time>2026-04-25T07:53:09.002Z</time></trkpt><trkpt lat="43.234294825624985" lon="11.37354419784346"><ele>178.0</ele><time>2026-04-25T07:53:10.002Z</time></trkpt><trkpt lat="43.234159838400984" lon="11.37355582019108"><ele>178.0</ele><time>2026-04-25T07:53:11.002Z</time></trkpt><trkpt lat="43.234025086790425" lon="11.373568110034437"><ele>178.0</ele><time>2026-04-25T07:53:12.002Z</time></trkpt><trkpt lat="43.23388470641978" lon="11.373600902947485"><ele>178.0</ele><time>2026-04-25T07:53:13.002Z</time></trkpt><trkpt lat="43.2337456161586" lon="11.373624336280168"><ele>178.33333333333334</ele><time>2026-04-25T07:53:14.002Z</time></trkpt><trkpt lat="43.2336116267165" lon="11.373683629478672"><ele>178.66666666666666</ele><time>2026-04-25T07:53:15.002Z</time></trkpt><trkpt lat="43.23346638196083" lon="11.373779047724746"><ele>179.0</ele><time>2026-04-25T07:53:16.002Z</time></trkpt><trkpt lat="43.23330138867641" lon="11.373902458441227"><ele>179.0</ele><time>2026-04-25T07:53:17.002Z</time></trkpt><trkpt lat="43.23315745533773" lon="11.374010756384033"><ele>179.0</ele><time>2026-04-25T07:53:18.002Z</time></trkpt><trkpt lat="43.2330300525006" lon="11.374103599336207"><ele>179.0</ele><time>2026-04-25T07:53:19.002Z</time></trkpt><trkpt lat="43.23290822118269" lon="11.374163851518684"><ele>179.0</ele><time>2026-04-25T07:53:20.002Z</time></trkpt><trkpt lat="43.23281032025834" lon="11.374253924136662"><ele>179.0</ele><time>2026-04-25T07:53:21.002Z</time></trkpt><trkpt lat="43.23270982623476" lon="11.37431208608366"><ele>179.0</ele><time>2026-04-25T07:53:22.002Z</time></trkpt><trkpt lat="43.232605723040365" lon="11.374369344483505"><ele>179.0</ele><time>2026-04-25T07:53:23.002Z</time></trkpt><trkpt lat="43.232498775080096" lon="11.374463469775904"><ele>179.0</ele><time>2026-04-25T07:53:24.002Z</time></trkpt><trkpt lat="43.232376127335286" lon="11.374537706240428"><ele>179.0</ele><time>2026-04-25T07:53:25.002Z</time></trkpt><trkpt lat="43.232243042278284" lon="11.374632183673544"><ele>179.0</ele><time>2026-04-25T07:53:26.002Z</time></trkpt><trkpt lat="43.232064184541024" lon="11.374760800498434"><ele>179.0</ele><time>2026-04-25T07:53:27.002Z</time></trkpt><trkpt lat="43.231868106186006" lon="11.374900072415803"><ele>179.0</ele><time>2026-04-25T07:53:28.002Z</time></trkpt><trkpt lat="43.23169013179907" lon="11.375027478473974"><ele>179.0</ele><time>2026-04-25T07:53:29.002Z</time></trkpt><trkpt lat="43.231537825200526" lon="11.37513669043109"><ele>179.0</ele><time>2026-04-25T07:53:30.002Z</time></trkpt><trkpt lat="43.2313962557617" lon="11.375240439263195"><ele>179.0</ele><time>2026-04-25T07:53:31.002Z</time></trkpt><trkpt lat="43.23126218457776" lon="11.375338928999865"><ele>179.0</ele><time>2026-04-25T07:53:32.002Z</time></trkpt><trkpt lat="43.231130674560866" lon="11.375435743632456"><ele>179.0</ele><time>2026-04-25T07:53:33.002Z</time></trkpt><trkpt lat="43.23100037546275" lon="11.375528550120762"><ele>179.0</ele><time>2026-04-25T07:53:34Z</time></trkpt><trkpt lat="43.23088136507008" lon="11.375615680850784"><ele>179.0</ele><time>2026-04-25T07:53:35Z</time></trkpt><trkpt lat="43.23076968499014" lon="11.375697589141614"><ele>179.0</ele><time>2026-04-25T07:53:36Z</time></trkpt><trkpt lat="43.230657524326" lon="11.375764148568418"><ele>179.0</ele><time>2026-04-25T07:53:37Z</time></trkpt><trkpt lat="43.230554754896524" lon="11.375842130971948"><ele>179.0</ele><time>2026-04-25T07:53:38Z</time></trkpt><trkpt lat="43.23045131697061" lon="11.375917637932142"><ele>180.0</ele><time>2026-04-25T07:53:39Z</time></trkpt><trkpt lat="43.23034974505999" lon="11.375992116888147"><ele>181.0</ele><time>2026-04-25T07:53:40Z</time></trkpt><trkpt lat="43.23024577246359" lon="11.376070997134326"><ele>182.0</ele><time>2026-04-25T07:53:41Z</time></trkpt><trkpt lat="43.230148026064306" lon="11.376147031383606"><ele>183.0</ele><time>2026-04-25T07:53:42Z</time></trkpt><trkpt lat="43.23005988886826" lon="11.376208204228787"><ele>184.0</ele><time>2026-04-25T07:53:43Z</time></trkpt><trkpt lat="43.22997863531052" lon="11.376271735428272"><ele>184.0</ele><time>2026-04-25T07:53:44Z</time></trkpt><trkpt lat="43.229898828802725" lon="11.376310460482578"><ele>184.0</ele><time>2026-04-25T07:53:45Z</time></trkpt><trkpt lat="43.22982868600701" lon="11.376363846541524"><ele>184.0</ele><time>2026-04-25T07:53:46Z</time></trkpt><trkpt lat="43.229763892683316" lon="11.376415542291893"><ele>184.0</ele><time>2026-04-25T07:53:47Z</time></trkpt><trkpt lat="43.229697056544715" lon="11.376481273080493"><ele>184.0</ele><time>2026-04-25T07:53:48Z</time></trkpt><trkpt lat="43.229620263958466" lon="11.376539632200993"><ele>184.0</ele><time>2026-04-25T07:53:49Z</time></trkpt><trkpt lat="43.229531645272466" lon="11.376603143670888"><ele>184.5</ele><time>2026-04-25T07:53:50Z</time></trkpt><trkpt lat="43.229422798116794" lon="11.376690442001449"><ele>185.0</ele><time>2026-04-25T07:53:51Z</time></trkpt><trkpt lat="43.229299466653146" lon="11.376802185623754"><ele>185.5</ele><time>2026-04-25T07:53:52Z</time></trkpt><trkpt lat="43.229180080478464" lon="11.376904061880175"><ele>186.0</ele><time>2026-04-25T07:53:53Z</time></trkpt><trkpt lat="43.22906440422539" lon="11.376998140459632"><ele>187.0</ele><time>2026-04-25T07:53:54Z</time></trkpt><trkpt lat="43.2289464952027" lon="11.377075068987747"><ele>188.0</ele><time>2026-04-25T07:53:55Z</time></trkpt><trkpt lat="43.228817587369946" lon="11.377145578440476"><ele>189.0</ele><time>2026-04-25T07:53:56Z</time></trkpt><trkpt lat="43.22868525637081" lon="11.377200890104707"><ele>190.0</ele><time>2026-04-25T07:53:57Z</time></trkpt><trkpt lat="43.228555229695836" lon="11.377240854745233"><ele>187.0</ele><time>2026-04-25T07:53:58Z</time></trkpt><trkpt lat="43.22841983736771" lon="11.377238922256492"><ele>184.0</ele><time>2026-04-25T07:53:59Z</time></trkpt><trkpt lat="43.22828034616609" lon="11.377271436565069"><ele>181.0</ele><time>2026-04-25T07:54:00Z</time></trkpt><trkpt lat="43.22812296928251" lon="11.377279696517679"><ele>178.0</ele><time>2026-04-25T07:54:01Z</time></trkpt><trkpt lat="43.22797822915501" lon="11.377289907142888"><ele>178.0</ele><time>2026-04-25T07:54:02Z</time></trkpt><trkpt lat="43.227829892514606" lon="11.377302478873728"><ele>178.0</ele><time>2026-04-25T07:54:03Z</time></trkpt><trkpt lat="43.22768862151919" lon="11.377308067213558"><ele>178.0</ele><time>2026-04-25T07:54:04.001Z</time></trkpt><trkpt lat="43.22754797718335" lon="11.377307596284949"><ele>178.0</ele><time>2026-04-25T07:54:05.001Z</time></trkpt><trkpt lat="43.22741020835897" lon="11.377296233509968"><ele>177.75</ele><time>2026-04-25T07:54:06.001Z</time></trkpt><trkpt lat="43.2272777091836" lon="11.37726797069954"><ele>177.5</ele><time>2026-04-25T07:54:07.001Z</time></trkpt><trkpt lat="43.22714555580148" lon="11.377225009742052"><ele>177.25</ele><time>2026-04-25T07:54:08.001Z</time></trkpt><trkpt lat="43.227015982548544" lon="11.377159545150537"><ele>177.0</ele><time>2026-04-25T07:54:09.001Z</time></trkpt><trkpt lat="43.22687267015834" lon="11.377069551120222"><ele>177.0</ele><time>2026-04-25T07:54:10.001Z</time></trkpt><trkpt lat="43.2267349453644" lon="11.376967306358514"><ele>177.0</ele><time>2026-04-25T07:54:11.001Z</time></trkpt><trkpt lat="43.2266094797458" lon="11.376858859547303"><ele>177.0</ele><time>2026-04-25T07:54:12.001Z</time></trkpt><trkpt lat="43.22649454012819" lon="11.37674310980814"><ele>177.0</ele><time>2026-04-25T07:54:13.001Z</time></trkpt><trkpt lat="43.22639557528781" lon="11.376623871134896"><ele>177.0</ele><time>2026-04-25T07:54:14.001Z</time></trkpt><trkpt lat="43.22630719288863" lon="11.376487737024044"><ele>177.0</ele><time>2026-04-25T07:54:15.001Z</time></trkpt><trkpt lat="43.226245552583535" lon="11.37632976474212"><ele>177.0</ele><time>2026-04-25T07:54:16.001Z</time></trkpt><trkpt lat="43.22618116179031" lon="11.376188300872641"><ele>177.0</ele><time>2026-04-25T07:54:17.001Z</time></trkpt><trkpt lat="43.226124782683975" lon="11.376044451002471"><ele>177.25</ele><time>2026-04-25T07:54:18.001Z</time></trkpt><trkpt lat="43.226063186208506" lon="11.375891684978248"><ele>177.5</ele><time>2026-04-25T07:54:19.001Z</time></trkpt><trkpt lat="43.226042508837025" lon="11.375720608286263"><ele>177.75</ele><time>2026-04-25T07:54:20.001Z</time></trkpt><trkpt lat="43.22603114813825" lon="11.37556564504206"><ele>178.0</ele><time>2026-04-25T07:54:21.001Z</time></trkpt><trkpt lat="43.22602533378343" lon="11.375401593647004"><ele>178.0</ele><time>2026-04-25T07:54:22.001Z</time></trkpt><trkpt lat="43.22603371434628" lon="11.375221956065735"><ele>178.0</ele><time>2026-04-25T07:54:23.001Z</time></trkpt><trkpt lat="43.2260543998416" lon="11.374989856622781"><ele>178.0</ele><time>2026-04-25T07:54:24.001Z</time></trkpt><trkpt lat="43.226082640919785" lon="11.374723888754255"><ele>177.66666666666669</ele><time>2026-04-25T07:54:25.001Z</time></trkpt><trkpt lat="43.22610940506607" lon="11.374491644062521"><ele>177.33333333333334</ele><time>2026-04-25T07:54:26.001Z</time></trkpt><trkpt lat="43.22613002936801" lon="11.374268175281783"><ele>177.0</ele><time>2026-04-25T07:54:27.001Z</time></trkpt><trkpt lat="43.22614573431164" lon="11.374058765304248"><ele>177.33333333333334</ele><time>2026-04-25T07:54:28.001Z</time></trkpt><trkpt lat="43.22614891126713" lon="11.373852631556455"><ele>177.66666666666669</ele><time>2026-04-25T07:54:29.001Z</time></trkpt><trkpt lat="43.22612558161237" lon="11.373643333890325"><ele>178.0</ele><time>2026-04-25T07:54:30.001Z</time></trkpt><trkpt lat="43.2260780814384" lon="11.373433451203866"><ele>178.0</ele><time>2026-04-25T07:54:31.001Z</time></trkpt><trkpt lat="43.226016377173686" lon="11.373206621303385"><ele>178.0</ele><time>2026-04-25T07:54:32.001Z</time></trkpt><trkpt lat="43.22593733350687" lon="11.372950074968559"><ele>178.0</ele><time>2026-04-25T07:54:33.001Z</time></trkpt><trkpt lat="43.22586154416506" lon="11.372711525669715"><ele>178.5</ele><time>2026-04-25T07:54:34.001Z</time></trkpt><trkpt lat="43.22580435904887" lon="11.372522499494021"><ele>179.0</ele><time>2026-04-25T07:54:35.001Z</time></trkpt><trkpt lat="43.22575534283077" lon="11.372372206240602"><ele>179.5</ele><time>2026-04-25T07:54:36.001Z</time></trkpt><trkpt lat="43.22569856215141" lon="11.372254434788136"><ele>180.0</ele><time>2026-04-25T07:54:37.001Z</time></trkpt><trkpt lat="43.22563144452244" lon="11.372192198254071"><ele>180.0</ele><time>2026-04-25T07:54:38.001Z</time></trkpt><trkpt lat="43.22556003546405" lon="11.372132954712077"><ele>180.0</ele><time>2026-04-25T07:54:40.001Z</time></trkpt><trkpt lat="43.22549122056614" lon="11.372127279518079"><ele>180.0</ele><time>2026-04-25T07:54:42.001Z</time></trkpt><trkpt lat="43.22538820981835" lon="11.372190960796576"><ele>180.0</ele><time>2026-04-25T07:54:45.001Z</time></trkpt><trkpt lat="43.225332175570216" lon="11.372253538510199"><ele>180.0</ele><time>2026-04-25T07:54:46.001Z</time></trkpt><trkpt lat="43.22527524831704" lon="11.372351674485166"><ele>180.0</ele><time>2026-04-25T07:54:47.001Z</time></trkpt><trkpt lat="43.22521915480724" lon="11.372499405654061"><ele>180.0</ele><time>2026-04-25T07:54:48.001Z</time></trkpt><trkpt lat="43.225158651986106" lon="11.37267334100173"><ele>180.0</ele><time>2026-04-25T07:54:49.001Z</time></trkpt><trkpt lat="43.22509995008048" lon="11.372847752847042"><ele>180.0</ele><time>2026-04-25T07:54:50.001Z</time></trkpt><trkpt lat="43.22503979462352" lon="11.373005018312636"><ele>180.0</ele><time>2026-04-25T07:54:51.001Z</time></trkpt><trkpt lat="43.22497395636344" lon="11.373145747624186"><ele>180.0</ele><time>2026-04-25T07:54:52.001Z</time></trkpt><trkpt lat="43.2249020036867" lon="11.373261400304202"><ele>180.0</ele><time>2026-04-25T07:54:53.001Z</time></trkpt><trkpt lat="43.22482069285279" lon="11.373357630033517"><ele>180.0</ele><time>2026-04-25T07:54:54.001Z</time></trkpt><trkpt lat="43.2247271299532" lon="11.373432637449477"><ele>180.0</ele><time>2026-04-25T07:54:55.001Z</time></trkpt><trkpt lat="43.22462065118297" lon="11.373488245545401"><ele>180.0</ele><time>2026-04-25T07:54:56.001Z</time></trkpt><trkpt lat="43.22450804948314" lon="11.373527110792974"><ele>181.6</ele><time>2026-04-25T07:54:57.001Z</time></trkpt><trkpt lat="43.224411402865734" lon="11.37354053608718"><ele>183.2</ele><time>2026-04-25T07:54:58.001Z</time></trkpt><trkpt lat="43.224306724656444" lon="11.373536879353527"><ele>184.8</ele><time>2026-04-25T07:54:59.001Z</time></trkpt><trkpt lat="43.22420755896567" lon="11.373492968774567"><ele>186.4</ele><time>2026-04-25T07:55:00.001Z</time></trkpt><trkpt lat="43.22410313842064" lon="11.373449230580519"><ele>188.0</ele><time>2026-04-25T07:55:01.001Z</time></trkpt><trkpt lat="43.22400124870525" lon="11.373389038807733"><ele>191.60000000000002</ele><time>2026-04-25T07:55:02.001Z</time></trkpt><trkpt lat="43.22390533504771" lon="11.373313129355804"><ele>195.20000000000002</ele><time>2026-04-25T07:55:03.001Z</time></trkpt><trkpt lat="43.22381884854211" lon="11.3732255823148"><ele>198.8</ele><time>2026-04-25T07:55:04.001Z</time></trkpt><trkpt lat="43.2237450617564" lon="11.37312783459345"><ele>202.4</ele><time>2026-04-25T07:55:05.001Z</time></trkpt><trkpt lat="43.22368143790885" lon="11.37301112565714"><ele>206.0</ele><time>2026-04-25T07:55:06.001Z</time></trkpt><trkpt lat="43.22363359168524" lon="11.37288301178572"><ele>206.0</ele><time>2026-04-25T07:55:07.001Z</time></trkpt><trkpt lat="43.22360088418279" lon="11.372748209186106"><ele>206.0</ele><time>2026-04-25T07:55:08.001Z</time></trkpt><trkpt lat="43.22359696475392" lon="11.372631789962337"><ele>206.0</ele><time>2026-04-25T07:55:09.001Z</time></trkpt><trkpt lat="43.22359936090434" lon="11.372510953864339"><ele>206.0</ele><time>2026-04-25T07:55:10.001Z</time></trkpt><trkpt lat="43.22361686730354" lon="11.372365373823149"><ele>206.0</ele><time>2026-04-25T07:55:11.001Z</time></trkpt><trkpt lat="43.22364046978365" lon="11.372190203272753"><ele>206.0</ele><time>2026-04-25T07:55:12.001Z</time></trkpt><trkpt lat="43.22365930755224" lon="11.37202396963253"><ele>206.0</ele><time>2026-04-25T07:55:13.001Z</time></trkpt><trkpt lat="43.22365666226438" lon="11.371874179407808"><ele>206.0</ele><time>2026-04-25T07:55:14.001Z</time></trkpt><trkpt lat="43.22364267097916" lon="11.371745577333035"><ele>206.0</ele><time>2026-04-25T07:55:15.001Z</time></trkpt><trkpt lat="43.22361247326042" lon="11.371624223089675"><ele>206.0</ele><time>2026-04-25T07:55:16.001Z</time></trkpt><trkpt lat="43.223553681095325" lon="11.371492570747279"><ele>206.00000000000003</ele><time>2026-04-25T07:55:17.002Z</time></trkpt><trkpt lat="43.22348975021665" lon="11.37138985910736"><ele>206.0</ele><time>2026-04-25T07:55:18.002Z</time></trkpt><trkpt lat="43.22342788246167" lon="11.371305640950206"><ele>206.0</ele><time>2026-04-25T07:55:19.002Z</time></trkpt><trkpt lat="43.223367508517924" lon="11.37123802672851"><ele>206.0</ele><time>2026-04-25T07:55:20.002Z</time></trkpt><trkpt lat="43.22331195895007" lon="11.371184655722185"><ele>206.00000000000003</ele><time>2026-04-25T07:55:21.002Z</time></trkpt><trkpt lat="43.223251373638114" lon="11.371142244316932"><ele>206.0</ele><time>2026-04-25T07:55:22.002Z</time></trkpt><trkpt lat="43.22314914259841" lon="11.371152288679232"><ele>206.33333333333334</ele><time>2026-04-25T07:55:24.002Z</time></trkpt><trkpt lat="43.22303946068006" lon="11.371183205917058"><ele>206.66666666666669</ele><time>2026-04-25T07:55:26.002Z</time></trkpt><trkpt lat="43.222980668871365" lon="11.371215222159053"><ele>207.0</ele><time>2026-04-25T07:55:27.002Z</time></trkpt><trkpt lat="43.222927365590756" lon="11.371272417173758"><ele>207.33333333333331</ele><time>2026-04-25T07:55:28.002Z</time></trkpt><trkpt lat="43.22288110235433" lon="11.371355646362714"><ele>207.66666666666666</ele><time>2026-04-25T07:55:29.002Z</time></trkpt><trkpt lat="43.22281972768895" lon="11.371434464626425"><ele>208.0</ele><time>2026-04-25T07:55:30.002Z</time></trkpt><trkpt lat="43.2227689018824" lon="11.371526919855564"><ele>208.0</ele><time>2026-04-25T07:55:31.002Z</time></trkpt><trkpt lat="43.22272024574911" lon="11.371624097540083"><ele>208.0</ele><time>2026-04-25T07:55:32.002Z</time></trkpt><trkpt lat="43.22266999361945" lon="11.37172474353834"><ele>208.0</ele><time>2026-04-25T07:55:33.002Z</time></trkpt><trkpt lat="43.22261765811897" lon="11.371839814121854"><ele>208.0</ele><time>2026-04-25T07:55:34.002Z</time></trkpt><trkpt lat="43.22255469340741" lon="11.371955816854996"><ele>208.0</ele><time>2026-04-25T07:55:35.002Z</time></trkpt><trkpt lat="43.22248416152887" lon="11.372066847619122"><ele>208.0</ele><time>2026-04-25T07:55:36.002Z</time></trkpt><trkpt lat="43.22239656558372" lon="11.372151917650367"><ele>208.0</ele><time>2026-04-25T07:55:37.002Z</time></trkpt><trkpt lat="43.22231279222932" lon="11.372246039332559"><ele>208.0</ele><time>2026-04-25T07:55:38.002Z</time></trkpt><trkpt lat="43.22221627961106" lon="11.372372776942626"><ele>208.0</ele><time>2026-04-25T07:55:39.002Z</time></trkpt><trkpt lat="43.222094790516564" lon="11.372482187008865"><ele>211.25</ele><time>2026-04-25T07:55:40.001Z</time></trkpt><trkpt lat="43.22198078772639" lon="11.372568210431437"><ele>214.5</ele><time>2026-04-25T07:55:41.001Z</time></trkpt><trkpt lat="43.2218642696294" lon="11.372628532115142"><ele>217.75</ele><time>2026-04-25T07:55:42.001Z</time></trkpt><trkpt lat="43.221734936303584" lon="11.372643705602066"><ele>221.0</ele><time>2026-04-25T07:55:43.001Z</time></trkpt><trkpt lat="43.22162259643797" lon="11.37269262134444"><ele>221.0</ele><time>2026-04-25T07:55:44.001Z</time></trkpt><trkpt lat="43.22152083724321" lon="11.372707985731521"><ele>221.00000000000003</ele><time>2026-04-25T07:55:45.001Z</time></trkpt><trkpt lat="43.221423855068586" lon="11.372726581174579"><ele>221.00000000000003</ele><time>2026-04-25T07:55:46.001Z</time></trkpt><trkpt lat="43.22132560308557" lon="11.372746170228654"><ele>221.0</ele><time>2026-04-25T07:55:47Z</time></trkpt><trkpt lat="43.221226511386476" lon="11.3727679450672"><ele>221.0</ele><time>2026-04-25T07:55:48Z</time></trkpt><trkpt lat="43.221102717804754" lon="11.37279724630125"><ele>223.0</ele><time>2026-04-25T07:55:49Z</time></trkpt><trkpt lat="43.220938629024346" lon="11.37283836760718"><ele>225.0</ele><time>2026-04-25T07:55:50Z</time></trkpt><trkpt lat="43.22075609790046" lon="11.372868913953173"><ele>227.0</ele><time>2026-04-25T07:55:51Z</time></trkpt><trkpt lat="43.2205997593009" lon="11.372898901005595"><ele>229.66666666666669</ele><time>2026-04-25T07:55:52Z</time></trkpt><trkpt lat="43.22043799323997" lon="11.372932541757185"><ele>232.33333333333331</ele><time>2026-04-25T07:55:53Z</time></trkpt><trkpt lat="43.22027470915404" lon="11.372977867867439"><ele>235.0</ele><time>2026-04-25T07:55:54Z</time></trkpt><trkpt lat="43.220133553257064" lon="11.373004829208522"><ele>234.0</ele><time>2026-04-25T07:55:55Z</time></trkpt><trkpt lat="43.219999332049376" lon="11.373031267116803"><ele>233.0</ele><time>2026-04-25T07:55:56Z</time></trkpt><trkpt lat="43.21988210993929" lon="11.373056723650912"><ele>232.0</ele><time>2026-04-25T07:55:57Z</time></trkpt><trkpt lat="43.219769542429894" lon="11.373052142922857"><ele>231.0</ele><time>2026-04-25T07:55:58Z</time></trkpt><trkpt lat="43.21966343303427" lon="11.373080394315183"><ele>233.60000000000002</ele><time>2026-04-25T07:55:59Z</time></trkpt><trkpt lat="43.21956194973835" lon="11.373080031411337"><ele>236.20000000000002</ele><time>2026-04-25T07:56:00Z</time></trkpt><trkpt lat="43.219454701642945" lon="11.373080996349978"><ele>238.79999999999998</ele><time>2026-04-25T07:56:01Z</time></trkpt><trkpt lat="43.219353562618224" lon="11.373066568838905"><ele>241.39999999999998</ele><time>2026-04-25T07:56:02Z</time></trkpt><trkpt lat="43.21925802345149" lon="11.373050510928243"><ele>244.0</ele><time>2026-04-25T07:56:03Z</time></trkpt><trkpt lat="43.21916351155318" lon="11.373036775108574"><ele>245.33333333333331</ele><time>2026-04-25T07:56:04Z</time></trkpt><trkpt lat="43.21906915374723" lon="11.373020584160969"><ele>246.66666666666666</ele><time>2026-04-25T07:56:05Z</time></trkpt><trkpt lat="43.21899223032886" lon="11.373002680341399"><ele>248.0</ele><time>2026-04-25T07:56:06Z</time></trkpt><trkpt lat="43.2189306157501" lon="11.372963872045608"><ele>249.33333333333331</ele><time>2026-04-25T07:56:07Z</time></trkpt><trkpt lat="43.21885850946501" lon="11.372945190054754"><ele>250.66666666666666</ele><time>2026-04-25T07:56:08Z</time></trkpt><trkpt lat="43.21876849700424" lon="11.37290998379046"><ele>252.0</ele><time>2026-04-25T07:56:09Z</time></trkpt><trkpt lat="43.21868325554286" lon="11.372859598575314"><ele>252.0</ele><time>2026-04-25T07:56:10Z</time></trkpt><trkpt lat="43.21858603036303" lon="11.372811318776819"><ele>252.0</ele><time>2026-04-25T07:56:11.001Z</time></trkpt><trkpt lat="43.21848275594733" lon="11.372758893348154"><ele>252.0</ele><time>2026-04-25T07:56:12.001Z</time></trkpt><trkpt lat="43.218389170591955" lon="11.372705050531476"><ele>252.0</ele><time>2026-04-25T07:56:13.001Z</time></trkpt><trkpt lat="43.21830349393946" lon="11.372651541191487"><ele>252.0</ele><time>2026-04-25T07:56:14.001Z</time></trkpt><trkpt lat="43.21821725446138" lon="11.372616766858497"><ele>250.0</ele><time>2026-04-25T07:56:15.001Z</time></trkpt><trkpt lat="43.21813473926791" lon="11.372573761911633"><ele>248.0</ele><time>2026-04-25T07:56:16.001Z</time></trkpt><trkpt lat="43.21805964810746" lon="11.372530510745776"><ele>246.0</ele><time>2026-04-25T07:56:17.001Z</time></trkpt><trkpt lat="43.21799389095349" lon="11.372501495117644"><ele>244.0</ele><time>2026-04-25T07:56:18.001Z</time></trkpt><trkpt lat="43.217894678213725" lon="11.372451555919179"><ele>242.0</ele><time>2026-04-25T07:56:20.001Z</time></trkpt><trkpt lat="43.21779318231312" lon="11.372410275789962"><ele>242.00000000000003</ele><time>2026-04-25T07:56:22.001Z</time></trkpt><trkpt lat="43.21770301179047" lon="11.372367627830505"><ele>242.0</ele><time>2026-04-25T07:56:24.001Z</time></trkpt><trkpt lat="43.21761870937087" lon="11.372322970362813"><ele>242.0</ele><time>2026-04-25T07:56:26.001Z</time></trkpt><trkpt lat="43.2175377100357" lon="11.372282709025333"><ele>242.0</ele><time>2026-04-25T07:56:28.001Z</time></trkpt><trkpt lat="43.21746413607828" lon="11.372251267996168"><ele>242.00000000000003</ele><time>2026-04-25T07:56:30.001Z</time></trkpt><trkpt lat="43.217403209381324" lon="11.37220820237906"><ele>242.0</ele><time>2026-04-25T07:56:32.001Z</time></trkpt><trkpt lat="43.21733616900974" lon="11.372189506823899"><ele>241.33333333333334</ele><time>2026-04-25T08:04:02.001Z</time></trkpt><trkpt lat="43.2172715779232" lon="11.37219408562828"><ele>240.66666666666669</ele><time>2026-04-25T08:04:05.001Z</time></trkpt><trkpt lat="43.21719451732212" lon="11.372136422788858"><ele>240.0</ele><time>2026-04-25T08:04:07.001Z</time></trkpt><trkpt lat="43.217103018121804" lon="11.372092501053432"><ele>239.33333333333331</ele><time>2026-04-25T08:04:09.001Z</time></trkpt><trkpt lat="43.21704103148155" lon="11.372052456069262"><ele>238.66666666666666</ele><time>2026-04-25T08:04:10.001Z</time></trkpt><trkpt lat="43.2169645029533" lon="11.371985317888411"><ele>238.0</ele><time>2026-04-25T08:04:11.001Z</time></trkpt><trkpt lat="43.21685757388818" lon="11.37193062250272"><ele>238.0</ele><time>2026-04-25T08:04:12.001Z</time></trkpt><trkpt lat="43.21672991831311" lon="11.371865325314063"><ele>238.0</ele><time>2026-04-25T08:04:13.001Z</time></trkpt><trkpt lat="43.21663186320198" lon="11.371815169088295"><ele>238.0</ele><time>2026-04-25T08:04:14.001Z</time></trkpt><trkpt lat="43.21654652375067" lon="11.371771517074498"><ele>238.0</ele><time>2026-04-25T08:04:15.001Z</time></trkpt><trkpt lat="43.216445325818256" lon="11.371719753222884"><ele>238.0</ele><time>2026-04-25T08:04:16.001Z</time></trkpt><trkpt lat="43.21632894751558" lon="11.37166022439262"><ele>239.2</ele><time>2026-04-25T08:04:17.001Z</time></trkpt><trkpt lat="43.21623996270979" lon="11.371616403355503"><ele>240.4</ele><time>2026-04-25T08:04:18.001Z</time></trkpt><trkpt lat="43.21615747256157" lon="11.371578458750811"><ele>241.59999999999997</ele><time>2026-04-25T08:04:19.001Z</time></trkpt><trkpt lat="43.216074171387646" lon="11.371551921100288"><ele>242.79999999999998</ele><time>2026-04-25T08:04:20.001Z</time></trkpt><trkpt lat="43.21599608294135" lon="11.371493611700688"><ele>244.0</ele><time>2026-04-25T08:04:21Z</time></trkpt><trkpt lat="43.215911660293756" lon="11.371437996144172"><ele>243.99999999999997</ele><time>2026-04-25T08:04:22Z</time></trkpt><trkpt lat="43.21582460676688" lon="11.371398726732552"><ele>244.0</ele><time>2026-04-25T08:04:23Z</time></trkpt><trkpt lat="43.21576428995961" lon="11.371321749096355"><ele>244.0</ele><time>2026-04-25T08:04:24Z</time></trkpt><trkpt lat="43.21570926158801" lon="11.371252468871807"><ele>244.0</ele><time>2026-04-25T08:04:25Z</time></trkpt><trkpt lat="43.21564146385093" lon="11.371170146336713"><ele>243.99999999999997</ele><time>2026-04-25T08:04:26Z</time></trkpt><trkpt lat="43.21556339557739" lon="11.37107861115259"><ele>244.0</ele><time>2026-04-25T08:04:27Z</time></trkpt><trkpt lat="43.215473660040786" lon="11.371014303649922"><ele>243.2</ele><time>2026-04-25T08:04:28Z</time></trkpt><trkpt lat="43.21538655054097" lon="11.370931726325901"><ele>242.39999999999998</ele><time>2026-04-25T08:04:29Z</time></trkpt><trkpt lat="43.21528039877319" lon="11.370859232529664"><ele>241.6</ele><time>2026-04-25T08:04:30Z</time></trkpt><trkpt lat="43.215185906358315" lon="11.370778356308746"><ele>240.8</ele><time>2026-04-25T08:04:31Z</time></trkpt><trkpt lat="43.215087832897495" lon="11.370728860747597"><ele>240.0</ele><time>2026-04-25T08:04:32Z</time></trkpt><trkpt lat="43.21498142775345" lon="11.370711110346374"><ele>240.0</ele><time>2026-04-25T08:04:33Z</time></trkpt><trkpt lat="43.214877257205124" lon="11.370686991089661"><ele>240.0</ele><time>2026-04-25T08:04:34Z</time></trkpt><trkpt lat="43.21477779162052" lon="11.370659911100889"><ele>240.0</ele><time>2026-04-25T08:04:35Z</time></trkpt><trkpt lat="43.214664320397" lon="11.370701195182573"><ele>240.0</ele><time>2026-04-25T08:04:36Z</time></trkpt><trkpt lat="43.214570062820755" lon="11.370766469516393"><ele>240.0</ele><time>2026-04-25T08:04:37Z</time></trkpt><trkpt lat="43.21446676805351" lon="11.370832361759707"><ele>237.0</ele><time>2026-04-25T08:04:38Z</time></trkpt><trkpt lat="43.21434610915684" lon="11.370882993365216"><ele>234.0</ele><time>2026-04-25T08:04:39Z</time></trkpt><trkpt lat="43.21423741773542" lon="11.370976972348906"><ele>231.0</ele><time>2026-04-25T08:04:40Z</time></trkpt><trkpt lat="43.21412394208219" lon="11.371038658638145"><ele>228.0</ele><time>2026-04-25T08:04:41Z</time></trkpt><trkpt lat="43.21401706530548" lon="11.371110246839995"><ele>226.5</ele><time>2026-04-25T08:04:42Z</time></trkpt><trkpt lat="43.21391106457622" lon="11.371181389658766"><ele>225.0</ele><time>2026-04-25T08:04:43Z</time></trkpt><trkpt lat="43.213807483256716" lon="11.37125175410802"><ele>223.5</ele><time>2026-04-25T08:04:44Z</time></trkpt><trkpt lat="43.21370106726572" lon="11.371304912308716"><ele>222.0</ele><time>2026-04-25T08:04:45Z</time></trkpt><trkpt lat="43.213603813461624" lon="11.371362929601828"><ele>222.0</ele><time>2026-04-25T08:04:46Z</time></trkpt><trkpt lat="43.21350514384239" lon="11.371393054051234"><ele>222.0</ele><time>2026-04-25T08:04:47Z</time></trkpt><trkpt lat="43.21341480333459" lon="11.37140423654948"><ele>222.0</ele><time>2026-04-25T08:04:48Z</time></trkpt><trkpt lat="43.21333713295381" lon="11.371355692838442"><ele>222.0</ele><time>2026-04-25T08:04:49Z</time></trkpt><trkpt lat="43.21327722090509" lon="11.371258046786682"><ele>222.0</ele><time>2026-04-25T08:04:50Z</time></trkpt><trkpt lat="43.21322420557886" lon="11.371180546573374"><ele>222.0</ele><time>2026-04-25T08:04:51.001Z</time></trkpt><trkpt lat="43.2131821087787" lon="11.37109881415274"><ele>222.0</ele><time>2026-04-25T08:04:52.001Z</time></trkpt><trkpt lat="43.213141288269064" lon="11.371023360715323"><ele>222.0</ele><time>2026-04-25T08:04:53.001Z</time></trkpt><trkpt lat="43.21309932095546" lon="11.370943850730514"><ele>222.0</ele><time>2026-04-25T08:04:54.001Z</time></trkpt><trkpt lat="43.213057395470905" lon="11.370864613198783"><ele>222.0</ele><time>2026-04-25T08:04:55.001Z</time></trkpt><trkpt lat="43.21301667819423" lon="11.370784949715732"><ele>222.0</ele><time>2026-04-25T08:04:56.001Z</time></trkpt><trkpt lat="43.21295353609494" lon="11.370658134395455"><ele>222.0</ele><time>2026-04-25T08:04:58.001Z</time></trkpt><trkpt lat="43.21291123638857" lon="11.370570698339447"><ele>222.83333333333334</ele><time>2026-04-25T08:05:00.001Z</time></trkpt><trkpt lat="43.212869952411765" lon="11.370485362344473"><ele>223.66666666666669</ele><time>2026-04-25T08:05:03.001Z</time></trkpt><trkpt lat="43.21283319604906" lon="11.370404991232409"><ele>224.5</ele><time>2026-04-25T08:05:05.001Z</time></trkpt><trkpt lat="43.212765537218196" lon="11.370262339021739"><ele>225.33333333333334</ele><time>2026-04-25T08:05:07.001Z</time></trkpt><trkpt lat="43.21272643097259" lon="11.3701827150424"><ele>226.16666666666669</ele><time>2026-04-25T08:05:08.001Z</time></trkpt><trkpt lat="43.21268273856196" lon="11.370096784774844"><ele>227.0</ele><time>2026-04-25T08:05:09.001Z</time></trkpt><trkpt lat="43.21263305969504" lon="11.370004392197336"><ele>227.0</ele><time>2026-04-25T08:05:10.001Z</time></trkpt><trkpt lat="43.212569267064445" lon="11.369893993875213"><ele>227.0</ele><time>2026-04-25T08:05:11.001Z</time></trkpt><trkpt lat="43.21250440034583" lon="11.369787515739064"><ele>227.0</ele><time>2026-04-25T08:05:12.001Z</time></trkpt><trkpt lat="43.21242122026096" lon="11.369655212791002"><ele>227.0</ele><time>2026-04-25T08:05:13.001Z</time></trkpt><trkpt lat="43.21233420455814" lon="11.369519700653667"><ele>228.39999999999998</ele><time>2026-04-25T08:05:14.001Z</time></trkpt><trkpt lat="43.212249632331954" lon="11.369384352546621"><ele>229.79999999999998</ele><time>2026-04-25T08:05:15.001Z</time></trkpt><trkpt lat="43.212165753470245" lon="11.369263396327009"><ele>231.2</ele><time>2026-04-25T08:05:16.001Z</time></trkpt><trkpt lat="43.21207762711409" lon="11.369187235584167"><ele>232.6</ele><time>2026-04-25T08:05:17.001Z</time></trkpt><trkpt lat="43.21200611840865" lon="11.369110018319835"><ele>234.0</ele><time>2026-04-25T08:05:18.001Z</time></trkpt><trkpt lat="43.21192064351587" lon="11.36904224459874"><ele>234.0</ele><time>2026-04-25T08:05:19.001Z</time></trkpt><trkpt lat="43.21182515906036" lon="11.368967972772916"><ele>233.99999999999997</ele><time>2026-04-25T08:05:20.001Z</time></trkpt><trkpt lat="43.21172908082879" lon="11.368904160128988"><ele>233.99999999999997</ele><time>2026-04-25T08:05:21.001Z</time></trkpt><trkpt lat="43.21163431989785" lon="11.36884535561151"><ele>234.0</ele><time>2026-04-25T08:05:22.001Z</time></trkpt><trkpt lat="43.21153454662075" lon="11.368795739508176"><ele>234.0</ele><time>2026-04-25T08:05:23.001Z</time></trkpt><trkpt lat="43.2114288120579" lon="11.368749607401673"><ele>233.75</ele><time>2026-04-25T08:05:24.001Z</time></trkpt><trkpt lat="43.211321435318474" lon="11.368707064849726"><ele>233.5</ele><time>2026-04-25T08:05:25.001Z</time></trkpt><trkpt lat="43.21119629175575" lon="11.368644861931845"><ele>233.25</ele><time>2026-04-25T08:05:26.001Z</time></trkpt><trkpt lat="43.21105904723203" lon="11.368596702115617"><ele>233.0</ele><time>2026-04-25T08:05:27.001Z</time></trkpt><trkpt lat="43.21093544520251" lon="11.368555560922646"><ele>233.0</ele><time>2026-04-25T08:05:28.001Z</time></trkpt><trkpt lat="43.21080988230362" lon="11.368536944319516"><ele>233.0</ele><time>2026-04-25T08:05:29.001Z</time></trkpt><trkpt lat="43.21068607118316" lon="11.368495634240332"><ele>233.0</ele><time>2026-04-25T08:05:30.001Z</time></trkpt><trkpt lat="43.21056406478344" lon="11.368444124685604"><ele>233.0</ele><time>2026-04-25T08:05:31.001Z</time></trkpt><trkpt lat="43.21044501571101" lon="11.368413328233569"><ele>232.5</ele><time>2026-04-25T08:05:32.001Z</time></trkpt><trkpt lat="43.210326995290266" lon="11.368369537880811"><ele>232.0</ele><time>2026-04-25T08:05:33.001Z</time></trkpt><trkpt lat="43.21020643266556" lon="11.368328296119845"><ele>231.5</ele><time>2026-04-25T08:05:34.001Z</time></trkpt><trkpt lat="43.2100745305617" lon="11.368264990807871"><ele>231.0</ele><time>2026-04-25T08:05:35.001Z</time></trkpt><trkpt lat="43.20995830296193" lon="11.368239816387643"><ele>231.0</ele><time>2026-04-25T08:05:36.001Z</time></trkpt><trkpt lat="43.20986157403928" lon="11.368218216266131"><ele>231.00000000000003</ele><time>2026-04-25T08:05:37.001Z</time></trkpt><trkpt lat="43.20977332747986" lon="11.368203460063448"><ele>231.00000000000003</ele><time>2026-04-25T08:05:38.001Z</time></trkpt><trkpt lat="43.20969286769484" lon="11.368217133123302"><ele>231.0</ele><time>2026-04-25T08:05:39.001Z</time></trkpt><trkpt lat="43.20960691588101" lon="11.368238153689724"><ele>231.0</ele><time>2026-04-25T08:05:40.001Z</time></trkpt><trkpt lat="43.20954015037283" lon="11.368345323267548"><ele>234.5</ele><time>2026-04-25T08:05:41.001Z</time></trkpt><trkpt lat="43.209459169620274" lon="11.368431903451008"><ele>238.0</ele><time>2026-04-25T08:05:42.001Z</time></trkpt><trkpt lat="43.209383868710134" lon="11.368551603044802"><ele>241.5</ele><time>2026-04-25T08:05:43.001Z</time></trkpt><trkpt lat="43.20930910667204" lon="11.368674439299001"><ele>245.0</ele><time>2026-04-25T08:05:44.001Z</time></trkpt><trkpt lat="43.20923373995697" lon="11.36879575384629"><ele>243.5</ele><time>2026-04-25T08:05:45.001Z</time></trkpt><trkpt lat="43.20914570843701" lon="11.368926786774152"><ele>242.0</ele><time>2026-04-25T08:05:46.001Z</time></trkpt><trkpt lat="43.20905063752029" lon="11.369066182415608"><ele>240.5</ele><time>2026-04-25T08:05:47.001Z</time></trkpt><trkpt lat="43.20895978756134" lon="11.36919650594842"><ele>239.0</ele><time>2026-04-25T08:05:48.001Z</time></trkpt><trkpt lat="43.2088730575365" lon="11.36931778243444"><ele>242.5</ele><time>2026-04-25T08:05:49.001Z</time></trkpt><trkpt lat="43.20878609156864" lon="11.369438485663316"><ele>246.0</ele><time>2026-04-25T08:05:50.001Z</time></trkpt><trkpt lat="43.208696496666164" lon="11.369559591230676"><ele>249.5</ele><time>2026-04-25T08:05:51.001Z</time></trkpt><trkpt lat="43.20861033166153" lon="11.369675454742655"><ele>253.0</ele><time>2026-04-25T08:05:52.001Z</time></trkpt><trkpt lat="43.20852929137683" lon="11.369784427189678"><ele>253.0</ele><time>2026-04-25T08:05:53.001Z</time></trkpt><trkpt lat="43.208457375917" lon="11.369881129739278"><ele>253.0</ele><time>2026-04-25T08:05:54.001Z</time></trkpt><trkpt lat="43.208383460491866" lon="11.369980521561088"><ele>253.0</ele><time>2026-04-25T08:05:55.001Z</time></trkpt><trkpt lat="43.20830742589168" lon="11.37008515972122"><ele>253.0</ele><time>2026-04-25T08:05:56.001Z</time></trkpt><trkpt lat="43.20824364975055" lon="11.370205143309386"><ele>253.0</ele><time>2026-04-25T08:05:57.001Z</time></trkpt><trkpt lat="43.20814055425595" lon="11.370316064022653"><ele>256.4</ele><time>2026-04-25T08:05:58.001Z</time></trkpt><trkpt lat="43.20806218490239" lon="11.370425921086603"><ele>259.8</ele><time>2026-04-25T08:05:59.001Z</time></trkpt><trkpt lat="43.20798826615404" lon="11.370529539350681"><ele>263.2</ele><time>2026-04-25T08:06:00.001Z</time></trkpt><trkpt lat="43.20791311180825" lon="11.37063488964552"><ele>266.6</ele><time>2026-04-25T08:06:01.001Z</time></trkpt><trkpt lat="43.20783645197161" lon="11.37074162448984"><ele>270.0</ele><time>2026-04-25T08:06:02.001Z</time></trkpt><trkpt lat="43.20776146070938" lon="11.370845992810322"><ele>270.0</ele><time>2026-04-25T08:06:03.001Z</time></trkpt><trkpt lat="43.20769072251611" lon="11.370944555108453"><ele>270.0</ele><time>2026-04-25T08:06:04.001Z</time></trkpt><trkpt lat="43.20762033522699" lon="11.371041754730822"><ele>270.0</ele><time>2026-04-25T08:06:05.001Z</time></trkpt><trkpt lat="43.20755127280037" lon="11.371135463110305"><ele>270.0</ele><time>2026-04-25T08:06:06.001Z</time></trkpt><trkpt lat="43.20747662179569" lon="11.371236754445938"><ele>270.0</ele><time>2026-04-25T08:06:07.001Z</time></trkpt><trkpt lat="43.207413631461925" lon="11.371356255109992"><ele>267.8</ele><time>2026-04-25T08:06:08.001Z</time></trkpt><trkpt lat="43.207347887174734" lon="11.371447837130635"><ele>265.6</ele><time>2026-04-25T08:06:09.001Z</time></trkpt><trkpt lat="43.20727801232112" lon="11.371537513170628"><ele>263.4</ele><time>2026-04-25T08:06:10Z</time></trkpt><trkpt lat="43.20721615240202" lon="11.371628657361533"><ele>261.2</ele><time>2026-04-25T08:06:11Z</time></trkpt><trkpt lat="43.20716087776877" lon="11.371716045530324"><ele>259.0</ele><time>2026-04-25T08:06:12Z</time></trkpt><trkpt lat="43.20710714464546" lon="11.37181238793414"><ele>261.0</ele><time>2026-04-25T08:06:13Z</time></trkpt><trkpt lat="43.207059189184676" lon="11.371910168464057"><ele>263.0</ele><time>2026-04-25T08:06:14Z</time></trkpt><trkpt lat="43.20700880311555" lon="11.37200823763176"><ele>265.0</ele><time>2026-04-25T08:06:15Z</time></trkpt><trkpt lat="43.2069632922435" lon="11.37211040694461"><ele>267.0</ele><time>2026-04-25T08:06:16Z</time></trkpt><trkpt lat="43.20691248747657" lon="11.372210902011572"><ele>269.0</ele><time>2026-04-25T08:06:17Z</time></trkpt><trkpt lat="43.206849689836965" lon="11.372309233234986"><ele>271.0</ele><time>2026-04-25T08:06:18Z</time></trkpt><trkpt lat="43.20678398062741" lon="11.37239401634373"><ele>271.0</ele><time>2026-04-25T08:06:19Z</time></trkpt><trkpt lat="43.20673310807247" lon="11.372499247489396"><ele>271.0</ele><time>2026-04-25T08:06:20Z</time></trkpt><trkpt lat="43.206673635089494" lon="11.372595381574547"><ele>271.0</ele><time>2026-04-25T08:06:21Z</time></trkpt><trkpt lat="43.206610350717895" lon="11.372681002673994"><ele>271.0</ele><time>2026-04-25T08:06:22Z</time></trkpt><trkpt lat="43.2065386601823" lon="11.372758889837742"><ele>271.0</ele><time>2026-04-25T08:06:23Z</time></trkpt><trkpt lat="43.20646215101675" lon="11.372832581949147"><ele>270.0</ele><time>2026-04-25T08:06:24Z</time></trkpt><trkpt lat="43.20637319392513" lon="11.372898338746692"><ele>269.0</ele><time>2026-04-25T08:06:25Z</time></trkpt><trkpt lat="43.20627065000116" lon="11.372986499443135"><ele>268.0</ele><time>2026-04-25T08:06:26Z</time></trkpt><trkpt lat="43.20616843368376" lon="11.37306267585046"><ele>267.0</ele><time>2026-04-25T08:06:27Z</time></trkpt><trkpt lat="43.206068097233974" lon="11.37313661888908"><ele>267.0</ele><time>2026-04-25T08:06:28Z</time></trkpt><trkpt lat="43.20596607498384" lon="11.373195227893834"><ele>267.0</ele><time>2026-04-25T08:06:29Z</time></trkpt><trkpt lat="43.205875723196584" lon="11.373268438677284"><ele>267.0</ele><time>2026-04-25T08:06:30Z</time></trkpt><trkpt lat="43.20578565384639" lon="11.373313804713893"><ele>267.0</ele><time>2026-04-25T08:06:31Z</time></trkpt><trkpt lat="43.20571675898022" lon="11.373395812276035"><ele>267.0</ele><time>2026-04-25T08:06:32Z</time></trkpt><trkpt lat="43.20564679339859" lon="11.37345443963025"><ele>267.14285714285717</ele><time>2026-04-25T08:06:33Z</time></trkpt><trkpt lat="43.20558718806402" lon="11.373521868029105"><ele>267.2857142857143</ele><time>2026-04-25T08:06:34Z</time></trkpt><trkpt lat="43.20553196696803" lon="11.373585141903293"><ele>267.42857142857144</ele><time>2026-04-25T08:06:35Z</time></trkpt><trkpt lat="43.205473371305956" lon="11.373643465677244"><ele>267.57142857142856</ele><time>2026-04-25T08:06:36Z</time></trkpt><trkpt lat="43.2054139863299" lon="11.373690557670962"><ele>267.7142857142857</ele><time>2026-04-25T08:06:37Z</time></trkpt><trkpt lat="43.20534198654476" lon="11.373707704358221"><ele>267.8571428571429</ele><time>2026-04-25T08:06:38Z</time></trkpt><trkpt lat="43.20527115547975" lon="11.373731280902613"><ele>268.0</ele><time>2026-04-25T08:06:39Z</time></trkpt><trkpt lat="43.20519258584701" lon="11.373744288776944"><ele>268.0</ele><time>2026-04-25T08:06:40Z</time></trkpt><trkpt lat="43.20511127743617" lon="11.373736823095424"><ele>268.0</ele><time>2026-04-25T08:06:41Z</time></trkpt><trkpt lat="43.20502084330859" lon="11.373736296255789"><ele>268.0</ele><time>2026-04-25T08:06:42Z</time></trkpt><trkpt lat="43.204930889060854" lon="11.373757097667017"><ele>268.0</ele><time>2026-04-25T08:06:43Z</time></trkpt><trkpt lat="43.20483532760353" lon="11.3737490674262"><ele>268.0</ele><time>2026-04-25T08:06:44Z</time></trkpt><trkpt lat="43.204736845021124" lon="11.373760615587994"><ele>267.75</ele><time>2026-04-25T08:06:45Z</time></trkpt><trkpt lat="43.20462562512355" lon="11.373785984445911"><ele>267.5</ele><time>2026-04-25T08:06:46Z</time></trkpt><trkpt lat="43.20450229785238" lon="11.373816665328812"><ele>267.25</ele><time>2026-04-25T08:06:47Z</time></trkpt><trkpt lat="43.20437168424276" lon="11.373865439738086"><ele>267.0</ele><time>2026-04-25T08:06:48Z</time></trkpt><trkpt lat="43.20422710944258" lon="11.373916407631194"><ele>264.75</ele><time>2026-04-25T08:06:49Z</time></trkpt><trkpt lat="43.204097568063915" lon="11.373955361513135"><ele>262.5</ele><time>2026-04-25T08:06:50Z</time></trkpt><trkpt lat="43.203969693675575" lon="11.37400199509448"><ele>260.25</ele><time>2026-04-25T08:06:51Z</time></trkpt><trkpt lat="43.203848221130286" lon="11.374036455206271"><ele>258.0</ele><time>2026-04-25T08:06:52Z</time></trkpt><trkpt lat="43.20374922192324" lon="11.37408295031159"><ele>258.0</ele><time>2026-04-25T08:06:53Z</time></trkpt><trkpt lat="43.2036561900191" lon="11.37413954972156"><ele>258.0</ele><time>2026-04-25T08:06:54Z</time></trkpt><trkpt lat="43.20356383067043" lon="11.374213931153957"><ele>258.0</ele><time>2026-04-25T08:06:55Z</time></trkpt><trkpt lat="43.203473158903975" lon="11.374308191040246"><ele>258.0</ele><time>2026-04-25T08:06:56Z</time></trkpt><trkpt lat="43.203394561390354" lon="11.374386885783284"><ele>258.0</ele><time>2026-04-25T08:06:57Z</time></trkpt><trkpt lat="43.203304608693685" lon="11.374429708955043"><ele>258.0</ele><time>2026-04-25T08:06:58Z</time></trkpt><trkpt lat="43.203216951552584" lon="11.374479168773497"><ele>258.0</ele><time>2026-04-25T08:06:59Z</time></trkpt><trkpt lat="43.20311624794877" lon="11.374518501079432"><ele>258.0</ele><time>2026-04-25T08:07:00Z</time></trkpt><trkpt lat="43.202999252894486" lon="11.374546901986271"><ele>258.0</ele><time>2026-04-25T08:07:01Z</time></trkpt><trkpt lat="43.2028782076665" lon="11.374575663326805"><ele>258.0</ele><time>2026-04-25T08:07:02Z</time></trkpt><trkpt lat="43.202740949317565" lon="11.37461010235509"><ele>256.0</ele><time>2026-04-25T08:07:03Z</time></trkpt><trkpt lat="43.202572563548266" lon="11.374662766079002"><ele>254.0</ele><time>2026-04-25T08:07:04Z</time></trkpt><trkpt lat="43.20238277004008" lon="11.374708758097302"><ele>252.0</ele><time>2026-04-25T08:07:05Z</time></trkpt><trkpt lat="43.202221566019126" lon="11.374751210092512"><ele>254.8</ele><time>2026-04-25T08:07:06Z</time></trkpt><trkpt lat="43.20209147490398" lon="11.374792892844303"><ele>257.6</ele><time>2026-04-25T08:07:07Z</time></trkpt><trkpt lat="43.20198557559591" lon="11.374827339178099"><ele>260.40000000000003</ele><time>2026-04-25T08:07:08Z</time></trkpt><trkpt lat="43.20189187444011" lon="11.374856227321738"><ele>263.2</ele><time>2026-04-25T08:07:09Z</time></trkpt><trkpt lat="43.20179660624568" lon="11.374898163185883"><ele>266.0</ele><time>2026-04-25T08:07:10Z</time></trkpt><trkpt lat="43.20170509181472" lon="11.37495155138786"><ele>266.0</ele><time>2026-04-25T08:07:11Z</time></trkpt><trkpt lat="43.20160264045873" lon="11.375011399747377"><ele>266.0</ele><time>2026-04-25T08:07:12Z</time></trkpt><trkpt lat="43.20148922729621" lon="11.375098268694645"><ele>266.0</ele><time>2026-04-25T08:07:13Z</time></trkpt><trkpt lat="43.20138293387858" lon="11.37517951359776"><ele>266.0</ele><time>2026-04-25T08:07:14Z</time></trkpt><trkpt lat="43.201284858875724" lon="11.37524836527257"><ele>267.0</ele><time>2026-04-25T08:07:15Z</time></trkpt><trkpt lat="43.20119058895386" lon="11.375313236409362"><ele>268.0</ele><time>2026-04-25T08:07:16Z</time></trkpt><trkpt lat="43.20111138434161" lon="11.37536600077053"><ele>269.0</ele><time>2026-04-25T08:07:17Z</time></trkpt><trkpt lat="43.20100561632878" lon="11.375409323669142"><ele>270.0</ele><time>2026-04-25T08:07:19Z</time></trkpt><trkpt lat="43.20093271619049" lon="11.37539220038818"><ele>271.0</ele><time>2026-04-25T08:07:21Z</time></trkpt><trkpt lat="43.200868183830764" lon="11.375347898670652"><ele>271.0</ele><time>2026-04-25T08:07:23Z</time></trkpt><trkpt lat="43.20076884216554" lon="11.375291622456361"><ele>271.0</ele><time>2026-04-25T08:07:25Z</time></trkpt><trkpt lat="43.200697046700576" lon="11.375248514474197"><ele>271.0</ele><time>2026-04-25T08:07:26Z</time></trkpt><trkpt lat="43.200615355463675" lon="11.37519991844745"><ele>271.0</ele><time>2026-04-25T08:07:27Z</time></trkpt><trkpt lat="43.2005250386524" lon="11.375146191297853"><ele>271.0</ele><time>2026-04-25T08:07:28Z</time></trkpt><trkpt lat="43.20042861324334" lon="11.375111813887843"><ele>268.5</ele><time>2026-04-25T08:07:29Z</time></trkpt><trkpt lat="43.200344253236416" lon="11.37505174900782"><ele>266.0</ele><time>2026-04-25T08:07:30Z</time></trkpt><trkpt lat="43.20026544814248" lon="11.375013341234745"><ele>263.5</ele><time>2026-04-25T08:07:31Z</time></trkpt><trkpt lat="43.200194214813045" lon="11.374977480352957"><ele>261.0</ele><time>2026-04-25T08:07:32Z</time></trkpt><trkpt lat="43.200124043285484" lon="11.374964411932373"><ele>258.5</ele><time>2026-04-25T08:07:33Z</time></trkpt><trkpt lat="43.20001637734046" lon="11.375002233018142"><ele>256.0</ele><time>2026-04-25T08:07:35Z</time></trkpt><trkpt lat="43.199967730040626" lon="11.37506006521705"><ele>255.99999999999997</ele><time>2026-04-25T08:07:36Z</time></trkpt><trkpt lat="43.19993177840097" lon="11.37514315209296"><ele>256.0</ele><time>2026-04-25T08:07:37Z</time></trkpt><trkpt lat="43.19989917244803" lon="11.375255616424594"><ele>256.0</ele><time>2026-04-25T08:07:38Z</time></trkpt><trkpt lat="43.19985483202598" lon="11.375365569763636"><ele>256.0</ele><time>2026-04-25T08:07:39Z</time></trkpt><trkpt lat="43.19980364552854" lon="11.37546994290035"><ele>255.99999999999997</ele><time>2026-04-25T08:07:40Z</time></trkpt><trkpt lat="43.19973505002774" lon="11.375572183738631"><ele>256.0</ele><time>2026-04-25T08:07:41Z</time></trkpt><trkpt lat="43.19965855786634" lon="11.3756621654165"><ele>253.60000000000002</ele><time>2026-04-25T08:07:42Z</time></trkpt><trkpt lat="43.19957960693966" lon="11.375753097536888"><ele>251.20000000000002</ele><time>2026-04-25T08:07:43Z</time></trkpt><trkpt lat="43.199506472312876" lon="11.375844702426374"><ele>248.79999999999998</ele><time>2026-04-25T08:07:44Z</time></trkpt><trkpt lat="43.1994310592816" lon="11.375938476743562"><ele>246.39999999999998</ele><time>2026-04-25T08:07:45Z</time></trkpt><trkpt lat="43.19935111067276" lon="11.37602734088325"><ele>244.0</ele><time>2026-04-25T08:07:46Z</time></trkpt><trkpt lat="43.19926337935898" lon="11.376105818349131"><ele>244.0</ele><time>2026-04-25T08:07:47Z</time></trkpt><trkpt lat="43.19916403090491" lon="11.376166752132008"><ele>244.0</ele><time>2026-04-25T08:07:48Z</time></trkpt><trkpt lat="43.19905592183191" lon="11.376204275074446"><ele>244.0</ele><time>2026-04-25T08:07:49Z</time></trkpt><trkpt lat="43.19893639484993" lon="11.376229272965698"><ele>244.0</ele><time>2026-04-25T08:07:50Z</time></trkpt><trkpt lat="43.19882328693216" lon="11.37624770882777"><ele>243.0</ele><time>2026-04-25T08:07:51Z</time></trkpt><trkpt lat="43.19870758490254" lon="11.376272810781373"><ele>242.0</ele><time>2026-04-25T08:07:52Z</time></trkpt><trkpt lat="43.19859520731569" lon="11.376302276144784"><ele>241.0</ele><time>2026-04-25T08:07:53Z</time></trkpt><trkpt lat="43.198479349345064" lon="11.376333205663373"><ele>240.0</ele><time>2026-04-25T08:07:54Z</time></trkpt><trkpt lat="43.19837466810661" lon="11.376388265127868"><ele>240.0</ele><time>2026-04-25T08:07:55Z</time></trkpt><trkpt lat="43.19828266381816" lon="11.376459594384677"><ele>240.0</ele><time>2026-04-25T08:07:56Z</time></trkpt><trkpt lat="43.1981761745106" lon="11.376563844773399"><ele>240.0</ele><time>2026-04-25T08:07:57Z</time></trkpt><trkpt lat="43.19804072582911" lon="11.376722486045098"><ele>240.0</ele><time>2026-04-25T08:07:58Z</time></trkpt><trkpt lat="43.197905766167544" lon="11.376874056114831"><ele>240.0</ele><time>2026-04-25T08:07:59Z</time></trkpt><trkpt lat="43.19779207122751" lon="11.376981738381962"><ele>240.0</ele><time>2026-04-25T08:08:00Z</time></trkpt><trkpt lat="43.1976825836388" lon="11.377076331848755"><ele>240.0</ele><time>2026-04-25T08:08:01.001Z</time></trkpt><trkpt lat="43.19757736267516" lon="11.377151576629192"><ele>240.0</ele><time>2026-04-25T08:08:02.001Z</time></trkpt><trkpt lat="43.19747323415008" lon="11.377222173059105"><ele>240.0</ele><time>2026-04-25T08:08:03.001Z</time></trkpt><trkpt lat="43.197375516831414" lon="11.377287996040273"><ele>240.0</ele><time>2026-04-25T08:08:04.001Z</time></trkpt><trkpt lat="43.1972833585756" lon="11.377349747240837"><ele>240.0</ele><time>2026-04-25T08:08:05.001Z</time></trkpt><trkpt lat="43.19719441636887" lon="11.377406186432449"><ele>240.0</ele><time>2026-04-25T08:08:06.001Z</time></trkpt><trkpt lat="43.197112230751834" lon="11.37746068233639"><ele>240.0</ele><time>2026-04-25T08:08:07.001Z</time></trkpt><trkpt lat="43.19702484948167" lon="11.37751525874999"><ele>238.66666666666666</ele><time>2026-04-25T08:08:08.001Z</time></trkpt><trkpt lat="43.19694582269147" lon="11.377565814019315"><ele>237.33333333333331</ele><time>2026-04-25T08:08:09.001Z</time></trkpt><trkpt lat="43.196868144985345" lon="11.37761800839064"><ele>236.0</ele><time>2026-04-25T08:08:10.001Z</time></trkpt><trkpt lat="43.19679860154991" lon="11.377669776697042"><ele>234.66666666666666</ele><time>2026-04-25T08:08:11.001Z</time></trkpt><trkpt lat="43.19673508366336" lon="11.377716016332629"><ele>233.33333333333331</ele><time>2026-04-25T08:08:12.001Z</time></trkpt><trkpt lat="43.196668059787214" lon="11.377764788676892"><ele>232.0</ele><time>2026-04-25T08:08:13.001Z</time></trkpt><trkpt lat="43.19660791728227" lon="11.377807437232528"><ele>232.0</ele><time>2026-04-25T08:08:14.001Z</time></trkpt><trkpt lat="43.19654313565224" lon="11.377854326295088"><ele>232.0</ele><time>2026-04-25T08:08:15.001Z</time></trkpt><trkpt lat="43.19647992084747" lon="11.377899818026432"><ele>232.0</ele><time>2026-04-25T08:08:15.999Z</time></trkpt><trkpt lat="43.196416829271" lon="11.377945927669137"><ele>232.0</ele><time>2026-04-25T08:08:16.999Z</time></trkpt><trkpt lat="43.196304364675946" lon="11.378021801209632"><ele>232.0</ele><time>2026-04-25T08:08:18.999Z</time></trkpt><trkpt lat="43.19618965153944" lon="11.378104227418419"><ele>232.39999999999998</ele><time>2026-04-25T08:08:20.999Z</time></trkpt><trkpt lat="43.19607568615011" lon="11.378186684886765"><ele>232.79999999999998</ele><time>2026-04-25T08:08:22.999Z</time></trkpt><trkpt lat="43.19601536812989" lon="11.37821829054014"><ele>233.2</ele><time>2026-04-25T08:08:23.999Z</time></trkpt><trkpt lat="43.19590368756518" lon="11.378264228322438"><ele>233.6</ele><time>2026-04-25T08:08:25.999Z</time></trkpt><trkpt lat="43.19579020771574" lon="11.378320985664516"><ele>234.0</ele><time>2026-04-25T08:08:27.999Z</time></trkpt><trkpt lat="43.19572811861829" lon="11.378350027840034"><ele>233.42857142857144</ele><time>2026-04-25T08:08:28.999Z</time></trkpt><trkpt lat="43.195613615646046" lon="11.37839872672762"><ele>232.8571428571429</ele><time>2026-04-25T08:08:30.999Z</time></trkpt><trkpt lat="43.195557681376464" lon="11.378443575425424"><ele>232.28571428571428</ele><time>2026-04-25T08:08:31.999Z</time></trkpt><trkpt lat="43.1954958649323" lon="11.378461265093474"><ele>231.71428571428572</ele><time>2026-04-25T08:08:32.999Z</time></trkpt><trkpt lat="43.195435337532714" lon="11.378490354541682"><ele>231.14285714285714</ele><time>2026-04-25T08:08:33.999Z</time></trkpt><trkpt lat="43.19537250737903" lon="11.378508284372973"><ele>230.57142857142856</ele><time>2026-04-25T08:08:34.999Z</time></trkpt><trkpt lat="43.19531425926006" lon="11.378550592996508"><ele>229.99999999999997</ele><time>2026-04-25T08:08:35.999Z</time></trkpt><trkpt lat="43.19520472038053" lon="11.378637037002648"><ele>230.00000000000003</ele><time>2026-04-25T08:08:37.999Z</time></trkpt><trkpt lat="43.195152020675344" lon="11.378688294985642"><ele>230.0</ele><time>2026-04-25T08:08:39Z</time></trkpt><trkpt lat="43.19509795827801" lon="11.378741926461862"><ele>230.0</ele><time>2026-04-25T08:08:40Z</time></trkpt><trkpt lat="43.19504453710961" lon="11.378800182007248"><ele>230.0</ele><time>2026-04-25T08:08:41Z</time></trkpt><trkpt lat="43.19499737252167" lon="11.378865175466679"><ele>230.00000000000003</ele><time>2026-04-25T08:08:42Z</time></trkpt><trkpt lat="43.19495566726089" lon="11.378930328727973"><ele>230.0</ele><time>2026-04-25T08:08:43Z</time></trkpt><trkpt lat="43.19486966774753" lon="11.379060611255328"><ele>229.4</ele><time>2026-04-25T08:08:45Z</time></trkpt><trkpt lat="43.194789919833404" lon="11.379190021028364"><ele>228.8</ele><time>2026-04-25T08:08:47Z</time></trkpt><trkpt lat="43.19472833893188" lon="11.379327274701202"><ele>228.2</ele><time>2026-04-25T08:08:49Z</time></trkpt><trkpt lat="43.19470143233112" lon="11.37940543369556"><ele>227.6</ele><time>2026-04-25T08:08:50Z</time></trkpt><trkpt lat="43.19467305321718" lon="11.379494587322249"><ele>227.0</ele><time>2026-04-25T08:08:51Z</time></trkpt><trkpt lat="43.19464187668774" lon="11.379610930351921"><ele>227.0</ele><time>2026-04-25T08:08:52Z</time></trkpt><trkpt lat="43.19459268752899" lon="11.379719696695561"><ele>227.0</ele><time>2026-04-25T08:08:53Z</time></trkpt><trkpt lat="43.19456170538224" lon="11.379844534415474"><ele>227.0</ele><time>2026-04-25T08:08:54Z</time></trkpt><trkpt lat="43.1945576682604" lon="11.379990468604083"><ele>227.0</ele><time>2026-04-25T08:08:55Z</time></trkpt><trkpt lat="43.1945434209687" lon="11.38011584495976"><ele>227.0</ele><time>2026-04-25T08:08:56Z</time></trkpt><trkpt lat="43.19453143554227" lon="11.380238347972993"><ele>227.0</ele><time>2026-04-25T08:08:57Z</time></trkpt><trkpt lat="43.1945185934181" lon="11.380367058815377"><ele>227.0</ele><time>2026-04-25T08:08:58Z</time></trkpt><trkpt lat="43.194511782216885" lon="11.380508767636801"><ele>227.0</ele><time>2026-04-25T08:08:59Z</time></trkpt><trkpt lat="43.194489014427035" lon="11.38063195107345"><ele>227.0</ele><time>2026-04-25T08:09:00Z</time></trkpt><trkpt lat="43.19449030958063" lon="11.380762004437111"><ele>227.0</ele><time>2026-04-25T08:09:01Z</time></trkpt><trkpt lat="43.19447376088437" lon="11.380889577254077"><ele>227.2</ele><time>2026-04-25T08:09:02Z</time></trkpt><trkpt lat="43.194428784438614" lon="11.381000965404299"><ele>227.39999999999998</ele><time>2026-04-25T08:09:03Z</time></trkpt><trkpt lat="43.19440600041469" lon="11.381119296291605"><ele>227.60000000000002</ele><time>2026-04-25T08:09:04Z</time></trkpt><trkpt lat="43.19436452502064" lon="11.381232749474995"><ele>227.8</ele><time>2026-04-25T08:09:05Z</time></trkpt><trkpt lat="43.194317084371214" lon="11.38135625629522"><ele>228.0</ele><time>2026-04-25T08:09:06Z</time></trkpt><trkpt lat="43.19425782560728" lon="11.381495554932862"><ele>228.0</ele><time>2026-04-25T08:09:07Z</time></trkpt><trkpt lat="43.194200243497214" lon="11.381656245596025"><ele>228.0</ele><time>2026-04-25T08:09:08Z</time></trkpt><trkpt lat="43.19413887009522" lon="11.38183099679515"><ele>228.0</ele><time>2026-04-25T08:09:09Z</time></trkpt><trkpt lat="43.194068907446194" lon="11.382028311927213"><ele>228.0</ele><time>2026-04-25T08:09:10Z</time></trkpt><trkpt lat="43.19400417837392" lon="11.382212391796838"><ele>226.25</ele><time>2026-04-25T08:09:11Z</time></trkpt><trkpt lat="43.19394819305366" lon="11.38237323841383"><ele>224.5</ele><time>2026-04-25T08:09:12Z</time></trkpt><trkpt lat="43.19389797156958" lon="11.382521897603562"><ele>222.75</ele><time>2026-04-25T08:09:13Z</time></trkpt><trkpt lat="43.19385068943792" lon="11.382663664836429"><ele>221.0</ele><time>2026-04-25T08:09:14Z</time></trkpt><trkpt lat="43.193804624926976" lon="11.382794855999132"><ele>221.00000000000003</ele><time>2026-04-25T08:09:15Z</time></trkpt><trkpt lat="43.19376437520481" lon="11.382914380977233"><ele>221.0</ele><time>2026-04-25T08:09:16Z</time></trkpt><trkpt lat="43.19372632012185" lon="11.383020847743014"><ele>221.0</ele><time>2026-04-25T08:09:17Z</time></trkpt><trkpt lat="43.193694350474715" lon="11.383119386905973"><ele>221.0</ele><time>2026-04-25T08:09:18Z</time></trkpt><trkpt lat="43.19365711807708" lon="11.383213060557702"><ele>221.00000000000003</ele><time>2026-04-25T08:09:19Z</time></trkpt><trkpt lat="43.19360902732477" lon="11.383297108633112"><ele>221.0</ele><time>2026-04-25T08:09:20Z</time></trkpt><trkpt lat="43.19354669940211" lon="11.383369140103007"><ele>221.0</ele><time>2026-04-25T08:09:21Z</time></trkpt><trkpt lat="43.19346763921827" lon="11.38343550678568"><ele>221.0</ele><time>2026-04-25T08:09:22Z</time></trkpt><trkpt lat="43.19337100791071" lon="11.38349775731553"><ele>221.0</ele><time>2026-04-25T08:09:23Z</time></trkpt><trkpt lat="43.193263822863" lon="11.383550465395546"><ele>221.0</ele><time>2026-04-25T08:09:24Z</time></trkpt><trkpt lat="43.193130667518844" lon="11.383591617558189"><ele>221.0</ele><time>2026-04-25T08:09:25Z</time></trkpt><trkpt lat="43.19300546191004" lon="11.383648451502653"><ele>221.0</ele><time>2026-04-25T08:09:26Z</time></trkpt><trkpt lat="43.192890113490094" lon="11.38370863911297"><ele>221.0</ele><time>2026-04-25T08:09:27Z</time></trkpt><trkpt lat="43.19276808086076" lon="11.383770181342808"><ele>221.0</ele><time>2026-04-25T08:09:28Z</time></trkpt><trkpt lat="43.19265032648406" lon="11.383826995598872"><ele>221.60000000000002</ele><time>2026-04-25T08:09:29Z</time></trkpt><trkpt lat="43.19254029496565" lon="11.383878574412988"><ele>222.20000000000002</ele><time>2026-04-25T08:09:30Z</time></trkpt><trkpt lat="43.19243402542205" lon="11.383917691530034"><ele>222.79999999999998</ele><time>2026-04-25T08:09:31Z</time></trkpt><trkpt lat="43.192329994657605" lon="11.383936713601084"><ele>223.39999999999998</ele><time>2026-04-25T08:09:32Z</time></trkpt><trkpt lat="43.19223158417359" lon="11.383939040946862"><ele>224.0</ele><time>2026-04-25T08:09:33Z</time></trkpt><trkpt lat="43.1921344406659" lon="11.3839375550275"><ele>224.16666666666669</ele><time>2026-04-25T08:09:34Z</time></trkpt><trkpt lat="43.19204602500623" lon="11.383926872154642"><ele>224.33333333333334</ele><time>2026-04-25T08:09:35Z</time></trkpt><trkpt lat="43.19195751087963" lon="11.38394585833544"><ele>224.5</ele><time>2026-04-25T08:09:36Z</time></trkpt><trkpt lat="43.19188081100427" lon="11.383949401429916"><ele>224.66666666666669</ele><time>2026-04-25T08:09:37Z</time></trkpt><trkpt lat="43.19180246176087" lon="11.383974652173917"><ele>224.83333333333334</ele><time>2026-04-25T08:09:38Z</time></trkpt><trkpt lat="43.191722612904094" lon="11.38403349238056"><ele>225.0</ele><time>2026-04-25T08:09:39Z</time></trkpt><trkpt lat="43.191645180352594" lon="11.384106468108227"><ele>225.0</ele><time>2026-04-25T08:09:40Z</time></trkpt><trkpt lat="43.191559263359515" lon="11.384187872654909"><ele>225.0</ele><time>2026-04-25T08:09:41Z</time></trkpt><trkpt lat="43.1914983414753" lon="11.384306004605788"><ele>225.0</ele><time>2026-04-25T08:09:42Z</time></trkpt><trkpt lat="43.191431328759606" lon="11.384406465749734"><ele>225.0</ele><time>2026-04-25T08:09:43Z</time></trkpt><trkpt lat="43.191355292165376" lon="11.384510825690514"><ele>225.0</ele><time>2026-04-25T08:09:44Z</time></trkpt><trkpt lat="43.19125648227777" lon="11.384627313391519"><ele>225.75</ele><time>2026-04-25T08:09:45Z</time></trkpt><trkpt lat="43.19115146138354" lon="11.384770920101714"><ele>226.5</ele><time>2026-04-25T08:09:46Z</time></trkpt><trkpt lat="43.19104768038443" lon="11.384898050703947"><ele>227.25</ele><time>2026-04-25T08:09:47Z</time></trkpt><trkpt lat="43.190926341174176" lon="11.385026491626114"><ele>228.0</ele><time>2026-04-25T08:09:48Z</time></trkpt><trkpt lat="43.19081830304262" lon="11.385147355508908"><ele>228.0</ele><time>2026-04-25T08:09:49Z</time></trkpt><trkpt lat="43.19069945086458" lon="11.385240565681254"><ele>228.0</ele><time>2026-04-25T08:09:50Z</time></trkpt><trkpt lat="43.19058138249696" lon="11.385329490296925"><ele>228.0</ele><time>2026-04-25T08:09:51Z</time></trkpt><trkpt lat="43.19045651434202" lon="11.385408256550603"><ele>228.0</ele><time>2026-04-25T08:09:52Z</time></trkpt><trkpt lat="43.19033024645558" lon="11.385478655876328"><ele>226.5</ele><time>2026-04-25T08:09:53Z</time></trkpt><trkpt lat="43.190202723695855" lon="11.38553089522469"><ele>225.0</ele><time>2026-04-25T08:09:54Z</time></trkpt><trkpt lat="43.19007107871072" lon="11.38558146847671"><ele>223.5</ele><time>2026-04-25T08:09:55Z</time></trkpt><trkpt lat="43.18991197283031" lon="11.385625509772053"><ele>222.0</ele><time>2026-04-25T08:09:56Z</time></trkpt><trkpt lat="43.18973095069424" lon="11.385666181762875"><ele>221.0</ele><time>2026-04-25T08:09:57Z</time></trkpt><trkpt lat="43.18953654605922" lon="11.385718038791122"><ele>220.0</ele><time>2026-04-25T08:09:58.001Z</time></trkpt><trkpt lat="43.189378150383476" lon="11.385746433460241"><ele>219.0</ele><time>2026-04-25T08:09:59.001Z</time></trkpt><trkpt lat="43.18925296870459" lon="11.385795050499018"><ele>219.0</ele><time>2026-04-25T08:10:00.001Z</time></trkpt><trkpt lat="43.18913153905258" lon="11.38580832793866"><ele>219.0</ele><time>2026-04-25T08:10:01.001Z</time></trkpt><trkpt lat="43.18901355998367" lon="11.385837937757218"><ele>219.0</ele><time>2026-04-25T08:10:02.001Z</time></trkpt><trkpt lat="43.18889931863947" lon="11.385866609500306"><ele>219.0</ele><time>2026-04-25T08:10:03.001Z</time></trkpt><trkpt lat="43.18879652082493" lon="11.38593266934236"><ele>220.39999999999998</ele><time>2026-04-25T08:10:04.001Z</time></trkpt><trkpt lat="43.18869489022803" lon="11.385938897110472"><ele>221.79999999999998</ele><time>2026-04-25T08:10:05.001Z</time></trkpt><trkpt lat="43.188598723309354" lon="11.385927734457375"><ele>223.20000000000002</ele><time>2026-04-25T08:10:06.001Z</time></trkpt><trkpt lat="43.18850048036981" lon="11.385900964948545"><ele>224.60000000000002</ele><time>2026-04-25T08:10:07.001Z</time></trkpt><trkpt lat="43.188410794182275" lon="11.385852751036952"><ele>226.0</ele><time>2026-04-25T08:10:08.001Z</time></trkpt><trkpt lat="43.18833682114905" lon="11.38578582759326"><ele>226.0</ele><time>2026-04-25T08:10:09.001Z</time></trkpt><trkpt lat="43.18824835254747" lon="11.385707864118068"><ele>226.00000000000003</ele><time>2026-04-25T08:10:10.001Z</time></trkpt><trkpt lat="43.188171436115574" lon="11.38563784634235"><ele>226.00000000000003</ele><time>2026-04-25T08:10:11.001Z</time></trkpt><trkpt lat="43.18809167852322" lon="11.385567359814914"><ele>226.0</ele><time>2026-04-25T08:10:12.001Z</time></trkpt><trkpt lat="43.188014000202465" lon="11.385509454182564"><ele>226.0</ele><time>2026-04-25T08:10:13.001Z</time></trkpt><trkpt lat="43.18793086774406" lon="11.385460407915712"><ele>228.0</ele><time>2026-04-25T08:10:14.001Z</time></trkpt><trkpt lat="43.18786271105034" lon="11.38542106006459"><ele>230.0</ele><time>2026-04-25T08:10:15.001Z</time></trkpt><trkpt lat="43.187799581221554" lon="11.38538704563779"><ele>232.0</ele><time>2026-04-25T08:10:16.001Z</time></trkpt><trkpt lat="43.187736611442965" lon="11.385355095310215"><ele>234.0</ele><time>2026-04-25T08:10:17.001Z</time></trkpt><trkpt lat="43.187672215658665" lon="11.385328324387327"><ele>236.0</ele><time>2026-04-25T08:10:18.001Z</time></trkpt><trkpt lat="43.18760389231114" lon="11.385304655543125"><ele>238.0</ele><time>2026-04-25T08:10:19.001Z</time></trkpt><trkpt lat="43.187535673464104" lon="11.385282915195601"><ele>240.0</ele><time>2026-04-25T08:10:20.001Z</time></trkpt><trkpt lat="43.18746457163515" lon="11.385261374099617"><ele>240.0</ele><time>2026-04-25T08:10:21.001Z</time></trkpt><trkpt lat="43.18739637481511" lon="11.385241729700644"><ele>240.0</ele><time>2026-04-25T08:10:21.999Z</time></trkpt><trkpt lat="43.18732500990441" lon="11.385229103682008"><ele>240.0</ele><time>2026-04-25T08:10:22.999Z</time></trkpt><trkpt lat="43.1872549824353" lon="11.385227422426883"><ele>240.0</ele><time>2026-04-25T08:10:23.999Z</time></trkpt><trkpt lat="43.187179658084666" lon="11.38523922809767"><ele>240.0</ele><time>2026-04-25T08:10:24.999Z</time></trkpt><trkpt lat="43.18709886322054" lon="11.385261082735504"><ele>240.0</ele><time>2026-04-25T08:10:25.999Z</time></trkpt><trkpt lat="43.18700644847064" lon="11.385259871924475"><ele>242.0</ele><time>2026-04-25T08:10:26.999Z</time></trkpt><trkpt lat="43.18691099975096" lon="11.385300116717593"><ele>244.0</ele><time>2026-04-25T08:10:27.999Z</time></trkpt><trkpt lat="43.18679329268211" lon="11.385318365316474"><ele>246.0</ele><time>2026-04-25T08:10:28.999Z</time></trkpt><trkpt lat="43.186658331670216" lon="11.385350111197129"><ele>248.0</ele><time>2026-04-25T08:10:29.999Z</time></trkpt><trkpt lat="43.18652634421258" lon="11.385372232148555"><ele>250.0</ele><time>2026-04-25T08:10:30.999Z</time></trkpt><trkpt lat="43.1864023492375" lon="11.38539077970528"><ele>252.0</ele><time>2026-04-25T08:10:31.999Z</time></trkpt><trkpt lat="43.18627807920328" lon="11.385401101791986"><ele>254.0</ele><time>2026-04-25T08:10:32.999Z</time></trkpt><trkpt lat="43.18615243371429" lon="11.385402849289363"><ele>256.0</ele><time>2026-04-25T08:10:33.999Z</time></trkpt><trkpt lat="43.18601002924898" lon="11.38541305221074"><ele>256.0</ele><time>2026-04-25T08:10:34.999Z</time></trkpt><trkpt lat="43.18588568468847" lon="11.385423704405188"><ele>256.0</ele><time>2026-04-25T08:10:35.999Z</time></trkpt><trkpt lat="43.185776042152334" lon="11.385421407114077"><ele>256.0</ele><time>2026-04-25T08:10:36.999Z</time></trkpt><trkpt lat="43.18567074123666" lon="11.385425141717322"><ele>256.0</ele><time>2026-04-25T08:10:37.999Z</time></trkpt><trkpt lat="43.18556802504822" lon="11.385413594169712"><ele>256.0</ele><time>2026-04-25T08:10:38.999Z</time></trkpt><trkpt lat="43.18547124362842" lon="11.385387930848436"><ele>258.2</ele><time>2026-04-25T08:10:39.999Z</time></trkpt><trkpt lat="43.18539902801208" lon="11.385349164832624"><ele>260.40000000000003</ele><time>2026-04-25T08:10:40.999Z</time></trkpt><trkpt lat="43.185327017185735" lon="11.385262416477616"><ele>262.6</ele><time>2026-04-25T08:10:41.999Z</time></trkpt><trkpt lat="43.185250138505985" lon="11.385166987507189"><ele>264.8</ele><time>2026-04-25T08:10:43.999Z</time></trkpt><trkpt lat="43.18516408361175" lon="11.38505510796805"><ele>267.0</ele><time>2026-04-25T08:10:46Z</time></trkpt><trkpt lat="43.18511047905734" lon="11.38497516237858"><ele>267.0</ele><time>2026-04-25T08:10:47Z</time></trkpt><trkpt lat="43.18505701620533" lon="11.384895133609822"><ele>267.0</ele><time>2026-04-25T08:10:48Z</time></trkpt><trkpt lat="43.185005718382826" lon="11.384817267175077"><ele>267.0</ele><time>2026-04-25T08:10:49Z</time></trkpt><trkpt lat="43.18495417616824" lon="11.3847371683276"><ele>267.0</ele><time>2026-04-25T08:10:50Z</time></trkpt><trkpt lat="43.1848907127071" lon="11.38467115442037"><ele>267.0</ele><time>2026-04-25T08:10:51Z</time></trkpt><trkpt lat="43.184838044146346" lon="11.384587092318107"><ele>267.0</ele><time>2026-04-25T08:10:52Z</time></trkpt><trkpt lat="43.18478290950067" lon="11.384511332734254"><ele>268.3333333333333</ele><time>2026-04-25T08:10:53Z</time></trkpt><trkpt lat="43.18472300549304" lon="11.384440668659623"><ele>269.6666666666667</ele><time>2026-04-25T08:10:54Z</time></trkpt><trkpt lat="43.1846621437607" lon="11.384373957471722"><ele>271.0</ele><time>2026-04-25T08:10:55Z</time></trkpt><trkpt lat="43.18459191260074" lon="11.384305470376933"><ele>272.33333333333337</ele><time>2026-04-25T08:10:56Z</time></trkpt><trkpt lat="43.18453501299965" lon="11.384248196416785"><ele>273.6666666666667</ele><time>2026-04-25T08:10:57Z</time></trkpt><trkpt lat="43.184482102487785" lon="11.384182119645462"><ele>275.0</ele><time>2026-04-25T08:10:58Z</time></trkpt><trkpt lat="43.184413972076435" lon="11.38412097637557"><ele>275.0</ele><time>2026-04-25T08:10:59Z</time></trkpt><trkpt lat="43.18434222400719" lon="11.384055362886572"><ele>275.0</ele><time>2026-04-25T08:11:00Z</time></trkpt><trkpt lat="43.184267750804615" lon="11.383996318172159"><ele>275.0</ele><time>2026-04-25T08:11:01Z</time></trkpt><trkpt lat="43.18418771882409" lon="11.383943568514853"><ele>275.0</ele><time>2026-04-25T08:11:02Z</time></trkpt><trkpt lat="43.184099309765" lon="11.38389807734729"><ele>275.0</ele><time>2026-04-25T08:11:03Z</time></trkpt><trkpt lat="43.184010245592745" lon="11.383856882595122"><ele>275.0</ele><time>2026-04-25T08:11:04Z</time></trkpt><trkpt lat="43.18391420253174" lon="11.383819639063947"><ele>274.8</ele><time>2026-04-25T08:11:05Z</time></trkpt><trkpt lat="43.183810927576296" lon="11.383779585775478"><ele>274.6</ele><time>2026-04-25T08:11:06Z</time></trkpt><trkpt lat="43.18370847357481" lon="11.383745208950634"><ele>274.4</ele><time>2026-04-25T08:11:07Z</time></trkpt><trkpt lat="43.18361016227273" lon="11.383709823472422"><ele>274.2</ele><time>2026-04-25T08:11:08Z</time></trkpt><trkpt lat="43.18351923831558" lon="11.383680656119326"><ele>274.0</ele><time>2026-04-25T08:11:09Z</time></trkpt><trkpt lat="43.18343454115062" lon="11.383650564403018"><ele>274.0</ele><time>2026-04-25T08:11:10Z</time></trkpt><trkpt lat="43.18335503074246" lon="11.38359342698008"><ele>274.0</ele><time>2026-04-25T08:11:11Z</time></trkpt><trkpt lat="43.18327227261371" lon="11.383557191769011"><ele>274.0</ele><time>2026-04-25T08:11:12Z</time></trkpt><trkpt lat="43.183186988458885" lon="11.383535202459038"><ele>274.0</ele><time>2026-04-25T08:11:13Z</time></trkpt><trkpt lat="43.183102624972854" lon="11.383503864981595"><ele>274.0</ele><time>2026-04-25T08:11:14Z</time></trkpt><trkpt lat="43.183012342452365" lon="11.383460321552011"><ele>274.0</ele><time>2026-04-25T08:11:15Z</time></trkpt><trkpt lat="43.18291003899785" lon="11.38340975478012"><ele>273.25</ele><time>2026-04-25T08:11:16Z</time></trkpt><trkpt lat="43.182799033396414" lon="11.383358891696625"><ele>272.5</ele><time>2026-04-25T08:11:17Z</time></trkpt><trkpt lat="43.18267292687706" lon="11.38330610490133"><ele>271.75</ele><time>2026-04-25T08:11:18Z</time></trkpt><trkpt lat="43.18253498454346" lon="11.383250075469638"><ele>271.0</ele><time>2026-04-25T08:11:19Z</time></trkpt><trkpt lat="43.18239841410674" lon="11.383195965734574"><ele>270.5</ele><time>2026-04-25T08:11:20Z</time></trkpt><trkpt lat="43.18225681665613" lon="11.383146110767218"><ele>270.0</ele><time>2026-04-25T08:11:21Z</time></trkpt><trkpt lat="43.18211554910605" lon="11.383099438767985"><ele>269.5</ele><time>2026-04-25T08:11:22Z</time></trkpt><trkpt lat="43.18199667139149" lon="11.383064225653587"><ele>269.0</ele><time>2026-04-25T08:11:23Z</time></trkpt><trkpt lat="43.18186572206385" lon="11.383039186632484"><ele>268.4</ele><time>2026-04-25T08:11:24Z</time></trkpt><trkpt lat="43.18174508063487" lon="11.38301149867651"><ele>267.79999999999995</ele><time>2026-04-25T08:11:25Z</time></trkpt><trkpt lat="43.181638099779875" lon="11.382985236790384"><ele>267.20000000000005</ele><time>2026-04-25T08:11:26Z</time></trkpt><trkpt lat="43.1815340874028" lon="11.382960036444448"><ele>266.6</ele><time>2026-04-25T08:11:27Z</time></trkpt><trkpt lat="43.181431754488145" lon="11.38293696871747"><ele>266.0</ele><time>2026-04-25T08:11:28Z</time></trkpt><trkpt lat="43.1813284181643" lon="11.382912465899826"><ele>266.0</ele><time>2026-04-25T08:11:29Z</time></trkpt><trkpt lat="43.18123723074019" lon="11.382883654703745"><ele>266.0</ele><time>2026-04-25T08:11:30Z</time></trkpt><trkpt lat="43.181155224089515" lon="11.382848997297014"><ele>266.0</ele><time>2026-04-25T08:11:31Z</time></trkpt><trkpt lat="43.1810781571778" lon="11.382807722192473"><ele>266.0</ele><time>2026-04-25T08:11:32Z</time></trkpt><trkpt lat="43.18101230993625" lon="11.382772062055652"><ele>266.0</ele><time>2026-04-25T08:11:33Z</time></trkpt><trkpt lat="43.18091815406954" lon="11.382716328246465"><ele>266.0</ele><time>2026-04-25T08:11:35Z</time></trkpt><trkpt lat="43.18085483705692" lon="11.382682524203293"><ele>266.0</ele><time>2026-04-25T08:11:38Z</time></trkpt><trkpt lat="43.1807843422399" lon="11.38267285081842"><ele>266.0</ele><time>2026-04-25T08:11:49.001Z</time></trkpt><trkpt lat="43.18071486139527" lon="11.382719925099927"><ele>266.0</ele><time>2026-04-25T08:11:51.001Z</time></trkpt><trkpt lat="43.1806550116273" lon="11.382759398011554"><ele>266.0</ele><time>2026-04-25T08:11:55.001Z</time></trkpt><trkpt lat="43.180616350385606" lon="11.382830640683396"><ele>266.0</ele><time>2026-04-25T08:13:12Z</time></trkpt><trkpt lat="43.180529582270935" lon="11.382924015579421"><ele>266.0</ele><time>2026-04-25T08:13:14Z</time></trkpt><trkpt lat="43.18046771820003" lon="11.382984938529772"><ele>266.0</ele><time>2026-04-25T08:13:15Z</time></trkpt><trkpt lat="43.18039243558489" lon="11.383061892877606"><ele>266.0</ele><time>2026-04-25T08:13:16Z</time></trkpt><trkpt lat="43.180289555029724" lon="11.3831665516198"><ele>266.0</ele><time>2026-04-25T08:13:17Z</time></trkpt><trkpt lat="43.180154118000274" lon="11.38330083447681"><ele>266.0</ele><time>2026-04-25T08:13:18Z</time></trkpt><trkpt lat="43.1800168411427" lon="11.383397522830576"><ele>265.0</ele><time>2026-04-25T08:13:19Z</time></trkpt><trkpt lat="43.179844915288776" lon="11.38349653362639"><ele>264.0</ele><time>2026-04-25T08:13:20Z</time></trkpt><trkpt lat="43.17965586482801" lon="11.383594019611614"><ele>263.0</ele><time>2026-04-25T08:13:21Z</time></trkpt><trkpt lat="43.179486796538555" lon="11.383686664639141"><ele>263.0</ele><time>2026-04-25T08:13:22Z</time></trkpt><trkpt lat="43.179339895474605" lon="11.383768726575093"><ele>263.0</ele><time>2026-04-25T08:13:23Z</time></trkpt><trkpt lat="43.179206372103884" lon="11.38384475447597"><ele>263.0</ele><time>2026-04-25T08:13:24Z</time></trkpt><trkpt lat="43.17907777762641" lon="11.383909112898497"><ele>263.0</ele><time>2026-04-25T08:13:25Z</time></trkpt><trkpt lat="43.178938328165344" lon="11.383974224184678"><ele>264.5</ele><time>2026-04-25T08:13:26Z</time></trkpt><trkpt lat="43.178824238205344" lon="11.384050544133665"><ele>266.0</ele><time>2026-04-25T08:13:27Z</time></trkpt><trkpt lat="43.1787203978118" lon="11.384151828897089"><ele>267.5</ele><time>2026-04-25T08:13:28.001Z</time></trkpt><trkpt lat="43.17862325974858" lon="11.384266280047525"><ele>269.0</ele><time>2026-04-25T08:13:29.001Z</time></trkpt><trkpt lat="43.17852780344377" lon="11.384392146213708"><ele>269.0</ele><time>2026-04-25T08:13:30.001Z</time></trkpt><trkpt lat="43.17843049992227" lon="11.384522405131802"><ele>269.0</ele><time>2026-04-25T08:13:31.001Z</time></trkpt><trkpt lat="43.178329109401346" lon="11.384649737864855"><ele>269.0</ele><time>2026-04-25T08:13:32.001Z</time></trkpt><trkpt lat="43.178222896279514" lon="11.38477031396522"><ele>269.0</ele><time>2026-04-25T08:13:33.001Z</time></trkpt><trkpt lat="43.17810911200377" lon="11.384885244064748"><ele>269.0</ele><time>2026-04-25T08:13:34.001Z</time></trkpt><trkpt lat="43.177987397592034" lon="11.384987845969906"><ele>269.0</ele><time>2026-04-25T08:13:35.001Z</time></trkpt><trkpt lat="43.17786093270489" lon="11.385085502280957"><ele>269.0</ele><time>2026-04-25T08:13:36.001Z</time></trkpt><trkpt lat="43.177736384816825" lon="11.385183234925906"><ele>269.0</ele><time>2026-04-25T08:13:37.001Z</time></trkpt><trkpt lat="43.17761209352245" lon="11.385284739629062"><ele>269.0</ele><time>2026-04-25T08:13:38.001Z</time></trkpt><trkpt lat="43.17748793982046" lon="11.385390868710308"><ele>269.0</ele><time>2026-04-25T08:13:39.001Z</time></trkpt><trkpt lat="43.17737867774166" lon="11.385526321305706"><ele>269.0</ele><time>2026-04-25T08:13:40.001Z</time></trkpt><trkpt lat="43.177282317225135" lon="11.385687133311757"><ele>269.0</ele><time>2026-04-25T08:13:41.001Z</time></trkpt><trkpt lat="43.17719400260615" lon="11.385858320412552"><ele>270.0</ele><time>2026-04-25T08:13:42.001Z</time></trkpt><trkpt lat="43.17711675720926" lon="11.386041048729023"><ele>271.0</ele><time>2026-04-25T08:13:43.001Z</time></trkpt><trkpt lat="43.177043317912656" lon="11.386229409013666"><ele>272.0</ele><time>2026-04-25T08:13:44.001Z</time></trkpt><trkpt lat="43.17696690897498" lon="11.386412452680833"><ele>272.0</ele><time>2026-04-25T08:13:45.001Z</time></trkpt><trkpt lat="43.17689372478109" lon="11.386605644043101"><ele>272.0</ele><time>2026-04-25T08:13:46.001Z</time></trkpt><trkpt lat="43.176805964565716" lon="11.386789782239669"><ele>272.0</ele><time>2026-04-25T08:13:47.001Z</time></trkpt><trkpt lat="43.17673362694885" lon="11.38698393385353"><ele>271.33333333333337</ele><time>2026-04-25T08:13:48.001Z</time></trkpt><trkpt lat="43.176655779494574" lon="11.387177596996029"><ele>270.6666666666667</ele><time>2026-04-25T08:13:49.001Z</time></trkpt><trkpt lat="43.17656836651419" lon="11.387359369786255"><ele>270.0</ele><time>2026-04-25T08:13:50.001Z</time></trkpt><trkpt lat="43.176493571499755" lon="11.387553362510333"><ele>271.3333333333333</ele><time>2026-04-25T08:13:51.001Z</time></trkpt><trkpt lat="43.17640244783316" lon="11.387735420218755"><ele>272.66666666666663</ele><time>2026-04-25T08:13:52.001Z</time></trkpt><trkpt lat="43.17629206518198" lon="11.387904018484896"><ele>274.0</ele><time>2026-04-25T08:13:53.001Z</time></trkpt><trkpt lat="43.17617381644091" lon="11.38805157130566"><ele>274.0</ele><time>2026-04-25T08:13:54.001Z</time></trkpt><trkpt lat="43.17605638955813" lon="11.388173090490232"><ele>274.0</ele><time>2026-04-25T08:13:55.001Z</time></trkpt><trkpt lat="43.175939922766744" lon="11.388271818063647"><ele>274.0</ele><time>2026-04-25T08:13:56.001Z</time></trkpt><trkpt lat="43.175814967362264" lon="11.388361019803977"><ele>274.0</ele><time>2026-04-25T08:13:57.001Z</time></trkpt><trkpt lat="43.17568234637574" lon="11.388430465791961"><ele>273.75</ele><time>2026-04-25T08:13:58.001Z</time></trkpt><trkpt lat="43.17554658777721" lon="11.388479244952741"><ele>273.5</ele><time>2026-04-25T08:13:59.001Z</time></trkpt><trkpt lat="43.17540907309068" lon="11.38852403271966"><ele>273.25</ele><time>2026-04-25T08:14:00.001Z</time></trkpt><trkpt lat="43.17527049727858" lon="11.388581926327355"><ele>273.0</ele><time>2026-04-25T08:14:01.001Z</time></trkpt><trkpt lat="43.175132927123585" lon="11.388642407646971"><ele>273.0</ele><time>2026-04-25T08:14:02.001Z</time></trkpt><trkpt lat="43.17499530045904" lon="11.388703597211688"><ele>273.0</ele><time>2026-04-25T08:14:03.001Z</time></trkpt><trkpt lat="43.17486134853267" lon="11.388762344279465"><ele>273.0</ele><time>2026-04-25T08:14:04.001Z</time></trkpt><trkpt lat="43.17472898322397" lon="11.388819880966125"><ele>273.0</ele><time>2026-04-25T08:14:05.001Z</time></trkpt><trkpt lat="43.17459521458143" lon="11.388878372760109"><ele>274.5</ele><time>2026-04-25T08:14:06.001Z</time></trkpt><trkpt lat="43.17446126162264" lon="11.388935578793737"><ele>276.0</ele><time>2026-04-25T08:14:07.001Z</time></trkpt><trkpt lat="43.174327504252396" lon="11.38899516645964"><ele>277.5</ele><time>2026-04-25T08:14:08.001Z</time></trkpt><trkpt lat="43.17419291473836" lon="11.38906086111563"><ele>279.0</ele><time>2026-04-25T08:14:09.001Z</time></trkpt><trkpt lat="43.174059105422764" lon="11.38913779110744"><ele>282.0</ele><time>2026-04-25T08:14:10.001Z</time></trkpt><trkpt lat="43.17393332863855" lon="11.389231755130782"><ele>285.0</ele><time>2026-04-25T08:14:11.001Z</time></trkpt><trkpt lat="43.17382328910092" lon="11.38935093285773"><ele>288.0</ele><time>2026-04-25T08:14:12.001Z</time></trkpt><trkpt lat="43.17372899197622" lon="11.389479256846862"><ele>291.0</ele><time>2026-04-25T08:14:13.001Z</time></trkpt><trkpt lat="43.17364422437953" lon="11.38961518869106"><ele>289.75</ele><time>2026-04-25T08:14:14.001Z</time></trkpt><trkpt lat="43.17356687977641" lon="11.389749426007912"><ele>288.5</ele><time>2026-04-25T08:14:15.001Z</time></trkpt><trkpt lat="43.17349342321335" lon="11.389885376268593"><ele>287.25</ele><time>2026-04-25T08:14:16.001Z</time></trkpt><trkpt lat="43.173426675501624" lon="11.390004524414522"><ele>286.0</ele><time>2026-04-25T08:14:17.001Z</time></trkpt><trkpt lat="43.1733645139168" lon="11.390106729836578"><ele>286.0</ele><time>2026-04-25T08:14:18.001Z</time></trkpt><trkpt lat="43.17329678110298" lon="11.390210353042628"><ele>286.0</ele><time>2026-04-25T08:14:19.001Z</time></trkpt><trkpt lat="43.17322805433211" lon="11.390323734027742"><ele>286.0</ele><time>2026-04-25T08:14:20.001Z</time></trkpt><trkpt lat="43.17315665782808" lon="11.390435955988085"><ele>286.0</ele><time>2026-04-25T08:14:21.001Z</time></trkpt><trkpt lat="43.173078987899565" lon="11.390542046966537"><ele>286.0</ele><time>2026-04-25T08:14:22.001Z</time></trkpt><trkpt lat="43.17299077251499" lon="11.390637953310728"><ele>289.0</ele><time>2026-04-25T08:14:23.001Z</time></trkpt><trkpt lat="43.172888515331145" lon="11.390723008813984"><ele>292.0</ele><time>2026-04-25T08:14:24.001Z</time></trkpt><trkpt lat="43.172767129522796" lon="11.390764842301461"><ele>295.0</ele><time>2026-04-25T08:14:25.001Z</time></trkpt><trkpt lat="43.1726387224168" lon="11.390847505117568"><ele>298.0</ele><time>2026-04-25T08:14:26.001Z</time></trkpt><trkpt lat="43.172496589389915" lon="11.39091015179961"><ele>298.0</ele><time>2026-04-25T08:14:27.001Z</time></trkpt><trkpt lat="43.17235756493243" lon="11.390976540197494"><ele>298.0</ele><time>2026-04-25T08:14:28.001Z</time></trkpt><trkpt lat="43.17222856015911" lon="11.39103847602982"><ele>298.0</ele><time>2026-04-25T08:14:29.001Z</time></trkpt><trkpt lat="43.172121643671005" lon="11.391092457417738"><ele>298.0</ele><time>2026-04-25T08:14:30.001Z</time></trkpt><trkpt lat="43.17201553787126" lon="11.39114632106595"><ele>298.8</ele><time>2026-04-25T08:14:31.001Z</time></trkpt><trkpt lat="43.171917967491346" lon="11.391191304297855"><ele>299.6</ele><time>2026-04-25T08:14:32.001Z</time></trkpt><trkpt lat="43.17181620719212" lon="11.391233683299518"><ele>300.4</ele><time>2026-04-25T08:14:33.001Z</time></trkpt><trkpt lat="43.17171332733935" lon="11.39127248068881"><ele>301.2</ele><time>2026-04-25T08:14:34Z</time></trkpt><trkpt lat="43.17160461231993" lon="11.391302401788225"><ele>302.0</ele><time>2026-04-25T08:14:35Z</time></trkpt><trkpt lat="43.17149181940598" lon="11.391321572784147"><ele>302.0</ele><time>2026-04-25T08:14:36Z</time></trkpt><trkpt lat="43.17136911751552" lon="11.391323841913126"><ele>302.0</ele><time>2026-04-25T08:14:37Z</time></trkpt><trkpt lat="43.171259760941865" lon="11.391313549811995"><ele>302.0</ele><time>2026-04-25T08:14:38Z</time></trkpt><trkpt lat="43.17116218295915" lon="11.391289552871674"><ele>302.0</ele><time>2026-04-25T08:14:39Z</time></trkpt><trkpt lat="43.17107379846041" lon="11.39123123772627"><ele>302.0</ele><time>2026-04-25T08:14:40Z</time></trkpt><trkpt lat="43.170975637411615" lon="11.39120109815749"><ele>302.0</ele><time>2026-04-25T08:14:41Z</time></trkpt><trkpt lat="43.17088733038927" lon="11.391143351973376"><ele>302.0</ele><time>2026-04-25T08:14:42Z</time></trkpt><trkpt lat="43.17080190768909" lon="11.391092124027912"><ele>302.0</ele><time>2026-04-25T08:14:43Z</time></trkpt><trkpt lat="43.1707239514344" lon="11.391048271674679"><ele>302.0</ele><time>2026-04-25T08:14:44Z</time></trkpt><trkpt lat="43.170647616374275" lon="11.391011149939276"><ele>302.0</ele><time>2026-04-25T08:14:45Z</time></trkpt><trkpt lat="43.170576668826236" lon="11.390971653411983"><ele>302.0</ele><time>2026-04-25T08:14:46Z</time></trkpt><trkpt lat="43.17051075003116" lon="11.390933049244246"><ele>302.0</ele><time>2026-04-25T08:14:47Z</time></trkpt><trkpt lat="43.170445213756516" lon="11.3908938996741"><ele>302.0</ele><time>2026-04-25T08:14:48Z</time></trkpt><trkpt lat="43.17037487757036" lon="11.390847456404124"><ele>302.0</ele><time>2026-04-25T08:14:49Z</time></trkpt><trkpt lat="43.17030510163812" lon="11.390795321852751"><ele>302.0</ele><time>2026-04-25T08:14:50Z</time></trkpt><trkpt lat="43.170240546402646" lon="11.390716803416767"><ele>302.0</ele><time>2026-04-25T08:14:51Z</time></trkpt><trkpt lat="43.170170642038514" lon="11.390659531908492"><ele>302.0</ele><time>2026-04-25T08:14:52Z</time></trkpt><trkpt lat="43.17009937386665" lon="11.390600251456819"><ele>302.0</ele><time>2026-04-25T08:14:53Z</time></trkpt><trkpt lat="43.17002308823908" lon="11.390561168905856"><ele>302.0</ele><time>2026-04-25T08:14:54Z</time></trkpt><trkpt lat="43.169952245576184" lon="11.390498720123666"><ele>302.0</ele><time>2026-04-25T08:14:55Z</time></trkpt><trkpt lat="43.16987648749444" lon="11.39043357512753"><ele>302.0</ele><time>2026-04-25T08:14:56Z</time></trkpt><trkpt lat="43.16979965981164" lon="11.390366271095939"><ele>302.0</ele><time>2026-04-25T08:14:57Z</time></trkpt><trkpt lat="43.16972196036494" lon="11.390307625030095"><ele>302.0</ele><time>2026-04-25T08:14:58Z</time></trkpt><trkpt lat="43.16964308489647" lon="11.390253338992956"><ele>299.6</ele><time>2026-04-25T08:14:59Z</time></trkpt><trkpt lat="43.169561163715336" lon="11.390203232281962"><ele>297.2</ele><time>2026-04-25T08:15:00Z</time></trkpt><trkpt lat="43.16948449393753" lon="11.390158770446762"><ele>294.8</ele><time>2026-04-25T08:15:01Z</time></trkpt><trkpt lat="43.16941156171558" lon="11.390115867405862"><ele>292.4</ele><time>2026-04-25T08:15:02Z</time></trkpt><trkpt lat="43.1693212694948" lon="11.390087878121715"><ele>290.0</ele><time>2026-04-25T08:15:03Z</time></trkpt><trkpt lat="43.16920808561412" lon="11.390029935917296"><ele>290.0</ele><time>2026-04-25T08:15:04Z</time></trkpt><trkpt lat="43.16907826748442" lon="11.390003546696175"><ele>290.0</ele><time>2026-04-25T08:15:05Z</time></trkpt><trkpt lat="43.168929464429105" lon="11.389981780644167"><ele>290.0</ele><time>2026-04-25T08:15:06Z</time></trkpt><trkpt lat="43.16875757962711" lon="11.389982487964062"><ele>286.33333333333337</ele><time>2026-04-25T08:15:07Z</time></trkpt><trkpt lat="43.16859321095038" lon="11.389967584077748"><ele>282.6666666666667</ele><time>2026-04-25T08:15:08Z</time></trkpt><trkpt lat="43.168423451443594" lon="11.389951449144204"><ele>279.0</ele><time>2026-04-25T08:15:09Z</time></trkpt><trkpt lat="43.16824437550745" lon="11.389934454232382"><ele>277.0</ele><time>2026-04-25T08:15:10Z</time></trkpt><trkpt lat="43.168076108942486" lon="11.389917434474684"><ele>275.0</ele><time>2026-04-25T08:15:11Z</time></trkpt><trkpt lat="43.16791238215811" lon="11.389904477129104"><ele>273.0</ele><time>2026-04-25T08:15:12Z</time></trkpt><trkpt lat="43.16775211042201" lon="11.389894581313385"><ele>273.0</ele><time>2026-04-25T08:15:13Z</time></trkpt><trkpt lat="43.167592670693296" lon="11.389882776503223"><ele>273.0</ele><time>2026-04-25T08:15:14Z</time></trkpt><trkpt lat="43.167438252142944" lon="11.38987072708788"><ele>273.0</ele><time>2026-04-25T08:15:15Z</time></trkpt><trkpt lat="43.16728883101998" lon="11.389859824840146"><ele>273.25</ele><time>2026-04-25T08:15:16Z</time></trkpt><trkpt lat="43.1671490708671" lon="11.389850634213998"><ele>273.5</ele><time>2026-04-25T08:15:17.001Z</time></trkpt><trkpt lat="43.167011518241615" lon="11.389858265236319"><ele>273.75</ele><time>2026-04-25T08:15:18.001Z</time></trkpt><trkpt lat="43.16687794010001" lon="11.389884333818069"><ele>274.0</ele><time>2026-04-25T08:15:19.001Z</time></trkpt><trkpt lat="43.166749717845235" lon="11.389940827021158"><ele>274.0</ele><time>2026-04-25T08:15:20.001Z</time></trkpt><trkpt lat="43.16662655494211" lon="11.390023531823697"><ele>274.0</ele><time>2026-04-25T08:15:21.001Z</time></trkpt><trkpt lat="43.166518683979376" lon="11.39013148395731"><ele>274.0</ele><time>2026-04-25T08:15:22.001Z</time></trkpt><trkpt lat="43.16643095577274" lon="11.3902460124225"><ele>274.0</ele><time>2026-04-25T08:15:23.001Z</time></trkpt><trkpt lat="43.16636241417417" lon="11.390353726161395"><ele>274.59999999999997</ele><time>2026-04-25T08:15:24.001Z</time></trkpt><trkpt lat="43.16630384740557" lon="11.390449415233547"><ele>275.2</ele><time>2026-04-25T08:15:25.001Z</time></trkpt><trkpt lat="43.166248708506494" lon="11.390521530458054"><ele>275.79999999999995</ele><time>2026-04-25T08:15:26.001Z</time></trkpt><trkpt lat="43.16619346347486" lon="11.390572114769013"><ele>276.4</ele><time>2026-04-25T08:15:27.001Z</time></trkpt><trkpt lat="43.166077847731515" lon="11.390647454246636"><ele>277.0</ele><time>2026-04-25T08:15:29.001Z</time></trkpt><trkpt lat="43.165961163307855" lon="11.390726552398691"><ele>276.4</ele><time>2026-04-25T08:15:31.001Z</time></trkpt><trkpt lat="43.165886695784906" lon="11.390771233467126"><ele>275.79999999999995</ele><time>2026-04-25T08:15:32.001Z</time></trkpt><trkpt lat="43.16579491968522" lon="11.3908118047961"><ele>275.2</ele><time>2026-04-25T08:15:33.001Z</time></trkpt><trkpt lat="43.165698576007124" lon="11.390847828850504"><ele>274.59999999999997</ele><time>2026-04-25T08:15:34.001Z</time></trkpt><trkpt lat="43.165597849017644" lon="11.390881792708386"><ele>274.0</ele><time>2026-04-25T08:15:35.001Z</time></trkpt><trkpt lat="43.16548902923545" lon="11.390914960014356"><ele>274.0</ele><time>2026-04-25T08:15:36.001Z</time></trkpt><trkpt lat="43.16537145505375" lon="11.390945228946782"><ele>274.0</ele><time>2026-04-25T08:15:37.001Z</time></trkpt><trkpt lat="43.16525132069958" lon="11.390975739292303"><ele>274.0</ele><time>2026-04-25T08:15:38.001Z</time></trkpt><trkpt lat="43.165130603691615" lon="11.391004436916571"><ele>274.0</ele><time>2026-04-25T08:15:39.001Z</time></trkpt><trkpt lat="43.16500697825273" lon="11.391037100594168"><ele>274.0</ele><time>2026-04-25T08:15:40.001Z</time></trkpt><trkpt lat="43.16488475543365" lon="11.39106937325572"><ele>274.0</ele><time>2026-04-25T08:15:41.001Z</time></trkpt><trkpt lat="43.16476250920847" lon="11.391100240243874"><ele>274.0</ele><time>2026-04-25T08:15:42.001Z</time></trkpt><trkpt lat="43.16464189096674" lon="11.391131689420407"><ele>274.0</ele><time>2026-04-25T08:15:43.001Z</time></trkpt><trkpt lat="43.164517216696936" lon="11.39116313165707"><ele>274.25</ele><time>2026-04-25T08:15:44.001Z</time></trkpt><trkpt lat="43.164390935048175" lon="11.39119477412309"><ele>274.5</ele><time>2026-04-25T08:15:45.001Z</time></trkpt><trkpt lat="43.16426570982849" lon="11.391227691686717"><ele>274.75</ele><time>2026-04-25T08:15:46.001Z</time></trkpt><trkpt lat="43.164138589284605" lon="11.391259294212283"><ele>275.0</ele><time>2026-04-25T08:15:47.001Z</time></trkpt><trkpt lat="43.164011200890144" lon="11.391297031262562"><ele>275.5</ele><time>2026-04-25T08:15:48.001Z</time></trkpt><trkpt lat="43.16388489144256" lon="11.391328922996241"><ele>276.0</ele><time>2026-04-25T08:15:49.001Z</time></trkpt><trkpt lat="43.16376046653696" lon="11.391359580178667"><ele>276.5</ele><time>2026-04-25T08:15:50.001Z</time></trkpt><trkpt lat="43.16363768753937" lon="11.391390609225644"><ele>277.0</ele><time>2026-04-25T08:15:51.001Z</time></trkpt><trkpt lat="43.16352459416779" lon="11.391417321528397"><ele>277.0</ele><time>2026-04-25T08:15:52.001Z</time></trkpt><trkpt lat="43.163419396639" lon="11.391443664442223"><ele>277.0</ele><time>2026-04-25T08:15:53.001Z</time></trkpt><trkpt lat="43.16332198501118" lon="11.391467669079175"><ele>277.0</ele><time>2026-04-25T08:15:54.001Z</time></trkpt><trkpt lat="43.16323362065151" lon="11.391488791647284"><ele>277.0</ele><time>2026-04-25T08:15:55.001Z</time></trkpt><trkpt lat="43.163144951575525" lon="11.391510874584737"><ele>277.0</ele><time>2026-04-25T08:15:56.001Z</time></trkpt><trkpt lat="43.16305551214653" lon="11.391531843124818"><ele>278.25</ele><time>2026-04-25T08:15:57.001Z</time></trkpt><trkpt lat="43.162959865358204" lon="11.391551630668069"><ele>279.5</ele><time>2026-04-25T08:15:58.001Z</time></trkpt><trkpt lat="43.16285411623901" lon="11.39157710696212"><ele>280.75</ele><time>2026-04-25T08:15:59.001Z</time></trkpt><trkpt lat="43.1627303094592" lon="11.391606917097207"><ele>282.0</ele><time>2026-04-25T08:16:00.001Z</time></trkpt><trkpt lat="43.162591561428805" lon="11.391609162354936"><ele>282.0</ele><time>2026-04-25T08:16:01.001Z</time></trkpt><trkpt lat="43.16242229867248" lon="11.391642388359871"><ele>282.0</ele><time>2026-04-25T08:16:02.001Z</time></trkpt><trkpt lat="43.16224299046719" lon="11.391648648723653"><ele>282.0</ele><time>2026-04-25T08:16:03.001Z</time></trkpt><trkpt lat="43.16209383100211" lon="11.391665711038035"><ele>283.0</ele><time>2026-04-25T08:16:04.001Z</time></trkpt><trkpt lat="43.16196809704982" lon="11.391699963425472"><ele>284.0</ele><time>2026-04-25T08:16:05.001Z</time></trkpt><trkpt lat="43.16185728715337" lon="11.39175206220972"><ele>285.0</ele><time>2026-04-25T08:16:06.001Z</time></trkpt><trkpt lat="43.16176151284016" lon="11.391844082336346"><ele>286.0</ele><time>2026-04-25T08:16:07.001Z</time></trkpt><trkpt lat="43.161680042587264" lon="11.391998141385232"><ele>284.66666666666663</ele><time>2026-04-25T08:16:08.001Z</time></trkpt><trkpt lat="43.161616037518435" lon="11.392220956182676"><ele>283.3333333333333</ele><time>2026-04-25T08:16:09.001Z</time></trkpt><trkpt lat="43.16155992140525" lon="11.392469289918209"><ele>282.0</ele><time>2026-04-25T08:16:10.001Z</time></trkpt><trkpt lat="43.161502760848435" lon="11.392661160675397"><ele>281.25</ele><time>2026-04-25T08:16:11.001Z</time></trkpt><trkpt lat="43.16142278056976" lon="11.392826270477029"><ele>280.5</ele><time>2026-04-25T08:16:12.001Z</time></trkpt><trkpt lat="43.16131720567894" lon="11.392965818355577"><ele>279.75</ele><time>2026-04-25T08:16:13.001Z</time></trkpt><trkpt lat="43.16120388939804" lon="11.39305897941266"><ele>279.0</ele><time>2026-04-25T08:16:14.001Z</time></trkpt><trkpt lat="43.161070420229166" lon="11.393141796613232"><ele>279.0</ele><time>2026-04-25T08:16:15.001Z</time></trkpt><trkpt lat="43.16090073065275" lon="11.393217799123843"><ele>279.0</ele><time>2026-04-25T08:16:16.001Z</time></trkpt><trkpt lat="43.160702468108795" lon="11.393284307047237"><ele>279.0</ele><time>2026-04-25T08:16:17.001Z</time></trkpt><trkpt lat="43.16049420583209" lon="11.393366443729027"><ele>278.3333333333333</ele><time>2026-04-25T08:16:18.001Z</time></trkpt><trkpt lat="43.16027970018477" lon="11.393458671829219"><ele>277.66666666666663</ele><time>2026-04-25T08:16:19.001Z</time></trkpt><trkpt lat="43.16008500936189" lon="11.39354563760462"><ele>277.0</ele><time>2026-04-25T08:16:20.001Z</time></trkpt><trkpt lat="43.15990802433157" lon="11.39363966383256"><ele>276.66666666666663</ele><time>2026-04-25T08:16:21.001Z</time></trkpt><trkpt lat="43.15974484427166" lon="11.393736946164282"><ele>276.3333333333333</ele><time>2026-04-25T08:16:22.001Z</time></trkpt><trkpt lat="43.15958383040311" lon="11.393845760832306"><ele>276.0</ele><time>2026-04-25T08:16:23.001Z</time></trkpt><trkpt lat="43.15942902673493" lon="11.39397133223602"><ele>276.0</ele><time>2026-04-25T08:16:24.001Z</time></trkpt><trkpt lat="43.15928441854932" lon="11.394120826625988"><ele>276.0</ele><time>2026-04-25T08:16:25.001Z</time></trkpt><trkpt lat="43.15915123634926" lon="11.3942889394117"><ele>276.0</ele><time>2026-04-25T08:16:26.001Z</time></trkpt><trkpt lat="43.15902702753506" lon="11.394470193046839"><ele>277.0</ele><time>2026-04-25T08:16:27.001Z</time></trkpt><trkpt lat="43.15891291761322" lon="11.394665737539114"><ele>278.0</ele><time>2026-04-25T08:16:28.001Z</time></trkpt><trkpt lat="43.1588128130731" lon="11.39487144831105"><ele>279.0</ele><time>2026-04-25T08:16:29.001Z</time></trkpt><trkpt lat="43.15873639706696" lon="11.395088919566524"><ele>279.0</ele><time>2026-04-25T08:16:30.001Z</time></trkpt><trkpt lat="43.158688476332266" lon="11.395329853888288"><ele>279.0</ele><time>2026-04-25T08:16:31.001Z</time></trkpt><trkpt lat="43.158668683507116" lon="11.39560253330796"><ele>279.0</ele><time>2026-04-25T08:16:32.002Z</time></trkpt><trkpt lat="43.15866259225303" lon="11.395865800360767"><ele>279.0</ele><time>2026-04-25T08:16:33.002Z</time></trkpt><trkpt lat="43.15865488933884" lon="11.3961206476814"><ele>279.0</ele><time>2026-04-25T08:16:34.002Z</time></trkpt><trkpt lat="43.158654390379766" lon="11.39637853098681"><ele>279.0</ele><time>2026-04-25T08:16:35.002Z</time></trkpt><trkpt lat="43.158651850812674" lon="11.396636030271853"><ele>279.3333333333333</ele><time>2026-04-25T08:16:36.002Z</time></trkpt><trkpt lat="43.158646606704124" lon="11.396888202874926"><ele>279.66666666666663</ele><time>2026-04-25T08:16:37.002Z</time></trkpt><trkpt lat="43.15864347855513" lon="11.397144822232084"><ele>280.0</ele><time>2026-04-25T08:16:38.002Z</time></trkpt><trkpt lat="43.15864120364484" lon="11.397406783258207"><ele>280.0</ele><time>2026-04-25T08:16:39.002Z</time></trkpt><trkpt lat="43.15864891112289" lon="11.397663560455834"><ele>280.0</ele><time>2026-04-25T08:16:40Z</time></trkpt><trkpt lat="43.15867081722224" lon="11.397915863847905"><ele>280.0</ele><time>2026-04-25T08:16:41Z</time></trkpt><trkpt lat="43.15871878126772" lon="11.398162615434977"><ele>280.66666666666663</ele><time>2026-04-25T08:16:42Z</time></trkpt><trkpt lat="43.15877622703368" lon="11.398390250525248"><ele>281.3333333333333</ele><time>2026-04-25T08:16:43Z</time></trkpt><trkpt lat="43.15883279468173" lon="11.398610296303653"><ele>282.0</ele><time>2026-04-25T08:16:44Z</time></trkpt><trkpt lat="43.15887975926432" lon="11.398829826754323"><ele>282.5</ele><time>2026-04-25T08:16:45Z</time></trkpt><trkpt lat="43.158907082440095" lon="11.399037983223282"><ele>283.0</ele><time>2026-04-25T08:16:46Z</time></trkpt><trkpt lat="43.15890705071356" lon="11.399234483545639"><ele>283.5</ele><time>2026-04-25T08:16:47Z</time></trkpt><trkpt lat="43.158880891870886" lon="11.399397306464149"><ele>284.0</ele><time>2026-04-25T08:16:48Z</time></trkpt><trkpt lat="43.15882863141122" lon="11.399526438529437"><ele>284.0</ele><time>2026-04-25T08:16:49Z</time></trkpt><trkpt lat="43.158745083823135" lon="11.399611758702285"><ele>284.0</ele><time>2026-04-25T08:16:50Z</time></trkpt><trkpt lat="43.15863599993109" lon="11.399659224867724"><ele>284.0</ele><time>2026-04-25T08:16:51Z</time></trkpt><trkpt lat="43.15851594961858" lon="11.399626767722507"><ele>284.0</ele><time>2026-04-25T08:16:52Z</time></trkpt><trkpt lat="43.15841278011827" lon="11.39962810133631"><ele>284.0</ele><time>2026-04-25T08:16:53Z</time></trkpt><trkpt lat="43.158306364402875" lon="11.399619136900153"><ele>285.5</ele><time>2026-04-25T08:16:54Z</time></trkpt><trkpt lat="43.15819290761115" lon="11.399622957999066"><ele>287.0</ele><time>2026-04-25T08:16:55Z</time></trkpt><trkpt lat="43.158078620512484" lon="11.399644247316632"><ele>288.5</ele><time>2026-04-25T08:16:56Z</time></trkpt><trkpt lat="43.157965812693874" lon="11.399684887801973"><ele>290.0</ele><time>2026-04-25T08:16:57Z</time></trkpt><trkpt lat="43.15785979291482" lon="11.399751526912958"><ele>290.0</ele><time>2026-04-25T08:16:58Z</time></trkpt><trkpt lat="43.15776622251846" lon="11.399836997531489"><ele>290.0</ele><time>2026-04-25T08:16:59Z</time></trkpt><trkpt lat="43.15767282907161" lon="11.399923862033015"><ele>290.0</ele><time>2026-04-25T08:17:00Z</time></trkpt><trkpt lat="43.15758077749571" lon="11.400008597051613"><ele>290.0</ele><time>2026-04-25T08:17:01Z</time></trkpt><trkpt lat="43.15748445409792" lon="11.400085167637142"><ele>290.0</ele><time>2026-04-25T08:17:02Z</time></trkpt><trkpt lat="43.15738090155985" lon="11.400143177359494"><ele>291.0</ele><time>2026-04-25T08:17:03Z</time></trkpt><trkpt lat="43.15727123661389" lon="11.400182606623968"><ele>292.0</ele><time>2026-04-25T08:17:04Z</time></trkpt><trkpt lat="43.15715767706297" lon="11.400190224129682"><ele>293.0</ele><time>2026-04-25T08:17:05Z</time></trkpt><trkpt lat="43.15703706878154" lon="11.400163585669961"><ele>294.0</ele><time>2026-04-25T08:17:06Z</time></trkpt><trkpt lat="43.15691009283849" lon="11.400115186485067"><ele>294.0</ele><time>2026-04-25T08:17:07Z</time></trkpt><trkpt lat="43.15678874795851" lon="11.400066921562708"><ele>294.0</ele><time>2026-04-25T08:17:08Z</time></trkpt><trkpt lat="43.156675928556254" lon="11.400026376282154"><ele>294.0</ele><time>2026-04-25T08:17:09Z</time></trkpt><trkpt lat="43.15656082856893" lon="11.399995975214573"><ele>294.0</ele><time>2026-04-25T08:17:10Z</time></trkpt><trkpt lat="43.156458345592725" lon="11.399998506412578"><ele>296.59999999999997</ele><time>2026-04-25T08:17:11Z</time></trkpt><trkpt lat="43.15636587803701" lon="11.40004824970495"><ele>299.2</ele><time>2026-04-25T08:17:12Z</time></trkpt><trkpt lat="43.15629266071878" lon="11.400156863450993"><ele>301.79999999999995</ele><time>2026-04-25T08:17:13Z</time></trkpt><trkpt lat="43.15626043353626" lon="11.400303651683803"><ele>304.4</ele><time>2026-04-25T08:17:14Z</time></trkpt><trkpt lat="43.15627578592588" lon="11.40046013171238"><ele>307.0</ele><time>2026-04-25T08:17:15Z</time></trkpt><trkpt lat="43.15632224330633" lon="11.400600360004661"><ele>307.25</ele><time>2026-04-25T08:17:16Z</time></trkpt><trkpt lat="43.15637924391794" lon="11.400726911754411"><ele>307.5</ele><time>2026-04-25T08:17:17Z</time></trkpt><trkpt lat="43.15644652439705" lon="11.400854658906486"><ele>307.75</ele><time>2026-04-25T08:17:18Z</time></trkpt><trkpt lat="43.156512108300326" lon="11.400992985626381"><ele>308.0</ele><time>2026-04-25T08:17:19Z</time></trkpt><trkpt lat="43.15657438071991" lon="11.401132058701329"><ele>302.75</ele><time>2026-04-25T08:17:20Z</time></trkpt><trkpt lat="43.156629935395465" lon="11.401274396144876"><ele>297.5</ele><time>2026-04-25T08:17:21Z</time></trkpt><trkpt lat="43.15667361681982" lon="11.401418285656028"><ele>292.25</ele><time>2026-04-25T08:17:22Z</time></trkpt><trkpt lat="43.15669410114846" lon="11.401569258926427"><ele>287.0</ele><time>2026-04-25T08:17:23Z</time></trkpt><trkpt lat="43.15669572383891" lon="11.401733724903607"><ele>286.5</ele><time>2026-04-25T08:17:24Z</time></trkpt><trkpt lat="43.156682141193684" lon="11.401910232619077"><ele>286.0</ele><time>2026-04-25T08:17:25Z</time></trkpt><trkpt lat="43.15665565474436" lon="11.402089763142337"><ele>285.5</ele><time>2026-04-25T08:17:26Z</time></trkpt><trkpt lat="43.15662131879201" lon="11.402273984097967"><ele>285.0</ele><time>2026-04-25T08:17:27Z</time></trkpt><trkpt lat="43.156590949839185" lon="11.402458301365861"><ele>284.5</ele><time>2026-04-25T08:17:28Z</time></trkpt><trkpt lat="43.15655978333726" lon="11.402640064296202"><ele>284.0</ele><time>2026-04-25T08:17:29Z</time></trkpt><trkpt lat="43.156527607930045" lon="11.402811126795333"><ele>283.5</ele><time>2026-04-25T08:17:30Z</time></trkpt><trkpt lat="43.15649643187744" lon="11.402987189807883"><ele>283.0</ele><time>2026-04-25T08:17:31.001Z</time></trkpt><trkpt lat="43.15646427487773" lon="11.403173491987156"><ele>285.25</ele><time>2026-04-25T08:17:32.001Z</time></trkpt><trkpt lat="43.15644515353346" lon="11.403359316057307"><ele>287.5</ele><time>2026-04-25T08:17:33.001Z</time></trkpt><trkpt lat="43.15643129960641" lon="11.403543460212687"><ele>289.75</ele><time>2026-04-25T08:17:34.001Z</time></trkpt><trkpt lat="43.15642121213588" lon="11.403722694915114"><ele>292.0</ele><time>2026-04-25T08:17:35.001Z</time></trkpt><trkpt lat="43.156407378514196" lon="11.403893467368047"><ele>292.0</ele><time>2026-04-25T08:17:36.001Z</time></trkpt><trkpt lat="43.15638642116485" lon="11.404055791528124"><ele>292.0</ele><time>2026-04-25T08:17:37.001Z</time></trkpt><trkpt lat="43.15634938062493" lon="11.404212453681906"><ele>292.0</ele><time>2026-04-25T08:17:38.001Z</time></trkpt><trkpt lat="43.15628550479645" lon="11.404363975684083"><ele>292.0</ele><time>2026-04-25T08:17:39.001Z</time></trkpt><trkpt lat="43.156202837333694" lon="11.404491750119488"><ele>292.0</ele><time>2026-04-25T08:17:40.001Z</time></trkpt><trkpt lat="43.1561080729058" lon="11.40459847831343"><ele>292.0</ele><time>2026-04-25T08:17:41.001Z</time></trkpt><trkpt lat="43.15600185277343" lon="11.404691866704956"><ele>292.0</ele><time>2026-04-25T08:17:42.001Z</time></trkpt><trkpt lat="43.15589040327249" lon="11.404770367437534"><ele>292.0</ele><time>2026-04-25T08:17:43.001Z</time></trkpt><trkpt lat="43.155771371821146" lon="11.404830086582788"><ele>290.25</ele><time>2026-04-25T08:17:44.001Z</time></trkpt><trkpt lat="43.15563757115967" lon="11.404870930793727"><ele>288.5</ele><time>2026-04-25T08:17:45.001Z</time></trkpt><trkpt lat="43.15549747776368" lon="11.404892344213383"><ele>286.75</ele><time>2026-04-25T08:17:46.001Z</time></trkpt><trkpt lat="43.15535851595438" lon="11.404910596945431"><ele>285.0</ele><time>2026-04-25T08:17:47.001Z</time></trkpt><trkpt lat="43.15522152959117" lon="11.40494433962566"><ele>285.0</ele><time>2026-04-25T08:17:48.001Z</time></trkpt><trkpt lat="43.15508576708483" lon="11.404993467904626"><ele>285.0</ele><time>2026-04-25T08:17:49.001Z</time></trkpt><trkpt lat="43.154948090447206" lon="11.405047509330315"><ele>285.0</ele><time>2026-04-25T08:17:50.001Z</time></trkpt><trkpt lat="43.15481205094471" lon="11.405106465921037"><ele>285.0</ele><time>2026-04-25T08:17:51.001Z</time></trkpt><trkpt lat="43.15468694501125" lon="11.405166100261724"><ele>287.25</ele><time>2026-04-25T08:17:52.001Z</time></trkpt><trkpt lat="43.154566903958276" lon="11.405228711379129"><ele>289.5</ele><time>2026-04-25T08:17:53.001Z</time></trkpt><trkpt lat="43.15444923338214" lon="11.405296517893506"><ele>291.75</ele><time>2026-04-25T08:17:54.001Z</time></trkpt><trkpt lat="43.15433892969037" lon="11.405367537846953"><ele>294.0</ele><time>2026-04-25T08:17:55.001Z</time></trkpt><trkpt lat="43.15423412773025" lon="11.405451059021106"><ele>292.0</ele><time>2026-04-25T08:17:56.001Z</time></trkpt><trkpt lat="43.15413056469136" lon="11.405534848250149"><ele>290.0</ele><time>2026-04-25T08:17:57.001Z</time></trkpt><trkpt lat="43.15401868009407" lon="11.405601224275612"><ele>288.0</ele><time>2026-04-25T08:17:58.001Z</time></trkpt><trkpt lat="43.15390020715195" lon="11.405646708314737"><ele>286.0</ele><time>2026-04-25T08:17:59.001Z</time></trkpt><trkpt lat="43.15377665391551" lon="11.405669984115258"><ele>286.0</ele><time>2026-04-25T08:18:00.001Z</time></trkpt><trkpt lat="43.15365402372694" lon="11.405674721827266"><ele>286.0</ele><time>2026-04-25T08:18:01.001Z</time></trkpt><trkpt lat="43.15354040523064" lon="11.405681706106582"><ele>286.0</ele><time>2026-04-25T08:18:02.001Z</time></trkpt><trkpt lat="43.153421084375445" lon="11.405708207766905"><ele>286.0</ele><time>2026-04-25T08:18:03.001Z</time></trkpt><trkpt lat="43.15330051658059" lon="11.405756205116917"><ele>288.5</ele><time>2026-04-25T08:18:04.001Z</time></trkpt><trkpt lat="43.15318489706889" lon="11.405831037897348"><ele>291.0</ele><time>2026-04-25T08:18:05.001Z</time></trkpt><trkpt lat="43.15308658088716" lon="11.405923812425986"><ele>293.5</ele><time>2026-04-25T08:18:06.001Z</time></trkpt><trkpt lat="43.15299151295775" lon="11.406027386980258"><ele>296.0</ele><time>2026-04-25T08:18:07.001Z</time></trkpt><trkpt lat="43.15290007185878" lon="11.406131815056403"><ele>296.0</ele><time>2026-04-25T08:18:08.001Z</time></trkpt><trkpt lat="43.152802328744386" lon="11.406228101078078"><ele>296.0</ele><time>2026-04-25T08:18:09.001Z</time></trkpt><trkpt lat="43.15270220215106" lon="11.40631617301912"><ele>296.0</ele><time>2026-04-25T08:18:10.001Z</time></trkpt><trkpt lat="43.15259277898164" lon="11.406389592825562"><ele>296.0</ele><time>2026-04-25T08:18:11.001Z</time></trkpt><trkpt lat="43.15247557225981" lon="11.406452569164886"><ele>292.75</ele><time>2026-04-25T08:18:12.001Z</time></trkpt><trkpt lat="43.15235443913945" lon="11.40651629996576"><ele>289.5</ele><time>2026-04-25T08:18:13.001Z</time></trkpt><trkpt lat="43.152227510168004" lon="11.406563305132114"><ele>286.25</ele><time>2026-04-25T08:18:14.001Z</time></trkpt><trkpt lat="43.15209837226796" lon="11.406596257185004"><ele>283.0</ele><time>2026-04-25T08:18:15.001Z</time></trkpt><trkpt lat="43.1519682479248" lon="11.406606718326227"><ele>283.0</ele><time>2026-04-25T08:18:16.001Z</time></trkpt><trkpt lat="43.15183927692102" lon="11.406615444957863"><ele>283.0</ele><time>2026-04-25T08:18:17.001Z</time></trkpt><trkpt lat="43.15170779865764" lon="11.406620874376088"><ele>283.0</ele><time>2026-04-25T08:18:18.001Z</time></trkpt><trkpt lat="43.151577745835496" lon="11.406630081958541"><ele>283.0</ele><time>2026-04-25T08:18:19.001Z</time></trkpt><trkpt lat="43.15144844220113" lon="11.406649742844392"><ele>283.75</ele><time>2026-04-25T08:18:20.001Z</time></trkpt><trkpt lat="43.151321134428116" lon="11.406689404283965"><ele>284.5</ele><time>2026-04-25T08:18:21.001Z</time></trkpt><trkpt lat="43.151193409850215" lon="11.406736207440458"><ele>285.25</ele><time>2026-04-25T08:18:22.001Z</time></trkpt><trkpt lat="43.151068120149866" lon="11.406769353915323"><ele>286.0</ele><time>2026-04-25T08:18:23.001Z</time></trkpt><trkpt lat="43.15094190007181" lon="11.406794006684343"><ele>286.0</ele><time>2026-04-25T08:18:24.001Z</time></trkpt><trkpt lat="43.15081296375617" lon="11.406807165578511"><ele>286.0</ele><time>2026-04-25T08:18:25.001Z</time></trkpt><trkpt lat="43.150682660635944" lon="11.406801358923108"><ele>286.0</ele><time>2026-04-25T08:18:26.001Z</time></trkpt><trkpt lat="43.15055396136763" lon="11.406780823301332"><ele>286.0</ele><time>2026-04-25T08:18:27.001Z</time></trkpt><trkpt lat="43.15042825475837" lon="11.406751591242076"><ele>284.75</ele><time>2026-04-25T08:18:28.001Z</time></trkpt><trkpt lat="43.15030932068688" lon="11.406712164665347"><ele>283.5</ele><time>2026-04-25T08:18:29.001Z</time></trkpt><trkpt lat="43.15019708679416" lon="11.406647715894609"><ele>282.25</ele><time>2026-04-25T08:18:30.001Z</time></trkpt><trkpt lat="43.15009590513583" lon="11.406556320400508"><ele>281.0</ele><time>2026-04-25T08:18:31.001Z</time></trkpt><trkpt lat="43.150006434144764" lon="11.406439942496421"><ele>281.0</ele><time>2026-04-25T08:18:32.001Z</time></trkpt><trkpt lat="43.14992739326787" lon="11.406330405247898"><ele>281.0</ele><time>2026-04-25T08:18:33.001Z</time></trkpt><trkpt lat="43.149842539329406" lon="11.406249754354098"><ele>281.0</ele><time>2026-04-25T08:18:34.001Z</time></trkpt><trkpt lat="43.149743680246424" lon="11.40620234265941"><ele>281.0</ele><time>2026-04-25T08:18:35.001Z</time></trkpt><trkpt lat="43.149633223707305" lon="11.406197373458058"><ele>281.0</ele><time>2026-04-25T08:18:36.001Z</time></trkpt><trkpt lat="43.149517825741725" lon="11.406236039742252"><ele>282.0</ele><time>2026-04-25T08:18:37.001Z</time></trkpt><trkpt lat="43.14941388347541" lon="11.406317379674533"><ele>283.0</ele><time>2026-04-25T08:18:38.001Z</time></trkpt><trkpt lat="43.14933150160383" lon="11.406422689753178"><ele>284.0</ele><time>2026-04-25T08:18:39.001Z</time></trkpt><trkpt lat="43.149254855604205" lon="11.406539583229602"><ele>285.0</ele><time>2026-04-25T08:18:40.001Z</time></trkpt><trkpt lat="43.149166059366856" lon="11.406637523129692"><ele>285.0</ele><time>2026-04-25T08:18:41.001Z</time></trkpt><trkpt lat="43.1490626600437" lon="11.406693687351927"><ele>285.0</ele><time>2026-04-25T08:18:42.001Z</time></trkpt><trkpt lat="43.148956768291434" lon="11.40671988185676"><ele>285.0</ele><time>2026-04-25T08:18:43.001Z</time></trkpt><trkpt lat="43.14885715701544" lon="11.406735631557211"><ele>285.0</ele><time>2026-04-25T08:18:44.002Z</time></trkpt><trkpt lat="43.148762009509774" lon="11.406753202568375"><ele>285.0</ele><time>2026-04-25T08:18:45.002Z</time></trkpt><trkpt lat="43.14867337730647" lon="11.406775635002484"><ele>285.8</ele><time>2026-04-25T08:18:46Z</time></trkpt><trkpt lat="43.14858946351804" lon="11.406804875886493"><ele>286.6</ele><time>2026-04-25T08:18:47Z</time></trkpt><trkpt lat="43.148500765431066" lon="11.406859433182326"><ele>287.4</ele><time>2026-04-25T08:18:48Z</time></trkpt><trkpt lat="43.148419687202356" lon="11.406945725461894"><ele>288.2</ele><time>2026-04-25T08:18:49Z</time></trkpt><trkpt lat="43.14835292295147" lon="11.407060050838995"><ele>289.0</ele><time>2026-04-25T08:18:50Z</time></trkpt><trkpt lat="43.14828747842677" lon="11.40718145151387"><ele>289.75</ele><time>2026-04-25T08:18:51Z</time></trkpt><trkpt lat="43.14822441190147" lon="11.407309611975359"><ele>290.5</ele><time>2026-04-25T08:18:52Z</time></trkpt><trkpt lat="43.14816425193355" lon="11.407448787180519"><ele>291.25</ele><time>2026-04-25T08:18:53Z</time></trkpt><trkpt lat="43.14810231072281" lon="11.407588544429784"><ele>292.0</ele><time>2026-04-25T08:18:54Z</time></trkpt><trkpt lat="43.14804018710321" lon="11.40772282788824"><ele>292.0</ele><time>2026-04-25T08:18:55Z</time></trkpt><trkpt lat="43.14798218025191" lon="11.407865623930826"><ele>292.0</ele><time>2026-04-25T08:18:56Z</time></trkpt><trkpt lat="43.14793373175727" lon="11.40801925738458"><ele>292.0</ele><time>2026-04-25T08:18:57Z</time></trkpt><trkpt lat="43.147896558046476" lon="11.408180051448193"><ele>292.0</ele><time>2026-04-25T08:18:58Z</time></trkpt><trkpt lat="43.14787352282168" lon="11.408349499765688"><ele>290.5</ele><time>2026-04-25T08:18:59Z</time></trkpt><trkpt lat="43.14785989316825" lon="11.408524076127671"><ele>289.0</ele><time>2026-04-25T08:19:00Z</time></trkpt><trkpt lat="43.14784551177646" lon="11.408701690949254"><ele>287.5</ele><time>2026-04-25T08:19:01Z</time></trkpt><trkpt lat="43.147829111853596" lon="11.408872652205817"><ele>286.0</ele><time>2026-04-25T08:19:02Z</time></trkpt><trkpt lat="43.147808677746006" lon="11.409037095651048"><ele>284.5</ele><time>2026-04-25T08:19:03Z</time></trkpt><trkpt lat="43.14778549734432" lon="11.409198159704147"><ele>283.0</ele><time>2026-04-25T08:19:04Z</time></trkpt><trkpt lat="43.1477612779713" lon="11.409357706701384"><ele>281.5</ele><time>2026-04-25T08:19:05Z</time></trkpt><trkpt lat="43.14773626527225" lon="11.409520055152997"><ele>280.0</ele><time>2026-04-25T08:19:06Z</time></trkpt><trkpt lat="43.14771038093485" lon="11.409682776296979"><ele>278.25</ele><time>2026-04-25T08:19:07Z</time></trkpt><trkpt lat="43.14768653622737" lon="11.409843465216593"><ele>276.5</ele><time>2026-04-25T08:19:08Z</time></trkpt><trkpt lat="43.147657329122715" lon="11.409997401978138"><ele>274.75</ele><time>2026-04-25T08:19:09Z</time></trkpt><trkpt lat="43.14761413593618" lon="11.41014282993266"><ele>273.0</ele><time>2026-04-25T08:19:10Z</time></trkpt><trkpt lat="43.14755221382923" lon="11.410275889547226"><ele>273.0</ele><time>2026-04-25T08:19:11Z</time></trkpt><trkpt lat="43.147474811748346" lon="11.410396405197242"><ele>273.0</ele><time>2026-04-25T08:19:12Z</time></trkpt><trkpt lat="43.14738285589426" lon="11.41049667342236"><ele>273.0</ele><time>2026-04-25T08:19:13Z</time></trkpt><trkpt lat="43.14727855302903" lon="11.410583768372275"><ele>273.0</ele><time>2026-04-25T08:19:14Z</time></trkpt><trkpt lat="43.14716512085779" lon="11.410657311338307"><ele>271.25</ele><time>2026-04-25T08:19:15Z</time></trkpt><trkpt lat="43.14704841378878" lon="11.41072818193348"><ele>269.5</ele><time>2026-04-25T08:19:16Z</time></trkpt><trkpt lat="43.14693065582516" lon="11.41080643195731"><ele>267.75</ele><time>2026-04-25T08:19:17Z</time></trkpt><trkpt lat="43.14681225504752" lon="11.410899437651176"><ele>266.0</ele><time>2026-04-25T08:19:18Z</time></trkpt><trkpt lat="43.14669643900984" lon="11.411020627883937"><ele>266.0</ele><time>2026-04-25T08:19:19Z</time></trkpt><trkpt lat="43.14657790150995" lon="11.41120949794982"><ele>266.0</ele><time>2026-04-25T08:19:20Z</time></trkpt><trkpt lat="43.146470233025866" lon="11.411393268701072"><ele>266.0</ele><time>2026-04-25T08:19:21Z</time></trkpt><trkpt lat="43.146372497711475" lon="11.411552317390894"><ele>264.75</ele><time>2026-04-25T08:19:22Z</time></trkpt><trkpt lat="43.146285561773" lon="11.411699004197096"><ele>263.5</ele><time>2026-04-25T08:19:23Z</time></trkpt><trkpt lat="43.14620428915863" lon="11.411839166255488"><ele>262.25</ele><time>2026-04-25T08:19:24Z</time></trkpt><trkpt lat="43.14612939824055" lon="11.411978212360642"><ele>261.0</ele><time>2026-04-25T08:19:25Z</time></trkpt><trkpt lat="43.14606124762631" lon="11.412117610631448"><ele>258.3333333333333</ele><time>2026-04-25T08:19:26Z</time></trkpt><trkpt lat="43.1460001663871" lon="11.412268616011838"><ele>255.66666666666666</ele><time>2026-04-25T08:19:27Z</time></trkpt><trkpt lat="43.14593785329142" lon="11.412502946863166"><ele>253.0</ele><time>2026-04-25T08:19:28Z</time></trkpt><trkpt lat="43.14587526847301" lon="11.412776901639624"><ele>252.66666666666666</ele><time>2026-04-25T08:19:29Z</time></trkpt><trkpt lat="43.14580273927903" lon="11.413049586650102"><ele>252.33333333333331</ele><time>2026-04-25T08:19:30Z</time></trkpt><trkpt lat="43.14572368126751" lon="11.413277296995878"><ele>252.0</ele><time>2026-04-25T08:19:31Z</time></trkpt><trkpt lat="43.145627176165604" lon="11.413476909165048"><ele>250.5</ele><time>2026-04-25T08:19:32Z</time></trkpt><trkpt lat="43.14551980670377" lon="11.413645150758098"><ele>249.0</ele><time>2026-04-25T08:19:33Z</time></trkpt><trkpt lat="43.145414374106906" lon="11.413795204215177"><ele>247.5</ele><time>2026-04-25T08:19:34Z</time></trkpt><trkpt lat="43.145320671098396" lon="11.413921605612703"><ele>246.0</ele><time>2026-04-25T08:19:35Z</time></trkpt><trkpt lat="43.14524854149316" lon="11.414048067788213"><ele>245.0</ele><time>2026-04-25T08:19:36.001Z</time></trkpt><trkpt lat="43.14520337017644" lon="11.414195961372421"><ele>244.0</ele><time>2026-04-25T08:19:37.001Z</time></trkpt><trkpt lat="43.145179605156244" lon="11.414374405917911"><ele>243.0</ele><time>2026-04-25T08:19:38.001Z</time></trkpt><trkpt lat="43.14518936158916" lon="11.414528022313608"><ele>242.0</ele><time>2026-04-25T08:19:39.001Z</time></trkpt><trkpt lat="43.14521938161221" lon="11.414665289616899"><ele>240.5</ele><time>2026-04-25T08:19:40.001Z</time></trkpt><trkpt lat="43.14527456389045" lon="11.414793837655928"><ele>239.0</ele><time>2026-04-25T08:19:41.001Z</time></trkpt><trkpt lat="43.14537890107253" lon="11.414931482225569"><ele>237.5</ele><time>2026-04-25T08:19:42.001Z</time></trkpt><trkpt lat="43.145465555913944" lon="11.41506576215527"><ele>236.0</ele><time>2026-04-25T08:19:43.001Z</time></trkpt><trkpt lat="43.145542288213306" lon="11.41518178968812"><ele>236.0</ele><time>2026-04-25T08:19:44.001Z</time></trkpt><trkpt lat="43.14561184734055" lon="11.415301050038371"><ele>236.0</ele><time>2026-04-25T08:19:45.001Z</time></trkpt><trkpt lat="43.145672232980445" lon="11.415433156314421"><ele>236.0</ele><time>2026-04-25T08:19:46.001Z</time></trkpt><trkpt lat="43.145720164326896" lon="11.41557206856689"><ele>236.0</ele><time>2026-04-25T08:19:47.001Z</time></trkpt><trkpt lat="43.14575557149963" lon="11.415720360252601"><ele>236.0</ele><time>2026-04-25T08:19:48.001Z</time></trkpt><trkpt lat="43.14577716615435" lon="11.415879451725125"><ele>236.0</ele><time>2026-04-25T08:19:49.001Z</time></trkpt><trkpt lat="43.14577532357267" lon="11.416050454213046"><ele>236.0</ele><time>2026-04-25T08:19:50.001Z</time></trkpt><trkpt lat="43.14575733060937" lon="11.416241005808473"><ele>236.0</ele><time>2026-04-25T08:19:51.001Z</time></trkpt><trkpt lat="43.14573442287982" lon="11.416419091563439"><ele>236.0</ele><time>2026-04-25T08:19:52.001Z</time></trkpt><trkpt lat="43.14571790898755" lon="11.416599965678902"><ele>236.0</ele><time>2026-04-25T08:19:53.001Z</time></trkpt><trkpt lat="43.145701652892946" lon="11.416780914811259"><ele>236.0</ele><time>2026-04-25T08:19:54.001Z</time></trkpt><trkpt lat="43.14567848257873" lon="11.416960364706293"><ele>236.0</ele><time>2026-04-25T08:19:55.001Z</time></trkpt><trkpt lat="43.14564612887657" lon="11.417136438171461"><ele>231.25</ele><time>2026-04-25T08:19:56.001Z</time></trkpt><trkpt lat="43.14560494283115" lon="11.41730750890503"><ele>226.5</ele><time>2026-04-25T08:19:57.001Z</time></trkpt><trkpt lat="43.14555142039955" lon="11.417481150293357"><ele>221.75</ele><time>2026-04-25T08:19:58.001Z</time></trkpt><trkpt lat="43.145491271430565" lon="11.417665203287878"><ele>217.0</ele><time>2026-04-25T08:19:59.001Z</time></trkpt><trkpt lat="43.14543725485391" lon="11.417838920991937"><ele>216.25</ele><time>2026-04-25T08:20:00.001Z</time></trkpt><trkpt lat="43.14539044227904" lon="11.41801629504854"><ele>215.5</ele><time>2026-04-25T08:20:01.001Z</time></trkpt><trkpt lat="43.14535793939945" lon="11.418194510655487"><ele>214.75</ele><time>2026-04-25T08:20:02.001Z</time></trkpt><trkpt lat="43.1453441908549" lon="11.418372734595344"><ele>214.0</ele><time>2026-04-25T08:20:03.001Z</time></trkpt><trkpt lat="43.14534325184649" lon="11.418547474901473"><ele>214.0</ele><time>2026-04-25T08:20:04.001Z</time></trkpt><trkpt lat="43.1453450601494" lon="11.418721012384106"><ele>214.0</ele><time>2026-04-25T08:20:05.001Z</time></trkpt><trkpt lat="43.1453376966908" lon="11.41888628606178"><ele>214.0</ele><time>2026-04-25T08:20:06.001Z</time></trkpt><trkpt lat="43.14532798895095" lon="11.419049445840619"><ele>214.0</ele><time>2026-04-25T08:20:07.001Z</time></trkpt><trkpt lat="43.145316432675955" lon="11.419211809251642"><ele>213.75</ele><time>2026-04-25T08:20:08.001Z</time></trkpt><trkpt lat="43.1452898170674" lon="11.419378118725072"><ele>213.5</ele><time>2026-04-25T08:20:09.001Z</time></trkpt><trkpt lat="43.14524308369036" lon="11.419544047222852"><ele>213.25</ele><time>2026-04-25T08:20:10.001Z</time></trkpt><trkpt lat="43.14519794957754" lon="11.419706045040064"><ele>213.0</ele><time>2026-04-25T08:20:11.001Z</time></trkpt><trkpt lat="43.14516207195319" lon="11.41986455594248"><ele>212.25</ele><time>2026-04-25T08:20:12.001Z</time></trkpt><trkpt lat="43.14513399121214" lon="11.420026456246768"><ele>211.5</ele><time>2026-04-25T08:20:13.001Z</time></trkpt><trkpt lat="43.14512528373829" lon="11.420186783092985"><ele>210.75</ele><time>2026-04-25T08:20:14.001Z</time></trkpt><trkpt lat="43.145130311317644" lon="11.42034723413308"><ele>210.0</ele><time>2026-04-25T08:20:15.001Z</time></trkpt><trkpt lat="43.145135435239084" lon="11.420497413597543"><ele>209.4</ele><time>2026-04-25T08:20:16.001Z</time></trkpt><trkpt lat="43.14514183766034" lon="11.420634216698682"><ele>208.8</ele><time>2026-04-25T08:20:17.001Z</time></trkpt><trkpt lat="43.14514452893151" lon="11.420767216343359"><ele>208.2</ele><time>2026-04-25T08:20:18.001Z</time></trkpt><trkpt lat="43.14513866105926" lon="11.42088542017119"><ele>207.6</ele><time>2026-04-25T08:20:19.001Z</time></trkpt><trkpt lat="43.14513144518059" lon="11.420987400868192"><ele>207.0</ele><time>2026-04-25T08:20:20.001Z</time></trkpt><trkpt lat="43.14511266603911" lon="11.421134797890502"><ele>207.0</ele><time>2026-04-25T08:20:22.001Z</time></trkpt><trkpt lat="43.145151163039436" lon="11.421243501159584"><ele>207.0</ele><time>2026-04-25T08:20:24.001Z</time></trkpt><trkpt lat="43.14518961910185" lon="11.421325202928202"><ele>207.0</ele><time>2026-04-25T08:20:27.001Z</time></trkpt><trkpt lat="43.14521929872853" lon="11.421403987767745"><ele>207.0</ele><time>2026-04-25T08:20:30.001Z</time></trkpt><trkpt lat="43.14524586220801" lon="11.421514770396996"><ele>207.0</ele><time>2026-04-25T08:20:38.001Z</time></trkpt><trkpt lat="43.14528616837927" lon="11.421642397253978"><ele>207.0</ele><time>2026-04-25T08:20:40.001Z</time></trkpt><trkpt lat="43.14532179181121" lon="11.421748341952982"><ele>206.8</ele><time>2026-04-25T08:20:42.001Z</time></trkpt><trkpt lat="43.14532494778824" lon="11.421841263376912"><ele>206.6</ele><time>2026-04-25T08:20:44.001Z</time></trkpt><trkpt lat="43.145193231793975" lon="11.421923288839153"><ele>206.4</ele><time>2026-04-25T08:20:48.002Z</time></trkpt><trkpt lat="43.14508534269054" lon="11.421868642672685"><ele>206.20000000000002</ele><time>2026-04-25T08:20:50.002Z</time></trkpt><trkpt lat="43.14499781766682" lon="11.421861790665357"><ele>206.0</ele><time>2026-04-25T08:20:53Z</time></trkpt><trkpt lat="43.14492772660769" lon="11.421881909288242"><ele>206.00000000000003</ele><time>2026-04-25T08:20:55Z</time></trkpt><trkpt lat="43.14484569830632" lon="11.421971534779242"><ele>206.0</ele><time>2026-04-25T08:20:57Z</time></trkpt><trkpt lat="43.14483634182876" lon="11.422063779851083"><ele>206.0</ele><time>2026-04-25T08:21:03Z</time></trkpt><trkpt lat="43.14489714841638" lon="11.422040327333736"><ele>206.0</ele><time>2026-04-25T08:21:16Z</time></trkpt><trkpt lat="43.14493840300424" lon="11.42196499603879"><ele>206.00000000000003</ele><time>2026-04-25T08:21:19Z</time></trkpt><trkpt lat="43.14498506025291" lon="11.421899387446114"><ele>206.0</ele><time>2026-04-25T08:21:22Z</time></trkpt><trkpt lat="43.14505750599854" lon="11.4218550300107"><ele>206.0</ele><time>2026-04-25T08:21:26Z</time></trkpt><trkpt lat="43.145123282378286" lon="11.421875683970214"><ele>206.0</ele><time>2026-04-25T08:21:29Z</time></trkpt><trkpt lat="43.14515550695859" lon="11.421965565596977"><ele>206.0</ele><time>2026-04-25T08:21:32Z</time></trkpt></trkseg><trkseg><trkpt lat="43.14518272218772" lon="11.422035500746512"><ele>205.99999999999997</ele><time>2026-04-25T09:03:57.001Z</time></trkpt><trkpt lat="43.14524023422654" lon="11.421998430880457"><ele>206.0</ele><time>2026-04-25T09:04:02.001Z</time></trkpt><trkpt lat="43.145299916545525" lon="11.42193049625188"><ele>206.0</ele><time>2026-04-25T09:04:06.001Z</time></trkpt><trkpt lat="43.145360918095506" lon="11.421907652136998"><ele>206.0</ele><time>2026-04-25T09:04:09.001Z</time></trkpt><trkpt lat="43.145402690469474" lon="11.421979204031906"><ele>206.0</ele><time>2026-04-25T09:06:07.001Z</time></trkpt><trkpt lat="43.14543890047051" lon="11.422078049754903"><ele>205.99999999999997</ele><time>2026-04-25T09:06:11.001Z</time></trkpt><trkpt lat="43.14546785907284" lon="11.4221620962673"><ele>206.0</ele><time>2026-04-25T09:06:14.001Z</time></trkpt><trkpt lat="43.14550470470699" lon="11.422266706747134"><ele>206.50000000000003</ele><time>2026-04-25T09:06:17.001Z</time></trkpt><trkpt lat="43.14555590867428" lon="11.422423937595436"><ele>207.0</ele><time>2026-04-25T09:06:19.001Z</time></trkpt><trkpt lat="43.145590499285746" lon="11.422525105486198"><ele>207.5</ele><time>2026-04-25T09:06:21.001Z</time></trkpt><trkpt lat="43.145620140423524" lon="11.422601804639916"><ele>208.0</ele><time>2026-04-25T09:06:22.001Z</time></trkpt><trkpt lat="43.14565807360262" lon="11.42270024208872"><ele>208.50000000000003</ele><time>2026-04-25T09:06:23.001Z</time></trkpt><trkpt lat="43.145692295301295" lon="11.422790877173657"><ele>209.0</ele><time>2026-04-25T09:06:24.001Z</time></trkpt><trkpt lat="43.14572982770211" lon="11.422895469898613"><ele>208.66666666666669</ele><time>2026-04-25T09:06:25.001Z</time></trkpt><trkpt lat="43.145765235044614" lon="11.422989102789446"><ele>208.33333333333334</ele><time>2026-04-25T09:06:26.001Z</time></trkpt><trkpt lat="43.145814252488556" lon="11.423146196567092"><ele>208.0</ele><time>2026-04-25T09:06:28.001Z</time></trkpt><trkpt lat="43.1458438692694" lon="11.423241154804733"><ele>207.66666666666669</ele><time>2026-04-25T09:06:29.001Z</time></trkpt><trkpt lat="43.145879116376705" lon="11.423343472459687"><ele>207.33333333333334</ele><time>2026-04-25T09:06:29.998Z</time></trkpt><trkpt lat="43.145911765632796" lon="11.42345298083471"><ele>207.0</ele><time>2026-04-25T09:06:30.998Z</time></trkpt><trkpt lat="43.145933923303666" lon="11.423564410503655"><ele>207.0</ele><time>2026-04-25T09:06:31.998Z</time></trkpt><trkpt lat="43.14595080328535" lon="11.423690267985258"><ele>207.0</ele><time>2026-04-25T09:06:32.998Z</time></trkpt><trkpt lat="43.1459618022932" lon="11.423812746798916"><ele>207.0</ele><time>2026-04-25T09:06:33.998Z</time></trkpt><trkpt lat="43.14595839864967" lon="11.423926657562818"><ele>207.0</ele><time>2026-04-25T09:06:34.998Z</time></trkpt><trkpt lat="43.14594330147338" lon="11.424043471267534"><ele>207.0</ele><time>2026-04-25T09:06:35.998Z</time></trkpt><trkpt lat="43.1459059465167" lon="11.42414959553546"><ele>207.0</ele><time>2026-04-25T09:06:36.998Z</time></trkpt><trkpt lat="43.14585930763263" lon="11.424266935407662"><ele>206.8</ele><time>2026-04-25T09:06:37.998Z</time></trkpt><trkpt lat="43.14580376545068" lon="11.424397466401947"><ele>206.6</ele><time>2026-04-25T09:06:38.998Z</time></trkpt><trkpt lat="43.145751042590334" lon="11.424504928926208"><ele>206.4</ele><time>2026-04-25T09:06:39.998Z</time></trkpt><trkpt lat="43.14570690916634" lon="11.424617919914867"><ele>206.20000000000002</ele><time>2026-04-25T09:06:40.998Z</time></trkpt><trkpt lat="43.14562908235633" lon="11.42472428763395"><ele>206.0</ele><time>2026-04-25T09:06:41.998Z</time></trkpt><trkpt lat="43.145581081846984" lon="11.424841120938245"><ele>208.33333333333334</ele><time>2026-04-25T09:06:42.998Z</time></trkpt><trkpt lat="43.145541759212485" lon="11.424921124964092"><ele>210.66666666666669</ele><time>2026-04-25T09:06:43.998Z</time></trkpt><trkpt lat="43.145518165430296" lon="11.425006399281111"><ele>213.0</ele><time>2026-04-25T09:06:44.999Z</time></trkpt><trkpt lat="43.14551750350732" lon="11.425095883819456"><ele>215.33333333333331</ele><time>2026-04-25T09:06:45.999Z</time></trkpt><trkpt lat="43.14554823686933" lon="11.425191115592185"><ele>217.66666666666666</ele><time>2026-04-25T09:06:46.999Z</time></trkpt><trkpt lat="43.1456067641074" lon="11.425270404700205"><ele>220.0</ele><time>2026-04-25T09:06:47.999Z</time></trkpt><trkpt lat="43.14569182544956" lon="11.42534074037902"><ele>218.6</ele><time>2026-04-25T09:06:48.999Z</time></trkpt><trkpt lat="43.14579088991801" lon="11.425396144158766"><ele>217.2</ele><time>2026-04-25T09:06:49.999Z</time></trkpt><trkpt lat="43.14589902026302" lon="11.425438533938623"><ele>215.8</ele><time>2026-04-25T09:06:50.999Z</time></trkpt><trkpt lat="43.145990787927985" lon="11.42548926496134"><ele>214.4</ele><time>2026-04-25T09:06:51.999Z</time></trkpt><trkpt lat="43.14608055136745" lon="11.425563475040766"><ele>213.0</ele><time>2026-04-25T09:06:52.999Z</time></trkpt><trkpt lat="43.14616358563273" lon="11.425656178733183"><ele>213.0</ele><time>2026-04-25T09:06:53.999Z</time></trkpt><trkpt lat="43.14624617408048" lon="11.425760498604557"><ele>213.0</ele><time>2026-04-25T09:06:54.999Z</time></trkpt><trkpt lat="43.146324596732306" lon="11.425882192585007"><ele>213.0</ele><time>2026-04-25T09:06:55.999Z</time></trkpt><trkpt lat="43.14641748578521" lon="11.425984754856232"><ele>213.0</ele><time>2026-04-25T09:06:56.999Z</time></trkpt><trkpt lat="43.14651510210242" lon="11.426081609259152"><ele>212.75</ele><time>2026-04-25T09:06:57.999Z</time></trkpt><trkpt lat="43.14662847446641" lon="11.426184307544887"><ele>212.5</ele><time>2026-04-25T09:06:58.999Z</time></trkpt><trkpt lat="43.146736590049194" lon="11.426281106301195"><ele>212.25</ele><time>2026-04-25T09:06:59.999Z</time></trkpt><trkpt lat="43.14683300810379" lon="11.426355387152263"><ele>212.0</ele><time>2026-04-25T09:07:00.999Z</time></trkpt><trkpt lat="43.14693733226643" lon="11.426422607196491"><ele>212.0</ele><time>2026-04-25T09:07:01.999Z</time></trkpt><trkpt lat="43.14704063633973" lon="11.426493751533142"><ele>212.0</ele><time>2026-04-25T09:07:02.999Z</time></trkpt><trkpt lat="43.147136007886274" lon="11.426585116753612"><ele>212.0</ele><time>2026-04-25T09:07:03.999Z</time></trkpt><trkpt lat="43.14722663478419" lon="11.42668303231414"><ele>212.0</ele><time>2026-04-25T09:07:05Z</time></trkpt><trkpt lat="43.14730676507752" lon="11.426787087579127"><ele>211.2</ele><time>2026-04-25T09:07:06Z</time></trkpt><trkpt lat="43.147380922468564" lon="11.426892266699802"><ele>210.39999999999998</ele><time>2026-04-25T09:07:07Z</time></trkpt><trkpt lat="43.14745520820071" lon="11.42698843352139"><ele>209.60000000000002</ele><time>2026-04-25T09:07:08Z</time></trkpt><trkpt lat="43.14753873835655" lon="11.427079060876201"><ele>208.8</ele><time>2026-04-25T09:07:09Z</time></trkpt><trkpt lat="43.147630978201335" lon="11.42714736457814"><ele>208.0</ele><time>2026-04-25T09:07:10Z</time></trkpt><trkpt lat="43.147737763615226" lon="11.427198130447215"><ele>208.0</ele><time>2026-04-25T09:07:11Z</time></trkpt><trkpt lat="43.14786390792298" lon="11.42723508942868"><ele>208.0</ele><time>2026-04-25T09:07:12Z</time></trkpt><trkpt lat="43.147991029762025" lon="11.427257905192283"><ele>208.0</ele><time>2026-04-25T09:07:13Z</time></trkpt><trkpt lat="43.148096346861266" lon="11.427278404500779"><ele>208.0</ele><time>2026-04-25T09:07:14Z</time></trkpt><trkpt lat="43.14819209699627" lon="11.427321989855898"><ele>207.4</ele><time>2026-04-25T09:07:15Z</time></trkpt><trkpt lat="43.14829696827403" lon="11.427367760593874"><ele>206.8</ele><time>2026-04-25T09:07:16Z</time></trkpt><trkpt lat="43.14840069612639" lon="11.427427721035484"><ele>206.2</ele><time>2026-04-25T09:07:17Z</time></trkpt><trkpt lat="43.148508157363324" lon="11.427484175625152"><ele>205.6</ele><time>2026-04-25T09:07:18Z</time></trkpt><trkpt lat="43.14860836112416" lon="11.427537145271103"><ele>205.0</ele><time>2026-04-25T09:07:19Z</time></trkpt><trkpt lat="43.14871244268298" lon="11.427590339640144"><ele>205.0</ele><time>2026-04-25T09:07:20Z</time></trkpt><trkpt lat="43.14882008579521" lon="11.42764564598548"><ele>205.0</ele><time>2026-04-25T09:07:21Z</time></trkpt><trkpt lat="43.1489241271335" lon="11.427705905457325"><ele>205.0</ele><time>2026-04-25T09:07:22Z</time></trkpt><trkpt lat="43.149037102297584" lon="11.42776732786654"><ele>205.0</ele><time>2026-04-25T09:07:23Z</time></trkpt><trkpt lat="43.14914606772706" lon="11.427829167143834"><ele>204.75</ele><time>2026-04-25T09:07:24Z</time></trkpt><trkpt lat="43.14924479605116" lon="11.427901689322868"><ele>204.5</ele><time>2026-04-25T09:07:25Z</time></trkpt><trkpt lat="43.14934479870696" lon="11.427992344528464"><ele>204.25</ele><time>2026-04-25T09:07:26Z</time></trkpt><trkpt lat="43.14945828816684" lon="11.428116768164328"><ele>204.0</ele><time>2026-04-25T09:07:27Z</time></trkpt><trkpt lat="43.14956590960168" lon="11.428243821157428"><ele>202.5</ele><time>2026-04-25T09:07:28Z</time></trkpt><trkpt lat="43.14966035807843" lon="11.428349755580664"><ele>201.0</ele><time>2026-04-25T09:07:29Z</time></trkpt><trkpt lat="43.14975156094001" lon="11.428443797403387"><ele>199.5</ele><time>2026-04-25T09:07:30Z</time></trkpt><trkpt lat="43.149841182614445" lon="11.428530479813157"><ele>198.0</ele><time>2026-04-25T09:07:31Z</time></trkpt><trkpt lat="43.149925232477045" lon="11.428615222379293"><ele>198.0</ele><time>2026-04-25T09:07:32Z</time></trkpt><trkpt lat="43.150008187848265" lon="11.428714503771786"><ele>198.0</ele><time>2026-04-25T09:07:33Z</time></trkpt><trkpt lat="43.150084666323735" lon="11.428834887396189"><ele>198.0</ele><time>2026-04-25T09:07:34Z</time></trkpt><trkpt lat="43.15015629172541" lon="11.428966007777388"><ele>198.0</ele><time>2026-04-25T09:07:35Z</time></trkpt><trkpt lat="43.15022683185834" lon="11.429092683630415"><ele>195.75</ele><time>2026-04-25T09:07:36Z</time></trkpt><trkpt lat="43.150294493198146" lon="11.429225149917523"><ele>193.5</ele><time>2026-04-25T09:07:37Z</time></trkpt><trkpt lat="43.15037602812364" lon="11.429347523175652"><ele>191.25</ele><time>2026-04-25T09:07:38Z</time></trkpt><trkpt lat="43.15046828109561" lon="11.42947124914291"><ele>189.0</ele><time>2026-04-25T09:07:39Z</time></trkpt><trkpt lat="43.15055640875402" lon="11.429588604532364"><ele>189.25</ele><time>2026-04-25T09:07:40Z</time></trkpt><trkpt lat="43.150644261204086" lon="11.429694392698087"><ele>189.5</ele><time>2026-04-25T09:07:41.001Z</time></trkpt><trkpt lat="43.15074097042921" lon="11.429795254612161"><ele>189.75</ele><time>2026-04-25T09:07:42.001Z</time></trkpt><trkpt lat="43.15084442940545" lon="11.429887619845712"><ele>190.0</ele><time>2026-04-25T09:07:43.001Z</time></trkpt><trkpt lat="43.150933440677846" lon="11.429964231545316"><ele>190.0</ele><time>2026-04-25T09:07:44.001Z</time></trkpt><trkpt lat="43.15101179497695" lon="11.43004656705595"><ele>190.0</ele><time>2026-04-25T09:07:45.001Z</time></trkpt><trkpt lat="43.15107561479326" lon="11.430150361090922"><ele>190.0</ele><time>2026-04-25T09:07:46.001Z</time></trkpt><trkpt lat="43.151122108721374" lon="11.430272903229062"><ele>190.0</ele><time>2026-04-25T09:07:47.001Z</time></trkpt><trkpt lat="43.151149352908156" lon="11.430419030726407"><ele>190.0</ele><time>2026-04-25T09:07:48.001Z</time></trkpt><trkpt lat="43.15114978363872" lon="11.430565355197697"><ele>188.25</ele><time>2026-04-25T09:07:49.001Z</time></trkpt><trkpt lat="43.151126620290256" lon="11.43072136975959"><ele>186.5</ele><time>2026-04-25T09:07:50.001Z</time></trkpt><trkpt lat="43.151106132363445" lon="11.43090212697207"><ele>184.75</ele><time>2026-04-25T09:07:51.001Z</time></trkpt><trkpt lat="43.151090939325734" lon="11.43106791312573"><ele>183.0</ele><time>2026-04-25T09:07:52.001Z</time></trkpt><trkpt lat="43.15107911078987" lon="11.43122027190886"><ele>181.5</ele><time>2026-04-25T09:07:53.001Z</time></trkpt><trkpt lat="43.15106935884461" lon="11.43138008926385"><ele>180.0</ele><time>2026-04-25T09:07:54.001Z</time></trkpt><trkpt lat="43.15106793033488" lon="11.43154016784417"><ele>178.5</ele><time>2026-04-25T09:07:55.001Z</time></trkpt><trkpt lat="43.151079182702276" lon="11.431691265272237"><ele>177.0</ele><time>2026-04-25T09:07:56.001Z</time></trkpt><trkpt lat="43.15110296424214" lon="11.431842409647032"><ele>177.0</ele><time>2026-04-25T09:07:57.001Z</time></trkpt><trkpt lat="43.15112286725775" lon="11.431993984169258"><ele>177.0</ele><time>2026-04-25T09:07:58.001Z</time></trkpt><trkpt lat="43.15112337302273" lon="11.432136606698425"><ele>177.0</ele><time>2026-04-25T09:07:59.001Z</time></trkpt><trkpt lat="43.151111843932895" lon="11.432279838977419"><ele>177.0</ele><time>2026-04-25T09:08:00.001Z</time></trkpt><trkpt lat="43.15109882491899" lon="11.43241874626062"><ele>177.0</ele><time>2026-04-25T09:08:01.001Z</time></trkpt><trkpt lat="43.15109635528592" lon="11.432551167011084"><ele>176.39999999999998</ele><time>2026-04-25T09:08:02.001Z</time></trkpt><trkpt lat="43.15110161375288" lon="11.43267883570564"><ele>175.79999999999998</ele><time>2026-04-25T09:08:03.001Z</time></trkpt><trkpt lat="43.151128778728875" lon="11.432793450388747"><ele>175.2</ele><time>2026-04-25T09:08:04.001Z</time></trkpt><trkpt lat="43.15118243278547" lon="11.432903381424337"><ele>174.6</ele><time>2026-04-25T09:08:05.001Z</time></trkpt><trkpt lat="43.15125682703563" lon="11.433016748173891"><ele>174.0</ele><time>2026-04-25T09:08:06.001Z</time></trkpt><trkpt lat="43.15133809603999" lon="11.433122922942875"><ele>173.2</ele><time>2026-04-25T09:08:07.001Z</time></trkpt><trkpt lat="43.15143724396016" lon="11.433236764972516"><ele>172.39999999999998</ele><time>2026-04-25T09:08:08.001Z</time></trkpt><trkpt lat="43.15152801680337" lon="11.433322761282108"><ele>171.6</ele><time>2026-04-25T09:08:09.001Z</time></trkpt><trkpt lat="43.15161378918347" lon="11.433403089237903"><ele>170.8</ele><time>2026-04-25T09:08:10.001Z</time></trkpt><trkpt lat="43.15170299701912" lon="11.433471041665932"><ele>170.0</ele><time>2026-04-25T09:08:11.001Z</time></trkpt><trkpt lat="43.15179444159903" lon="11.433513512887226"><ele>171.33333333333331</ele><time>2026-04-25T09:08:12.001Z</time></trkpt><trkpt lat="43.15188261747382" lon="11.433532888517291"><ele>172.66666666666666</ele><time>2026-04-25T09:08:13.001Z</time></trkpt><trkpt lat="43.15196676838791" lon="11.433527218036373"><ele>174.0</ele><time>2026-04-25T09:08:14.001Z</time></trkpt><trkpt lat="43.1520467889283" lon="11.433494136484835"><ele>175.33333333333334</ele><time>2026-04-25T09:08:15.001Z</time></trkpt><trkpt lat="43.15212161065252" lon="11.433445283081792"><ele>176.66666666666669</ele><time>2026-04-25T09:08:16.001Z</time></trkpt><trkpt lat="43.15219011793153" lon="11.43337942661775"><ele>178.0</ele><time>2026-04-25T09:08:17.001Z</time></trkpt><trkpt lat="43.15225427247464" lon="11.433299203077356"><ele>178.0</ele><time>2026-04-25T09:08:18.001Z</time></trkpt><trkpt lat="43.15232520602897" lon="11.433209497758046"><ele>178.0</ele><time>2026-04-25T09:08:19.001Z</time></trkpt><trkpt lat="43.15240181622588" lon="11.433113892918298"><ele>178.0</ele><time>2026-04-25T09:08:20.001Z</time></trkpt><trkpt lat="43.15247522424926" lon="11.433033662954726"><ele>178.0</ele><time>2026-04-25T09:08:21.001Z</time></trkpt><trkpt lat="43.152531586561814" lon="11.432977925052723"><ele>178.0</ele><time>2026-04-25T09:08:22.001Z</time></trkpt><trkpt lat="43.15260090609754" lon="11.432975608943222"><ele>178.0</ele><time>2026-04-25T09:08:23.002Z</time></trkpt><trkpt lat="43.15272303911225" lon="11.433003648899483"><ele>176.83333333333334</ele><time>2026-04-25T09:08:25.002Z</time></trkpt><trkpt lat="43.1527721778379" lon="11.433078523872219"><ele>175.66666666666669</ele><time>2026-04-25T09:08:26.002Z</time></trkpt><trkpt lat="43.15279666831174" lon="11.433177400996081"><ele>174.5</ele><time>2026-04-25T09:08:27.002Z</time></trkpt><trkpt lat="43.15276734813676" lon="11.43328422064659"><ele>173.33333333333334</ele><time>2026-04-25T09:08:28.002Z</time></trkpt><trkpt lat="43.15271740480513" lon="11.433361299856887"><ele>172.16666666666666</ele><time>2026-04-25T09:08:29.002Z</time></trkpt><trkpt lat="43.152654529130075" lon="11.433451688064658"><ele>171.0</ele><time>2026-04-25T09:08:30.002Z</time></trkpt><trkpt lat="43.152564387307265" lon="11.433584859778495"><ele>171.0</ele><time>2026-04-25T09:08:31.002Z</time></trkpt><trkpt lat="43.15243251452432" lon="11.43373683064617"><ele>171.0</ele><time>2026-04-25T09:08:32.002Z</time></trkpt><trkpt lat="43.152319289714356" lon="11.43386511862266"><ele>171.0</ele><time>2026-04-25T09:08:33.002Z</time></trkpt><trkpt lat="43.15222046636921" lon="11.433976305346594"><ele>171.0</ele><time>2026-04-25T09:08:34.002Z</time></trkpt><trkpt lat="43.15212136057261" lon="11.434104267655579"><ele>170.25</ele><time>2026-04-25T09:08:35.002Z</time></trkpt><trkpt lat="43.15202149583465" lon="11.434220604396488"><ele>169.5</ele><time>2026-04-25T09:08:35.998Z</time></trkpt><trkpt lat="43.15192755247503" lon="11.434332234239372"><ele>168.75</ele><time>2026-04-25T09:08:36.998Z</time></trkpt><trkpt lat="43.15183727558879" lon="11.434439071263501"><ele>168.0</ele><time>2026-04-25T09:08:37.998Z</time></trkpt><trkpt lat="43.1517559638283" lon="11.43453505543785"><ele>168.0</ele><time>2026-04-25T09:08:38.998Z</time></trkpt><trkpt lat="43.151680328588" lon="11.434627562121117"><ele>168.0</ele><time>2026-04-25T09:08:39.998Z</time></trkpt><trkpt lat="43.15162006029268" lon="11.434725249405686"><ele>168.0</ele><time>2026-04-25T09:08:40.998Z</time></trkpt><trkpt lat="43.15157093232059" lon="11.434839458839447"><ele>168.0</ele><time>2026-04-25T09:08:41.998Z</time></trkpt><trkpt lat="43.15154319002808" lon="11.434971798398756"><ele>168.0</ele><time>2026-04-25T09:08:42.998Z</time></trkpt><trkpt lat="43.15153214254592" lon="11.435120489255521"><ele>165.75</ele><time>2026-04-25T09:08:43.998Z</time></trkpt><trkpt lat="43.15154390231741" lon="11.43526853447448"><ele>163.5</ele><time>2026-04-25T09:08:44.998Z</time></trkpt><trkpt lat="43.15157092815796" lon="11.435410761594737"><ele>161.25</ele><time>2026-04-25T09:08:45.998Z</time></trkpt><trkpt lat="43.15159934794137" lon="11.435551233965302"><ele>159.0</ele><time>2026-04-25T09:08:46.998Z</time></trkpt><trkpt lat="43.15162841471648" lon="11.43573471410434"><ele>158.33333333333334</ele><time>2026-04-25T09:08:47.998Z</time></trkpt><trkpt lat="43.15166783081011" lon="11.435974480290936"><ele>157.66666666666669</ele><time>2026-04-25T09:08:48.998Z</time></trkpt><trkpt lat="43.151712169832784" lon="11.436257515409263"><ele>157.0</ele><time>2026-04-25T09:08:49.998Z</time></trkpt><trkpt lat="43.15175430538532" lon="11.436532639184165"><ele>156.66666666666669</ele><time>2026-04-25T09:08:50.999Z</time></trkpt><trkpt lat="43.151792166018616" lon="11.436773329785293"><ele>156.33333333333334</ele><time>2026-04-25T09:08:51.999Z</time></trkpt><trkpt lat="43.15182096928681" lon="11.43697182765568"><ele>156.0</ele><time>2026-04-25T09:08:52.999Z</time></trkpt><trkpt lat="43.15184527474047" lon="11.437137907245134"><ele>156.0</ele><time>2026-04-25T09:08:53.999Z</time></trkpt><trkpt lat="43.15186609052602" lon="11.437301493818499"><ele>156.0</ele><time>2026-04-25T09:08:54.999Z</time></trkpt><trkpt lat="43.15188733530349" lon="11.437464013480254"><ele>156.0</ele><time>2026-04-25T09:08:55.999Z</time></trkpt><trkpt lat="43.15191240397105" lon="11.437631533001303"><ele>156.0</ele><time>2026-04-25T09:08:56.999Z</time></trkpt><trkpt lat="43.15193798063396" lon="11.437799996248533"><ele>156.0</ele><time>2026-04-25T09:08:57.999Z</time></trkpt><trkpt lat="43.15196184312459" lon="11.437968367154664"><ele>156.0</ele><time>2026-04-25T09:08:58.999Z</time></trkpt><trkpt lat="43.15198351904291" lon="11.438116144137274"><ele>156.0</ele><time>2026-04-25T09:08:59.999Z</time></trkpt><trkpt lat="43.151997394345045" lon="11.43825198565809"><ele>156.0</ele><time>2026-04-25T09:09:00.999Z</time></trkpt><trkpt lat="43.15200455769719" lon="11.438379781390124"><ele>156.0</ele><time>2026-04-25T09:09:01.999Z</time></trkpt><trkpt lat="43.15199011738723" lon="11.438509817458609"><ele>157.25</ele><time>2026-04-25T09:09:02.999Z</time></trkpt><trkpt lat="43.15195658704068" lon="11.438640950310399"><ele>158.5</ele><time>2026-04-25T09:09:03.999Z</time></trkpt><trkpt lat="43.151907331154774" lon="11.438766756218008"><ele>159.75</ele><time>2026-04-25T09:09:04.999Z</time></trkpt><trkpt lat="43.15182247912685" lon="11.438869794411282"><ele>161.0</ele><time>2026-04-25T09:09:05.999Z</time></trkpt><trkpt lat="43.15174251550881" lon="11.43901868932948"><ele>161.75</ele><time>2026-04-25T09:09:06.999Z</time></trkpt><trkpt lat="43.15164869046158" lon="11.43916359882182"><ele>162.5</ele><time>2026-04-25T09:09:08Z</time></trkpt><trkpt lat="43.15156900687855" lon="11.439282526852928"><ele>163.25</ele><time>2026-04-25T09:09:09Z</time></trkpt><trkpt lat="43.15148625419167" lon="11.439423033954087"><ele>164.0</ele><time>2026-04-25T09:09:10Z</time></trkpt><trkpt lat="43.151418142087145" lon="11.439564279975025"><ele>163.5</ele><time>2026-04-25T09:09:11Z</time></trkpt><trkpt lat="43.151339415023614" lon="11.439688821479983"><ele>163.0</ele><time>2026-04-25T09:09:12Z</time></trkpt><trkpt lat="43.151263982016516" lon="11.43982981386135"><ele>162.5</ele><time>2026-04-25T09:09:13Z</time></trkpt><trkpt lat="43.151193497973225" lon="11.439980414957516"><ele>162.0</ele><time>2026-04-25T09:09:14Z</time></trkpt><trkpt lat="43.151128542896785" lon="11.440137058712274"><ele>162.0</ele><time>2026-04-25T09:09:15Z</time></trkpt><trkpt lat="43.15106906859653" lon="11.440294306746361"><ele>162.0</ele><time>2026-04-25T09:09:16Z</time></trkpt><trkpt lat="43.15101811081317" lon="11.440434910346072"><ele>162.0</ele><time>2026-04-25T09:09:17Z</time></trkpt><trkpt lat="43.15096475244768" lon="11.440563482581581"><ele>162.0</ele><time>2026-04-25T09:09:18Z</time></trkpt><trkpt lat="43.1509012091654" lon="11.440677306862426"><ele>162.25</ele><time>2026-04-25T09:09:19Z</time></trkpt><trkpt lat="43.15081647176745" lon="11.440784162357707"><ele>162.5</ele><time>2026-04-25T09:09:20Z</time></trkpt><trkpt lat="43.15071239436968" lon="11.44087996384203"><ele>162.75</ele><time>2026-04-25T09:09:21Z</time></trkpt><trkpt lat="43.150601101238166" lon="11.44096254167848"><ele>163.0</ele><time>2026-04-25T09:09:22Z</time></trkpt><trkpt lat="43.15048592996472" lon="11.441035544440144"><ele>163.0</ele><time>2026-04-25T09:09:23Z</time></trkpt><trkpt lat="43.15037667909869" lon="11.441123003575106"><ele>163.0</ele><time>2026-04-25T09:09:24Z</time></trkpt><trkpt lat="43.150267177897724" lon="11.441205271497042"><ele>163.0</ele><time>2026-04-25T09:09:25Z</time></trkpt><trkpt lat="43.150158774009824" lon="11.441292430158727"><ele>163.0</ele><time>2026-04-25T09:09:26Z</time></trkpt><trkpt lat="43.150050203915114" lon="11.441387411252684"><ele>163.0</ele><time>2026-04-25T09:09:27Z</time></trkpt><trkpt lat="43.14994265542066" lon="11.441474057835908"><ele>163.0</ele><time>2026-04-25T09:09:28Z</time></trkpt><trkpt lat="43.149833783492376" lon="11.441561545510162"><ele>163.0</ele><time>2026-04-25T09:09:29Z</time></trkpt><trkpt lat="43.149725741211924" lon="11.44164999600092"><ele>163.0</ele><time>2026-04-25T09:09:30Z</time></trkpt><trkpt lat="43.149614324976184" lon="11.441740687868943"><ele>163.0</ele><time>2026-04-25T09:09:31Z</time></trkpt><trkpt lat="43.14948362604458" lon="11.441848306668955"><ele>163.0</ele><time>2026-04-25T09:09:32Z</time></trkpt><trkpt lat="43.14935013289186" lon="11.441954945950254"><ele>163.0</ele><time>2026-04-25T09:09:33Z</time></trkpt><trkpt lat="43.14922679789423" lon="11.442053462746966"><ele>163.25</ele><time>2026-04-25T09:09:34Z</time></trkpt><trkpt lat="43.14910214081199" lon="11.442156271660126"><ele>163.5</ele><time>2026-04-25T09:09:35.001Z</time></trkpt><trkpt lat="43.14897765480732" lon="11.442257778884846"><ele>163.75</ele><time>2026-04-25T09:09:36.001Z</time></trkpt><trkpt lat="43.148862025347434" lon="11.442356022517771"><ele>164.0</ele><time>2026-04-25T09:09:37.001Z</time></trkpt><trkpt lat="43.14875526020721" lon="11.44245613533498"><ele>164.0</ele><time>2026-04-25T09:09:38.001Z</time></trkpt><trkpt lat="43.148662432253595" lon="11.442570844048493"><ele>164.0</ele><time>2026-04-25T09:09:39.001Z</time></trkpt><trkpt lat="43.14857103924173" lon="11.442710724494539"><ele>164.0</ele><time>2026-04-25T09:09:40.001Z</time></trkpt><trkpt lat="43.14848364560372" lon="11.44285466378358"><ele>164.0</ele><time>2026-04-25T09:09:41.001Z</time></trkpt><trkpt lat="43.148388572616916" lon="11.442997839355103"><ele>163.75</ele><time>2026-04-25T09:09:42.001Z</time></trkpt><trkpt lat="43.14829516771409" lon="11.443139400831877"><ele>163.5</ele><time>2026-04-25T09:09:43.001Z</time></trkpt><trkpt lat="43.14820425865528" lon="11.443278276601006"><ele>163.25</ele><time>2026-04-25T09:09:44.001Z</time></trkpt><trkpt lat="43.148129430619115" lon="11.443394805991176"><ele>163.0</ele><time>2026-04-25T09:09:45.001Z</time></trkpt><trkpt lat="43.14806970802492" lon="11.44350454535284"><ele>163.0</ele><time>2026-04-25T09:09:46.001Z</time></trkpt><trkpt lat="43.148025970860964" lon="11.443617688038012"><ele>163.0</ele><time>2026-04-25T09:09:47.001Z</time></trkpt><trkpt lat="43.14800846606192" lon="11.443740437706293"><ele>163.0</ele><time>2026-04-25T09:09:48.001Z</time></trkpt><trkpt lat="43.14801798099306" lon="11.443875560370367"><ele>163.0</ele><time>2026-04-25T09:09:49.001Z</time></trkpt><trkpt lat="43.148057966063654" lon="11.444008385340705"><ele>163.0</ele><time>2026-04-25T09:09:50.001Z</time></trkpt><trkpt lat="43.14812366525723" lon="11.444146164450478"><ele>163.2</ele><time>2026-04-25T09:09:51.001Z</time></trkpt><trkpt lat="43.14818354383131" lon="11.44427861852495"><ele>163.4</ele><time>2026-04-25T09:09:52.001Z</time></trkpt><trkpt lat="43.14821602191519" lon="11.444400961326407"><ele>163.6</ele><time>2026-04-25T09:09:53.001Z</time></trkpt><trkpt lat="43.14821478983133" lon="11.4445210194299"><ele>163.79999999999998</ele><time>2026-04-25T09:09:54.001Z</time></trkpt><trkpt lat="43.14818165068467" lon="11.444643188593536"><ele>164.0</ele><time>2026-04-25T09:09:55.001Z</time></trkpt><trkpt lat="43.14812977840366" lon="11.444743710808742"><ele>165.39999999999998</ele><time>2026-04-25T09:09:56.001Z</time></trkpt><trkpt lat="43.148046659059844" lon="11.444785953286019"><ele>166.8</ele><time>2026-04-25T09:09:57.001Z</time></trkpt><trkpt lat="43.14796786442496" lon="11.444838139169676"><ele>168.2</ele><time>2026-04-25T09:09:58.001Z</time></trkpt><trkpt lat="43.14788230157088" lon="11.444787909857325"><ele>169.60000000000002</ele><time>2026-04-25T09:09:59.001Z</time></trkpt><trkpt lat="43.14778278626042" lon="11.444748045877558"><ele>171.0</ele><time>2026-04-25T09:10:00.001Z</time></trkpt><trkpt lat="43.147654260989576" lon="11.444681166416027"><ele>171.0</ele><time>2026-04-25T09:10:01.001Z</time></trkpt><trkpt lat="43.14750170932124" lon="11.444638741630554"><ele>171.0</ele><time>2026-04-25T09:10:02.001Z</time></trkpt><trkpt lat="43.14738398650232" lon="11.444580406899693"><ele>171.0</ele><time>2026-04-25T09:10:03.001Z</time></trkpt><trkpt lat="43.147264671190634" lon="11.444545685812113"><ele>171.0</ele><time>2026-04-25T09:10:04.001Z</time></trkpt><trkpt lat="43.14713728510144" lon="11.444524861063982"><ele>168.75</ele><time>2026-04-25T09:10:05.001Z</time></trkpt><trkpt lat="43.14700280533477" lon="11.444511032355944"><ele>166.5</ele><time>2026-04-25T09:10:06.001Z</time></trkpt><trkpt lat="43.14686511308499" lon="11.444507544065473"><ele>164.25</ele><time>2026-04-25T09:10:07.001Z</time></trkpt><trkpt lat="43.14673488023449" lon="11.444511153800118"><ele>162.0</ele><time>2026-04-25T09:10:08.002Z</time></trkpt><trkpt lat="43.14661629856492" lon="11.444529366228341"><ele>162.0</ele><time>2026-04-25T09:10:09.002Z</time></trkpt><trkpt lat="43.146502247235155" lon="11.444558187352905"><ele>162.0</ele><time>2026-04-25T09:10:10.002Z</time></trkpt><trkpt lat="43.146396222259845" lon="11.444602435144507"><ele>162.0</ele><time>2026-04-25T09:10:11.002Z</time></trkpt><trkpt lat="43.14630688995637" lon="11.444660673981396"><ele>162.0</ele><time>2026-04-25T09:10:12.002Z</time></trkpt><trkpt lat="43.146242720365" lon="11.444724662897526"><ele>162.0</ele><time>2026-04-25T09:10:13.002Z</time></trkpt><trkpt lat="43.1461992195082" lon="11.444807283852967"><ele>162.0</ele><time>2026-04-25T09:10:14.002Z</time></trkpt><trkpt lat="43.146154635953536" lon="11.444928409824659"><ele>162.0</ele><time>2026-04-25T09:10:15.002Z</time></trkpt><trkpt lat="43.14611883611078" lon="11.445062418973022"><ele>162.0</ele><time>2026-04-25T09:10:16.002Z</time></trkpt><trkpt lat="43.146101443054924" lon="11.445198666519543"><ele>162.0</ele><time>2026-04-25T09:10:17.002Z</time></trkpt><trkpt lat="43.14610281021775" lon="11.445331605178032"><ele>162.0</ele><time>2026-04-25T09:10:18.002Z</time></trkpt><trkpt lat="43.14612083571475" lon="11.445451899960835"><ele>161.8</ele><time>2026-04-25T09:10:19.002Z</time></trkpt><trkpt lat="43.14614452328821" lon="11.445561452848096"><ele>161.6</ele><time>2026-04-25T09:10:20.002Z</time></trkpt><trkpt lat="43.146174526580054" lon="11.445687637220663"><ele>161.4</ele><time>2026-04-25T09:10:21.002Z</time></trkpt><trkpt lat="43.14620374432913" lon="11.445811736825116"><ele>161.20000000000002</ele><time>2026-04-25T09:10:22.002Z</time></trkpt><trkpt lat="43.1462402403276" lon="11.44596692042765"><ele>161.0</ele><time>2026-04-25T09:10:23.002Z</time></trkpt><trkpt lat="43.146288471012554" lon="11.446156282128102"><ele>162.0</ele><time>2026-04-25T09:10:24.002Z</time></trkpt><trkpt lat="43.14633066704995" lon="11.44631935699201"><ele>163.0</ele><time>2026-04-25T09:10:25.002Z</time></trkpt><trkpt lat="43.146366050183026" lon="11.44645258856609"><ele>164.0</ele><time>2026-04-25T09:10:26.002Z</time></trkpt><trkpt lat="43.14639753628239" lon="11.446568966168376"><ele>165.0</ele><time>2026-04-25T09:10:27.002Z</time></trkpt><trkpt lat="43.14641704741206" lon="11.446677196143966"><ele>166.0</ele><time>2026-04-25T09:10:28.002Z</time></trkpt><trkpt lat="43.14642090167278" lon="11.44676620088185"><ele>166.0</ele><time>2026-04-25T09:10:29.002Z</time></trkpt><trkpt lat="43.14639931353725" lon="11.446854294704119"><ele>166.0</ele><time>2026-04-25T09:10:30.002Z</time></trkpt><trkpt lat="43.14634510474436" lon="11.446921882423181"><ele>166.0</ele><time>2026-04-25T09:10:31.002Z</time></trkpt><trkpt lat="43.14626440936704" lon="11.446935115409804"><ele>166.0</ele><time>2026-04-25T09:10:32.002Z</time></trkpt><trkpt lat="43.1461912466019" lon="11.44689390113066"><ele>166.0</ele><time>2026-04-25T09:10:33.002Z</time></trkpt><trkpt lat="43.14607259655265" lon="11.446865122282539"><ele>166.0</ele><time>2026-04-25T09:10:34.002Z</time></trkpt><trkpt lat="43.14591006669886" lon="11.446863575408987"><ele>166.0</ele><time>2026-04-25T09:10:35.002Z</time></trkpt><trkpt lat="43.14577884600884" lon="11.44684876322822"><ele>166.0</ele><time>2026-04-25T09:10:36.002Z</time></trkpt><trkpt lat="43.14567084605301" lon="11.446858697420158"><ele>166.0</ele><time>2026-04-25T09:10:37.002Z</time></trkpt><trkpt lat="43.14555954652287" lon="11.446885807260117"><ele>166.0</ele><time>2026-04-25T09:10:38.002Z</time></trkpt><trkpt lat="43.14544913573378" lon="11.446927320391008"><ele>166.4</ele><time>2026-04-25T09:10:39.002Z</time></trkpt><trkpt lat="43.14535410065752" lon="11.446993186429365"><ele>166.8</ele><time>2026-04-25T09:10:40.002Z</time></trkpt><trkpt lat="43.14526635200059" lon="11.447085068482908"><ele>167.20000000000002</ele><time>2026-04-25T09:10:41.002Z</time></trkpt><trkpt lat="43.14517819976574" lon="11.447187982355992"><ele>167.60000000000002</ele><time>2026-04-25T09:10:41.999Z</time></trkpt><trkpt lat="43.14509190309217" lon="11.447292584570393"><ele>168.0</ele><time>2026-04-25T09:10:42.999Z</time></trkpt><trkpt lat="43.1450071187903" lon="11.447387466772467"><ele>168.0</ele><time>2026-04-25T09:10:43.999Z</time></trkpt><trkpt lat="43.14493968973751" lon="11.447475628442467"><ele>168.0</ele><time>2026-04-25T09:10:44.999Z</time></trkpt><trkpt lat="43.14489510600177" lon="11.447561926851508"><ele>168.0</ele><time>2026-04-25T09:10:45.999Z</time></trkpt><trkpt lat="43.14487821068738" lon="11.447659328494444"><ele>168.0</ele><time>2026-04-25T09:10:46.999Z</time></trkpt><trkpt lat="43.144871676120644" lon="11.44774647803374"><ele>168.0</ele><time>2026-04-25T09:10:47.999Z</time></trkpt><trkpt lat="43.144874125182035" lon="11.447883576587103"><ele>168.0</ele><time>2026-04-25T09:10:49.999Z</time></trkpt><trkpt lat="43.14487146529928" lon="11.447977182554379"><ele>167.83333333333334</ele><time>2026-04-25T09:10:55.999Z</time></trkpt><trkpt lat="43.14486971771208" lon="11.44806723493561"><ele>167.66666666666666</ele><time>2026-04-25T09:10:57.999Z</time></trkpt><trkpt lat="43.1448650367998" lon="11.448227656079053"><ele>167.5</ele><time>2026-04-25T09:10:59.999Z</time></trkpt><trkpt lat="43.14485099706212" lon="11.448319493085574"><ele>167.33333333333331</ele><time>2026-04-25T09:11:00.999Z</time></trkpt><trkpt lat="43.14481563748905" lon="11.448413732475194"><ele>167.16666666666666</ele><time>2026-04-25T09:11:01.999Z</time></trkpt><trkpt lat="43.14476420460861" lon="11.448481465997968"><ele>167.0</ele><time>2026-04-25T09:11:02.999Z</time></trkpt><trkpt lat="43.14470070216381" lon="11.44853460540543"><ele>167.0</ele><time>2026-04-25T09:11:03.999Z</time></trkpt><trkpt lat="43.144625353067816" lon="11.448571679265328"><ele>167.0</ele><time>2026-04-25T09:11:05Z</time></trkpt><trkpt lat="43.14453596201169" lon="11.448561175340195"><ele>167.0</ele><time>2026-04-25T09:11:06Z</time></trkpt><trkpt lat="43.14443571204962" lon="11.448553076651194"><ele>167.0</ele><time>2026-04-25T09:11:07Z</time></trkpt><trkpt lat="43.144332298593085" lon="11.448537101963122"><ele>167.0</ele><time>2026-04-25T09:11:08Z</time></trkpt><trkpt lat="43.144218906768025" lon="11.448508489418476"><ele>167.0</ele><time>2026-04-25T09:11:09Z</time></trkpt><trkpt lat="43.144078294386986" lon="11.448450910704654"><ele>167.0</ele><time>2026-04-25T09:11:10Z</time></trkpt><trkpt lat="43.143926016337865" lon="11.448372094060723"><ele>167.0</ele><time>2026-04-25T09:11:11Z</time></trkpt><trkpt lat="43.143775049067564" lon="11.448282230229493"><ele>168.66666666666666</ele><time>2026-04-25T09:11:12Z</time></trkpt><trkpt lat="43.14361425117542" lon="11.448199581934025"><ele>170.33333333333334</ele><time>2026-04-25T09:11:13Z</time></trkpt><trkpt lat="43.14347841206058" lon="11.448103086272642"><ele>172.0</ele><time>2026-04-25T09:11:14Z</time></trkpt><trkpt lat="43.14335708328038" lon="11.448015463189051"><ele>170.2</ele><time>2026-04-25T09:11:15Z</time></trkpt><trkpt lat="43.143248450238254" lon="11.447932620173725"><ele>168.39999999999998</ele><time>2026-04-25T09:11:16Z</time></trkpt><trkpt lat="43.14315267411777" lon="11.447858813517067"><ele>166.60000000000002</ele><time>2026-04-25T09:11:17Z</time></trkpt><trkpt lat="43.143060923757304" lon="11.447799247983871"><ele>164.8</ele><time>2026-04-25T09:11:18Z</time></trkpt><trkpt lat="43.142965461332835" lon="11.447749292782836"><ele>163.0</ele><time>2026-04-25T09:11:19Z</time></trkpt><trkpt lat="43.14287019408656" lon="11.44771455874438"><ele>163.0</ele><time>2026-04-25T09:11:20Z</time></trkpt><trkpt lat="43.142769188905696" lon="11.447671613572753"><ele>163.0</ele><time>2026-04-25T09:11:21Z</time></trkpt><trkpt lat="43.142654143054116" lon="11.447686137436039"><ele>163.0</ele><time>2026-04-25T09:11:22Z</time></trkpt><trkpt lat="43.14254209331313" lon="11.447694746788411"><ele>163.0</ele><time>2026-04-25T09:11:23Z</time></trkpt><trkpt lat="43.14242356537961" lon="11.447721164578816"><ele>162.75</ele><time>2026-04-25T09:11:24Z</time></trkpt><trkpt lat="43.142299470011906" lon="11.447746402230244"><ele>162.5</ele><time>2026-04-25T09:11:25Z</time></trkpt><trkpt lat="43.1421622912991" lon="11.447789706025494"><ele>162.25</ele><time>2026-04-25T09:11:26Z</time></trkpt><trkpt lat="43.14200426854708" lon="11.447847059185806"><ele>162.0</ele><time>2026-04-25T09:11:27Z</time></trkpt><trkpt lat="43.14183903433068" lon="11.447903824380177"><ele>162.0</ele><time>2026-04-25T09:11:28Z</time></trkpt><trkpt lat="43.14168956656274" lon="11.447958138275197"><ele>162.0</ele><time>2026-04-25T09:11:29.001Z</time></trkpt><trkpt lat="43.14154455423323" lon="11.448008466166248"><ele>162.0</ele><time>2026-04-25T09:11:30.001Z</time></trkpt><trkpt lat="43.14140539254868" lon="11.44804890946188"><ele>162.0</ele><time>2026-04-25T09:11:31.001Z</time></trkpt><trkpt lat="43.14126655716166" lon="11.448081228508801"><ele>164.25</ele><time>2026-04-25T09:11:32.001Z</time></trkpt><trkpt lat="43.14112772079118" lon="11.448086417624138"><ele>166.5</ele><time>2026-04-25T09:11:33.001Z</time></trkpt><trkpt lat="43.14099261423069" lon="11.44813346301257"><ele>168.75</ele><time>2026-04-25T09:11:34.001Z</time></trkpt><trkpt lat="43.140873019090535" lon="11.448149820020205"><ele>171.0</ele><time>2026-04-25T09:11:35.001Z</time></trkpt><trkpt lat="43.14075318641058" lon="11.448168956445903"><ele>170.4</ele><time>2026-04-25T09:11:36.001Z</time></trkpt><trkpt lat="43.14064012045948" lon="11.4481815854408"><ele>169.8</ele><time>2026-04-25T09:11:37.001Z</time></trkpt><trkpt lat="43.14053943976207" lon="11.448184787413403"><ele>169.20000000000002</ele><time>2026-04-25T09:11:38.001Z</time></trkpt><trkpt lat="43.14044668673504" lon="11.448145011382083"><ele>168.60000000000002</ele><time>2026-04-25T09:11:39.001Z</time></trkpt><trkpt lat="43.140332144315124" lon="11.44813197488631"><ele>168.0</ele><time>2026-04-25T09:11:40.001Z</time></trkpt><trkpt lat="43.14022657404871" lon="11.448063163416876"><ele>168.0</ele><time>2026-04-25T09:11:41.001Z</time></trkpt><trkpt lat="43.140117537013225" lon="11.448010826130906"><ele>168.0</ele><time>2026-04-25T09:11:42.001Z</time></trkpt><trkpt lat="43.140013034349174" lon="11.447972572338292"><ele>168.0</ele><time>2026-04-25T09:11:43.001Z</time></trkpt><trkpt lat="43.13992540439334" lon="11.447897665567366"><ele>168.0</ele><time>2026-04-25T09:11:44.001Z</time></trkpt><trkpt lat="43.139842350274165" lon="11.447840319629707"><ele>168.0</ele><time>2026-04-25T09:11:45.001Z</time></trkpt><trkpt lat="43.13977051205714" lon="11.447814162449681"><ele>166.66666666666666</ele><time>2026-04-25T09:11:46.001Z</time></trkpt><trkpt lat="43.139707080841184" lon="11.447784582096018"><ele>165.33333333333334</ele><time>2026-04-25T09:11:47.001Z</time></trkpt><trkpt lat="43.1396372219403" lon="11.447782486207963"><ele>164.0</ele><time>2026-04-25T09:11:48.001Z</time></trkpt><trkpt lat="43.139563583286225" lon="11.447798563887803"><ele>162.66666666666669</ele><time>2026-04-25T09:11:49.001Z</time></trkpt><trkpt lat="43.13949060261988" lon="11.447840862476054"><ele>161.33333333333334</ele><time>2026-04-25T09:11:50.001Z</time></trkpt><trkpt lat="43.139416708759406" lon="11.447915838860768"><ele>160.0</ele><time>2026-04-25T09:11:51.001Z</time></trkpt><trkpt lat="43.13935765690672" lon="11.448014535508136"><ele>160.0</ele><time>2026-04-25T09:11:52.001Z</time></trkpt><trkpt lat="43.13932253722122" lon="11.448135947266714"><ele>160.0</ele><time>2026-04-25T09:11:53.001Z</time></trkpt><trkpt lat="43.13930230182141" lon="11.448275941519018"><ele>160.0</ele><time>2026-04-25T09:11:54.001Z</time></trkpt><trkpt lat="43.139288453864225" lon="11.448410044367979"><ele>160.0</ele><time>2026-04-25T09:11:55.001Z</time></trkpt><trkpt lat="43.13927339066972" lon="11.44857982782201"><ele>160.0</ele><time>2026-04-25T09:11:56.001Z</time></trkpt><trkpt lat="43.139264267673596" lon="11.448774494574328"><ele>160.0</ele><time>2026-04-25T09:11:57.001Z</time></trkpt><trkpt lat="43.13925994210442" lon="11.448985047525172"><ele>160.0</ele><time>2026-04-25T09:11:58.001Z</time></trkpt><trkpt lat="43.13926002155531" lon="11.449158354408388"><ele>160.0</ele><time>2026-04-25T09:11:59.001Z</time></trkpt><trkpt lat="43.13925853228564" lon="11.449313392608467"><ele>160.0</ele><time>2026-04-25T09:12:00.001Z</time></trkpt><trkpt lat="43.1392544725224" lon="11.449469228199321"><ele>160.0</ele><time>2026-04-25T09:12:01.002Z</time></trkpt><trkpt lat="43.13924955259675" lon="11.449632206380553"><ele>160.0</ele><time>2026-04-25T09:12:02.002Z</time></trkpt><trkpt lat="43.13924827286076" lon="11.44978847664406"><ele>160.0</ele><time>2026-04-25T09:12:03.002Z</time></trkpt><trkpt lat="43.13925124286121" lon="11.449940458101397"><ele>160.0</ele><time>2026-04-25T09:12:04.002Z</time></trkpt><trkpt lat="43.13925856257196" lon="11.450093947073322"><ele>160.0</ele><time>2026-04-25T09:12:05.002Z</time></trkpt><trkpt lat="43.139268735274996" lon="11.450264024457688"><ele>160.0</ele><time>2026-04-25T09:12:06.002Z</time></trkpt><trkpt lat="43.1392788570027" lon="11.450421710455343"><ele>160.0</ele><time>2026-04-25T09:12:07.002Z</time></trkpt><trkpt lat="43.13928278419026" lon="11.450574210996582"><ele>160.0</ele><time>2026-04-25T09:12:08.002Z</time></trkpt><trkpt lat="43.139270000224364" lon="11.450718148738021"><ele>160.5</ele><time>2026-04-25T09:12:09.002Z</time></trkpt><trkpt lat="43.139241749422986" lon="11.45085825610734"><ele>161.0</ele><time>2026-04-25T09:12:10.002Z</time></trkpt><trkpt lat="43.13919237640848" lon="11.450985114804382"><ele>161.5</ele><time>2026-04-25T09:12:11.002Z</time></trkpt><trkpt lat="43.13912023618136" lon="11.451129530911896"><ele>162.0</ele><time>2026-04-25T09:12:12.002Z</time></trkpt><trkpt lat="43.13903672627132" lon="11.451281688792744"><ele>160.25</ele><time>2026-04-25T09:12:13.002Z</time></trkpt><trkpt lat="43.138959269802" lon="11.451436091408167"><ele>158.5</ele><time>2026-04-25T09:12:14.002Z</time></trkpt><trkpt lat="43.138876955253984" lon="11.451597751124037"><ele>156.75</ele><time>2026-04-25T09:12:15.002Z</time></trkpt><trkpt lat="43.138794679199" lon="11.4517594418623"><ele>155.0</ele><time>2026-04-25T09:12:16.002Z</time></trkpt><trkpt lat="43.138714733355826" lon="11.451907182485948"><ele>155.0</ele><time>2026-04-25T09:12:17.002Z</time></trkpt><trkpt lat="43.13863174860768" lon="11.452044366969004"><ele>155.0</ele><time>2026-04-25T09:12:18.002Z</time></trkpt><trkpt lat="43.138545956461876" lon="11.452168745878044"><ele>155.0</ele><time>2026-04-25T09:12:19.002Z</time></trkpt><trkpt lat="43.1384589575736" lon="11.452287391858098"><ele>155.0</ele><time>2026-04-25T09:12:20.002Z</time></trkpt><trkpt lat="43.13836769001188" lon="11.452400052027768"><ele>154.5</ele><time>2026-04-25T09:12:21.002Z</time></trkpt><trkpt lat="43.13827214920299" lon="11.45250562343069"><ele>154.0</ele><time>2026-04-25T09:12:22.002Z</time></trkpt><trkpt lat="43.13817440777957" lon="11.452599060887751"><ele>153.5</ele><time>2026-04-25T09:12:23.002Z</time></trkpt><trkpt lat="43.138068706417585" lon="11.452679025291479"><ele>153.0</ele><time>2026-04-25T09:12:24.002Z</time></trkpt><trkpt lat="43.13795417835081" lon="11.45275672169949"><ele>153.0</ele><time>2026-04-25T09:12:25.002Z</time></trkpt><trkpt lat="43.137843476565465" lon="11.452831979401656"><ele>153.0</ele><time>2026-04-25T09:12:26.002Z</time></trkpt><trkpt lat="43.137738379449694" lon="11.452900763782862"><ele>153.0</ele><time>2026-04-25T09:12:27.002Z</time></trkpt><trkpt lat="43.13763875573735" lon="11.452950898596862"><ele>153.0</ele><time>2026-04-25T09:12:28.002Z</time></trkpt><trkpt lat="43.13754363954379" lon="11.453013481166142"><ele>153.0</ele><time>2026-04-25T09:12:29.002Z</time></trkpt><trkpt lat="43.13744694417657" lon="11.453069207420512"><ele>153.0</ele><time>2026-04-25T09:12:30.002Z</time></trkpt><trkpt lat="43.137354880117975" lon="11.453130225044655"><ele>153.0</ele><time>2026-04-25T09:12:31.002Z</time></trkpt><trkpt lat="43.13726557960781" lon="11.453205270796962"><ele>153.0</ele><time>2026-04-25T09:12:32.002Z</time></trkpt><trkpt lat="43.13717482719397" lon="11.453284592423879"><ele>153.0</ele><time>2026-04-25T09:12:33.002Z</time></trkpt><trkpt lat="43.137075591789404" lon="11.453392466276705"><ele>153.0</ele><time>2026-04-25T09:12:34.003Z</time></trkpt><trkpt lat="43.136966329035324" lon="11.45350451212726"><ele>153.0</ele><time>2026-04-25T09:12:35.003Z</time></trkpt><trkpt lat="43.13687116437484" lon="11.453603952479002"><ele>153.0</ele><time>2026-04-25T09:12:36.003Z</time></trkpt><trkpt lat="43.13678515579763" lon="11.453694862206097"><ele>153.0</ele><time>2026-04-25T09:12:37.003Z</time></trkpt><trkpt lat="43.13669709305976" lon="11.453793559715354"><ele>152.5</ele><time>2026-04-25T09:12:38.003Z</time></trkpt><trkpt lat="43.13660771145625" lon="11.453903428671442"><ele>152.0</ele><time>2026-04-25T09:12:39.003Z</time></trkpt><trkpt lat="43.13652104937583" lon="11.45401906889128"><ele>151.5</ele><time>2026-04-25T09:12:40.003Z</time></trkpt><trkpt lat="43.13643823188774" lon="11.45413857345853"><ele>151.0</ele><time>2026-04-25T09:12:41.003Z</time></trkpt><trkpt lat="43.13635023713713" lon="11.454283220245191"><ele>151.0</ele><time>2026-04-25T09:12:42.003Z</time></trkpt><trkpt lat="43.13625152092537" lon="11.454471047107965"><ele>151.0</ele><time>2026-04-25T09:12:43.003Z</time></trkpt><trkpt lat="43.13615357996653" lon="11.45468006352728"><ele>151.0</ele><time>2026-04-25T09:12:44.003Z</time></trkpt><trkpt lat="43.13605185210148" lon="11.454893220855503"><ele>152.25</ele><time>2026-04-25T09:12:45.003Z</time></trkpt><trkpt lat="43.13597077666148" lon="11.45507404165637"><ele>153.5</ele><time>2026-04-25T09:12:46.003Z</time></trkpt><trkpt lat="43.135899545127295" lon="11.455230522962916"><ele>154.75</ele><time>2026-04-25T09:12:47.003Z</time></trkpt><trkpt lat="43.135828062039494" lon="11.455375866073272"><ele>156.0</ele><time>2026-04-25T09:12:47.999Z</time></trkpt><trkpt lat="43.13575274386204" lon="11.455507640557034"><ele>155.0</ele><time>2026-04-25T09:12:48.999Z</time></trkpt><trkpt lat="43.13566555105494" lon="11.455629840667266"><ele>154.0</ele><time>2026-04-25T09:12:49.999Z</time></trkpt><trkpt lat="43.13554210722997" lon="11.455731465087649"><ele>153.0</ele><time>2026-04-25T09:12:50.999Z</time></trkpt><trkpt lat="43.13541027342494" lon="11.455891785867886"><ele>152.0</ele><time>2026-04-25T09:12:51.999Z</time></trkpt><trkpt lat="43.13526040500512" lon="11.456039171604274"><ele>152.0</ele><time>2026-04-25T09:12:52.999Z</time></trkpt><trkpt lat="43.135126623506615" lon="11.45617263973986"><ele>152.0</ele><time>2026-04-25T09:12:53.999Z</time></trkpt><trkpt lat="43.134997798333224" lon="11.45630395711866"><ele>152.0</ele><time>2026-04-25T09:12:54.999Z</time></trkpt><trkpt lat="43.13488206648997" lon="11.4564215722738"><ele>152.0</ele><time>2026-04-25T09:12:55.999Z</time></trkpt><trkpt lat="43.134777044196355" lon="11.456526599650863"><ele>152.0</ele><time>2026-04-25T09:12:56.999Z</time></trkpt><trkpt lat="43.13467855582135" lon="11.45662687290168"><ele>152.0</ele><time>2026-04-25T09:12:57.999Z</time></trkpt><trkpt lat="43.13457575048643" lon="11.456728247088831"><ele>152.0</ele><time>2026-04-25T09:12:58.999Z</time></trkpt><trkpt lat="43.134472533263754" lon="11.456832896888661"><ele>152.0</ele><time>2026-04-25T09:12:59.999Z</time></trkpt><trkpt lat="43.134374771827645" lon="11.456933863814516"><ele>152.0</ele><time>2026-04-25T09:13:00.999Z</time></trkpt><trkpt lat="43.1342825693589" lon="11.457024141274994"><ele>152.0</ele><time>2026-04-25T09:13:02Z</time></trkpt><trkpt lat="43.13419524199849" lon="11.457112508331653"><ele>152.0</ele><time>2026-04-25T09:13:03Z</time></trkpt><trkpt lat="43.13410756776506" lon="11.457205927968177"><ele>151.5</ele><time>2026-04-25T09:13:04Z</time></trkpt><trkpt lat="43.134013185350234" lon="11.457299074102108"><ele>151.0</ele><time>2026-04-25T09:13:05Z</time></trkpt><trkpt lat="43.13391321724824" lon="11.45739663180614"><ele>150.5</ele><time>2026-04-25T09:13:06Z</time></trkpt><trkpt lat="43.13381271676731" lon="11.457491960656677"><ele>150.0</ele><time>2026-04-25T09:13:07Z</time></trkpt><trkpt lat="43.13371704455656" lon="11.45758324820318"><ele>150.0</ele><time>2026-04-25T09:13:08Z</time></trkpt><trkpt lat="43.13362736988156" lon="11.457671093867317"><ele>150.0</ele><time>2026-04-25T09:13:09Z</time></trkpt><trkpt lat="43.13353492324229" lon="11.45775615476486"><ele>150.0</ele><time>2026-04-25T09:13:10Z</time></trkpt><trkpt lat="43.13343987100784" lon="11.45783577097498"><ele>150.0</ele><time>2026-04-25T09:13:11Z</time></trkpt><trkpt lat="43.13334210668294" lon="11.457915315156223"><ele>150.0</ele><time>2026-04-25T09:13:12Z</time></trkpt><trkpt lat="43.133246649530925" lon="11.458002695543053"><ele>149.25</ele><time>2026-04-25T09:13:13Z</time></trkpt><trkpt lat="43.133152084261575" lon="11.458105963937983"><ele>148.5</ele><time>2026-04-25T09:13:14Z</time></trkpt><trkpt lat="43.13305050787658" lon="11.458228718245167"><ele>147.75</ele><time>2026-04-25T09:13:15Z</time></trkpt><trkpt lat="43.13294937207182" lon="11.458352126040136"><ele>147.0</ele><time>2026-04-25T09:13:16Z</time></trkpt><trkpt lat="43.13285636438893" lon="11.458469884272649"><ele>147.0</ele><time>2026-04-25T09:13:17Z</time></trkpt><trkpt lat="43.13276413057259" lon="11.458576715720975"><ele>147.0</ele><time>2026-04-25T09:13:18Z</time></trkpt><trkpt lat="43.132678613585604" lon="11.458682629229815"><ele>147.0</ele><time>2026-04-25T09:13:19Z</time></trkpt><trkpt lat="43.132605829939266" lon="11.458794814076764"><ele>147.0</ele><time>2026-04-25T09:13:20Z</time></trkpt><trkpt lat="43.13254669953523" lon="11.458925437356156"><ele>148.25</ele><time>2026-04-25T09:13:21Z</time></trkpt><trkpt lat="43.13250162248427" lon="11.459073710995098"><ele>149.5</ele><time>2026-04-25T09:13:22Z</time></trkpt><trkpt lat="43.13246409717092" lon="11.45924063985578"><ele>150.75</ele><time>2026-04-25T09:13:23.001Z</time></trkpt><trkpt lat="43.13242798015391" lon="11.459385859599998"><ele>152.0</ele><time>2026-04-25T09:13:24.001Z</time></trkpt><trkpt lat="43.1323952798892" lon="11.459508386182153"><ele>150.83333333333331</ele><time>2026-04-25T09:13:25.001Z</time></trkpt><trkpt lat="43.13236482100033" lon="11.459618065039347"><ele>149.66666666666666</ele><time>2026-04-25T09:13:26.001Z</time></trkpt><trkpt lat="43.13234301338566" lon="11.459715305595417"><ele>148.5</ele><time>2026-04-25T09:13:27.001Z</time></trkpt><trkpt lat="43.13231266034091" lon="11.459848297288314"><ele>147.33333333333334</ele><time>2026-04-25T09:13:29.001Z</time></trkpt><trkpt lat="43.1322969665642" lon="11.459932786284957"><ele>146.16666666666669</ele><time>2026-04-25T09:13:32.001Z</time></trkpt><trkpt lat="43.13226870188273" lon="11.46001856773966"><ele>145.0</ele><time>2026-04-25T09:13:35.001Z</time></trkpt><trkpt lat="43.132256271084515" lon="11.460106543859325"><ele>145.0</ele><time>2026-04-25T09:13:38.001Z</time></trkpt><trkpt lat="43.13223360792001" lon="11.460220001135184"><ele>145.0</ele><time>2026-04-25T09:14:17.002Z</time></trkpt><trkpt lat="43.132193445560915" lon="11.460367159342477"><ele>145.0</ele><time>2026-04-25T09:14:19.002Z</time></trkpt><trkpt lat="43.13216964659848" lon="11.460465621058454"><ele>145.0</ele><time>2026-04-25T09:14:20.002Z</time></trkpt><trkpt lat="43.13214387673356" lon="11.460566201520367"><ele>145.0</ele><time>2026-04-25T09:14:21.002Z</time></trkpt><trkpt lat="43.13212023900635" lon="11.460656061472182"><ele>145.0</ele><time>2026-04-25T09:14:22.002Z</time></trkpt><trkpt lat="43.13210128064931" lon="11.46074786323186"><ele>145.16666666666669</ele><time>2026-04-25T09:14:23.002Z</time></trkpt><trkpt lat="43.132083577391676" lon="11.460854757993172"><ele>145.33333333333334</ele><time>2026-04-25T09:14:24.002Z</time></trkpt><trkpt lat="43.1320836170496" lon="11.460973103325545"><ele>145.5</ele><time>2026-04-25T09:14:25.003Z</time></trkpt><trkpt lat="43.13209277251039" lon="11.461102037780838"><ele>145.66666666666666</ele><time>2026-04-25T09:14:26.003Z</time></trkpt><trkpt lat="43.132105813509654" lon="11.461225993552297"><ele>145.83333333333331</ele><time>2026-04-25T09:14:27.003Z</time></trkpt><trkpt lat="43.132120404801505" lon="11.461339460714846"><ele>146.0</ele><time>2026-04-25T09:14:28.003Z</time></trkpt><trkpt lat="43.132132941543915" lon="11.461447706703655"><ele>146.0</ele><time>2026-04-25T09:14:29.003Z</time></trkpt><trkpt lat="43.132145262731264" lon="11.46154733026516"><ele>146.0</ele><time>2026-04-25T09:14:30.003Z</time></trkpt><trkpt lat="43.13214923795504" lon="11.46164369201016"><ele>146.0</ele><time>2026-04-25T09:14:31.003Z</time></trkpt><trkpt lat="43.13215046891815" lon="11.461778296918173"><ele>146.0</ele><time>2026-04-25T09:14:33.003Z</time></trkpt><trkpt lat="43.13211709400628" lon="11.461882627285437"><ele>146.0</ele><time>2026-04-25T09:14:36.003Z</time></trkpt><trkpt lat="43.13201044650102" lon="11.46177524484881"><ele>146.0</ele><time>2026-04-25T09:14:40.003Z</time></trkpt><trkpt lat="43.1319344140103" lon="11.46166648783117"><ele>146.0</ele><time>2026-04-25T09:14:42.003Z</time></trkpt><trkpt lat="43.13188604740405" lon="11.461554176607622"><ele>146.0</ele><time>2026-04-25T09:14:44.003Z</time></trkpt><trkpt lat="43.13184063501156" lon="11.461473474751319"><ele>146.0</ele><time>2026-04-25T09:14:46.003Z</time></trkpt><trkpt lat="43.13178076095155" lon="11.461410677511424"><ele>146.0</ele><time>2026-04-25T09:14:48.003Z</time></trkpt><trkpt lat="43.131725638683854" lon="11.461331997944608"><ele>146.0</ele><time>2026-04-25T09:14:50.003Z</time></trkpt><trkpt lat="43.13167563176044" lon="11.461180166929779"><ele>146.0</ele><time>2026-04-25T09:14:52.003Z</time></trkpt><trkpt lat="43.131631464501545" lon="11.461101639068819"><ele>146.0</ele><time>2026-04-25T09:14:53.003Z</time></trkpt><trkpt lat="43.131581247501764" lon="11.461012354979609"><ele>146.0</ele><time>2026-04-25T09:14:54Z</time></trkpt><trkpt lat="43.13153487802525" lon="11.460929911656411"><ele>146.0</ele><time>2026-04-25T09:14:55Z</time></trkpt><trkpt lat="43.131487288647435" lon="11.46084571580589"><ele>146.0</ele><time>2026-04-25T09:14:56Z</time></trkpt><trkpt lat="43.13144663068464" lon="11.46077380023966"><ele>146.0</ele><time>2026-04-25T09:14:57Z</time></trkpt><trkpt lat="43.13140793741111" lon="11.460704976572641"><ele>146.0</ele><time>2026-04-25T09:14:58Z</time></trkpt><trkpt lat="43.13133775711879" lon="11.460580346362704"><ele>145.25</ele><time>2026-04-25T09:15:00Z</time></trkpt><trkpt lat="43.13126838656413" lon="11.460457154127845"><ele>144.5</ele><time>2026-04-25T09:15:02Z</time></trkpt><trkpt lat="43.13119473123423" lon="11.460387326678957"><ele>143.75</ele><time>2026-04-25T09:15:04Z</time></trkpt><trkpt lat="43.13111068373755" lon="11.460318113469365"><ele>143.0</ele><time>2026-04-25T09:15:06Z</time></trkpt><trkpt lat="43.130558446588125" lon="11.460728695673772"><ele>142.83333333333331</ele><time>2026-04-25T09:15:08Z</time></trkpt><trkpt lat="43.13047861031649" lon="11.460623812054756"><ele>142.66666666666666</ele><time>2026-04-25T09:15:10Z</time></trkpt><trkpt lat="43.13044600749381" lon="11.460549642523779"><ele>142.5</ele><time>2026-04-25T09:15:11Z</time></trkpt><trkpt lat="43.13041835205942" lon="11.460457883084295"><ele>142.33333333333334</ele><time>2026-04-25T09:15:12Z</time></trkpt><trkpt lat="43.130391992690555" lon="11.46034489916036"><ele>142.16666666666669</ele><time>2026-04-25T09:15:13Z</time></trkpt><trkpt lat="43.13035909525971" lon="11.460192335404543"><ele>142.0</ele><time>2026-04-25T09:15:14Z</time></trkpt><trkpt lat="43.13032628292642" lon="11.460029868912079"><ele>142.5</ele><time>2026-04-25T09:15:15Z</time></trkpt><trkpt lat="43.13028939476127" lon="11.459870713236542"><ele>143.0</ele><time>2026-04-25T09:15:16Z</time></trkpt><trkpt lat="43.13025320666843" lon="11.459709966368687"><ele>143.5</ele><time>2026-04-25T09:15:17Z</time></trkpt><trkpt lat="43.13022025554874" lon="11.459560416998036"><ele>144.0</ele><time>2026-04-25T09:15:18Z</time></trkpt><trkpt lat="43.130191293338314" lon="11.45942209865488"><ele>144.2</ele><time>2026-04-25T09:15:19Z</time></trkpt><trkpt lat="43.13016470233291" lon="11.459291029123955"><ele>144.4</ele><time>2026-04-25T09:15:20Z</time></trkpt><trkpt lat="43.130136213869164" lon="11.45916193452763"><ele>144.6</ele><time>2026-04-25T09:15:21Z</time></trkpt><trkpt lat="43.13010871808443" lon="11.459038935242766"><ele>144.8</ele><time>2026-04-25T09:15:22Z</time></trkpt><trkpt lat="43.130080406693025" lon="11.458927307217142"><ele>145.0</ele><time>2026-04-25T09:15:23Z</time></trkpt><trkpt lat="43.13005288782366" lon="11.458818329563151"><ele>146.0</ele><time>2026-04-25T09:15:24Z</time></trkpt><trkpt lat="43.13002649010059" lon="11.458721304590638"><ele>147.0</ele><time>2026-04-25T09:15:25Z</time></trkpt><trkpt lat="43.13000366472565" lon="11.458635161991047"><ele>148.0</ele><time>2026-04-25T09:15:26.001Z</time></trkpt><trkpt lat="43.12997725502536" lon="11.458494428796355"><ele>149.0</ele><time>2026-04-25T09:15:28.001Z</time></trkpt><trkpt lat="43.12997745683882" lon="11.458401305866628"><ele>150.0</ele><time>2026-04-25T09:15:30.001Z</time></trkpt><trkpt lat="43.129991255953954" lon="11.458292882813884"><ele>151.0</ele><time>2026-04-25T09:15:32.001Z</time></trkpt><trkpt lat="43.129945708161536" lon="11.458111352126318"><ele>153.0</ele><time>2026-04-25T09:15:34.001Z</time></trkpt><trkpt lat="43.12987517676059" lon="11.457985959199108"><ele>155.0</ele><time>2026-04-25T09:15:35.001Z</time></trkpt><trkpt lat="43.12977889222947" lon="11.45781478155661"><ele>157.0</ele><time>2026-04-25T09:15:36.001Z</time></trkpt><trkpt lat="43.129663059268495" lon="11.457610798894544"><ele>158.33333333333334</ele><time>2026-04-25T09:15:37.001Z</time></trkpt><trkpt lat="43.129540230034884" lon="11.457393166179267"><ele>159.66666666666666</ele><time>2026-04-25T09:15:38.001Z</time></trkpt><trkpt lat="43.12943575633019" lon="11.457208056372048"><ele>161.0</ele><time>2026-04-25T09:15:39.001Z</time></trkpt><trkpt lat="43.12935729058342" lon="11.457069029380579"><ele>161.66666666666666</ele><time>2026-04-25T09:15:40.001Z</time></trkpt><trkpt lat="43.129270506925465" lon="11.456914728142536"><ele>162.33333333333334</ele><time>2026-04-25T09:15:41.001Z</time></trkpt><trkpt lat="43.1291732433791" lon="11.456774285221897"><ele>163.0</ele><time>2026-04-25T09:15:42.001Z</time></trkpt><trkpt lat="43.12906663653592" lon="11.456568557140615"><ele>166.33333333333334</ele><time>2026-04-25T09:15:43.001Z</time></trkpt><trkpt lat="43.1289619312172" lon="11.456393058762579"><ele>169.66666666666666</ele><time>2026-04-25T09:15:44.001Z</time></trkpt><trkpt lat="43.12887432137234" lon="11.456232935228892"><ele>173.0</ele><time>2026-04-25T09:15:45.001Z</time></trkpt><trkpt lat="43.12878791905408" lon="11.456075164976903"><ele>173.5</ele><time>2026-04-25T09:15:46.001Z</time></trkpt><trkpt lat="43.12870459162397" lon="11.455922159382588"><ele>174.0</ele><time>2026-04-25T09:15:47.001Z</time></trkpt><trkpt lat="43.12861986971361" lon="11.455774395146635"><ele>174.5</ele><time>2026-04-25T09:15:48.001Z</time></trkpt><trkpt lat="43.12852811778691" lon="11.455643717777086"><ele>175.0</ele><time>2026-04-25T09:15:49.001Z</time></trkpt><trkpt lat="43.1284270856855" lon="11.45553258615656"><ele>176.0</ele><time>2026-04-25T09:15:50.001Z</time></trkpt><trkpt lat="43.12830780401696" lon="11.455426064125547"><ele>177.0</ele><time>2026-04-25T09:15:51.001Z</time></trkpt><trkpt lat="43.1281637314514" lon="11.455356425979515"><ele>178.0</ele><time>2026-04-25T09:15:52.001Z</time></trkpt><trkpt lat="43.12800786883983" lon="11.45529154510377"><ele>183.0</ele><time>2026-04-25T09:15:53.001Z</time></trkpt><trkpt lat="43.127852630443336" lon="11.455223948624383"><ele>188.0</ele><time>2026-04-25T09:15:54.001Z</time></trkpt><trkpt lat="43.12770322583661" lon="11.455158414185032"><ele>193.0</ele><time>2026-04-25T09:15:55.001Z</time></trkpt><trkpt lat="43.12756791502555" lon="11.455093756797943"><ele>193.0</ele><time>2026-04-25T09:15:56.001Z</time></trkpt><trkpt lat="43.12744039203439" lon="11.455034153712758"><ele>193.0</ele><time>2026-04-25T09:15:57.001Z</time></trkpt><trkpt lat="43.12731951720032" lon="11.454972430879927"><ele>193.0</ele><time>2026-04-25T09:15:58.002Z</time></trkpt><trkpt lat="43.12721296110201" lon="11.454899836410267"><ele>193.0</ele><time>2026-04-25T09:15:59.002Z</time></trkpt><trkpt lat="43.12713754343795" lon="11.454811798919426"><ele>195.2</ele><time>2026-04-25T09:16:00.002Z</time></trkpt><trkpt lat="43.127063683634404" lon="11.45471931926041"><ele>197.4</ele><time>2026-04-25T09:16:01.002Z</time></trkpt><trkpt lat="43.12699922278486" lon="11.45460745817939"><ele>199.6</ele><time>2026-04-25T09:16:02.002Z</time></trkpt><trkpt lat="43.12693827177252" lon="11.454476305013017"><ele>201.79999999999998</ele><time>2026-04-25T09:16:03.002Z</time></trkpt><trkpt lat="43.126875746815486" lon="11.454345155052557"><ele>204.0</ele><time>2026-04-25T09:16:04.002Z</time></trkpt><trkpt lat="43.12682056169792" lon="11.454198916881076"><ele>206.25</ele><time>2026-04-25T09:16:05.002Z</time></trkpt><trkpt lat="43.126807246657364" lon="11.454019820817194"><ele>208.5</ele><time>2026-04-25T09:16:06.002Z</time></trkpt><trkpt lat="43.12679548017318" lon="11.453833349504329"><ele>210.75</ele><time>2026-04-25T09:16:07.002Z</time></trkpt><trkpt lat="43.12677706033388" lon="11.453649660821007"><ele>213.0</ele><time>2026-04-25T09:16:08.002Z</time></trkpt><trkpt lat="43.12676874941573" lon="11.453484083815374"><ele>214.5</ele><time>2026-04-25T09:16:09.002Z</time></trkpt><trkpt lat="43.12675996132272" lon="11.453314994363508"><ele>216.0</ele><time>2026-04-25T09:16:10.002Z</time></trkpt><trkpt lat="43.12675364074051" lon="11.453144935151577"><ele>217.5</ele><time>2026-04-25T09:16:11.002Z</time></trkpt><trkpt lat="43.12675614139785" lon="11.452965941378567"><ele>219.0</ele><time>2026-04-25T09:16:12.002Z</time></trkpt><trkpt lat="43.12676065108678" lon="11.452773992423165"><ele>220.0</ele><time>2026-04-25T09:16:13.002Z</time></trkpt><trkpt lat="43.12676484989479" lon="11.452566930825691"><ele>221.0</ele><time>2026-04-25T09:16:14.002Z</time></trkpt><trkpt lat="43.12677285073994" lon="11.452351416830945"><ele>222.0</ele><time>2026-04-25T09:16:15.002Z</time></trkpt><trkpt lat="43.12676080585509" lon="11.452118191053012"><ele>223.0</ele><time>2026-04-25T09:16:16.002Z</time></trkpt><trkpt lat="43.12673899484804" lon="11.451878452939185"><ele>224.0</ele><time>2026-04-25T09:16:17.002Z</time></trkpt><trkpt lat="43.12671393825176" lon="11.451642494274243"><ele>225.0</ele><time>2026-04-25T09:16:18.002Z</time></trkpt><trkpt lat="43.12668325152501" lon="11.451408031394124"><ele>225.0</ele><time>2026-04-25T09:16:19.002Z</time></trkpt><trkpt lat="43.12663661457649" lon="11.451181548446254"><ele>225.0</ele><time>2026-04-25T09:16:20.002Z</time></trkpt><trkpt lat="43.1265756002227" lon="11.450965717260766"><ele>225.0</ele><time>2026-04-25T09:16:21.002Z</time></trkpt><trkpt lat="43.12650829375035" lon="11.450760882598514"><ele>225.0</ele><time>2026-04-25T09:16:22.002Z</time></trkpt><trkpt lat="43.1264442648522" lon="11.45055351558146"><ele>225.0</ele><time>2026-04-25T09:16:23.002Z</time></trkpt><trkpt lat="43.12638431286948" lon="11.450346439816286"><ele>225.0</ele><time>2026-04-25T09:16:24.002Z</time></trkpt><trkpt lat="43.126322334425154" lon="11.450146194319414"><ele>226.5</ele><time>2026-04-25T09:16:25.002Z</time></trkpt><trkpt lat="43.12626211193876" lon="11.44995400197062"><ele>228.0</ele><time>2026-04-25T09:16:26.002Z</time></trkpt><trkpt lat="43.12620564717113" lon="11.449773710503255"><ele>229.5</ele><time>2026-04-25T09:16:27.002Z</time></trkpt><trkpt lat="43.12615275987076" lon="11.44961979192186"><ele>231.0</ele><time>2026-04-25T09:16:28.002Z</time></trkpt><trkpt lat="43.12609422353109" lon="11.449477075515132"><ele>233.0</ele><time>2026-04-25T09:16:29.002Z</time></trkpt><trkpt lat="43.126019711023815" lon="11.449364349552075"><ele>235.0</ele><time>2026-04-25T09:16:30.002Z</time></trkpt><trkpt lat="43.12592420813445" lon="11.449271047929432"><ele>237.0</ele><time>2026-04-25T09:16:31.003Z</time></trkpt><trkpt lat="43.12582002267192" lon="11.449197566804276"><ele>239.0</ele><time>2026-04-25T09:16:32.003Z</time></trkpt><trkpt lat="43.12570880048304" lon="11.449145067163773"><ele>239.0</ele><time>2026-04-25T09:16:33.003Z</time></trkpt><trkpt lat="43.125593057980275" lon="11.449098880676992"><ele>239.0</ele><time>2026-04-25T09:16:34.003Z</time></trkpt><trkpt lat="43.1254709036302" lon="11.449056785686846"><ele>239.0</ele><time>2026-04-25T09:16:35.003Z</time></trkpt><trkpt lat="43.12535043148473" lon="11.449015372722554"><ele>239.0</ele><time>2026-04-25T09:16:36.003Z</time></trkpt><trkpt lat="43.12524031319436" lon="11.448978516365283"><ele>239.0</ele><time>2026-04-25T09:16:37.003Z</time></trkpt><trkpt lat="43.12513344789377" lon="11.448942388359738"><ele>238.99999999999997</ele><time>2026-04-25T09:16:38.003Z</time></trkpt><trkpt lat="43.125032673458506" lon="11.448901425163376"><ele>238.99999999999997</ele><time>2026-04-25T09:16:39.003Z</time></trkpt><trkpt lat="43.12494509016409" lon="11.448858069962862"><ele>239.0</ele><time>2026-04-25T09:16:40.003Z</time></trkpt><trkpt lat="43.12486511488569" lon="11.448809332121794"><ele>239.0</ele><time>2026-04-25T09:16:41.003Z</time></trkpt><trkpt lat="43.12479029174139" lon="11.44876662732201"><ele>239.16666666666669</ele><time>2026-04-25T09:16:42.003Z</time></trkpt><trkpt lat="43.12472368700356" lon="11.448741762200743"><ele>239.33333333333334</ele><time>2026-04-25T09:16:43.003Z</time></trkpt><trkpt lat="43.124657002411695" lon="11.448742987834066"><ele>239.5</ele><time>2026-04-25T09:16:44.003Z</time></trkpt><trkpt lat="43.12458578355167" lon="11.448783587572898"><ele>239.66666666666669</ele><time>2026-04-25T09:16:45.003Z</time></trkpt><trkpt lat="43.12451145735733" lon="11.448886626555192"><ele>239.83333333333334</ele><time>2026-04-25T09:16:46.003Z</time></trkpt><trkpt lat="43.124432439525634" lon="11.449000055017818"><ele>240.0</ele><time>2026-04-25T09:16:47.003Z</time></trkpt><trkpt lat="43.12435889148691" lon="11.449100340149124"><ele>239.4</ele><time>2026-04-25T09:16:48.003Z</time></trkpt><trkpt lat="43.12427991019784" lon="11.44917592717232"><ele>238.8</ele><time>2026-04-25T09:16:49.003Z</time></trkpt><trkpt lat="43.12418855100015" lon="11.449224162341482"><ele>238.2</ele><time>2026-04-25T09:16:50.003Z</time></trkpt><trkpt lat="43.124093917581554" lon="11.449243947102573"><ele>237.6</ele><time>2026-04-25T09:16:51.003Z</time></trkpt><trkpt lat="43.12398975112627" lon="11.449229953716664"><ele>237.0</ele><time>2026-04-25T09:16:52.003Z</time></trkpt><trkpt lat="43.123876391214246" lon="11.449190310879258"><ele>236.25</ele><time>2026-04-25T09:16:53.003Z</time></trkpt><trkpt lat="43.123753751003335" lon="11.449144782307547"><ele>235.5</ele><time>2026-04-25T09:16:54.003Z</time></trkpt><trkpt lat="43.12362244708907" lon="11.44910436530651"><ele>234.75</ele><time>2026-04-25T09:16:55.003Z</time></trkpt><trkpt lat="43.12347127230303" lon="11.449056164645967"><ele>234.0</ele><time>2026-04-25T09:16:56.003Z</time></trkpt><trkpt lat="43.12331347576392" lon="11.44900408192349"><ele>233.0</ele><time>2026-04-25T09:16:57.003Z</time></trkpt><trkpt lat="43.12316153033163" lon="11.448952263683395"><ele>232.0</ele><time>2026-04-25T09:16:58.003Z</time></trkpt><trkpt lat="43.123007440036375" lon="11.448899050910942"><ele>231.0</ele><time>2026-04-25T09:16:59.003Z</time></trkpt><trkpt lat="43.12285441192956" lon="11.44884665781236"><ele>231.0</ele><time>2026-04-25T09:16:59.999Z</time></trkpt><trkpt lat="43.12272751785732" lon="11.448803674137183"><ele>231.0</ele><time>2026-04-25T09:17:00.999Z</time></trkpt><trkpt lat="43.12260282530321" lon="11.448765036835026"><ele>231.0</ele><time>2026-04-25T09:17:01.999Z</time></trkpt><trkpt lat="43.122472477715185" lon="11.448715059158808"><ele>231.0</ele><time>2026-04-25T09:17:02.999Z</time></trkpt><trkpt lat="43.122337965733216" lon="11.4486647787427"><ele>229.25</ele><time>2026-04-25T09:17:03.999Z</time></trkpt><trkpt lat="43.1222032216443" lon="11.448615696883733"><ele>227.5</ele><time>2026-04-25T09:17:04.999Z</time></trkpt><trkpt lat="43.12207234172562" lon="11.448569411772516"><ele>225.75</ele><time>2026-04-25T09:17:05.999Z</time></trkpt><trkpt lat="43.12193734431048" lon="11.448524256034387"><ele>224.0</ele><time>2026-04-25T09:17:06.999Z</time></trkpt><trkpt lat="43.12180152631765" lon="11.448481428448584"><ele>224.0</ele><time>2026-04-25T09:17:07.999Z</time></trkpt><trkpt lat="43.12166951554605" lon="11.44843610264591"><ele>224.0</ele><time>2026-04-25T09:17:08.999Z</time></trkpt><trkpt lat="43.121551145324226" lon="11.448382509051399"><ele>224.0</ele><time>2026-04-25T09:17:09.999Z</time></trkpt><trkpt lat="43.12144700656695" lon="11.448329188770689"><ele>224.0</ele><time>2026-04-25T09:17:11Z</time></trkpt><trkpt lat="43.121367163264246" lon="11.44819805273461"><ele>222.25</ele><time>2026-04-25T09:17:12Z</time></trkpt><trkpt lat="43.12130250184431" lon="11.448061724056151"><ele>220.5</ele><time>2026-04-25T09:17:13Z</time></trkpt><trkpt lat="43.121246425706204" lon="11.447899834500394"><ele>218.75</ele><time>2026-04-25T09:17:14Z</time></trkpt><trkpt lat="43.12119279612879" lon="11.447726176018241"><ele>217.0</ele><time>2026-04-25T09:17:15Z</time></trkpt><trkpt lat="43.12113908924662" lon="11.447557760740013"><ele>217.0</ele><time>2026-04-25T09:17:16Z</time></trkpt><trkpt lat="43.12108430128126" lon="11.447389441475442"><ele>217.0</ele><time>2026-04-25T09:17:17Z</time></trkpt><trkpt lat="43.121033207409084" lon="11.447217552317756"><ele>217.0</ele><time>2026-04-25T09:17:18Z</time></trkpt><trkpt lat="43.12098179357578" lon="11.447048664133598"><ele>217.0</ele><time>2026-04-25T09:17:19Z</time></trkpt><trkpt lat="43.120925895430055" lon="11.44687865036873"><ele>216.0</ele><time>2026-04-25T09:17:20Z</time></trkpt><trkpt lat="43.12087302756056" lon="11.44670829957068"><ele>215.0</ele><time>2026-04-25T09:17:21Z</time></trkpt><trkpt lat="43.12082448217358" lon="11.446549082890975"><ele>214.0</ele><time>2026-04-25T09:17:22Z</time></trkpt><trkpt lat="43.1207778395648" lon="11.44639590753016"><ele>213.0</ele><time>2026-04-25T09:17:23Z</time></trkpt><trkpt lat="43.12073500958181" lon="11.446252127569155"><ele>212.60000000000002</ele><time>2026-04-25T09:17:24Z</time></trkpt><trkpt lat="43.120701281494604" lon="11.446120807559728"><ele>212.20000000000002</ele><time>2026-04-25T09:17:25Z</time></trkpt><trkpt lat="43.12068544541616" lon="11.445995473132763"><ele>211.8</ele><time>2026-04-25T09:17:26Z</time></trkpt><trkpt lat="43.120688943924044" lon="11.4458551478398"><ele>211.4</ele><time>2026-04-25T09:17:27Z</time></trkpt><trkpt lat="43.12072138420424" lon="11.44571408320388"><ele>211.0</ele><time>2026-04-25T09:17:28Z</time></trkpt><trkpt lat="43.120762585392065" lon="11.44556925781416"><ele>211.0</ele><time>2026-04-25T09:17:29Z</time></trkpt><trkpt lat="43.12080606340488" lon="11.445432685533214"><ele>211.0</ele><time>2026-04-25T09:17:30Z</time></trkpt><trkpt lat="43.12084184865357" lon="11.445308224499612"><ele>211.0</ele><time>2026-04-25T09:17:31Z</time></trkpt><trkpt lat="43.12087073440171" lon="11.44517747597987"><ele>211.0</ele><time>2026-04-25T09:17:32Z</time></trkpt><trkpt lat="43.120902357675476" lon="11.44505640618006"><ele>211.0</ele><time>2026-04-25T09:17:33Z</time></trkpt><trkpt lat="43.120875640008336" lon="11.444917049717773"><ele>211.0</ele><time>2026-04-25T09:17:34.001Z</time></trkpt><trkpt lat="43.12084235911073" lon="11.444782174800823"><ele>211.0</ele><time>2026-04-25T09:17:35.001Z</time></trkpt><trkpt lat="43.12077200952909" lon="11.44466367766677"><ele>211.0</ele><time>2026-04-25T09:17:36.001Z</time></trkpt><trkpt lat="43.12068154310523" lon="11.444535563636453"><ele>211.0</ele><time>2026-04-25T09:17:37.001Z</time></trkpt><trkpt lat="43.120560263753994" lon="11.444438854352622"><ele>208.66666666666666</ele><time>2026-04-25T09:17:38.001Z</time></trkpt><trkpt lat="43.12042342830511" lon="11.444344667094462"><ele>206.33333333333331</ele><time>2026-04-25T09:17:39.001Z</time></trkpt><trkpt lat="43.1202687496774" lon="11.44423839471639"><ele>204.0</ele><time>2026-04-25T09:17:40.001Z</time></trkpt><trkpt lat="43.12011899250588" lon="11.444134301370744"><ele>204.0</ele><time>2026-04-25T09:17:41.001Z</time></trkpt><trkpt lat="43.11996873261081" lon="11.444032768077703"><ele>204.0</ele><time>2026-04-25T09:17:42.001Z</time></trkpt><trkpt lat="43.11981369814551" lon="11.443929408161612"><ele>204.0</ele><time>2026-04-25T09:17:43.001Z</time></trkpt><trkpt lat="43.1196644642334" lon="11.44382955492166"><ele>199.66666666666666</ele><time>2026-04-25T09:17:44.001Z</time></trkpt><trkpt lat="43.119517839207255" lon="11.443729997093302"><ele>195.33333333333331</ele><time>2026-04-25T09:17:45.001Z</time></trkpt><trkpt lat="43.119378887960444" lon="11.44363115740739"><ele>191.0</ele><time>2026-04-25T09:17:46.001Z</time></trkpt><trkpt lat="43.11924105580377" lon="11.443526001148015"><ele>191.0</ele><time>2026-04-25T09:17:47.001Z</time></trkpt><trkpt lat="43.119113787064926" lon="11.443424150921327"><ele>191.0</ele><time>2026-04-25T09:17:48.001Z</time></trkpt><trkpt lat="43.11899641373395" lon="11.443318530021887"><ele>191.0</ele><time>2026-04-25T09:17:49.001Z</time></trkpt><trkpt lat="43.11888864732997" lon="11.443194560513566"><ele>191.0</ele><time>2026-04-25T09:17:50.001Z</time></trkpt><trkpt lat="43.118789943487414" lon="11.443057639490132"><ele>188.5</ele><time>2026-04-25T09:17:51.001Z</time></trkpt><trkpt lat="43.11870551459034" lon="11.442946844898628"><ele>186.0</ele><time>2026-04-25T09:17:52.001Z</time></trkpt><trkpt lat="43.11862863247793" lon="11.442878606358482"><ele>183.5</ele><time>2026-04-25T09:17:53.001Z</time></trkpt><trkpt lat="43.11857594634932" lon="11.442801845263014"><ele>181.0</ele><time>2026-04-25T09:17:54.001Z</time></trkpt><trkpt lat="43.11851570720453" lon="11.442735017548127"><ele>178.5</ele><time>2026-04-25T09:17:55.001Z</time></trkpt><trkpt lat="43.11844604497537" lon="11.442682592412051"><ele>176.0</ele><time>2026-04-25T09:17:56.001Z</time></trkpt><trkpt lat="43.118375866845035" lon="11.44261372191689"><ele>176.0</ele><time>2026-04-25T09:17:57.001Z</time></trkpt><trkpt lat="43.11829702442646" lon="11.44254658307975"><ele>176.0</ele><time>2026-04-25T09:17:58.001Z</time></trkpt><trkpt lat="43.118205476126015" lon="11.44247161045945"><ele>176.0</ele><time>2026-04-25T09:17:59.001Z</time></trkpt><trkpt lat="43.11811638639313" lon="11.442389753927644"><ele>176.0</ele><time>2026-04-25T09:18:00.001Z</time></trkpt><trkpt lat="43.118024191187665" lon="11.442310724569591"><ele>176.0</ele><time>2026-04-25T09:18:01.001Z</time></trkpt><trkpt lat="43.117930801885244" lon="11.442241888583947"><ele>176.0</ele><time>2026-04-25T09:18:02.001Z</time></trkpt><trkpt lat="43.11784380174375" lon="11.442167643321275"><ele>176.0</ele><time>2026-04-25T09:18:03.001Z</time></trkpt><trkpt lat="43.11776842255649" lon="11.442099085107563"><ele>176.0</ele><time>2026-04-25T09:18:04.002Z</time></trkpt><trkpt lat="43.11768786604747" lon="11.442045438383492"><ele>176.0</ele><time>2026-04-25T09:18:05.002Z</time></trkpt><trkpt lat="43.11761991151337" lon="11.442001650332854"><ele>176.0</ele><time>2026-04-25T09:18:06.002Z</time></trkpt><trkpt lat="43.11754464685863" lon="11.441946588125747"><ele>176.0</ele><time>2026-04-25T09:18:07.002Z</time></trkpt><trkpt lat="43.1174506463765" lon="11.441946830230501"><ele>174.66666666666666</ele><time>2026-04-25T09:18:08.002Z</time></trkpt><trkpt lat="43.117368129201154" lon="11.441950270113566"><ele>173.33333333333331</ele><time>2026-04-25T09:18:09.002Z</time></trkpt><trkpt lat="43.117289579499015" lon="11.44197560595436"><ele>172.0</ele><time>2026-04-25T09:18:10.002Z</time></trkpt><trkpt lat="43.117217254400046" lon="11.442017276168226"><ele>170.66666666666666</ele><time>2026-04-25T09:18:11.002Z</time></trkpt><trkpt lat="43.11713672198062" lon="11.442062269406613"><ele>169.33333333333334</ele><time>2026-04-25T09:18:12.002Z</time></trkpt><trkpt lat="43.11705822720579" lon="11.442117274645245"><ele>168.0</ele><time>2026-04-25T09:18:13.002Z</time></trkpt><trkpt lat="43.116975463441086" lon="11.442174725202277"><ele>168.0</ele><time>2026-04-25T09:18:14.002Z</time></trkpt><trkpt lat="43.11688931113956" lon="11.442218119430915"><ele>168.0</ele><time>2026-04-25T09:18:15.002Z</time></trkpt><trkpt lat="43.116809824476064" lon="11.44225337120217"><ele>168.0</ele><time>2026-04-25T09:18:16.002Z</time></trkpt><trkpt lat="43.11672416159936" lon="11.442270939226741"><ele>168.0</ele><time>2026-04-25T09:18:17.002Z</time></trkpt><trkpt lat="43.11663835561698" lon="11.44226805843459"><ele>168.0</ele><time>2026-04-25T09:18:18.002Z</time></trkpt><trkpt lat="43.11655672837649" lon="11.442244581496707"><ele>168.0</ele><time>2026-04-25T09:18:19.002Z</time></trkpt><trkpt lat="43.11648417957084" lon="11.4421924565091"><ele>166.20000000000002</ele><time>2026-04-25T09:18:20.002Z</time></trkpt><trkpt lat="43.11642468479693" lon="11.442089131020087"><ele>164.4</ele><time>2026-04-25T09:18:21.002Z</time></trkpt><trkpt lat="43.11634737660038" lon="11.442014530921734"><ele>162.60000000000002</ele><time>2026-04-25T09:18:22.002Z</time></trkpt><trkpt lat="43.11629063926982" lon="11.44192267004819"><ele>160.8</ele><time>2026-04-25T09:18:23.002Z</time></trkpt><trkpt lat="43.11622846041552" lon="11.441834693162717"><ele>159.0</ele><time>2026-04-25T09:18:24.002Z</time></trkpt><trkpt lat="43.11615918847608" lon="11.441756550564534"><ele>159.0</ele><time>2026-04-25T09:18:25.002Z</time></trkpt><trkpt lat="43.116091789792485" lon="11.441685689471187"><ele>159.0</ele><time>2026-04-25T09:18:26.002Z</time></trkpt><trkpt lat="43.11601885180257" lon="11.441617565245368"><ele>159.0</ele><time>2026-04-25T09:18:27.002Z</time></trkpt><trkpt lat="43.115958474999296" lon="11.441542115115979"><ele>159.0</ele><time>2026-04-25T09:18:28.002Z</time></trkpt><trkpt lat="43.115897473815416" lon="11.441462461032605"><ele>159.0</ele><time>2026-04-25T09:18:29.002Z</time></trkpt><trkpt lat="43.11583712263811" lon="11.441381100223623"><ele>159.0</ele><time>2026-04-25T09:18:30.002Z</time></trkpt><trkpt lat="43.11576560864517" lon="11.441326115902411"><ele>157.0</ele><time>2026-04-25T09:18:31.002Z</time></trkpt><trkpt lat="43.115703817083244" lon="11.441256884381591"><ele>155.0</ele><time>2026-04-25T09:18:32.002Z</time></trkpt><trkpt lat="43.11563647864705" lon="11.441209403645574"><ele>153.0</ele><time>2026-04-25T09:18:33.002Z</time></trkpt><trkpt lat="43.11555361781703" lon="11.441187695222215"><ele>151.0</ele><time>2026-04-25T09:18:34.002Z</time></trkpt><trkpt lat="43.11546314449233" lon="11.44119238762276"><ele>149.0</ele><time>2026-04-25T09:18:35.002Z</time></trkpt><trkpt lat="43.11536397284956" lon="11.441216293402643"><ele>147.0</ele><time>2026-04-25T09:18:36.002Z</time></trkpt><trkpt lat="43.11526562058929" lon="11.441244805861857"><ele>147.0</ele><time>2026-04-25T09:18:37.003Z</time></trkpt><trkpt lat="43.115161420300595" lon="11.4412698998642"><ele>147.0</ele><time>2026-04-25T09:18:38.003Z</time></trkpt><trkpt lat="43.11505326302982" lon="11.441293049665727"><ele>147.0</ele><time>2026-04-25T09:18:39.003Z</time></trkpt><trkpt lat="43.1149445427481" lon="11.441311930595544"><ele>147.0</ele><time>2026-04-25T09:18:40.003Z</time></trkpt><trkpt lat="43.114843912902494" lon="11.44131832756082"><ele>147.0</ele><time>2026-04-25T09:18:41.003Z</time></trkpt><trkpt lat="43.114745309364075" lon="11.441322125431833"><ele>146.0</ele><time>2026-04-25T09:18:42.003Z</time></trkpt><trkpt lat="43.11465010542188" lon="11.441327472694125"><ele>145.0</ele><time>2026-04-25T09:18:43.003Z</time></trkpt><trkpt lat="43.11455747111355" lon="11.441333952922333"><ele>144.0</ele><time>2026-04-25T09:18:44.003Z</time></trkpt><trkpt lat="43.11447054762673" lon="11.441337558800763"><ele>143.0</ele><time>2026-04-25T09:18:45.003Z</time></trkpt><trkpt lat="43.11438746141934" lon="11.441342838753828"><ele>142.0</ele><time>2026-04-25T09:18:46.003Z</time></trkpt><trkpt lat="43.11429913660352" lon="11.441351633310823"><ele>141.0</ele><time>2026-04-25T09:18:47.003Z</time></trkpt><trkpt lat="43.11419703587454" lon="11.441364144817078"><ele>140.0</ele><time>2026-04-25T09:18:48.003Z</time></trkpt><trkpt lat="43.114052371940474" lon="11.44137796080929"><ele>139.0</ele><time>2026-04-25T09:18:49.003Z</time></trkpt><trkpt lat="43.11387114465753" lon="11.441394059041562"><ele>138.0</ele><time>2026-04-25T09:18:50.003Z</time></trkpt><trkpt lat="43.113664763878084" lon="11.441412636137219"><ele>138.0</ele><time>2026-04-25T09:18:51.003Z</time></trkpt><trkpt lat="43.113489020956536" lon="11.441425905416603"><ele>138.0</ele><time>2026-04-25T09:18:52.003Z</time></trkpt><trkpt lat="43.113319639378105" lon="11.441446552021118"><ele>138.0</ele><time>2026-04-25T09:18:53.003Z</time></trkpt><trkpt lat="43.113170370455414" lon="11.441461078356399"><ele>137.66666666666666</ele><time>2026-04-25T09:18:54.003Z</time></trkpt><trkpt lat="43.11303393833029" lon="11.441470983476883"><ele>137.33333333333331</ele><time>2026-04-25T09:18:55.003Z</time></trkpt><trkpt lat="43.11288802077199" lon="11.441483255914632"><ele>137.0</ele><time>2026-04-25T09:18:56.003Z</time></trkpt><trkpt lat="43.1127161442067" lon="11.441499662463508"><ele>137.0</ele><time>2026-04-25T09:18:57.003Z</time></trkpt><trkpt lat="43.112561835179804" lon="11.441510670224558"><ele>137.0</ele><time>2026-04-25T09:18:58.003Z</time></trkpt><trkpt lat="43.112400380165646" lon="11.441523430577398"><ele>137.0</ele><time>2026-04-25T09:18:59.003Z</time></trkpt><trkpt lat="43.11225945233731" lon="11.441536373621513"><ele>136.75</ele><time>2026-04-25T09:19:00.003Z</time></trkpt><trkpt lat="43.112137319462256" lon="11.441547386229994"><ele>136.5</ele><time>2026-04-25T09:19:01.003Z</time></trkpt><trkpt lat="43.11202163608464" lon="11.441559967330699"><ele>136.25</ele><time>2026-04-25T09:19:02.003Z</time></trkpt><trkpt lat="43.111911825766875" lon="11.441570528872854"><ele>136.0</ele><time>2026-04-25T09:19:03.003Z</time></trkpt><trkpt lat="43.11180714293314" lon="11.441576981353387"><ele>136.0</ele><time>2026-04-25T09:19:04.003Z</time></trkpt><trkpt lat="43.111700071658944" lon="11.441586856590233"><ele>136.0</ele><time>2026-04-25T09:19:05.003Z</time></trkpt><trkpt lat="43.11160135798081" lon="11.44159952853481"><ele>136.0</ele><time>2026-04-25T09:19:05.999Z</time></trkpt><trkpt lat="43.11150828842849" lon="11.44161314122528"><ele>136.0</ele><time>2026-04-25T09:19:06.999Z</time></trkpt><trkpt lat="43.11140659272368" lon="11.441627447420087"><ele>136.0</ele><time>2026-04-25T09:19:08Z</time></trkpt><trkpt lat="43.11129597559146" lon="11.441643402878839"><ele>135.8</ele><time>2026-04-25T09:19:09Z</time></trkpt><trkpt lat="43.111195479351004" lon="11.441664407207123"><ele>135.6</ele><time>2026-04-25T09:19:10Z</time></trkpt><trkpt lat="43.11109874854195" lon="11.441683133788551"><ele>135.4</ele><time>2026-04-25T09:19:11Z</time></trkpt><trkpt lat="43.11100691325437" lon="11.441697205298599"><ele>135.2</ele><time>2026-04-25T09:19:12Z</time></trkpt><trkpt lat="43.110913945020634" lon="11.441705770189037"><ele>135.0</ele><time>2026-04-25T09:19:13Z</time></trkpt><trkpt lat="43.110802017599084" lon="11.44171077751303"><ele>134.5</ele><time>2026-04-25T09:19:14Z</time></trkpt><trkpt lat="43.11066115738634" lon="11.441716322368123"><ele>134.0</ele><time>2026-04-25T09:19:15Z</time></trkpt><trkpt lat="43.11053826309875" lon="11.441720071800331"><ele>133.5</ele><time>2026-04-25T09:19:16Z</time></trkpt><trkpt lat="43.110430762139536" lon="11.441724022779585"><ele>133.0</ele><time>2026-04-25T09:19:17Z</time></trkpt><trkpt lat="43.11032127027698" lon="11.441732567706682"><ele>133.0</ele><time>2026-04-25T09:19:18Z</time></trkpt><trkpt lat="43.11019785753068" lon="11.441745501375953"><ele>133.0</ele><time>2026-04-25T09:19:19Z</time></trkpt><trkpt lat="43.110067962954766" lon="11.441775707760495"><ele>133.0</ele><time>2026-04-25T09:19:20Z</time></trkpt><trkpt lat="43.109919924646704" lon="11.441832584704086"><ele>133.0</ele><time>2026-04-25T09:19:21Z</time></trkpt><trkpt lat="43.109781306804614" lon="11.441889001303727"><ele>133.0</ele><time>2026-04-25T09:19:22Z</time></trkpt><trkpt lat="43.1096567722402" lon="11.441945710695778"><ele>133.0</ele><time>2026-04-25T09:19:23Z</time></trkpt><trkpt lat="43.10953457958993" lon="11.441998750714935"><ele>133.0</ele><time>2026-04-25T09:19:24Z</time></trkpt><trkpt lat="43.109408246231006" lon="11.442049335816654"><ele>133.0</ele><time>2026-04-25T09:19:25Z</time></trkpt><trkpt lat="43.10927590102215" lon="11.442096952604972"><ele>133.0</ele><time>2026-04-25T09:19:26Z</time></trkpt><trkpt lat="43.1091221036677" lon="11.44214502934059"><ele>133.0</ele><time>2026-04-25T09:19:27Z</time></trkpt><trkpt lat="43.108946853616374" lon="11.44219363418436"><ele>133.0</ele><time>2026-04-25T09:19:28Z</time></trkpt><trkpt lat="43.10877937175889" lon="11.442233155352316"><ele>133.0</ele><time>2026-04-25T09:19:29Z</time></trkpt><trkpt lat="43.10863934597465" lon="11.442260668389718"><ele>133.0</ele><time>2026-04-25T09:19:30Z</time></trkpt><trkpt lat="43.10850264914248" lon="11.442294811755954"><ele>133.0</ele><time>2026-04-25T09:19:31Z</time></trkpt><trkpt lat="43.108353852946294" lon="11.442321354439125"><ele>133.0</ele><time>2026-04-25T09:19:32Z</time></trkpt><trkpt lat="43.10822474065822" lon="11.442344854085997"><ele>133.20000000000002</ele><time>2026-04-25T09:19:33Z</time></trkpt><trkpt lat="43.10810479662473" lon="11.442369033490063"><ele>133.4</ele><time>2026-04-25T09:19:34Z</time></trkpt><trkpt lat="43.107995295469095" lon="11.442392688128905"><ele>133.60000000000002</ele><time>2026-04-25T09:19:35Z</time></trkpt><trkpt lat="43.107888509336924" lon="11.442418680794548"><ele>133.8</ele><time>2026-04-25T09:19:36Z</time></trkpt><trkpt lat="43.10779378495069" lon="11.44243685927711"><ele>134.0</ele><time>2026-04-25T09:19:37.001Z</time></trkpt><trkpt lat="43.10770341131125" lon="11.442448792445647"><ele>134.0</ele><time>2026-04-25T09:19:38.001Z</time></trkpt><trkpt lat="43.1076117600185" lon="11.442449406212392"><ele>134.0</ele><time>2026-04-25T09:19:39.001Z</time></trkpt><trkpt lat="43.10751331667524" lon="11.442435690468137"><ele>134.0</ele><time>2026-04-25T09:19:40.001Z</time></trkpt><trkpt lat="43.10741772158647" lon="11.442391609634946"><ele>134.0</ele><time>2026-04-25T09:19:41.001Z</time></trkpt><trkpt lat="43.10734803120365" lon="11.442287291719571"><ele>134.0</ele><time>2026-04-25T09:19:42.001Z</time></trkpt><trkpt lat="43.10728377006925" lon="11.442189115395905"><ele>133.5</ele><time>2026-04-25T09:19:43.001Z</time></trkpt><trkpt lat="43.107217518330444" lon="11.442091818829986"><ele>133.0</ele><time>2026-04-25T09:19:44.001Z</time></trkpt><trkpt lat="43.107157827092244" lon="11.442003553449995"><ele>132.5</ele><time>2026-04-25T09:19:45.001Z</time></trkpt><trkpt lat="43.10710205762818" lon="11.441921230370998"><ele>132.0</ele><time>2026-04-25T09:19:46.001Z</time></trkpt><trkpt lat="43.10705152362885" lon="11.441847789263889"><ele>131.5</ele><time>2026-04-25T09:19:47.001Z</time></trkpt><trkpt lat="43.10700306930678" lon="11.441779259385013"><ele>131.0</ele><time>2026-04-25T09:19:48.001Z</time></trkpt><trkpt lat="43.10694879910366" lon="11.441704640614212"><ele>131.0</ele><time>2026-04-25T09:19:49.001Z</time></trkpt><trkpt lat="43.10688137943426" lon="11.441640878174015"><ele>131.0</ele><time>2026-04-25T09:19:50.001Z</time></trkpt><trkpt lat="43.10683083085419" lon="11.441559261007532"><ele>131.0</ele><time>2026-04-25T09:19:51.001Z</time></trkpt><trkpt lat="43.10677600607067" lon="11.441485704465443"><ele>131.0</ele><time>2026-04-25T09:19:52.001Z</time></trkpt><trkpt lat="43.106724805050256" lon="11.441411672205978"><ele>131.0</ele><time>2026-04-25T09:19:53.001Z</time></trkpt><trkpt lat="43.10667005368429" lon="11.441333317808388"><ele>131.0</ele><time>2026-04-25T09:19:54.001Z</time></trkpt><trkpt lat="43.106614238047726" lon="11.441254786269011"><ele>131.0</ele><time>2026-04-25T09:19:55.001Z</time></trkpt><trkpt lat="43.106562341555424" lon="11.441184296890933"><ele>131.0</ele><time>2026-04-25T09:19:56.001Z</time></trkpt><trkpt lat="43.10651968893753" lon="11.441103769495609"><ele>131.0</ele><time>2026-04-25T09:19:57.001Z</time></trkpt><trkpt lat="43.106466656238624" lon="11.441040013954572"><ele>131.0</ele><time>2026-04-25T09:19:58.001Z</time></trkpt><trkpt lat="43.10641376688445" lon="11.4409692897578"><ele>131.0</ele><time>2026-04-25T09:19:59.001Z</time></trkpt><trkpt lat="43.106366332243894" lon="11.440902129045696"><ele>131.0</ele><time>2026-04-25T09:20:00.001Z</time></trkpt><trkpt lat="43.106319653996074" lon="11.440835215405864"><ele>131.0</ele><time>2026-04-25T09:20:01.001Z</time></trkpt><trkpt lat="43.106273091152524" lon="11.440773394244392"><ele>131.0</ele><time>2026-04-25T09:20:02.001Z</time></trkpt><trkpt lat="43.10622736543952" lon="11.440707565823445"><ele>131.0</ele><time>2026-04-25T09:20:03.001Z</time></trkpt><trkpt lat="43.106182727589704" lon="11.440643134258584"><ele>131.0</ele><time>2026-04-25T09:20:04.001Z</time></trkpt><trkpt lat="43.10610489795466" lon="11.44053364839428"><ele>131.0</ele><time>2026-04-25T09:20:06.001Z</time></trkpt><trkpt lat="43.10604483976097" lon="11.440443509490352"><ele>131.0</ele><time>2026-04-25T09:20:08.002Z</time></trkpt><trkpt lat="43.105970677861855" lon="11.440344426323252"><ele>131.0</ele><time>2026-04-25T09:20:10.002Z</time></trkpt><trkpt lat="43.10589950998915" lon="11.44024555188186"><ele>131.0</ele><time>2026-04-25T09:20:12.002Z</time></trkpt><trkpt lat="43.10582190674837" lon="11.44014114103669"><ele>131.0</ele><time>2026-04-25T09:20:14.002Z</time></trkpt><trkpt lat="43.10575376963821" lon="11.440042168437357"><ele>131.0</ele><time>2026-04-25T09:20:16.002Z</time></trkpt><trkpt lat="43.105680669758584" lon="11.439946963505468"><ele>131.0</ele><time>2026-04-25T09:20:18.002Z</time></trkpt><trkpt lat="43.105609312212174" lon="11.439859759848954"><ele>131.0</ele><time>2026-04-25T09:20:20.002Z</time></trkpt><trkpt lat="43.10555461127918" lon="11.439796493370928"><ele>130.83333333333331</ele><time>2026-04-25T09:20:22.002Z</time></trkpt><trkpt lat="43.10549129486531" lon="11.439708376339718"><ele>130.66666666666666</ele><time>2026-04-25T09:20:25.002Z</time></trkpt><trkpt lat="43.10543528325725" lon="11.439634951506296"><ele>130.5</ele><time>2026-04-25T09:20:30.002Z</time></trkpt><trkpt lat="43.10538310808125" lon="11.439565645790005"><ele>130.33333333333334</ele><time>2026-04-25T09:20:32.002Z</time></trkpt><trkpt lat="43.105309363871335" lon="11.439458420586929"><ele>130.16666666666669</ele><time>2026-04-25T09:20:34.002Z</time></trkpt><trkpt lat="43.10524913538775" lon="11.439365308558578"><ele>130.0</ele><time>2026-04-25T09:20:36.002Z</time></trkpt><trkpt lat="43.10517997135804" lon="11.43927487145503"><ele>129.83333333333334</ele><time>2026-04-25T09:20:38.002Z</time></trkpt><trkpt lat="43.10511389925572" lon="11.439119056894324"><ele>129.66666666666669</ele><time>2026-04-25T09:20:40.002Z</time></trkpt><trkpt lat="43.10506375797908" lon="11.439035909196104"><ele>129.5</ele><time>2026-04-25T09:20:41.003Z</time></trkpt><trkpt lat="43.105019069695246" lon="11.438964191613106"><ele>129.33333333333334</ele><time>2026-04-25T09:20:42.003Z</time></trkpt><trkpt lat="43.10497642161035" lon="11.43889725735326"><ele>129.16666666666666</ele><time>2026-04-25T09:20:43.003Z</time></trkpt><trkpt lat="43.10493375753996" lon="11.43883091443005"><ele>129.0</ele><time>2026-04-25T09:20:44.003Z</time></trkpt><trkpt lat="43.104888359942265" lon="11.438760969033655"><ele>129.4</ele><time>2026-04-25T09:20:45.003Z</time></trkpt><trkpt lat="43.10484401509559" lon="11.438693674959886"><ele>129.8</ele><time>2026-04-25T09:20:46.003Z</time></trkpt><trkpt lat="43.104792608189875" lon="11.438617108477981"><ele>130.2</ele><time>2026-04-25T09:20:47.003Z</time></trkpt><trkpt lat="43.104720524318225" lon="11.438515816611972"><ele>130.6</ele><time>2026-04-25T09:20:48.003Z</time></trkpt><trkpt lat="43.10463550319483" lon="11.43839811528945"><ele>131.0</ele><time>2026-04-25T09:20:49.003Z</time></trkpt><trkpt lat="43.10454428789733" lon="11.438272919682626"><ele>131.0</ele><time>2026-04-25T09:20:50.003Z</time></trkpt><trkpt lat="43.104438264752424" lon="11.438127400100651"><ele>131.0</ele><time>2026-04-25T09:20:51.003Z</time></trkpt><trkpt lat="43.10431016433072" lon="11.437977814441643"><ele>131.0</ele><time>2026-04-25T09:20:52.003Z</time></trkpt><trkpt lat="43.10417887539688" lon="11.437793079289898"><ele>131.33333333333331</ele><time>2026-04-25T09:20:53.003Z</time></trkpt><trkpt lat="43.10403197998842" lon="11.437586865834243"><ele>131.66666666666666</ele><time>2026-04-25T09:20:54.003Z</time></trkpt><trkpt lat="43.10387607853005" lon="11.437367261465393"><ele>132.0</ele><time>2026-04-25T09:20:55.003Z</time></trkpt><trkpt lat="43.10376142042632" lon="11.437178244045986"><ele>132.5</ele><time>2026-04-25T09:20:56.003Z</time></trkpt><trkpt lat="43.103657563146946" lon="11.437029937131255"><ele>133.0</ele><time>2026-04-25T09:20:57.003Z</time></trkpt><trkpt lat="43.10355709200414" lon="11.436887937148253"><ele>133.5</ele><time>2026-04-25T09:20:58.003Z</time></trkpt><trkpt lat="43.10345716818232" lon="11.4367466813373"><ele>134.0</ele><time>2026-04-25T09:20:59.003Z</time></trkpt><trkpt lat="43.10337237558084" lon="11.436626163350864"><ele>134.0</ele><time>2026-04-25T09:21:00.003Z</time></trkpt><trkpt lat="43.10329763162342" lon="11.436519927171686"><ele>134.0</ele><time>2026-04-25T09:21:01.003Z</time></trkpt><trkpt lat="43.103214179391934" lon="11.436402700329046"><ele>134.0</ele><time>2026-04-25T09:21:02.003Z</time></trkpt><trkpt lat="43.10311443179422" lon="11.436266754915005"><ele>134.0</ele><time>2026-04-25T09:21:03.003Z</time></trkpt><trkpt lat="43.102990005281036" lon="11.43610315774638"><ele>134.5</ele><time>2026-04-25T09:21:04.003Z</time></trkpt><trkpt lat="43.10287102566546" lon="11.435967531589142"><ele>135.0</ele><time>2026-04-25T09:21:05.003Z</time></trkpt><trkpt lat="43.102777376753856" lon="11.435836871735615"><ele>135.5</ele><time>2026-04-25T09:21:06.003Z</time></trkpt><trkpt lat="43.10268496983166" lon="11.435705355089143"><ele>136.0</ele><time>2026-04-25T09:21:07.003Z</time></trkpt><trkpt lat="43.102586737866915" lon="11.435566524662967"><ele>136.0</ele><time>2026-04-25T09:21:08.003Z</time></trkpt><trkpt lat="43.102503418985165" lon="11.435417360071341"><ele>136.0</ele><time>2026-04-25T09:21:09.003Z</time></trkpt><trkpt lat="43.10242043951887" lon="11.435293657688693"><ele>136.0</ele><time>2026-04-25T09:21:10.003Z</time></trkpt><trkpt lat="43.10233383923718" lon="11.435187567257874"><ele>136.0</ele><time>2026-04-25T09:21:11.003Z</time></trkpt><trkpt lat="43.102278147910994" lon="11.4350472928519"><ele>136.6</ele><time>2026-04-25T09:21:12Z</time></trkpt><trkpt lat="43.10222428604719" lon="11.434917811907829"><ele>137.2</ele><time>2026-04-25T09:21:13Z</time></trkpt><trkpt lat="43.102205173388" lon="11.434780027303477"><ele>137.8</ele><time>2026-04-25T09:21:14Z</time></trkpt><trkpt lat="43.102198721315354" lon="11.434641367392297"><ele>138.4</ele><time>2026-04-25T09:21:15Z</time></trkpt><trkpt lat="43.10221423328682" lon="11.434513957821942"><ele>139.0</ele><time>2026-04-25T09:21:16Z</time></trkpt><trkpt lat="43.10223682855736" lon="11.434378133657788"><ele>140.5</ele><time>2026-04-25T09:21:17Z</time></trkpt><trkpt lat="43.10226421301404" lon="11.434225630905152"><ele>142.0</ele><time>2026-04-25T09:21:18Z</time></trkpt><trkpt lat="43.102291634746024" lon="11.434072919810106"><ele>143.5</ele><time>2026-04-25T09:21:19Z</time></trkpt><trkpt lat="43.10231754602503" lon="11.433912544610266"><ele>145.0</ele><time>2026-04-25T09:21:20Z</time></trkpt><trkpt lat="43.102340292938194" lon="11.433757763257516"><ele>146.0</ele><time>2026-04-25T09:21:21Z</time></trkpt><trkpt lat="43.10234987969583" lon="11.4336029007813"><ele>147.0</ele><time>2026-04-25T09:21:22Z</time></trkpt><trkpt lat="43.10235302443045" lon="11.433458693349763"><ele>148.0</ele><time>2026-04-25T09:21:23Z</time></trkpt><trkpt lat="43.10234684527192" lon="11.433305952427013"><ele>149.0</ele><time>2026-04-25T09:21:24Z</time></trkpt><trkpt lat="43.102326088322066" lon="11.433151101988242"><ele>150.0</ele><time>2026-04-25T09:21:25Z</time></trkpt><trkpt lat="43.10229553177139" lon="11.43300469167574"><ele>149.33333333333334</ele><time>2026-04-25T09:21:26Z</time></trkpt><trkpt lat="43.102260947866355" lon="11.432884963807599"><ele>148.66666666666666</ele><time>2026-04-25T09:21:27Z</time></trkpt><trkpt lat="43.10222077422065" lon="11.43277994432346"><ele>148.0</ele><time>2026-04-25T09:21:28Z</time></trkpt><trkpt lat="43.10217609357372" lon="11.432693565541825"><ele>147.33333333333331</ele><time>2026-04-25T09:21:29Z</time></trkpt><trkpt lat="43.102119575261895" lon="11.43263128268064"><ele>146.66666666666666</ele><time>2026-04-25T09:21:30Z</time></trkpt><trkpt lat="43.10204710367968" lon="11.432543031480526"><ele>146.0</ele><time>2026-04-25T09:21:32Z</time></trkpt><trkpt lat="43.10199668583028" lon="11.432481635719897"><ele>146.0</ele><time>2026-04-25T09:21:42.001Z</time></trkpt><trkpt lat="43.10191911970374" lon="11.432475307915542"><ele>146.0</ele><time>2026-04-25T09:21:43.001Z</time></trkpt><trkpt lat="43.10184531833984" lon="11.432451482614454"><ele>146.0</ele><time>2026-04-25T09:21:44.001Z</time></trkpt><trkpt lat="43.101758789818184" lon="11.432456147060396"><ele>146.0</ele><time>2026-04-25T09:21:45.001Z</time></trkpt><trkpt lat="43.10166403631408" lon="11.432428335311185"><ele>146.0</ele><time>2026-04-25T09:21:46.001Z</time></trkpt><trkpt lat="43.10156457373425" lon="11.432416987862942"><ele>146.0</ele><time>2026-04-25T09:21:47.001Z</time></trkpt><trkpt lat="43.10145693712984" lon="11.432404707869608"><ele>147.2</ele><time>2026-04-25T09:21:48.001Z</time></trkpt><trkpt lat="43.10135480839754" lon="11.432395082029418"><ele>148.39999999999998</ele><time>2026-04-25T09:21:49.001Z</time></trkpt><trkpt lat="43.10124758242651" lon="11.432385640122428"><ele>149.6</ele><time>2026-04-25T09:21:50.001Z</time></trkpt><trkpt lat="43.10114945837569" lon="11.432396064455219"><ele>150.79999999999998</ele><time>2026-04-25T09:21:51.001Z</time></trkpt><trkpt lat="43.101055714145225" lon="11.432388757890893"><ele>152.0</ele><time>2026-04-25T09:21:52.001Z</time></trkpt><trkpt lat="43.100959631970156" lon="11.432361514329703"><ele>152.0</ele><time>2026-04-25T09:21:53.001Z</time></trkpt><trkpt lat="43.10087284603298" lon="11.432375002298693"><ele>152.0</ele><time>2026-04-25T09:21:54.001Z</time></trkpt><trkpt lat="43.10078561609908" lon="11.43235932212925"><ele>152.0</ele><time>2026-04-25T09:21:55.001Z</time></trkpt><trkpt lat="43.10069811887065" lon="11.432348731578498"><ele>152.0</ele><time>2026-04-25T09:21:56.001Z</time></trkpt><trkpt lat="43.10060812970638" lon="11.432341584367713"><ele>152.0</ele><time>2026-04-25T09:21:57.001Z</time></trkpt><trkpt lat="43.100514647226625" lon="11.432330095439582"><ele>152.0</ele><time>2026-04-25T09:21:58.001Z</time></trkpt><trkpt lat="43.10041834970729" lon="11.432317959877956"><ele>153.5</ele><time>2026-04-25T09:21:59.001Z</time></trkpt><trkpt lat="43.10031108487459" lon="11.432312706748203"><ele>155.0</ele><time>2026-04-25T09:22:00.001Z</time></trkpt><trkpt lat="43.10018836522649" lon="11.432303661616372"><ele>156.5</ele><time>2026-04-25T09:22:01.001Z</time></trkpt><trkpt lat="43.10007244793116" lon="11.432298704127751"><ele>158.0</ele><time>2026-04-25T09:22:02.001Z</time></trkpt><trkpt lat="43.09995384635104" lon="11.432292151295925"><ele>158.75</ele><time>2026-04-25T09:22:03.001Z</time></trkpt><trkpt lat="43.099834933214645" lon="11.432282034786608"><ele>159.5</ele><time>2026-04-25T09:22:04.001Z</time></trkpt><trkpt lat="43.099714022300574" lon="11.4322666258919"><ele>160.25</ele><time>2026-04-25T09:22:05.001Z</time></trkpt><trkpt lat="43.09958236134942" lon="11.432251670327224"><ele>161.0</ele><time>2026-04-25T09:22:06.001Z</time></trkpt><trkpt lat="43.099435387700915" lon="11.432235017982594"><ele>161.0</ele><time>2026-04-25T09:22:07.001Z</time></trkpt><trkpt lat="43.09929078842957" lon="11.432221030563918"><ele>161.0</ele><time>2026-04-25T09:22:08.001Z</time></trkpt><trkpt lat="43.09915061087628" lon="11.432212644878035"><ele>161.0</ele><time>2026-04-25T09:22:09.001Z</time></trkpt><trkpt lat="43.09901296354616" lon="11.43220062904049"><ele>161.0</ele><time>2026-04-25T09:22:10.001Z</time></trkpt><trkpt lat="43.09888562240377" lon="11.43218870639596"><ele>160.0</ele><time>2026-04-25T09:22:11.001Z</time></trkpt><trkpt lat="43.098752723589364" lon="11.4321592237545"><ele>159.0</ele><time>2026-04-25T09:22:12.001Z</time></trkpt><trkpt lat="43.0986249781826" lon="11.432111872126477"><ele>158.0</ele><time>2026-04-25T09:22:13.001Z</time></trkpt><trkpt lat="43.0985045247699" lon="11.432042628372665"><ele>157.0</ele><time>2026-04-25T09:22:14.001Z</time></trkpt><trkpt lat="43.09838115324231" lon="11.431946048455284"><ele>158.5</ele><time>2026-04-25T09:22:15.001Z</time></trkpt><trkpt lat="43.098258186957395" lon="11.431817215034263"><ele>160.0</ele><time>2026-04-25T09:22:16.001Z</time></trkpt><trkpt lat="43.09813340115363" lon="11.431708762463018"><ele>161.5</ele><time>2026-04-25T09:22:17.001Z</time></trkpt><trkpt lat="43.098011859606835" lon="11.431606390670954"><ele>163.0</ele><time>2026-04-25T09:22:18.001Z</time></trkpt><trkpt lat="43.097885299235344" lon="11.431506042841926"><ele>163.0</ele><time>2026-04-25T09:22:19.001Z</time></trkpt><trkpt lat="43.097757663045606" lon="11.431403517794179"><ele>163.0</ele><time>2026-04-25T09:22:20.002Z</time></trkpt><trkpt lat="43.09763016200111" lon="11.431296421318773"><ele>163.0</ele><time>2026-04-25T09:22:21.002Z</time></trkpt><trkpt lat="43.097500985772996" lon="11.431182861360783"><ele>164.33333333333334</ele><time>2026-04-25T09:22:22.002Z</time></trkpt><trkpt lat="43.09736845385311" lon="11.43106707529319"><ele>165.66666666666666</ele><time>2026-04-25T09:22:23.002Z</time></trkpt><trkpt lat="43.09723291881231" lon="11.430958612332393"><ele>167.0</ele><time>2026-04-25T09:22:24.002Z</time></trkpt><trkpt lat="43.09709549059734" lon="11.43085291391447"><ele>167.0</ele><time>2026-04-25T09:22:25.002Z</time></trkpt><trkpt lat="43.09697591301792" lon="11.43076258589466"><ele>167.0</ele><time>2026-04-25T09:22:26.002Z</time></trkpt><trkpt lat="43.09686200534042" lon="11.430661715599427"><ele>167.0</ele><time>2026-04-25T09:22:27.002Z</time></trkpt><trkpt lat="43.09675276968214" lon="11.430550164762408"><ele>167.0</ele><time>2026-04-25T09:22:28.002Z</time></trkpt><trkpt lat="43.09664546515693" lon="11.430432522995988"><ele>168.0</ele><time>2026-04-25T09:22:29.002Z</time></trkpt><trkpt lat="43.09654370538837" lon="11.430306063794172"><ele>169.0</ele><time>2026-04-25T09:22:30.002Z</time></trkpt><trkpt lat="43.09644268097347" lon="11.430175137768552"><ele>170.0</ele><time>2026-04-25T09:22:31.002Z</time></trkpt><trkpt lat="43.09634435656081" lon="11.430047710738211"><ele>171.0</ele><time>2026-04-25T09:22:32.002Z</time></trkpt><trkpt lat="43.096244084211804" lon="11.429918633999"><ele>171.0</ele><time>2026-04-25T09:22:33.002Z</time></trkpt><trkpt lat="43.09614481713471" lon="11.42979877818859"><ele>171.0</ele><time>2026-04-25T09:22:34.002Z</time></trkpt><trkpt lat="43.096038555593765" lon="11.429682246076009"><ele>171.0</ele><time>2026-04-25T09:22:35.002Z</time></trkpt><trkpt lat="43.095917481375196" lon="11.429587085699405"><ele>171.0</ele><time>2026-04-25T09:22:36.002Z</time></trkpt><trkpt lat="43.09579699082151" lon="11.429495954289477"><ele>173.0</ele><time>2026-04-25T09:22:37.002Z</time></trkpt><trkpt lat="43.09569725160227" lon="11.429407293936547"><ele>175.0</ele><time>2026-04-25T09:22:38.002Z</time></trkpt><trkpt lat="43.09558904719025" lon="11.429327405073272"><ele>177.0</ele><time>2026-04-25T09:22:39.002Z</time></trkpt><trkpt lat="43.09547781549775" lon="11.429248552348941"><ele>179.0</ele><time>2026-04-25T09:22:40.002Z</time></trkpt><trkpt lat="43.09537124484437" lon="11.429169435108804"><ele>179.0</ele><time>2026-04-25T09:22:41.002Z</time></trkpt><trkpt lat="43.095263798623044" lon="11.429089599519104"><ele>179.0</ele><time>2026-04-25T09:22:42.002Z</time></trkpt><trkpt lat="43.09514798118307" lon="11.42900555423552"><ele>179.0</ele><time>2026-04-25T09:22:43.002Z</time></trkpt><trkpt lat="43.09503486998665" lon="11.42892515096538"><ele>179.0</ele><time>2026-04-25T09:22:44.002Z</time></trkpt><trkpt lat="43.09491789833222" lon="11.428866367186803"><ele>180.75</ele><time>2026-04-25T09:22:45.002Z</time></trkpt><trkpt lat="43.094814694084626" lon="11.428782465908089"><ele>182.5</ele><time>2026-04-25T09:22:46.002Z</time></trkpt><trkpt lat="43.09470749202525" lon="11.428703037548926"><ele>184.25</ele><time>2026-04-25T09:22:47.002Z</time></trkpt><trkpt lat="43.094595125334834" lon="11.428631422904422"><ele>186.0</ele><time>2026-04-25T09:22:48.002Z</time></trkpt><trkpt lat="43.09448965491584" lon="11.428534910489248"><ele>186.0</ele><time>2026-04-25T09:22:49.002Z</time></trkpt><trkpt lat="43.094378564880195" lon="11.42845218432029"><ele>186.0</ele><time>2026-04-25T09:22:50.002Z</time></trkpt><trkpt lat="43.09427498187239" lon="11.428375048528766"><ele>186.0</ele><time>2026-04-25T09:22:51.002Z</time></trkpt><trkpt lat="43.094173101645296" lon="11.428299180706645"><ele>186.0</ele><time>2026-04-25T09:22:52.002Z</time></trkpt><trkpt lat="43.09406542460615" lon="11.428237448746062"><ele>186.5</ele><time>2026-04-25T09:22:53.002Z</time></trkpt><trkpt lat="43.09395354450071" lon="11.42814164089948"><ele>187.0</ele><time>2026-04-25T09:22:54.002Z</time></trkpt><trkpt lat="43.0938236353685" lon="11.428041299274174"><ele>187.5</ele><time>2026-04-25T09:22:55.002Z</time></trkpt><trkpt lat="43.09369431856262" lon="11.427960197076787"><ele>188.0</ele><time>2026-04-25T09:22:56.002Z</time></trkpt><trkpt lat="43.09357179346343" lon="11.427872843803389"><ele>188.75</ele><time>2026-04-25T09:22:57.003Z</time></trkpt><trkpt lat="43.093448399442266" lon="11.427790715909419"><ele>189.5</ele><time>2026-04-25T09:22:58.003Z</time></trkpt><trkpt lat="43.09332983878429" lon="11.427714373485662"><ele>190.25</ele><time>2026-04-25T09:22:59.003Z</time></trkpt><trkpt lat="43.09321720605248" lon="11.42762787567999"><ele>191.0</ele><time>2026-04-25T09:23:00.003Z</time></trkpt><trkpt lat="43.093097914596335" lon="11.427537686265211"><ele>191.75</ele><time>2026-04-25T09:23:01.003Z</time></trkpt><trkpt lat="43.09297757816703" lon="11.42744196234216"><ele>192.5</ele><time>2026-04-25T09:23:02.003Z</time></trkpt><trkpt lat="43.09285376538819" lon="11.42735007746878"><ele>193.25</ele><time>2026-04-25T09:23:03.003Z</time></trkpt><trkpt lat="43.0927261022629" lon="11.427258353947494"><ele>194.0</ele><time>2026-04-25T09:23:04.003Z</time></trkpt><trkpt lat="43.092598834133916" lon="11.427163466685357"><ele>195.0</ele><time>2026-04-25T09:23:05.003Z</time></trkpt><trkpt lat="43.09246711862272" lon="11.427066123210414"><ele>196.0</ele><time>2026-04-25T09:23:06.003Z</time></trkpt><trkpt lat="43.09233183340485" lon="11.426972448921784"><ele>197.0</ele><time>2026-04-25T09:23:07.003Z</time></trkpt><trkpt lat="43.09219884923778" lon="11.42687721058639"><ele>197.75</ele><time>2026-04-25T09:23:08.003Z</time></trkpt><trkpt lat="43.09206449406997" lon="11.42677958772485"><ele>198.5</ele><time>2026-04-25T09:23:09.003Z</time></trkpt><trkpt lat="43.09193457493909" lon="11.426681587359385"><ele>199.25</ele><time>2026-04-25T09:23:10.003Z</time></trkpt><trkpt lat="43.09180406660954" lon="11.426587610015126"><ele>200.0</ele><time>2026-04-25T09:23:11.003Z</time></trkpt><trkpt lat="43.09167582073168" lon="11.426494127572324"><ele>199.75</ele><time>2026-04-25T09:23:12.003Z</time></trkpt><trkpt lat="43.09155042764604" lon="11.42640315653249"><ele>199.5</ele><time>2026-04-25T09:23:13.003Z</time></trkpt><trkpt lat="43.09143095606163" lon="11.426284734865469"><ele>199.25</ele><time>2026-04-25T09:23:14.003Z</time></trkpt><trkpt lat="43.091296096547275" lon="11.426176541457584"><ele>199.0</ele><time>2026-04-25T09:23:15.003Z</time></trkpt><trkpt lat="43.09116418001996" lon="11.426082904191484"><ele>200.0</ele><time>2026-04-25T09:23:16.003Z</time></trkpt><trkpt lat="43.09102595373576" lon="11.426029585423148"><ele>201.0</ele><time>2026-04-25T09:23:17.003Z</time></trkpt><trkpt lat="43.09089219149139" lon="11.425967555825007"><ele>202.0</ele><time>2026-04-25T09:23:18Z</time></trkpt><trkpt lat="43.09074688328721" lon="11.42591507917588"><ele>203.0</ele><time>2026-04-25T09:23:19Z</time></trkpt><trkpt lat="43.090595717994994" lon="11.425873329972898"><ele>205.0</ele><time>2026-04-25T09:23:20Z</time></trkpt><trkpt lat="43.09044607403377" lon="11.425832536185782"><ele>207.0</ele><time>2026-04-25T09:23:21Z</time></trkpt><trkpt lat="43.09029335476304" lon="11.425796179603465"><ele>209.0</ele><time>2026-04-25T09:23:22Z</time></trkpt><trkpt lat="43.09000411445805" lon="11.425717946766515"><ele>210.25</ele><time>2026-04-25T09:23:24Z</time></trkpt><trkpt lat="43.08985974970683" lon="11.425679204770647"><ele>211.5</ele><time>2026-04-25T09:23:25Z</time></trkpt><trkpt lat="43.08971325795914" lon="11.425640761984898"><ele>212.75</ele><time>2026-04-25T09:23:26Z</time></trkpt><trkpt lat="43.08957254660765" lon="11.425605788307195"><ele>214.0</ele><time>2026-04-25T09:23:27Z</time></trkpt><trkpt lat="43.08943478816828" lon="11.425569210247245"><ele>214.0</ele><time>2026-04-25T09:23:28Z</time></trkpt><trkpt lat="43.08930842368198" lon="11.42553232246733"><ele>213.99999999999997</ele><time>2026-04-25T09:23:29Z</time></trkpt><trkpt lat="43.08919888657615" lon="11.425496337025985"><ele>213.99999999999997</ele><time>2026-04-25T09:23:30Z</time></trkpt><trkpt lat="43.08910657241244" lon="11.425459377370172"><ele>214.0</ele><time>2026-04-25T09:23:31Z</time></trkpt><trkpt lat="43.08904210784264" lon="11.425383678660744"><ele>214.0</ele><time>2026-04-25T09:23:32Z</time></trkpt><trkpt lat="43.088984820832955" lon="11.425304431753867"><ele>218.33333333333331</ele><time>2026-04-25T09:23:33Z</time></trkpt><trkpt lat="43.08894833755682" lon="11.42520061873906"><ele>222.66666666666666</ele><time>2026-04-25T09:23:34Z</time></trkpt><trkpt lat="43.08894633346079" lon="11.42510291570274"><ele>227.0</ele><time>2026-04-25T09:23:35Z</time></trkpt><trkpt lat="43.0889487791499" lon="11.42500359861603"><ele>231.33333333333331</ele><time>2026-04-25T09:23:36Z</time></trkpt><trkpt lat="43.0889427161647" lon="11.42490329687706"><ele>235.66666666666666</ele><time>2026-04-25T09:23:37Z</time></trkpt><trkpt lat="43.088955791693145" lon="11.424793104198576"><ele>240.0</ele><time>2026-04-25T09:23:38Z</time></trkpt><trkpt lat="43.08897855465701" lon="11.424680874456229"><ele>238.2</ele><time>2026-04-25T09:23:39Z</time></trkpt><trkpt lat="43.089000280952106" lon="11.424572501769797"><ele>236.4</ele><time>2026-04-25T09:23:40Z</time></trkpt><trkpt lat="43.08902518868365" lon="11.42443388144103"><ele>234.60000000000002</ele><time>2026-04-25T09:23:41Z</time></trkpt><trkpt lat="43.08905350557333" lon="11.42429391304686"><ele>232.8</ele><time>2026-04-25T09:23:42Z</time></trkpt><trkpt lat="43.08907378111152" lon="11.424146187039135"><ele>231.0</ele><time>2026-04-25T09:23:43Z</time></trkpt><trkpt lat="43.089102531731925" lon="11.42400261732392"><ele>231.0</ele><time>2026-04-25T09:23:44Z</time></trkpt><trkpt lat="43.08913957520168" lon="11.423872308372681"><ele>231.00000000000003</ele><time>2026-04-25T09:23:45Z</time></trkpt><trkpt lat="43.08916034584033" lon="11.423744663453544"><ele>231.00000000000003</ele><time>2026-04-25T09:23:46Z</time></trkpt><trkpt lat="43.089161428509" lon="11.423616716637817"><ele>231.0</ele><time>2026-04-25T09:23:47Z</time></trkpt><trkpt lat="43.08917089327866" lon="11.423491574654216"><ele>231.0</ele><time>2026-04-25T09:23:48Z</time></trkpt><trkpt lat="43.089190445831704" lon="11.423371239565686"><ele>232.16666666666666</ele><time>2026-04-25T09:23:49Z</time></trkpt><trkpt lat="43.089158374624695" lon="11.423252387797817"><ele>233.33333333333331</ele><time>2026-04-25T09:23:50Z</time></trkpt><trkpt lat="43.08913126344032" lon="11.423141303740632"><ele>234.5</ele><time>2026-04-25T09:23:51Z</time></trkpt><trkpt lat="43.08909061812465" lon="11.423030390932567"><ele>235.66666666666666</ele><time>2026-04-25T09:23:52Z</time></trkpt><trkpt lat="43.08904721493026" lon="11.422921580219217"><ele>236.83333333333331</ele><time>2026-04-25T09:23:53.001Z</time></trkpt><trkpt lat="43.08900815872933" lon="11.422815315903039"><ele>238.0</ele><time>2026-04-25T09:23:54.001Z</time></trkpt><trkpt lat="43.088963209715985" lon="11.422712468949635"><ele>241.8</ele><time>2026-04-25T09:23:55.001Z</time></trkpt><trkpt lat="43.088923215550906" lon="11.422608944829944"><ele>245.60000000000002</ele><time>2026-04-25T09:23:56.001Z</time></trkpt><trkpt lat="43.088843643887614" lon="11.42240371810121"><ele>249.39999999999998</ele><time>2026-04-25T09:23:58.001Z</time></trkpt><trkpt lat="43.088804905646306" lon="11.422299915386837"><ele>253.2</ele><time>2026-04-25T09:23:59.001Z</time></trkpt><trkpt lat="43.0887673636183" lon="11.422192105991904"><ele>257.0</ele><time>2026-04-25T09:24:00.001Z</time></trkpt><trkpt lat="43.08872867973544" lon="11.422089728815106"><ele>257.0</ele><time>2026-04-25T09:24:01.001Z</time></trkpt><trkpt lat="43.088686789922605" lon="11.421984934294413"><ele>257.0</ele><time>2026-04-25T09:24:02.001Z</time></trkpt><trkpt lat="43.08864553961128" lon="11.421889037485125"><ele>257.0</ele><time>2026-04-25T09:24:03.001Z</time></trkpt><trkpt lat="43.08860372202823" lon="11.421804869948035"><ele>257.0</ele><time>2026-04-25T09:24:04.001Z</time></trkpt><trkpt lat="43.088554672472505" lon="11.421749306545896"><ele>257.0</ele><time>2026-04-25T09:24:05.001Z</time></trkpt><trkpt lat="43.08844010833395" lon="11.421671966282435"><ele>257.0</ele><time>2026-04-25T09:24:07.001Z</time></trkpt><trkpt lat="43.08836663755106" lon="11.421655788097121"><ele>257.0</ele><time>2026-04-25T09:24:08.001Z</time></trkpt><trkpt lat="43.088298544338485" lon="11.421681004904173"><ele>257.0</ele><time>2026-04-25T09:24:09.001Z</time></trkpt><trkpt lat="43.088214222523" lon="11.42175650726583"><ele>257.0</ele><time>2026-04-25T09:24:11.001Z</time></trkpt><trkpt lat="43.08815963746465" lon="11.421866116576624"><ele>257.0</ele><time>2026-04-25T09:24:13.001Z</time></trkpt><trkpt lat="43.08812903295578" lon="11.421945506351552"><ele>257.0</ele><time>2026-04-25T09:24:14.001Z</time></trkpt><trkpt lat="43.088108737738196" lon="11.422034322480489"><ele>257.0</ele><time>2026-04-25T09:24:15.001Z</time></trkpt><trkpt lat="43.08808740996699" lon="11.422135725342454"><ele>261.1666666666667</ele><time>2026-04-25T09:24:16.001Z</time></trkpt><trkpt lat="43.088064267514845" lon="11.422245542664657"><ele>265.33333333333337</ele><time>2026-04-25T09:24:17.001Z</time></trkpt><trkpt lat="43.08803850191223" lon="11.422351061992059"><ele>269.5</ele><time>2026-04-25T09:24:18.001Z</time></trkpt><trkpt lat="43.088018736690394" lon="11.422449975347803"><ele>273.6666666666667</ele><time>2026-04-25T09:24:19.001Z</time></trkpt><trkpt lat="43.08798743913284" lon="11.422558592959769"><ele>277.8333333333333</ele><time>2026-04-25T09:24:20.001Z</time></trkpt><trkpt lat="43.08796209173724" lon="11.422655169445315"><ele>282.0</ele><time>2026-04-25T09:24:21.001Z</time></trkpt><trkpt lat="43.08793998997854" lon="11.422757314564905"><ele>282.0</ele><time>2026-04-25T09:24:22.001Z</time></trkpt><trkpt lat="43.08791181287383" lon="11.422868135729313"><ele>282.0</ele><time>2026-04-25T09:24:23.001Z</time></trkpt><trkpt lat="43.08788765403626" lon="11.422965448194264"><ele>282.0</ele><time>2026-04-25T09:24:24.001Z</time></trkpt><trkpt lat="43.0878537274649" lon="11.423080668928622"><ele>282.0</ele><time>2026-04-25T09:24:25.002Z</time></trkpt><trkpt lat="43.08781073065539" lon="11.423197587724381"><ele>282.0</ele><time>2026-04-25T09:24:26.002Z</time></trkpt><trkpt lat="43.087772085923135" lon="11.42330474320339"><ele>282.0</ele><time>2026-04-25T09:24:27.002Z</time></trkpt><trkpt lat="43.087722093734016" lon="11.423388388676432"><ele>282.2</ele><time>2026-04-25T09:24:28.002Z</time></trkpt><trkpt lat="43.08765528786044" lon="11.423481474549222"><ele>282.4</ele><time>2026-04-25T09:24:30.002Z</time></trkpt><trkpt lat="43.08757396559317" lon="11.423507348015967"><ele>282.6</ele><time>2026-04-25T09:24:32.002Z</time></trkpt><trkpt lat="43.08749827151715" lon="11.423413912603076"><ele>282.8</ele><time>2026-04-25T09:24:34.002Z</time></trkpt><trkpt lat="43.087456883321714" lon="11.42326506202729"><ele>283.0</ele><time>2026-04-25T09:24:36.002Z</time></trkpt><trkpt lat="43.08745653850302" lon="11.42315954546407"><ele>283.0</ele><time>2026-04-25T09:24:37.002Z</time></trkpt><trkpt lat="43.087439203959285" lon="11.423063045781245"><ele>283.0</ele><time>2026-04-25T09:24:38.002Z</time></trkpt><trkpt lat="43.08741253382203" lon="11.422916406665784"><ele>283.0</ele><time>2026-04-25T09:24:40.002Z</time></trkpt><trkpt lat="43.0873972851127" lon="11.422827341458069"><ele>283.0</ele><time>2026-04-25T09:24:41.002Z</time></trkpt><trkpt lat="43.087381456765684" lon="11.422741035164504"><ele>283.0</ele><time>2026-04-25T09:24:42.002Z</time></trkpt><trkpt lat="43.087334698925375" lon="11.422610863078393"><ele>283.0</ele><time>2026-04-25T09:24:44.002Z</time></trkpt><trkpt lat="43.0872565061541" lon="11.422567681125233"><ele>288.4</ele><time>2026-04-25T09:24:46.002Z</time></trkpt><trkpt lat="43.087185245666724" lon="11.42264483114264"><ele>293.8</ele><time>2026-04-25T09:24:48.002Z</time></trkpt><trkpt lat="43.08712180451102" lon="11.422789155640091"><ele>299.2</ele><time>2026-04-25T09:24:50.002Z</time></trkpt><trkpt lat="43.08710284760154" lon="11.422904507707475"><ele>304.6</ele><time>2026-04-25T09:24:51.002Z</time></trkpt><trkpt lat="43.087088954239505" lon="11.42300191918541"><ele>310.0</ele><time>2026-04-25T09:24:52.002Z</time></trkpt><trkpt lat="43.08708034522039" lon="11.423107714940945"><ele>310.0</ele><time>2026-04-25T09:24:53.002Z</time></trkpt><trkpt lat="43.08705936699112" lon="11.423217484532527"><ele>310.0</ele><time>2026-04-25T09:24:54.002Z</time></trkpt><trkpt lat="43.08703586396573" lon="11.423343143926553"><ele>310.0</ele><time>2026-04-25T09:24:55.002Z</time></trkpt><trkpt lat="43.08701182832338" lon="11.423448846846961"><ele>310.0</ele><time>2026-04-25T09:24:56.002Z</time></trkpt><trkpt lat="43.086992840033986" lon="11.423542207868916"><ele>310.0</ele><time>2026-04-25T09:24:57.002Z</time></trkpt><trkpt lat="43.08694379257277" lon="11.423698362870626"><ele>310.0</ele><time>2026-04-25T09:24:59.003Z</time></trkpt><trkpt lat="43.0868993323327" lon="11.423767541721945"><ele>310.0</ele><time>2026-04-25T09:25:00.003Z</time></trkpt><trkpt lat="43.086846257046915" lon="11.423826331917413"><ele>310.0</ele><time>2026-04-25T09:25:01.003Z</time></trkpt><trkpt lat="43.086785057469456" lon="11.423869294400122"><ele>310.0</ele><time>2026-04-25T09:25:02.003Z</time></trkpt><trkpt lat="43.08671642050003" lon="11.423859249923726"><ele>310.0</ele><time>2026-04-25T09:25:03.003Z</time></trkpt><trkpt lat="43.08663080890078" lon="11.423848366183064"><ele>310.0</ele><time>2026-04-25T09:25:05.003Z</time></trkpt><trkpt lat="43.086571231399205" lon="11.423814963179822"><ele>310.0</ele><time>2026-04-25T09:25:06.003Z</time></trkpt><trkpt lat="43.08646566946849" lon="11.423741169217255"><ele>313.8</ele><time>2026-04-25T09:25:08.003Z</time></trkpt><trkpt lat="43.08639535080303" lon="11.423646508656715"><ele>317.6</ele><time>2026-04-25T09:25:10.003Z</time></trkpt><trkpt lat="43.086377769098505" lon="11.42353486665396"><ele>321.4</ele><time>2026-04-25T09:25:12.003Z</time></trkpt><trkpt lat="43.086411779813794" lon="11.423389235499524"><ele>325.2</ele><time>2026-04-25T09:25:14.003Z</time></trkpt><trkpt lat="43.08646633885326" lon="11.423248997555838"><ele>329.0</ele><time>2026-04-25T09:25:16.003Z</time></trkpt><trkpt lat="43.086480498899704" lon="11.42316128221486"><ele>329.0</ele><time>2026-04-25T09:25:18.003Z</time></trkpt><trkpt lat="43.08652213647245" lon="11.423070199869242"><ele>329.0</ele><time>2026-04-25T09:25:31Z</time></trkpt><trkpt lat="43.08654495164802" lon="11.422939128224384"><ele>329.0</ele><time>2026-04-25T09:25:33Z</time></trkpt><trkpt lat="43.08653378169644" lon="11.42279701376203"><ele>329.0</ele><time>2026-04-25T09:25:35Z</time></trkpt><trkpt lat="43.086481851627624" lon="11.422674991643635"><ele>329.0</ele><time>2026-04-25T09:25:37Z</time></trkpt><trkpt lat="43.08639722566069" lon="11.422595856514526"><ele>329.0</ele><time>2026-04-25T09:25:39Z</time></trkpt><trkpt lat="43.08628844914328" lon="11.422609881706565"><ele>329.0</ele><time>2026-04-25T09:25:41Z</time></trkpt><trkpt lat="43.08619916576594" lon="11.422686084657501"><ele>329.0</ele><time>2026-04-25T09:25:43Z</time></trkpt><trkpt lat="43.086113941396476" lon="11.422839407253566"><ele>329.0</ele><time>2026-04-25T09:25:45Z</time></trkpt><trkpt lat="43.08607412000369" lon="11.422913551251915"><ele>329.0</ele><time>2026-04-25T09:25:46Z</time></trkpt><trkpt lat="43.08603497910819" lon="11.422993151283237"><ele>329.0</ele><time>2026-04-25T09:25:47Z</time></trkpt><trkpt lat="43.08598865591627" lon="11.423080213416714"><ele>329.0</ele><time>2026-04-25T09:25:48Z</time></trkpt><trkpt lat="43.085946551370924" lon="11.423156490772213"><ele>329.0</ele><time>2026-04-25T09:25:49Z</time></trkpt><trkpt lat="43.08590257194357" lon="11.423223294793686"><ele>329.0</ele><time>2026-04-25T09:25:50Z</time></trkpt><trkpt lat="43.085848852161455" lon="11.423272778377541"><ele>329.0</ele><time>2026-04-25T09:25:51Z</time></trkpt><trkpt lat="43.08578523844801" lon="11.423287553556614"><ele>329.0</ele><time>2026-04-25T09:25:52Z</time></trkpt><trkpt lat="43.08571413513344" lon="11.42326810248643"><ele>329.0</ele><time>2026-04-25T09:25:53Z</time></trkpt><trkpt lat="43.08564402245147" lon="11.423210539816525"><ele>333.0</ele><time>2026-04-25T09:25:54Z</time></trkpt><trkpt lat="43.08558810362855" lon="11.423095675980468"><ele>337.0</ele><time>2026-04-25T09:25:55Z</time></trkpt><trkpt lat="43.085544866116074" lon="11.42294259585835"><ele>341.0</ele><time>2026-04-25T09:25:56Z</time></trkpt><trkpt lat="43.08550282904378" lon="11.422763506260276"><ele>345.0</ele><time>2026-04-25T09:25:57Z</time></trkpt><trkpt lat="43.0854685670564" lon="11.422605218917003"><ele>345.8</ele><time>2026-04-25T09:25:58Z</time></trkpt><trkpt lat="43.08543287070659" lon="11.42245166184547"><ele>346.6</ele><time>2026-04-25T09:25:59Z</time></trkpt><trkpt lat="43.085398914344815" lon="11.422307019083405"><ele>347.4</ele><time>2026-04-25T09:26:00.001Z</time></trkpt><trkpt lat="43.08536181778119" lon="11.42217602457113"><ele>348.2</ele><time>2026-04-25T09:26:01.001Z</time></trkpt><trkpt lat="43.08529194804947" lon="11.422075713773857"><ele>349.0</ele><time>2026-04-25T09:26:02.001Z</time></trkpt><trkpt lat="43.08523610646466" lon="11.421970991903258"><ele>348.0</ele><time>2026-04-25T09:26:03.001Z</time></trkpt><trkpt lat="43.08516315389406" lon="11.421876471437967"><ele>347.0</ele><time>2026-04-25T09:26:04.001Z</time></trkpt><trkpt lat="43.08506902877137" lon="11.421791258150476"><ele>346.0</ele><time>2026-04-25T09:26:05.001Z</time></trkpt><trkpt lat="43.08495365769582" lon="11.42171543178594"><ele>345.0</ele><time>2026-04-25T09:26:06.001Z</time></trkpt><trkpt lat="43.08482733171507" lon="11.421654841856558"><ele>345.0</ele><time>2026-04-25T09:26:07.001Z</time></trkpt><trkpt lat="43.0846994963004" lon="11.421613943489923"><ele>345.0</ele><time>2026-04-25T09:26:08.001Z</time></trkpt><trkpt lat="43.0845610817608" lon="11.421547368584072"><ele>345.0</ele><time>2026-04-25T09:26:09.001Z</time></trkpt><trkpt lat="43.084414208528194" lon="11.421501996533422"><ele>345.0</ele><time>2026-04-25T09:26:10.001Z</time></trkpt><trkpt lat="43.08426432376188" lon="11.421408421263047"><ele>345.6666666666667</ele><time>2026-04-25T09:26:11.001Z</time></trkpt><trkpt lat="43.08413402125471" lon="11.421281818565161"><ele>346.33333333333337</ele><time>2026-04-25T09:26:12.001Z</time></trkpt><trkpt lat="43.08399500062263" lon="11.42118146319389"><ele>347.0</ele><time>2026-04-25T09:26:13.001Z</time></trkpt><trkpt lat="43.083859555086356" lon="11.421073644068239"><ele>347.0</ele><time>2026-04-25T09:26:14.001Z</time></trkpt><trkpt lat="43.08371819962707" lon="11.420986589503364"><ele>347.0</ele><time>2026-04-25T09:26:15.001Z</time></trkpt><trkpt lat="43.08357327924994" lon="11.420925372529782"><ele>347.0</ele><time>2026-04-25T09:26:16.001Z</time></trkpt><trkpt lat="43.08342784434968" lon="11.42087676076665"><ele>347.0</ele><time>2026-04-25T09:26:17.001Z</time></trkpt><trkpt lat="43.083284603054594" lon="11.420837208963821"><ele>347.0</ele><time>2026-04-25T09:26:18.001Z</time></trkpt><trkpt lat="43.08314495133261" lon="11.420768350915964"><ele>347.0</ele><time>2026-04-25T09:26:19.001Z</time></trkpt><trkpt lat="43.08299915228082" lon="11.42072219016779"><ele>347.0</ele><time>2026-04-25T09:26:20.001Z</time></trkpt><trkpt lat="43.082852946748396" lon="11.420693378880632"><ele>348.75</ele><time>2026-04-25T09:26:21.001Z</time></trkpt><trkpt lat="43.08270983446826" lon="11.42064127635207"><ele>350.5</ele><time>2026-04-25T09:26:22.001Z</time></trkpt><trkpt lat="43.0825672930229" lon="11.42059886510933"><ele>352.25</ele><time>2026-04-25T09:26:23.001Z</time></trkpt><trkpt lat="43.08242642965816" lon="11.420567013936779"><ele>354.0</ele><time>2026-04-25T09:26:24.001Z</time></trkpt><trkpt lat="43.0822739947823" lon="11.420545512647681"><ele>354.0</ele><time>2026-04-25T09:26:25.001Z</time></trkpt><trkpt lat="43.08212739253643" lon="11.42053888951814"><ele>354.0</ele><time>2026-04-25T09:26:26.001Z</time></trkpt><trkpt lat="43.081998627967714" lon="11.420539613022568"><ele>354.0</ele><time>2026-04-25T09:26:27.001Z</time></trkpt><trkpt lat="43.081871024083846" lon="11.42052754071327"><ele>354.0</ele><time>2026-04-25T09:26:28.001Z</time></trkpt><trkpt lat="43.081747355013896" lon="11.420474665205127"><ele>355.25</ele><time>2026-04-25T09:26:29.001Z</time></trkpt><trkpt lat="43.0816378996393" lon="11.420357106497839"><ele>356.5</ele><time>2026-04-25T09:26:30.001Z</time></trkpt><trkpt lat="43.0815318995642" lon="11.420238711226993"><ele>357.75</ele><time>2026-04-25T09:26:31.002Z</time></trkpt><trkpt lat="43.08143593439005" lon="11.420106062933971"><ele>359.0</ele><time>2026-04-25T09:26:32.002Z</time></trkpt><trkpt lat="43.08133195036677" lon="11.419982198208666"><ele>360.75</ele><time>2026-04-25T09:26:33.002Z</time></trkpt><trkpt lat="43.08125945769302" lon="11.419842234194538"><ele>362.5</ele><time>2026-04-25T09:26:34.002Z</time></trkpt><trkpt lat="43.08120270723176" lon="11.419722317627649"><ele>364.25</ele><time>2026-04-25T09:26:35.002Z</time></trkpt><trkpt lat="43.08112313267914" lon="11.419613396815821"><ele>366.0</ele><time>2026-04-25T09:26:36.002Z</time></trkpt><trkpt lat="43.08102346745638" lon="11.4195325756695"><ele>366.0</ele><time>2026-04-25T09:26:37.002Z</time></trkpt><trkpt lat="43.08091446257636" lon="11.419466775199318"><ele>366.0</ele><time>2026-04-25T09:26:38.002Z</time></trkpt><trkpt lat="43.080812454660645" lon="11.419418206742764"><ele>366.0</ele><time>2026-04-25T09:26:39.002Z</time></trkpt><trkpt lat="43.08072019838695" lon="11.4193875524941"><ele>366.0</ele><time>2026-04-25T09:26:40.002Z</time></trkpt><trkpt lat="43.080629759210666" lon="11.419372171043944"><ele>366.0</ele><time>2026-04-25T09:26:41.002Z</time></trkpt><trkpt lat="43.08054018320859" lon="11.419367536351928"><ele>369.1666666666667</ele><time>2026-04-25T09:26:42.002Z</time></trkpt><trkpt lat="43.0804603765791" lon="11.419321387857277"><ele>372.33333333333337</ele><time>2026-04-25T09:26:43.002Z</time></trkpt><trkpt lat="43.08038364252405" lon="11.419297515622306"><ele>375.5</ele><time>2026-04-25T09:26:44.002Z</time></trkpt><trkpt lat="43.08031664053558" lon="11.419258308704627"><ele>378.6666666666667</ele><time>2026-04-25T09:26:45.002Z</time></trkpt><trkpt lat="43.08024524606982" lon="11.41913531208087"><ele>381.83333333333337</ele><time>2026-04-25T09:26:47.002Z</time></trkpt><trkpt lat="43.080205737852154" lon="11.419055827592489"><ele>385.0</ele><time>2026-04-25T09:26:48.002Z</time></trkpt><trkpt lat="43.08014967038562" lon="11.418982647414373"><ele>385.00000000000006</ele><time>2026-04-25T09:26:49.002Z</time></trkpt><trkpt lat="43.080108468229376" lon="11.418880699545445"><ele>385.0</ele><time>2026-04-25T09:26:50.002Z</time></trkpt><trkpt lat="43.08005899224142" lon="11.418799068183628"><ele>385.0</ele><time>2026-04-25T09:26:51.002Z</time></trkpt><trkpt lat="43.080006771024486" lon="11.418719313229"><ele>385.0</ele><time>2026-04-25T09:26:52.002Z</time></trkpt><trkpt lat="43.07992774854351" lon="11.418656013378987"><ele>385.00000000000006</ele><time>2026-04-25T09:26:53.002Z</time></trkpt><trkpt lat="43.07984471237165" lon="11.418603693842613"><ele>385.0</ele><time>2026-04-25T09:26:54.002Z</time></trkpt><trkpt lat="43.07976632929315" lon="11.418559219101718"><ele>387.00000000000006</ele><time>2026-04-25T09:26:55.002Z</time></trkpt><trkpt lat="43.07968540282557" lon="11.418516335455264"><ele>389.0</ele><time>2026-04-25T09:26:56.002Z</time></trkpt><trkpt lat="43.07960380803826" lon="11.418480007405583"><ele>391.0</ele><time>2026-04-25T09:26:57.002Z</time></trkpt><trkpt lat="43.07951527684096" lon="11.418467651308218"><ele>393.0</ele><time>2026-04-25T09:26:58.002Z</time></trkpt><trkpt lat="43.07943558836879" lon="11.418422664171425"><ele>395.00000000000006</ele><time>2026-04-25T09:26:59.002Z</time></trkpt><trkpt lat="43.079348541938685" lon="11.418387945776281"><ele>397.0</ele><time>2026-04-25T09:27:00.002Z</time></trkpt><trkpt lat="43.07926864035311" lon="11.4183209417948"><ele>397.0</ele><time>2026-04-25T09:27:01.002Z</time></trkpt><trkpt lat="43.07919395249797" lon="11.418265761555611"><ele>397.0</ele><time>2026-04-25T09:27:02.002Z</time></trkpt><trkpt lat="43.07913460403879" lon="11.418232176904679"><ele>397.0</ele><time>2026-04-25T09:27:03.002Z</time></trkpt><trkpt lat="43.07907511337392" lon="11.418161468349355"><ele>397.0</ele><time>2026-04-25T09:27:04.002Z</time></trkpt><trkpt lat="43.07901920372196" lon="11.418102717714449"><ele>397.0</ele><time>2026-04-25T09:27:05.003Z</time></trkpt><trkpt lat="43.0789590983624" lon="11.418056565171968"><ele>397.0</ele><time>2026-04-25T09:27:06.003Z</time></trkpt><trkpt lat="43.07888862874198" lon="11.418009943107046"><ele>397.0</ele><time>2026-04-25T09:27:07.003Z</time></trkpt><trkpt lat="43.07880682606585" lon="11.417980292662405"><ele>396.6666666666667</ele><time>2026-04-25T09:27:08.003Z</time></trkpt><trkpt lat="43.07872882433132" lon="11.417942797241414"><ele>396.33333333333337</ele><time>2026-04-25T09:27:09.003Z</time></trkpt><trkpt lat="43.078640598272784" lon="11.417931284503899"><ele>396.0</ele><time>2026-04-25T09:27:10.003Z</time></trkpt><trkpt lat="43.07855587404622" lon="11.417942337493193"><ele>395.66666666666663</ele><time>2026-04-25T09:27:11.003Z</time></trkpt><trkpt lat="43.07847344571695" lon="11.417914500303649"><ele>395.3333333333333</ele><time>2026-04-25T09:27:12.003Z</time></trkpt><trkpt lat="43.07839137756936" lon="11.417907870209035"><ele>395.0</ele><time>2026-04-25T09:27:13.003Z</time></trkpt><trkpt lat="43.078309326612384" lon="11.417901241498164"><ele>397.3333333333333</ele><time>2026-04-25T09:27:14.003Z</time></trkpt><trkpt lat="43.07822756083687" lon="11.417895440961727"><ele>399.66666666666663</ele><time>2026-04-25T09:27:15.003Z</time></trkpt><trkpt lat="43.07814354498664" lon="11.417909376938265"><ele>402.0</ele><time>2026-04-25T09:27:16.003Z</time></trkpt><trkpt lat="43.07805976648961" lon="11.417894331568192"><ele>404.33333333333337</ele><time>2026-04-25T09:27:17.003Z</time></trkpt><trkpt lat="43.0779765697163" lon="11.417888724584042"><ele>406.6666666666667</ele><time>2026-04-25T09:27:18.003Z</time></trkpt><trkpt lat="43.07789359435628" lon="11.417884952170974"><ele>409.0</ele><time>2026-04-25T09:27:19.003Z</time></trkpt><trkpt lat="43.077811531168486" lon="11.417889885335748"><ele>409.00000000000006</ele><time>2026-04-25T09:27:20.003Z</time></trkpt><trkpt lat="43.077729339941726" lon="11.417902583430072"><ele>409.0</ele><time>2026-04-25T09:27:21.003Z</time></trkpt><trkpt lat="43.07764576023197" lon="11.417908227668534"><ele>409.0</ele><time>2026-04-25T09:27:22.003Z</time></trkpt><trkpt lat="43.07756001536207" lon="11.417900361921651"><ele>409.0</ele><time>2026-04-25T09:27:23.003Z</time></trkpt><trkpt lat="43.077471469851815" lon="11.417882147528932"><ele>409.00000000000006</ele><time>2026-04-25T09:27:24.003Z</time></trkpt><trkpt lat="43.07738056282935" lon="11.417842724881792"><ele>409.0</ele><time>2026-04-25T09:27:25.003Z</time></trkpt><trkpt lat="43.07730891275811" lon="11.41779312316418"><ele>411.57142857142856</ele><time>2026-04-25T09:27:26.003Z</time></trkpt><trkpt lat="43.07723675675691" lon="11.417737427236025"><ele>414.14285714285717</ele><time>2026-04-25T09:27:27.003Z</time></trkpt><trkpt lat="43.07717037092162" lon="11.417667457382436"><ele>416.7142857142857</ele><time>2026-04-25T09:27:28.003Z</time></trkpt><trkpt lat="43.077105477749186" lon="11.417613592038965"><ele>419.2857142857143</ele><time>2026-04-25T09:27:29.003Z</time></trkpt><trkpt lat="43.077046915583466" lon="11.41756314300491"><ele>421.8571428571429</ele><time>2026-04-25T09:27:29.999Z</time></trkpt><trkpt lat="43.076994827926974" lon="11.417514122269914"><ele>424.42857142857144</ele><time>2026-04-25T09:27:31Z</time></trkpt><trkpt lat="43.0769390296861" lon="11.417450926646012"><ele>427.0</ele><time>2026-04-25T09:27:32Z</time></trkpt><trkpt lat="43.076903591018095" lon="11.41737676436449"><ele>427.00000000000006</ele><time>2026-04-25T09:27:33Z</time></trkpt><trkpt lat="43.07688296993388" lon="11.417285923411518"><ele>427.0</ele><time>2026-04-25T09:27:34Z</time></trkpt><trkpt lat="43.07685424650346" lon="11.417186482073244"><ele>427.0</ele><time>2026-04-25T09:27:35Z</time></trkpt><trkpt lat="43.07680370320016" lon="11.417094126629843"><ele>427.0</ele><time>2026-04-25T09:27:36Z</time></trkpt><trkpt lat="43.0767696025193" lon="11.417011243747307"><ele>427.00000000000006</ele><time>2026-04-25T09:27:37Z</time></trkpt><trkpt lat="43.07672589844245" lon="11.416941904557001"><ele>427.0</ele><time>2026-04-25T09:27:38Z</time></trkpt><trkpt lat="43.07662794739708" lon="11.416873183296099"><ele>427.6</ele><time>2026-04-25T09:27:40Z</time></trkpt><trkpt lat="43.07650167014803" lon="11.416835970868812"><ele>428.20000000000005</ele><time>2026-04-25T09:27:42Z</time></trkpt><trkpt lat="43.076434983207804" lon="11.416818027975111"><ele>428.8</ele><time>2026-04-25T09:27:43Z</time></trkpt><trkpt lat="43.0763181517716" lon="11.41679127427525"><ele>429.4</ele><time>2026-04-25T09:27:45Z</time></trkpt><trkpt lat="43.07619985622937" lon="11.41675119486182"><ele>430.0</ele><time>2026-04-25T09:27:47Z</time></trkpt><trkpt lat="43.07613349427029" lon="11.416727867840757"><ele>430.00000000000006</ele><time>2026-04-25T09:27:48Z</time></trkpt><trkpt lat="43.07606053014603" lon="11.416694540590655"><ele>430.0</ele><time>2026-04-25T09:27:49Z</time></trkpt><trkpt lat="43.075989390875954" lon="11.416650439517998"><ele>430.0</ele><time>2026-04-25T09:27:50Z</time></trkpt><trkpt lat="43.075913316527426" lon="11.416596762610013"><ele>430.0</ele><time>2026-04-25T09:27:51Z</time></trkpt><trkpt lat="43.075833817633495" lon="11.416531232049334"><ele>430.00000000000006</ele><time>2026-04-25T09:27:52Z</time></trkpt><trkpt lat="43.07574449005245" lon="11.416441128511806"><ele>430.0</ele><time>2026-04-25T09:27:53Z</time></trkpt><trkpt lat="43.07563654391621" lon="11.41637493372179"><ele>431.0</ele><time>2026-04-25T09:27:54Z</time></trkpt><trkpt lat="43.07554778833956" lon="11.416290969227987"><ele>432.0</ele><time>2026-04-25T09:27:55Z</time></trkpt><trkpt lat="43.07545181981088" lon="11.416217727235342"><ele>433.0</ele><time>2026-04-25T09:27:56Z</time></trkpt><trkpt lat="43.075352534868784" lon="11.416141671059302"><ele>434.0</ele><time>2026-04-25T09:27:57Z</time></trkpt><trkpt lat="43.075251249439596" lon="11.416069973985376"><ele>435.0</ele><time>2026-04-25T09:27:58Z</time></trkpt><trkpt lat="43.07515061522916" lon="11.41600068343815"><ele>435.0</ele><time>2026-04-25T09:27:59Z</time></trkpt><trkpt lat="43.07506244834314" lon="11.415945430336157"><ele>435.0</ele><time>2026-04-25T09:28:00Z</time></trkpt><trkpt lat="43.07497550065262" lon="11.415893054088698"><ele>435.0</ele><time>2026-04-25T09:28:01.001Z</time></trkpt><trkpt lat="43.074892672651615" lon="11.41585281411209"><ele>435.0</ele><time>2026-04-25T09:28:02.001Z</time></trkpt><trkpt lat="43.074805342385815" lon="11.415818748173837"><ele>435.0</ele><time>2026-04-25T09:28:03.001Z</time></trkpt><trkpt lat="43.07471299209782" lon="11.41579292862317"><ele>435.8333333333333</ele><time>2026-04-25T09:28:04.001Z</time></trkpt><trkpt lat="43.07463030546169" lon="11.415771764143988"><ele>436.66666666666663</ele><time>2026-04-25T09:28:05.001Z</time></trkpt><trkpt lat="43.074558166738136" lon="11.415739795236458"><ele>437.5</ele><time>2026-04-25T09:28:06.001Z</time></trkpt><trkpt lat="43.074497269506224" lon="11.41571672633531"><ele>438.3333333333333</ele><time>2026-04-25T09:28:07.001Z</time></trkpt><trkpt lat="43.07440068077772" lon="11.415638215289391"><ele>439.16666666666663</ele><time>2026-04-25T09:28:09.001Z</time></trkpt><trkpt lat="43.07435629085197" lon="11.415504140083991"><ele>440.0</ele><time>2026-04-25T09:28:11.001Z</time></trkpt><trkpt lat="43.07434019784851" lon="11.41532589025114"><ele>441.66666666666663</ele><time>2026-04-25T09:28:13.001Z</time></trkpt><trkpt lat="43.0743418984943" lon="11.415213460234412"><ele>443.3333333333333</ele><time>2026-04-25T09:28:14.001Z</time></trkpt><trkpt lat="43.07433228737097" lon="11.415102091203998"><ele>445.0</ele><time>2026-04-25T09:28:15.001Z</time></trkpt><trkpt lat="43.07433011192025" lon="11.414987519483391"><ele>446.66666666666663</ele><time>2026-04-25T09:28:16.001Z</time></trkpt><trkpt lat="43.07430977827429" lon="11.414891851011118"><ele>448.3333333333333</ele><time>2026-04-25T09:28:17.001Z</time></trkpt><trkpt lat="43.07428418711038" lon="11.414798608134847"><ele>450.0</ele><time>2026-04-25T09:28:18.001Z</time></trkpt><trkpt lat="43.07426392121036" lon="11.414709852002742"><ele>451.4</ele><time>2026-04-25T09:28:19.001Z</time></trkpt><trkpt lat="43.0742404159373" lon="11.414623022585179"><ele>452.8</ele><time>2026-04-25T09:28:20.001Z</time></trkpt><trkpt lat="43.074205913468866" lon="11.414544471788519"><ele>454.20000000000005</ele><time>2026-04-25T09:28:21.001Z</time></trkpt><trkpt lat="43.0741210848911" lon="11.414421511294938"><ele>455.6</ele><time>2026-04-25T09:28:23.001Z</time></trkpt><trkpt lat="43.07400371442732" lon="11.414365538210564"><ele>457.0</ele><time>2026-04-25T09:28:25.001Z</time></trkpt><trkpt lat="43.07392124973672" lon="11.414354422713824"><ele>459.20000000000005</ele><time>2026-04-25T09:28:26.001Z</time></trkpt><trkpt lat="43.07382776213447" lon="11.414343110429988"><ele>461.40000000000003</ele><time>2026-04-25T09:28:27.001Z</time></trkpt><trkpt lat="43.073735828701096" lon="11.414340063641514"><ele>463.59999999999997</ele><time>2026-04-25T09:28:28.001Z</time></trkpt><trkpt lat="43.073629569820724" lon="11.414337374212524"><ele>465.79999999999995</ele><time>2026-04-25T09:28:29.001Z</time></trkpt><trkpt lat="43.07352344331603" lon="11.414324124969754"><ele>468.0</ele><time>2026-04-25T09:28:30.001Z</time></trkpt><trkpt lat="43.07341183032467" lon="11.4142913538172"><ele>468.0</ele><time>2026-04-25T09:28:31.001Z</time></trkpt><trkpt lat="43.07330183219255" lon="11.414256272147862"><ele>468.0</ele><time>2026-04-25T09:28:32.001Z</time></trkpt><trkpt lat="43.07318786362604" lon="11.41422954850645"><ele>468.0</ele><time>2026-04-25T09:28:33.002Z</time></trkpt><trkpt lat="43.07307040750656" lon="11.414244155738297"><ele>468.0</ele><time>2026-04-25T09:28:34.002Z</time></trkpt><trkpt lat="43.072939755366406" lon="11.414249232037525"><ele>469.79999999999995</ele><time>2026-04-25T09:28:35.002Z</time></trkpt><trkpt lat="43.0728249081194" lon="11.41426602557106"><ele>471.59999999999997</ele><time>2026-04-25T09:28:36.002Z</time></trkpt><trkpt lat="43.07272710116073" lon="11.414271364798587"><ele>473.40000000000003</ele><time>2026-04-25T09:28:37.002Z</time></trkpt><trkpt lat="43.07262905819202" lon="11.4142581615946"><ele>475.20000000000005</ele><time>2026-04-25T09:28:38.002Z</time></trkpt><trkpt lat="43.07253432405967" lon="11.414223634217636"><ele>477.0</ele><time>2026-04-25T09:28:39.002Z</time></trkpt><trkpt lat="43.072444401415865" lon="11.414154589971856"><ele>476.6</ele><time>2026-04-25T09:28:40.002Z</time></trkpt><trkpt lat="43.07235664168199" lon="11.414098379698748"><ele>476.20000000000005</ele><time>2026-04-25T09:28:41.002Z</time></trkpt><trkpt lat="43.07227792868772" lon="11.414037844816818"><ele>475.8</ele><time>2026-04-25T09:28:42.002Z</time></trkpt><trkpt lat="43.07219828014423" lon="11.413977134602709"><ele>475.4</ele><time>2026-04-25T09:28:43.002Z</time></trkpt><trkpt lat="43.07212020963765" lon="11.413923470656313"><ele>475.0</ele><time>2026-04-25T09:28:44.002Z</time></trkpt><trkpt lat="43.07202765250907" lon="11.41387792659693"><ele>475.00000000000006</ele><time>2026-04-25T09:28:45.002Z</time></trkpt><trkpt lat="43.07192993379584" lon="11.413885439948617"><ele>475.0</ele><time>2026-04-25T09:28:46.002Z</time></trkpt><trkpt lat="43.071851432442855" lon="11.413856870987562"><ele>475.0</ele><time>2026-04-25T09:28:47.002Z</time></trkpt><trkpt lat="43.07178858830929" lon="11.413788823417674"><ele>475.0</ele><time>2026-04-25T09:28:48.002Z</time></trkpt><trkpt lat="43.07171616186651" lon="11.41373634045435"><ele>475.00000000000006</ele><time>2026-04-25T09:28:49.002Z</time></trkpt><trkpt lat="43.07165129042974" lon="11.413685957808962"><ele>475.0</ele><time>2026-04-25T09:28:50.002Z</time></trkpt><trkpt lat="43.071577710508755" lon="11.413646885750174"><ele>476.83333333333337</ele><time>2026-04-25T09:28:51.002Z</time></trkpt><trkpt lat="43.07151076548408" lon="11.413566005971884"><ele>478.6666666666667</ele><time>2026-04-25T09:28:52.002Z</time></trkpt><trkpt lat="43.071430971493605" lon="11.413517827996658"><ele>480.5</ele><time>2026-04-25T09:28:53.002Z</time></trkpt><trkpt lat="43.071350893140206" lon="11.413493919990744"><ele>482.33333333333337</ele><time>2026-04-25T09:28:54.002Z</time></trkpt><trkpt lat="43.071267011460336" lon="11.413539632097985"><ele>484.1666666666667</ele><time>2026-04-25T09:28:55.002Z</time></trkpt><trkpt lat="43.071194166192036" lon="11.413571245103995"><ele>486.0</ele><time>2026-04-25T09:28:56.002Z</time></trkpt><trkpt lat="43.07111456468504" lon="11.413612181195397"><ele>486.0</ele><time>2026-04-25T09:28:57.002Z</time></trkpt><trkpt lat="43.071033059600836" lon="11.413586420012072"><ele>486.0</ele><time>2026-04-25T09:28:58.002Z</time></trkpt><trkpt lat="43.070954937528924" lon="11.41359157523063"><ele>486.0</ele><time>2026-04-25T09:28:59.002Z</time></trkpt><trkpt lat="43.070887487132566" lon="11.413504670364182"><ele>486.0</ele><time>2026-04-25T09:29:00.002Z</time></trkpt><trkpt lat="43.070830120917" lon="11.413422512240293"><ele>486.0</ele><time>2026-04-25T09:29:01.002Z</time></trkpt><trkpt lat="43.070762607324646" lon="11.413334377777925"><ele>486.0</ele><time>2026-04-25T09:29:02.002Z</time></trkpt><trkpt lat="43.070692492633846" lon="11.41324479882423"><ele>487.8</ele><time>2026-04-25T09:29:03.002Z</time></trkpt><trkpt lat="43.070619380667765" lon="11.413152665716433"><ele>489.6</ele><time>2026-04-25T09:29:04.002Z</time></trkpt><trkpt lat="43.0705464165079" lon="11.413060956809298"><ele>491.4</ele><time>2026-04-25T09:29:05.002Z</time></trkpt><trkpt lat="43.070473580774426" lon="11.41297678606328"><ele>493.2</ele><time>2026-04-25T09:29:06.003Z</time></trkpt><trkpt lat="43.070406214380114" lon="11.412909907987846"><ele>495.0</ele><time>2026-04-25T09:29:07.003Z</time></trkpt><trkpt lat="43.07033451182386" lon="11.412865815141368"><ele>495.0</ele><time>2026-04-25T09:29:08.003Z</time></trkpt><trkpt lat="43.070268303897976" lon="11.412840627808974"><ele>495.0</ele><time>2026-04-25T09:29:09.003Z</time></trkpt><trkpt lat="43.07018041620454" lon="11.412888834977739"><ele>495.0</ele><time>2026-04-25T09:29:10.003Z</time></trkpt><trkpt lat="43.07012057705383" lon="11.412957016361865"><ele>495.0</ele><time>2026-04-25T09:29:11.003Z</time></trkpt><trkpt lat="43.07008864648154" lon="11.413082138398513"><ele>495.0</ele><time>2026-04-25T09:29:12.003Z</time></trkpt><trkpt lat="43.07006009241116" lon="11.413193777134163"><ele>495.0</ele><time>2026-04-25T09:29:13.003Z</time></trkpt><trkpt lat="43.07002926981616" lon="11.413302448434338"><ele>495.0</ele><time>2026-04-25T09:29:14.003Z</time></trkpt><trkpt lat="43.0699906795252" lon="11.413407295629582"><ele>495.0</ele><time>2026-04-25T09:29:15.003Z</time></trkpt><trkpt lat="43.069963003973996" lon="11.413511036581621"><ele>495.0</ele><time>2026-04-25T09:29:16.003Z</time></trkpt><trkpt lat="43.069955020879924" lon="11.413619755080699"><ele>495.0</ele><time>2026-04-25T09:29:17.003Z</time></trkpt><trkpt lat="43.069964741058925" lon="11.413742619279263"><ele>495.0</ele><time>2026-04-25T09:29:18.003Z</time></trkpt><trkpt lat="43.069985819044085" lon="11.413887649718744"><ele>495.0</ele><time>2026-04-25T09:29:19.003Z</time></trkpt><trkpt lat="43.070005097144474" lon="11.414054776026523"><ele>494.8</ele><time>2026-04-25T09:29:20.003Z</time></trkpt><trkpt lat="43.07001233954638" lon="11.414193965717311"><ele>494.6</ele><time>2026-04-25T09:29:21.003Z</time></trkpt><trkpt lat="43.070008392793376" lon="11.414324620025056"><ele>494.4</ele><time>2026-04-25T09:29:22.003Z</time></trkpt><trkpt lat="43.0699932107825" lon="11.414460915509867"><ele>494.2</ele><time>2026-04-25T09:29:23.003Z</time></trkpt><trkpt lat="43.06996114508744" lon="11.414592563759328"><ele>494.0</ele><time>2026-04-25T09:29:24.003Z</time></trkpt><trkpt lat="43.06990151329403" lon="11.414700772079618"><ele>495.0</ele><time>2026-04-25T09:29:25.003Z</time></trkpt><trkpt lat="43.06985757117313" lon="11.414821608427305"><ele>496.0</ele><time>2026-04-25T09:29:26.003Z</time></trkpt><trkpt lat="43.069798568591615" lon="11.414910114859472"><ele>497.0</ele><time>2026-04-25T09:29:27.003Z</time></trkpt><trkpt lat="43.06972734349893" lon="11.414975629617125"><ele>498.0</ele><time>2026-04-25T09:29:28.003Z</time></trkpt><trkpt lat="43.06963978358136" lon="11.415037432105796"><ele>499.0</ele><time>2026-04-25T09:29:29.003Z</time></trkpt><trkpt lat="43.06954384272482" lon="11.415094817468303"><ele>499.0</ele><time>2026-04-25T09:29:30.003Z</time></trkpt><trkpt lat="43.0694460730579" lon="11.415163786857056"><ele>499.0</ele><time>2026-04-25T09:29:31.003Z</time></trkpt><trkpt lat="43.06935095391274" lon="11.415247214445767"><ele>499.0</ele><time>2026-04-25T09:29:32.003Z</time></trkpt><trkpt lat="43.06926237420725" lon="11.415343350717539"><ele>499.0</ele><time>2026-04-25T09:29:33.003Z</time></trkpt><trkpt lat="43.06917869742402" lon="11.41542557224277"><ele>499.0</ele><time>2026-04-25T09:29:34.003Z</time></trkpt><trkpt lat="43.069087613973004" lon="11.415488343423497"><ele>496.25</ele><time>2026-04-25T09:29:35.003Z</time></trkpt><trkpt lat="43.06898814550219" lon="11.415534828276218"><ele>493.5</ele><time>2026-04-25T09:29:36Z</time></trkpt><trkpt lat="43.068872700332314" lon="11.415534099595838"><ele>490.75</ele><time>2026-04-25T09:29:37Z</time></trkpt><trkpt lat="43.068753274953934" lon="11.415557375448262"><ele>488.0</ele><time>2026-04-25T09:29:38Z</time></trkpt><trkpt lat="43.06864571127903" lon="11.415631114221654"><ele>488.0</ele><time>2026-04-25T09:29:39Z</time></trkpt><trkpt lat="43.06854152583522" lon="11.415698402784018"><ele>488.0</ele><time>2026-04-25T09:29:40Z</time></trkpt><trkpt lat="43.068445226739705" lon="11.415797106842977"><ele>488.0</ele><time>2026-04-25T09:29:41Z</time></trkpt><trkpt lat="43.06834458306504" lon="11.41592718346674"><ele>488.0</ele><time>2026-04-25T09:29:42Z</time></trkpt><trkpt lat="43.06824056922037" lon="11.416057920100108"><ele>487.75</ele><time>2026-04-25T09:29:43Z</time></trkpt><trkpt lat="43.068134538014306" lon="11.416172944733443"><ele>487.5</ele><time>2026-04-25T09:29:44Z</time></trkpt><trkpt lat="43.0680304122585" lon="11.416263082491472"><ele>487.25</ele><time>2026-04-25T09:29:45Z</time></trkpt><trkpt lat="43.06792189759763" lon="11.416316534854808"><ele>487.0</ele><time>2026-04-25T09:29:46Z</time></trkpt><trkpt lat="43.067839540186505" lon="11.416397510507"><ele>488.6666666666667</ele><time>2026-04-25T09:29:47Z</time></trkpt><trkpt lat="43.06776754691638" lon="11.416456513888907"><ele>490.33333333333337</ele><time>2026-04-25T09:29:48Z</time></trkpt><trkpt lat="43.0677143094449" lon="11.416542884203162"><ele>492.0</ele><time>2026-04-25T09:29:49Z</time></trkpt><trkpt lat="43.067677655363795" lon="11.416652989540372"><ele>493.66666666666663</ele><time>2026-04-25T09:29:50Z</time></trkpt><trkpt lat="43.067656411672246" lon="11.416772593098964"><ele>495.3333333333333</ele><time>2026-04-25T09:29:51Z</time></trkpt><trkpt lat="43.06762970677563" lon="11.416908960651893"><ele>497.0</ele><time>2026-04-25T09:29:52Z</time></trkpt><trkpt lat="43.06758285291132" lon="11.41703894469085"><ele>496.40000000000003</ele><time>2026-04-25T09:29:53Z</time></trkpt><trkpt lat="43.067515671999615" lon="11.417166531669528"><ele>495.80000000000007</ele><time>2026-04-25T09:29:54Z</time></trkpt><trkpt lat="43.067438701703736" lon="11.417293696130512"><ele>495.2</ele><time>2026-04-25T09:29:55Z</time></trkpt><trkpt lat="43.06736462039525" lon="11.417399286926406"><ele>494.6</ele><time>2026-04-25T09:29:56Z</time></trkpt><trkpt lat="43.06729036623718" lon="11.417488464375277"><ele>494.0</ele><time>2026-04-25T09:29:57Z</time></trkpt><trkpt lat="43.06719320813249" lon="11.417531422711466"><ele>496.0</ele><time>2026-04-25T09:29:58Z</time></trkpt><trkpt lat="43.06709855262631" lon="11.417566729301765"><ele>498.0</ele><time>2026-04-25T09:29:59Z</time></trkpt><trkpt lat="43.066992622744294" lon="11.417595946370769"><ele>500.0</ele><time>2026-04-25T09:30:00Z</time></trkpt><trkpt lat="43.06689203856038" lon="11.417637728664793"><ele>502.0</ele><time>2026-04-25T09:30:01Z</time></trkpt><trkpt lat="43.06681525351401" lon="11.417714811701668"><ele>504.0</ele><time>2026-04-25T09:30:02Z</time></trkpt><trkpt lat="43.066750919663235" lon="11.417782260622154"><ele>504.0</ele><time>2026-04-25T09:30:03Z</time></trkpt><trkpt lat="43.0667059012362" lon="11.417882586397697"><ele>504.0</ele><time>2026-04-25T09:30:04Z</time></trkpt><trkpt lat="43.06666520988648" lon="11.41802144821319"><ele>504.0</ele><time>2026-04-25T09:30:05.001Z</time></trkpt><trkpt lat="43.06662331009265" lon="11.41818889179784"><ele>504.0</ele><time>2026-04-25T09:30:06.001Z</time></trkpt><trkpt lat="43.06658319924463" lon="11.418368734507428"><ele>500.0</ele><time>2026-04-25T09:30:07.001Z</time></trkpt><trkpt lat="43.06655119293503" lon="11.418562576335821"><ele>496.0</ele><time>2026-04-25T09:30:08.001Z</time></trkpt><trkpt lat="43.06653154302506" lon="11.418748904435395"><ele>492.0</ele><time>2026-04-25T09:30:09.001Z</time></trkpt><trkpt lat="43.06652613560575" lon="11.418926044588858"><ele>488.0</ele><time>2026-04-25T09:30:10.001Z</time></trkpt><trkpt lat="43.06652707285514" lon="11.419084667841627"><ele>487.25</ele><time>2026-04-25T09:30:11.001Z</time></trkpt><trkpt lat="43.06653620209522" lon="11.419240449631785"><ele>486.5</ele><time>2026-04-25T09:30:12.001Z</time></trkpt><trkpt lat="43.06654785691858" lon="11.419412272666424"><ele>485.75</ele><time>2026-04-25T09:30:13.001Z</time></trkpt><trkpt lat="43.06655530157991" lon="11.419569255017224"><ele>485.0</ele><time>2026-04-25T09:30:14.001Z</time></trkpt><trkpt lat="43.0665575869626" lon="11.41971304383366"><ele>485.0</ele><time>2026-04-25T09:30:15.001Z</time></trkpt><trkpt lat="43.066554330566504" lon="11.419852686536105"><ele>485.0</ele><time>2026-04-25T09:30:16.001Z</time></trkpt><trkpt lat="43.0665171713455" lon="11.41997793362998"><ele>485.0</ele><time>2026-04-25T09:30:17.001Z</time></trkpt><trkpt lat="43.06646622980263" lon="11.420096104156992"><ele>485.0</ele><time>2026-04-25T09:30:18.001Z</time></trkpt><trkpt lat="43.0663960302096" lon="11.420211641793056"><ele>485.0</ele><time>2026-04-25T09:30:19.001Z</time></trkpt><trkpt lat="43.06632587628073" lon="11.420344014741735"><ele>486.75</ele><time>2026-04-25T09:30:20.001Z</time></trkpt><trkpt lat="43.06627651531372" lon="11.420503476862466"><ele>488.5</ele><time>2026-04-25T09:30:21.001Z</time></trkpt><trkpt lat="43.06620098361036" lon="11.420651758582158"><ele>490.25</ele><time>2026-04-25T09:30:22.001Z</time></trkpt><trkpt lat="43.066112246365144" lon="11.420810639808959"><ele>492.0</ele><time>2026-04-25T09:30:23.001Z</time></trkpt><trkpt lat="43.06603830417557" lon="11.420967395124084"><ele>492.0</ele><time>2026-04-25T09:30:24.001Z</time></trkpt><trkpt lat="43.065959672297815" lon="11.421107080460768"><ele>492.0</ele><time>2026-04-25T09:30:25.001Z</time></trkpt><trkpt lat="43.065885711027505" lon="11.421235141668054"><ele>492.0</ele><time>2026-04-25T09:30:26.001Z</time></trkpt><trkpt lat="43.06580635794981" lon="11.42136508392221"><ele>492.0</ele><time>2026-04-25T09:30:27.001Z</time></trkpt><trkpt lat="43.065743484095385" lon="11.421503192974948"><ele>490.8</ele><time>2026-04-25T09:30:28.001Z</time></trkpt><trkpt lat="43.065681125936095" lon="11.421630733479148"><ele>489.6</ele><time>2026-04-25T09:30:29.001Z</time></trkpt><trkpt lat="43.06561849749502" lon="11.421742545954322"><ele>488.40000000000003</ele><time>2026-04-25T09:30:30.001Z</time></trkpt><trkpt lat="43.06554616098865" lon="11.42183316028149"><ele>487.20000000000005</ele><time>2026-04-25T09:30:31.001Z</time></trkpt><trkpt lat="43.0654678451211" lon="11.421900436046904"><ele>486.0</ele><time>2026-04-25T09:30:32.001Z</time></trkpt><trkpt lat="43.06539765350025" lon="11.421962817920887"><ele>486.0</ele><time>2026-04-25T09:30:33.001Z</time></trkpt><trkpt lat="43.0653274624725" lon="11.42203239982313"><ele>486.0</ele><time>2026-04-25T09:30:34.001Z</time></trkpt><trkpt lat="43.06525843924873" lon="11.422098614411803"><ele>486.0</ele><time>2026-04-25T09:30:35.001Z</time></trkpt><trkpt lat="43.06518431416668" lon="11.422158302728539"><ele>486.0</ele><time>2026-04-25T09:30:36.001Z</time></trkpt><trkpt lat="43.065105919570485" lon="11.422196982744376"><ele>486.0</ele><time>2026-04-25T09:30:37.001Z</time></trkpt><trkpt lat="43.0650217499127" lon="11.42221817137032"><ele>486.0</ele><time>2026-04-25T09:30:38.001Z</time></trkpt><trkpt lat="43.06492178913647" lon="11.422203097642893"><ele>486.0</ele><time>2026-04-25T09:30:39.001Z</time></trkpt><trkpt lat="43.064819940655624" lon="11.422203804218723"><ele>486.0</ele><time>2026-04-25T09:30:40.001Z</time></trkpt><trkpt lat="43.06471803112062" lon="11.422201574061129"><ele>486.0</ele><time>2026-04-25T09:30:41.001Z</time></trkpt><trkpt lat="43.06462054800411" lon="11.42219148933781"><ele>486.0</ele><time>2026-04-25T09:30:42.001Z</time></trkpt><trkpt lat="43.06451142344009" lon="11.422165403517242"><ele>486.0</ele><time>2026-04-25T09:30:43.002Z</time></trkpt><trkpt lat="43.06440607921123" lon="11.422125346996918"><ele>484.6</ele><time>2026-04-25T09:30:44.002Z</time></trkpt><trkpt lat="43.06430563550957" lon="11.422082534487418"><ele>483.20000000000005</ele><time>2026-04-25T09:30:45.002Z</time></trkpt><trkpt lat="43.064211054494756" lon="11.42203691625927"><ele>481.79999999999995</ele><time>2026-04-25T09:30:46.002Z</time></trkpt><trkpt lat="43.06411717829667" lon="11.42199046843209"><ele>480.4</ele><time>2026-04-25T09:30:47.002Z</time></trkpt><trkpt lat="43.06403768833076" lon="11.421948222745621"><ele>479.0</ele><time>2026-04-25T09:30:48.002Z</time></trkpt><trkpt lat="43.063961961240274" lon="11.421925227585856"><ele>477.8333333333333</ele><time>2026-04-25T09:30:49.002Z</time></trkpt><trkpt lat="43.06387699586896" lon="11.421950144643416"><ele>476.66666666666663</ele><time>2026-04-25T09:30:50.002Z</time></trkpt><trkpt lat="43.06379182622224" lon="11.42196862569262"><ele>475.5</ele><time>2026-04-25T09:30:51.002Z</time></trkpt><trkpt lat="43.063693179159586" lon="11.421967952493986"><ele>474.33333333333337</ele><time>2026-04-25T09:30:52.002Z</time></trkpt><trkpt lat="43.063605069593045" lon="11.421987430566286"><ele>473.1666666666667</ele><time>2026-04-25T09:30:53.002Z</time></trkpt><trkpt lat="43.06353901519233" lon="11.422038006411547"><ele>472.0</ele><time>2026-04-25T09:30:54.002Z</time></trkpt><trkpt lat="43.063461276553" lon="11.422140227424865"><ele>472.00000000000006</ele><time>2026-04-25T09:30:56.002Z</time></trkpt><trkpt lat="43.06345711473324" lon="11.422270115260893"><ele>472.0</ele><time>2026-04-25T09:30:58.002Z</time></trkpt><trkpt lat="43.0634853798593" lon="11.422434200987688"><ele>472.0</ele><time>2026-04-25T09:31:00.002Z</time></trkpt><trkpt lat="43.063515985058544" lon="11.422516276311159"><ele>472.0</ele><time>2026-04-25T09:31:01.002Z</time></trkpt><trkpt lat="43.06354334555496" lon="11.422614027447231"><ele>472.00000000000006</ele><time>2026-04-25T09:31:02.002Z</time></trkpt><trkpt lat="43.063553955569674" lon="11.42272041683687"><ele>472.0</ele><time>2026-04-25T09:31:03.002Z</time></trkpt><trkpt lat="43.06354855343176" lon="11.42282949052632"><ele>472.0</ele><time>2026-04-25T09:31:04.002Z</time></trkpt><trkpt lat="43.06351509287825" lon="11.42294747010098"><ele>472.00000000000006</ele><time>2026-04-25T09:31:05.002Z</time></trkpt><trkpt lat="43.06344329770015" lon="11.423060637174705"><ele>472.00000000000006</ele><time>2026-04-25T09:31:06.002Z</time></trkpt><trkpt lat="43.06340206846156" lon="11.423188356573657"><ele>472.0</ele><time>2026-04-25T09:31:07.002Z</time></trkpt><trkpt lat="43.06335557544164" lon="11.423300610516584"><ele>472.0</ele><time>2026-04-25T09:31:08.002Z</time></trkpt><trkpt lat="43.063328429267294" lon="11.423413488815827"><ele>471.50000000000006</ele><time>2026-04-25T09:31:09.002Z</time></trkpt><trkpt lat="43.063317513806105" lon="11.423534245924058"><ele>471.0</ele><time>2026-04-25T09:31:10.002Z</time></trkpt><trkpt lat="43.06332638332948" lon="11.423648628897038"><ele>470.5</ele><time>2026-04-25T09:31:11.002Z</time></trkpt><trkpt lat="43.06335051953472" lon="11.423761545201275"><ele>470.0</ele><time>2026-04-25T09:31:12.002Z</time></trkpt><trkpt lat="43.06337634680813" lon="11.423873274638105"><ele>469.50000000000006</ele><time>2026-04-25T09:31:13.002Z</time></trkpt><trkpt lat="43.063389706211076" lon="11.423981483007195"><ele>469.0</ele><time>2026-04-25T09:31:14.002Z</time></trkpt><trkpt lat="43.063392302089895" lon="11.42408193046873"><ele>468.2</ele><time>2026-04-25T09:31:15.002Z</time></trkpt><trkpt lat="43.06337477857292" lon="11.424184421280614"><ele>467.4</ele><time>2026-04-25T09:31:16.002Z</time></trkpt><trkpt lat="43.063315545988935" lon="11.42429823281383"><ele>466.6</ele><time>2026-04-25T09:31:17.002Z</time></trkpt><trkpt lat="43.06326939287556" lon="11.424452850347498"><ele>465.8</ele><time>2026-04-25T09:31:18.002Z</time></trkpt><trkpt lat="43.06325304268228" lon="11.42463129803575"><ele>465.0</ele><time>2026-04-25T09:31:19.003Z</time></trkpt><trkpt lat="43.06322763836409" lon="11.424798492582921"><ele>464.4</ele><time>2026-04-25T09:31:20.003Z</time></trkpt><trkpt lat="43.063205586663685" lon="11.424944100422165"><ele>463.8</ele><time>2026-04-25T09:31:21.003Z</time></trkpt><trkpt lat="43.06317151517026" lon="11.425079401031374"><ele>463.20000000000005</ele><time>2026-04-25T09:31:22.003Z</time></trkpt><trkpt lat="43.06311911470661" lon="11.425203313799864"><ele>462.6</ele><time>2026-04-25T09:31:23.003Z</time></trkpt><trkpt lat="43.06304565100677" lon="11.425321757175645"><ele>462.0</ele><time>2026-04-25T09:31:24.003Z</time></trkpt><trkpt lat="43.062971322470716" lon="11.42543778087095"><ele>462.8</ele><time>2026-04-25T09:31:25.003Z</time></trkpt><trkpt lat="43.06290442894565" lon="11.425553440430932"><ele>463.6</ele><time>2026-04-25T09:31:26.003Z</time></trkpt><trkpt lat="43.06285818000857" lon="11.425672451909927"><ele>464.40000000000003</ele><time>2026-04-25T09:31:27.003Z</time></trkpt><trkpt lat="43.062823160959496" lon="11.425810073751059"><ele>465.20000000000005</ele><time>2026-04-25T09:31:28.003Z</time></trkpt><trkpt lat="43.06281398804558" lon="11.425946472954632"><ele>466.0</ele><time>2026-04-25T09:31:29.003Z</time></trkpt><trkpt lat="43.062815907326815" lon="11.426084040382634"><ele>466.0</ele><time>2026-04-25T09:31:30.003Z</time></trkpt><trkpt lat="43.0628220789289" lon="11.42623601100461"><ele>466.0</ele><time>2026-04-25T09:31:31.003Z</time></trkpt><trkpt lat="43.06283067013492" lon="11.426399381267919"><ele>466.0</ele><time>2026-04-25T09:31:32.003Z</time></trkpt><trkpt lat="43.062842826245486" lon="11.42655234676646"><ele>466.0</ele><time>2026-04-25T09:31:33.003Z</time></trkpt><trkpt lat="43.062862505446" lon="11.426684701468105"><ele>466.0</ele><time>2026-04-25T09:31:34.003Z</time></trkpt><trkpt lat="43.06288503220233" lon="11.426811377888187"><ele>466.00000000000006</ele><time>2026-04-25T09:31:35.003Z</time></trkpt><trkpt lat="43.0628928008536" lon="11.426936393862093"><ele>466.0</ele><time>2026-04-25T09:31:36.003Z</time></trkpt><trkpt lat="43.06288457407228" lon="11.427045570448085"><ele>466.0</ele><time>2026-04-25T09:31:37.003Z</time></trkpt><trkpt lat="43.06285183737912" lon="11.42715054177528"><ele>466.0</ele><time>2026-04-25T09:31:38.003Z</time></trkpt><trkpt lat="43.062797580181574" lon="11.427250451799685"><ele>466.00000000000006</ele><time>2026-04-25T09:31:39.003Z</time></trkpt><trkpt lat="43.062729517814205" lon="11.427334795789326"><ele>466.0</ele><time>2026-04-25T09:31:40.003Z</time></trkpt><trkpt lat="43.06264745442463" lon="11.427390378346281"><ele>466.0</ele><time>2026-04-25T09:31:41.003Z</time></trkpt><trkpt lat="43.06255018374768" lon="11.427436823586484"><ele>466.0</ele><time>2026-04-25T09:31:42Z</time></trkpt><trkpt lat="43.0624545210526" lon="11.427477886126585"><ele>466.0</ele><time>2026-04-25T09:31:43Z</time></trkpt><trkpt lat="43.06234369656757" lon="11.427526948960526"><ele>466.0</ele><time>2026-04-25T09:31:44Z</time></trkpt><trkpt lat="43.06224425195947" lon="11.427570398074177"><ele>466.0</ele><time>2026-04-25T09:31:45Z</time></trkpt><trkpt lat="43.06214437999384" lon="11.427605692101656"><ele>466.8</ele><time>2026-04-25T09:31:46Z</time></trkpt><trkpt lat="43.062051314986995" lon="11.427621575025794"><ele>467.6</ele><time>2026-04-25T09:31:47Z</time></trkpt><trkpt lat="43.061957928016234" lon="11.427598084691892"><ele>468.4</ele><time>2026-04-25T09:31:48Z</time></trkpt><trkpt lat="43.0618677820186" lon="11.42761117688695"><ele>469.2</ele><time>2026-04-25T09:31:49Z</time></trkpt><trkpt lat="43.06177893295078" lon="11.42756415756695"><ele>470.0</ele><time>2026-04-25T09:31:50Z</time></trkpt><trkpt lat="43.061688656855715" lon="11.427476969291218"><ele>470.2</ele><time>2026-04-25T09:31:51Z</time></trkpt><trkpt lat="43.061591644584745" lon="11.427403858518907"><ele>470.4</ele><time>2026-04-25T09:31:52Z</time></trkpt><trkpt lat="43.0614876918425" lon="11.42735553327059"><ele>470.6</ele><time>2026-04-25T09:31:53Z</time></trkpt><trkpt lat="43.061382922954465" lon="11.42736108312155"><ele>470.8</ele><time>2026-04-25T09:31:54Z</time></trkpt><trkpt lat="43.061268557706406" lon="11.427376996736585"><ele>471.0</ele><time>2026-04-25T09:31:55Z</time></trkpt><trkpt lat="43.06114028992529" lon="11.427415298343142"><ele>471.0</ele><time>2026-04-25T09:31:56Z</time></trkpt><trkpt lat="43.061012869702274" lon="11.427463822472184"><ele>471.0</ele><time>2026-04-25T09:31:57Z</time></trkpt><trkpt lat="43.060914657098195" lon="11.427493056560973"><ele>471.0</ele><time>2026-04-25T09:31:58Z</time></trkpt><trkpt lat="43.06082904318275" lon="11.427492927318738"><ele>471.0</ele><time>2026-04-25T09:31:59Z</time></trkpt><trkpt lat="43.0607585789531" lon="11.427429503842966"><ele>471.0</ele><time>2026-04-25T09:32:00Z</time></trkpt><trkpt lat="43.06068445598679" lon="11.427358101668617"><ele>472.6</ele><time>2026-04-25T09:32:01Z</time></trkpt><trkpt lat="43.06058433785342" lon="11.427275204110463"><ele>474.20000000000005</ele><time>2026-04-25T09:32:02Z</time></trkpt><trkpt lat="43.06049164682696" lon="11.42721288246668"><ele>475.79999999999995</ele><time>2026-04-25T09:32:03Z</time></trkpt><trkpt lat="43.0604192444876" lon="11.427178152529482"><ele>477.4</ele><time>2026-04-25T09:32:04Z</time></trkpt><trkpt lat="43.06032265482209" lon="11.42721987463296"><ele>479.0</ele><time>2026-04-25T09:32:06Z</time></trkpt><trkpt lat="43.06029269835041" lon="11.427326277552458"><ele>478.99999999999994</ele><time>2026-04-25T09:32:07Z</time></trkpt><trkpt lat="43.060271949822045" lon="11.427421290177952"><ele>479.0</ele><time>2026-04-25T09:32:08Z</time></trkpt><trkpt lat="43.06026765981143" lon="11.427540075221767"><ele>479.0</ele><time>2026-04-25T09:32:09Z</time></trkpt><trkpt lat="43.06025466755694" lon="11.42765586612025"><ele>479.0</ele><time>2026-04-25T09:32:10Z</time></trkpt><trkpt lat="43.06020981336952" lon="11.427737892850944"><ele>478.99999999999994</ele><time>2026-04-25T09:32:11Z</time></trkpt><trkpt lat="43.060139886738206" lon="11.427788605782009"><ele>479.0</ele><time>2026-04-25T09:32:12Z</time></trkpt><trkpt lat="43.06005674427641" lon="11.427830318902403"><ele>479.0</ele><time>2026-04-25T09:32:13Z</time></trkpt><trkpt lat="43.05997800447781" lon="11.42786939984209"><ele>479.0</ele><time>2026-04-25T09:32:14.001Z</time></trkpt><trkpt lat="43.05990420316461" lon="11.427901161490462"><ele>479.0</ele><time>2026-04-25T09:32:15.001Z</time></trkpt><trkpt lat="43.059839951491846" lon="11.427913385605764"><ele>479.0</ele><time>2026-04-25T09:32:16.001Z</time></trkpt><trkpt lat="43.05978348079093" lon="11.42786620419112"><ele>479.0</ele><time>2026-04-25T09:32:17.001Z</time></trkpt><trkpt lat="43.05973979262901" lon="11.427803888403975"><ele>479.0</ele><time>2026-04-25T09:32:18.001Z</time></trkpt><trkpt lat="43.059697462212725" lon="11.427736585570047"><ele>479.0</ele><time>2026-04-25T09:32:19.001Z</time></trkpt><trkpt lat="43.05963649532019" lon="11.42764911512453"><ele>480.0</ele><time>2026-04-25T09:32:20.001Z</time></trkpt><trkpt lat="43.05957121426959" lon="11.427546008774277"><ele>481.0</ele><time>2026-04-25T09:32:21.001Z</time></trkpt><trkpt lat="43.059493111900736" lon="11.427429740998928"><ele>482.0</ele><time>2026-04-25T09:32:22.001Z</time></trkpt><trkpt lat="43.05941974082848" lon="11.427327420829492"><ele>483.0</ele><time>2026-04-25T09:32:23.001Z</time></trkpt><trkpt lat="43.05935029764603" lon="11.427245081701894"><ele>484.0</ele><time>2026-04-25T09:32:24.001Z</time></trkpt><trkpt lat="43.05927662352288" lon="11.427196450511417"><ele>484.00000000000006</ele><time>2026-04-25T09:32:25.001Z</time></trkpt><trkpt lat="43.05920343099568" lon="11.427186362343445"><ele>484.0</ele><time>2026-04-25T09:32:26.001Z</time></trkpt><trkpt lat="43.059123469411325" lon="11.427229625113362"><ele>484.0</ele><time>2026-04-25T09:32:27.001Z</time></trkpt><trkpt lat="43.059053933889054" lon="11.427296108942398"><ele>484.0</ele><time>2026-04-25T09:32:28.001Z</time></trkpt><trkpt lat="43.059015991278436" lon="11.427392217689667"><ele>484.00000000000006</ele><time>2026-04-25T09:32:29.001Z</time></trkpt><trkpt lat="43.058992821374865" lon="11.42748042196179"><ele>484.0</ele><time>2026-04-25T09:32:30.001Z</time></trkpt><trkpt lat="43.05900308422048" lon="11.427567317609242"><ele>484.0</ele><time>2026-04-25T09:32:31.001Z</time></trkpt><trkpt lat="43.05903595056475" lon="11.42765250559421"><ele>484.0</ele><time>2026-04-25T09:32:32.001Z</time></trkpt><trkpt lat="43.05908050753773" lon="11.427774647670821"><ele>484.0</ele><time>2026-04-25T09:32:33.001Z</time></trkpt><trkpt lat="43.05914294113589" lon="11.427900314897764"><ele>484.0</ele><time>2026-04-25T09:32:34.001Z</time></trkpt><trkpt lat="43.059179660711756" lon="11.42803057241175"><ele>484.0</ele><time>2026-04-25T09:32:35.001Z</time></trkpt><trkpt lat="43.059184909187366" lon="11.428143881381677"><ele>483.1666666666667</ele><time>2026-04-25T09:32:36.001Z</time></trkpt><trkpt lat="43.05920463533744" lon="11.428232322857399"><ele>482.33333333333337</ele><time>2026-04-25T09:32:37.001Z</time></trkpt><trkpt lat="43.05917137770787" lon="11.42830969194544"><ele>481.5</ele><time>2026-04-25T09:32:38.001Z</time></trkpt><trkpt lat="43.05911333503761" lon="11.428370136111202"><ele>480.66666666666663</ele><time>2026-04-25T09:32:39.001Z</time></trkpt><trkpt lat="43.05901668868306" lon="11.428341538792864"><ele>479.8333333333333</ele><time>2026-04-25T09:32:40.001Z</time></trkpt><trkpt lat="43.05894170467617" lon="11.428384066964554"><ele>479.0</ele><time>2026-04-25T09:32:41.001Z</time></trkpt><trkpt lat="43.05886903900166" lon="11.42845408566718"><ele>480.4</ele><time>2026-04-25T09:32:42.001Z</time></trkpt><trkpt lat="43.05879316134559" lon="11.428520039728959"><ele>481.79999999999995</ele><time>2026-04-25T09:32:43.001Z</time></trkpt><trkpt lat="43.05871828837777" lon="11.428623299384299"><ele>483.20000000000005</ele><time>2026-04-25T09:32:44.001Z</time></trkpt><trkpt lat="43.05865362617624" lon="11.428735551899543"><ele>484.6</ele><time>2026-04-25T09:32:45.001Z</time></trkpt><trkpt lat="43.05859641729" lon="11.42886074219214"><ele>486.0</ele><time>2026-04-25T09:32:46.001Z</time></trkpt><trkpt lat="43.05854565422328" lon="11.428996072291543"><ele>486.0</ele><time>2026-04-25T09:32:47.001Z</time></trkpt><trkpt lat="43.05850016811539" lon="11.429126127086475"><ele>486.0</ele><time>2026-04-25T09:32:48.002Z</time></trkpt><trkpt lat="43.058450405081146" lon="11.429263367936885"><ele>486.0</ele><time>2026-04-25T09:32:49.002Z</time></trkpt><trkpt lat="43.05840709210975" lon="11.429414409415777"><ele>486.0</ele><time>2026-04-25T09:32:50.002Z</time></trkpt><trkpt lat="43.05836957392776" lon="11.429565070125603"><ele>486.0</ele><time>2026-04-25T09:32:51.002Z</time></trkpt><trkpt lat="43.05833831952246" lon="11.42971994631375"><ele>486.0</ele><time>2026-04-25T09:32:52.002Z</time></trkpt><trkpt lat="43.05830675115542" lon="11.42987294637232"><ele>486.0</ele><time>2026-04-25T09:32:53.002Z</time></trkpt><trkpt lat="43.05828220005105" lon="11.430010366735507"><ele>486.0</ele><time>2026-04-25T09:32:54.002Z</time></trkpt><trkpt lat="43.05826610456661" lon="11.43013466591996"><ele>486.0</ele><time>2026-04-25T09:32:55.002Z</time></trkpt><trkpt lat="43.05826267025956" lon="11.430256645058845"><ele>484.8</ele><time>2026-04-25T09:32:56.002Z</time></trkpt><trkpt lat="43.058269032621205" lon="11.430402235015256"><ele>483.6</ele><time>2026-04-25T09:32:57.002Z</time></trkpt><trkpt lat="43.058274586980026" lon="11.43054223760866"><ele>482.4</ele><time>2026-04-25T09:32:58.002Z</time></trkpt><trkpt lat="43.05827655807703" lon="11.430664603246775"><ele>481.2</ele><time>2026-04-25T09:32:59.002Z</time></trkpt><trkpt lat="43.05826851071225" lon="11.43076845367551"><ele>480.0</ele><time>2026-04-25T09:33:00.002Z</time></trkpt><trkpt lat="43.05823995614203" lon="11.430864631522978"><ele>480.0</ele><time>2026-04-25T09:33:01.002Z</time></trkpt><trkpt lat="43.05819334832902" lon="11.430947675139643"><ele>480.0</ele><time>2026-04-25T09:33:02.002Z</time></trkpt><trkpt lat="43.05811978032132" lon="11.43100827357292"><ele>480.0</ele><time>2026-04-25T09:33:03.002Z</time></trkpt><trkpt lat="43.05802554588001" lon="11.431063012552675"><ele>480.0</ele><time>2026-04-25T09:33:04.002Z</time></trkpt><trkpt lat="43.05789521994131" lon="11.431133604776752"><ele>480.0</ele><time>2026-04-25T09:33:05.002Z</time></trkpt><trkpt lat="43.057763486751014" lon="11.431215819183155"><ele>480.0</ele><time>2026-04-25T09:33:06.002Z</time></trkpt><trkpt lat="43.05764574589091" lon="11.43127282317739"><ele>480.0</ele><time>2026-04-25T09:33:07.002Z</time></trkpt><trkpt lat="43.05755449047918" lon="11.431368188757949"><ele>480.0</ele><time>2026-04-25T09:33:08.002Z</time></trkpt><trkpt lat="43.0574677902295" lon="11.431451801869759"><ele>480.0</ele><time>2026-04-25T09:33:09.002Z</time></trkpt><trkpt lat="43.057387057992706" lon="11.431556141508977"><ele>482.25</ele><time>2026-04-25T09:33:10.002Z</time></trkpt><trkpt lat="43.05730448798598" lon="11.431675194428212"><ele>484.5</ele><time>2026-04-25T09:33:11.002Z</time></trkpt><trkpt lat="43.05722146109931" lon="11.431796596415664"><ele>486.75</ele><time>2026-04-25T09:33:12.002Z</time></trkpt><trkpt lat="43.05714322115437" lon="11.431913927216861"><ele>489.0</ele><time>2026-04-25T09:33:13.002Z</time></trkpt><trkpt lat="43.05707754189429" lon="11.432040525161089"><ele>489.6</ele><time>2026-04-25T09:33:14.002Z</time></trkpt><trkpt lat="43.057014100043084" lon="11.432168329745565"><ele>490.2</ele><time>2026-04-25T09:33:15.002Z</time></trkpt><trkpt lat="43.056956659632235" lon="11.4322889748786"><ele>490.80000000000007</ele><time>2026-04-25T09:33:16.002Z</time></trkpt><trkpt lat="43.05689423105285" lon="11.432411645309891"><ele>491.40000000000003</ele><time>2026-04-25T09:33:17.002Z</time></trkpt><trkpt lat="43.05682520087613" lon="11.432524844095544"><ele>492.0</ele><time>2026-04-25T09:33:18.002Z</time></trkpt><trkpt lat="43.05675129334187" lon="11.432637867070705"><ele>492.0</ele><time>2026-04-25T09:33:19.002Z</time></trkpt><trkpt lat="43.0566699378977" lon="11.432743039064079"><ele>492.00000000000006</ele><time>2026-04-25T09:33:20.002Z</time></trkpt><trkpt lat="43.0565956355485" lon="11.432843340189665"><ele>492.00000000000006</ele><time>2026-04-25T09:33:21.002Z</time></trkpt><trkpt lat="43.0565332397425" lon="11.432947515103436"><ele>492.0</ele><time>2026-04-25T09:33:22.002Z</time></trkpt><trkpt lat="43.056482343688856" lon="11.433037074540776"><ele>492.0</ele><time>2026-04-25T09:33:23.003Z</time></trkpt><trkpt lat="43.05642571220668" lon="11.43310757851047"><ele>493.0</ele><time>2026-04-25T09:33:24.003Z</time></trkpt><trkpt lat="43.05635505774817" lon="11.433160638691394"><ele>494.00000000000006</ele><time>2026-04-25T09:33:25.003Z</time></trkpt><trkpt lat="43.05627313053327" lon="11.433205433014297"><ele>495.00000000000006</ele><time>2026-04-25T09:33:26.003Z</time></trkpt><trkpt lat="43.056171768918915" lon="11.43326309220327"><ele>496.0</ele><time>2026-04-25T09:33:27.003Z</time></trkpt><trkpt lat="43.0560629130785" lon="11.433309707460504"><ele>497.0</ele><time>2026-04-25T09:33:28.003Z</time></trkpt><trkpt lat="43.05595678662744" lon="11.433346314356285"><ele>496.99999999999994</ele><time>2026-04-25T09:33:29.003Z</time></trkpt><trkpt lat="43.05585958813027" lon="11.433380807053851"><ele>497.0</ele><time>2026-04-25T09:33:30.003Z</time></trkpt><trkpt lat="43.05576856980174" lon="11.433409465102027"><ele>497.0</ele><time>2026-04-25T09:33:31.003Z</time></trkpt><trkpt lat="43.055681727713164" lon="11.433441322623297"><ele>497.0</ele><time>2026-04-25T09:33:32.003Z</time></trkpt><trkpt lat="43.05560139400368" lon="11.433482494324071"><ele>496.99999999999994</ele><time>2026-04-25T09:33:33.003Z</time></trkpt><trkpt lat="43.05552744392665" lon="11.433521320276208"><ele>497.0</ele><time>2026-04-25T09:33:34.003Z</time></trkpt><trkpt lat="43.05545828746183" lon="11.43357575638309"><ele>496.8333333333333</ele><time>2026-04-25T09:33:35.003Z</time></trkpt><trkpt lat="43.05538666320749" lon="11.433622964413725"><ele>496.66666666666663</ele><time>2026-04-25T09:33:36.003Z</time></trkpt><trkpt lat="43.05530969328161" lon="11.433665952175746"><ele>496.5</ele><time>2026-04-25T09:33:37.003Z</time></trkpt><trkpt lat="43.05522800619355" lon="11.433699133312933"><ele>496.33333333333337</ele><time>2026-04-25T09:33:38.003Z</time></trkpt><trkpt lat="43.055130062323684" lon="11.433699857626655"><ele>496.1666666666667</ele><time>2026-04-25T09:33:39.003Z</time></trkpt><trkpt lat="43.05504468414736" lon="11.433753916353153"><ele>496.0</ele><time>2026-04-25T09:33:40.003Z</time></trkpt><trkpt lat="43.0549539322923" lon="11.433795013333977"><ele>494.33333333333337</ele><time>2026-04-25T09:33:41.003Z</time></trkpt><trkpt lat="43.05486255700546" lon="11.433840400922508"><ele>492.6666666666667</ele><time>2026-04-25T09:33:42.003Z</time></trkpt><trkpt lat="43.054787200306414" lon="11.433889147369136"><ele>491.0</ele><time>2026-04-25T09:33:43.003Z</time></trkpt><trkpt lat="43.05471535492164" lon="11.433943221095968"><ele>489.33333333333337</ele><time>2026-04-25T09:33:44.003Z</time></trkpt><trkpt lat="43.05463228884834" lon="11.433974078465157"><ele>487.6666666666667</ele><time>2026-04-25T09:33:45.003Z</time></trkpt><trkpt lat="43.05455309467513" lon="11.434021620474777"><ele>486.0</ele><time>2026-04-25T09:33:46.003Z</time></trkpt><trkpt lat="43.054477062846814" lon="11.434085640949146"><ele>486.0</ele><time>2026-04-25T09:33:47.003Z</time></trkpt><trkpt lat="43.054402396061406" lon="11.434122430805125"><ele>486.0</ele><time>2026-04-25T09:33:48Z</time></trkpt><trkpt lat="43.05431923166571" lon="11.43415964756585"><ele>486.0</ele><time>2026-04-25T09:33:49Z</time></trkpt><trkpt lat="43.054235175125534" lon="11.434199293407685"><ele>486.0</ele><time>2026-04-25T09:33:50Z</time></trkpt><trkpt lat="43.05414510030799" lon="11.434226739024226"><ele>486.0</ele><time>2026-04-25T09:33:51Z</time></trkpt><trkpt lat="43.05405719633482" lon="11.434247257437306"><ele>486.0</ele><time>2026-04-25T09:33:52Z</time></trkpt><trkpt lat="43.05395871035954" lon="11.434269315707597"><ele>485.6666666666667</ele><time>2026-04-25T09:33:53Z</time></trkpt><trkpt lat="43.05386366797252" lon="11.43429152555092"><ele>485.33333333333337</ele><time>2026-04-25T09:33:54Z</time></trkpt><trkpt lat="43.053778855348675" lon="11.434314323931602"><ele>485.0</ele><time>2026-04-25T09:33:55Z</time></trkpt><trkpt lat="43.053709144887286" lon="11.434337149040898"><ele>484.6666666666667</ele><time>2026-04-25T09:33:56Z</time></trkpt><trkpt lat="43.053603118536635" lon="11.434410728377397"><ele>484.33333333333337</ele><time>2026-04-25T09:33:58Z</time></trkpt><trkpt lat="43.05354740290653" lon="11.434463017214728"><ele>484.0</ele><time>2026-04-25T09:33:59Z</time></trkpt><trkpt lat="43.053486069620064" lon="11.434529896473618"><ele>484.00000000000006</ele><time>2026-04-25T09:34:00Z</time></trkpt><trkpt lat="43.05342263659166" lon="11.43460798560164"><ele>484.0</ele><time>2026-04-25T09:34:01Z</time></trkpt><trkpt lat="43.0533663800326" lon="11.434695619739374"><ele>484.0</ele><time>2026-04-25T09:34:02Z</time></trkpt><trkpt lat="43.053316482916586" lon="11.434788238759477"><ele>484.0</ele><time>2026-04-25T09:34:03Z</time></trkpt><trkpt lat="43.05327313040251" lon="11.434885343083394"><ele>484.00000000000006</ele><time>2026-04-25T09:34:04Z</time></trkpt><trkpt lat="43.05323649373734" lon="11.434987550149726"><ele>484.0</ele><time>2026-04-25T09:34:05Z</time></trkpt><trkpt lat="43.05320292047784" lon="11.435089986927734"><ele>482.6</ele><time>2026-04-25T09:34:06Z</time></trkpt><trkpt lat="43.05317045216466" lon="11.435198459655817"><ele>481.2</ele><time>2026-04-25T09:34:07Z</time></trkpt><trkpt lat="43.053138139843476" lon="11.435313353711082"><ele>479.80000000000007</ele><time>2026-04-25T09:34:08Z</time></trkpt><trkpt lat="43.05310919878838" lon="11.435439199056264"><ele>478.40000000000003</ele><time>2026-04-25T09:34:09Z</time></trkpt><trkpt lat="43.05308781148821" lon="11.435579810153191"><ele>477.0</ele><time>2026-04-25T09:34:10Z</time></trkpt><trkpt lat="43.05306660297756" lon="11.435737022425904"><ele>475.20000000000005</ele><time>2026-04-25T09:34:11Z</time></trkpt><trkpt lat="43.05305292693981" lon="11.435876289972668"><ele>473.40000000000003</ele><time>2026-04-25T09:34:12Z</time></trkpt><trkpt lat="43.053040352972786" lon="11.436009498027245"><ele>471.59999999999997</ele><time>2026-04-25T09:34:13Z</time></trkpt><trkpt lat="43.05302553716532" lon="11.436129269269545"><ele>469.79999999999995</ele><time>2026-04-25T09:34:14Z</time></trkpt><trkpt lat="43.05300433249512" lon="11.436238058618612"><ele>468.0</ele><time>2026-04-25T09:34:15.001Z</time></trkpt><trkpt lat="43.05297342882429" lon="11.4363474088174"><ele>468.0</ele><time>2026-04-25T09:34:16.001Z</time></trkpt><trkpt lat="43.05293632495748" lon="11.436450700775953"><ele>468.0</ele><time>2026-04-25T09:34:17.001Z</time></trkpt><trkpt lat="43.05288336068041" lon="11.436549441358398"><ele>468.0</ele><time>2026-04-25T09:34:18.001Z</time></trkpt><trkpt lat="43.05281922479233" lon="11.436638676122925"><ele>468.0</ele><time>2026-04-25T09:34:19.001Z</time></trkpt><trkpt lat="43.05274563110598" lon="11.436712905629468"><ele>468.0</ele><time>2026-04-25T09:34:20.001Z</time></trkpt><trkpt lat="43.052670063940795" lon="11.436767788997004"><ele>468.0</ele><time>2026-04-25T09:34:21.001Z</time></trkpt><trkpt lat="43.052608555303756" lon="11.436819504389389"><ele>468.0</ele><time>2026-04-25T09:34:22.001Z</time></trkpt><trkpt lat="43.052560119234805" lon="11.4368814671648"><ele>467.99999999999994</ele><time>2026-04-25T09:34:23.001Z</time></trkpt><trkpt lat="43.05242025815571" lon="11.436785786787878"><ele>467.99999999999994</ele><time>2026-04-25T09:34:24.001Z</time></trkpt><trkpt lat="43.05233800824867" lon="11.43675419196555"><ele>468.0</ele><time>2026-04-25T09:34:25.001Z</time></trkpt><trkpt lat="43.052250343143704" lon="11.436734199094458"><ele>468.0</ele><time>2026-04-25T09:34:26.001Z</time></trkpt><trkpt lat="43.05215769924148" lon="11.436740016045261"><ele>468.2</ele><time>2026-04-25T09:34:27.001Z</time></trkpt><trkpt lat="43.05206030362151" lon="11.436764958561454"><ele>468.4</ele><time>2026-04-25T09:34:28.001Z</time></trkpt><trkpt lat="43.0519629380909" lon="11.436795217378888"><ele>468.59999999999997</ele><time>2026-04-25T09:34:29.001Z</time></trkpt><trkpt lat="43.051867007485214" lon="11.436822387296877"><ele>468.79999999999995</ele><time>2026-04-25T09:34:30.001Z</time></trkpt><trkpt lat="43.051773803164366" lon="11.436850920181396"><ele>469.0</ele><time>2026-04-25T09:34:31.001Z</time></trkpt><trkpt lat="43.05168593283408" lon="11.43688065168407"><ele>469.1666666666667</ele><time>2026-04-25T09:34:32.001Z</time></trkpt><trkpt lat="43.05161521361097" lon="11.436909395318688"><ele>469.33333333333337</ele><time>2026-04-25T09:34:33.001Z</time></trkpt><trkpt lat="43.05155429989088" lon="11.436953551670369"><ele>469.5</ele><time>2026-04-25T09:34:34.001Z</time></trkpt><trkpt lat="43.05149765614663" lon="11.4370233267495"><ele>469.66666666666663</ele><time>2026-04-25T09:34:35.001Z</time></trkpt><trkpt lat="43.05143607296123" lon="11.43712782172918"><ele>469.8333333333333</ele><time>2026-04-25T09:34:36.001Z</time></trkpt><trkpt lat="43.05137321644202" lon="11.43725119973931"><ele>470.0</ele><time>2026-04-25T09:34:37.001Z</time></trkpt><trkpt lat="43.05130335831391" lon="11.437362055510162"><ele>470.0</ele><time>2026-04-25T09:34:38.001Z</time></trkpt><trkpt lat="43.0512268444731" lon="11.437452471190454"><ele>470.0</ele><time>2026-04-25T09:34:39.001Z</time></trkpt><trkpt lat="43.05113690588641" lon="11.437534465206987"><ele>470.0</ele><time>2026-04-25T09:34:40.001Z</time></trkpt><trkpt lat="43.05103220158206" lon="11.437617802854064"><ele>470.0</ele><time>2026-04-25T09:34:41.001Z</time></trkpt><trkpt lat="43.05092339542252" lon="11.437691386376693"><ele>470.0</ele><time>2026-04-25T09:34:42.001Z</time></trkpt><trkpt lat="43.05081947714662" lon="11.43774912709643"><ele>470.0</ele><time>2026-04-25T09:34:43.001Z</time></trkpt><trkpt lat="43.05072693883914" lon="11.437795311346168"><ele>470.0</ele><time>2026-04-25T09:34:44.001Z</time></trkpt><trkpt lat="43.050647538512386" lon="11.43785847308548"><ele>470.0</ele><time>2026-04-25T09:34:45.001Z</time></trkpt><trkpt lat="43.05057656935368" lon="11.437930295256855"><ele>470.0</ele><time>2026-04-25T09:34:46.001Z</time></trkpt><trkpt lat="43.05051294161266" lon="11.438007402271062"><ele>472.4</ele><time>2026-04-25T09:34:47.001Z</time></trkpt><trkpt lat="43.05046334609474" lon="11.438102049935633"><ele>474.8</ele><time>2026-04-25T09:34:48.001Z</time></trkpt><trkpt lat="43.05043266333088" lon="11.438214310776795"><ele>477.20000000000005</ele><time>2026-04-25T09:34:49.001Z</time></trkpt><trkpt lat="43.05042045031892" lon="11.43835040451224"><ele>479.6</ele><time>2026-04-25T09:34:50.001Z</time></trkpt><trkpt lat="43.050401952383055" lon="11.43850528633875"><ele>482.0</ele><time>2026-04-25T09:34:51.002Z</time></trkpt><trkpt lat="43.0503783083839" lon="11.438646231217424"><ele>482.0</ele><time>2026-04-25T09:34:52.002Z</time></trkpt><trkpt lat="43.05035906448704" lon="11.438756362763424"><ele>482.00000000000006</ele><time>2026-04-25T09:34:53.002Z</time></trkpt><trkpt lat="43.05035695308376" lon="11.438863425888272"><ele>482.00000000000006</ele><time>2026-04-25T09:34:54.002Z</time></trkpt><trkpt lat="43.05038621257716" lon="11.438969368792003"><ele>482.0</ele><time>2026-04-25T09:34:55.002Z</time></trkpt><trkpt lat="43.05044806853943" lon="11.439080645496508"><ele>482.0</ele><time>2026-04-25T09:34:56.002Z</time></trkpt><trkpt lat="43.05053244780829" lon="11.439208005576363"><ele>481.8</ele><time>2026-04-25T09:34:57.002Z</time></trkpt><trkpt lat="43.050602866696515" lon="11.439330554791441"><ele>481.6</ele><time>2026-04-25T09:34:58.002Z</time></trkpt><trkpt lat="43.05065311701301" lon="11.439454888266612"><ele>481.40000000000003</ele><time>2026-04-25T09:34:59.002Z</time></trkpt><trkpt lat="43.05068767371072" lon="11.439580475078861"><ele>481.20000000000005</ele><time>2026-04-25T09:35:00.002Z</time></trkpt><trkpt lat="43.05070561071046" lon="11.439724549463131"><ele>481.0</ele><time>2026-04-25T09:35:01.002Z</time></trkpt><trkpt lat="43.0507062520975" lon="11.439870166671941"><ele>481.0</ele><time>2026-04-25T09:35:02.002Z</time></trkpt><trkpt lat="43.05069429519346" lon="11.440015084159329"><ele>481.0</ele><time>2026-04-25T09:35:03.002Z</time></trkpt><trkpt lat="43.05066655033431" lon="11.440142776191031"><ele>481.0</ele><time>2026-04-25T09:35:04.002Z</time></trkpt><trkpt lat="43.050620956847354" lon="11.440263793989894"><ele>481.0</ele><time>2026-04-25T09:35:05.002Z</time></trkpt><trkpt lat="43.05056674926635" lon="11.440373393498957"><ele>481.0</ele><time>2026-04-25T09:35:06.002Z</time></trkpt><trkpt lat="43.05048970235336" lon="11.440473826007155"><ele>478.20000000000005</ele><time>2026-04-25T09:35:07.002Z</time></trkpt><trkpt lat="43.05040325779437" lon="11.440560046090711"><ele>475.40000000000003</ele><time>2026-04-25T09:35:08.002Z</time></trkpt><trkpt lat="43.05031383649971" lon="11.44062608466318"><ele>472.6</ele><time>2026-04-25T09:35:09.002Z</time></trkpt><trkpt lat="43.05022840257384" lon="11.440693982781008"><ele>469.8</ele><time>2026-04-25T09:35:10.002Z</time></trkpt><trkpt lat="43.05015608092653" lon="11.440783728551867"><ele>467.0</ele><time>2026-04-25T09:35:11.002Z</time></trkpt><trkpt lat="43.0501026835183" lon="11.440885938314011"><ele>467.0</ele><time>2026-04-25T09:35:12.002Z</time></trkpt><trkpt lat="43.05006246457215" lon="11.441015601014033"><ele>467.0</ele><time>2026-04-25T09:35:13.002Z</time></trkpt><trkpt lat="43.05004770852738" lon="11.441159844521913"><ele>467.0</ele><time>2026-04-25T09:35:14.002Z</time></trkpt><trkpt lat="43.05005273464858" lon="11.441324259649551"><ele>467.0</ele><time>2026-04-25T09:35:15.002Z</time></trkpt><trkpt lat="43.050060743218395" lon="11.441525962842144"><ele>466.0</ele><time>2026-04-25T09:35:16.002Z</time></trkpt><trkpt lat="43.05007103294384" lon="11.441756485352235"><ele>465.0</ele><time>2026-04-25T09:35:17.002Z</time></trkpt><trkpt lat="43.050082448334535" lon="11.441985387024891"><ele>464.0</ele><time>2026-04-25T09:35:18.002Z</time></trkpt><trkpt lat="43.05009129109355" lon="11.442214017993962"><ele>464.0</ele><time>2026-04-25T09:35:19.002Z</time></trkpt><trkpt lat="43.05009663897381" lon="11.442422776021422"><ele>464.0</ele><time>2026-04-25T09:35:20.002Z</time></trkpt><trkpt lat="43.05010390261157" lon="11.44261973350981"><ele>464.0</ele><time>2026-04-25T09:35:21.002Z</time></trkpt><trkpt lat="43.05011331198492" lon="11.442822980662584"><ele>464.0</ele><time>2026-04-25T09:35:22.002Z</time></trkpt><trkpt lat="43.05012692078542" lon="11.443012084656567"><ele>465.4</ele><time>2026-04-25T09:35:23.002Z</time></trkpt><trkpt lat="43.05013410909637" lon="11.443168195277462"><ele>466.79999999999995</ele><time>2026-04-25T09:35:24.002Z</time></trkpt><trkpt lat="43.0501341123555" lon="11.443310922972728"><ele>468.20000000000005</ele><time>2026-04-25T09:35:25.002Z</time></trkpt><trkpt lat="43.05012209578471" lon="11.44344250585155"><ele>469.6</ele><time>2026-04-25T09:35:26.003Z</time></trkpt><trkpt lat="43.050088105532915" lon="11.443584447952611"><ele>471.0</ele><time>2026-04-25T09:35:27.003Z</time></trkpt><trkpt lat="43.050039370410246" lon="11.443749532873008"><ele>470.75</ele><time>2026-04-25T09:35:28.003Z</time></trkpt><trkpt lat="43.05000546171768" lon="11.44391849944843"><ele>470.5</ele><time>2026-04-25T09:35:29.003Z</time></trkpt><trkpt lat="43.04997537371004" lon="11.444088384042363"><ele>470.25</ele><time>2026-04-25T09:35:30.003Z</time></trkpt><trkpt lat="43.049947384257905" lon="11.444241183270845"><ele>470.0</ele><time>2026-04-25T09:35:31.003Z</time></trkpt><trkpt lat="43.049916974478556" lon="11.444385559895808"><ele>470.0</ele><time>2026-04-25T09:35:32.003Z</time></trkpt><trkpt lat="43.04990987341377" lon="11.444531472478397"><ele>470.0</ele><time>2026-04-25T09:35:33.003Z</time></trkpt><trkpt lat="43.04991125967463" lon="11.444679929008748"><ele>470.0</ele><time>2026-04-25T09:35:34.003Z</time></trkpt><trkpt lat="43.04991187449988" lon="11.444822534595536"><ele>470.0</ele><time>2026-04-25T09:35:35.003Z</time></trkpt><trkpt lat="43.049912832854936" lon="11.444947580571023"><ele>470.0</ele><time>2026-04-25T09:35:36.003Z</time></trkpt><trkpt lat="43.049909481564114" lon="11.445068025447782"><ele>468.2</ele><time>2026-04-25T09:35:37.003Z</time></trkpt><trkpt lat="43.0498906545394" lon="11.44520068747046"><ele>466.4</ele><time>2026-04-25T09:35:38.003Z</time></trkpt><trkpt lat="43.049857907020545" lon="11.44533593249001"><ele>464.6</ele><time>2026-04-25T09:35:39.003Z</time></trkpt><trkpt lat="43.04980228314106" lon="11.445484362875709"><ele>462.8</ele><time>2026-04-25T09:35:40.003Z</time></trkpt><trkpt lat="43.049743896023536" lon="11.445619475202644"><ele>461.0</ele><time>2026-04-25T09:35:41.003Z</time></trkpt><trkpt lat="43.049694241649725" lon="11.445753369050367"><ele>461.0</ele><time>2026-04-25T09:35:42.003Z</time></trkpt><trkpt lat="43.04965866437406" lon="11.445894111008858"><ele>461.0</ele><time>2026-04-25T09:35:43.003Z</time></trkpt><trkpt lat="43.04963774785649" lon="11.446038414425287"><ele>461.0</ele><time>2026-04-25T09:35:44.003Z</time></trkpt><trkpt lat="43.04962335850403" lon="11.44618412834768"><ele>461.0</ele><time>2026-04-25T09:35:45.003Z</time></trkpt><trkpt lat="43.04961067238508" lon="11.446327370893849"><ele>461.0</ele><time>2026-04-25T09:35:46.003Z</time></trkpt><trkpt lat="43.04960181784441" lon="11.446475769429588"><ele>462.0</ele><time>2026-04-25T09:35:47.003Z</time></trkpt><trkpt lat="43.04959717682703" lon="11.446622067391834"><ele>463.0</ele><time>2026-04-25T09:35:48.003Z</time></trkpt><trkpt lat="43.04959337639926" lon="11.446770030438353"><ele>464.0</ele><time>2026-04-25T09:35:49.003Z</time></trkpt><trkpt lat="43.049591028086155" lon="11.446924353339032"><ele>465.0</ele><time>2026-04-25T09:35:50.003Z</time></trkpt><trkpt lat="43.04958775358799" lon="11.44710137326627"><ele>465.2</ele><time>2026-04-25T09:35:51.003Z</time></trkpt><trkpt lat="43.049584752095534" lon="11.447273954480435"><ele>465.4</ele><time>2026-04-25T09:35:52.003Z</time></trkpt><trkpt lat="43.04958009859103" lon="11.447433339713745"><ele>465.6</ele><time>2026-04-25T09:35:53.003Z</time></trkpt><trkpt lat="43.0495775745293" lon="11.447569628421823"><ele>465.8</ele><time>2026-04-25T09:35:54Z</time></trkpt><trkpt lat="43.04958211733991" lon="11.447701894918898"><ele>466.0</ele><time>2026-04-25T09:35:55Z</time></trkpt><trkpt lat="43.04959493219531" lon="11.447837121543303"><ele>466.0</ele><time>2026-04-25T09:35:56Z</time></trkpt><trkpt lat="43.04962342434204" lon="11.44795536516219"><ele>466.0</ele><time>2026-04-25T09:35:57Z</time></trkpt><trkpt lat="43.049662447011436" lon="11.448074090718482"><ele>466.0</ele><time>2026-04-25T09:35:58Z</time></trkpt><trkpt lat="43.04969111283062" lon="11.448172681667396"><ele>466.0</ele><time>2026-04-25T09:35:59Z</time></trkpt><trkpt lat="43.04970225975791" lon="11.448260057784957"><ele>466.0</ele><time>2026-04-25T09:36:00Z</time></trkpt><trkpt lat="43.04965152328209" lon="11.44842379195548"><ele>466.6</ele><time>2026-04-25T09:36:02Z</time></trkpt><trkpt lat="43.0495883484612" lon="11.448493226527942"><ele>467.20000000000005</ele><time>2026-04-25T09:36:03Z</time></trkpt><trkpt lat="43.04951832299288" lon="11.448565143596603"><ele>467.79999999999995</ele><time>2026-04-25T09:36:04Z</time></trkpt><trkpt lat="43.049439515325474" lon="11.448671560578886"><ele>468.4</ele><time>2026-04-25T09:36:05Z</time></trkpt><trkpt lat="43.049364944700535" lon="11.448787536469515"><ele>469.0</ele><time>2026-04-25T09:36:06Z</time></trkpt><trkpt lat="43.04928236916991" lon="11.448903662061758"><ele>469.5</ele><time>2026-04-25T09:36:07Z</time></trkpt><trkpt lat="43.04919099612093" lon="11.449016153646873"><ele>470.0</ele><time>2026-04-25T09:36:08Z</time></trkpt><trkpt lat="43.049104308678686" lon="11.449136056067475"><ele>470.5</ele><time>2026-04-25T09:36:09Z</time></trkpt><trkpt lat="43.049020007517825" lon="11.449248219904755"><ele>471.0</ele><time>2026-04-25T09:36:10Z</time></trkpt><trkpt lat="43.04894174142525" lon="11.449361209285286"><ele>471.0</ele><time>2026-04-25T09:36:11Z</time></trkpt><trkpt lat="43.04885885001611" lon="11.449485074044718"><ele>471.0</ele><time>2026-04-25T09:36:12Z</time></trkpt><trkpt lat="43.04876635354558" lon="11.44961927292904"><ele>471.0</ele><time>2026-04-25T09:36:13Z</time></trkpt><trkpt lat="43.04867927729813" lon="11.449743756288832"><ele>471.0</ele><time>2026-04-25T09:36:14Z</time></trkpt><trkpt lat="43.0486058844533" lon="11.449852660391578"><ele>471.8</ele><time>2026-04-25T09:36:15Z</time></trkpt><trkpt lat="43.04853618786126" lon="11.449950789839251"><ele>472.6</ele><time>2026-04-25T09:36:16.001Z</time></trkpt><trkpt lat="43.0484675725554" lon="11.450038401209648"><ele>473.4</ele><time>2026-04-25T09:36:17.001Z</time></trkpt><trkpt lat="43.04839902777993" lon="11.450120048547529"><ele>474.2</ele><time>2026-04-25T09:36:18.001Z</time></trkpt><trkpt lat="43.04832566848969" lon="11.450194863284892"><ele>475.0</ele><time>2026-04-25T09:36:19.001Z</time></trkpt><trkpt lat="43.04825030966348" lon="11.450261049268956"><ele>475.00000000000006</ele><time>2026-04-25T09:36:20.001Z</time></trkpt><trkpt lat="43.048183144239104" lon="11.450328829160643"><ele>475.0</ele><time>2026-04-25T09:36:21.001Z</time></trkpt><trkpt lat="43.04812878974116" lon="11.450408725823593"><ele>475.0</ele><time>2026-04-25T09:36:22.001Z</time></trkpt><trkpt lat="43.04809643963622" lon="11.450506570386251"><ele>475.0</ele><time>2026-04-25T09:36:23.001Z</time></trkpt><trkpt lat="43.04806600625942" lon="11.450621206337836"><ele>475.00000000000006</ele><time>2026-04-25T09:36:24.001Z</time></trkpt><trkpt lat="43.04804801352876" lon="11.45074629264151"><ele>475.0</ele><time>2026-04-25T09:36:25.001Z</time></trkpt><trkpt lat="43.0480138797003" lon="11.450872782411462"><ele>476.2</ele><time>2026-04-25T09:36:26.001Z</time></trkpt><trkpt lat="43.048010251035805" lon="11.451020017305396"><ele>477.4</ele><time>2026-04-25T09:36:27.001Z</time></trkpt><trkpt lat="43.04798242474461" lon="11.451167025421856"><ele>478.6</ele><time>2026-04-25T09:36:28.001Z</time></trkpt><trkpt lat="43.04796086445614" lon="11.451309477491064"><ele>479.8</ele><time>2026-04-25T09:36:29.001Z</time></trkpt><trkpt lat="43.04793809381657" lon="11.451442829840737"><ele>481.0</ele><time>2026-04-25T09:36:30.001Z</time></trkpt><trkpt lat="43.047904394640476" lon="11.45156532629152"><ele>481.6666666666667</ele><time>2026-04-25T09:36:31.001Z</time></trkpt><trkpt lat="43.04786213489306" lon="11.451682249253661"><ele>482.33333333333337</ele><time>2026-04-25T09:36:32.001Z</time></trkpt><trkpt lat="43.04782017206315" lon="11.45178586235975"><ele>483.0</ele><time>2026-04-25T09:36:33.001Z</time></trkpt><trkpt lat="43.04778491497582" lon="11.45188824924581"><ele>483.66666666666663</ele><time>2026-04-25T09:36:34.001Z</time></trkpt><trkpt lat="43.047751994543034" lon="11.45197889304554"><ele>484.3333333333333</ele><time>2026-04-25T09:36:35.001Z</time></trkpt><trkpt lat="43.04772387079117" lon="11.452072362342525"><ele>485.0</ele><time>2026-04-25T09:36:36.001Z</time></trkpt><trkpt lat="43.04769160278898" lon="11.452190522318421"><ele>486.25</ele><time>2026-04-25T09:36:37.001Z</time></trkpt><trkpt lat="43.04766926440958" lon="11.452329058020387"><ele>487.5</ele><time>2026-04-25T09:36:38.001Z</time></trkpt><trkpt lat="43.04764254859604" lon="11.452482852282472"><ele>488.75</ele><time>2026-04-25T09:36:39.001Z</time></trkpt><trkpt lat="43.0476125077881" lon="11.452663703532862"><ele>490.0</ele><time>2026-04-25T09:36:40.001Z</time></trkpt><trkpt lat="43.04757648464275" lon="11.45285813480903"><ele>490.75</ele><time>2026-04-25T09:36:41.001Z</time></trkpt><trkpt lat="43.047548186109644" lon="11.453034893270708"><ele>491.5</ele><time>2026-04-25T09:36:42.001Z</time></trkpt><trkpt lat="43.04752191258946" lon="11.453210611989679"><ele>492.25</ele><time>2026-04-25T09:36:43.001Z</time></trkpt><trkpt lat="43.047502736670246" lon="11.453367180826369"><ele>493.0</ele><time>2026-04-25T09:36:44.001Z</time></trkpt><trkpt lat="43.04749194658299" lon="11.453496125543968"><ele>493.00000000000006</ele><time>2026-04-25T09:36:45.001Z</time></trkpt><trkpt lat="43.04747577390124" lon="11.453616768929603"><ele>493.0</ele><time>2026-04-25T09:36:46.001Z</time></trkpt><trkpt lat="43.04745199371785" lon="11.453714596455804"><ele>493.0</ele><time>2026-04-25T09:36:47.001Z</time></trkpt><trkpt lat="43.0474170784957" lon="11.453796858162788"><ele>493.0</ele><time>2026-04-25T09:36:48.001Z</time></trkpt><trkpt lat="43.047362850689964" lon="11.453866813936255"><ele>493.00000000000006</ele><time>2026-04-25T09:36:49.001Z</time></trkpt><trkpt lat="43.04729471983915" lon="11.453913910473029"><ele>493.0</ele><time>2026-04-25T09:36:50.001Z</time></trkpt><trkpt lat="43.047207484775676" lon="11.453976728844458"><ele>495.25</ele><time>2026-04-25T09:36:51.001Z</time></trkpt><trkpt lat="43.04710375992692" lon="11.454037402457736"><ele>497.5</ele><time>2026-04-25T09:36:52.001Z</time></trkpt><trkpt lat="43.04698533037543" lon="11.45411290335317"><ele>499.75</ele><time>2026-04-25T09:36:53.001Z</time></trkpt><trkpt lat="43.04687038391466" lon="11.454182228159832"><ele>502.0</ele><time>2026-04-25T09:36:54.001Z</time></trkpt><trkpt lat="43.04676506439803" lon="11.454245058125357"><ele>502.0</ele><time>2026-04-25T09:36:55.001Z</time></trkpt><trkpt lat="43.04666808857839" lon="11.454306947684588"><ele>502.00000000000006</ele><time>2026-04-25T09:36:56.002Z</time></trkpt><trkpt lat="43.04657196840661" lon="11.454373799371188"><ele>502.00000000000006</ele><time>2026-04-25T09:36:57.002Z</time></trkpt><trkpt lat="43.04647724074692" lon="11.454446997803268"><ele>502.0</ele><time>2026-04-25T09:36:58.002Z</time></trkpt><trkpt lat="43.046384657204996" lon="11.454537705044878"><ele>502.0</ele><time>2026-04-25T09:36:59.002Z</time></trkpt><trkpt lat="43.046297932103144" lon="11.454619115981872"><ele>503.0</ele><time>2026-04-25T09:37:00.002Z</time></trkpt><trkpt lat="43.046220554067624" lon="11.454694027619327"><ele>504.00000000000006</ele><time>2026-04-25T09:37:01.002Z</time></trkpt><trkpt lat="43.04613952711841" lon="11.454755788874298"><ele>505.00000000000006</ele><time>2026-04-25T09:37:02.002Z</time></trkpt><trkpt lat="43.04606004840828" lon="11.454807788983741"><ele>506.0</ele><time>2026-04-25T09:37:03.002Z</time></trkpt><trkpt lat="43.04597103195234" lon="11.45486187871287"><ele>507.0</ele><time>2026-04-25T09:37:04.002Z</time></trkpt><trkpt lat="43.045873251929905" lon="11.454916975601195"><ele>506.8</ele><time>2026-04-25T09:37:05.002Z</time></trkpt><trkpt lat="43.04576984905083" lon="11.454977347186"><ele>506.6</ele><time>2026-04-25T09:37:06.002Z</time></trkpt><trkpt lat="43.0456748354167" lon="11.455037644256945"><ele>506.40000000000003</ele><time>2026-04-25T09:37:07.002Z</time></trkpt><trkpt lat="43.045587643084424" lon="11.455102713657153"><ele>506.20000000000005</ele><time>2026-04-25T09:37:08.002Z</time></trkpt><trkpt lat="43.0455126697555" lon="11.45517802595514"><ele>506.0</ele><time>2026-04-25T09:37:09.002Z</time></trkpt><trkpt lat="43.045449329369596" lon="11.455276549211083"><ele>506.0</ele><time>2026-04-25T09:37:10.002Z</time></trkpt><trkpt lat="43.045391649304925" lon="11.45539495439685"><ele>506.0</ele><time>2026-04-25T09:37:11.002Z</time></trkpt><trkpt lat="43.04533006838138" lon="11.455539296818664"><ele>506.0</ele><time>2026-04-25T09:37:12.002Z</time></trkpt><trkpt lat="43.04525652478744" lon="11.455690002185182"><ele>506.0</ele><time>2026-04-25T09:37:13.002Z</time></trkpt><trkpt lat="43.04517229621548" lon="11.455852750479936"><ele>505.5</ele><time>2026-04-25T09:37:14.002Z</time></trkpt><trkpt lat="43.04508863161415" lon="11.456011182568437"><ele>505.0</ele><time>2026-04-25T09:37:15.002Z</time></trkpt><trkpt lat="43.045012371706626" lon="11.45615861507581"><ele>504.5</ele><time>2026-04-25T09:37:16.002Z</time></trkpt><trkpt lat="43.04494854032084" lon="11.456284873482113"><ele>504.0</ele><time>2026-04-25T09:37:17.002Z</time></trkpt><trkpt lat="43.04488936273477" lon="11.456401466491233"><ele>503.6</ele><time>2026-04-25T09:37:18.002Z</time></trkpt><trkpt lat="43.04483849421286" lon="11.45651311256662"><ele>503.2</ele><time>2026-04-25T09:37:19.002Z</time></trkpt><trkpt lat="43.044797140165585" lon="11.456637707304347"><ele>502.80000000000007</ele><time>2026-04-25T09:37:20.002Z</time></trkpt><trkpt lat="43.04477375794753" lon="11.456778626378666"><ele>502.40000000000003</ele><time>2026-04-25T09:37:21.002Z</time></trkpt><trkpt lat="43.0447575550103" lon="11.456930038452489"><ele>502.0</ele><time>2026-04-25T09:37:22.002Z</time></trkpt><trkpt lat="43.044738902492774" lon="11.457066131040738"><ele>503.33333333333337</ele><time>2026-04-25T09:37:23.002Z</time></trkpt><trkpt lat="43.04471699246762" lon="11.457193110759244"><ele>504.6666666666667</ele><time>2026-04-25T09:37:24.002Z</time></trkpt><trkpt lat="43.04468575016436" lon="11.457299642290263"><ele>506.0</ele><time>2026-04-25T09:37:25.002Z</time></trkpt><trkpt lat="43.044643242276" lon="11.457386098422122"><ele>507.33333333333337</ele><time>2026-04-25T09:37:26.002Z</time></trkpt><trkpt lat="43.044557779836495" lon="11.457441791146335"><ele>508.6666666666667</ele><time>2026-04-25T09:37:27.002Z</time></trkpt><trkpt lat="43.044473855312" lon="11.457511453710461"><ele>510.0</ele><time>2026-04-25T09:37:28.002Z</time></trkpt><trkpt lat="43.0443856963523" lon="11.457595507969383"><ele>510.0</ele><time>2026-04-25T09:37:29.002Z</time></trkpt><trkpt lat="43.04429180534061" lon="11.457678860170654"><ele>510.0</ele><time>2026-04-25T09:37:30.002Z</time></trkpt><trkpt lat="43.044208577710435" lon="11.457772654493686"><ele>510.0</ele><time>2026-04-25T09:37:31.002Z</time></trkpt><trkpt lat="43.04412749977678" lon="11.4578773960222"><ele>510.0</ele><time>2026-04-25T09:37:32.002Z</time></trkpt><trkpt lat="43.04403992299062" lon="11.458017287491051"><ele>509.0</ele><time>2026-04-25T09:37:33.003Z</time></trkpt><trkpt lat="43.04394361244865" lon="11.458172383838352"><ele>508.0</ele><time>2026-04-25T09:37:34.003Z</time></trkpt><trkpt lat="43.04383482044392" lon="11.45833754087627"><ele>507.0</ele><time>2026-04-25T09:37:35.003Z</time></trkpt><trkpt lat="43.043735437611176" lon="11.458496777805014"><ele>507.0</ele><time>2026-04-25T09:37:36.003Z</time></trkpt><trkpt lat="43.04364106662172" lon="11.458648048765097"><ele>507.0</ele><time>2026-04-25T09:37:37.003Z</time></trkpt><trkpt lat="43.04354564686401" lon="11.458786288903541"><ele>507.0</ele><time>2026-04-25T09:37:38.003Z</time></trkpt><trkpt lat="43.04345646943351" lon="11.458904683097714"><ele>507.0</ele><time>2026-04-25T09:37:39.003Z</time></trkpt><trkpt lat="43.043372769916076" lon="11.45899955167742"><ele>507.0</ele><time>2026-04-25T09:37:40.003Z</time></trkpt><trkpt lat="43.0432810562302" lon="11.459081073635195"><ele>507.00000000000006</ele><time>2026-04-25T09:37:41.003Z</time></trkpt><trkpt lat="43.04318393262101" lon="11.459152097579844"><ele>507.00000000000006</ele><time>2026-04-25T09:37:42.003Z</time></trkpt><trkpt lat="43.04308900881323" lon="11.459213608177269"><ele>507.0</ele><time>2026-04-25T09:37:43.003Z</time></trkpt><trkpt lat="43.042996512553515" lon="11.45927885173952"><ele>507.0</ele><time>2026-04-25T09:37:44.003Z</time></trkpt><trkpt lat="43.04292043505406" lon="11.459341927642079"><ele>507.0</ele><time>2026-04-25T09:37:45.003Z</time></trkpt><trkpt lat="43.0428643068399" lon="11.459432695126152"><ele>507.00000000000006</ele><time>2026-04-25T09:37:46.003Z</time></trkpt><trkpt lat="43.04281526017048" lon="11.459549706368241"><ele>507.00000000000006</ele><time>2026-04-25T09:37:47.003Z</time></trkpt><trkpt lat="43.04277742005646" lon="11.459686340785968"><ele>507.0</ele><time>2026-04-25T09:37:48.003Z</time></trkpt><trkpt lat="43.04274443096702" lon="11.45983052386268"><ele>507.0</ele><time>2026-04-25T09:37:49.003Z</time></trkpt><trkpt lat="43.04272221772412" lon="11.45995616810313"><ele>507.6</ele><time>2026-04-25T09:37:50.003Z</time></trkpt><trkpt lat="43.042702832918174" lon="11.460080280034857"><ele>508.20000000000005</ele><time>2026-04-25T09:37:51.003Z</time></trkpt><trkpt lat="43.0426983738743" lon="11.460197483498968"><ele>508.8</ele><time>2026-04-25T09:37:52.003Z</time></trkpt><trkpt lat="43.04272113093684" lon="11.46031522347882"><ele>509.4</ele><time>2026-04-25T09:37:53.003Z</time></trkpt><trkpt lat="43.042764623026194" lon="11.460425369201284"><ele>510.0</ele><time>2026-04-25T09:37:54.003Z</time></trkpt><trkpt lat="43.04283359395572" lon="11.46054795934094"><ele>510.0</ele><time>2026-04-25T09:37:55.003Z</time></trkpt><trkpt lat="43.042906059709324" lon="11.460691016817577"><ele>510.0</ele><time>2026-04-25T09:37:56.003Z</time></trkpt><trkpt lat="43.04297326974689" lon="11.4608327871222"><ele>510.0</ele><time>2026-04-25T09:37:57.003Z</time></trkpt><trkpt lat="43.0430408384313" lon="11.460984953006797"><ele>510.0</ele><time>2026-04-25T09:37:58.003Z</time></trkpt><trkpt lat="43.043106732175694" lon="11.46112809461207"><ele>510.0</ele><time>2026-04-25T09:37:59.003Z</time></trkpt><trkpt lat="43.04316592162888" lon="11.461274602608949"><ele>510.0</ele><time>2026-04-25T09:38:00Z</time></trkpt><trkpt lat="43.043224352810476" lon="11.46142087247663"><ele>510.0</ele><time>2026-04-25T09:38:01Z</time></trkpt><trkpt lat="43.043289073431" lon="11.461585089734509"><ele>510.0</ele><time>2026-04-25T09:38:02Z</time></trkpt><trkpt lat="43.04335563651128" lon="11.461748326250977"><ele>507.75</ele><time>2026-04-25T09:38:03Z</time></trkpt><trkpt lat="43.0434145825797" lon="11.461899618818755"><ele>505.5</ele><time>2026-04-25T09:38:04Z</time></trkpt><trkpt lat="43.04347144304901" lon="11.462044330017568"><ele>503.25</ele><time>2026-04-25T09:38:05Z</time></trkpt><trkpt lat="43.04352565746674" lon="11.462185400601843"><ele>501.0</ele><time>2026-04-25T09:38:06Z</time></trkpt><trkpt lat="43.04357085134205" lon="11.462315804086748"><ele>501.0</ele><time>2026-04-25T09:38:07Z</time></trkpt><trkpt lat="43.04360605039385" lon="11.462430785898947"><ele>501.0</ele><time>2026-04-25T09:38:08Z</time></trkpt><trkpt lat="43.04362625177766" lon="11.462536683761808"><ele>501.0</ele><time>2026-04-25T09:38:09Z</time></trkpt><trkpt lat="43.04363292922638" lon="11.462646564694428"><ele>501.0</ele><time>2026-04-25T09:38:10Z</time></trkpt><trkpt lat="43.043616509262066" lon="11.462760967613457"><ele>501.0</ele><time>2026-04-25T09:38:11Z</time></trkpt><trkpt lat="43.04357703849658" lon="11.46286176066156"><ele>501.0</ele><time>2026-04-25T09:38:12Z</time></trkpt><trkpt lat="43.04351641625619" lon="11.462953537982399"><ele>501.0</ele><time>2026-04-25T09:38:13Z</time></trkpt><trkpt lat="43.043437928692214" lon="11.463052438273394"><ele>501.0</ele><time>2026-04-25T09:38:14Z</time></trkpt><trkpt lat="43.04335557126998" lon="11.463159675501014"><ele>501.0</ele><time>2026-04-25T09:38:15Z</time></trkpt><trkpt lat="43.04328378685272" lon="11.463277974123068"><ele>501.0</ele><time>2026-04-25T09:38:16Z</time></trkpt><trkpt lat="43.04321952498442" lon="11.463403247490872"><ele>501.0</ele><time>2026-04-25T09:38:17Z</time></trkpt><trkpt lat="43.04317100392072" lon="11.463531576857953"><ele>500.5</ele><time>2026-04-25T09:38:18Z</time></trkpt><trkpt lat="43.043145948241246" lon="11.463666567846644"><ele>500.0</ele><time>2026-04-25T09:38:19Z</time></trkpt><trkpt lat="43.043129532048994" lon="11.463827310625149"><ele>499.5</ele><time>2026-04-25T09:38:20Z</time></trkpt><trkpt lat="43.04310505368582" lon="11.464023369653642"><ele>499.0</ele><time>2026-04-25T09:38:21Z</time></trkpt><trkpt lat="43.043080598420595" lon="11.464204648045184"><ele>499.0</ele><time>2026-04-25T09:38:22Z</time></trkpt><trkpt lat="43.04305531011815" lon="11.464374126882088"><ele>499.0</ele><time>2026-04-25T09:38:23Z</time></trkpt><trkpt lat="43.04303331539976" lon="11.464531255633455"><ele>499.0</ele><time>2026-04-25T09:38:24Z</time></trkpt><trkpt lat="43.04300022190263" lon="11.464693303293746"><ele>499.0</ele><time>2026-04-25T09:38:25Z</time></trkpt><trkpt lat="43.04296413653138" lon="11.46484514581218"><ele>500.0</ele><time>2026-04-25T09:38:26Z</time></trkpt><trkpt lat="43.042917820978246" lon="11.464988351238205"><ele>501.0</ele><time>2026-04-25T09:38:27Z</time></trkpt><trkpt lat="43.042861723512814" lon="11.465128910505994"><ele>502.0</ele><time>2026-04-25T09:38:28Z</time></trkpt><trkpt lat="43.04280299561879" lon="11.465265791160865"><ele>503.0</ele><time>2026-04-25T09:38:29.001Z</time></trkpt><trkpt lat="43.04274640700897" lon="11.465406633149483"><ele>502.75</ele><time>2026-04-25T09:38:30.001Z</time></trkpt><trkpt lat="43.04270391698216" lon="11.46555301226327"><ele>502.5</ele><time>2026-04-25T09:38:31.001Z</time></trkpt><trkpt lat="43.04267808155083" lon="11.465711759145416"><ele>502.25</ele><time>2026-04-25T09:38:32.001Z</time></trkpt><trkpt lat="43.04266624042188" lon="11.465885081878596"><ele>502.0</ele><time>2026-04-25T09:38:33.001Z</time></trkpt><trkpt lat="43.04266075503893" lon="11.466067195131927"><ele>501.6666666666667</ele><time>2026-04-25T09:38:34.001Z</time></trkpt><trkpt lat="43.04265106718553" lon="11.466284430271305"><ele>501.33333333333337</ele><time>2026-04-25T09:38:35.001Z</time></trkpt><trkpt lat="43.04263812103518" lon="11.466509855449813"><ele>501.0</ele><time>2026-04-25T09:38:36.001Z</time></trkpt><trkpt lat="43.042627830715844" lon="11.46670548690718"><ele>501.0</ele><time>2026-04-25T09:38:37.001Z</time></trkpt><trkpt lat="43.04261757125768" lon="11.466865916297856"><ele>501.0</ele><time>2026-04-25T09:38:38.001Z</time></trkpt><trkpt lat="43.042602603478244" lon="11.467012599368894"><ele>501.0</ele><time>2026-04-25T09:38:39.001Z</time></trkpt><trkpt lat="43.04257518412435" lon="11.467142549486027"><ele>501.0</ele><time>2026-04-25T09:38:40.001Z</time></trkpt><trkpt lat="43.04253398124034" lon="11.467269764779624"><ele>501.0</ele><time>2026-04-25T09:38:41.001Z</time></trkpt><trkpt lat="43.04247915078403" lon="11.467415959908584"><ele>501.66666666666663</ele><time>2026-04-25T09:38:42.001Z</time></trkpt><trkpt lat="43.042407154777436" lon="11.467610604079873"><ele>502.3333333333333</ele><time>2026-04-25T09:38:43.001Z</time></trkpt><trkpt lat="43.04234067929809" lon="11.467813003837845"><ele>503.0</ele><time>2026-04-25T09:38:44.001Z</time></trkpt><trkpt lat="43.04229018636068" lon="11.467996274000383"><ele>503.5</ele><time>2026-04-25T09:38:45.001Z</time></trkpt><trkpt lat="43.04224459453333" lon="11.468177492980068"><ele>504.0</ele><time>2026-04-25T09:38:46.001Z</time></trkpt><trkpt lat="43.04220507176483" lon="11.46835362517429"><ele>504.5</ele><time>2026-04-25T09:38:47.001Z</time></trkpt><trkpt lat="43.04216927665631" lon="11.468518700833616"><ele>505.0</ele><time>2026-04-25T09:38:48.001Z</time></trkpt><trkpt lat="43.04213333351381" lon="11.468668937823384"><ele>505.2</ele><time>2026-04-25T09:38:49.001Z</time></trkpt><trkpt lat="43.04210017579848" lon="11.468809095449673"><ele>505.4</ele><time>2026-04-25T09:38:50.001Z</time></trkpt><trkpt lat="43.04205718172015" lon="11.46894911883394"><ele>505.6</ele><time>2026-04-25T09:38:51.001Z</time></trkpt><trkpt lat="43.04199743216306" lon="11.469078591393295"><ele>505.8</ele><time>2026-04-25T09:38:52.001Z</time></trkpt><trkpt lat="43.04191565932358" lon="11.469186720716877"><ele>506.0</ele><time>2026-04-25T09:38:53.001Z</time></trkpt><trkpt lat="43.04181351111222" lon="11.469269559043543"><ele>506.0</ele><time>2026-04-25T09:38:54.001Z</time></trkpt><trkpt lat="43.04169843798517" lon="11.469340439391653"><ele>506.0</ele><time>2026-04-25T09:38:55.001Z</time></trkpt><trkpt lat="43.04157621909189" lon="11.469401124914983"><ele>506.0</ele><time>2026-04-25T09:38:56.001Z</time></trkpt><trkpt lat="43.04144937364202" lon="11.469458979014943"><ele>506.0</ele><time>2026-04-25T09:38:57.001Z</time></trkpt><trkpt lat="43.0413236515386" lon="11.469522197826121"><ele>507.5</ele><time>2026-04-25T09:38:58.001Z</time></trkpt><trkpt lat="43.04120617879114" lon="11.469593752792814"><ele>509.0</ele><time>2026-04-25T09:38:59.001Z</time></trkpt><trkpt lat="43.04109567803564" lon="11.469684839947488"><ele>510.5</ele><time>2026-04-25T09:39:00.001Z</time></trkpt><trkpt lat="43.04098927863716" lon="11.469797349389387"><ele>512.0</ele><time>2026-04-25T09:39:01.001Z</time></trkpt><trkpt lat="43.04087297160916" lon="11.469909712208596"><ele>514.25</ele><time>2026-04-25T09:39:02.001Z</time></trkpt><trkpt lat="43.04076200290467" lon="11.470027066435017"><ele>516.5</ele><time>2026-04-25T09:39:03.001Z</time></trkpt><trkpt lat="43.04065493808428" lon="11.470158002490997"><ele>518.75</ele><time>2026-04-25T09:39:04.001Z</time></trkpt><trkpt lat="43.040561571228345" lon="11.470306923164296"><ele>521.0</ele><time>2026-04-25T09:39:05.001Z</time></trkpt><trkpt lat="43.04047378973213" lon="11.470450437058444"><ele>522.75</ele><time>2026-04-25T09:39:06.001Z</time></trkpt><trkpt lat="43.0403770200914" lon="11.470579969193079"><ele>524.5</ele><time>2026-04-25T09:39:07.002Z</time></trkpt><trkpt lat="43.04027810494695" lon="11.470664501957963"><ele>526.25</ele><time>2026-04-25T09:39:08.002Z</time></trkpt><trkpt lat="43.04015222250478" lon="11.47071297601912"><ele>528.0</ele><time>2026-04-25T09:39:09.002Z</time></trkpt><trkpt lat="43.04000972717335" lon="11.47074715443096"><ele>529.3333333333334</ele><time>2026-04-25T09:39:10.002Z</time></trkpt><trkpt lat="43.03985699749602" lon="11.470812345310817"><ele>530.6666666666667</ele><time>2026-04-25T09:39:11.002Z</time></trkpt><trkpt lat="43.03967971712595" lon="11.470913127478257"><ele>532.0</ele><time>2026-04-25T09:39:12.002Z</time></trkpt><trkpt lat="43.03949023114241" lon="11.471022502871731"><ele>532.0</ele><time>2026-04-25T09:39:13.002Z</time></trkpt><trkpt lat="43.039319516387174" lon="11.471124053679496"><ele>532.0</ele><time>2026-04-25T09:39:14.002Z</time></trkpt><trkpt lat="43.03917385552464" lon="11.471229632082524"><ele>532.0</ele><time>2026-04-25T09:39:15.002Z</time></trkpt><trkpt lat="43.039036719408095" lon="11.471350803911738"><ele>532.25</ele><time>2026-04-25T09:39:16.002Z</time></trkpt><trkpt lat="43.038926629526266" lon="11.471494402339188"><ele>532.5</ele><time>2026-04-25T09:39:17.002Z</time></trkpt><trkpt lat="43.03883304375904" lon="11.471651749226513"><ele>532.75</ele><time>2026-04-25T09:39:18.002Z</time></trkpt><trkpt lat="43.03875150799963" lon="11.471812885497615"><ele>533.0</ele><time>2026-04-25T09:39:19.002Z</time></trkpt><trkpt lat="43.03870067703376" lon="11.471987503988325"><ele>536.75</ele><time>2026-04-25T09:39:20.002Z</time></trkpt><trkpt lat="43.038664161739895" lon="11.472154621102412"><ele>540.5</ele><time>2026-04-25T09:39:21.002Z</time></trkpt><trkpt lat="43.03865599757557" lon="11.472324656826482"><ele>544.25</ele><time>2026-04-25T09:39:22.002Z</time></trkpt><trkpt lat="43.038650944505925" lon="11.472521013124855"><ele>548.0</ele><time>2026-04-25T09:39:23.002Z</time></trkpt><trkpt lat="43.03867671043491" lon="11.4727366655076"><ele>551.0</ele><time>2026-04-25T09:39:24.002Z</time></trkpt><trkpt lat="43.038720034397336" lon="11.472942798189345"><ele>554.0</ele><time>2026-04-25T09:39:25.002Z</time></trkpt><trkpt lat="43.03873110263811" lon="11.473131679721797"><ele>557.0</ele><time>2026-04-25T09:39:26.002Z</time></trkpt><trkpt lat="43.038728925736415" lon="11.47329886103463"><ele>560.0</ele><time>2026-04-25T09:39:27.002Z</time></trkpt><trkpt lat="43.038696923344894" lon="11.47346887937893"><ele>560.0</ele><time>2026-04-25T09:39:28.002Z</time></trkpt><trkpt lat="43.0386386061443" lon="11.473614516941073"><ele>560.0</ele><time>2026-04-25T09:39:29.002Z</time></trkpt><trkpt lat="43.038553552179195" lon="11.473730871181319"><ele>560.0</ele><time>2026-04-25T09:39:30.002Z</time></trkpt><trkpt lat="43.038446719759676" lon="11.473824059688571"><ele>560.0</ele><time>2026-04-25T09:39:31.002Z</time></trkpt><trkpt lat="43.038322329242845" lon="11.473898863697295"><ele>562.25</ele><time>2026-04-25T09:39:32.002Z</time></trkpt><trkpt lat="43.03819949698076" lon="11.473958086831074"><ele>564.5</ele><time>2026-04-25T09:39:33.002Z</time></trkpt><trkpt lat="43.03807425666908" lon="11.474022266180668"><ele>566.75</ele><time>2026-04-25T09:39:34.002Z</time></trkpt><trkpt lat="43.037951485136425" lon="11.474091674889552"><ele>569.0</ele><time>2026-04-25T09:39:35.002Z</time></trkpt><trkpt lat="43.03783230476655" lon="11.474185887316983"><ele>569.0</ele><time>2026-04-25T09:39:36.002Z</time></trkpt><trkpt lat="43.03774694520356" lon="11.47430602193726"><ele>569.0</ele><time>2026-04-25T09:39:37.002Z</time></trkpt><trkpt lat="43.03768852473291" lon="11.474444541243"><ele>569.0</ele><time>2026-04-25T09:39:38.002Z</time></trkpt><trkpt lat="43.03766451327784" lon="11.474617001440826"><ele>569.0</ele><time>2026-04-25T09:39:39.002Z</time></trkpt><trkpt lat="43.03767614943442" lon="11.474799105282353"><ele>572.0</ele><time>2026-04-25T09:39:40.002Z</time></trkpt><trkpt lat="43.037686188808976" lon="11.474990664486135"><ele>575.0</ele><time>2026-04-25T09:39:41.002Z</time></trkpt><trkpt lat="43.03769457245143" lon="11.47517757821753"><ele>578.0</ele><time>2026-04-25T09:39:42.002Z</time></trkpt><trkpt lat="43.03770036239473" lon="11.475366933829712"><ele>581.0</ele><time>2026-04-25T09:39:43.002Z</time></trkpt><trkpt lat="43.03770527823336" lon="11.475557182706078"><ele>583.6666666666666</ele><time>2026-04-25T09:39:44.003Z</time></trkpt><trkpt lat="43.03771179901273" lon="11.475760804990674"><ele>586.3333333333334</ele><time>2026-04-25T09:39:45.003Z</time></trkpt><trkpt lat="43.037721952634065" lon="11.475982149037476"><ele>589.0</ele><time>2026-04-25T09:39:46.003Z</time></trkpt><trkpt lat="43.037734777744966" lon="11.476225134151246"><ele>590.0</ele><time>2026-04-25T09:39:47.003Z</time></trkpt><trkpt lat="43.037749538063785" lon="11.476488157343478"><ele>591.0</ele><time>2026-04-25T09:39:48.003Z</time></trkpt><trkpt lat="43.03776427818845" lon="11.476747208333265"><ele>592.0</ele><time>2026-04-25T09:39:49.003Z</time></trkpt><trkpt lat="43.0377718190029" lon="11.476989316418226"><ele>594.0</ele><time>2026-04-25T09:39:50.003Z</time></trkpt><trkpt lat="43.03777385865458" lon="11.477226615390368"><ele>596.0</ele><time>2026-04-25T09:39:51.003Z</time></trkpt><trkpt lat="43.03775833442921" lon="11.47747153937663"><ele>598.0</ele><time>2026-04-25T09:39:52.003Z</time></trkpt><trkpt lat="43.03773396273815" lon="11.477710162586606"><ele>598.0</ele><time>2026-04-25T09:39:53.003Z</time></trkpt><trkpt lat="43.03769799961919" lon="11.477940280974162"><ele>598.0</ele><time>2026-04-25T09:39:54.003Z</time></trkpt><trkpt lat="43.037661440190575" lon="11.478142070288524"><ele>598.0</ele><time>2026-04-25T09:39:55.003Z</time></trkpt><trkpt lat="43.03761782023109" lon="11.478326984961473"><ele>598.0</ele><time>2026-04-25T09:39:56.003Z</time></trkpt><trkpt lat="43.037565605902856" lon="11.478490175558495"><ele>598.0</ele><time>2026-04-25T09:39:57.003Z</time></trkpt><trkpt lat="43.03750797164319" lon="11.478631622367086"><ele>598.0</ele><time>2026-04-25T09:39:58.003Z</time></trkpt><trkpt lat="43.03744453134762" lon="11.478758909382215"><ele>598.0</ele><time>2026-04-25T09:39:59.003Z</time></trkpt><trkpt lat="43.03737471183851" lon="11.478869256589821"><ele>598.1999999999999</ele><time>2026-04-25T09:40:00.003Z</time></trkpt><trkpt lat="43.03730302803516" lon="11.4789747608438"><ele>598.4</ele><time>2026-04-25T09:40:01.003Z</time></trkpt><trkpt lat="43.03723773701821" lon="11.479073549179365"><ele>598.5999999999999</ele><time>2026-04-25T09:40:02.003Z</time></trkpt><trkpt lat="43.037173033096586" lon="11.479169694281012"><ele>598.8</ele><time>2026-04-25T09:40:03.003Z</time></trkpt><trkpt lat="43.03711843518967" lon="11.479258536362595"><ele>599.0</ele><time>2026-04-25T09:40:04.003Z</time></trkpt><trkpt lat="43.037064149151846" lon="11.47934403298015"><ele>599.0</ele><time>2026-04-25T09:40:05.003Z</time></trkpt><trkpt lat="43.03700367759614" lon="11.479409600391454"><ele>599.0</ele><time>2026-04-25T09:40:06Z</time></trkpt><trkpt lat="43.03695912889121" lon="11.479480655423592"><ele>599.0</ele><time>2026-04-25T09:40:07Z</time></trkpt><trkpt lat="43.03689680251094" lon="11.479600200873422"><ele>599.0</ele><time>2026-04-25T09:40:09Z</time></trkpt><trkpt lat="43.03685229185739" lon="11.479680918191004"><ele>599.0</ele><time>2026-04-25T09:40:11Z</time></trkpt><trkpt lat="43.0368138954671" lon="11.479751440421635"><ele>599.0</ele><time>2026-04-25T09:40:25Z</time></trkpt><trkpt lat="43.03689379084877" lon="11.47989009729153"><ele>599.5</ele><time>2026-04-25T09:40:26Z</time></trkpt><trkpt lat="43.037065851584885" lon="11.480000500533615"><ele>600.0</ele><time>2026-04-25T09:40:28Z</time></trkpt><trkpt lat="43.037166617092474" lon="11.480069207575259"><ele>600.5</ele><time>2026-04-25T09:40:29Z</time></trkpt><trkpt lat="43.03727412647816" lon="11.480160808735846"><ele>601.0</ele><time>2026-04-25T09:40:30Z</time></trkpt><trkpt lat="43.03738636639225" lon="11.48026767114268"><ele>599.0</ele><time>2026-04-25T09:40:31Z</time></trkpt><trkpt lat="43.037511727211616" lon="11.48037332957007"><ele>597.0</ele><time>2026-04-25T09:40:32Z</time></trkpt><trkpt lat="43.03764413721701" lon="11.48048351437664"><ele>595.0</ele><time>2026-04-25T09:40:33Z</time></trkpt><trkpt lat="43.03779003398419" lon="11.48059773450816"><ele>594.0</ele><time>2026-04-25T09:40:34Z</time></trkpt><trkpt lat="43.03792950004287" lon="11.48072040821046"><ele>593.0</ele><time>2026-04-25T09:40:35Z</time></trkpt><trkpt lat="43.03807516717331" lon="11.480860027600126"><ele>592.0</ele><time>2026-04-25T09:40:36.001Z</time></trkpt><trkpt lat="43.03823296804605" lon="11.480998638359553"><ele>591.3333333333334</ele><time>2026-04-25T09:40:37.001Z</time></trkpt><trkpt lat="43.038392490726196" lon="11.48114354192134"><ele>590.6666666666666</ele><time>2026-04-25T09:40:38.001Z</time></trkpt><trkpt lat="43.03856494770003" lon="11.481293611907365"><ele>590.0</ele><time>2026-04-25T09:40:39.001Z</time></trkpt><trkpt lat="43.03876260204298" lon="11.481456188651194"><ele>589.6666666666666</ele><time>2026-04-25T09:40:40.001Z</time></trkpt><trkpt lat="43.03894517951566" lon="11.48164297710635"><ele>589.3333333333334</ele><time>2026-04-25T09:40:41.001Z</time></trkpt><trkpt lat="43.039124613296245" lon="11.481781382543288"><ele>589.0</ele><time>2026-04-25T09:40:42.001Z</time></trkpt><trkpt lat="43.03928993599185" lon="11.481927631701351"><ele>591.3333333333334</ele><time>2026-04-25T09:40:43.001Z</time></trkpt><trkpt lat="43.03945568929216" lon="11.4820768402726"><ele>593.6666666666666</ele><time>2026-04-25T09:40:44.001Z</time></trkpt><trkpt lat="43.03962400315916" lon="11.482226342583761"><ele>596.0</ele><time>2026-04-25T09:40:45.001Z</time></trkpt><trkpt lat="43.03978667970276" lon="11.48237480512702"><ele>599.0</ele><time>2026-04-25T09:40:46.001Z</time></trkpt><trkpt lat="43.039949491950914" lon="11.482510748817125"><ele>602.0</ele><time>2026-04-25T09:40:47.001Z</time></trkpt><trkpt lat="43.04010746932653" lon="11.482632947748277"><ele>605.0</ele><time>2026-04-25T09:40:48.001Z</time></trkpt><trkpt lat="43.040270429803556" lon="11.482737029919157"><ele>606.6666666666666</ele><time>2026-04-25T09:40:49.001Z</time></trkpt><trkpt lat="43.04043739236544" lon="11.482819509136782"><ele>608.3333333333334</ele><time>2026-04-25T09:40:50.001Z</time></trkpt><trkpt lat="43.04060999370434" lon="11.482889603042285"><ele>610.0</ele><time>2026-04-25T09:40:51.001Z</time></trkpt><trkpt lat="43.04078524015311" lon="11.482950780921769"><ele>612.6666666666667</ele><time>2026-04-25T09:40:52.001Z</time></trkpt><trkpt lat="43.04096100280303" lon="11.483004894898617"><ele>615.3333333333334</ele><time>2026-04-25T09:40:53.001Z</time></trkpt><trkpt lat="43.04113454856366" lon="11.483055328555146"><ele>618.0</ele><time>2026-04-25T09:40:54.001Z</time></trkpt><trkpt lat="43.041309297334585" lon="11.48311032144566"><ele>618.0</ele><time>2026-04-25T09:40:55.001Z</time></trkpt><trkpt lat="43.04148505219819" lon="11.483166057184508"><ele>618.0</ele><time>2026-04-25T09:40:56.001Z</time></trkpt><trkpt lat="43.041663341951555" lon="11.483220234341406"><ele>618.0</ele><time>2026-04-25T09:40:57.001Z</time></trkpt><trkpt lat="43.041837493663245" lon="11.483270546729829"><ele>616.0</ele><time>2026-04-25T09:40:58.001Z</time></trkpt><trkpt lat="43.04200625353492" lon="11.48331940191525"><ele>614.0</ele><time>2026-04-25T09:40:59.001Z</time></trkpt><trkpt lat="43.04216181661448" lon="11.483362141957564"><ele>612.0</ele><time>2026-04-25T09:41:00.001Z</time></trkpt><trkpt lat="43.042307080430184" lon="11.48340240131442"><ele>612.0</ele><time>2026-04-25T09:41:01.001Z</time></trkpt><trkpt lat="43.04244745243722" lon="11.48344531897599"><ele>612.0</ele><time>2026-04-25T09:41:02.001Z</time></trkpt><trkpt lat="43.04258490345855" lon="11.48348184703523"><ele>612.0</ele><time>2026-04-25T09:41:03.001Z</time></trkpt><trkpt lat="43.042718915489175" lon="11.483519670835207"><ele>612.0</ele><time>2026-04-25T09:41:04.001Z</time></trkpt><trkpt lat="43.04285077525963" lon="11.48355402263763"><ele>612.25</ele><time>2026-04-25T09:41:05.001Z</time></trkpt><trkpt lat="43.04298052047572" lon="11.48359609526807"><ele>612.5</ele><time>2026-04-25T09:41:06.001Z</time></trkpt><trkpt lat="43.043110269808565" lon="11.48363491775465"><ele>612.75</ele><time>2026-04-25T09:41:07.001Z</time></trkpt><trkpt lat="43.0432321594631" lon="11.483674762252848"><ele>613.0</ele><time>2026-04-25T09:41:08.001Z</time></trkpt><trkpt lat="43.04335522724224" lon="11.483711493423137"><ele>613.5</ele><time>2026-04-25T09:41:09.001Z</time></trkpt><trkpt lat="43.04348015185157" lon="11.483750138201556"><ele>614.0</ele><time>2026-04-25T09:41:10.001Z</time></trkpt><trkpt lat="43.043608733427" lon="11.483810486865197"><ele>614.5</ele><time>2026-04-25T09:41:11.001Z</time></trkpt><trkpt lat="43.043719405471876" lon="11.483911768865479"><ele>615.0</ele><time>2026-04-25T09:41:12.001Z</time></trkpt><trkpt lat="43.043823887969104" lon="11.484007161842051"><ele>614.0</ele><time>2026-04-25T09:41:13.002Z</time></trkpt><trkpt lat="43.04394369113222" lon="11.484080321732089"><ele>613.0</ele><time>2026-04-25T09:41:14.002Z</time></trkpt><trkpt lat="43.04404747143968" lon="11.484193185687467"><ele>612.0</ele><time>2026-04-25T09:41:15.002Z</time></trkpt><trkpt lat="43.0441473976991" lon="11.484298253213572"><ele>611.0</ele><time>2026-04-25T09:41:16.002Z</time></trkpt><trkpt lat="43.04424283048755" lon="11.484401351986227"><ele>611.0</ele><time>2026-04-25T09:41:17.002Z</time></trkpt><trkpt lat="43.044334327832246" lon="11.484514413269274"><ele>611.0</ele><time>2026-04-25T09:41:18.002Z</time></trkpt><trkpt lat="43.044416612547515" lon="11.48463976288526"><ele>611.0</ele><time>2026-04-25T09:41:19.002Z</time></trkpt><trkpt lat="43.04448669952915" lon="11.484780882225202"><ele>611.0</ele><time>2026-04-25T09:41:20.002Z</time></trkpt><trkpt lat="43.04454238389638" lon="11.48493716666084"><ele>611.25</ele><time>2026-04-25T09:41:21.002Z</time></trkpt><trkpt lat="43.04459347507629" lon="11.485104603800188"><ele>611.5</ele><time>2026-04-25T09:41:22.002Z</time></trkpt><trkpt lat="43.044643009091196" lon="11.485279158763818"><ele>611.75</ele><time>2026-04-25T09:41:23.002Z</time></trkpt><trkpt lat="43.044697897014345" lon="11.48545431315869"><ele>612.0</ele><time>2026-04-25T09:41:24.002Z</time></trkpt><trkpt lat="43.04475392967487" lon="11.485634512571599"><ele>612.5</ele><time>2026-04-25T09:41:25.002Z</time></trkpt><trkpt lat="43.04480802831159" lon="11.485822340185125"><ele>613.0</ele><time>2026-04-25T09:41:26.002Z</time></trkpt><trkpt lat="43.04485300534415" lon="11.48601589248175"><ele>613.5</ele><time>2026-04-25T09:41:27.002Z</time></trkpt><trkpt lat="43.04491258852924" lon="11.486200828409613"><ele>614.0</ele><time>2026-04-25T09:41:28.002Z</time></trkpt><trkpt lat="43.044964082558344" lon="11.486391111765457"><ele>614.25</ele><time>2026-04-25T09:41:29.002Z</time></trkpt><trkpt lat="43.04501020628811" lon="11.486563974162273"><ele>614.5</ele><time>2026-04-25T09:41:30.002Z</time></trkpt><trkpt lat="43.04505857729288" lon="11.48672300778002"><ele>614.75</ele><time>2026-04-25T09:41:31.002Z</time></trkpt><trkpt lat="43.04512284749243" lon="11.486856726992759"><ele>615.0</ele><time>2026-04-25T09:41:32.002Z</time></trkpt><trkpt lat="43.04520713741961" lon="11.486969199188625"><ele>615.0</ele><time>2026-04-25T09:41:33.002Z</time></trkpt><trkpt lat="43.04531781745671" lon="11.487036757379116"><ele>615.0</ele><time>2026-04-25T09:41:34.002Z</time></trkpt><trkpt lat="43.04543667312697" lon="11.487067563136598"><ele>615.0</ele><time>2026-04-25T09:41:35.002Z</time></trkpt><trkpt lat="43.0455587660379" lon="11.487077577685913"><ele>615.0</ele><time>2026-04-25T09:41:36.002Z</time></trkpt><trkpt lat="43.04568225695178" lon="11.487079099935425"><ele>614.5</ele><time>2026-04-25T09:41:37.002Z</time></trkpt><trkpt lat="43.04580291439118" lon="11.487104684155954"><ele>614.0</ele><time>2026-04-25T09:41:38.002Z</time></trkpt><trkpt lat="43.04591327279572" lon="11.48717804291186"><ele>613.5</ele><time>2026-04-25T09:41:39.002Z</time></trkpt><trkpt lat="43.04600241615881" lon="11.487299077693962"><ele>613.0</ele><time>2026-04-25T09:41:40.002Z</time></trkpt><trkpt lat="43.0460768564272" lon="11.48743859565563"><ele>613.0</ele><time>2026-04-25T09:41:41.002Z</time></trkpt><trkpt lat="43.04614370500991" lon="11.487586640790962"><ele>613.0</ele><time>2026-04-25T09:41:42.002Z</time></trkpt><trkpt lat="43.046200065603394" lon="11.487750358785133"><ele>613.0</ele><time>2026-04-25T09:41:43.002Z</time></trkpt><trkpt lat="43.04624635389681" lon="11.487924162538969"><ele>613.0</ele><time>2026-04-25T09:41:44.002Z</time></trkpt><trkpt lat="43.04628030435314" lon="11.488108430521791"><ele>610.25</ele><time>2026-04-25T09:41:45.002Z</time></trkpt><trkpt lat="43.04631282202782" lon="11.48830130038317"><ele>607.5</ele><time>2026-04-25T09:41:46.002Z</time></trkpt><trkpt lat="43.04635278716491" lon="11.488498211219651"><ele>604.75</ele><time>2026-04-25T09:41:47.002Z</time></trkpt><trkpt lat="43.04639472608554" lon="11.488686345020936"><ele>602.0</ele><time>2026-04-25T09:41:48.002Z</time></trkpt><trkpt lat="43.04643957812426" lon="11.488868569681104"><ele>600.0</ele><time>2026-04-25T09:41:49.002Z</time></trkpt><trkpt lat="43.046491855533866" lon="11.489045829432275"><ele>598.0</ele><time>2026-04-25T09:41:50.002Z</time></trkpt><trkpt lat="43.046559852981616" lon="11.48921374275929"><ele>596.0</ele><time>2026-04-25T09:41:51.003Z</time></trkpt><trkpt lat="43.046655646044954" lon="11.489347706161722"><ele>594.0</ele><time>2026-04-25T09:41:52.003Z</time></trkpt><trkpt lat="43.046769350315905" lon="11.489468061908434"><ele>599.25</ele><time>2026-04-25T09:41:53.003Z</time></trkpt><trkpt lat="43.0468973040489" lon="11.489530648756775"><ele>604.5</ele><time>2026-04-25T09:41:54.003Z</time></trkpt><trkpt lat="43.04702656426013" lon="11.489547789522597"><ele>609.75</ele><time>2026-04-25T09:41:55.003Z</time></trkpt><trkpt lat="43.04714620934242" lon="11.489555757113337"><ele>615.0</ele><time>2026-04-25T09:41:56.003Z</time></trkpt><trkpt lat="43.04727454768942" lon="11.48957337595385"><ele>612.0</ele><time>2026-04-25T09:41:57.003Z</time></trkpt><trkpt lat="43.04740686537548" lon="11.489604809602644"><ele>609.0</ele><time>2026-04-25T09:41:58.003Z</time></trkpt><trkpt lat="43.04750174121831" lon="11.489714690399705"><ele>606.0</ele><time>2026-04-25T09:41:59.003Z</time></trkpt><trkpt lat="43.04760237589042" lon="11.489790705750806"><ele>603.0</ele><time>2026-04-25T09:42:00.003Z</time></trkpt><trkpt lat="43.04769231355801" lon="11.48989736546624"><ele>603.0</ele><time>2026-04-25T09:42:01.003Z</time></trkpt><trkpt lat="43.047784160262246" lon="11.489991753696025"><ele>603.0</ele><time>2026-04-25T09:42:02.003Z</time></trkpt><trkpt lat="43.047887960685784" lon="11.49005274807161"><ele>603.0</ele><time>2026-04-25T09:42:03.003Z</time></trkpt><trkpt lat="43.04800152667331" lon="11.490074373867142"><ele>603.0</ele><time>2026-04-25T09:42:04.003Z</time></trkpt><trkpt lat="43.04812335809105" lon="11.490054787923464"><ele>603.0</ele><time>2026-04-25T09:42:05.003Z</time></trkpt><trkpt lat="43.048237877855684" lon="11.490042859808081"><ele>603.0</ele><time>2026-04-25T09:42:06.003Z</time></trkpt><trkpt lat="43.048346427026104" lon="11.490009842355175"><ele>603.0</ele><time>2026-04-25T09:42:07.003Z</time></trkpt><trkpt lat="43.04844938424396" lon="11.489955904275659"><ele>603.0</ele><time>2026-04-25T09:42:08.003Z</time></trkpt><trkpt lat="43.048554397820105" lon="11.48993991774923"><ele>603.0</ele><time>2026-04-25T09:42:09.003Z</time></trkpt><trkpt lat="43.04865535099194" lon="11.489941832467059"><ele>603.0</ele><time>2026-04-25T09:42:10.003Z</time></trkpt><trkpt lat="43.04874931390147" lon="11.489984373851602"><ele>603.0</ele><time>2026-04-25T09:42:11.003Z</time></trkpt><trkpt lat="43.04882865722869" lon="11.490083408830646"><ele>603.0</ele><time>2026-04-25T09:42:12Z</time></trkpt><trkpt lat="43.04888803594911" lon="11.490214172864821"><ele>603.0</ele><time>2026-04-25T09:42:13Z</time></trkpt><trkpt lat="43.04892463870387" lon="11.490358454661225"><ele>603.0</ele><time>2026-04-25T09:42:14Z</time></trkpt><trkpt lat="43.04896154867382" lon="11.49050039285416"><ele>601.4</ele><time>2026-04-25T09:42:15Z</time></trkpt><trkpt lat="43.049004843172234" lon="11.490642736779542"><ele>599.8</ele><time>2026-04-25T09:42:16Z</time></trkpt><trkpt lat="43.049039559490254" lon="11.49078248923926"><ele>598.2</ele><time>2026-04-25T09:42:17Z</time></trkpt><trkpt lat="43.0490846375508" lon="11.490908870525047"><ele>596.6</ele><time>2026-04-25T09:42:18Z</time></trkpt><trkpt lat="43.049150577942804" lon="11.491010881524446"><ele>595.0</ele><time>2026-04-25T09:42:19Z</time></trkpt><trkpt lat="43.049246425510844" lon="11.491063879409948"><ele>595.0</ele><time>2026-04-25T09:42:20Z</time></trkpt><trkpt lat="43.04935916568428" lon="11.491072461268026"><ele>595.0</ele><time>2026-04-25T09:42:21Z</time></trkpt><trkpt lat="43.04947447275868" lon="11.491042964558593"><ele>595.0</ele><time>2026-04-25T09:42:22Z</time></trkpt><trkpt lat="43.04959542486577" lon="11.491020568764645"><ele>595.0</ele><time>2026-04-25T09:42:23Z</time></trkpt><trkpt lat="43.04971843742586" lon="11.490997547623884"><ele>595.0</ele><time>2026-04-25T09:42:24Z</time></trkpt><trkpt lat="43.04983823436255" lon="11.490988118016404"><ele>595.0</ele><time>2026-04-25T09:42:25Z</time></trkpt><trkpt lat="43.04994792413812" lon="11.491016943263771"><ele>595.0</ele><time>2026-04-25T09:42:26Z</time></trkpt><trkpt lat="43.050052227752154" lon="11.491021916815154"><ele>595.0</ele><time>2026-04-25T09:42:27Z</time></trkpt><trkpt lat="43.05014979095433" lon="11.490988956094773"><ele>595.0</ele><time>2026-04-25T09:42:28Z</time></trkpt><trkpt lat="43.05022818667464" lon="11.49090479356138"><ele>595.5</ele><time>2026-04-25T09:42:29Z</time></trkpt><trkpt lat="43.05030906825383" lon="11.490790908955978"><ele>596.0</ele><time>2026-04-25T09:42:30Z</time></trkpt><trkpt lat="43.050374428662344" lon="11.49065628978149"><ele>596.5</ele><time>2026-04-25T09:42:31Z</time></trkpt><trkpt lat="43.05043326208697" lon="11.490531840149442"><ele>597.0</ele><time>2026-04-25T09:42:32Z</time></trkpt><trkpt lat="43.05049378187699" lon="11.490404911052057"><ele>600.5</ele><time>2026-04-25T09:42:33Z</time></trkpt><trkpt lat="43.050553976498065" lon="11.490277543993427"><ele>604.0</ele><time>2026-04-25T09:42:34Z</time></trkpt><trkpt lat="43.050613263250625" lon="11.490148088824462"><ele>607.5</ele><time>2026-04-25T09:42:35Z</time></trkpt><trkpt lat="43.05067286625664" lon="11.490015338172482"><ele>611.0</ele><time>2026-04-25T09:42:36Z</time></trkpt><trkpt lat="43.05073250478603" lon="11.489882508403719"><ele>609.2</ele><time>2026-04-25T09:42:37Z</time></trkpt><trkpt lat="43.050793764862135" lon="11.489748856021656"><ele>607.4000000000001</ele><time>2026-04-25T09:42:38Z</time></trkpt><trkpt lat="43.05086658588777" lon="11.48962802673368"><ele>605.6</ele><time>2026-04-25T09:42:39Z</time></trkpt><trkpt lat="43.05095512554074" lon="11.489539782051713"><ele>603.8000000000001</ele><time>2026-04-25T09:42:40Z</time></trkpt><trkpt lat="43.05105532685551" lon="11.489512485911684"><ele>602.0</ele><time>2026-04-25T09:42:41Z</time></trkpt><trkpt lat="43.05115650091436" lon="11.489543382062747"><ele>598.75</ele><time>2026-04-25T09:42:42Z</time></trkpt><trkpt lat="43.051246496882136" lon="11.48963111889669"><ele>595.5</ele><time>2026-04-25T09:42:43Z</time></trkpt><trkpt lat="43.051316383170324" lon="11.489750756129393"><ele>592.25</ele><time>2026-04-25T09:42:44Z</time></trkpt><trkpt lat="43.051366719123635" lon="11.48989162884293"><ele>589.0</ele><time>2026-04-25T09:42:45.001Z</time></trkpt><trkpt lat="43.051421627514806" lon="11.490029098053713"><ele>589.0</ele><time>2026-04-25T09:42:46.001Z</time></trkpt><trkpt lat="43.051478385618324" lon="11.490162530627803"><ele>589.0</ele><time>2026-04-25T09:42:47.001Z</time></trkpt><trkpt lat="43.05153416685533" lon="11.490289331089961"><ele>589.0</ele><time>2026-04-25T09:42:48.001Z</time></trkpt><trkpt lat="43.05159096129615" lon="11.490418423988785"><ele>589.0</ele><time>2026-04-25T09:42:49.001Z</time></trkpt><trkpt lat="43.05165617420321" lon="11.490539587984674"><ele>589.0</ele><time>2026-04-25T09:42:50.001Z</time></trkpt><trkpt lat="43.05174070367211" lon="11.49064909223328"><ele>585.0</ele><time>2026-04-25T09:42:51.001Z</time></trkpt><trkpt lat="43.05183335778408" lon="11.490749595818615"><ele>581.0</ele><time>2026-04-25T09:42:52.001Z</time></trkpt><trkpt lat="43.05193129321671" lon="11.490839121081043"><ele>577.0</ele><time>2026-04-25T09:42:53.001Z</time></trkpt><trkpt lat="43.052031318524094" lon="11.490921309659564"><ele>573.0</ele><time>2026-04-25T09:42:54.001Z</time></trkpt><trkpt lat="43.0521414389916" lon="11.490978578773518"><ele>573.0</ele><time>2026-04-25T09:42:55.001Z</time></trkpt><trkpt lat="43.05225870208671" lon="11.490999573938007"><ele>573.0</ele><time>2026-04-25T09:42:56.001Z</time></trkpt><trkpt lat="43.05237735406277" lon="11.490971618923348"><ele>573.0</ele><time>2026-04-25T09:42:57.001Z</time></trkpt><trkpt lat="43.052491487236715" lon="11.490951165370806"><ele>573.0</ele><time>2026-04-25T09:42:58.001Z</time></trkpt><trkpt lat="43.052592465361165" lon="11.49086984654287"><ele>573.8</ele><time>2026-04-25T09:42:59.001Z</time></trkpt><trkpt lat="43.05269809663084" lon="11.490815812580593"><ele>574.5999999999999</ele><time>2026-04-25T09:43:00.001Z</time></trkpt><trkpt lat="43.052796057556414" lon="11.490759445003226"><ele>575.4000000000001</ele><time>2026-04-25T09:43:01.001Z</time></trkpt><trkpt lat="43.0528883768587" lon="11.490699962258228"><ele>576.2</ele><time>2026-04-25T09:43:02.001Z</time></trkpt><trkpt lat="43.052972792817116" lon="11.490631024837997"><ele>577.0</ele><time>2026-04-25T09:43:03.001Z</time></trkpt><trkpt lat="43.05304064454971" lon="11.490538069056637"><ele>577.0</ele><time>2026-04-25T09:43:04.001Z</time></trkpt><trkpt lat="43.05309164201995" lon="11.490429303370746"><ele>577.0</ele><time>2026-04-25T09:43:05.001Z</time></trkpt><trkpt lat="43.05312988980187" lon="11.490309038595546"><ele>577.0</ele><time>2026-04-25T09:43:06.001Z</time></trkpt><trkpt lat="43.05316505690038" lon="11.490177474124247"><ele>577.0</ele><time>2026-04-25T09:43:07.001Z</time></trkpt><trkpt lat="43.05319073139322" lon="11.490035621058846"><ele>577.0</ele><time>2026-04-25T09:43:08.001Z</time></trkpt><trkpt lat="43.05321703599758" lon="11.489901779687036"><ele>575.4</ele><time>2026-04-25T09:43:09.001Z</time></trkpt><trkpt lat="43.05324215271769" lon="11.489772090161182"><ele>573.8000000000001</ele><time>2026-04-25T09:43:10.001Z</time></trkpt><trkpt lat="43.05326912320516" lon="11.489641004282676"><ele>572.2</ele><time>2026-04-25T09:43:11.001Z</time></trkpt><trkpt lat="43.05329649412075" lon="11.48950846483901"><ele>570.6</ele><time>2026-04-25T09:43:12.001Z</time></trkpt><trkpt lat="43.05332940939695" lon="11.489371544249442"><ele>569.0</ele><time>2026-04-25T09:43:13.001Z</time></trkpt><trkpt lat="43.053365272107925" lon="11.48923290873275"><ele>569.0</ele><time>2026-04-25T09:43:14.001Z</time></trkpt><trkpt lat="43.05341305286722" lon="11.489105638237776"><ele>569.0</ele><time>2026-04-25T09:43:15.001Z</time></trkpt><trkpt lat="43.05348170553342" lon="11.489003200993203"><ele>569.0</ele><time>2026-04-25T09:43:16.001Z</time></trkpt><trkpt lat="43.053567650006094" lon="11.488935937662553"><ele>569.0</ele><time>2026-04-25T09:43:17.001Z</time></trkpt><trkpt lat="43.05366001275574" lon="11.488916799107871"><ele>569.0</ele><time>2026-04-25T09:43:18.001Z</time></trkpt><trkpt lat="43.053744915717814" lon="11.488882952653883"><ele>569.0</ele><time>2026-04-25T09:43:19.001Z</time></trkpt><trkpt lat="43.05382292157617" lon="11.488836610818044"><ele>569.0</ele><time>2026-04-25T09:43:20.001Z</time></trkpt><trkpt lat="43.05390211907701" lon="11.488811377424602"><ele>569.0</ele><time>2026-04-25T09:43:21.001Z</time></trkpt><trkpt lat="43.0539819961073" lon="11.488781690499243"><ele>569.0</ele><time>2026-04-25T09:43:22.002Z</time></trkpt><trkpt lat="43.054059854389415" lon="11.488753178328897"><ele>569.0</ele><time>2026-04-25T09:43:23.002Z</time></trkpt><trkpt lat="43.05413837558325" lon="11.488726538489455"><ele>569.0</ele><time>2026-04-25T09:43:24.002Z</time></trkpt><trkpt lat="43.054214908000745" lon="11.488704777332176"><ele>568.3333333333333</ele><time>2026-04-25T09:43:25.002Z</time></trkpt><trkpt lat="43.05429504091776" lon="11.48868416174492"><ele>567.6666666666666</ele><time>2026-04-25T09:43:26.002Z</time></trkpt><trkpt lat="43.054377978087956" lon="11.488674928271779"><ele>567.0</ele><time>2026-04-25T09:43:27.002Z</time></trkpt><trkpt lat="43.05446447386942" lon="11.488682372263474"><ele>566.3333333333334</ele><time>2026-04-25T09:43:28.002Z</time></trkpt><trkpt lat="43.05455107543478" lon="11.488702201583537"><ele>565.6666666666667</ele><time>2026-04-25T09:43:29.002Z</time></trkpt><trkpt lat="43.054635892254176" lon="11.488760536277484"><ele>565.0</ele><time>2026-04-25T09:43:30.002Z</time></trkpt><trkpt lat="43.05471487277108" lon="11.488802606098291"><ele>563.3333333333334</ele><time>2026-04-25T09:43:31.002Z</time></trkpt><trkpt lat="43.054788298627145" lon="11.488827734435736"><ele>561.6666666666667</ele><time>2026-04-25T09:43:32.002Z</time></trkpt><trkpt lat="43.0548451264881" lon="11.48887070919445"><ele>560.0</ele><time>2026-04-25T09:43:33.002Z</time></trkpt><trkpt lat="43.054912873926895" lon="11.488937250588387"><ele>558.3333333333334</ele><time>2026-04-25T09:43:35.002Z</time></trkpt><trkpt lat="43.05496527925346" lon="11.48898957862341"><ele>556.6666666666666</ele><time>2026-04-25T09:43:38.002Z</time></trkpt><trkpt lat="43.05501488846308" lon="11.489045720247855"><ele>555.0</ele><time>2026-04-25T09:43:42.002Z</time></trkpt><trkpt lat="43.054904864860944" lon="11.4891090688534"><ele>555.0</ele><time>2026-04-25T09:43:50.002Z</time></trkpt><trkpt lat="43.0548381031206" lon="11.489117516522802"><ele>555.0</ele><time>2026-04-25T09:43:51.002Z</time></trkpt><trkpt lat="43.05477245500248" lon="11.489122912892197"><ele>555.0</ele><time>2026-04-25T09:43:52.002Z</time></trkpt><trkpt lat="43.05469673264898" lon="11.489129637269473"><ele>555.0</ele><time>2026-04-25T09:43:53.002Z</time></trkpt><trkpt lat="43.05460678294277" lon="11.489137625077506"><ele>555.0</ele><time>2026-04-25T09:43:54.002Z</time></trkpt><trkpt lat="43.05451358937636" lon="11.489145900952295"><ele>555.0</ele><time>2026-04-25T09:43:55.002Z</time></trkpt><trkpt lat="43.05442343603458" lon="11.48915390684431"><ele>555.0</ele><time>2026-04-25T09:43:56.002Z</time></trkpt><trkpt lat="43.054341232228055" lon="11.489282328136438"><ele>555.0</ele><time>2026-04-25T09:43:57.002Z</time></trkpt><trkpt lat="43.054257540889246" lon="11.48933273024541"><ele>555.0</ele><time>2026-04-25T09:43:58.002Z</time></trkpt><trkpt lat="43.05418605735188" lon="11.489413554514565"><ele>555.0</ele><time>2026-04-25T09:43:59.003Z</time></trkpt><trkpt lat="43.05413818006999" lon="11.489521341708672"><ele>555.0</ele><time>2026-04-25T09:44:00.003Z</time></trkpt><trkpt lat="43.0541167850931" lon="11.489648015613119"><ele>553.2</ele><time>2026-04-25T09:44:01.003Z</time></trkpt><trkpt lat="43.054117394769364" lon="11.48977766692686"><ele>551.4</ele><time>2026-04-25T09:44:02.003Z</time></trkpt><trkpt lat="43.054149858794" lon="11.489896221181702"><ele>549.6</ele><time>2026-04-25T09:44:03.003Z</time></trkpt><trkpt lat="43.05420703898417" lon="11.489999201186274"><ele>547.8</ele><time>2026-04-25T09:44:04.003Z</time></trkpt><trkpt lat="43.054284136351924" lon="11.490090542194249"><ele>546.0</ele><time>2026-04-25T09:44:05.003Z</time></trkpt><trkpt lat="43.0543670075869" lon="11.490163844795404"><ele>546.0</ele><time>2026-04-25T09:44:06.003Z</time></trkpt><trkpt lat="43.054451585567854" lon="11.490233230108156"><ele>546.0</ele><time>2026-04-25T09:44:07.003Z</time></trkpt><trkpt lat="43.05453298773462" lon="11.49031304173246"><ele>546.0</ele><time>2026-04-25T09:44:08.003Z</time></trkpt><trkpt lat="43.05460606398489" lon="11.490408534525853"><ele>546.0</ele><time>2026-04-25T09:44:09.003Z</time></trkpt><trkpt lat="43.054677306977005" lon="11.49050184788264"><ele>546.0</ele><time>2026-04-25T09:44:10.003Z</time></trkpt><trkpt lat="43.05474629258522" lon="11.490594925062183"><ele>544.4</ele><time>2026-04-25T09:44:11.003Z</time></trkpt><trkpt lat="43.05481645664428" lon="11.490689441026943"><ele>542.8</ele><time>2026-04-25T09:44:12.003Z</time></trkpt><trkpt lat="43.05488687510008" lon="11.490784342571947"><ele>541.1999999999999</ele><time>2026-04-25T09:44:13.003Z</time></trkpt><trkpt lat="43.05494998996081" lon="11.49088846233223"><ele>539.6</ele><time>2026-04-25T09:44:14.003Z</time></trkpt><trkpt lat="43.0550052807928" lon="11.491001277458693"><ele>538.0</ele><time>2026-04-25T09:44:15.003Z</time></trkpt><trkpt lat="43.05505820496923" lon="11.491117685261731"><ele>537.8</ele><time>2026-04-25T09:44:16.003Z</time></trkpt><trkpt lat="43.05510925618667" lon="11.491232054290878"><ele>537.5999999999999</ele><time>2026-04-25T09:44:17.003Z</time></trkpt><trkpt lat="43.05517406149267" lon="11.491364038195263"><ele>537.4000000000001</ele><time>2026-04-25T09:44:17.999Z</time></trkpt><trkpt lat="43.055231975677685" lon="11.491486588422685"><ele>537.2</ele><time>2026-04-25T09:44:18.999Z</time></trkpt><trkpt lat="43.05528531828882" lon="11.4915856948264"><ele>537.0</ele><time>2026-04-25T09:44:19.999Z</time></trkpt><trkpt lat="43.05533070697757" lon="11.491666724321748"><ele>533.6666666666666</ele><time>2026-04-25T09:44:20.999Z</time></trkpt><trkpt lat="43.05538030636324" lon="11.491731416248962"><ele>530.3333333333334</ele><time>2026-04-25T09:44:21.999Z</time></trkpt><trkpt lat="43.05544228689298" lon="11.491827102791351"><ele>527.0</ele><time>2026-04-25T09:44:23.999Z</time></trkpt><trkpt lat="43.05540764780401" lon="11.491911072731275"><ele>523.6666666666667</ele><time>2026-04-25T09:44:25.999Z</time></trkpt><trkpt lat="43.0553162221039" lon="11.491835153307129"><ele>520.3333333333334</ele><time>2026-04-25T09:44:27.999Z</time></trkpt><trkpt lat="43.05529080500567" lon="11.49174538384461"><ele>517.0</ele><time>2026-04-25T09:44:29Z</time></trkpt><trkpt lat="43.055195473400765" lon="11.49163017407791"><ele>517.0</ele><time>2026-04-25T09:44:30.999Z</time></trkpt><trkpt lat="43.055139644888904" lon="11.491559788995541"><ele>517.0</ele><time>2026-04-25T09:44:32Z</time></trkpt><trkpt lat="43.055083814431455" lon="11.491484321389004"><ele>517.0</ele><time>2026-04-25T09:44:33Z</time></trkpt><trkpt lat="43.05502497949765" lon="11.491408102456402"><ele>517.0</ele><time>2026-04-25T09:44:34Z</time></trkpt><trkpt lat="43.054970594455746" lon="11.491323330012447"><ele>517.0</ele><time>2026-04-25T09:44:35Z</time></trkpt><trkpt lat="43.05491369221176" lon="11.491235465229417"><ele>517.0</ele><time>2026-04-25T09:44:36Z</time></trkpt><trkpt lat="43.05485878502871" lon="11.491143227028761"><ele>520.5</ele><time>2026-04-25T09:44:37Z</time></trkpt><trkpt lat="43.05480640343042" lon="11.491057228486044"><ele>524.0</ele><time>2026-04-25T09:44:38Z</time></trkpt><trkpt lat="43.054752534491236" lon="11.490979431507247"><ele>527.5</ele><time>2026-04-25T09:44:39Z</time></trkpt><trkpt lat="43.05469055953496" lon="11.490924195380165"><ele>531.0</ele><time>2026-04-25T09:44:40Z</time></trkpt><trkpt lat="43.05461979646212" lon="11.490907660711855"><ele>534.5</ele><time>2026-04-25T09:44:41Z</time></trkpt><trkpt lat="43.05454328755705" lon="11.490924224063962"><ele>538.0</ele><time>2026-04-25T09:44:42Z</time></trkpt><trkpt lat="43.05446515375" lon="11.490978472229099"><ele>538.0</ele><time>2026-04-25T09:44:43Z</time></trkpt><trkpt lat="43.05439981346548" lon="11.491062676429145"><ele>538.0</ele><time>2026-04-25T09:44:44Z</time></trkpt><trkpt lat="43.05435615668177" lon="11.491173192750292"><ele>538.0</ele><time>2026-04-25T09:44:45Z</time></trkpt><trkpt lat="43.054344170595435" lon="11.491313520920826"><ele>538.0</ele><time>2026-04-25T09:44:46Z</time></trkpt><trkpt lat="43.054350556948904" lon="11.491466720133495"><ele>538.0</ele><time>2026-04-25T09:44:47Z</time></trkpt><trkpt lat="43.05436780213808" lon="11.491608768524404"><ele>537.6</ele><time>2026-04-25T09:44:48Z</time></trkpt><trkpt lat="43.05438366504365" lon="11.491749070908373"><ele>537.1999999999999</ele><time>2026-04-25T09:44:49Z</time></trkpt><trkpt lat="43.054399059055505" lon="11.49190075748429"><ele>536.8</ele><time>2026-04-25T09:44:50Z</time></trkpt><trkpt lat="43.05441326806467" lon="11.492053787110459"><ele>536.4</ele><time>2026-04-25T09:44:51Z</time></trkpt><trkpt lat="43.05442386948215" lon="11.49221221037345"><ele>536.0</ele><time>2026-04-25T09:44:52Z</time></trkpt><trkpt lat="43.05443052967679" lon="11.492366972785494"><ele>533.0</ele><time>2026-04-25T09:44:53Z</time></trkpt><trkpt lat="43.05442537391976" lon="11.4925235108559"><ele>530.0</ele><time>2026-04-25T09:44:54Z</time></trkpt><trkpt lat="43.05441455812646" lon="11.492677508130122"><ele>527.0</ele><time>2026-04-25T09:44:55Z</time></trkpt><trkpt lat="43.054392043977124" lon="11.492828104816887"><ele>524.0</ele><time>2026-04-25T09:44:56Z</time></trkpt><trkpt lat="43.05435040344392" lon="11.492974308055262"><ele>522.0</ele><time>2026-04-25T09:44:57Z</time></trkpt><trkpt lat="43.05429629018463" lon="11.493107866535611"><ele>520.0</ele><time>2026-04-25T09:44:58Z</time></trkpt><trkpt lat="43.05423384246149" lon="11.493226085837085"><ele>518.0</ele><time>2026-04-25T09:44:59.001Z</time></trkpt><trkpt lat="43.05416159775662" lon="11.49333123349158"><ele>516.0</ele><time>2026-04-25T09:45:00.001Z</time></trkpt><trkpt lat="43.05407739592632" lon="11.493429170162955"><ele>514.0</ele><time>2026-04-25T09:45:01.001Z</time></trkpt><trkpt lat="43.05398132839022" lon="11.493519105870622"><ele>514.0</ele><time>2026-04-25T09:45:02.001Z</time></trkpt><trkpt lat="43.05387758639022" lon="11.493611737541483"><ele>514.0</ele><time>2026-04-25T09:45:03.001Z</time></trkpt><trkpt lat="43.05377855694389" lon="11.493710839484088"><ele>514.0</ele><time>2026-04-25T09:45:04.001Z</time></trkpt><trkpt lat="43.0536868501296" lon="11.49383315754906"><ele>514.0</ele><time>2026-04-25T09:45:05.001Z</time></trkpt><trkpt lat="43.053610285188526" lon="11.493975856085259"><ele>512.5</ele><time>2026-04-25T09:45:06.001Z</time></trkpt><trkpt lat="43.05354780922419" lon="11.494132163840712"><ele>511.0</ele><time>2026-04-25T09:45:07.001Z</time></trkpt><trkpt lat="43.0535034391863" lon="11.494300694712775"><ele>509.5</ele><time>2026-04-25T09:45:08.001Z</time></trkpt><trkpt lat="43.05348640015242" lon="11.494477356488133"><ele>508.0</ele><time>2026-04-25T09:45:09.001Z</time></trkpt><trkpt lat="43.05348614236122" lon="11.494654116609288"><ele>507.25</ele><time>2026-04-25T09:45:10.001Z</time></trkpt><trkpt lat="43.05349278184712" lon="11.494824365482353"><ele>506.5</ele><time>2026-04-25T09:45:11.001Z</time></trkpt><trkpt lat="43.05350096658575" lon="11.494990964005597"><ele>505.75</ele><time>2026-04-25T09:45:12.001Z</time></trkpt><trkpt lat="43.053505365699785" lon="11.495154640983763"><ele>505.0</ele><time>2026-04-25T09:45:13.001Z</time></trkpt><trkpt lat="43.053515952504476" lon="11.495325825974819"><ele>504.75</ele><time>2026-04-25T09:45:14.001Z</time></trkpt><trkpt lat="43.053526344824725" lon="11.49550253758947"><ele>504.5</ele><time>2026-04-25T09:45:15.001Z</time></trkpt><trkpt lat="43.053533423933594" lon="11.495680684711425"><ele>504.25</ele><time>2026-04-25T09:45:16.001Z</time></trkpt><trkpt lat="43.05353145956295" lon="11.495855552680927"><ele>504.0</ele><time>2026-04-25T09:45:17.001Z</time></trkpt><trkpt lat="43.053520400333504" lon="11.49602995553151"><ele>504.0</ele><time>2026-04-25T09:45:18.001Z</time></trkpt><trkpt lat="43.053504750598705" lon="11.496196033497835"><ele>504.0</ele><time>2026-04-25T09:45:19.001Z</time></trkpt><trkpt lat="43.0534862165892" lon="11.49635804411586"><ele>504.0</ele><time>2026-04-25T09:45:20.001Z</time></trkpt><trkpt lat="43.053467136048646" lon="11.49651975887861"><ele>504.0</ele><time>2026-04-25T09:45:21.001Z</time></trkpt><trkpt lat="43.0534474861636" lon="11.496684232222044"><ele>502.75</ele><time>2026-04-25T09:45:22.001Z</time></trkpt><trkpt lat="43.05342440794199" lon="11.496854011983988"><ele>501.5</ele><time>2026-04-25T09:45:23.001Z</time></trkpt><trkpt lat="43.05339364237401" lon="11.497026837214896"><ele>500.25</ele><time>2026-04-25T09:45:24.001Z</time></trkpt><trkpt lat="43.053350357028904" lon="11.497200518228325"><ele>499.0</ele><time>2026-04-25T09:45:25.001Z</time></trkpt><trkpt lat="43.05329450350612" lon="11.497362450958644"><ele>499.25</ele><time>2026-04-25T09:45:26.001Z</time></trkpt><trkpt lat="43.053239706366085" lon="11.497518202509562"><ele>499.5</ele><time>2026-04-25T09:45:27.001Z</time></trkpt><trkpt lat="43.05317793778034" lon="11.497671623198046"><ele>499.75</ele><time>2026-04-25T09:45:28.001Z</time></trkpt><trkpt lat="43.05311274981238" lon="11.497829571990275"><ele>500.0</ele><time>2026-04-25T09:45:29.001Z</time></trkpt><trkpt lat="43.05304211219604" lon="11.4979908735956"><ele>500.0</ele><time>2026-04-25T09:45:30.001Z</time></trkpt><trkpt lat="43.05297354327452" lon="11.498149840475206"><ele>500.0</ele><time>2026-04-25T09:45:31.001Z</time></trkpt><trkpt lat="43.05290827652593" lon="11.498305206167743"><ele>500.0</ele><time>2026-04-25T09:45:32.001Z</time></trkpt><trkpt lat="43.05284339154013" lon="11.498461628496118"><ele>500.0</ele><time>2026-04-25T09:45:33.002Z</time></trkpt><trkpt lat="43.05277696048394" lon="11.498615246424706"><ele>497.5</ele><time>2026-04-25T09:45:34.002Z</time></trkpt><trkpt lat="43.05270894680386" lon="11.498772367795107"><ele>495.0</ele><time>2026-04-25T09:45:35.002Z</time></trkpt><trkpt lat="43.05264123362736" lon="11.498930455169507"><ele>492.5</ele><time>2026-04-25T09:45:36.002Z</time></trkpt><trkpt lat="43.05257387123913" lon="11.499091595681957"><ele>490.0</ele><time>2026-04-25T09:45:37.002Z</time></trkpt><trkpt lat="43.052504358005535" lon="11.49925798821409"><ele>490.75</ele><time>2026-04-25T09:45:38.002Z</time></trkpt><trkpt lat="43.05243562131692" lon="11.499417578911974"><ele>491.5</ele><time>2026-04-25T09:45:39.002Z</time></trkpt><trkpt lat="43.052372596393205" lon="11.499573577645384"><ele>492.25</ele><time>2026-04-25T09:45:40.002Z</time></trkpt><trkpt lat="43.052310620848644" lon="11.499728636179134"><ele>493.0</ele><time>2026-04-25T09:45:41.002Z</time></trkpt><trkpt lat="43.05224896170432" lon="11.499882191176253"><ele>489.5</ele><time>2026-04-25T09:45:42.002Z</time></trkpt><trkpt lat="43.052186332812425" lon="11.500032813772778"><ele>486.0</ele><time>2026-04-25T09:45:43.002Z</time></trkpt><trkpt lat="43.052123902945624" lon="11.500184714039424"><ele>482.5</ele><time>2026-04-25T09:45:44.002Z</time></trkpt><trkpt lat="43.05206389636222" lon="11.500339870375461"><ele>479.0</ele><time>2026-04-25T09:45:45.002Z</time></trkpt><trkpt lat="43.052007891681875" lon="11.500498295582986"><ele>477.75</ele><time>2026-04-25T09:45:46.002Z</time></trkpt><trkpt lat="43.05196305445202" lon="11.500666162881616"><ele>476.5</ele><time>2026-04-25T09:45:47.002Z</time></trkpt><trkpt lat="43.05193186973261" lon="11.500838667232774"><ele>475.25</ele><time>2026-04-25T09:45:48.002Z</time></trkpt><trkpt lat="43.05192085434745" lon="11.5010219794369"><ele>474.0</ele><time>2026-04-25T09:45:49.002Z</time></trkpt><trkpt lat="43.05192567911047" lon="11.501209182919178"><ele>472.75</ele><time>2026-04-25T09:45:50.002Z</time></trkpt><trkpt lat="43.051933647198496" lon="11.501396101825653"><ele>471.5</ele><time>2026-04-25T09:45:51.002Z</time></trkpt><trkpt lat="43.05193933884775" lon="11.501580686770998"><ele>470.25</ele><time>2026-04-25T09:45:52.002Z</time></trkpt><trkpt lat="43.05193758211978" lon="11.501759960198072"><ele>469.0</ele><time>2026-04-25T09:45:53.002Z</time></trkpt><trkpt lat="43.051930710818816" lon="11.50193208894959"><ele>468.25</ele><time>2026-04-25T09:45:54.002Z</time></trkpt><trkpt lat="43.0519115453426" lon="11.502094821730033"><ele>467.5</ele><time>2026-04-25T09:45:55.002Z</time></trkpt><trkpt lat="43.05187449179735" lon="11.502246567079498"><ele>466.75</ele><time>2026-04-25T09:45:56.002Z</time></trkpt><trkpt lat="43.051836240485294" lon="11.50239944738238"><ele>466.0</ele><time>2026-04-25T09:45:57.002Z</time></trkpt><trkpt lat="43.05179988653385" lon="11.5025395984276"><ele>466.0</ele><time>2026-04-25T09:45:58.002Z</time></trkpt><trkpt lat="43.05176567771071" lon="11.502685029334994"><ele>466.0</ele><time>2026-04-25T09:45:59.002Z</time></trkpt><trkpt lat="43.051741826862546" lon="11.502830620395995"><ele>466.0</ele><time>2026-04-25T09:46:00.002Z</time></trkpt><trkpt lat="43.051736545329994" lon="11.50297209175272"><ele>466.0</ele><time>2026-04-25T09:46:01.002Z</time></trkpt><trkpt lat="43.051745211654044" lon="11.503121278580625"><ele>466.0</ele><time>2026-04-25T09:46:02.002Z</time></trkpt><trkpt lat="43.05177286669774" lon="11.503259005257828"><ele>465.6</ele><time>2026-04-25T09:46:03.002Z</time></trkpt><trkpt lat="43.05181689216333" lon="11.503384931138847"><ele>465.20000000000005</ele><time>2026-04-25T09:46:04.002Z</time></trkpt><trkpt lat="43.05186351694718" lon="11.503507219013677"><ele>464.79999999999995</ele><time>2026-04-25T09:46:05.002Z</time></trkpt><trkpt lat="43.0519082117497" lon="11.50363028349751"><ele>464.4</ele><time>2026-04-25T09:46:06.002Z</time></trkpt><trkpt lat="43.051951678408365" lon="11.503745449437465"><ele>464.0</ele><time>2026-04-25T09:46:07.002Z</time></trkpt><trkpt lat="43.05199471066895" lon="11.503856662580688"><ele>462.66666666666663</ele><time>2026-04-25T09:46:08.003Z</time></trkpt><trkpt lat="43.05203312514948" lon="11.503964726831365"><ele>461.3333333333333</ele><time>2026-04-25T09:46:09.003Z</time></trkpt><trkpt lat="43.05207642402881" lon="11.504073579454214"><ele>460.0</ele><time>2026-04-25T09:46:10.003Z</time></trkpt><trkpt lat="43.05212472420751" lon="11.504175825470222"><ele>458.66666666666663</ele><time>2026-04-25T09:46:11.003Z</time></trkpt><trkpt lat="43.052167782853495" lon="11.504274431407753"><ele>457.3333333333333</ele><time>2026-04-25T09:46:12.003Z</time></trkpt><trkpt lat="43.05221098264917" lon="11.504373324621513"><ele>456.0</ele><time>2026-04-25T09:46:13.003Z</time></trkpt><trkpt lat="43.05224576914567" lon="11.504479337867751"><ele>454.6666666666667</ele><time>2026-04-25T09:46:14.003Z</time></trkpt><trkpt lat="43.052270335274315" lon="11.504590403470358"><ele>453.33333333333337</ele><time>2026-04-25T09:46:15.003Z</time></trkpt><trkpt lat="43.052288891029335" lon="11.504704058191876"><ele>452.0</ele><time>2026-04-25T09:46:16.003Z</time></trkpt><trkpt lat="43.05229409956964" lon="11.504813854549774"><ele>450.6666666666667</ele><time>2026-04-25T09:46:17.003Z</time></trkpt><trkpt lat="43.05228375247923" lon="11.504902854121358"><ele>449.33333333333337</ele><time>2026-04-25T09:46:18.003Z</time></trkpt><trkpt lat="43.0522915494809" lon="11.505030847793096"><ele>448.0</ele><time>2026-04-25T09:46:20.003Z</time></trkpt><trkpt lat="43.05237432869742" lon="11.505114187921485"><ele>448.0</ele><time>2026-04-25T09:46:22.003Z</time></trkpt><trkpt lat="43.05244771188928" lon="11.505062861060468"><ele>447.99999999999994</ele><time>2026-04-25T09:46:23.003Z</time></trkpt><trkpt lat="43.0524849650784" lon="11.504982043575366"><ele>447.99999999999994</ele><time>2026-04-25T09:46:23.999Z</time></trkpt><trkpt lat="43.05258827338708" lon="11.505005454773483"><ele>448.0</ele><time>2026-04-25T09:46:24.999Z</time></trkpt><trkpt lat="43.05268038875119" lon="11.505020858655135"><ele>448.0</ele><time>2026-04-25T09:46:25.999Z</time></trkpt><trkpt lat="43.05277938111153" lon="11.50506231679761"><ele>450.0</ele><time>2026-04-25T09:46:26.999Z</time></trkpt><trkpt lat="43.05287341021736" lon="11.505147327365794"><ele>452.0</ele><time>2026-04-25T09:46:27.999Z</time></trkpt><trkpt lat="43.05296856249866" lon="11.505218566620277"><ele>454.0</ele><time>2026-04-25T09:46:28.999Z</time></trkpt><trkpt lat="43.05307721015826" lon="11.505287432612874"><ele>456.0</ele><time>2026-04-25T09:46:29.999Z</time></trkpt><trkpt lat="43.0531444877433" lon="11.505415169579836"><ele>456.0</ele><time>2026-04-25T09:46:30.999Z</time></trkpt><trkpt lat="43.0532013174714" lon="11.505549339043222"><ele>456.0</ele><time>2026-04-25T09:46:31.999Z</time></trkpt><trkpt lat="43.053254295555575" lon="11.505704783616713"><ele>456.0</ele><time>2026-04-25T09:46:32.999Z</time></trkpt><trkpt lat="43.05326237092435" lon="11.505898775038068"><ele>456.0</ele><time>2026-04-25T09:46:33.999Z</time></trkpt><trkpt lat="43.053244711800566" lon="11.506102089754673"><ele>455.0</ele><time>2026-04-25T09:46:34.999Z</time></trkpt><trkpt lat="43.05321363488716" lon="11.506313488037645"><ele>454.0</ele><time>2026-04-25T09:46:35.999Z</time></trkpt><trkpt lat="43.05318779812338" lon="11.506540005319245"><ele>453.0</ele><time>2026-04-25T09:46:36.999Z</time></trkpt><trkpt lat="43.053158686239236" lon="11.506796707398474"><ele>453.0</ele><time>2026-04-25T09:46:37.999Z</time></trkpt><trkpt lat="43.053130653726534" lon="11.507036566809372"><ele>453.0</ele><time>2026-04-25T09:46:38.999Z</time></trkpt><trkpt lat="43.05310300615727" lon="11.507276321763388"><ele>453.0</ele><time>2026-04-25T09:46:39.999Z</time></trkpt><trkpt lat="43.05307365852297" lon="11.50751437905967"><ele>450.33333333333337</ele><time>2026-04-25T09:46:40.999Z</time></trkpt><trkpt lat="43.05303921052193" lon="11.507757359739974"><ele>447.6666666666667</ele><time>2026-04-25T09:46:41.999Z</time></trkpt><trkpt lat="43.05300788099774" lon="11.508004376447543"><ele>445.0</ele><time>2026-04-25T09:46:42.999Z</time></trkpt><trkpt lat="43.05298043940141" lon="11.508246594921822"><ele>442.0</ele><time>2026-04-25T09:46:43.999Z</time></trkpt><trkpt lat="43.05296539694402" lon="11.50848826657457"><ele>439.0</ele><time>2026-04-25T09:46:44.999Z</time></trkpt><trkpt lat="43.05297484150752" lon="11.508730815404478"><ele>436.0</ele><time>2026-04-25T09:46:45.999Z</time></trkpt><trkpt lat="43.053009763170245" lon="11.508971096239732"><ele>433.33333333333337</ele><time>2026-04-25T09:46:46.999Z</time></trkpt><trkpt lat="43.05305516708434" lon="11.509226892678319"><ele>430.66666666666663</ele><time>2026-04-25T09:46:48Z</time></trkpt><trkpt lat="43.0531092817991" lon="11.509472728196265"><ele>428.0</ele><time>2026-04-25T09:46:49Z</time></trkpt><trkpt lat="43.053166824485075" lon="11.509696578412083"><ele>427.0</ele><time>2026-04-25T09:46:50Z</time></trkpt><trkpt lat="43.053229592332656" lon="11.509898689398817"><ele>426.0</ele><time>2026-04-25T09:46:51Z</time></trkpt><trkpt lat="43.05331288792719" lon="11.510077474716526"><ele>425.0</ele><time>2026-04-25T09:46:52Z</time></trkpt><trkpt lat="43.05342849630205" lon="11.510237512932713"><ele>425.0</ele><time>2026-04-25T09:46:53Z</time></trkpt><trkpt lat="43.05356144369155" lon="11.510377257260355"><ele>425.0</ele><time>2026-04-25T09:46:54Z</time></trkpt><trkpt lat="43.05369718897709" lon="11.51048186818337"><ele>425.0</ele><time>2026-04-25T09:46:55Z</time></trkpt><trkpt lat="43.05383274043269" lon="11.510569209819588"><ele>423.25</ele><time>2026-04-25T09:46:56Z</time></trkpt><trkpt lat="43.05397208637659" lon="11.5106214870917"><ele>421.5</ele><time>2026-04-25T09:46:57Z</time></trkpt><trkpt lat="43.05411521761693" lon="11.51063805118917"><ele>419.75</ele><time>2026-04-25T09:46:58Z</time></trkpt><trkpt lat="43.05426148138228" lon="11.51060762449597"><ele>418.0</ele><time>2026-04-25T09:46:59Z</time></trkpt><trkpt lat="43.05440931801467" lon="11.510567101955244"><ele>417.33333333333337</ele><time>2026-04-25T09:47:00Z</time></trkpt><trkpt lat="43.05454338847907" lon="11.510469281923893"><ele>416.66666666666663</ele><time>2026-04-25T09:47:01Z</time></trkpt><trkpt lat="43.05467328852337" lon="11.5103435188465"><ele>416.0</ele><time>2026-04-25T09:47:02Z</time></trkpt><trkpt lat="43.05478870621284" lon="11.51020365248472"><ele>413.66666666666663</ele><time>2026-04-25T09:47:03Z</time></trkpt><trkpt lat="43.05489075095849" lon="11.510049710229724"><ele>411.33333333333337</ele><time>2026-04-25T09:47:04Z</time></trkpt><trkpt lat="43.05498201617391" lon="11.509876658165592"><ele>409.0</ele><time>2026-04-25T09:47:05Z</time></trkpt><trkpt lat="43.05505239196316" lon="11.509679834388491"><ele>410.6666666666667</ele><time>2026-04-25T09:47:06Z</time></trkpt><trkpt lat="43.05511722684648" lon="11.50948463895697"><ele>412.33333333333337</ele><time>2026-04-25T09:47:07Z</time></trkpt><trkpt lat="43.05517099863731" lon="11.509283193242036"><ele>414.0</ele><time>2026-04-25T09:47:08Z</time></trkpt><trkpt lat="43.05525388827042" lon="11.509103883572958"><ele>414.0</ele><time>2026-04-25T09:47:09Z</time></trkpt><trkpt lat="43.0553552829141" lon="11.508945249294511"><ele>414.0</ele><time>2026-04-25T09:47:10Z</time></trkpt><trkpt lat="43.055462656119865" lon="11.508795659959056"><ele>414.0</ele><time>2026-04-25T09:47:11Z</time></trkpt><trkpt lat="43.05557494162491" lon="11.508657285422771"><ele>414.25</ele><time>2026-04-25T09:47:12Z</time></trkpt><trkpt lat="43.05568599350346" lon="11.50852918585241"><ele>414.5</ele><time>2026-04-25T09:47:13Z</time></trkpt><trkpt lat="43.055781589730564" lon="11.508417135405066"><ele>414.75</ele><time>2026-04-25T09:47:14.001Z</time></trkpt><trkpt lat="43.05585428768505" lon="11.50828669446808"><ele>415.0</ele><time>2026-04-25T09:47:15.001Z</time></trkpt><trkpt lat="43.05591532496862" lon="11.508147300757694"><ele>410.75</ele><time>2026-04-25T09:47:16.001Z</time></trkpt><trkpt lat="43.0559449511846" lon="11.50797496301491"><ele>406.5</ele><time>2026-04-25T09:47:17.001Z</time></trkpt><trkpt lat="43.055958627691155" lon="11.507796126579645"><ele>402.25</ele><time>2026-04-25T09:47:18.001Z</time></trkpt><trkpt lat="43.055960744195524" lon="11.507612361016673"><ele>398.0</ele><time>2026-04-25T09:47:19.001Z</time></trkpt><trkpt lat="43.05595106180021" lon="11.507428340428694"><ele>397.5</ele><time>2026-04-25T09:47:20.001Z</time></trkpt><trkpt lat="43.0559286252737" lon="11.507251931677182"><ele>397.0</ele><time>2026-04-25T09:47:21.001Z</time></trkpt><trkpt lat="43.05588279669192" lon="11.507089960765933"><ele>396.5</ele><time>2026-04-25T09:47:22.001Z</time></trkpt><trkpt lat="43.055809147384224" lon="11.506933323206377"><ele>396.0</ele><time>2026-04-25T09:47:23.001Z</time></trkpt><trkpt lat="43.05571559870944" lon="11.506796699930174"><ele>397.5</ele><time>2026-04-25T09:47:24.001Z</time></trkpt><trkpt lat="43.0556255014615" lon="11.506655318944537"><ele>399.0</ele><time>2026-04-25T09:47:25.001Z</time></trkpt><trkpt lat="43.055551082483404" lon="11.506497537865572"><ele>400.5</ele><time>2026-04-25T09:47:26.001Z</time></trkpt><trkpt lat="43.055503210118815" lon="11.506331447224587"><ele>402.0</ele><time>2026-04-25T09:47:27.001Z</time></trkpt><trkpt lat="43.05548333582647" lon="11.506154127106972"><ele>402.0</ele><time>2026-04-25T09:47:28.001Z</time></trkpt><trkpt lat="43.05549799728203" lon="11.505975677101867"><ele>402.0</ele><time>2026-04-25T09:47:29.001Z</time></trkpt><trkpt lat="43.05553951855141" lon="11.505778317417967"><ele>402.0</ele><time>2026-04-25T09:47:30.001Z</time></trkpt><trkpt lat="43.05560168713493" lon="11.505566378318749"><ele>402.0</ele><time>2026-04-25T09:47:31.001Z</time></trkpt><trkpt lat="43.05567104185881" lon="11.5053556465606"><ele>402.0</ele><time>2026-04-25T09:47:32.001Z</time></trkpt><trkpt lat="43.0557433168995" lon="11.505143909734034"><ele>402.0</ele><time>2026-04-25T09:47:33.001Z</time></trkpt><trkpt lat="43.05581743872433" lon="11.504950177231592"><ele>402.0</ele><time>2026-04-25T09:47:34.001Z</time></trkpt><trkpt lat="43.05589569490193" lon="11.504774157343432"><ele>399.0</ele><time>2026-04-25T09:47:35.001Z</time></trkpt><trkpt lat="43.05597798295634" lon="11.504613543613685"><ele>396.0</ele><time>2026-04-25T09:47:36.001Z</time></trkpt><trkpt lat="43.0560616487045" lon="11.504454364450417"><ele>393.0</ele><time>2026-04-25T09:47:37.001Z</time></trkpt><trkpt lat="43.056149314464086" lon="11.50429495987397"><ele>390.0</ele><time>2026-04-25T09:47:38.001Z</time></trkpt><trkpt lat="43.056248823275844" lon="11.504144755422354"><ele>390.0</ele><time>2026-04-25T09:47:39.001Z</time></trkpt><trkpt lat="43.05636848586754" lon="11.504013730798883"><ele>390.0</ele><time>2026-04-25T09:47:40.001Z</time></trkpt><trkpt lat="43.056516165235884" lon="11.503929488328797"><ele>390.0</ele><time>2026-04-25T09:47:41.001Z</time></trkpt><trkpt lat="43.056658563089854" lon="11.503816864361854"><ele>388.0</ele><time>2026-04-25T09:47:42.001Z</time></trkpt><trkpt lat="43.05680838238035" lon="11.503718935092332"><ele>386.0</ele><time>2026-04-25T09:47:43.001Z</time></trkpt><trkpt lat="43.056952265238536" lon="11.503623915680278"><ele>384.0</ele><time>2026-04-25T09:47:44.001Z</time></trkpt><trkpt lat="43.05710712234861" lon="11.503567327766635"><ele>384.0</ele><time>2026-04-25T09:47:45.002Z</time></trkpt><trkpt lat="43.057259481821106" lon="11.503512668199674"><ele>384.0</ele><time>2026-04-25T09:47:46.002Z</time></trkpt><trkpt lat="43.05740401249293" lon="11.503446126173795"><ele>384.0</ele><time>2026-04-25T09:47:47.002Z</time></trkpt><trkpt lat="43.05753399565316" lon="11.50339146835882"><ele>384.0</ele><time>2026-04-25T09:47:48.002Z</time></trkpt><trkpt lat="43.05763883428238" lon="11.503311280689877"><ele>381.75</ele><time>2026-04-25T09:47:49.002Z</time></trkpt><trkpt lat="43.057720038721" lon="11.503185228013596"><ele>379.5</ele><time>2026-04-25T09:47:50.002Z</time></trkpt><trkpt lat="43.05777004115457" lon="11.503032994588937"><ele>377.25</ele><time>2026-04-25T09:47:51.002Z</time></trkpt><trkpt lat="43.05779062330847" lon="11.502863992685462"><ele>375.0</ele><time>2026-04-25T09:47:52.002Z</time></trkpt><trkpt lat="43.05778217705053" lon="11.50268188277474"><ele>375.0</ele><time>2026-04-25T09:47:53.002Z</time></trkpt><trkpt lat="43.05777559069406" lon="11.502512167187243"><ele>375.0</ele><time>2026-04-25T09:47:54.002Z</time></trkpt><trkpt lat="43.057820317632974" lon="11.50236948781539"><ele>375.0</ele><time>2026-04-25T09:47:55.002Z</time></trkpt><trkpt lat="43.057877642174375" lon="11.50224690669205"><ele>375.0</ele><time>2026-04-25T09:47:56.002Z</time></trkpt><trkpt lat="43.05795429572646" lon="11.50215349880176"><ele>375.0</ele><time>2026-04-25T09:47:57.002Z</time></trkpt><trkpt lat="43.058040076369274" lon="11.502076111971833"><ele>374.6</ele><time>2026-04-25T09:47:58.002Z</time></trkpt><trkpt lat="43.05814488369458" lon="11.502036413626717"><ele>374.2</ele><time>2026-04-25T09:47:59.002Z</time></trkpt><trkpt lat="43.05824986893219" lon="11.50203708164644"><ele>373.79999999999995</ele><time>2026-04-25T09:48:00.002Z</time></trkpt><trkpt lat="43.05834488225035" lon="11.502030907626501"><ele>373.4</ele><time>2026-04-25T09:48:01.002Z</time></trkpt><trkpt lat="43.05844102308177" lon="11.502034683701178"><ele>373.0</ele><time>2026-04-25T09:48:02.002Z</time></trkpt><trkpt lat="43.05853425071552" lon="11.502131370412137"><ele>370.0</ele><time>2026-04-25T09:48:03.002Z</time></trkpt><trkpt lat="43.0586316247321" lon="11.502235478416974"><ele>367.0</ele><time>2026-04-25T09:48:04.002Z</time></trkpt><trkpt lat="43.0587330983791" lon="11.502327583266053"><ele>364.0</ele><time>2026-04-25T09:48:05.002Z</time></trkpt><trkpt lat="43.0588218768051" lon="11.502436085736212"><ele>361.0</ele><time>2026-04-25T09:48:06.002Z</time></trkpt><trkpt lat="43.058913178483124" lon="11.50254548678411"><ele>361.0</ele><time>2026-04-25T09:48:07.002Z</time></trkpt><trkpt lat="43.059002905440735" lon="11.502651230248883"><ele>361.0</ele><time>2026-04-25T09:48:08.002Z</time></trkpt><trkpt lat="43.059090905994985" lon="11.502756138235021"><ele>361.0</ele><time>2026-04-25T09:48:09.002Z</time></trkpt><trkpt lat="43.059182045947146" lon="11.502850780682884"><ele>361.0</ele><time>2026-04-25T09:48:10.002Z</time></trkpt><trkpt lat="43.05928205398202" lon="11.502936334331473"><ele>356.25</ele><time>2026-04-25T09:48:11.002Z</time></trkpt><trkpt lat="43.059401921999594" lon="11.502993374164038"><ele>351.5</ele><time>2026-04-25T09:48:12.002Z</time></trkpt><trkpt lat="43.05952888129961" lon="11.503027469492464"><ele>346.75</ele><time>2026-04-25T09:48:13.002Z</time></trkpt><trkpt lat="43.05965832174999" lon="11.503027182825129"><ele>342.0</ele><time>2026-04-25T09:48:14.002Z</time></trkpt><trkpt lat="43.059787648946205" lon="11.503042963643354"><ele>342.0</ele><time>2026-04-25T09:48:15.002Z</time></trkpt><trkpt lat="43.05991395103471" lon="11.50307670648209"><ele>342.0</ele><time>2026-04-25T09:48:16.002Z</time></trkpt><trkpt lat="43.0600431665923" lon="11.503071517971943"><ele>342.0</ele><time>2026-04-25T09:48:17.002Z</time></trkpt><trkpt lat="43.060169504188174" lon="11.503038486175182"><ele>342.0</ele><time>2026-04-25T09:48:18.003Z</time></trkpt><trkpt lat="43.060283236765734" lon="11.502961350237157"><ele>345.5</ele><time>2026-04-25T09:48:19.003Z</time></trkpt><trkpt lat="43.06039034581482" lon="11.502879177186786"><ele>349.0</ele><time>2026-04-25T09:48:20.003Z</time></trkpt><trkpt lat="43.06048858384675" lon="11.502776330541092"><ele>352.5</ele><time>2026-04-25T09:48:21.003Z</time></trkpt><trkpt lat="43.060569439263325" lon="11.502647045880833"><ele>356.0</ele><time>2026-04-25T09:48:22.003Z</time></trkpt><trkpt lat="43.06063632831083" lon="11.502507867514518"><ele>356.0</ele><time>2026-04-25T09:48:23.003Z</time></trkpt><trkpt lat="43.060711321968675" lon="11.502376400435388"><ele>356.0</ele><time>2026-04-25T09:48:24.003Z</time></trkpt><trkpt lat="43.060817105409754" lon="11.502274746422756"><ele>356.0</ele><time>2026-04-25T09:48:25.003Z</time></trkpt><trkpt lat="43.06092518911621" lon="11.50217716131975"><ele>356.0</ele><time>2026-04-25T09:48:26.003Z</time></trkpt><trkpt lat="43.06104981670388" lon="11.502120148770134"><ele>354.5</ele><time>2026-04-25T09:48:27.003Z</time></trkpt><trkpt lat="43.06117775630813" lon="11.502074552104762"><ele>353.0</ele><time>2026-04-25T09:48:28.003Z</time></trkpt><trkpt lat="43.06130516269728" lon="11.502062522666836"><ele>351.5</ele><time>2026-04-25T09:48:29.003Z</time></trkpt><trkpt lat="43.06143789356789" lon="11.502027895053292"><ele>350.0</ele><time>2026-04-25T09:48:29.999Z</time></trkpt><trkpt lat="43.06156984213461" lon="11.501966685490196"><ele>347.33333333333337</ele><time>2026-04-25T09:48:30.999Z</time></trkpt><trkpt lat="43.0617076033555" lon="11.501898763462988"><ele>344.6666666666667</ele><time>2026-04-25T09:48:31.999Z</time></trkpt><trkpt lat="43.06183352577311" lon="11.501769474700755"><ele>342.0</ele><time>2026-04-25T09:48:32.999Z</time></trkpt><trkpt lat="43.06197861173985" lon="11.50163882591237"><ele>342.0</ele><time>2026-04-25T09:48:33.999Z</time></trkpt><trkpt lat="43.06212962686325" lon="11.501491151039549"><ele>342.0</ele><time>2026-04-25T09:48:34.999Z</time></trkpt><trkpt lat="43.06228792625479" lon="11.501365755250937"><ele>342.0</ele><time>2026-04-25T09:48:35.999Z</time></trkpt><trkpt lat="43.06243076243153" lon="11.501233175095622"><ele>340.3333333333333</ele><time>2026-04-25T09:48:36.999Z</time></trkpt><trkpt lat="43.0625773386209" lon="11.501116367640927"><ele>338.66666666666663</ele><time>2026-04-25T09:48:37.999Z</time></trkpt><trkpt lat="43.062724381197704" lon="11.501030133269664"><ele>337.0</ele><time>2026-04-25T09:48:38.999Z</time></trkpt><trkpt lat="43.062878976543274" lon="11.50097591831063"><ele>337.0</ele><time>2026-04-25T09:48:39.999Z</time></trkpt><trkpt lat="43.06304463541015" lon="11.500995709901641"><ele>337.0</ele><time>2026-04-25T09:48:40.999Z</time></trkpt><trkpt lat="43.06320409144431" lon="11.501062030417518"><ele>337.0</ele><time>2026-04-25T09:48:41.999Z</time></trkpt><trkpt lat="43.06335877145764" lon="11.50114981305966"><ele>335.0</ele><time>2026-04-25T09:48:42.999Z</time></trkpt><trkpt lat="43.06351374378322" lon="11.501228393984011"><ele>333.0</ele><time>2026-04-25T09:48:43.999Z</time></trkpt><trkpt lat="43.06366627282411" lon="11.501307464824137"><ele>331.0</ele><time>2026-04-25T09:48:44.999Z</time></trkpt><trkpt lat="43.06382349151962" lon="11.501385586353011"><ele>328.3333333333333</ele><time>2026-04-25T09:48:45.999Z</time></trkpt><trkpt lat="43.06398253518532" lon="11.501466615394119"><ele>325.6666666666667</ele><time>2026-04-25T09:48:46.999Z</time></trkpt><trkpt lat="43.064134677309845" lon="11.501544851269767"><ele>323.0</ele><time>2026-04-25T09:48:48Z</time></trkpt><trkpt lat="43.06427992831878" lon="11.501618000300395"><ele>322.6666666666667</ele><time>2026-04-25T09:48:49Z</time></trkpt><trkpt lat="43.06442747003937" lon="11.501687317934573"><ele>322.3333333333333</ele><time>2026-04-25T09:48:50Z</time></trkpt><trkpt lat="43.064576273796796" lon="11.501735966324402"><ele>322.0</ele><time>2026-04-25T09:48:51Z</time></trkpt><trkpt lat="43.0647181054395" lon="11.501774193019497"><ele>322.0</ele><time>2026-04-25T09:48:52Z</time></trkpt><trkpt lat="43.064870647538385" lon="11.50173132420918"><ele>322.0</ele><time>2026-04-25T09:48:53Z</time></trkpt><trkpt lat="43.06501753765058" lon="11.501664014463826"><ele>322.0</ele><time>2026-04-25T09:48:54Z</time></trkpt><trkpt lat="43.065142728893754" lon="11.501536197811904"><ele>321.66666666666663</ele><time>2026-04-25T09:48:55Z</time></trkpt><trkpt lat="43.06526207761164" lon="11.501411371130182"><ele>321.3333333333333</ele><time>2026-04-25T09:48:56Z</time></trkpt><trkpt lat="43.06535437445789" lon="11.501249807790153"><ele>321.0</ele><time>2026-04-25T09:48:57Z</time></trkpt><trkpt lat="43.06544617417259" lon="11.501078379903467"><ele>321.0</ele><time>2026-04-25T09:48:58Z</time></trkpt><trkpt lat="43.06552702208654" lon="11.500911654399319"><ele>321.0</ele><time>2026-04-25T09:48:59Z</time></trkpt><trkpt lat="43.06560387704154" lon="11.500751710343415"><ele>321.0</ele><time>2026-04-25T09:49:00Z</time></trkpt><trkpt lat="43.06566382191672" lon="11.50058463955735"><ele>321.0</ele><time>2026-04-25T09:49:01Z</time></trkpt><trkpt lat="43.065745249297564" lon="11.500443682520732"><ele>319.25</ele><time>2026-04-25T09:49:02Z</time></trkpt><trkpt lat="43.06584434940639" lon="11.500321147012167"><ele>317.5</ele><time>2026-04-25T09:49:03Z</time></trkpt><trkpt lat="43.065963011221356" lon="11.500220741847091"><ele>315.75</ele><time>2026-04-25T09:49:04Z</time></trkpt><trkpt lat="43.0661023710031" lon="11.500143997376378"><ele>314.0</ele><time>2026-04-25T09:49:05Z</time></trkpt><trkpt lat="43.06624563666471" lon="11.500088992722933"><ele>314.0</ele><time>2026-04-25T09:49:06Z</time></trkpt><trkpt lat="43.066387548524226" lon="11.500040501215627"><ele>314.0</ele><time>2026-04-25T09:49:07.001Z</time></trkpt><trkpt lat="43.066527630763524" lon="11.49999479765239"><ele>314.0</ele><time>2026-04-25T09:49:08.001Z</time></trkpt><trkpt lat="43.066663524347874" lon="11.499943164955088"><ele>314.0</ele><time>2026-04-25T09:49:09.001Z</time></trkpt><trkpt lat="43.06680128299955" lon="11.499881749795302"><ele>311.33333333333337</ele><time>2026-04-25T09:49:10.001Z</time></trkpt><trkpt lat="43.06693846727738" lon="11.499804003327025"><ele>308.6666666666667</ele><time>2026-04-25T09:49:11.001Z</time></trkpt><trkpt lat="43.06708304396382" lon="11.499706934853297"><ele>306.0</ele><time>2026-04-25T09:49:12.001Z</time></trkpt><trkpt lat="43.06723697908854" lon="11.499602704307504"><ele>305.3333333333333</ele><time>2026-04-25T09:49:13.001Z</time></trkpt><trkpt lat="43.06739417139358" lon="11.499495630173223"><ele>304.66666666666663</ele><time>2026-04-25T09:49:14.001Z</time></trkpt><trkpt lat="43.06754253834545" lon="11.499370917601041"><ele>304.0</ele><time>2026-04-25T09:49:15.001Z</time></trkpt><trkpt lat="43.06770848931413" lon="11.4992791569872"><ele>304.0</ele><time>2026-04-25T09:49:16.001Z</time></trkpt><trkpt lat="43.06788266804604" lon="11.499208526879638"><ele>304.0</ele><time>2026-04-25T09:49:17.001Z</time></trkpt><trkpt lat="43.06806350769157" lon="11.499151728488362"><ele>304.0</ele><time>2026-04-25T09:49:18.001Z</time></trkpt><trkpt lat="43.06824774191173" lon="11.499094985493095"><ele>300.66666666666663</ele><time>2026-04-25T09:49:19.001Z</time></trkpt><trkpt lat="43.06843198122073" lon="11.499040052263954"><ele>297.3333333333333</ele><time>2026-04-25T09:49:20.001Z</time></trkpt><trkpt lat="43.06861463427139" lon="11.498985531915016"><ele>294.0</ele><time>2026-04-25T09:49:21.001Z</time></trkpt><trkpt lat="43.06879673309661" lon="11.49892934440239"><ele>294.0</ele><time>2026-04-25T09:49:22.001Z</time></trkpt><trkpt lat="43.06897729283313" lon="11.498872980782805"><ele>294.0</ele><time>2026-04-25T09:49:23.001Z</time></trkpt><trkpt lat="43.069161550763084" lon="11.498816762879894"><ele>294.0</ele><time>2026-04-25T09:49:24.001Z</time></trkpt><trkpt lat="43.06934769577315" lon="11.498759290473021"><ele>292.3333333333333</ele><time>2026-04-25T09:49:25.001Z</time></trkpt><trkpt lat="43.06954085255195" lon="11.498728030217706"><ele>290.66666666666663</ele><time>2026-04-25T09:49:26.001Z</time></trkpt><trkpt lat="43.069729024486215" lon="11.498670523056681"><ele>289.0</ele><time>2026-04-25T09:49:27.001Z</time></trkpt><trkpt lat="43.0699152238618" lon="11.498605482125893"><ele>287.66666666666663</ele><time>2026-04-25T09:49:28.001Z</time></trkpt><trkpt lat="43.070091139481505" lon="11.498504218263307"><ele>286.3333333333333</ele><time>2026-04-25T09:49:29.001Z</time></trkpt><trkpt lat="43.070265974009295" lon="11.498405681283845"><ele>285.0</ele><time>2026-04-25T09:49:30.001Z</time></trkpt><trkpt lat="43.07043162052032" lon="11.498295036540195"><ele>285.0</ele><time>2026-04-25T09:49:31.001Z</time></trkpt><trkpt lat="43.0705942943539" lon="11.498173529586191"><ele>285.0</ele><time>2026-04-25T09:49:32.001Z</time></trkpt><trkpt lat="43.070752454847856" lon="11.498049388280785"><ele>285.0</ele><time>2026-04-25T09:49:33.001Z</time></trkpt><trkpt lat="43.07092145211139" lon="11.497946001395803"><ele>282.3333333333333</ele><time>2026-04-25T09:49:34.001Z</time></trkpt><trkpt lat="43.07108166109729" lon="11.497823934245028"><ele>279.66666666666663</ele><time>2026-04-25T09:49:35.002Z</time></trkpt><trkpt lat="43.07124498448354" lon="11.497699182534213"><ele>277.0</ele><time>2026-04-25T09:49:36.002Z</time></trkpt><trkpt lat="43.07140474797657" lon="11.49757648565141"><ele>277.0</ele><time>2026-04-25T09:49:37.002Z</time></trkpt><trkpt lat="43.07155850576255" lon="11.497458401629707"><ele>277.0</ele><time>2026-04-25T09:49:38.002Z</time></trkpt><trkpt lat="43.07171395577077" lon="11.497339018286143"><ele>277.0</ele><time>2026-04-25T09:49:39.002Z</time></trkpt><trkpt lat="43.07186830455024" lon="11.497221964060541"><ele>278.0</ele><time>2026-04-25T09:49:40.002Z</time></trkpt><trkpt lat="43.072021147603614" lon="11.497106240537413"><ele>279.0</ele><time>2026-04-25T09:49:41.002Z</time></trkpt><trkpt lat="43.0721720831902" lon="11.496991961173002"><ele>280.0</ele><time>2026-04-25T09:49:42.002Z</time></trkpt><trkpt lat="43.07231027817064" lon="11.496850380020183"><ele>278.66666666666663</ele><time>2026-04-25T09:49:43.002Z</time></trkpt><trkpt lat="43.072463138703924" lon="11.496736799388119"><ele>277.3333333333333</ele><time>2026-04-25T09:49:44.002Z</time></trkpt><trkpt lat="43.07261907081306" lon="11.496631498504303"><ele>276.0</ele><time>2026-04-25T09:49:45.002Z</time></trkpt><trkpt lat="43.072776072168764" lon="11.496540145320623"><ele>276.0</ele><time>2026-04-25T09:49:46.002Z</time></trkpt><trkpt lat="43.07294117149829" lon="11.49646269339685"><ele>276.0</ele><time>2026-04-25T09:49:47.002Z</time></trkpt><trkpt lat="43.07311103850415" lon="11.496392061628683"><ele>276.0</ele><time>2026-04-25T09:49:48.002Z</time></trkpt><trkpt lat="43.073283810373674" lon="11.496318784939483"><ele>272.3333333333333</ele><time>2026-04-25T09:49:49.002Z</time></trkpt><trkpt lat="43.07345496407459" lon="11.496245207121728"><ele>268.66666666666663</ele><time>2026-04-25T09:49:50.002Z</time></trkpt><trkpt lat="43.07362408104729" lon="11.496163689824076"><ele>265.0</ele><time>2026-04-25T09:49:51.002Z</time></trkpt><trkpt lat="43.07378908613916" lon="11.496072798946216"><ele>265.0</ele><time>2026-04-25T09:49:52.002Z</time></trkpt><trkpt lat="43.07394939144374" lon="11.496000962610259"><ele>265.0</ele><time>2026-04-25T09:49:53.002Z</time></trkpt><trkpt lat="43.07410008668117" lon="11.495885769988682"><ele>265.0</ele><time>2026-04-25T09:49:54.002Z</time></trkpt><trkpt lat="43.07425132026191" lon="11.495761962003714"><ele>264.66666666666663</ele><time>2026-04-25T09:49:55.002Z</time></trkpt><trkpt lat="43.07439958262875" lon="11.495634581908385"><ele>264.3333333333333</ele><time>2026-04-25T09:49:56.002Z</time></trkpt><trkpt lat="43.074540679140796" lon="11.495489099096215"><ele>264.0</ele><time>2026-04-25T09:49:57.002Z</time></trkpt><trkpt lat="43.074688557044546" lon="11.495361064121004"><ele>262.6666666666667</ele><time>2026-04-25T09:49:58.002Z</time></trkpt><trkpt lat="43.07483477429641" lon="11.495236045323887"><ele>261.33333333333337</ele><time>2026-04-25T09:49:59.002Z</time></trkpt><trkpt lat="43.07497884179352" lon="11.49511069468113"><ele>260.0</ele><time>2026-04-25T09:50:00.002Z</time></trkpt><trkpt lat="43.07512278414429" lon="11.49499725442262"><ele>259.33333333333337</ele><time>2026-04-25T09:50:01.002Z</time></trkpt><trkpt lat="43.07525994789788" lon="11.494881257431807"><ele>258.6666666666667</ele><time>2026-04-25T09:50:02.002Z</time></trkpt><trkpt lat="43.07539982883359" lon="11.494763762878673"><ele>258.0</ele><time>2026-04-25T09:50:03.002Z</time></trkpt><trkpt lat="43.07553359597245" lon="11.49464388207277"><ele>257.0</ele><time>2026-04-25T09:50:04.002Z</time></trkpt><trkpt lat="43.0756638688673" lon="11.494522581070305"><ele>256.0</ele><time>2026-04-25T09:50:05.002Z</time></trkpt><trkpt lat="43.07578702403047" lon="11.494400975711821"><ele>255.0</ele><time>2026-04-25T09:50:06.002Z</time></trkpt><trkpt lat="43.075906659562385" lon="11.494278645652633"><ele>254.5</ele><time>2026-04-25T09:50:07.002Z</time></trkpt><trkpt lat="43.076025243626546" lon="11.494156202364548"><ele>254.0</ele><time>2026-04-25T09:50:08.003Z</time></trkpt><trkpt lat="43.076145578564294" lon="11.494033323623315"><ele>253.5</ele><time>2026-04-25T09:50:09.003Z</time></trkpt><trkpt lat="43.07626578102129" lon="11.493912326166432"><ele>253.0</ele><time>2026-04-25T09:50:10.003Z</time></trkpt><trkpt lat="43.07638548947802" lon="11.493787393340948"><ele>252.75</ele><time>2026-04-25T09:50:11.003Z</time></trkpt><trkpt lat="43.07650520103156" lon="11.493661211904534"><ele>252.5</ele><time>2026-04-25T09:50:12.003Z</time></trkpt><trkpt lat="43.07662242659349" lon="11.493536823439584"><ele>252.25</ele><time>2026-04-25T09:50:13.003Z</time></trkpt><trkpt lat="43.0767375937367" lon="11.493411027324305"><ele>252.0</ele><time>2026-04-25T09:50:14.003Z</time></trkpt><trkpt lat="43.07685732621733" lon="11.49329186501058"><ele>251.75</ele><time>2026-04-25T09:50:15.003Z</time></trkpt><trkpt lat="43.076980484412985" lon="11.493195937042536"><ele>251.5</ele><time>2026-04-25T09:50:16.003Z</time></trkpt><trkpt lat="43.07709756588529" lon="11.493119593835772"><ele>251.25</ele><time>2026-04-25T09:50:17.003Z</time></trkpt><trkpt lat="43.07720695174827" lon="11.493059634274784"><ele>251.0</ele><time>2026-04-25T09:50:18.003Z</time></trkpt><trkpt lat="43.07730617769091" lon="11.493004802879911"><ele>251.0</ele><time>2026-04-25T09:50:19.003Z</time></trkpt><trkpt lat="43.07739239154279" lon="11.492953019167112"><ele>251.00000000000003</ele><time>2026-04-25T09:50:20.003Z</time></trkpt><trkpt lat="43.077463171320794" lon="11.492915105585023"><ele>251.00000000000003</ele><time>2026-04-25T09:50:21.003Z</time></trkpt><trkpt lat="43.07760101183259" lon="11.492850794737157"><ele>251.0</ele><time>2026-04-25T09:50:24.003Z</time></trkpt><trkpt lat="43.07766564927098" lon="11.492860803796816"><ele>251.0</ele><time>2026-04-25T09:50:35.998Z</time></trkpt><trkpt lat="43.077749665300885" lon="11.492952094978616"><ele>250.83333333333334</ele><time>2026-04-25T09:50:37.999Z</time></trkpt><trkpt lat="43.07784897984359" lon="11.493048116006502"><ele>250.66666666666669</ele><time>2026-04-25T09:50:39.999Z</time></trkpt><trkpt lat="43.07790382600782" lon="11.493096345586174"><ele>250.5</ele><time>2026-04-25T09:50:40.999Z</time></trkpt><trkpt lat="43.07795503958303" lon="11.493155815573108"><ele>250.33333333333331</ele><time>2026-04-25T09:50:41.999Z</time></trkpt><trkpt lat="43.078037977886986" lon="11.493258254064894"><ele>250.16666666666666</ele><time>2026-04-25T09:50:43.999Z</time></trkpt><trkpt lat="43.07808842222352" lon="11.493347082969168"><ele>250.0</ele><time>2026-04-25T09:50:45.999Z</time></trkpt><trkpt lat="43.078129765103206" lon="11.493450940858965"><ele>249.99999999999997</ele><time>2026-04-25T09:50:51.999Z</time></trkpt><trkpt lat="43.0781934548734" lon="11.493507093277886"><ele>250.0</ele><time>2026-04-25T09:50:54Z</time></trkpt><trkpt lat="43.078245277905054" lon="11.49357798981365"><ele>250.0</ele><time>2026-04-25T09:50:58Z</time></trkpt><trkpt lat="43.07829237497884" lon="11.493642421046985"><ele>250.0</ele><time>2026-04-25T10:01:33Z</time></trkpt><trkpt lat="43.0783539943184" lon="11.4936999366954"><ele>249.99999999999997</ele><time>2026-04-25T10:02:21.001Z</time></trkpt><trkpt lat="43.0784318508563" lon="11.493809493776245"><ele>250.0</ele><time>2026-04-25T10:02:24.001Z</time></trkpt><trkpt lat="43.07847600317289" lon="11.49387373840959"><ele>250.8</ele><time>2026-04-25T10:02:25.001Z</time></trkpt><trkpt lat="43.07852355339177" lon="11.493947952357166"><ele>251.6</ele><time>2026-04-25T10:02:26.001Z</time></trkpt><trkpt lat="43.078601093385345" lon="11.494086382681182"><ele>252.39999999999998</ele><time>2026-04-25T10:02:28.001Z</time></trkpt><trkpt lat="43.07864462085695" lon="11.494176867162151"><ele>253.2</ele><time>2026-04-25T10:02:29.001Z</time></trkpt><trkpt lat="43.07868877044954" lon="11.494277116272372"><ele>254.0</ele><time>2026-04-25T10:02:30.001Z</time></trkpt><trkpt lat="43.07874348354046" lon="11.494382532280314"><ele>254.0</ele><time>2026-04-25T10:02:31.001Z</time></trkpt><trkpt lat="43.078787577077144" lon="11.4944933147637"><ele>253.99999999999997</ele><time>2026-04-25T10:02:32.001Z</time></trkpt><trkpt lat="43.07881231016894" lon="11.494621009766991"><ele>253.99999999999997</ele><time>2026-04-25T10:02:33.001Z</time></trkpt><trkpt lat="43.078867009717" lon="11.494729824873879"><ele>254.0</ele><time>2026-04-25T10:02:34.001Z</time></trkpt><trkpt lat="43.078890619917914" lon="11.494854661468377"><ele>254.0</ele><time>2026-04-25T10:02:35.001Z</time></trkpt><trkpt lat="43.07893066917528" lon="11.494974830976934"><ele>254.00000000000003</ele><time>2026-04-25T10:02:36.001Z</time></trkpt><trkpt lat="43.078968805243626" lon="11.495089259856396"><ele>254.0</ele><time>2026-04-25T10:02:37.001Z</time></trkpt><trkpt lat="43.07900656484356" lon="11.495202559164293"><ele>254.0</ele><time>2026-04-25T10:02:38.002Z</time></trkpt><trkpt lat="43.07904112130816" lon="11.49530589611539"><ele>254.0</ele><time>2026-04-25T10:02:39.002Z</time></trkpt><trkpt lat="43.079074404649056" lon="11.495404636695435"><ele>254.00000000000003</ele><time>2026-04-25T10:02:40.002Z</time></trkpt><trkpt lat="43.0791094933376" lon="11.495508733192523"><ele>254.0</ele><time>2026-04-25T10:02:41.002Z</time></trkpt><trkpt lat="43.07914669719008" lon="11.495618160480577"><ele>255.33333333333334</ele><time>2026-04-25T10:02:42.002Z</time></trkpt><trkpt lat="43.079185196364996" lon="11.495730223970025"><ele>256.6666666666667</ele><time>2026-04-25T10:02:43.002Z</time></trkpt><trkpt lat="43.07923761321826" lon="11.495832833384382"><ele>258.0</ele><time>2026-04-25T10:02:44.002Z</time></trkpt><trkpt lat="43.07927338527371" lon="11.495945882384303"><ele>259.3333333333333</ele><time>2026-04-25T10:02:45.002Z</time></trkpt><trkpt lat="43.07931118706983" lon="11.496053063788185"><ele>260.66666666666663</ele><time>2026-04-25T10:02:46.002Z</time></trkpt><trkpt lat="43.07934687162225" lon="11.496159897228036"><ele>262.0</ele><time>2026-04-25T10:02:47.002Z</time></trkpt><trkpt lat="43.07938251548887" lon="11.496267194521264"><ele>262.5</ele><time>2026-04-25T10:02:48.002Z</time></trkpt><trkpt lat="43.07941931908327" lon="11.496373618440959"><ele>263.0</ele><time>2026-04-25T10:02:49.002Z</time></trkpt><trkpt lat="43.07945194068953" lon="11.496475822230453"><ele>263.5</ele><time>2026-04-25T10:02:50.002Z</time></trkpt><trkpt lat="43.07947716537683" lon="11.496572183186244"><ele>264.0</ele><time>2026-04-25T10:02:51.002Z</time></trkpt><trkpt lat="43.07949639246327" lon="11.496675293503493"><ele>264.5</ele><time>2026-04-25T10:02:52.002Z</time></trkpt><trkpt lat="43.07951350807677" lon="11.496789583329065"><ele>265.0</ele><time>2026-04-25T10:02:53.002Z</time></trkpt><trkpt lat="43.07952492466249" lon="11.496899114531107"><ele>265.0</ele><time>2026-04-25T10:02:54.002Z</time></trkpt><trkpt lat="43.079534105344045" lon="11.49701263469823"><ele>265.0</ele><time>2026-04-25T10:02:55.002Z</time></trkpt><trkpt lat="43.07954937510888" lon="11.497136165347168"><ele>265.0</ele><time>2026-04-25T10:02:56.002Z</time></trkpt><trkpt lat="43.07957554548829" lon="11.497266539666471"><ele>265.0</ele><time>2026-04-25T10:02:57.002Z</time></trkpt><trkpt lat="43.079609215428555" lon="11.497400213673998"><ele>265.0</ele><time>2026-04-25T10:02:58.002Z</time></trkpt><trkpt lat="43.07965452485383" lon="11.49754028883712"><ele>264.5</ele><time>2026-04-25T10:02:59.002Z</time></trkpt><trkpt lat="43.07969764729786" lon="11.497693211995239"><ele>264.0</ele><time>2026-04-25T10:03:00.002Z</time></trkpt><trkpt lat="43.07974762236279" lon="11.497844463569578"><ele>263.5</ele><time>2026-04-25T10:03:01.002Z</time></trkpt><trkpt lat="43.07979285206969" lon="11.49799533443975"><ele>263.0</ele><time>2026-04-25T10:03:02.002Z</time></trkpt><trkpt lat="43.079834270666986" lon="11.498140599663202"><ele>262.4</ele><time>2026-04-25T10:03:03.002Z</time></trkpt><trkpt lat="43.079875244573195" lon="11.498275993270507"><ele>261.8</ele><time>2026-04-25T10:03:04.002Z</time></trkpt><trkpt lat="43.07991930451792" lon="11.49840565428705"><ele>261.2</ele><time>2026-04-25T10:03:05.002Z</time></trkpt><trkpt lat="43.07996745909694" lon="11.498528279785099"><ele>260.6</ele><time>2026-04-25T10:03:06.002Z</time></trkpt><trkpt lat="43.08002566932907" lon="11.498637248615847"><ele>260.0</ele><time>2026-04-25T10:03:07.002Z</time></trkpt><trkpt lat="43.08009832159126" lon="11.498743126403753"><ele>262.0</ele><time>2026-04-25T10:03:08.002Z</time></trkpt><trkpt lat="43.080182659999195" lon="11.4988687720601"><ele>264.0</ele><time>2026-04-25T10:03:09.002Z</time></trkpt><trkpt lat="43.08026205191991" lon="11.498995921661923"><ele>266.0</ele><time>2026-04-25T10:03:10.002Z</time></trkpt><trkpt lat="43.08035053236497" lon="11.49911853540568"><ele>268.0</ele><time>2026-04-25T10:03:11.002Z</time></trkpt><trkpt lat="43.0804471552621" lon="11.499251643298642"><ele>268.0</ele><time>2026-04-25T10:03:11.999Z</time></trkpt><trkpt lat="43.08053575700932" lon="11.499382377708784"><ele>268.0</ele><time>2026-04-25T10:03:12.999Z</time></trkpt><trkpt lat="43.08062369002354" lon="11.49951618665613"><ele>268.0</ele><time>2026-04-25T10:03:13.999Z</time></trkpt><trkpt lat="43.08070745078461" lon="11.499653600577538"><ele>268.0</ele><time>2026-04-25T10:03:14.999Z</time></trkpt><trkpt lat="43.08079260360932" lon="11.499790743686097"><ele>268.0</ele><time>2026-04-25T10:03:15.999Z</time></trkpt><trkpt lat="43.08088081869536" lon="11.499922280716746"><ele>268.0</ele><time>2026-04-25T10:03:16.999Z</time></trkpt><trkpt lat="43.080968400837676" lon="11.500041591669788"><ele>268.0</ele><time>2026-04-25T10:03:17.999Z</time></trkpt><trkpt lat="43.081055910975394" lon="11.500145947377375"><ele>268.0</ele><time>2026-04-25T10:03:18.999Z</time></trkpt><trkpt lat="43.081147097811844" lon="11.500225768926818"><ele>268.0</ele><time>2026-04-25T10:03:19.999Z</time></trkpt><trkpt lat="43.081247336011664" lon="11.500278728736678"><ele>268.0</ele><time>2026-04-25T10:03:20.999Z</time></trkpt><trkpt lat="43.081363260215234" lon="11.500316648425986"><ele>268.0</ele><time>2026-04-25T10:03:21.999Z</time></trkpt><trkpt lat="43.08148678587842" lon="11.500348014356923"><ele>268.0</ele><time>2026-04-25T10:03:22.999Z</time></trkpt><trkpt lat="43.08161521163118" lon="11.50037956169915"><ele>267.75</ele><time>2026-04-25T10:03:23.999Z</time></trkpt><trkpt lat="43.08174698133027" lon="11.500397601105625"><ele>267.5</ele><time>2026-04-25T10:03:24.999Z</time></trkpt><trkpt lat="43.08187649428689" lon="11.500436021155188"><ele>267.25</ele><time>2026-04-25T10:03:25.999Z</time></trkpt><trkpt lat="43.08200798119873" lon="11.500464844420062"><ele>267.0</ele><time>2026-04-25T10:03:26.999Z</time></trkpt><trkpt lat="43.0821407078513" lon="11.500506387929263"><ele>267.0</ele><time>2026-04-25T10:03:27.999Z</time></trkpt><trkpt lat="43.08226609165162" lon="11.50057588647784"><ele>267.0</ele><time>2026-04-25T10:03:28.999Z</time></trkpt><trkpt lat="43.082398664447446" lon="11.5006372232603"><ele>267.0</ele><time>2026-04-25T10:03:29.999Z</time></trkpt><trkpt lat="43.082529895450726" lon="11.500672038381317"><ele>267.0</ele><time>2026-04-25T10:03:30.999Z</time></trkpt><trkpt lat="43.08265636957266" lon="11.500755752912179"><ele>267.75</ele><time>2026-04-25T10:03:31.999Z</time></trkpt><trkpt lat="43.08278124464576" lon="11.500830789167578"><ele>268.5</ele><time>2026-04-25T10:03:32.999Z</time></trkpt><trkpt lat="43.082901980368064" lon="11.500905219778968"><ele>269.25</ele><time>2026-04-25T10:03:33.999Z</time></trkpt><trkpt lat="43.08302479441019" lon="11.500974668014935"><ele>270.0</ele><time>2026-04-25T10:03:34.999Z</time></trkpt><trkpt lat="43.08314430493003" lon="11.501017939484637"><ele>270.0</ele><time>2026-04-25T10:03:36Z</time></trkpt><trkpt lat="43.08324650189977" lon="11.501085857986572"><ele>270.0</ele><time>2026-04-25T10:03:37Z</time></trkpt><trkpt lat="43.08334510529359" lon="11.501133568477478"><ele>270.0</ele><time>2026-04-25T10:03:38Z</time></trkpt><trkpt lat="43.08344641554837" lon="11.501196688665987"><ele>270.0</ele><time>2026-04-25T10:03:39Z</time></trkpt><trkpt lat="43.08354187015049" lon="11.501242956711815"><ele>270.0</ele><time>2026-04-25T10:03:40Z</time></trkpt><trkpt lat="43.08363134316086" lon="11.501301809981753"><ele>269.4</ele><time>2026-04-25T10:03:41Z</time></trkpt><trkpt lat="43.083721543588894" lon="11.50135481787307"><ele>268.8</ele><time>2026-04-25T10:03:42Z</time></trkpt><trkpt lat="43.08381049773743" lon="11.501404208162056"><ele>268.2</ele><time>2026-04-25T10:03:43Z</time></trkpt><trkpt lat="43.083893837139534" lon="11.501476041794525"><ele>267.6</ele><time>2026-04-25T10:03:44Z</time></trkpt><trkpt lat="43.08398700853337" lon="11.50151178494898"><ele>267.0</ele><time>2026-04-25T10:03:45Z</time></trkpt><trkpt lat="43.08406314775043" lon="11.501571559479435"><ele>267.1666666666667</ele><time>2026-04-25T10:03:46Z</time></trkpt><trkpt lat="43.08412595617435" lon="11.50160870300505"><ele>267.3333333333333</ele><time>2026-04-25T10:03:47Z</time></trkpt><trkpt lat="43.084209359684955" lon="11.501689114148252"><ele>267.5</ele><time>2026-04-25T10:03:49Z</time></trkpt><trkpt lat="43.084270594669" lon="11.501727973569816"><ele>267.66666666666663</ele><time>2026-04-25T10:03:51Z</time></trkpt><trkpt lat="43.08421555976384" lon="11.501892630283065"><ele>267.8333333333333</ele><time>2026-04-25T10:03:53Z</time></trkpt><trkpt lat="43.084198414649535" lon="11.501995914462203"><ele>268.0</ele><time>2026-04-25T10:03:55Z</time></trkpt><trkpt lat="43.08415109873415" lon="11.502142802868196"><ele>268.0</ele><time>2026-04-25T10:03:57Z</time></trkpt><trkpt lat="43.08412561443927" lon="11.502226506997737"><ele>268.0</ele><time>2026-04-25T10:03:58Z</time></trkpt><trkpt lat="43.08407925523775" lon="11.502384616509588"><ele>268.0</ele><time>2026-04-25T10:04:00Z</time></trkpt><trkpt lat="43.08405716783701" lon="11.502474152533646"><ele>268.0</ele><time>2026-04-25T10:04:01Z</time></trkpt><trkpt lat="43.084019489265266" lon="11.502558836331618"><ele>268.0</ele><time>2026-04-25T10:04:02Z</time></trkpt><trkpt lat="43.08401483701697" lon="11.50265535848112"><ele>268.0</ele><time>2026-04-25T10:04:03Z</time></trkpt><trkpt lat="43.084013153429936" lon="11.502745078004857"><ele>268.0</ele><time>2026-04-25T10:04:04Z</time></trkpt><trkpt lat="43.083999744766786" lon="11.50286090172277"><ele>268.0</ele><time>2026-04-25T10:04:05Z</time></trkpt><trkpt lat="43.08402107756034" lon="11.502988700836369"><ele>268.0</ele><time>2026-04-25T10:04:06Z</time></trkpt><trkpt lat="43.084036111525926" lon="11.503130140799344"><ele>268.0</ele><time>2026-04-25T10:04:07Z</time></trkpt><trkpt lat="43.08404759756075" lon="11.503264299162893"><ele>268.0</ele><time>2026-04-25T10:04:08.001Z</time></trkpt><trkpt lat="43.08405132518778" lon="11.503391090876338"><ele>269.2</ele><time>2026-04-25T10:04:09.001Z</time></trkpt><trkpt lat="43.08404525845485" lon="11.50351627585243"><ele>270.4</ele><time>2026-04-25T10:04:10.001Z</time></trkpt><trkpt lat="43.08402465812394" lon="11.50363655727028"><ele>271.59999999999997</ele><time>2026-04-25T10:04:11.001Z</time></trkpt><trkpt lat="43.083992984142355" lon="11.503755341478355"><ele>272.8</ele><time>2026-04-25T10:04:12.001Z</time></trkpt><trkpt lat="43.0839565910067" lon="11.503866726953436"><ele>274.0</ele><time>2026-04-25T10:04:13.001Z</time></trkpt><trkpt lat="43.08391260445704" lon="11.503981683345867"><ele>274.8333333333333</ele><time>2026-04-25T10:04:14.001Z</time></trkpt><trkpt lat="43.08386455701644" lon="11.504082692776512"><ele>275.66666666666663</ele><time>2026-04-25T10:04:15.001Z</time></trkpt><trkpt lat="43.08381354515009" lon="11.504179315829697"><ele>276.5</ele><time>2026-04-25T10:04:16.001Z</time></trkpt><trkpt lat="43.08374750906875" lon="11.50424165395138"><ele>277.3333333333333</ele><time>2026-04-25T10:04:17.001Z</time></trkpt><trkpt lat="43.08368410224435" lon="11.504293380743652"><ele>278.1666666666667</ele><time>2026-04-25T10:04:18.001Z</time></trkpt><trkpt lat="43.08361723207472" lon="11.504291822843392"><ele>279.0</ele><time>2026-04-25T10:04:19.001Z</time></trkpt><trkpt lat="43.08354558686181" lon="11.504281110620461"><ele>279.0</ele><time>2026-04-25T10:04:20.001Z</time></trkpt><trkpt lat="43.08345041502654" lon="11.50426060532093"><ele>279.0</ele><time>2026-04-25T10:04:21.001Z</time></trkpt><trkpt lat="43.083342633063" lon="11.504223841904894"><ele>279.0</ele><time>2026-04-25T10:04:22.001Z</time></trkpt><trkpt lat="43.08324063709134" lon="11.504223305394174"><ele>279.0</ele><time>2026-04-25T10:04:23.001Z</time></trkpt><trkpt lat="43.083158651457325" lon="11.504190163624262"><ele>279.0</ele><time>2026-04-25T10:04:24.001Z</time></trkpt><trkpt lat="43.08307477466156" lon="11.504205508570957"><ele>280.8</ele><time>2026-04-25T10:04:25.001Z</time></trkpt><trkpt lat="43.082998822245784" lon="11.504239095976656"><ele>282.59999999999997</ele><time>2026-04-25T10:04:26.001Z</time></trkpt><trkpt lat="43.082929975571304" lon="11.504322430622063"><ele>284.4</ele><time>2026-04-25T10:04:27.001Z</time></trkpt><trkpt lat="43.08288172525142" lon="11.504435428993348"><ele>286.2</ele><time>2026-04-25T10:04:28.001Z</time></trkpt><trkpt lat="43.08282195111237" lon="11.504547132330872"><ele>288.0</ele><time>2026-04-25T10:04:29.001Z</time></trkpt><trkpt lat="43.08276023234768" lon="11.504665288512456"><ele>289.25</ele><time>2026-04-25T10:04:30.001Z</time></trkpt><trkpt lat="43.08269341416972" lon="11.504784866302971"><ele>290.5</ele><time>2026-04-25T10:04:31.001Z</time></trkpt><trkpt lat="43.08262012531858" lon="11.504912458069567"><ele>291.75</ele><time>2026-04-25T10:04:32.001Z</time></trkpt><trkpt lat="43.08254315112476" lon="11.505047916764068"><ele>293.0</ele><time>2026-04-25T10:04:33.001Z</time></trkpt><trkpt lat="43.08248139579034" lon="11.505154540021023"><ele>293.2</ele><time>2026-04-25T10:04:34.001Z</time></trkpt><trkpt lat="43.08241824827357" lon="11.505252969340235"><ele>293.4</ele><time>2026-04-25T10:04:35.001Z</time></trkpt><trkpt lat="43.08235856639231" lon="11.505362249623017"><ele>293.59999999999997</ele><time>2026-04-25T10:04:36.001Z</time></trkpt><trkpt lat="43.082294612423496" lon="11.505472466522507"><ele>293.8</ele><time>2026-04-25T10:04:37.001Z</time></trkpt><trkpt lat="43.08222900130857" lon="11.505587563501287"><ele>294.0</ele><time>2026-04-25T10:04:38.001Z</time></trkpt><trkpt lat="43.082159476351485" lon="11.50570192434378"><ele>295.5</ele><time>2026-04-25T10:04:39.001Z</time></trkpt><trkpt lat="43.08208141810146" lon="11.50581171282278"><ele>297.0</ele><time>2026-04-25T10:04:40.001Z</time></trkpt><trkpt lat="43.08201776207786" lon="11.505949461166145"><ele>298.5</ele><time>2026-04-25T10:04:41.001Z</time></trkpt><trkpt lat="43.081945802157804" lon="11.50607637790397"><ele>300.0</ele><time>2026-04-25T10:04:42.001Z</time></trkpt><trkpt lat="43.08187234142062" lon="11.506200958617708"><ele>300.0</ele><time>2026-04-25T10:04:43.001Z</time></trkpt><trkpt lat="43.08180184506277" lon="11.50632087978877"><ele>300.0</ele><time>2026-04-25T10:04:44.001Z</time></trkpt><trkpt lat="43.08173071708374" lon="11.506440281555502"><ele>300.0</ele><time>2026-04-25T10:04:45.001Z</time></trkpt><trkpt lat="43.08166046550817" lon="11.506560051873475"><ele>300.0</ele><time>2026-04-25T10:04:46.001Z</time></trkpt><trkpt lat="43.08160187464814" lon="11.506663801457368"><ele>300.0</ele><time>2026-04-25T10:04:47.001Z</time></trkpt><trkpt lat="43.08155125759505" lon="11.506752096407022"><ele>299.4</ele><time>2026-04-25T10:04:48.001Z</time></trkpt><trkpt lat="43.08150286054567" lon="11.50684227245531"><ele>298.8</ele><time>2026-04-25T10:04:49.002Z</time></trkpt><trkpt lat="43.08144008183223" lon="11.506941902309347"><ele>298.2</ele><time>2026-04-25T10:04:50.002Z</time></trkpt><trkpt lat="43.08136357810933" lon="11.507061773615115"><ele>297.6</ele><time>2026-04-25T10:04:51.002Z</time></trkpt><trkpt lat="43.08126069319333" lon="11.507219762705484"><ele>297.0</ele><time>2026-04-25T10:04:52.002Z</time></trkpt><trkpt lat="43.08113642619013" lon="11.507400918504002"><ele>300.0</ele><time>2026-04-25T10:04:53.002Z</time></trkpt><trkpt lat="43.081028417967254" lon="11.507624712883873"><ele>303.0</ele><time>2026-04-25T10:04:54.002Z</time></trkpt><trkpt lat="43.080922942894674" lon="11.507803046967116"><ele>306.0</ele><time>2026-04-25T10:04:55.002Z</time></trkpt><trkpt lat="43.08082359739284" lon="11.507947157827262"><ele>306.25</ele><time>2026-04-25T10:04:56.002Z</time></trkpt><trkpt lat="43.0807453525616" lon="11.508101113512302"><ele>306.5</ele><time>2026-04-25T10:04:57.002Z</time></trkpt><trkpt lat="43.080662111082304" lon="11.50825030956581"><ele>306.75</ele><time>2026-04-25T10:04:58.002Z</time></trkpt><trkpt lat="43.080579480323465" lon="11.50839136794064"><ele>307.0</ele><time>2026-04-25T10:04:59.002Z</time></trkpt><trkpt lat="43.080500634774" lon="11.508534341218098"><ele>307.0</ele><time>2026-04-25T10:05:00.002Z</time></trkpt><trkpt lat="43.08042398470577" lon="11.508684891045267"><ele>307.0</ele><time>2026-04-25T10:05:01.002Z</time></trkpt><trkpt lat="43.08035745692835" lon="11.508821913486996"><ele>307.0</ele><time>2026-04-25T10:05:02.002Z</time></trkpt><trkpt lat="43.08029216041192" lon="11.50895564328468"><ele>307.0</ele><time>2026-04-25T10:05:03.002Z</time></trkpt><trkpt lat="43.08023065859763" lon="11.509089516302176"><ele>307.2</ele><time>2026-04-25T10:05:04.002Z</time></trkpt><trkpt lat="43.08017309880467" lon="11.509224703942913"><ele>307.4</ele><time>2026-04-25T10:05:05.002Z</time></trkpt><trkpt lat="43.080117910866356" lon="11.509351529599925"><ele>307.6</ele><time>2026-04-25T10:05:06.002Z</time></trkpt><trkpt lat="43.080061149333886" lon="11.509482023351465"><ele>307.8</ele><time>2026-04-25T10:05:07.002Z</time></trkpt><trkpt lat="43.08000424700188" lon="11.509619599989936"><ele>308.0</ele><time>2026-04-25T10:05:08.002Z</time></trkpt><trkpt lat="43.079954238167836" lon="11.509755316099472"><ele>306.0</ele><time>2026-04-25T10:05:09.002Z</time></trkpt><trkpt lat="43.07991961099513" lon="11.50989358278014"><ele>304.0</ele><time>2026-04-25T10:05:10.002Z</time></trkpt><trkpt lat="43.07989802193488" lon="11.510030361913147"><ele>302.0</ele><time>2026-04-25T10:05:11.002Z</time></trkpt><trkpt lat="43.07988784982194" lon="11.510161200588772"><ele>300.0</ele><time>2026-04-25T10:05:12.002Z</time></trkpt><trkpt lat="43.07988298998512" lon="11.510287431473182"><ele>298.0</ele><time>2026-04-25T10:05:13.002Z</time></trkpt><trkpt lat="43.07988983288954" lon="11.510415357007433"><ele>297.8</ele><time>2026-04-25T10:05:14.002Z</time></trkpt><trkpt lat="43.07989851301155" lon="11.510546993545317"><ele>297.6</ele><time>2026-04-25T10:05:15.002Z</time></trkpt><trkpt lat="43.07989770497502" lon="11.510685718719238"><ele>297.4</ele><time>2026-04-25T10:05:16.002Z</time></trkpt><trkpt lat="43.079909125753346" lon="11.510828576565272"><ele>297.2</ele><time>2026-04-25T10:05:17.002Z</time></trkpt><trkpt lat="43.07992763923749" lon="11.510973400466991"><ele>297.0</ele><time>2026-04-25T10:05:17.998Z</time></trkpt><trkpt lat="43.07994008682072" lon="11.511119442622261"><ele>300.25</ele><time>2026-04-25T10:05:18.997Z</time></trkpt><trkpt lat="43.079960181593" lon="11.511265154931392"><ele>303.5</ele><time>2026-04-25T10:05:19.998Z</time></trkpt><trkpt lat="43.079996649595515" lon="11.511417897683202"><ele>306.75</ele><time>2026-04-25T10:05:20.998Z</time></trkpt><trkpt lat="43.080045102458435" lon="11.51156514489382"><ele>310.0</ele><time>2026-04-25T10:05:21.998Z</time></trkpt><trkpt lat="43.08011261716464" lon="11.511696966791781"><ele>310.0</ele><time>2026-04-25T10:05:22.998Z</time></trkpt><trkpt lat="43.08018900203621" lon="11.511824175189517"><ele>310.0</ele><time>2026-04-25T10:05:23.998Z</time></trkpt><trkpt lat="43.08026802859503" lon="11.511955247380442"><ele>310.0</ele><time>2026-04-25T10:05:24.998Z</time></trkpt><trkpt lat="43.08035036248823" lon="11.512099421774327"><ele>310.0</ele><time>2026-04-25T10:05:25.998Z</time></trkpt><trkpt lat="43.08043072859435" lon="11.512242594650013"><ele>310.5</ele><time>2026-04-25T10:05:26.998Z</time></trkpt><trkpt lat="43.08050413037903" lon="11.512391061560157"><ele>311.0</ele><time>2026-04-25T10:05:27.998Z</time></trkpt><trkpt lat="43.08058775096333" lon="11.512534775318471"><ele>311.5</ele><time>2026-04-25T10:05:28.998Z</time></trkpt><trkpt lat="43.080663698776654" lon="11.512675250901676"><ele>312.0</ele><time>2026-04-25T10:05:29.998Z</time></trkpt><trkpt lat="43.080737322093256" lon="11.512814309649087"><ele>314.4</ele><time>2026-04-25T10:05:30.998Z</time></trkpt><trkpt lat="43.08080519635391" lon="11.5129371111723"><ele>316.79999999999995</ele><time>2026-04-25T10:05:31.998Z</time></trkpt><trkpt lat="43.08086977634102" lon="11.513036987684126"><ele>319.2</ele><time>2026-04-25T10:05:32.998Z</time></trkpt><trkpt lat="43.0809332650833" lon="11.513111141372816"><ele>321.59999999999997</ele><time>2026-04-25T10:05:33.998Z</time></trkpt><trkpt lat="43.08099927417598" lon="11.513198598295132"><ele>324.0</ele><time>2026-04-25T10:05:34.998Z</time></trkpt><trkpt lat="43.081088599765685" lon="11.513231832959981"><ele>324.0</ele><time>2026-04-25T10:05:35.998Z</time></trkpt><trkpt lat="43.081177905936094" lon="11.513267404340475"><ele>324.0</ele><time>2026-04-25T10:05:36.999Z</time></trkpt><trkpt lat="43.08128049443016" lon="11.513308266180907"><ele>324.0</ele><time>2026-04-25T10:05:37.999Z</time></trkpt><trkpt lat="43.08141703962782" lon="11.51317611682023"><ele>324.0</ele><time>2026-04-25T10:05:38.999Z</time></trkpt><trkpt lat="43.08151442231147" lon="11.513191247637144"><ele>324.5</ele><time>2026-04-25T10:05:39.999Z</time></trkpt><trkpt lat="43.08159925329393" lon="11.513232208050237"><ele>325.0</ele><time>2026-04-25T10:05:40.999Z</time></trkpt><trkpt lat="43.08167490214554" lon="11.51329534143282"><ele>325.5</ele><time>2026-04-25T10:05:41.999Z</time></trkpt><trkpt lat="43.08174256689175" lon="11.513371438070958"><ele>326.0</ele><time>2026-04-25T10:05:42.999Z</time></trkpt><trkpt lat="43.08180594297888" lon="11.513454481151019"><ele>326.5</ele><time>2026-04-25T10:05:43.999Z</time></trkpt><trkpt lat="43.08187132361519" lon="11.51354251038166"><ele>327.0</ele><time>2026-04-25T10:05:44.999Z</time></trkpt><trkpt lat="43.08194089910323" lon="11.513637794446108"><ele>327.25</ele><time>2026-04-25T10:05:45.999Z</time></trkpt><trkpt lat="43.08202121559818" lon="11.513749281166792"><ele>327.5</ele><time>2026-04-25T10:05:46.999Z</time></trkpt><trkpt lat="43.08210723223069" lon="11.513872491441653"><ele>327.75</ele><time>2026-04-25T10:05:47.999Z</time></trkpt><trkpt lat="43.08218819172363" lon="11.513988733107386"><ele>328.0</ele><time>2026-04-25T10:05:48.999Z</time></trkpt><trkpt lat="43.08226889505465" lon="11.514102214810535"><ele>328.0</ele><time>2026-04-25T10:05:49.999Z</time></trkpt><trkpt lat="43.0823492663319" lon="11.514204661742502"><ele>328.0</ele><time>2026-04-25T10:05:50.999Z</time></trkpt><trkpt lat="43.082440170059286" lon="11.514296970074758"><ele>328.0</ele><time>2026-04-25T10:05:51.999Z</time></trkpt><trkpt lat="43.08252854961108" lon="11.514387756243597"><ele>328.0</ele><time>2026-04-25T10:05:52.999Z</time></trkpt><trkpt lat="43.0826285968304" lon="11.51447605844621"><ele>327.75</ele><time>2026-04-25T10:05:53.999Z</time></trkpt><trkpt lat="43.0827263641947" lon="11.51456403361696"><ele>327.5</ele><time>2026-04-25T10:05:55Z</time></trkpt><trkpt lat="43.082828351013696" lon="11.514654017439227"><ele>327.25</ele><time>2026-04-25T10:05:56Z</time></trkpt><trkpt lat="43.08291831210001" lon="11.514733500758881"><ele>327.0</ele><time>2026-04-25T10:05:57Z</time></trkpt><trkpt lat="43.08301168150287" lon="11.514809591221463"><ele>327.0</ele><time>2026-04-25T10:05:58Z</time></trkpt><trkpt lat="43.08309709222938" lon="11.51487082269648"><ele>327.0</ele><time>2026-04-25T10:05:59Z</time></trkpt><trkpt lat="43.08317216964642" lon="11.514921355281936"><ele>327.0</ele><time>2026-04-25T10:06:00Z</time></trkpt><trkpt lat="43.08324510203042" lon="11.514954964169746"><ele>327.0</ele><time>2026-04-25T10:06:01Z</time></trkpt><trkpt lat="43.08331094985459" lon="11.514979955142762"><ele>327.0</ele><time>2026-04-25T10:06:02Z</time></trkpt><trkpt lat="43.083424159201485" lon="11.515025183834759"><ele>327.0</ele><time>2026-04-25T10:06:04Z</time></trkpt><trkpt lat="43.08353518402547" lon="11.515051192822781"><ele>326.40000000000003</ele><time>2026-04-25T10:06:06Z</time></trkpt><trkpt lat="43.08364683307949" lon="11.515075306931893"><ele>325.8</ele><time>2026-04-25T10:06:08Z</time></trkpt><trkpt lat="43.08376452097872" lon="11.515091213207425"><ele>325.2</ele><time>2026-04-25T10:06:10Z</time></trkpt><trkpt lat="43.08383418517774" lon="11.51509011776221"><ele>324.6</ele><time>2026-04-25T10:06:11Z</time></trkpt><trkpt lat="43.08391105997686" lon="11.51507487810364"><ele>324.0</ele><time>2026-04-25T10:06:12Z</time></trkpt><trkpt lat="43.08399314234899" lon="11.515033474764515"><ele>324.0</ele><time>2026-04-25T10:06:13Z</time></trkpt><trkpt lat="43.0840878489252" lon="11.514974555611937"><ele>324.0</ele><time>2026-04-25T10:06:14Z</time></trkpt><trkpt lat="43.08418643823041" lon="11.514913055863579"><ele>324.0</ele><time>2026-04-25T10:06:15Z</time></trkpt><trkpt lat="43.084282454830124" lon="11.514868500513836"><ele>324.0</ele><time>2026-04-25T10:06:16Z</time></trkpt><trkpt lat="43.08438173956976" lon="11.514838274805241"><ele>324.0</ele><time>2026-04-25T10:06:17Z</time></trkpt><trkpt lat="43.08449784229263" lon="11.514825241723273"><ele>323.25</ele><time>2026-04-25T10:06:18Z</time></trkpt><trkpt lat="43.084629552209016" lon="11.514823498745141"><ele>322.5</ele><time>2026-04-25T10:06:19Z</time></trkpt><trkpt lat="43.084778855179124" lon="11.5148315144728"><ele>321.75</ele><time>2026-04-25T10:06:20Z</time></trkpt><trkpt lat="43.084914919782115" lon="11.514839896027945"><ele>321.0</ele><time>2026-04-25T10:06:21Z</time></trkpt><trkpt lat="43.08502935903379" lon="11.514846233652708"><ele>320.2</ele><time>2026-04-25T10:06:22.001Z</time></trkpt><trkpt lat="43.08513516446121" lon="11.514851339358039"><ele>319.40000000000003</ele><time>2026-04-25T10:06:23.001Z</time></trkpt><trkpt lat="43.0852322495694" lon="11.514861476046796"><ele>318.6</ele><time>2026-04-25T10:06:24.001Z</time></trkpt><trkpt lat="43.08532214496077" lon="11.514886281414773"><ele>317.8</ele><time>2026-04-25T10:06:25.001Z</time></trkpt><trkpt lat="43.08541427561456" lon="11.5149285813581"><ele>317.0</ele><time>2026-04-25T10:06:26.001Z</time></trkpt><trkpt lat="43.08550770039615" lon="11.514986419595497"><ele>317.0</ele><time>2026-04-25T10:06:27.001Z</time></trkpt><trkpt lat="43.085593526344866" lon="11.515058942106636"><ele>317.0</ele><time>2026-04-25T10:06:28.001Z</time></trkpt><trkpt lat="43.085670616580295" lon="11.515155990397254"><ele>317.0</ele><time>2026-04-25T10:06:29.001Z</time></trkpt><trkpt lat="43.085735694141036" lon="11.515269633133759"><ele>317.0</ele><time>2026-04-25T10:06:30.001Z</time></trkpt><trkpt lat="43.08579190024573" lon="11.515371591693645"><ele>317.0</ele><time>2026-04-25T10:06:31.001Z</time></trkpt><trkpt lat="43.08585281559487" lon="11.515464549364046"><ele>316.0</ele><time>2026-04-25T10:06:32.001Z</time></trkpt><trkpt lat="43.08592484871637" lon="11.51554093570856"><ele>315.0</ele><time>2026-04-25T10:06:33.001Z</time></trkpt><trkpt lat="43.08600593629498" lon="11.515603677458857"><ele>314.0</ele><time>2026-04-25T10:06:34.001Z</time></trkpt><trkpt lat="43.08608613837645" lon="11.515656076733316"><ele>313.0</ele><time>2026-04-25T10:06:35.001Z</time></trkpt><trkpt lat="43.08616402973162" lon="11.515718671742428"><ele>312.0</ele><time>2026-04-25T10:06:36.001Z</time></trkpt><trkpt lat="43.086239956130036" lon="11.515795437627816"><ele>312.0</ele><time>2026-04-25T10:06:37.001Z</time></trkpt><trkpt lat="43.08631168155573" lon="11.515895971064513"><ele>312.0</ele><time>2026-04-25T10:06:38.001Z</time></trkpt><trkpt lat="43.0863793316665" lon="11.516004305575102"><ele>312.0</ele><time>2026-04-25T10:06:39.001Z</time></trkpt><trkpt lat="43.086435958184744" lon="11.516108300484907"><ele>312.0</ele><time>2026-04-25T10:06:40.001Z</time></trkpt><trkpt lat="43.086478446636576" lon="11.51619816478248"><ele>312.0</ele><time>2026-04-25T10:06:41.001Z</time></trkpt><trkpt lat="43.086513454955" lon="11.516286901510817"><ele>310.6666666666667</ele><time>2026-04-25T10:06:42.001Z</time></trkpt><trkpt lat="43.08653990537567" lon="11.516367316099233"><ele>309.3333333333333</ele><time>2026-04-25T10:06:43.001Z</time></trkpt><trkpt lat="43.08656112109035" lon="11.516452062583419"><ele>308.0</ele><time>2026-04-25T10:06:44.001Z</time></trkpt><trkpt lat="43.08658295329712" lon="11.516614314539021"><ele>306.66666666666663</ele><time>2026-04-25T10:06:46.001Z</time></trkpt><trkpt lat="43.0865805187554" lon="11.516774035256631"><ele>305.3333333333333</ele><time>2026-04-25T10:06:48.001Z</time></trkpt><trkpt lat="43.08657157941102" lon="11.516860023834791"><ele>304.0</ele><time>2026-04-25T10:06:49.001Z</time></trkpt><trkpt lat="43.08655849372183" lon="11.516975196773798"><ele>302.75</ele><time>2026-04-25T10:06:50.001Z</time></trkpt><trkpt lat="43.08654091382796" lon="11.51713469557641"><ele>301.5</ele><time>2026-04-25T10:06:51.001Z</time></trkpt><trkpt lat="43.086522147992696" lon="11.517324778278475"><ele>300.25</ele><time>2026-04-25T10:06:52.001Z</time></trkpt><trkpt lat="43.086499534903226" lon="11.517563119534158"><ele>299.0</ele><time>2026-04-25T10:06:53.001Z</time></trkpt><trkpt lat="43.08647597316241" lon="11.517817303425767"><ele>298.0</ele><time>2026-04-25T10:06:54.002Z</time></trkpt><trkpt lat="43.08644924284956" lon="11.518091326142372"><ele>297.0</ele><time>2026-04-25T10:06:55.002Z</time></trkpt><trkpt lat="43.0864269248829" lon="11.518327676354554"><ele>296.0</ele><time>2026-04-25T10:06:56.002Z</time></trkpt><trkpt lat="43.08640390674082" lon="11.518549563052261"><ele>295.33333333333337</ele><time>2026-04-25T10:06:57.002Z</time></trkpt><trkpt lat="43.08637993943693" lon="11.518795635607658"><ele>294.6666666666667</ele><time>2026-04-25T10:06:58.002Z</time></trkpt><trkpt lat="43.08635662761744" lon="11.51901733419922"><ele>294.0</ele><time>2026-04-25T10:06:59.002Z</time></trkpt><trkpt lat="43.086334445474264" lon="11.51921591488499"><ele>294.0</ele><time>2026-04-25T10:07:00.002Z</time></trkpt><trkpt lat="43.086314288185015" lon="11.519401586765198"><ele>294.0</ele><time>2026-04-25T10:07:01.002Z</time></trkpt><trkpt lat="43.0862933790995" lon="11.519589924755202"><ele>294.0</ele><time>2026-04-25T10:07:02.002Z</time></trkpt><trkpt lat="43.08627383520057" lon="11.519775964589245"><ele>294.0</ele><time>2026-04-25T10:07:03.002Z</time></trkpt><trkpt lat="43.08625385560634" lon="11.519950978657905"><ele>294.5</ele><time>2026-04-25T10:07:04.002Z</time></trkpt><trkpt lat="43.08623083107935" lon="11.52012212187887"><ele>295.0</ele><time>2026-04-25T10:07:05.002Z</time></trkpt><trkpt lat="43.086203942193734" lon="11.520285331116233"><ele>295.5</ele><time>2026-04-25T10:07:06.002Z</time></trkpt><trkpt lat="43.0861709303684" lon="11.52044077858483"><ele>296.0</ele><time>2026-04-25T10:07:07.002Z</time></trkpt><trkpt lat="43.08612229901169" lon="11.520587672574196"><ele>296.75</ele><time>2026-04-25T10:07:08.002Z</time></trkpt><trkpt lat="43.08606387138847" lon="11.52073043203186"><ele>297.5</ele><time>2026-04-25T10:07:09.002Z</time></trkpt><trkpt lat="43.08599403852328" lon="11.520862881777912"><ele>298.25</ele><time>2026-04-25T10:07:10.002Z</time></trkpt><trkpt lat="43.085917511564936" lon="11.520984879800096"><ele>299.0</ele><time>2026-04-25T10:07:11.002Z</time></trkpt><trkpt lat="43.085832502976" lon="11.521097011464496"><ele>298.75</ele><time>2026-04-25T10:07:12.002Z</time></trkpt><trkpt lat="43.08573712367987" lon="11.52119677975281"><ele>298.5</ele><time>2026-04-25T10:07:13.002Z</time></trkpt><trkpt lat="43.085637472832076" lon="11.521282836279049"><ele>298.25</ele><time>2026-04-25T10:07:14.002Z</time></trkpt><trkpt lat="43.08553189077276" lon="11.521360968120133"><ele>298.0</ele><time>2026-04-25T10:07:15.002Z</time></trkpt><trkpt lat="43.085424577294035" lon="11.521425570386723"><ele>298.0</ele><time>2026-04-25T10:07:16.002Z</time></trkpt><trkpt lat="43.08531250420791" lon="11.521486136347836"><ele>298.0</ele><time>2026-04-25T10:07:17.002Z</time></trkpt><trkpt lat="43.08519104176322" lon="11.521545337246256"><ele>298.0</ele><time>2026-04-25T10:07:18.002Z</time></trkpt><trkpt lat="43.08507345438818" lon="11.521590825808957"><ele>298.0</ele><time>2026-04-25T10:07:19.002Z</time></trkpt><trkpt lat="43.084958133155595" lon="11.521639039444599"><ele>297.0</ele><time>2026-04-25T10:07:20.002Z</time></trkpt><trkpt lat="43.084730741678214" lon="11.521727202759827"><ele>296.0</ele><time>2026-04-25T10:07:22.002Z</time></trkpt><trkpt lat="43.08461026484716" lon="11.521782504161148"><ele>295.0</ele><time>2026-04-25T10:07:23.002Z</time></trkpt><trkpt lat="43.0844881635747" lon="11.521838749328685"><ele>295.0</ele><time>2026-04-25T10:07:23.997Z</time></trkpt><trkpt lat="43.0843670210526" lon="11.521895682847115"><ele>295.0</ele><time>2026-04-25T10:07:24.997Z</time></trkpt><trkpt lat="43.08425184359102" lon="11.521956623557058"><ele>295.0</ele><time>2026-04-25T10:07:25.997Z</time></trkpt><trkpt lat="43.08413267502145" lon="11.52201492570866"><ele>295.0</ele><time>2026-04-25T10:07:26.997Z</time></trkpt><trkpt lat="43.084017452611036" lon="11.522072679416265"><ele>296.0</ele><time>2026-04-25T10:07:27.998Z</time></trkpt><trkpt lat="43.08390347216627" lon="11.522133663295813"><ele>297.0</ele><time>2026-04-25T10:07:28.998Z</time></trkpt><trkpt lat="43.083798271243346" lon="11.52219934378519"><ele>298.0</ele><time>2026-04-25T10:07:29.998Z</time></trkpt><trkpt lat="43.083706326796154" lon="11.5222764045614"><ele>299.0</ele><time>2026-04-25T10:07:30.998Z</time></trkpt><trkpt lat="43.08362268882242" lon="11.522371135472836"><ele>299.0</ele><time>2026-04-25T10:07:31.998Z</time></trkpt><trkpt lat="43.083547667208194" lon="11.522489305285777"><ele>299.0</ele><time>2026-04-25T10:07:32.998Z</time></trkpt><trkpt lat="43.08348760143223" lon="11.522623592238922"><ele>299.0</ele><time>2026-04-25T10:07:33.998Z</time></trkpt><trkpt lat="43.083438336525084" lon="11.522767057896358"><ele>299.0</ele><time>2026-04-25T10:07:34.998Z</time></trkpt><trkpt lat="43.083399663253104" lon="11.522920689002637"><ele>299.0</ele><time>2026-04-25T10:07:35.998Z</time></trkpt><trkpt lat="43.08336271445369" lon="11.523077847573303"><ele>299.0</ele><time>2026-04-25T10:07:36.999Z</time></trkpt><trkpt lat="43.08332666415829" lon="11.523232388131376"><ele>299.0</ele><time>2026-04-25T10:07:37.999Z</time></trkpt><trkpt lat="43.08329473896325" lon="11.523382859916792"><ele>299.0</ele><time>2026-04-25T10:07:38.999Z</time></trkpt><trkpt lat="43.08326532827596" lon="11.523532341207385"><ele>299.4</ele><time>2026-04-25T10:07:39.999Z</time></trkpt><trkpt lat="43.08323837654977" lon="11.523667865653792"><ele>299.79999999999995</ele><time>2026-04-25T10:07:40.999Z</time></trkpt><trkpt lat="43.08320645020214" lon="11.523788874639742"><ele>300.20000000000005</ele><time>2026-04-25T10:07:41.999Z</time></trkpt><trkpt lat="43.083164275063304" lon="11.52389128538964"><ele>300.6</ele><time>2026-04-25T10:07:42.999Z</time></trkpt><trkpt lat="43.083109798319704" lon="11.523984103346507"><ele>301.0</ele><time>2026-04-25T10:07:43.999Z</time></trkpt><trkpt lat="43.08304351259178" lon="11.524058781013347"><ele>300.2</ele><time>2026-04-25T10:07:44.999Z</time></trkpt><trkpt lat="43.08295946284403" lon="11.524126324393636"><ele>299.40000000000003</ele><time>2026-04-25T10:07:45.999Z</time></trkpt><trkpt lat="43.082861675809305" lon="11.524176665827543"><ele>298.6</ele><time>2026-04-25T10:07:47Z</time></trkpt><trkpt lat="43.0827552493406" lon="11.524226440611654"><ele>297.8</ele><time>2026-04-25T10:07:48Z</time></trkpt><trkpt lat="43.08264420242702" lon="11.524285123801729"><ele>297.0</ele><time>2026-04-25T10:07:49Z</time></trkpt><trkpt lat="43.08253669205321" lon="11.52435416431477"><ele>297.0</ele><time>2026-04-25T10:07:50Z</time></trkpt><trkpt lat="43.08243550511944" lon="11.524439479538954"><ele>297.0</ele><time>2026-04-25T10:07:51Z</time></trkpt><trkpt lat="43.08233869573475" lon="11.52454048371709"><ele>297.0</ele><time>2026-04-25T10:07:52Z</time></trkpt><trkpt lat="43.08223729782861" lon="11.524662632132863"><ele>297.0</ele><time>2026-04-25T10:07:53Z</time></trkpt><trkpt lat="43.08213299735365" lon="11.52479520396241"><ele>295.75</ele><time>2026-04-25T10:07:54Z</time></trkpt><trkpt lat="43.082031065000024" lon="11.52492660083684"><ele>294.5</ele><time>2026-04-25T10:07:55Z</time></trkpt><trkpt lat="43.08192235045497" lon="11.525069316279513"><ele>293.25</ele><time>2026-04-25T10:07:56Z</time></trkpt><trkpt lat="43.08181014222516" lon="11.525212546411753"><ele>292.0</ele><time>2026-04-25T10:07:57Z</time></trkpt><trkpt lat="43.08170365252663" lon="11.52535382899869"><ele>291.75</ele><time>2026-04-25T10:07:58Z</time></trkpt><trkpt lat="43.08160275543208" lon="11.525490506043786"><ele>291.5</ele><time>2026-04-25T10:07:59Z</time></trkpt><trkpt lat="43.08151356227094" lon="11.525627679744483"><ele>291.25</ele><time>2026-04-25T10:08:00Z</time></trkpt><trkpt lat="43.08143674471642" lon="11.525768497396287"><ele>291.0</ele><time>2026-04-25T10:08:01Z</time></trkpt><trkpt lat="43.08137174710392" lon="11.525914421315521"><ele>291.40000000000003</ele><time>2026-04-25T10:08:02Z</time></trkpt><trkpt lat="43.081312792797256" lon="11.526059551037934"><ele>291.8</ele><time>2026-04-25T10:08:03Z</time></trkpt><trkpt lat="43.08125992814623" lon="11.52619260274269"><ele>292.20000000000005</ele><time>2026-04-25T10:08:04.001Z</time></trkpt><trkpt lat="43.081212867016006" lon="11.52631557033466"><ele>292.6</ele><time>2026-04-25T10:08:05.001Z</time></trkpt><trkpt lat="43.08117155586559" lon="11.526428465577043"><ele>293.0</ele><time>2026-04-25T10:08:06.001Z</time></trkpt><trkpt lat="43.08112488289731" lon="11.526554665589892"><ele>293.6</ele><time>2026-04-25T10:08:07.001Z</time></trkpt><trkpt lat="43.08107244783657" lon="11.52668570755067"><ele>294.20000000000005</ele><time>2026-04-25T10:08:08.001Z</time></trkpt><trkpt lat="43.081023083230306" lon="11.526813396335744"><ele>294.8</ele><time>2026-04-25T10:08:09.001Z</time></trkpt><trkpt lat="43.08097343849388" lon="11.526942683391134"><ele>295.40000000000003</ele><time>2026-04-25T10:08:10.001Z</time></trkpt><trkpt lat="43.08092526460589" lon="11.527065766302133"><ele>296.0</ele><time>2026-04-25T10:08:11.001Z</time></trkpt><trkpt lat="43.08087937785847" lon="11.527185283400106"><ele>296.33333333333337</ele><time>2026-04-25T10:08:12.001Z</time></trkpt><trkpt lat="43.08083454855752" lon="11.527301304375195"><ele>296.6666666666667</ele><time>2026-04-25T10:08:13.001Z</time></trkpt><trkpt lat="43.080791146790695" lon="11.5274130110731"><ele>297.0</ele><time>2026-04-25T10:08:14.001Z</time></trkpt><trkpt lat="43.08074892383562" lon="11.527521173919721"><ele>297.3333333333333</ele><time>2026-04-25T10:08:15.001Z</time></trkpt><trkpt lat="43.08070990536785" lon="11.52761646655958"><ele>297.66666666666663</ele><time>2026-04-25T10:08:16.001Z</time></trkpt><trkpt lat="43.08067360417875" lon="11.527710020140184"><ele>298.0</ele><time>2026-04-25T10:08:17.001Z</time></trkpt><trkpt lat="43.080636764286886" lon="11.52781161506378"><ele>300.66666666666663</ele><time>2026-04-25T10:08:18.001Z</time></trkpt><trkpt lat="43.08059994476116" lon="11.527910336869738"><ele>303.3333333333333</ele><time>2026-04-25T10:08:19.001Z</time></trkpt><trkpt lat="43.080563662318255" lon="11.528004738299998"><ele>306.0</ele><time>2026-04-25T10:08:20.001Z</time></trkpt><trkpt lat="43.08052936954484" lon="11.528098870483646"><ele>308.6666666666667</ele><time>2026-04-25T10:08:21.001Z</time></trkpt><trkpt lat="43.080495015938546" lon="11.5281924833568"><ele>311.33333333333337</ele><time>2026-04-25T10:08:22.001Z</time></trkpt><trkpt lat="43.080462289727755" lon="11.528285618628528"><ele>314.0</ele><time>2026-04-25T10:08:23.001Z</time></trkpt><trkpt lat="43.080428035996874" lon="11.528372742641155"><ele>314.0</ele><time>2026-04-25T10:08:24.001Z</time></trkpt><trkpt lat="43.08039181375078" lon="11.528455220536767"><ele>314.0</ele><time>2026-04-25T10:08:25.001Z</time></trkpt><trkpt lat="43.08035638331884" lon="11.52853845740253"><ele>314.0</ele><time>2026-04-25T10:08:26.001Z</time></trkpt><trkpt lat="43.08032219747983" lon="11.528628592721999"><ele>314.0</ele><time>2026-04-25T10:08:27.001Z</time></trkpt><trkpt lat="43.0802849585749" lon="11.528724523203884"><ele>314.0</ele><time>2026-04-25T10:08:28.001Z</time></trkpt><trkpt lat="43.080242916258456" lon="11.528836563325909"><ele>314.0</ele><time>2026-04-25T10:08:29.001Z</time></trkpt><trkpt lat="43.08020427478706" lon="11.52896077186436"><ele>312.75</ele><time>2026-04-25T10:08:30.002Z</time></trkpt><trkpt lat="43.080159050330124" lon="11.529110187994265"><ele>311.5</ele><time>2026-04-25T10:08:31.002Z</time></trkpt><trkpt lat="43.08011568208608" lon="11.52926564378346"><ele>310.25</ele><time>2026-04-25T10:08:32.002Z</time></trkpt><trkpt lat="43.08007752823524" lon="11.529406185534564"><ele>309.0</ele><time>2026-04-25T10:08:33.002Z</time></trkpt><trkpt lat="43.08005296677988" lon="11.529558924691456"><ele>308.25</ele><time>2026-04-25T10:08:34.002Z</time></trkpt><trkpt lat="43.08003007985922" lon="11.529734626467059"><ele>307.5</ele><time>2026-04-25T10:08:35.002Z</time></trkpt><trkpt lat="43.08001139166136" lon="11.529915875851229"><ele>306.75</ele><time>2026-04-25T10:08:36.002Z</time></trkpt><trkpt lat="43.080003481126255" lon="11.530099977177704"><ele>306.0</ele><time>2026-04-25T10:08:37.002Z</time></trkpt><trkpt lat="43.080003085423755" lon="11.530293772991355"><ele>304.5</ele><time>2026-04-25T10:08:38.002Z</time></trkpt><trkpt lat="43.080006858609714" lon="11.530475147981091"><ele>303.0</ele><time>2026-04-25T10:08:39.002Z</time></trkpt><trkpt lat="43.08000930658205" lon="11.530651747015398"><ele>301.5</ele><time>2026-04-25T10:08:40.002Z</time></trkpt><trkpt lat="43.080004477593164" lon="11.530821723072645"><ele>300.0</ele><time>2026-04-25T10:08:41.002Z</time></trkpt><trkpt lat="43.07999544609631" lon="11.53098802785522"><ele>300.0</ele><time>2026-04-25T10:08:42.002Z</time></trkpt><trkpt lat="43.07997623589909" lon="11.531151960770348"><ele>300.0</ele><time>2026-04-25T10:08:43.002Z</time></trkpt><trkpt lat="43.07995030199853" lon="11.531313862464732"><ele>300.0</ele><time>2026-04-25T10:08:44.002Z</time></trkpt><trkpt lat="43.079913031982876" lon="11.531472859135723"><ele>300.0</ele><time>2026-04-25T10:08:45.002Z</time></trkpt><trkpt lat="43.07986515966537" lon="11.53162885209682"><ele>299.25</ele><time>2026-04-25T10:08:46.002Z</time></trkpt><trkpt lat="43.079805342843215" lon="11.531783529432651"><ele>298.5</ele><time>2026-04-25T10:08:47.002Z</time></trkpt><trkpt lat="43.07974513993381" lon="11.531932243758382"><ele>297.75</ele><time>2026-04-25T10:08:48.002Z</time></trkpt><trkpt lat="43.07968893126513" lon="11.53206943721897"><ele>297.0</ele><time>2026-04-25T10:08:49.002Z</time></trkpt><trkpt lat="43.07964678384301" lon="11.532190511222833"><ele>298.75</ele><time>2026-04-25T10:08:50.002Z</time></trkpt><trkpt lat="43.07961788641976" lon="11.532318911297049"><ele>300.5</ele><time>2026-04-25T10:08:51.002Z</time></trkpt><trkpt lat="43.07961042138104" lon="11.532439461256956"><ele>302.25</ele><time>2026-04-25T10:08:52.002Z</time></trkpt><trkpt lat="43.07962693145215" lon="11.532553846083061"><ele>304.0</ele><time>2026-04-25T10:08:53.002Z</time></trkpt><trkpt lat="43.07970981854229" lon="11.532784510661063"><ele>305.3333333333333</ele><time>2026-04-25T10:08:55.002Z</time></trkpt><trkpt lat="43.079755141563595" lon="11.532904423568969"><ele>306.66666666666663</ele><time>2026-04-25T10:08:56.002Z</time></trkpt><trkpt lat="43.079788962421425" lon="11.533016574719802"><ele>308.0</ele><time>2026-04-25T10:08:57.002Z</time></trkpt><trkpt lat="43.07981656406329" lon="11.53313604315927"><ele>309.3333333333333</ele><time>2026-04-25T10:08:58.002Z</time></trkpt><trkpt lat="43.07982894472267" lon="11.533248498696151"><ele>310.6666666666667</ele><time>2026-04-25T10:08:59.002Z</time></trkpt><trkpt lat="43.07982743383533" lon="11.533358184809043"><ele>312.0</ele><time>2026-04-25T10:09:00.002Z</time></trkpt><trkpt lat="43.079804366333114" lon="11.533473266473862"><ele>312.0</ele><time>2026-04-25T10:09:01.002Z</time></trkpt><trkpt lat="43.07976658102092" lon="11.533588763746067"><ele>312.0</ele><time>2026-04-25T10:09:02.003Z</time></trkpt><trkpt lat="43.0797320128703" lon="11.533704586699832"><ele>312.0</ele><time>2026-04-25T10:09:03.003Z</time></trkpt><trkpt lat="43.07971815466125" lon="11.533818744072232"><ele>312.0</ele><time>2026-04-25T10:09:04.003Z</time></trkpt><trkpt lat="43.07972673682207" lon="11.533951733758133"><ele>312.0</ele><time>2026-04-25T10:09:05.003Z</time></trkpt><trkpt lat="43.07975087583253" lon="11.534105144133042"><ele>313.25</ele><time>2026-04-25T10:09:06.003Z</time></trkpt><trkpt lat="43.07978739861682" lon="11.534282291104393"><ele>314.5</ele><time>2026-04-25T10:09:07.003Z</time></trkpt><trkpt lat="43.07982756720678" lon="11.534455029612293"><ele>315.75</ele><time>2026-04-25T10:09:08.003Z</time></trkpt><trkpt lat="43.079868950273344" lon="11.534616927703196"><ele>317.0</ele><time>2026-04-25T10:09:09.003Z</time></trkpt><trkpt lat="43.07990921447347" lon="11.534758251366695"><ele>315.8</ele><time>2026-04-25T10:09:10.003Z</time></trkpt><trkpt lat="43.079955708594305" lon="11.53488142628775"><ele>314.6</ele><time>2026-04-25T10:09:11.003Z</time></trkpt><trkpt lat="43.08001605414341" lon="11.534994404858828"><ele>313.40000000000003</ele><time>2026-04-25T10:09:12.003Z</time></trkpt><trkpt lat="43.080091507119036" lon="11.535095159221406"><ele>312.2</ele><time>2026-04-25T10:09:13.003Z</time></trkpt><trkpt lat="43.080164252414434" lon="11.535190569490066"><ele>311.0</ele><time>2026-04-25T10:09:14.003Z</time></trkpt><trkpt lat="43.08022326119419" lon="11.535300108685313"><ele>310.2</ele><time>2026-04-25T10:09:15.003Z</time></trkpt><trkpt lat="43.080263772953565" lon="11.535417405423905"><ele>309.40000000000003</ele><time>2026-04-25T10:09:16.003Z</time></trkpt><trkpt lat="43.080283857638605" lon="11.535529546765975"><ele>308.6</ele><time>2026-04-25T10:09:17.003Z</time></trkpt><trkpt lat="43.080282067461845" lon="11.535645564826401"><ele>307.8</ele><time>2026-04-25T10:09:18.003Z</time></trkpt><trkpt lat="43.08025684530239" lon="11.535770418206177"><ele>307.0</ele><time>2026-04-25T10:09:19.003Z</time></trkpt><trkpt lat="43.080228527057365" lon="11.535921885713087"><ele>307.0</ele><time>2026-04-25T10:09:20.003Z</time></trkpt><trkpt lat="43.08021684046669" lon="11.536083737822237"><ele>307.0</ele><time>2026-04-25T10:09:21.003Z</time></trkpt><trkpt lat="43.080225656452974" lon="11.536248315256945"><ele>307.0</ele><time>2026-04-25T10:09:22.003Z</time></trkpt><trkpt lat="43.080243349704155" lon="11.536406338292284"><ele>307.0</ele><time>2026-04-25T10:09:23.003Z</time></trkpt><trkpt lat="43.080261724338925" lon="11.536558531600443"><ele>305.2</ele><time>2026-04-25T10:09:24.003Z</time></trkpt><trkpt lat="43.08027287209612" lon="11.536696428311174"><ele>303.4</ele><time>2026-04-25T10:09:25.003Z</time></trkpt><trkpt lat="43.08026947595549" lon="11.536838429183861"><ele>301.6</ele><time>2026-04-25T10:09:26.003Z</time></trkpt><trkpt lat="43.08025271260875" lon="11.536967413890066"><ele>299.8</ele><time>2026-04-25T10:09:27.003Z</time></trkpt><trkpt lat="43.080241487271564" lon="11.537076728511028"><ele>298.0</ele><time>2026-04-25T10:09:28.003Z</time></trkpt><trkpt lat="43.080256568892864" lon="11.537181644104587"><ele>296.6</ele><time>2026-04-25T10:09:29.003Z</time></trkpt><trkpt lat="43.08030463944311" lon="11.537282872209031"><ele>295.20000000000005</ele><time>2026-04-25T10:09:29.998Z</time></trkpt><trkpt lat="43.08037624442573" lon="11.53736546848815"><ele>293.8</ele><time>2026-04-25T10:09:30.998Z</time></trkpt><trkpt lat="43.08046885668447" lon="11.537446580332457"><ele>292.40000000000003</ele><time>2026-04-25T10:09:31.999Z</time></trkpt><trkpt lat="43.0805526802337" lon="11.53750827669032"><ele>291.0</ele><time>2026-04-25T10:09:32.999Z</time></trkpt><trkpt lat="43.080622632080576" lon="11.537576129995465"><ele>291.0</ele><time>2026-04-25T10:09:33.999Z</time></trkpt><trkpt lat="43.08067511446976" lon="11.537671349050466"><ele>291.0</ele><time>2026-04-25T10:09:34.999Z</time></trkpt><trkpt lat="43.08074317344499" lon="11.537942078036927"><ele>291.0</ele><time>2026-04-25T10:09:36.999Z</time></trkpt><trkpt lat="43.08077184553865" lon="11.538124792437022"><ele>291.0</ele><time>2026-04-25T10:09:37.999Z</time></trkpt><trkpt lat="43.08080329404212" lon="11.538336056580306"><ele>290.0</ele><time>2026-04-25T10:09:38.999Z</time></trkpt><trkpt lat="43.080827071851566" lon="11.53851404325994"><ele>289.0</ele><time>2026-04-25T10:09:39.999Z</time></trkpt><trkpt lat="43.08085533781715" lon="11.538703629357343"><ele>288.0</ele><time>2026-04-25T10:09:40.999Z</time></trkpt><trkpt lat="43.080882547221684" lon="11.538890945505438"><ele>287.0</ele><time>2026-04-25T10:09:41.999Z</time></trkpt><trkpt lat="43.080910350638575" lon="11.539050774538374"><ele>286.75</ele><time>2026-04-25T10:09:42.999Z</time></trkpt><trkpt lat="43.0809373725421" lon="11.53920039575682"><ele>286.5</ele><time>2026-04-25T10:09:43.999Z</time></trkpt><trkpt lat="43.080971282720704" lon="11.539345647589979"><ele>286.25</ele><time>2026-04-25T10:09:44.999Z</time></trkpt><trkpt lat="43.081023447865185" lon="11.539492339167925"><ele>286.0</ele><time>2026-04-25T10:09:45.999Z</time></trkpt><trkpt lat="43.08109867129922" lon="11.539638249837713"><ele>286.75</ele><time>2026-04-25T10:09:46.999Z</time></trkpt><trkpt lat="43.08119565553149" lon="11.539775045775585"><ele>287.5</ele><time>2026-04-25T10:09:48Z</time></trkpt><trkpt lat="43.081315094374034" lon="11.539905524737009"><ele>288.25</ele><time>2026-04-25T10:09:49Z</time></trkpt><trkpt lat="43.081424175833035" lon="11.540016826554458"><ele>289.0</ele><time>2026-04-25T10:09:50Z</time></trkpt><trkpt lat="43.08150666994865" lon="11.540116503357009"><ele>289.0</ele><time>2026-04-25T10:09:51Z</time></trkpt><trkpt lat="43.08156897390083" lon="11.54021885283156"><ele>289.0</ele><time>2026-04-25T10:09:52Z</time></trkpt><trkpt lat="43.081619568406985" lon="11.540338115892359"><ele>289.0</ele><time>2026-04-25T10:09:53Z</time></trkpt><trkpt lat="43.08166106061632" lon="11.540478946969273"><ele>289.0</ele><time>2026-04-25T10:09:54Z</time></trkpt><trkpt lat="43.08168890104903" lon="11.54063738623289"><ele>289.0</ele><time>2026-04-25T10:09:55Z</time></trkpt><trkpt lat="43.08170527064038" lon="11.540823456402125"><ele>290.3333333333333</ele><time>2026-04-25T10:09:56Z</time></trkpt><trkpt lat="43.08171901268891" lon="11.541038375773846"><ele>291.6666666666667</ele><time>2026-04-25T10:09:57Z</time></trkpt><trkpt lat="43.081746779862854" lon="11.541276205357262"><ele>293.0</ele><time>2026-04-25T10:09:58Z</time></trkpt><trkpt lat="43.08179164628636" lon="11.541488715798257"><ele>293.75</ele><time>2026-04-25T10:09:59Z</time></trkpt><trkpt lat="43.08183635571736" lon="11.541666491420873"><ele>294.5</ele><time>2026-04-25T10:10:00Z</time></trkpt><trkpt lat="43.08186905974329" lon="11.541823522299559"><ele>295.25</ele><time>2026-04-25T10:10:01Z</time></trkpt><trkpt lat="43.08189374049355" lon="11.54195763869085"><ele>296.0</ele><time>2026-04-25T10:10:02Z</time></trkpt><trkpt lat="43.081908521574476" lon="11.542087161431589"><ele>296.0</ele><time>2026-04-25T10:10:03Z</time></trkpt><trkpt lat="43.08191123925738" lon="11.542206334540607"><ele>296.0</ele><time>2026-04-25T10:10:04Z</time></trkpt><trkpt lat="43.081907940318864" lon="11.54231819417676"><ele>296.0</ele><time>2026-04-25T10:10:05Z</time></trkpt><trkpt lat="43.08190382726559" lon="11.542421114596486"><ele>296.0</ele><time>2026-04-25T10:10:06Z</time></trkpt><trkpt lat="43.081904954031" lon="11.542524937605087"><ele>296.0</ele><time>2026-04-25T10:10:07.001Z</time></trkpt><trkpt lat="43.08191860104298" lon="11.542656356853804"><ele>296.0</ele><time>2026-04-25T10:10:08.001Z</time></trkpt><trkpt lat="43.08194514506858" lon="11.54278262645256"><ele>294.83333333333337</ele><time>2026-04-25T10:10:09.001Z</time></trkpt><trkpt lat="43.08198859346951" lon="11.542881519161153"><ele>293.6666666666667</ele><time>2026-04-25T10:10:10.001Z</time></trkpt><trkpt lat="43.08204005132766" lon="11.542954948182052"><ele>292.5</ele><time>2026-04-25T10:10:11.001Z</time></trkpt><trkpt lat="43.08210013570773" lon="11.543004269567454"><ele>291.3333333333333</ele><time>2026-04-25T10:10:12.001Z</time></trkpt><trkpt lat="43.082175749832054" lon="11.543027827463218"><ele>290.16666666666663</ele><time>2026-04-25T10:10:13.001Z</time></trkpt><trkpt lat="43.08227493755356" lon="11.543045037146282"><ele>289.0</ele><time>2026-04-25T10:10:14.001Z</time></trkpt><trkpt lat="43.08242199511912" lon="11.543068342711189"><ele>289.25</ele><time>2026-04-25T10:10:15.001Z</time></trkpt><trkpt lat="43.0825742417564" lon="11.543106794391619"><ele>289.5</ele><time>2026-04-25T10:10:16.001Z</time></trkpt><trkpt lat="43.082723519919405" lon="11.543161027319258"><ele>289.75</ele><time>2026-04-25T10:10:17.001Z</time></trkpt><trkpt lat="43.08284967953733" lon="11.543203084119165"><ele>290.0</ele><time>2026-04-25T10:10:18.001Z</time></trkpt><trkpt lat="43.08296671585548" lon="11.543220899823558"><ele>290.0</ele><time>2026-04-25T10:10:19.001Z</time></trkpt><trkpt lat="43.08310719499001" lon="11.5432422726752"><ele>290.0</ele><time>2026-04-25T10:10:20.001Z</time></trkpt><trkpt lat="43.08325029498078" lon="11.543277077066968"><ele>290.0</ele><time>2026-04-25T10:10:21.001Z</time></trkpt><trkpt lat="43.08336535983509" lon="11.543311657555222"><ele>290.0</ele><time>2026-04-25T10:10:22.001Z</time></trkpt><trkpt lat="43.08345896322386" lon="11.543340697142064"><ele>289.1666666666667</ele><time>2026-04-25T10:10:23.001Z</time></trkpt><trkpt lat="43.083541202693674" lon="11.543356949239291"><ele>288.33333333333337</ele><time>2026-04-25T10:10:24.001Z</time></trkpt><trkpt lat="43.083618315230446" lon="11.543350495279299"><ele>287.5</ele><time>2026-04-25T10:10:25.001Z</time></trkpt><trkpt lat="43.08369854379789" lon="11.543314128507543"><ele>286.6666666666667</ele><time>2026-04-25T10:10:26.001Z</time></trkpt><trkpt lat="43.08376694778324" lon="11.54325684175229"><ele>285.8333333333333</ele><time>2026-04-25T10:10:27.001Z</time></trkpt><trkpt lat="43.08383274971292" lon="11.543205453428595"><ele>285.0</ele><time>2026-04-25T10:10:28.001Z</time></trkpt><trkpt lat="43.08390534478634" lon="11.543164379218203"><ele>285.0</ele><time>2026-04-25T10:10:29.001Z</time></trkpt><trkpt lat="43.08398435285041" lon="11.543158818046797"><ele>285.0</ele><time>2026-04-25T10:10:30.001Z</time></trkpt><trkpt lat="43.08406980087413" lon="11.543172412867534"><ele>285.0</ele><time>2026-04-25T10:10:31.001Z</time></trkpt><trkpt lat="43.084170653444225" lon="11.543213089040467"><ele>285.0</ele><time>2026-04-25T10:10:32.001Z</time></trkpt><trkpt lat="43.08428624502715" lon="11.54327495552184"><ele>285.0</ele><time>2026-04-25T10:10:33.001Z</time></trkpt><trkpt lat="43.08442281150219" lon="11.543347256860605"><ele>282.3333333333333</ele><time>2026-04-25T10:10:34.001Z</time></trkpt><trkpt lat="43.084592794232286" lon="11.543420254344253"><ele>279.66666666666663</ele><time>2026-04-25T10:10:35.002Z</time></trkpt><trkpt lat="43.08474890070567" lon="11.543486030749776"><ele>277.0</ele><time>2026-04-25T10:10:36.002Z</time></trkpt><trkpt lat="43.084903424462496" lon="11.543556928164627"><ele>274.66666666666663</ele><time>2026-04-25T10:10:37.002Z</time></trkpt><trkpt lat="43.08504427068134" lon="11.5436348907765"><ele>272.3333333333333</ele><time>2026-04-25T10:10:38.002Z</time></trkpt><trkpt lat="43.085195110313286" lon="11.54372132870505"><ele>270.0</ele><time>2026-04-25T10:10:39.002Z</time></trkpt><trkpt lat="43.08533441668604" lon="11.543810448490854"><ele>270.0</ele><time>2026-04-25T10:10:40.002Z</time></trkpt><trkpt lat="43.08546313753245" lon="11.543887617631091"><ele>270.0</ele><time>2026-04-25T10:10:41.002Z</time></trkpt><trkpt lat="43.085578986211374" lon="11.543939876710162"><ele>270.0</ele><time>2026-04-25T10:10:42.002Z</time></trkpt><trkpt lat="43.085695188879114" lon="11.543982775985771"><ele>270.0</ele><time>2026-04-25T10:10:43.002Z</time></trkpt><trkpt lat="43.085824457641884" lon="11.544011887461126"><ele>270.0</ele><time>2026-04-25T10:10:44.002Z</time></trkpt><trkpt lat="43.08595750064858" lon="11.54403364926524"><ele>270.0</ele><time>2026-04-25T10:10:45.002Z</time></trkpt><trkpt lat="43.08608487227513" lon="11.544052782731889"><ele>270.0</ele><time>2026-04-25T10:10:46.002Z</time></trkpt><trkpt lat="43.08620517731527" lon="11.544074005469906"><ele>270.0</ele><time>2026-04-25T10:10:47.002Z</time></trkpt><trkpt lat="43.08631960779062" lon="11.544102284822392"><ele>270.0</ele><time>2026-04-25T10:10:48.002Z</time></trkpt><trkpt lat="43.08643488394336" lon="11.54415598373894"><ele>270.0</ele><time>2026-04-25T10:10:49.002Z</time></trkpt><trkpt lat="43.0865469542449" lon="11.544224943290846"><ele>270.0</ele><time>2026-04-25T10:10:50.002Z</time></trkpt><trkpt lat="43.08665395708435" lon="11.544307901706185"><ele>270.0</ele><time>2026-04-25T10:10:51.002Z</time></trkpt><trkpt lat="43.086754276937526" lon="11.544394934104858"><ele>270.1666666666667</ele><time>2026-04-25T10:10:52.002Z</time></trkpt><trkpt lat="43.086848329546854" lon="11.54446787525546"><ele>270.3333333333333</ele><time>2026-04-25T10:10:53.002Z</time></trkpt><trkpt lat="43.086919289802815" lon="11.544529084723603"><ele>270.5</ele><time>2026-04-25T10:10:54.002Z</time></trkpt><trkpt lat="43.0870076885664" lon="11.54461675433193"><ele>270.66666666666663</ele><time>2026-04-25T10:10:56.002Z</time></trkpt><trkpt lat="43.0870510079904" lon="11.544687587743304"><ele>270.8333333333333</ele><time>2026-04-25T10:10:58.002Z</time></trkpt><trkpt lat="43.08709600907965" lon="11.544749838864726"><ele>271.0</ele><time>2026-04-25T10:11:12.003Z</time></trkpt><trkpt lat="43.08711792819621" lon="11.544836890742964"><ele>271.0</ele><time>2026-04-25T10:11:14.003Z</time></trkpt><trkpt lat="43.08705186518959" lon="11.544988659062573"><ele>271.0</ele><time>2026-04-25T10:11:16.003Z</time></trkpt><trkpt lat="43.08699690058135" lon="11.545160385127483"><ele>271.0</ele><time>2026-04-25T10:11:18.003Z</time></trkpt><trkpt lat="43.08695592272974" lon="11.545276593946838"><ele>271.0</ele><time>2026-04-25T10:11:19.003Z</time></trkpt><trkpt lat="43.08692462378131" lon="11.545371765740903"><ele>271.0</ele><time>2026-04-25T10:11:20.003Z</time></trkpt><trkpt lat="43.08689900360444" lon="11.54545189842219"><ele>270.3333333333333</ele><time>2026-04-25T10:11:21.003Z</time></trkpt><trkpt lat="43.08685589696475" lon="11.545586035840543"><ele>269.66666666666663</ele><time>2026-04-25T10:11:23.003Z</time></trkpt><trkpt lat="43.08682380445693" lon="11.54571315180139"><ele>269.0</ele><time>2026-04-25T10:11:25.003Z</time></trkpt><trkpt lat="43.08679860993104" lon="11.545814177111524"><ele>268.3333333333333</ele><time>2026-04-25T10:11:27.003Z</time></trkpt><trkpt lat="43.086777989282496" lon="11.545898298370153"><ele>267.6666666666667</ele><time>2026-04-25T10:11:29.003Z</time></trkpt><trkpt lat="43.086760111239236" lon="11.54599117350827"><ele>267.0</ele><time>2026-04-25T10:11:31.003Z</time></trkpt><trkpt lat="43.086738861870224" lon="11.546091754520122"><ele>267.0</ele><time>2026-04-25T10:11:33.003Z</time></trkpt><trkpt lat="43.086716647260836" lon="11.546180732029226"><ele>267.0</ele><time>2026-04-25T10:11:35.003Z</time></trkpt><trkpt lat="43.0866872260357" lon="11.546295434611775"><ele>267.0</ele><time>2026-04-25T10:11:37.999Z</time></trkpt><trkpt lat="43.08666549074958" lon="11.546407887580653"><ele>267.0</ele><time>2026-04-25T10:11:40.999Z</time></trkpt><trkpt lat="43.086652651305336" lon="11.5464934902874"><ele>267.0</ele><time>2026-04-25T10:11:42.999Z</time></trkpt><trkpt lat="43.08662639405225" lon="11.546599811438767"><ele>267.0</ele><time>2026-04-25T10:11:45.999Z</time></trkpt><trkpt lat="43.08659569395592" lon="11.546708347604746"><ele>265.6666666666667</ele><time>2026-04-25T10:11:48.999Z</time></trkpt><trkpt lat="43.08657746384699" lon="11.546803245215553"><ele>264.3333333333333</ele><time>2026-04-25T10:11:51Z</time></trkpt><trkpt lat="43.08655299012087" lon="11.546904556307398"><ele>263.0</ele><time>2026-04-25T10:11:53Z</time></trkpt><trkpt lat="43.08653115722582" lon="11.547001614090162"><ele>261.66666666666663</ele><time>2026-04-25T10:11:55Z</time></trkpt><trkpt lat="43.086512048005154" lon="11.547103409025807"><ele>260.3333333333333</ele><time>2026-04-25T10:11:57Z</time></trkpt><trkpt lat="43.08649440820293" lon="11.547203241506832"><ele>259.0</ele><time>2026-04-25T10:11:59Z</time></trkpt><trkpt lat="43.08647019248843" lon="11.547305698494908"><ele>258.8333333333333</ele><time>2026-04-25T10:12:01Z</time></trkpt><trkpt lat="43.08644936931269" lon="11.547408428412632"><ele>258.66666666666663</ele><time>2026-04-25T10:12:03Z</time></trkpt><trkpt lat="43.086433064821165" lon="11.547515125021897"><ele>258.5</ele><time>2026-04-25T10:12:05Z</time></trkpt><trkpt lat="43.0864154597271" lon="11.547619133188908"><ele>258.3333333333333</ele><time>2026-04-25T10:12:07Z</time></trkpt><trkpt lat="43.08639264564059" lon="11.54774833400577"><ele>258.1666666666667</ele><time>2026-04-25T10:12:09Z</time></trkpt><trkpt lat="43.086363625171984" lon="11.547877712628491"><ele>258.0</ele><time>2026-04-25T10:12:11.001Z</time></trkpt><trkpt lat="43.08634038092518" lon="11.547993649466125"><ele>257.71428571428567</ele><time>2026-04-25T10:12:13.001Z</time></trkpt><trkpt lat="43.08631620372745" lon="11.54810185584255"><ele>257.42857142857144</ele><time>2026-04-25T10:12:15.001Z</time></trkpt><trkpt lat="43.08629075115536" lon="11.548181273964179"><ele>257.1428571428571</ele><time>2026-04-25T10:12:17.001Z</time></trkpt><trkpt lat="43.08626834322836" lon="11.548281044588089"><ele>256.85714285714283</ele><time>2026-04-25T10:13:04.002Z</time></trkpt><trkpt lat="43.08633196169179" lon="11.548260079609143"><ele>256.57142857142856</ele><time>2026-04-25T10:13:11.002Z</time></trkpt><trkpt lat="43.08633738451859" lon="11.548161426927544"><ele>256.2857142857143</ele><time>2026-04-25T10:13:13.003Z</time></trkpt><trkpt lat="43.08635261225299" lon="11.548058359838006"><ele>256.0</ele><time>2026-04-25T10:13:15.003Z</time></trkpt><trkpt lat="43.08636957723233" lon="11.547949992217156"><ele>256.40000000000003</ele><time>2026-04-25T10:13:17.003Z</time></trkpt><trkpt lat="43.086383239289816" lon="11.547826756384726"><ele>256.8</ele><time>2026-04-25T10:13:19.003Z</time></trkpt><trkpt lat="43.08641291380247" lon="11.547672697580364"><ele>257.20000000000005</ele><time>2026-04-25T10:13:21.003Z</time></trkpt><trkpt lat="43.08643858147748" lon="11.547523776159426"><ele>257.6</ele><time>2026-04-25T10:13:23.003Z</time></trkpt><trkpt lat="43.086476163338446" lon="11.547382862191832"><ele>258.0</ele><time>2026-04-25T10:13:25.003Z</time></trkpt><trkpt lat="43.08651183790087" lon="11.547195724283057"><ele>258.0</ele><time>2026-04-25T10:13:27.003Z</time></trkpt><trkpt lat="43.086529387599555" lon="11.547101218728228"><ele>258.0</ele><time>2026-04-25T10:13:28.003Z</time></trkpt><trkpt lat="43.0865691947761" lon="11.546960943019014"><ele>258.0</ele><time>2026-04-25T10:13:30.003Z</time></trkpt><trkpt lat="43.08659382607806" lon="11.546809041225323"><ele>258.0</ele><time>2026-04-25T10:13:32.003Z</time></trkpt><trkpt lat="43.0866113013706" lon="11.546713174234496"><ele>258.0</ele><time>2026-04-25T10:13:33.003Z</time></trkpt><trkpt lat="43.08663464221292" lon="11.546629926046567"><ele>258.0</ele><time>2026-04-25T10:13:34.003Z</time></trkpt><trkpt lat="43.08667382891063" lon="11.546500520098478"><ele>258.6666666666667</ele><time>2026-04-25T10:13:36.003Z</time></trkpt><trkpt lat="43.086712280900024" lon="11.54639562488058"><ele>259.3333333333333</ele><time>2026-04-25T10:13:38.003Z</time></trkpt><trkpt lat="43.08673574417518" lon="11.546310441198132"><ele>260.0</ele><time>2026-04-25T10:13:41.003Z</time></trkpt><trkpt lat="43.086735636536886" lon="11.546171058529735"><ele>260.66666666666663</ele><time>2026-04-25T10:14:13.001Z</time></trkpt><trkpt lat="43.08670316438924" lon="11.546060728996848"><ele>261.3333333333333</ele><time>2026-04-25T10:14:16.001Z</time></trkpt><trkpt lat="43.0866265307919" lon="11.546025205001333"><ele>262.0</ele><time>2026-04-25T10:14:18.001Z</time></trkpt><trkpt lat="43.08650023381972" lon="11.54598310649396"><ele>262.0</ele><time>2026-04-25T10:14:20.001Z</time></trkpt><trkpt lat="43.08642968317361" lon="11.545964180071838"><ele>262.0</ele><time>2026-04-25T10:14:21.001Z</time></trkpt><trkpt lat="43.08634997691641" lon="11.545944041160418"><ele>262.0</ele><time>2026-04-25T10:14:22.001Z</time></trkpt><trkpt lat="43.086248235280586" lon="11.545924993572573"><ele>262.0</ele><time>2026-04-25T10:14:23.001Z</time></trkpt><trkpt lat="43.086165674602725" lon="11.545902087893806"><ele>262.0</ele><time>2026-04-25T10:14:24.001Z</time></trkpt><trkpt lat="43.08609472617865" lon="11.545880971873665"><ele>262.0</ele><time>2026-04-25T10:14:25.001Z</time></trkpt><trkpt lat="43.08602933699688" lon="11.545858123002056"><ele>262.0</ele><time>2026-04-25T10:14:26.001Z</time></trkpt><trkpt lat="43.085919324261376" lon="11.545821577319314"><ele>262.0</ele><time>2026-04-25T10:14:28.001Z</time></trkpt><trkpt lat="43.08583277057618" lon="11.545799704658323"><ele>262.0</ele><time>2026-04-25T10:14:30.001Z</time></trkpt><trkpt lat="43.085737976955016" lon="11.545842438488481"><ele>262.0</ele><time>2026-04-25T10:14:33.001Z</time></trkpt><trkpt lat="43.0856622282549" lon="11.545963613886975"><ele>262.0</ele><time>2026-04-25T10:14:35.001Z</time></trkpt><trkpt lat="43.08563029919304" lon="11.546044936285758"><ele>261.8333333333333</ele><time>2026-04-25T10:14:36.001Z</time></trkpt><trkpt lat="43.085589049174864" lon="11.546130922166109"><ele>261.66666666666663</ele><time>2026-04-25T10:14:37.001Z</time></trkpt><trkpt lat="43.085545407617566" lon="11.546231245385012"><ele>261.5</ele><time>2026-04-25T10:14:38.001Z</time></trkpt><trkpt lat="43.08549838739192" lon="11.546330179739474"><ele>261.3333333333333</ele><time>2026-04-25T10:14:39.001Z</time></trkpt><trkpt lat="43.085456734525515" lon="11.54641030642788"><ele>261.1666666666667</ele><time>2026-04-25T10:14:40.001Z</time></trkpt><trkpt lat="43.08542027907582" lon="11.546500125020666"><ele>261.0</ele><time>2026-04-25T10:14:41.001Z</time></trkpt><trkpt lat="43.08538261450844" lon="11.546597333655303"><ele>260.6666666666667</ele><time>2026-04-25T10:14:42.001Z</time></trkpt><trkpt lat="43.08532614215525" lon="11.546674918925602"><ele>260.3333333333333</ele><time>2026-04-25T10:14:43.001Z</time></trkpt><trkpt lat="43.08530221788964" lon="11.546754786222861"><ele>260.0</ele><time>2026-04-25T10:14:44.002Z</time></trkpt><trkpt lat="43.08526902041691" lon="11.546832845291648"><ele>259.66666666666663</ele><time>2026-04-25T10:14:45.002Z</time></trkpt><trkpt lat="43.0852018602576" lon="11.546968062796248"><ele>259.3333333333333</ele><time>2026-04-25T10:14:47.002Z</time></trkpt><trkpt lat="43.08513859182044" lon="11.547105315953793"><ele>259.0</ele><time>2026-04-25T10:14:49.002Z</time></trkpt><trkpt lat="43.085094982864824" lon="11.54718550532275"><ele>258.5</ele><time>2026-04-25T10:14:50.002Z</time></trkpt><trkpt lat="43.08505837941435" lon="11.547261095856916"><ele>258.0</ele><time>2026-04-25T10:14:51.002Z</time></trkpt><trkpt lat="43.084990659969066" lon="11.547399671515015"><ele>257.5</ele><time>2026-04-25T10:14:53.002Z</time></trkpt><trkpt lat="43.08495403975967" lon="11.547475083130506"><ele>257.0</ele><time>2026-04-25T10:14:54.002Z</time></trkpt><trkpt lat="43.084917865067474" lon="11.54754935110144"><ele>256.5</ele><time>2026-04-25T10:14:55.002Z</time></trkpt><trkpt lat="43.08487478703767" lon="11.547641651782635"><ele>256.0</ele><time>2026-04-25T10:14:56.002Z</time></trkpt><trkpt lat="43.08483160955587" lon="11.54773666918322"><ele>255.49999999999997</ele><time>2026-04-25T10:14:57.002Z</time></trkpt><trkpt lat="43.084789938774676" lon="11.54782378451224"><ele>255.0</ele><time>2026-04-25T10:14:58.002Z</time></trkpt><trkpt lat="43.08475031395539" lon="11.547896546436514"><ele>254.5</ele><time>2026-04-25T10:14:59.002Z</time></trkpt><trkpt lat="43.08471137925373" lon="11.547967022626356"><ele>254.0</ele><time>2026-04-25T10:15:00.002Z</time></trkpt><trkpt lat="43.084656863923406" lon="11.54809124487742"><ele>253.49999999999997</ele><time>2026-04-25T10:15:02.002Z</time></trkpt><trkpt lat="43.08461812990019" lon="11.548180245428078"><ele>253.0</ele><time>2026-04-25T10:15:06.002Z</time></trkpt><trkpt lat="43.08459745118207" lon="11.548263859226765"><ele>253.2</ele><time>2026-04-25T10:15:09.002Z</time></trkpt><trkpt lat="43.08466726928696" lon="11.54835867468368"><ele>253.4</ele><time>2026-04-25T10:15:12.002Z</time></trkpt><trkpt lat="43.08477906096031" lon="11.548431338977718"><ele>253.59999999999997</ele><time>2026-04-25T10:15:14.002Z</time></trkpt><trkpt lat="43.084890902853274" lon="11.548519051011908"><ele>253.79999999999998</ele><time>2026-04-25T10:15:16.002Z</time></trkpt><trkpt lat="43.084956563129225" lon="11.548577732544379"><ele>254.0</ele><time>2026-04-25T10:15:17.003Z</time></trkpt><trkpt lat="43.085026978894405" lon="11.548645821617226"><ele>253.25</ele><time>2026-04-25T10:15:18.003Z</time></trkpt><trkpt lat="43.085105544779914" lon="11.548723587766078"><ele>252.5</ele><time>2026-04-25T10:15:19.003Z</time></trkpt><trkpt lat="43.08521184021861" lon="11.548802788761451"><ele>251.75</ele><time>2026-04-25T10:15:20.003Z</time></trkpt><trkpt lat="43.08532188161691" lon="11.548912068328743"><ele>251.0</ele><time>2026-04-25T10:15:21.003Z</time></trkpt><trkpt lat="43.08541212504142" lon="11.54900323523626"><ele>251.00000000000003</ele><time>2026-04-25T10:15:22.003Z</time></trkpt><trkpt lat="43.085494687609255" lon="11.54908506333175"><ele>251.0</ele><time>2026-04-25T10:15:23.003Z</time></trkpt><trkpt lat="43.0855730701534" lon="11.549152594051458"><ele>251.0</ele><time>2026-04-25T10:15:24.003Z</time></trkpt><trkpt lat="43.08564397065078" lon="11.549208894016955"><ele>251.0</ele><time>2026-04-25T10:15:25.003Z</time></trkpt><trkpt lat="43.08570451182672" lon="11.549258015956353"><ele>251.00000000000003</ele><time>2026-04-25T10:15:26.003Z</time></trkpt><trkpt lat="43.08576813340043" lon="11.54928963569105"><ele>251.0</ele><time>2026-04-25T10:15:27.003Z</time></trkpt><trkpt lat="43.08583450580807" lon="11.549288652594619"><ele>251.50000000000003</ele><time>2026-04-25T10:15:38.003Z</time></trkpt><trkpt lat="43.08591484967222" lon="11.549334086884448"><ele>252.0</ele><time>2026-04-25T10:15:44.003Z</time></trkpt><trkpt lat="43.086003305711266" lon="11.54937146794787"><ele>252.5</ele><time>2026-04-25T10:15:47.003Z</time></trkpt><trkpt lat="43.08607885504285" lon="11.5493986433967"><ele>253.0</ele><time>2026-04-25T10:15:49Z</time></trkpt><trkpt lat="43.086141167935885" lon="11.549418512766023"><ele>253.50000000000003</ele><time>2026-04-25T10:15:51Z</time></trkpt><trkpt lat="43.08617367695284" lon="11.549511110967018"><ele>254.0</ele><time>2026-04-25T10:15:54Z</time></trkpt><trkpt lat="43.08620224358958" lon="11.549613301856587"><ele>254.66666666666669</ele><time>2026-04-25T10:15:57Z</time></trkpt><trkpt lat="43.086220828685065" lon="11.549515393987308"><ele>255.33333333333334</ele><time>2026-04-25T10:16:06Z</time></trkpt><trkpt lat="43.086152867344815" lon="11.549485291050841"><ele>256.0</ele><time>2026-04-25T10:16:29.001Z</time></trkpt><trkpt lat="43.0861075234754" lon="11.549397562858946"><ele>256.6666666666667</ele><time>2026-04-25T10:16:32.001Z</time></trkpt><trkpt lat="43.08603555999846" lon="11.549375284658309"><ele>257.3333333333333</ele><time>2026-04-25T10:16:34.001Z</time></trkpt><trkpt lat="43.08594473859156" lon="11.549443619851393"><ele>258.0</ele><time>2026-04-25T10:16:43.001Z</time></trkpt><trkpt lat="43.085900646583546" lon="11.549519717383673"><ele>257.3333333333333</ele><time>2026-04-25T10:16:44.001Z</time></trkpt><trkpt lat="43.0858538520176" lon="11.549613340667548"><ele>256.6666666666667</ele><time>2026-04-25T10:16:45.001Z</time></trkpt><trkpt lat="43.08580091382084" lon="11.549700680575162"><ele>256.0</ele><time>2026-04-25T10:16:46.001Z</time></trkpt><trkpt lat="43.08574558069712" lon="11.549781512804675"><ele>255.33333333333334</ele><time>2026-04-25T10:16:47.001Z</time></trkpt><trkpt lat="43.08569038745955" lon="11.54986260862907"><ele>254.66666666666669</ele><time>2026-04-25T10:16:48.001Z</time></trkpt><trkpt lat="43.085638186216606" lon="11.549945941905676"><ele>254.0</ele><time>2026-04-25T10:16:49.001Z</time></trkpt><trkpt lat="43.08559672519833" lon="11.550036574698991"><ele>253.33333333333334</ele><time>2026-04-25T10:16:50.001Z</time></trkpt><trkpt lat="43.085539931924075" lon="11.550115949441436"><ele>252.66666666666669</ele><time>2026-04-25T10:16:51.002Z</time></trkpt><trkpt lat="43.08548790817709" lon="11.55019898645199"><ele>252.0</ele><time>2026-04-25T10:16:52.002Z</time></trkpt><trkpt lat="43.08544185330876" lon="11.550279959466348"><ele>251.33333333333331</ele><time>2026-04-25T10:16:53.002Z</time></trkpt><trkpt lat="43.085396023873855" lon="11.550355222508436"><ele>250.66666666666666</ele><time>2026-04-25T10:16:54.002Z</time></trkpt><trkpt lat="43.085352660378206" lon="11.550423062540426"><ele>250.0</ele><time>2026-04-25T10:16:55.002Z</time></trkpt><trkpt lat="43.085280359275394" lon="11.550542446917852"><ele>249.66666666666666</ele><time>2026-04-25T10:16:57.002Z</time></trkpt><trkpt lat="43.08522388936925" lon="11.550631236923644"><ele>249.33333333333331</ele><time>2026-04-25T10:16:59.002Z</time></trkpt><trkpt lat="43.08516146380637" lon="11.550702389978827"><ele>249.0</ele><time>2026-04-25T10:17:01.002Z</time></trkpt><trkpt lat="43.08512704151208" lon="11.550780027024487"><ele>248.66666666666669</ele><time>2026-04-25T10:17:15.002Z</time></trkpt><trkpt lat="43.08509089563317" lon="11.55085942018689"><ele>248.33333333333334</ele><time>2026-04-25T10:17:21.002Z</time></trkpt><trkpt lat="43.085029762092084" lon="11.550937272209223"><ele>248.0</ele><time>2026-04-25T10:17:23.002Z</time></trkpt><trkpt lat="43.08497522099523" lon="11.551017034024433"><ele>247.60000000000002</ele><time>2026-04-25T10:17:25.003Z</time></trkpt><trkpt lat="43.08488714320107" lon="11.551127299702047"><ele>247.20000000000002</ele><time>2026-04-25T10:17:27.003Z</time></trkpt><trkpt lat="43.08483576469964" lon="11.551197333729286"><ele>246.8</ele><time>2026-04-25T10:17:28.003Z</time></trkpt><trkpt lat="43.08477393816292" lon="11.55128442957711"><ele>246.4</ele><time>2026-04-25T10:17:29.003Z</time></trkpt><trkpt lat="43.08470969633881" lon="11.551373404624009"><ele>246.0</ele><time>2026-04-25T10:17:30.003Z</time></trkpt><trkpt lat="43.08464641615407" lon="11.551464497060072"><ele>246.0</ele><time>2026-04-25T10:17:31.003Z</time></trkpt><trkpt lat="43.08457933171857" lon="11.551561466196521"><ele>246.00000000000003</ele><time>2026-04-25T10:17:32.003Z</time></trkpt><trkpt lat="43.08451150897262" lon="11.551671399870925"><ele>246.00000000000003</ele><time>2026-04-25T10:17:33.003Z</time></trkpt><trkpt lat="43.08443931204643" lon="11.55177501635649"><ele>246.0</ele><time>2026-04-25T10:17:34.003Z</time></trkpt><trkpt lat="43.084364776177914" lon="11.551884918866408"><ele>246.0</ele><time>2026-04-25T10:17:35.003Z</time></trkpt><trkpt lat="43.084288215616084" lon="11.552001362211417"><ele>245.0</ele><time>2026-04-25T10:17:36.003Z</time></trkpt><trkpt lat="43.08421597707214" lon="11.55212365370688"><ele>244.0</ele><time>2026-04-25T10:17:37.003Z</time></trkpt><trkpt lat="43.08414979172302" lon="11.552256390484747"><ele>243.0</ele><time>2026-04-25T10:17:38.003Z</time></trkpt><trkpt lat="43.084086649144155" lon="11.552395997837328"><ele>242.0</ele><time>2026-04-25T10:17:39.003Z</time></trkpt><trkpt lat="43.08402293840849" lon="11.552536123068926"><ele>242.0</ele><time>2026-04-25T10:17:40.003Z</time></trkpt><trkpt lat="43.083959573643845" lon="11.552689583099513"><ele>242.0</ele><time>2026-04-25T10:17:41.003Z</time></trkpt><trkpt lat="43.08390955089149" lon="11.552856110758443"><ele>242.0</ele><time>2026-04-25T10:17:42.003Z</time></trkpt><trkpt lat="43.083865192379754" lon="11.553028406854555"><ele>242.0</ele><time>2026-04-25T10:17:43.003Z</time></trkpt><trkpt lat="43.08383433184143" lon="11.553207356362822"><ele>242.25</ele><time>2026-04-25T10:17:44.003Z</time></trkpt><trkpt lat="43.08380665911822" lon="11.553389052251363"><ele>242.5</ele><time>2026-04-25T10:17:45.003Z</time></trkpt><trkpt lat="43.083777314639434" lon="11.55357015865117"><ele>242.75</ele><time>2026-04-25T10:17:46.003Z</time></trkpt><trkpt lat="43.08374596688765" lon="11.553747895106365"><ele>243.0</ele><time>2026-04-25T10:17:47.003Z</time></trkpt><trkpt lat="43.083716826517445" lon="11.55392646574105"><ele>243.75</ele><time>2026-04-25T10:17:48.003Z</time></trkpt><trkpt lat="43.08369126848751" lon="11.55409974998752"><ele>244.5</ele><time>2026-04-25T10:17:49.003Z</time></trkpt><trkpt lat="43.08366581313913" lon="11.554270351245536"><ele>245.25</ele><time>2026-04-25T10:17:50.003Z</time></trkpt><trkpt lat="43.083639532387394" lon="11.5544355451156"><ele>246.0</ele><time>2026-04-25T10:17:51.003Z</time></trkpt><trkpt lat="43.08361035296392" lon="11.554602361717457"><ele>247.25</ele><time>2026-04-25T10:17:52.003Z</time></trkpt><trkpt lat="43.08358360190756" lon="11.554775897104864"><ele>248.5</ele><time>2026-04-25T10:17:53.003Z</time></trkpt><trkpt lat="43.083557329923906" lon="11.554953436962812"><ele>249.75</ele><time>2026-04-25T10:17:54Z</time></trkpt><trkpt lat="43.08352618348413" lon="11.555137029380033"><ele>251.0</ele><time>2026-04-25T10:17:55Z</time></trkpt><trkpt lat="43.08349920250311" lon="11.555322384700744"><ele>252.0</ele><time>2026-04-25T10:17:56Z</time></trkpt><trkpt lat="43.083482527880236" lon="11.55550849561022"><ele>253.0</ele><time>2026-04-25T10:17:57Z</time></trkpt><trkpt lat="43.08347367407815" lon="11.55569535815095"><ele>254.0</ele><time>2026-04-25T10:17:58Z</time></trkpt><trkpt lat="43.0834843515145" lon="11.555867031882556"><ele>255.0</ele><time>2026-04-25T10:17:59Z</time></trkpt><trkpt lat="43.083515846555436" lon="11.556018491031502"><ele>255.0</ele><time>2026-04-25T10:18:00Z</time></trkpt><trkpt lat="43.083581780906556" lon="11.556148480109425"><ele>255.0</ele><time>2026-04-25T10:18:01Z</time></trkpt><trkpt lat="43.08369288194496" lon="11.556239650243622"><ele>255.0</ele><time>2026-04-25T10:18:02Z</time></trkpt><trkpt lat="43.083817312405394" lon="11.556282688745437"><ele>255.0</ele><time>2026-04-25T10:18:03Z</time></trkpt><trkpt lat="43.08394439563508" lon="11.556328558888694"><ele>255.0</ele><time>2026-04-25T10:18:04Z</time></trkpt><trkpt lat="43.08406757019295" lon="11.556398905285006"><ele>255.0</ele><time>2026-04-25T10:18:05Z</time></trkpt><trkpt lat="43.08418704539153" lon="11.556492627525557"><ele>255.0</ele><time>2026-04-25T10:18:06Z</time></trkpt><trkpt lat="43.08429961109064" lon="11.556617043731297"><ele>255.0</ele><time>2026-04-25T10:18:07Z</time></trkpt><trkpt lat="43.08440331594306" lon="11.556752630347823"><ele>257.5</ele><time>2026-04-25T10:18:08Z</time></trkpt><trkpt lat="43.08449097955484" lon="11.556896927428607"><ele>260.0</ele><time>2026-04-25T10:18:09Z</time></trkpt><trkpt lat="43.08454941623995" lon="11.557061076478888"><ele>262.5</ele><time>2026-04-25T10:18:10Z</time></trkpt><trkpt lat="43.08457476569181" lon="11.557243950942215"><ele>265.0</ele><time>2026-04-25T10:18:11Z</time></trkpt><trkpt lat="43.0845831427356" lon="11.55743507684863"><ele>267.0</ele><time>2026-04-25T10:18:12Z</time></trkpt><trkpt lat="43.08457502756364" lon="11.557619576837055"><ele>269.0</ele><time>2026-04-25T10:18:13Z</time></trkpt><trkpt lat="43.08456030517395" lon="11.55779419060984"><ele>271.0</ele><time>2026-04-25T10:18:14Z</time></trkpt><trkpt lat="43.08452075573853" lon="11.557971249584202"><ele>273.0</ele><time>2026-04-25T10:18:15Z</time></trkpt><trkpt lat="43.08446657861337" lon="11.558147612510366"><ele>274.25</ele><time>2026-04-25T10:18:16Z</time></trkpt><trkpt lat="43.08441046514299" lon="11.558327935049807"><ele>275.5</ele><time>2026-04-25T10:18:17Z</time></trkpt><trkpt lat="43.084367894472514" lon="11.558501983358848"><ele>276.75</ele><time>2026-04-25T10:18:18Z</time></trkpt><trkpt lat="43.08434489709303" lon="11.55868429916569"><ele>278.0</ele><time>2026-04-25T10:18:19Z</time></trkpt><trkpt lat="43.08435515148854" lon="11.558869833759257"><ele>278.6</ele><time>2026-04-25T10:18:20Z</time></trkpt><trkpt lat="43.0843844186498" lon="11.559028316234805"><ele>279.20000000000005</ele><time>2026-04-25T10:18:21Z</time></trkpt><trkpt lat="43.08443227176701" lon="11.559156027176886"><ele>279.8</ele><time>2026-04-25T10:18:22Z</time></trkpt><trkpt lat="43.08452279977357" lon="11.55924236750461"><ele>280.40000000000003</ele><time>2026-04-25T10:18:23Z</time></trkpt><trkpt lat="43.08463470663545" lon="11.55927142098959"><ele>281.0</ele><time>2026-04-25T10:18:24.001Z</time></trkpt><trkpt lat="43.08472910137279" lon="11.559294534394748"><ele>281.0</ele><time>2026-04-25T10:18:25.001Z</time></trkpt><trkpt lat="43.08480246153648" lon="11.559363229005575"><ele>281.0</ele><time>2026-04-25T10:18:26.001Z</time></trkpt><trkpt lat="43.084839286130645" lon="11.559488224597603"><ele>281.0</ele><time>2026-04-25T10:18:27.001Z</time></trkpt><trkpt lat="43.08481919573516" lon="11.55963635750698"><ele>281.0</ele><time>2026-04-25T10:18:28.001Z</time></trkpt><trkpt lat="43.08477817821302" lon="11.55977605607963"><ele>281.0</ele><time>2026-04-25T10:18:29.001Z</time></trkpt><trkpt lat="43.084766727946345" lon="11.559926027965334"><ele>281.0</ele><time>2026-04-25T10:18:30.001Z</time></trkpt><trkpt lat="43.08479996577821" lon="11.56006065493599"><ele>281.0</ele><time>2026-04-25T10:18:31.001Z</time></trkpt><trkpt lat="43.08488534420753" lon="11.560160190350683"><ele>281.0</ele><time>2026-04-25T10:18:32.001Z</time></trkpt><trkpt lat="43.08497363893424" lon="11.560253737450088"><ele>281.0</ele><time>2026-04-25T10:18:33.001Z</time></trkpt><trkpt lat="43.08506089628335" lon="11.560352198731305"><ele>281.0</ele><time>2026-04-25T10:18:34.001Z</time></trkpt><trkpt lat="43.0851171188905" lon="11.560467362958201"><ele>283.0</ele><time>2026-04-25T10:18:35.001Z</time></trkpt><trkpt lat="43.085132544022606" lon="11.560596282974789"><ele>285.0</ele><time>2026-04-25T10:18:36.001Z</time></trkpt><trkpt lat="43.08510471494196" lon="11.560735119149234"><ele>287.0</ele><time>2026-04-25T10:18:37.001Z</time></trkpt><trkpt lat="43.08502635653663" lon="11.560851747115132"><ele>289.0</ele><time>2026-04-25T10:18:38.001Z</time></trkpt><trkpt lat="43.08493268784816" lon="11.560933273553035"><ele>291.0</ele><time>2026-04-25T10:18:39.001Z</time></trkpt><trkpt lat="43.08483587844513" lon="11.56100793447669"><ele>291.5</ele><time>2026-04-25T10:18:40.001Z</time></trkpt><trkpt lat="43.084773581415156" lon="11.561124652599945"><ele>292.0</ele><time>2026-04-25T10:18:41.001Z</time></trkpt><trkpt lat="43.08477111252672" lon="11.56127389542575"><ele>292.5</ele><time>2026-04-25T10:18:42.001Z</time></trkpt><trkpt lat="43.08481916336071" lon="11.561424176011592"><ele>293.0</ele><time>2026-04-25T10:18:43.001Z</time></trkpt><trkpt lat="43.084902435493184" lon="11.561586597731424"><ele>294.6666666666667</ele><time>2026-04-25T10:18:44.001Z</time></trkpt><trkpt lat="43.0849863564268" lon="11.561771699871752"><ele>296.3333333333333</ele><time>2026-04-25T10:18:45.001Z</time></trkpt><trkpt lat="43.085060069358555" lon="11.561970073216624"><ele>298.0</ele><time>2026-04-25T10:18:46.001Z</time></trkpt><trkpt lat="43.08510947347953" lon="11.562138451229892"><ele>298.75</ele><time>2026-04-25T10:18:47.001Z</time></trkpt><trkpt lat="43.085136685018796" lon="11.562297070703202"><ele>299.5</ele><time>2026-04-25T10:18:48.001Z</time></trkpt><trkpt lat="43.085121178014404" lon="11.562450829636546"><ele>300.25</ele><time>2026-04-25T10:18:49.001Z</time></trkpt><trkpt lat="43.08505683402892" lon="11.562591484106212"><ele>301.0</ele><time>2026-04-25T10:18:50.001Z</time></trkpt><trkpt lat="43.08497751985658" lon="11.562714252044652"><ele>300.75</ele><time>2026-04-25T10:18:51.001Z</time></trkpt><trkpt lat="43.08487109715951" lon="11.562809952131909"><ele>300.5</ele><time>2026-04-25T10:18:52.001Z</time></trkpt><trkpt lat="43.084749656841375" lon="11.562866729946487"><ele>300.25</ele><time>2026-04-25T10:18:53.001Z</time></trkpt><trkpt lat="43.08461149976837" lon="11.562876781293436"><ele>300.0</ele><time>2026-04-25T10:18:54.001Z</time></trkpt><trkpt lat="43.084452282906646" lon="11.562870256645956"><ele>300.0</ele><time>2026-04-25T10:18:55.001Z</time></trkpt><trkpt lat="43.08427796283994" lon="11.562865007802069"><ele>300.0</ele><time>2026-04-25T10:18:56.001Z</time></trkpt><trkpt lat="43.084109507454116" lon="11.562886497048364"><ele>300.0</ele><time>2026-04-25T10:18:57.002Z</time></trkpt><trkpt lat="43.08395547197625" lon="11.562938638647186"><ele>300.3333333333333</ele><time>2026-04-25T10:18:58.002Z</time></trkpt><trkpt lat="43.083807996062475" lon="11.563017623689628"><ele>300.66666666666663</ele><time>2026-04-25T10:18:59.002Z</time></trkpt><trkpt lat="43.08366778120945" lon="11.563131639867189"><ele>301.0</ele><time>2026-04-25T10:19:00.002Z</time></trkpt><trkpt lat="43.08355179079581" lon="11.563281644224242"><ele>301.0</ele><time>2026-04-25T10:19:01.002Z</time></trkpt><trkpt lat="43.08344633677546" lon="11.563455868795431"><ele>301.0</ele><time>2026-04-25T10:19:02.002Z</time></trkpt><trkpt lat="43.083347694794064" lon="11.563643426509001"><ele>301.0</ele><time>2026-04-25T10:19:03.002Z</time></trkpt><trkpt lat="43.08324964015844" lon="11.563836691848781"><ele>301.0</ele><time>2026-04-25T10:19:04.002Z</time></trkpt><trkpt lat="43.083161720423135" lon="11.56403311059979"><ele>301.0</ele><time>2026-04-25T10:19:05.002Z</time></trkpt><trkpt lat="43.08308634442739" lon="11.564232352795202"><ele>301.0</ele><time>2026-04-25T10:19:06.002Z</time></trkpt><trkpt lat="43.08301429849621" lon="11.564455802820772"><ele>303.0</ele><time>2026-04-25T10:19:07.002Z</time></trkpt><trkpt lat="43.08294573956116" lon="11.564669929145268"><ele>305.0</ele><time>2026-04-25T10:19:08.002Z</time></trkpt><trkpt lat="43.08287916743809" lon="11.564873465382124"><ele>307.0</ele><time>2026-04-25T10:19:09.002Z</time></trkpt><trkpt lat="43.08281006213335" lon="11.565060313411978"><ele>307.0</ele><time>2026-04-25T10:19:10.002Z</time></trkpt><trkpt lat="43.082734980629304" lon="11.565233090085792"><ele>307.0</ele><time>2026-04-25T10:19:11.002Z</time></trkpt><trkpt lat="43.08265403242749" lon="11.565389258552113"><ele>307.0</ele><time>2026-04-25T10:19:12.002Z</time></trkpt><trkpt lat="43.082559919345506" lon="11.56553254678596"><ele>307.0</ele><time>2026-04-25T10:19:13.002Z</time></trkpt><trkpt lat="43.08245605846781" lon="11.565667463217963"><ele>307.25</ele><time>2026-04-25T10:19:14.002Z</time></trkpt><trkpt lat="43.08235509537325" lon="11.565801362214051"><ele>307.5</ele><time>2026-04-25T10:19:15.002Z</time></trkpt><trkpt lat="43.0822628501352" lon="11.56593854901887"><ele>307.75</ele><time>2026-04-25T10:19:16.002Z</time></trkpt><trkpt lat="43.082172596319076" lon="11.566078913014946"><ele>308.0</ele><time>2026-04-25T10:19:17.002Z</time></trkpt><trkpt lat="43.082085208002596" lon="11.566216712274672"><ele>310.75</ele><time>2026-04-25T10:19:18.002Z</time></trkpt><trkpt lat="43.08200149153562" lon="11.56634725147784"><ele>313.5</ele><time>2026-04-25T10:19:19.002Z</time></trkpt><trkpt lat="43.081917627186705" lon="11.566484324225453"><ele>316.25</ele><time>2026-04-25T10:19:20.002Z</time></trkpt><trkpt lat="43.08183929358388" lon="11.566627925310936"><ele>319.0</ele><time>2026-04-25T10:19:21.002Z</time></trkpt><trkpt lat="43.08177227329974" lon="11.566773902116445"><ele>319.0</ele><time>2026-04-25T10:19:22.002Z</time></trkpt><trkpt lat="43.081712612056414" lon="11.566921529998213"><ele>319.0</ele><time>2026-04-25T10:19:23.002Z</time></trkpt><trkpt lat="43.08166317395041" lon="11.56707898960065"><ele>319.0</ele><time>2026-04-25T10:19:24.002Z</time></trkpt><trkpt lat="43.08162038702552" lon="11.567248116869333"><ele>319.0</ele><time>2026-04-25T10:19:25.002Z</time></trkpt><trkpt lat="43.081588157220374" lon="11.567424237167717"><ele>316.75</ele><time>2026-04-25T10:19:26.002Z</time></trkpt><trkpt lat="43.08156453835768" lon="11.567599466257436"><ele>314.5</ele><time>2026-04-25T10:19:27.002Z</time></trkpt><trkpt lat="43.08155163639174" lon="11.567773663390733"><ele>312.25</ele><time>2026-04-25T10:19:28.002Z</time></trkpt><trkpt lat="43.0815419620853" lon="11.567950187018262"><ele>310.0</ele><time>2026-04-25T10:19:29.002Z</time></trkpt><trkpt lat="43.08153087775331" lon="11.568136194777622"><ele>310.0</ele><time>2026-04-25T10:19:30.002Z</time></trkpt><trkpt lat="43.08151784869005" lon="11.56832391266595"><ele>310.0</ele><time>2026-04-25T10:19:31.002Z</time></trkpt><trkpt lat="43.081496722874334" lon="11.568505681542971"><ele>310.0</ele><time>2026-04-25T10:19:32.003Z</time></trkpt><trkpt lat="43.08146640969861" lon="11.568683539669989"><ele>310.0</ele><time>2026-04-25T10:19:33.003Z</time></trkpt><trkpt lat="43.081424083516524" lon="11.56885575921631"><ele>312.75</ele><time>2026-04-25T10:19:34.003Z</time></trkpt><trkpt lat="43.08137009476959" lon="11.569017484536728"><ele>315.5</ele><time>2026-04-25T10:19:35.003Z</time></trkpt><trkpt lat="43.081310052141305" lon="11.56917170916073"><ele>318.25</ele><time>2026-04-25T10:19:36.003Z</time></trkpt><trkpt lat="43.081254689695946" lon="11.56932024055656"><ele>321.0</ele><time>2026-04-25T10:19:37.003Z</time></trkpt><trkpt lat="43.08120475699172" lon="11.569447859957652"><ele>323.20000000000005</ele><time>2026-04-25T10:19:38.003Z</time></trkpt><trkpt lat="43.08115988818934" lon="11.56957369545401"><ele>325.40000000000003</ele><time>2026-04-25T10:19:39.003Z</time></trkpt><trkpt lat="43.081106897409335" lon="11.569696555054831"><ele>327.6</ele><time>2026-04-25T10:19:40.003Z</time></trkpt><trkpt lat="43.08105355279554" lon="11.569818285833415"><ele>329.8</ele><time>2026-04-25T10:19:41.003Z</time></trkpt><trkpt lat="43.08100507973307" lon="11.569916280773029"><ele>332.0</ele><time>2026-04-25T10:19:42.003Z</time></trkpt><trkpt lat="43.08094852538885" lon="11.57001602111319"><ele>332.0</ele><time>2026-04-25T10:19:43.003Z</time></trkpt><trkpt lat="43.0808899473664" lon="11.570100013763211"><ele>332.0</ele><time>2026-04-25T10:19:44.003Z</time></trkpt><trkpt lat="43.08083003730176" lon="11.570168978834015"><ele>332.0</ele><time>2026-04-25T10:19:45.003Z</time></trkpt><trkpt lat="43.08077306319595" lon="11.570217172316896"><ele>332.0</ele><time>2026-04-25T10:19:46.003Z</time></trkpt><trkpt lat="43.080712729873916" lon="11.570256824229642"><ele>332.0</ele><time>2026-04-25T10:19:47.003Z</time></trkpt><trkpt lat="43.08059423613166" lon="11.570310045523202"><ele>332.0</ele><time>2026-04-25T10:19:49.003Z</time></trkpt><trkpt lat="43.08048570518429" lon="11.57034934581527"><ele>333.6666666666667</ele><time>2026-04-25T10:19:51.003Z</time></trkpt><trkpt lat="43.080363426030594" lon="11.570412224314955"><ele>335.33333333333337</ele><time>2026-04-25T10:19:53.003Z</time></trkpt><trkpt lat="43.080302755112996" lon="11.570452812378237"><ele>337.0</ele><time>2026-04-25T10:19:54.003Z</time></trkpt><trkpt lat="43.08023645468341" lon="11.570465180940504"><ele>338.6666666666667</ele><time>2026-04-25T10:19:55.003Z</time></trkpt><trkpt lat="43.080172022801044" lon="11.570464938577597"><ele>340.3333333333333</ele><time>2026-04-25T10:19:56.003Z</time></trkpt><trkpt lat="43.08010627183603" lon="11.570477977145096"><ele>342.0</ele><time>2026-04-25T10:19:57.003Z</time></trkpt><trkpt lat="43.07998698842904" lon="11.570519920797146"><ele>341.40000000000003</ele><time>2026-04-25T10:19:59.003Z</time></trkpt><trkpt lat="43.07986867640006" lon="11.570558622494605"><ele>340.8</ele><time>2026-04-25T10:20:01Z</time></trkpt><trkpt lat="43.079751404202405" lon="11.57059809331174"><ele>340.2</ele><time>2026-04-25T10:20:03Z</time></trkpt><trkpt lat="43.07967743938034" lon="11.570690413590174"><ele>339.6</ele><time>2026-04-25T10:20:05Z</time></trkpt><trkpt lat="43.079714779410814" lon="11.570821383511912"><ele>339.0</ele><time>2026-04-25T10:20:07Z</time></trkpt><trkpt lat="43.07981450057707" lon="11.57085377079149"><ele>339.6</ele><time>2026-04-25T10:20:09Z</time></trkpt><trkpt lat="43.07994041000829" lon="11.570853830769906"><ele>340.2</ele><time>2026-04-25T10:20:11Z</time></trkpt><trkpt lat="43.080003371392095" lon="11.570862175140707"><ele>340.8</ele><time>2026-04-25T10:20:12Z</time></trkpt><trkpt lat="43.080122556027796" lon="11.570908783329719"><ele>341.40000000000003</ele><time>2026-04-25T10:20:14Z</time></trkpt><trkpt lat="43.08018762470636" lon="11.570934763240688"><ele>342.0</ele><time>2026-04-25T10:20:15Z</time></trkpt><trkpt lat="43.080254089933256" lon="11.570966299106118"><ele>342.0</ele><time>2026-04-25T10:20:16Z</time></trkpt><trkpt lat="43.08032655644216" lon="11.571004296238204"><ele>342.0</ele><time>2026-04-25T10:20:17Z</time></trkpt><trkpt lat="43.08039577589404" lon="11.571048474434425"><ele>342.0</ele><time>2026-04-25T10:20:18Z</time></trkpt><trkpt lat="43.08046880894015" lon="11.571093904218467"><ele>342.0</ele><time>2026-04-25T10:20:19Z</time></trkpt><trkpt lat="43.08054206386899" lon="11.571138030382617"><ele>342.0</ele><time>2026-04-25T10:20:20Z</time></trkpt><trkpt lat="43.08061229943178" lon="11.57118886844916"><ele>342.0</ele><time>2026-04-25T10:20:21Z</time></trkpt><trkpt lat="43.08068516389679" lon="11.57124078217582"><ele>342.5</ele><time>2026-04-25T10:20:22.001Z</time></trkpt><trkpt lat="43.08075831977056" lon="11.571298273302036"><ele>343.0</ele><time>2026-04-25T10:20:23.001Z</time></trkpt><trkpt lat="43.08083151198956" lon="11.57135358903158"><ele>343.5</ele><time>2026-04-25T10:20:24.001Z</time></trkpt><trkpt lat="43.08090696940684" lon="11.57140836045167"><ele>344.0</ele><time>2026-04-25T10:20:25.001Z</time></trkpt><trkpt lat="43.0809789295599" lon="11.57145930900333"><ele>344.5</ele><time>2026-04-25T10:20:26.001Z</time></trkpt><trkpt lat="43.08104763394227" lon="11.571515676774066"><ele>345.0</ele><time>2026-04-25T10:20:27.001Z</time></trkpt><trkpt lat="43.081115603357716" lon="11.571581705293722"><ele>345.0</ele><time>2026-04-25T10:20:28.001Z</time></trkpt><trkpt lat="43.081182776884674" lon="11.571644374594294"><ele>345.0</ele><time>2026-04-25T10:20:29.001Z</time></trkpt><trkpt lat="43.08124898531568" lon="11.571704905751929"><ele>345.0</ele><time>2026-04-25T10:20:30.001Z</time></trkpt><trkpt lat="43.08131517861352" lon="11.571762912035284"><ele>345.0</ele><time>2026-04-25T10:20:31.001Z</time></trkpt><trkpt lat="43.0813823214016" lon="11.571820381701416"><ele>345.0</ele><time>2026-04-25T10:20:32.001Z</time></trkpt><trkpt lat="43.08144908502822" lon="11.57186693676388"><ele>345.0</ele><time>2026-04-25T10:20:33.001Z</time></trkpt><trkpt lat="43.081551874984754" lon="11.571937247753018"><ele>345.8</ele><time>2026-04-25T10:20:35.001Z</time></trkpt><trkpt lat="43.08163454710196" lon="11.572001564010487"><ele>346.6</ele><time>2026-04-25T10:20:37.001Z</time></trkpt><trkpt lat="43.08171721267136" lon="11.572085315155077"><ele>347.4</ele><time>2026-04-25T10:20:39.001Z</time></trkpt><trkpt lat="43.08179256682153" lon="11.57219484695006"><ele>348.2</ele><time>2026-04-25T10:20:41.001Z</time></trkpt><trkpt lat="43.081868611803344" lon="11.572339048914046"><ele>349.0</ele><time>2026-04-25T10:20:43.001Z</time></trkpt><trkpt lat="43.08191445310661" lon="11.572444740297605"><ele>349.0</ele><time>2026-04-25T10:20:44.001Z</time></trkpt><trkpt lat="43.08197182921078" lon="11.572572959297652"><ele>349.0</ele><time>2026-04-25T10:20:45.001Z</time></trkpt><trkpt lat="43.082037477651156" lon="11.572729753051926"><ele>349.0</ele><time>2026-04-25T10:20:46.001Z</time></trkpt><trkpt lat="43.082101473537165" lon="11.57288312383412"><ele>349.0</ele><time>2026-04-25T10:20:47.001Z</time></trkpt><trkpt lat="43.08216814873075" lon="11.573039085290535"><ele>349.0</ele><time>2026-04-25T10:20:48.001Z</time></trkpt><trkpt lat="43.08223455942467" lon="11.573192867008286"><ele>349.0</ele><time>2026-04-25T10:20:49.001Z</time></trkpt><trkpt lat="43.082301720431886" lon="11.57334621952151"><ele>349.0</ele><time>2026-04-25T10:20:50.001Z</time></trkpt><trkpt lat="43.082368550700174" lon="11.573498842257678"><ele>349.0</ele><time>2026-04-25T10:20:51.001Z</time></trkpt><trkpt lat="43.0824350139271" lon="11.573653770760545"><ele>349.75</ele><time>2026-04-25T10:20:52.001Z</time></trkpt><trkpt lat="43.08250309918134" lon="11.573819838888209"><ele>350.5</ele><time>2026-04-25T10:20:53.001Z</time></trkpt><trkpt lat="43.082575278570026" lon="11.573994537662541"><ele>351.25</ele><time>2026-04-25T10:20:54.001Z</time></trkpt><trkpt lat="43.08264264873456" lon="11.574164300793779"><ele>352.0</ele><time>2026-04-25T10:20:55.001Z</time></trkpt><trkpt lat="43.082705457006334" lon="11.574323036277029"><ele>352.0</ele><time>2026-04-25T10:20:56.001Z</time></trkpt><trkpt lat="43.08277247933094" lon="11.574490969823971"><ele>352.0</ele><time>2026-04-25T10:20:57.001Z</time></trkpt><trkpt lat="43.08284666731084" lon="11.5746716858357"><ele>352.0</ele><time>2026-04-25T10:20:58.001Z</time></trkpt><trkpt lat="43.08292239778044" lon="11.574856954266574"><ele>352.0</ele><time>2026-04-25T10:20:59.001Z</time></trkpt><trkpt lat="43.082999661342534" lon="11.575041075087633"><ele>352.5</ele><time>2026-04-25T10:21:00.001Z</time></trkpt><trkpt lat="43.08307198120058" lon="11.57521413607864"><ele>353.0</ele><time>2026-04-25T10:21:01.001Z</time></trkpt><trkpt lat="43.08314169721063" lon="11.57537849502071"><ele>353.5</ele><time>2026-04-25T10:21:02.001Z</time></trkpt><trkpt lat="43.083211170144104" lon="11.575535647657789"><ele>354.0</ele><time>2026-04-25T10:21:03.001Z</time></trkpt><trkpt lat="43.083281491214876" lon="11.575696266127716"><ele>354.0</ele><time>2026-04-25T10:21:04.001Z</time></trkpt><trkpt lat="43.083356443947416" lon="11.575864096317558"><ele>354.0</ele><time>2026-04-25T10:21:05.001Z</time></trkpt><trkpt lat="43.083426606366395" lon="11.576023625544305"><ele>354.0</ele><time>2026-04-25T10:21:06.001Z</time></trkpt><trkpt lat="43.083493845152674" lon="11.576183825535342"><ele>354.0</ele><time>2026-04-25T10:21:07.002Z</time></trkpt><trkpt lat="43.083559862688766" lon="11.576345680664797"><ele>353.0</ele><time>2026-04-25T10:21:08.002Z</time></trkpt><trkpt lat="43.08362088177849" lon="11.576508320344127"><ele>352.0</ele><time>2026-04-25T10:21:09.002Z</time></trkpt><trkpt lat="43.083676261832686" lon="11.57667963488631"><ele>351.0</ele><time>2026-04-25T10:21:10.002Z</time></trkpt><trkpt lat="43.08372635029014" lon="11.576857366476286"><ele>350.0</ele><time>2026-04-25T10:21:11.002Z</time></trkpt><trkpt lat="43.08376996727548" lon="11.577037912107214"><ele>350.0</ele><time>2026-04-25T10:21:12.002Z</time></trkpt><trkpt lat="43.08381075455788" lon="11.577223523901493"><ele>350.0</ele><time>2026-04-25T10:21:13.002Z</time></trkpt><trkpt lat="43.08385453116442" lon="11.577420314662817"><ele>350.0</ele><time>2026-04-25T10:21:14.002Z</time></trkpt><trkpt lat="43.083903680939216" lon="11.577626922198789"><ele>350.0</ele><time>2026-04-25T10:21:15.002Z</time></trkpt><trkpt lat="43.0839485493206" lon="11.577829923292963"><ele>350.0</ele><time>2026-04-25T10:21:16.002Z</time></trkpt><trkpt lat="43.08399203396665" lon="11.578031577664754"><ele>350.0</ele><time>2026-04-25T10:21:17.002Z</time></trkpt><trkpt lat="43.08403544691466" lon="11.578229641408887"><ele>350.0</ele><time>2026-04-25T10:21:18.002Z</time></trkpt><trkpt lat="43.084072984075064" lon="11.578402802450704"><ele>350.0</ele><time>2026-04-25T10:21:19.002Z</time></trkpt><trkpt lat="43.084111370801395" lon="11.578572817482835"><ele>350.0</ele><time>2026-04-25T10:21:20.002Z</time></trkpt><trkpt lat="43.08414870255437" lon="11.578742366603885"><ele>350.0</ele><time>2026-04-25T10:21:21.002Z</time></trkpt><trkpt lat="43.08418444329957" lon="11.578903328955452"><ele>353.0</ele><time>2026-04-25T10:21:22.002Z</time></trkpt><trkpt lat="43.08423132778945" lon="11.57904777181985"><ele>356.0</ele><time>2026-04-25T10:21:23.002Z</time></trkpt><trkpt lat="43.08428429949364" lon="11.579179697872762"><ele>359.0</ele><time>2026-04-25T10:21:24.002Z</time></trkpt><trkpt lat="43.08435171760284" lon="11.579311424360702"><ele>362.0</ele><time>2026-04-25T10:21:25.002Z</time></trkpt><trkpt lat="43.084431065115744" lon="11.579432652745849"><ele>364.0</ele><time>2026-04-25T10:21:26.002Z</time></trkpt><trkpt lat="43.08451005130893" lon="11.579560881717727"><ele>366.0</ele><time>2026-04-25T10:21:27.002Z</time></trkpt><trkpt lat="43.08458288541388" lon="11.57969506658601"><ele>368.0</ele><time>2026-04-25T10:21:28.002Z</time></trkpt><trkpt lat="43.08465775651519" lon="11.579837912959436"><ele>370.0</ele><time>2026-04-25T10:21:29.002Z</time></trkpt><trkpt lat="43.08473193518365" lon="11.579977184046426"><ele>370.0</ele><time>2026-04-25T10:21:30.002Z</time></trkpt><trkpt lat="43.08479977559849" lon="11.580105634180349"><ele>370.0</ele><time>2026-04-25T10:21:31.002Z</time></trkpt><trkpt lat="43.084858143940714" lon="11.580211524145492"><ele>370.0</ele><time>2026-04-25T10:21:32.002Z</time></trkpt><trkpt lat="43.08489817500439" lon="11.580307231226724"><ele>370.0</ele><time>2026-04-25T10:21:33.002Z</time></trkpt><trkpt lat="43.0849350626204" lon="11.580418800789328"><ele>370.0</ele><time>2026-04-25T10:21:34.002Z</time></trkpt><trkpt lat="43.08497395267654" lon="11.580552793925047"><ele>370.25</ele><time>2026-04-25T10:21:35.002Z</time></trkpt><trkpt lat="43.08502158330217" lon="11.580715852626975"><ele>370.5</ele><time>2026-04-25T10:21:36.002Z</time></trkpt><trkpt lat="43.08507102566304" lon="11.580883245937173"><ele>370.75</ele><time>2026-04-25T10:21:37.002Z</time></trkpt><trkpt lat="43.08511100616692" lon="11.581030717820243"><ele>371.0</ele><time>2026-04-25T10:21:38.002Z</time></trkpt><trkpt lat="43.08514061686958" lon="11.581196760023278"><ele>371.0</ele><time>2026-04-25T10:21:39.002Z</time></trkpt><trkpt lat="43.08519119007508" lon="11.581330377188747"><ele>371.0</ele><time>2026-04-25T10:21:40.002Z</time></trkpt><trkpt lat="43.08523185079565" lon="11.581455046449992"><ele>371.0</ele><time>2026-04-25T10:21:41.002Z</time></trkpt><trkpt lat="43.08527518181347" lon="11.581584247704168"><ele>371.0</ele><time>2026-04-25T10:21:42.002Z</time></trkpt><trkpt lat="43.085326862938146" lon="11.58170059306866"><ele>371.0</ele><time>2026-04-25T10:21:43.002Z</time></trkpt><trkpt lat="43.085392854654316" lon="11.581819334285074"><ele>371.0</ele><time>2026-04-25T10:21:44.002Z</time></trkpt><trkpt lat="43.085472725303944" lon="11.581936900695403"><ele>371.0</ele><time>2026-04-25T10:21:45.002Z</time></trkpt><trkpt lat="43.08555930805001" lon="11.58205833259268"><ele>371.0</ele><time>2026-04-25T10:21:46.002Z</time></trkpt><trkpt lat="43.085638672880684" lon="11.582169092869524"><ele>371.0</ele><time>2026-04-25T10:21:47.002Z</time></trkpt><trkpt lat="43.085705036264116" lon="11.582275948033537"><ele>371.6666666666667</ele><time>2026-04-25T10:21:48.002Z</time></trkpt><trkpt lat="43.08576200000994" lon="11.582381394922635"><ele>372.33333333333337</ele><time>2026-04-25T10:21:49.002Z</time></trkpt><trkpt lat="43.08580713580431" lon="11.58248217100344"><ele>373.0</ele><time>2026-04-25T10:21:50.002Z</time></trkpt><trkpt lat="43.08584759407682" lon="11.582566855324119"><ele>373.6666666666667</ele><time>2026-04-25T10:21:51.002Z</time></trkpt><trkpt lat="43.085895174881074" lon="11.582629536834679"><ele>374.3333333333333</ele><time>2026-04-25T10:21:52.002Z</time></trkpt><trkpt lat="43.08596773333697" lon="11.582678177707587"><ele>375.0</ele><time>2026-04-25T10:21:53.002Z</time></trkpt><trkpt lat="43.08605854733162" lon="11.582755485429928"><ele>375.0</ele><time>2026-04-25T10:21:54.002Z</time></trkpt><trkpt lat="43.08614930475469" lon="11.582841209948702"><ele>375.0</ele><time>2026-04-25T10:21:55.002Z</time></trkpt><trkpt lat="43.08623798285905" lon="11.58292787026881"><ele>375.0</ele><time>2026-04-25T10:21:56.002Z</time></trkpt><trkpt lat="43.08631272259739" lon="11.583016920055822"><ele>375.0</ele><time>2026-04-25T10:21:57.002Z</time></trkpt><trkpt lat="43.086384331583574" lon="11.583087929935033"><ele>375.0</ele><time>2026-04-25T10:21:58.002Z</time></trkpt><trkpt lat="43.08645475764714" lon="11.583151996714964"><ele>374.0</ele><time>2026-04-25T10:21:59.002Z</time></trkpt><trkpt lat="43.08652395738786" lon="11.583225704325736"><ele>373.0</ele><time>2026-04-25T10:22:00.002Z</time></trkpt><trkpt lat="43.08659556348302" lon="11.583294836210609"><ele>372.0</ele><time>2026-04-25T10:22:01.002Z</time></trkpt><trkpt lat="43.08666901112947" lon="11.58336205271004"><ele>371.0</ele><time>2026-04-25T10:22:02.002Z</time></trkpt><trkpt lat="43.08674811946067" lon="11.583415247621147"><ele>370.0</ele><time>2026-04-25T10:22:03.003Z</time></trkpt><trkpt lat="43.08682898964246" lon="11.583472288957909"><ele>369.0</ele><time>2026-04-25T10:22:04.003Z</time></trkpt><trkpt lat="43.0869114833926" lon="11.583527466066812"><ele>369.0</ele><time>2026-04-25T10:22:05.003Z</time></trkpt><trkpt lat="43.08699914552221" lon="11.583589993705319"><ele>369.0</ele><time>2026-04-25T10:22:05.999Z</time></trkpt><trkpt lat="43.08709702601687" lon="11.583672170386222"><ele>369.0</ele><time>2026-04-25T10:22:06.999Z</time></trkpt><trkpt lat="43.08719124009272" lon="11.58375050329318"><ele>369.0</ele><time>2026-04-25T10:22:07.999Z</time></trkpt><trkpt lat="43.087286739713385" lon="11.583823372972116"><ele>369.0</ele><time>2026-04-25T10:22:08.999Z</time></trkpt><trkpt lat="43.08738346068201" lon="11.583900598063218"><ele>366.2</ele><time>2026-04-25T10:22:09.999Z</time></trkpt><trkpt lat="43.08747869959654" lon="11.583974847726065"><ele>363.4</ele><time>2026-04-25T10:22:10.999Z</time></trkpt><trkpt lat="43.087573268366064" lon="11.584049613533015"><ele>360.6</ele><time>2026-04-25T10:22:11.999Z</time></trkpt><trkpt lat="43.087661461853614" lon="11.584128042849773"><ele>357.8</ele><time>2026-04-25T10:22:12.999Z</time></trkpt><trkpt lat="43.08774592859936" lon="11.584198728835176"><ele>355.0</ele><time>2026-04-25T10:22:13.999Z</time></trkpt><trkpt lat="43.08782861283057" lon="11.584267085259068"><ele>355.0</ele><time>2026-04-25T10:22:14.999Z</time></trkpt><trkpt lat="43.087910982258784" lon="11.584338820764561"><ele>355.0</ele><time>2026-04-25T10:22:15.999Z</time></trkpt><trkpt lat="43.087998646128476" lon="11.5844100022226"><ele>355.0</ele><time>2026-04-25T10:22:16.999Z</time></trkpt><trkpt lat="43.08808877940941" lon="11.584484313671597"><ele>355.0</ele><time>2026-04-25T10:22:18Z</time></trkpt><trkpt lat="43.088182301835104" lon="11.584554390544273"><ele>355.0</ele><time>2026-04-25T10:22:19Z</time></trkpt><trkpt lat="43.08828251123357" lon="11.584620236605662"><ele>356.0</ele><time>2026-04-25T10:22:20Z</time></trkpt><trkpt lat="43.08838392424551" lon="11.584689930086354"><ele>357.0</ele><time>2026-04-25T10:22:21Z</time></trkpt><trkpt lat="43.08848318568367" lon="11.58475697288751"><ele>358.0</ele><time>2026-04-25T10:22:22Z</time></trkpt><trkpt lat="43.08858306677711" lon="11.584814574175468"><ele>359.0</ele><time>2026-04-25T10:22:23Z</time></trkpt><trkpt lat="43.08867860914276" lon="11.584887557237835"><ele>360.0</ele><time>2026-04-25T10:22:24Z</time></trkpt><trkpt lat="43.08879318030071" lon="11.584976321383078"><ele>360.0</ele><time>2026-04-25T10:22:25Z</time></trkpt><trkpt lat="43.08891457383266" lon="11.585077387889207"><ele>360.0</ele><time>2026-04-25T10:22:26Z</time></trkpt><trkpt lat="43.08902561851461" lon="11.585175429025615"><ele>360.0</ele><time>2026-04-25T10:22:27Z</time></trkpt><trkpt lat="43.08913014334046" lon="11.58526682221694"><ele>360.0</ele><time>2026-04-25T10:22:28Z</time></trkpt><trkpt lat="43.08922986392917" lon="11.58535638107079"><ele>362.5</ele><time>2026-04-25T10:22:29Z</time></trkpt><trkpt lat="43.08932456833263" lon="11.585442116228508"><ele>365.0</ele><time>2026-04-25T10:22:30Z</time></trkpt><trkpt lat="43.08942254516812" lon="11.585523793901176"><ele>367.5</ele><time>2026-04-25T10:22:31Z</time></trkpt><trkpt lat="43.08952665294768" lon="11.585607603467553"><ele>370.0</ele><time>2026-04-25T10:22:32Z</time></trkpt><trkpt lat="43.08962768689818" lon="11.585693597478963"><ele>370.0</ele><time>2026-04-25T10:22:33Z</time></trkpt><trkpt lat="43.08971785357825" lon="11.585776921108419"><ele>370.0</ele><time>2026-04-25T10:22:34Z</time></trkpt><trkpt lat="43.089811439772426" lon="11.585861850133798"><ele>370.0</ele><time>2026-04-25T10:22:35Z</time></trkpt><trkpt lat="43.08990742812317" lon="11.58594236235903"><ele>370.0</ele><time>2026-04-25T10:22:36Z</time></trkpt><trkpt lat="43.089996662928755" lon="11.586028366417175"><ele>370.0</ele><time>2026-04-25T10:22:37Z</time></trkpt><trkpt lat="43.090079893752545" lon="11.586114223752634"><ele>372.0</ele><time>2026-04-25T10:22:38Z</time></trkpt><trkpt lat="43.090156837852064" lon="11.586212016761761"><ele>374.0</ele><time>2026-04-25T10:22:39Z</time></trkpt><trkpt lat="43.09023168796757" lon="11.586320937463666"><ele>376.0</ele><time>2026-04-25T10:22:40Z</time></trkpt><trkpt lat="43.09029887919139" lon="11.586448478550578"><ele>378.0</ele><time>2026-04-25T10:22:41Z</time></trkpt><trkpt lat="43.09036887720493" lon="11.586594045593259"><ele>378.0</ele><time>2026-04-25T10:22:42Z</time></trkpt><trkpt lat="43.090447492006646" lon="11.58675350237756"><ele>378.0</ele><time>2026-04-25T10:22:43.001Z</time></trkpt><trkpt lat="43.090521232895135" lon="11.586903017177262"><ele>378.0</ele><time>2026-04-25T10:22:44.001Z</time></trkpt><trkpt lat="43.09059424774313" lon="11.587049378945867"><ele>378.0</ele><time>2026-04-25T10:22:45.001Z</time></trkpt><trkpt lat="43.090665878280134" lon="11.587186652135438"><ele>379.2</ele><time>2026-04-25T10:22:46.001Z</time></trkpt><trkpt lat="43.09073375594452" lon="11.58732420311842"><ele>380.4</ele><time>2026-04-25T10:22:47.001Z</time></trkpt><trkpt lat="43.09079522664195" lon="11.587444172578255"><ele>381.59999999999997</ele><time>2026-04-25T10:22:48.001Z</time></trkpt><trkpt lat="43.09085567232363" lon="11.587549884653097"><ele>382.79999999999995</ele><time>2026-04-25T10:22:49.001Z</time></trkpt><trkpt lat="43.090920116230535" lon="11.587648375325465"><ele>384.0</ele><time>2026-04-25T10:22:50.001Z</time></trkpt><trkpt lat="43.090991161991816" lon="11.587736182615757"><ele>380.5</ele><time>2026-04-25T10:22:51.001Z</time></trkpt><trkpt lat="43.09107692316213" lon="11.58780628559504"><ele>377.0</ele><time>2026-04-25T10:22:52.001Z</time></trkpt><trkpt lat="43.0911801643878" lon="11.58786569838798"><ele>373.5</ele><time>2026-04-25T10:22:53.001Z</time></trkpt><trkpt lat="43.0913103829251" lon="11.5879380379696"><ele>370.0</ele><time>2026-04-25T10:22:54.001Z</time></trkpt><trkpt lat="43.09143071690978" lon="11.588008794332877"><ele>370.0</ele><time>2026-04-25T10:22:55.001Z</time></trkpt><trkpt lat="43.091547084465645" lon="11.588082325494922"><ele>370.0</ele><time>2026-04-25T10:22:56.001Z</time></trkpt><trkpt lat="43.09166302096506" lon="11.58816033841854"><ele>370.0</ele><time>2026-04-25T10:22:57.001Z</time></trkpt><trkpt lat="43.09178313213486" lon="11.58824138749092"><ele>370.0</ele><time>2026-04-25T10:22:58.001Z</time></trkpt><trkpt lat="43.09190293824918" lon="11.588319121417394"><ele>369.0</ele><time>2026-04-25T10:22:59.001Z</time></trkpt><trkpt lat="43.092023242484444" lon="11.588394539795924"><ele>368.0</ele><time>2026-04-25T10:23:00.001Z</time></trkpt><trkpt lat="43.092145495924875" lon="11.588470546010383"><ele>367.0</ele><time>2026-04-25T10:23:01.001Z</time></trkpt><trkpt lat="43.09226057542109" lon="11.588541764809278"><ele>366.0</ele><time>2026-04-25T10:23:02.001Z</time></trkpt><trkpt lat="43.092368908121" lon="11.588608016498354"><ele>364.6</ele><time>2026-04-25T10:23:03.001Z</time></trkpt><trkpt lat="43.09247523087707" lon="11.588671307508093"><ele>363.20000000000005</ele><time>2026-04-25T10:23:04.001Z</time></trkpt><trkpt lat="43.0925728267467" lon="11.58873699078706"><ele>361.79999999999995</ele><time>2026-04-25T10:23:05.001Z</time></trkpt><trkpt lat="43.09266417988201" lon="11.588812636567157"><ele>360.4</ele><time>2026-04-25T10:23:06.001Z</time></trkpt><trkpt lat="43.09274927553258" lon="11.588898971945452"><ele>359.0</ele><time>2026-04-25T10:23:07.001Z</time></trkpt><trkpt lat="43.09283383626808" lon="11.588995346312833"><ele>358.79999999999995</ele><time>2026-04-25T10:23:08.001Z</time></trkpt><trkpt lat="43.09291757906215" lon="11.589091148660616"><ele>358.59999999999997</ele><time>2026-04-25T10:23:09.001Z</time></trkpt><trkpt lat="43.092993880049505" lon="11.58919014868635"><ele>358.4</ele><time>2026-04-25T10:23:10.001Z</time></trkpt><trkpt lat="43.093068773837814" lon="11.589299371727654"><ele>358.2</ele><time>2026-04-25T10:23:11.001Z</time></trkpt><trkpt lat="43.09314063674216" lon="11.589413284468765"><ele>358.0</ele><time>2026-04-25T10:23:12.001Z</time></trkpt><trkpt lat="43.09320319025525" lon="11.589530087706054"><ele>356.0</ele><time>2026-04-25T10:23:13.001Z</time></trkpt><trkpt lat="43.09325966961845" lon="11.589655189585473"><ele>354.0</ele><time>2026-04-25T10:23:14.001Z</time></trkpt><trkpt lat="43.09330981619356" lon="11.589781466581265"><ele>352.0</ele><time>2026-04-25T10:23:15.001Z</time></trkpt><trkpt lat="43.093365210478275" lon="11.589905509241017"><ele>350.0</ele><time>2026-04-25T10:23:16.001Z</time></trkpt><trkpt lat="43.09342327854503" lon="11.590031859025682"><ele>348.0</ele><time>2026-04-25T10:23:17.002Z</time></trkpt><trkpt lat="43.09348082018934" lon="11.590145514811997"><ele>348.0</ele><time>2026-04-25T10:23:18.002Z</time></trkpt><trkpt lat="43.09354166999146" lon="11.590249432890474"><ele>348.0</ele><time>2026-04-25T10:23:19.002Z</time></trkpt><trkpt lat="43.09360897983541" lon="11.590340479512417"><ele>348.0</ele><time>2026-04-25T10:23:20.002Z</time></trkpt><trkpt lat="43.093692385958704" lon="11.590428904782156"><ele>348.0</ele><time>2026-04-25T10:23:21.002Z</time></trkpt><trkpt lat="43.093796866133076" lon="11.590529382084434"><ele>348.0</ele><time>2026-04-25T10:23:22.002Z</time></trkpt><trkpt lat="43.09391687770144" lon="11.59064195993087"><ele>348.59999999999997</ele><time>2026-04-25T10:23:23.002Z</time></trkpt><trkpt lat="43.094021150896666" lon="11.590732637383958"><ele>349.2</ele><time>2026-04-25T10:23:24.002Z</time></trkpt><trkpt lat="43.09411456764155" lon="11.59081736988154"><ele>349.8</ele><time>2026-04-25T10:23:25.002Z</time></trkpt><trkpt lat="43.09419880622503" lon="11.590897741425406"><ele>350.4</ele><time>2026-04-25T10:23:26.002Z</time></trkpt><trkpt lat="43.09427961970529" lon="11.59098374330681"><ele>351.0</ele><time>2026-04-25T10:23:27.002Z</time></trkpt><trkpt lat="43.094350986564564" lon="11.59107483133732"><ele>348.20000000000005</ele><time>2026-04-25T10:23:28.002Z</time></trkpt><trkpt lat="43.09441905409279" lon="11.591187723353183"><ele>345.40000000000003</ele><time>2026-04-25T10:23:29.002Z</time></trkpt><trkpt lat="43.09446800537269" lon="11.591318717266919"><ele>342.6</ele><time>2026-04-25T10:23:30.002Z</time></trkpt><trkpt lat="43.09450291584594" lon="11.591462859570207"><ele>339.8</ele><time>2026-04-25T10:23:31.002Z</time></trkpt><trkpt lat="43.09453959357448" lon="11.591611477685545"><ele>337.0</ele><time>2026-04-25T10:23:32.002Z</time></trkpt><trkpt lat="43.094587033161744" lon="11.591758438064511"><ele>337.0</ele><time>2026-04-25T10:23:33.002Z</time></trkpt><trkpt lat="43.09464394977669" lon="11.59190389849552"><ele>337.0</ele><time>2026-04-25T10:23:34.002Z</time></trkpt><trkpt lat="43.09469663628014" lon="11.59203058437081"><ele>337.0</ele><time>2026-04-25T10:23:35.002Z</time></trkpt><trkpt lat="43.094744895968375" lon="11.592147032681376"><ele>337.0</ele><time>2026-04-25T10:23:36.002Z</time></trkpt><trkpt lat="43.094788619264584" lon="11.592259414660996"><ele>337.0</ele><time>2026-04-25T10:23:37.002Z</time></trkpt><trkpt lat="43.094831497367004" lon="11.592357521485015"><ele>335.8</ele><time>2026-04-25T10:23:38.002Z</time></trkpt><trkpt lat="43.09487127675677" lon="11.592450491441747"><ele>334.6</ele><time>2026-04-25T10:23:39.002Z</time></trkpt><trkpt lat="43.0949056848679" lon="11.592532699989514"><ele>333.40000000000003</ele><time>2026-04-25T10:23:40.002Z</time></trkpt><trkpt lat="43.094966188435905" lon="11.592673816284684"><ele>332.20000000000005</ele><time>2026-04-25T10:23:42.002Z</time></trkpt><trkpt lat="43.0950144430528" lon="11.592791864088474"><ele>331.0</ele><time>2026-04-25T10:23:44.002Z</time></trkpt><trkpt lat="43.095057691811306" lon="11.592891578316502"><ele>333.0</ele><time>2026-04-25T10:23:46.002Z</time></trkpt><trkpt lat="43.095095444140576" lon="11.592979465281024"><ele>335.0</ele><time>2026-04-25T10:23:48.002Z</time></trkpt><trkpt lat="43.09512930787005" lon="11.593053345414118"><ele>337.0</ele><time>2026-04-25T10:23:49.002Z</time></trkpt><trkpt lat="43.09516739118818" lon="11.593138976431206"><ele>339.0</ele><time>2026-04-25T10:23:50.002Z</time></trkpt><trkpt lat="43.09521064312656" lon="11.593234555556243"><ele>341.0</ele><time>2026-04-25T10:23:51.002Z</time></trkpt><trkpt lat="43.095263032316176" lon="11.593362311407953"><ele>343.0</ele><time>2026-04-25T10:23:52.002Z</time></trkpt><trkpt lat="43.095322212047165" lon="11.593514063716347"><ele>343.0</ele><time>2026-04-25T10:23:53.002Z</time></trkpt><trkpt lat="43.09538299453849" lon="11.593660781479658"><ele>343.0</ele><time>2026-04-25T10:23:54.003Z</time></trkpt><trkpt lat="43.09543611070916" lon="11.59378880049137"><ele>343.0</ele><time>2026-04-25T10:23:55.003Z</time></trkpt><trkpt lat="43.09548271652097" lon="11.593899850860485"><ele>343.0</ele><time>2026-04-25T10:23:56.003Z</time></trkpt><trkpt lat="43.095522668919074" lon="11.593998550861066"><ele>343.0</ele><time>2026-04-25T10:23:57.003Z</time></trkpt><trkpt lat="43.09556262439093" lon="11.594093426353462"><ele>343.66666666666663</ele><time>2026-04-25T10:23:58.003Z</time></trkpt><trkpt lat="43.09559653296259" lon="11.594181596929246"><ele>344.3333333333333</ele><time>2026-04-25T10:23:59.003Z</time></trkpt><trkpt lat="43.09562979671927" lon="11.594264358823171"><ele>345.0</ele><time>2026-04-25T10:24:00.003Z</time></trkpt><trkpt lat="43.095665005916324" lon="11.594351281723515"><ele>345.6666666666667</ele><time>2026-04-25T10:24:01.003Z</time></trkpt><trkpt lat="43.095704247517105" lon="11.594457956180735"><ele>346.33333333333337</ele><time>2026-04-25T10:24:02.003Z</time></trkpt><trkpt lat="43.09575806195332" lon="11.594583430482794"><ele>347.0</ele><time>2026-04-25T10:24:03.003Z</time></trkpt><trkpt lat="43.09580997616823" lon="11.59468457187153"><ele>347.0</ele><time>2026-04-25T10:24:04.003Z</time></trkpt><trkpt lat="43.09586404833046" lon="11.594775216236014"><ele>347.0</ele><time>2026-04-25T10:24:05.003Z</time></trkpt><trkpt lat="43.0959311455103" lon="11.59485030869781"><ele>347.0</ele><time>2026-04-25T10:24:06.003Z</time></trkpt><trkpt lat="43.09601109273201" lon="11.59491783890068"><ele>347.0</ele><time>2026-04-25T10:24:07.003Z</time></trkpt><trkpt lat="43.09609967389344" lon="11.594971106315695"><ele>347.0</ele><time>2026-04-25T10:24:08.003Z</time></trkpt><trkpt lat="43.09618568676648" lon="11.595029766672853"><ele>347.0</ele><time>2026-04-25T10:24:09.003Z</time></trkpt><trkpt lat="43.09625752477183" lon="11.595108736281245"><ele>347.0</ele><time>2026-04-25T10:24:10.003Z</time></trkpt><trkpt lat="43.09631904976858" lon="11.595199405263203"><ele>347.0</ele><time>2026-04-25T10:24:11.003Z</time></trkpt><trkpt lat="43.09637340395806" lon="11.595306674695095"><ele>347.0</ele><time>2026-04-25T10:24:11.999Z</time></trkpt><trkpt lat="43.09642609811081" lon="11.595451258796686"><ele>347.0</ele><time>2026-04-25T10:24:12.999Z</time></trkpt><trkpt lat="43.096474725340904" lon="11.59558663726522"><ele>346.75</ele><time>2026-04-25T10:24:13.999Z</time></trkpt><trkpt lat="43.09651475085762" lon="11.595704620898644"><ele>346.5</ele><time>2026-04-25T10:24:14.999Z</time></trkpt><trkpt lat="43.09655313466236" lon="11.595831199894544"><ele>346.25</ele><time>2026-04-25T10:24:15.999Z</time></trkpt><trkpt lat="43.096597649030976" lon="11.59600165565144"><ele>346.0</ele><time>2026-04-25T10:24:16.999Z</time></trkpt><trkpt lat="43.09664563103874" lon="11.596200429392791"><ele>348.75</ele><time>2026-04-25T10:24:17.999Z</time></trkpt><trkpt lat="43.09668610730524" lon="11.59638321262625"><ele>351.5</ele><time>2026-04-25T10:24:18.999Z</time></trkpt><trkpt lat="43.09672328190271" lon="11.596534998394562"><ele>354.25</ele><time>2026-04-25T10:24:19.999Z</time></trkpt><trkpt lat="43.096756103933025" lon="11.596671876774478"><ele>357.0</ele><time>2026-04-25T10:24:20.999Z</time></trkpt><trkpt lat="43.09678373544534" lon="11.5968109026131"><ele>357.0</ele><time>2026-04-25T10:24:21.999Z</time></trkpt><trkpt lat="43.09681764969787" lon="11.596957490229476"><ele>357.0</ele><time>2026-04-25T10:24:22.999Z</time></trkpt><trkpt lat="43.09685511077847" lon="11.597081969215136"><ele>357.0</ele><time>2026-04-25T10:24:23.999Z</time></trkpt><trkpt lat="43.09688503688894" lon="11.597171738451719"><ele>357.0</ele><time>2026-04-25T10:24:24.999Z</time></trkpt><trkpt lat="43.09697212198139" lon="11.597279062282976"><ele>357.0</ele><time>2026-04-25T10:24:27Z</time></trkpt><trkpt lat="43.097049900750235" lon="11.59730545580815"><ele>357.40000000000003</ele><time>2026-04-25T10:24:28Z</time></trkpt><trkpt lat="43.097149270430926" lon="11.597350934801314"><ele>357.8</ele><time>2026-04-25T10:24:29Z</time></trkpt><trkpt lat="43.097238211256915" lon="11.597413158189253"><ele>358.2</ele><time>2026-04-25T10:24:30Z</time></trkpt><trkpt lat="43.097323648907505" lon="11.597508371038368"><ele>358.6</ele><time>2026-04-25T10:24:31Z</time></trkpt><trkpt lat="43.09740367758524" lon="11.597620641518006"><ele>359.0</ele><time>2026-04-25T10:24:32Z</time></trkpt><trkpt lat="43.0974823725794" lon="11.5977412463865"><ele>361.0</ele><time>2026-04-25T10:24:33Z</time></trkpt><trkpt lat="43.09755803968161" lon="11.597849705523053"><ele>363.0</ele><time>2026-04-25T10:24:34Z</time></trkpt><trkpt lat="43.09762856479549" lon="11.597957822959668"><ele>365.0</ele><time>2026-04-25T10:24:35Z</time></trkpt><trkpt lat="43.09769957453965" lon="11.598064100078128"><ele>367.0</ele><time>2026-04-25T10:24:36Z</time></trkpt><trkpt lat="43.09776500667663" lon="11.59816635308457"><ele>369.0</ele><time>2026-04-25T10:24:37Z</time></trkpt><trkpt lat="43.09782882211237" lon="11.598268883275074"><ele>369.0</ele><time>2026-04-25T10:24:38Z</time></trkpt><trkpt lat="43.09788855175303" lon="11.598366313741943"><ele>369.0</ele><time>2026-04-25T10:24:39Z</time></trkpt><trkpt lat="43.09795265717872" lon="11.598456098267569"><ele>369.0</ele><time>2026-04-25T10:24:40Z</time></trkpt><trkpt lat="43.09799974202411" lon="11.598529405263122"><ele>369.0</ele><time>2026-04-25T10:24:41Z</time></trkpt><trkpt lat="43.09805132664213" lon="11.59858774260988"><ele>369.0</ele><time>2026-04-25T10:24:42Z</time></trkpt><trkpt lat="43.09818283261791" lon="11.598599505771375"><ele>368.6666666666667</ele><time>2026-04-25T10:24:44Z</time></trkpt><trkpt lat="43.09825538678548" lon="11.59856954042941"><ele>368.3333333333333</ele><time>2026-04-25T10:24:45Z</time></trkpt><trkpt lat="43.098330852169944" lon="11.598522908403105"><ele>368.0</ele><time>2026-04-25T10:24:46Z</time></trkpt><trkpt lat="43.098387219782715" lon="11.598464375528001"><ele>367.66666666666663</ele><time>2026-04-25T10:24:47Z</time></trkpt><trkpt lat="43.098449243912256" lon="11.598398877241793"><ele>367.3333333333333</ele><time>2026-04-25T10:24:48Z</time></trkpt><trkpt lat="43.098503534009744" lon="11.598258281276435"><ele>367.0</ele><time>2026-04-25T10:24:50.001Z</time></trkpt><trkpt lat="43.098497664046846" lon="11.598170854592498"><ele>367.0</ele><time>2026-04-25T10:24:51.001Z</time></trkpt><trkpt lat="43.09850744506758" lon="11.598076990653094"><ele>367.0</ele><time>2026-04-25T10:24:52.001Z</time></trkpt><trkpt lat="43.09852779509822" lon="11.597987264245164"><ele>367.0</ele><time>2026-04-25T10:24:53.001Z</time></trkpt><trkpt lat="43.09855187041331" lon="11.597902856929895"><ele>367.0</ele><time>2026-04-25T10:24:54.001Z</time></trkpt><trkpt lat="43.09857755254373" lon="11.597817175504124"><ele>367.0</ele><time>2026-04-25T10:24:55.001Z</time></trkpt><trkpt lat="43.098604134207484" lon="11.597723842993023"><ele>367.0</ele><time>2026-04-25T10:24:56.001Z</time></trkpt><trkpt lat="43.098637662872555" lon="11.59763161770199"><ele>367.0</ele><time>2026-04-25T10:24:57.001Z</time></trkpt><trkpt lat="43.09866913773106" lon="11.597550613332194"><ele>366.16666666666663</ele><time>2026-04-25T10:24:58.001Z</time></trkpt><trkpt lat="43.09871782232674" lon="11.597478550975776"><ele>365.3333333333333</ele><time>2026-04-25T10:24:59.001Z</time></trkpt><trkpt lat="43.09877722646376" lon="11.597426118386256"><ele>364.5</ele><time>2026-04-25T10:25:00.001Z</time></trkpt><trkpt lat="43.09884467715415" lon="11.59739313000279"><ele>363.6666666666667</ele><time>2026-04-25T10:25:01.001Z</time></trkpt><trkpt lat="43.0989606170053" lon="11.597426155697526"><ele>362.83333333333337</ele><time>2026-04-25T10:25:03.001Z</time></trkpt><trkpt lat="43.09902795307863" lon="11.597473109120862"><ele>362.0</ele><time>2026-04-25T10:25:04.001Z</time></trkpt><trkpt lat="43.09909438258303" lon="11.59752979661399"><ele>361.20000000000005</ele><time>2026-04-25T10:25:05.001Z</time></trkpt><trkpt lat="43.09916176768423" lon="11.597596837065973"><ele>360.4</ele><time>2026-04-25T10:25:06.001Z</time></trkpt><trkpt lat="43.09923065679051" lon="11.59766570570932"><ele>359.6</ele><time>2026-04-25T10:25:07.001Z</time></trkpt><trkpt lat="43.09931142076834" lon="11.5977570482969"><ele>358.79999999999995</ele><time>2026-04-25T10:25:08.001Z</time></trkpt><trkpt lat="43.0993970615095" lon="11.597875005115302"><ele>358.0</ele><time>2026-04-25T10:25:09.001Z</time></trkpt><trkpt lat="43.09948457318633" lon="11.598011331852318"><ele>360.0</ele><time>2026-04-25T10:25:10.001Z</time></trkpt><trkpt lat="43.099578790807605" lon="11.598143840317865"><ele>362.0</ele><time>2026-04-25T10:25:11.001Z</time></trkpt><trkpt lat="43.09966696524675" lon="11.598285294920379"><ele>364.0</ele><time>2026-04-25T10:25:12.001Z</time></trkpt><trkpt lat="43.09974834874942" lon="11.59841914624812"><ele>366.0</ele><time>2026-04-25T10:25:13.001Z</time></trkpt><trkpt lat="43.09982299615513" lon="11.598542756575638"><ele>366.75</ele><time>2026-04-25T10:25:14.001Z</time></trkpt><trkpt lat="43.09989891670975" lon="11.598668466837672"><ele>367.5</ele><time>2026-04-25T10:25:15.001Z</time></trkpt><trkpt lat="43.09996938853449" lon="11.598789105280906"><ele>368.25</ele><time>2026-04-25T10:25:16.001Z</time></trkpt><trkpt lat="43.100041097050436" lon="11.59890267055615"><ele>369.0</ele><time>2026-04-25T10:25:17.001Z</time></trkpt><trkpt lat="43.10011847282202" lon="11.599017677482575"><ele>366.0</ele><time>2026-04-25T10:25:18.001Z</time></trkpt><trkpt lat="43.100198638686464" lon="11.599111074654854"><ele>363.0</ele><time>2026-04-25T10:25:19.001Z</time></trkpt><trkpt lat="43.10027660797763" lon="11.599183800884717"><ele>360.0</ele><time>2026-04-25T10:25:20.002Z</time></trkpt><trkpt lat="43.100359189675835" lon="11.599218929115247"><ele>357.0</ele><time>2026-04-25T10:25:21.002Z</time></trkpt><trkpt lat="43.10046246343269" lon="11.599244842012576"><ele>354.0</ele><time>2026-04-25T10:25:22.002Z</time></trkpt><trkpt lat="43.10058019891991" lon="11.599258958719807"><ele>354.0</ele><time>2026-04-25T10:25:23.002Z</time></trkpt><trkpt lat="43.100706359417124" lon="11.599261977192182"><ele>354.0</ele><time>2026-04-25T10:25:24.002Z</time></trkpt><trkpt lat="43.10083573267469" lon="11.599244026570355"><ele>354.0</ele><time>2026-04-25T10:25:25.002Z</time></trkpt><trkpt lat="43.10096831691751" lon="11.599215137531218"><ele>354.0</ele><time>2026-04-25T10:25:26.002Z</time></trkpt><trkpt lat="43.10108707572868" lon="11.599200601733175"><ele>352.75</ele><time>2026-04-25T10:25:27.002Z</time></trkpt><trkpt lat="43.10120140989563" lon="11.599194908804076"><ele>351.5</ele><time>2026-04-25T10:25:28.002Z</time></trkpt><trkpt lat="43.10131342317267" lon="11.599209315629837"><ele>350.25</ele><time>2026-04-25T10:25:29.002Z</time></trkpt><trkpt lat="43.10142602044853" lon="11.599246920029161"><ele>349.0</ele><time>2026-04-25T10:25:30.002Z</time></trkpt><trkpt lat="43.101529437697884" lon="11.599306021804948"><ele>349.75</ele><time>2026-04-25T10:25:31.002Z</time></trkpt><trkpt lat="43.10162695460691" lon="11.599391922162692"><ele>350.5</ele><time>2026-04-25T10:25:32.002Z</time></trkpt><trkpt lat="43.10172350560645" lon="11.59948705557081"><ele>351.25</ele><time>2026-04-25T10:25:33.002Z</time></trkpt><trkpt lat="43.10181059047057" lon="11.599586314650477"><ele>352.0</ele><time>2026-04-25T10:25:34.002Z</time></trkpt><trkpt lat="43.1018961071348" lon="11.599697448428211"><ele>352.0</ele><time>2026-04-25T10:25:35.002Z</time></trkpt><trkpt lat="43.10196799537935" lon="11.59983936452422"><ele>352.0</ele><time>2026-04-25T10:25:36.002Z</time></trkpt><trkpt lat="43.10204037994833" lon="11.60000898063512"><ele>352.0</ele><time>2026-04-25T10:25:37.002Z</time></trkpt><trkpt lat="43.10212914007633" lon="11.600209133562206"><ele>352.0</ele><time>2026-04-25T10:25:38.002Z</time></trkpt><trkpt lat="43.10221360741511" lon="11.600390921829852"><ele>349.75</ele><time>2026-04-25T10:25:39.002Z</time></trkpt><trkpt lat="43.102289944841026" lon="11.600553967348889"><ele>347.5</ele><time>2026-04-25T10:25:40.002Z</time></trkpt><trkpt lat="43.10235392649635" lon="11.600698054580326"><ele>345.25</ele><time>2026-04-25T10:25:41.002Z</time></trkpt><trkpt lat="43.10240998445975" lon="11.600824836922289"><ele>343.0</ele><time>2026-04-25T10:25:42.002Z</time></trkpt><trkpt lat="43.102467492100004" lon="11.600926819347535"><ele>345.7142857142857</ele><time>2026-04-25T10:25:43.002Z</time></trkpt><trkpt lat="43.10252612042949" lon="11.60100720927981"><ele>348.42857142857144</ele><time>2026-04-25T10:25:44.002Z</time></trkpt><trkpt lat="43.10259141061234" lon="11.601062538529272"><ele>351.1428571428571</ele><time>2026-04-25T10:25:45.002Z</time></trkpt><trkpt lat="43.102667490688965" lon="11.601087681036287"><ele>353.8571428571429</ele><time>2026-04-25T10:25:46.002Z</time></trkpt><trkpt lat="43.10273128691992" lon="11.601084147397646"><ele>356.57142857142856</ele><time>2026-04-25T10:25:47.002Z</time></trkpt><trkpt lat="43.10279745216769" lon="11.601060960017069"><ele>359.2857142857143</ele><time>2026-04-25T10:25:48.002Z</time></trkpt><trkpt lat="43.102857216918544" lon="11.600996328665252"><ele>362.0</ele><time>2026-04-25T10:25:49.002Z</time></trkpt><trkpt lat="43.10293098034097" lon="11.600916664790745"><ele>362.0</ele><time>2026-04-25T10:25:50.002Z</time></trkpt><trkpt lat="43.10301649454968" lon="11.600783196524993"><ele>362.0</ele><time>2026-04-25T10:25:51.002Z</time></trkpt><trkpt lat="43.1031113861645" lon="11.600660976640981"><ele>362.0</ele><time>2026-04-25T10:25:52.003Z</time></trkpt><trkpt lat="43.10319202631805" lon="11.600568927545039"><ele>362.0</ele><time>2026-04-25T10:25:53.003Z</time></trkpt><trkpt lat="43.103267742197765" lon="11.600504755269084"><ele>362.20000000000005</ele><time>2026-04-25T10:25:54.003Z</time></trkpt><trkpt lat="43.10335580410156" lon="11.60046353977537"><ele>362.4</ele><time>2026-04-25T10:25:55.003Z</time></trkpt><trkpt lat="43.10344398688915" lon="11.600448446695955"><ele>362.6</ele><time>2026-04-25T10:25:56.003Z</time></trkpt><trkpt lat="43.103545161481186" lon="11.600464192626154"><ele>362.79999999999995</ele><time>2026-04-25T10:25:57.003Z</time></trkpt><trkpt lat="43.10367259802935" lon="11.600482646731923"><ele>363.0</ele><time>2026-04-25T10:25:58.003Z</time></trkpt><trkpt lat="43.10382648903697" lon="11.600506873282107"><ele>363.0</ele><time>2026-04-25T10:25:59.003Z</time></trkpt><trkpt lat="43.10398986980354" lon="11.60053418196115"><ele>363.0</ele><time>2026-04-25T10:26:00.003Z</time></trkpt><trkpt lat="43.10418754959118" lon="11.600570917003942"><ele>363.0</ele><time>2026-04-25T10:26:01.003Z</time></trkpt><trkpt lat="43.10438729657438" lon="11.600598461553325"><ele>363.6666666666667</ele><time>2026-04-25T10:26:02.003Z</time></trkpt><trkpt lat="43.10457668125263" lon="11.600642461694862"><ele>364.33333333333337</ele><time>2026-04-25T10:26:03.003Z</time></trkpt><trkpt lat="43.1047593622262" lon="11.600662634469012"><ele>365.0</ele><time>2026-04-25T10:26:04.003Z</time></trkpt><trkpt lat="43.104933820833914" lon="11.600698381276231"><ele>365.5</ele><time>2026-04-25T10:26:05.003Z</time></trkpt><trkpt lat="43.10508922065873" lon="11.60071539819729"><ele>366.0</ele><time>2026-04-25T10:26:06.003Z</time></trkpt><trkpt lat="43.10522756387722" lon="11.600731659241378"><ele>366.5</ele><time>2026-04-25T10:26:07.003Z</time></trkpt><trkpt lat="43.10535387023143" lon="11.600733713615774"><ele>367.0</ele><time>2026-04-25T10:26:08.003Z</time></trkpt><trkpt lat="43.10548992520719" lon="11.600711660931191"><ele>367.0</ele><time>2026-04-25T10:26:09.003Z</time></trkpt><trkpt lat="43.10562804878083" lon="11.600644997901103"><ele>367.0</ele><time>2026-04-25T10:26:10.003Z</time></trkpt><trkpt lat="43.105776268841446" lon="11.600561656763855"><ele>367.0</ele><time>2026-04-25T10:26:11.003Z</time></trkpt><trkpt lat="43.10592028576702" lon="11.60046314797188"><ele>367.20000000000005</ele><time>2026-04-25T10:26:12.003Z</time></trkpt><trkpt lat="43.106027588659906" lon="11.600382045619261"><ele>367.4</ele><time>2026-04-25T10:26:13.003Z</time></trkpt><trkpt lat="43.106115946604234" lon="11.600323155082748"><ele>367.6</ele><time>2026-04-25T10:26:14.003Z</time></trkpt><trkpt lat="43.106200907948526" lon="11.600290426449712"><ele>367.79999999999995</ele><time>2026-04-25T10:26:15.003Z</time></trkpt><trkpt lat="43.10628653970661" lon="11.600294796831907"><ele>368.0</ele><time>2026-04-25T10:26:16.003Z</time></trkpt><trkpt lat="43.106379116215024" lon="11.600320302703029"><ele>369.25</ele><time>2026-04-25T10:26:17.003Z</time></trkpt><trkpt lat="43.10648513815316" lon="11.600363585221206"><ele>370.5</ele><time>2026-04-25T10:26:17.999Z</time></trkpt><trkpt lat="43.10660543819599" lon="11.600429359478445"><ele>371.75</ele><time>2026-04-25T10:26:18.999Z</time></trkpt><trkpt lat="43.10674361034669" lon="11.600519163918085"><ele>373.0</ele><time>2026-04-25T10:26:19.999Z</time></trkpt><trkpt lat="43.10688815807224" lon="11.600626586243841"><ele>376.66666666666663</ele><time>2026-04-25T10:26:20.999Z</time></trkpt><trkpt lat="43.107047026942894" lon="11.600732911729095"><ele>380.3333333333333</ele><time>2026-04-25T10:26:21.999Z</time></trkpt><trkpt lat="43.10719565937833" lon="11.600844184267288"><ele>384.0</ele><time>2026-04-25T10:26:22.999Z</time></trkpt><trkpt lat="43.10733440195523" lon="11.600945447717592"><ele>383.75</ele><time>2026-04-25T10:26:23.999Z</time></trkpt><trkpt lat="43.10746211196151" lon="11.60104462552659"><ele>383.5</ele><time>2026-04-25T10:26:24.999Z</time></trkpt><trkpt lat="43.10757596394216" lon="11.601132546583031"><ele>383.25</ele><time>2026-04-25T10:26:25.999Z</time></trkpt><trkpt lat="43.107662536690896" lon="11.60119725107156"><ele>383.0</ele><time>2026-04-25T10:26:26.999Z</time></trkpt><trkpt lat="43.10773527261363" lon="11.601255322249655"><ele>384.6666666666667</ele><time>2026-04-25T10:26:27.999Z</time></trkpt><trkpt lat="43.10780662883553" lon="11.601331986306032"><ele>386.33333333333337</ele><time>2026-04-25T10:26:29Z</time></trkpt><trkpt lat="43.10787377189254" lon="11.601428372755477"><ele>388.0</ele><time>2026-04-25T10:26:30Z</time></trkpt><trkpt lat="43.10793947019476" lon="11.601528786800559"><ele>389.6666666666667</ele><time>2026-04-25T10:26:31Z</time></trkpt><trkpt lat="43.10799378218759" lon="11.601620016258627"><ele>391.3333333333333</ele><time>2026-04-25T10:26:32Z</time></trkpt><trkpt lat="43.1080229796771" lon="11.601707273120253"><ele>393.0</ele><time>2026-04-25T10:26:33Z</time></trkpt><trkpt lat="43.10805022282239" lon="11.601807334919826"><ele>393.0</ele><time>2026-04-25T10:26:34Z</time></trkpt><trkpt lat="43.10806648314822" lon="11.60194801833999"><ele>393.0</ele><time>2026-04-25T10:26:35Z</time></trkpt><trkpt lat="43.108068218429764" lon="11.60210211593615"><ele>393.0</ele><time>2026-04-25T10:26:36Z</time></trkpt><trkpt lat="43.108053890979534" lon="11.60224975977816"><ele>393.0</ele><time>2026-04-25T10:26:37Z</time></trkpt><trkpt lat="43.10803665175898" lon="11.602395678762727"><ele>393.0</ele><time>2026-04-25T10:26:38Z</time></trkpt><trkpt lat="43.108000167157044" lon="11.602557752237253"><ele>392.0</ele><time>2026-04-25T10:26:39Z</time></trkpt><trkpt lat="43.1079553004976" lon="11.602741537703455"><ele>391.0</ele><time>2026-04-25T10:26:40Z</time></trkpt><trkpt lat="43.10791429225114" lon="11.602902978959863"><ele>390.0</ele><time>2026-04-25T10:26:41Z</time></trkpt><trkpt lat="43.10788050556846" lon="11.603043596803879"><ele>389.0</ele><time>2026-04-25T10:26:42Z</time></trkpt><trkpt lat="43.10784962992075" lon="11.603164997890973"><ele>386.79999999999995</ele><time>2026-04-25T10:26:43Z</time></trkpt><trkpt lat="43.107833111079465" lon="11.603274282813842"><ele>384.59999999999997</ele><time>2026-04-25T10:26:44Z</time></trkpt><trkpt lat="43.10783319696711" lon="11.603379093730567"><ele>382.4</ele><time>2026-04-25T10:26:45Z</time></trkpt><trkpt lat="43.10785050924451" lon="11.603506530754819"><ele>380.2</ele><time>2026-04-25T10:26:46Z</time></trkpt><trkpt lat="43.107884324926275" lon="11.603656277531506"><ele>378.0</ele><time>2026-04-25T10:26:47Z</time></trkpt><trkpt lat="43.10793546707972" lon="11.603819298756518"><ele>376.25</ele><time>2026-04-25T10:26:48Z</time></trkpt><trkpt lat="43.10798976194886" lon="11.603985694280842"><ele>374.5</ele><time>2026-04-25T10:26:49Z</time></trkpt><trkpt lat="43.10803718345076" lon="11.604131246266386"><ele>372.75</ele><time>2026-04-25T10:26:50Z</time></trkpt><trkpt lat="43.10808645693235" lon="11.604272846140537"><ele>371.0</ele><time>2026-04-25T10:26:51Z</time></trkpt><trkpt lat="43.10814006519365" lon="11.604398481545022"><ele>370.20000000000005</ele><time>2026-04-25T10:26:52Z</time></trkpt><trkpt lat="43.10819794027724" lon="11.604498374448402"><ele>369.40000000000003</ele><time>2026-04-25T10:26:53Z</time></trkpt><trkpt lat="43.10824591604738" lon="11.604565858970721"><ele>368.6</ele><time>2026-04-25T10:26:54Z</time></trkpt><trkpt lat="43.10830791709631" lon="11.604617652808091"><ele>367.8</ele><time>2026-04-25T10:26:55Z</time></trkpt><trkpt lat="43.10839742197976" lon="11.604694040836637"><ele>367.0</ele><time>2026-04-25T10:26:56.001Z</time></trkpt><trkpt lat="43.108501259404285" lon="11.604783534838523"><ele>369.25</ele><time>2026-04-25T10:26:57.001Z</time></trkpt><trkpt lat="43.108602917082386" lon="11.604875698032718"><ele>371.5</ele><time>2026-04-25T10:26:58.001Z</time></trkpt><trkpt lat="43.10871053184386" lon="11.60497405854264"><ele>373.75</ele><time>2026-04-25T10:26:59.001Z</time></trkpt><trkpt lat="43.108819512861736" lon="11.605073541745265"><ele>376.0</ele><time>2026-04-25T10:27:00.001Z</time></trkpt><trkpt lat="43.10892989017647" lon="11.60517841438064"><ele>376.0</ele><time>2026-04-25T10:27:01.001Z</time></trkpt><trkpt lat="43.10904149674873" lon="11.605279205333114"><ele>376.0</ele><time>2026-04-25T10:27:02.001Z</time></trkpt><trkpt lat="43.10915496263859" lon="11.605377399836916"><ele>376.0</ele><time>2026-04-25T10:27:03.001Z</time></trkpt><trkpt lat="43.10926476043647" lon="11.605477937693813"><ele>376.0</ele><time>2026-04-25T10:27:04.001Z</time></trkpt><trkpt lat="43.10937602819471" lon="11.605579949534935"><ele>375.75</ele><time>2026-04-25T10:27:05.001Z</time></trkpt><trkpt lat="43.10949129201855" lon="11.605690077976666"><ele>375.5</ele><time>2026-04-25T10:27:06.001Z</time></trkpt><trkpt lat="43.10960587288127" lon="11.605804105507978"><ele>375.25</ele><time>2026-04-25T10:27:07.001Z</time></trkpt><trkpt lat="43.10972391086751" lon="11.6059226289655"><ele>375.0</ele><time>2026-04-25T10:27:08.001Z</time></trkpt><trkpt lat="43.10984235817379" lon="11.606036760428811"><ele>374.25</ele><time>2026-04-25T10:27:09.001Z</time></trkpt><trkpt lat="43.10995832139316" lon="11.606150333149213"><ele>373.5</ele><time>2026-04-25T10:27:10.001Z</time></trkpt><trkpt lat="43.11008021448796" lon="11.606267580795317"><ele>372.75</ele><time>2026-04-25T10:27:11.001Z</time></trkpt><trkpt lat="43.11020325694513" lon="11.606390348741261"><ele>372.0</ele><time>2026-04-25T10:27:12.001Z</time></trkpt><trkpt lat="43.1103139209865" lon="11.606499645379511"><ele>372.0</ele><time>2026-04-25T10:27:13.001Z</time></trkpt><trkpt lat="43.110407815452874" lon="11.606590027745893"><ele>372.0</ele><time>2026-04-25T10:27:14.001Z</time></trkpt><trkpt lat="43.11049140560998" lon="11.606667114666436"><ele>372.0</ele><time>2026-04-25T10:27:15.001Z</time></trkpt><trkpt lat="43.110573036124556" lon="11.6067275151501"><ele>372.0</ele><time>2026-04-25T10:27:16.001Z</time></trkpt><trkpt lat="43.11066576889794" lon="11.606768150644779"><ele>372.0</ele><time>2026-04-25T10:27:17.001Z</time></trkpt><trkpt lat="43.11078165105356" lon="11.606806892253752"><ele>370.5</ele><time>2026-04-25T10:27:18.001Z</time></trkpt><trkpt lat="43.110886283939585" lon="11.606855791848954"><ele>369.0</ele><time>2026-04-25T10:27:19.001Z</time></trkpt><trkpt lat="43.11098781295422" lon="11.606917258058829"><ele>367.5</ele><time>2026-04-25T10:27:20.001Z</time></trkpt><trkpt lat="43.11108488926051" lon="11.60700061401602"><ele>366.0</ele><time>2026-04-25T10:27:21.001Z</time></trkpt><trkpt lat="43.111186018775996" lon="11.607086715379562"><ele>365.75</ele><time>2026-04-25T10:27:22.001Z</time></trkpt><trkpt lat="43.11128072145393" lon="11.607179433321553"><ele>365.5</ele><time>2026-04-25T10:27:23.001Z</time></trkpt><trkpt lat="43.11137017513828" lon="11.60727765598488"><ele>365.25</ele><time>2026-04-25T10:27:24.001Z</time></trkpt><trkpt lat="43.11146374200362" lon="11.607365991993529"><ele>365.0</ele><time>2026-04-25T10:27:25.001Z</time></trkpt><trkpt lat="43.11156277557852" lon="11.607458213201014"><ele>367.25</ele><time>2026-04-25T10:27:26.001Z</time></trkpt><trkpt lat="43.111662597612614" lon="11.607551139022119"><ele>369.5</ele><time>2026-04-25T10:27:27.001Z</time></trkpt><trkpt lat="43.11175683671167" lon="11.607634112643595"><ele>371.75</ele><time>2026-04-25T10:27:28.001Z</time></trkpt><trkpt lat="43.111852453004644" lon="11.607714678813524"><ele>374.0</ele><time>2026-04-25T10:27:29.001Z</time></trkpt><trkpt lat="43.11195567576017" lon="11.607799171229065"><ele>371.75</ele><time>2026-04-25T10:27:30.001Z</time></trkpt><trkpt lat="43.11206663822003" lon="11.607890634821741"><ele>369.5</ele><time>2026-04-25T10:27:31.001Z</time></trkpt><trkpt lat="43.11217644357832" lon="11.60798855297454"><ele>367.25</ele><time>2026-04-25T10:27:32.002Z</time></trkpt><trkpt lat="43.112281849988456" lon="11.608093732534101"><ele>365.0</ele><time>2026-04-25T10:27:33.002Z</time></trkpt><trkpt lat="43.112388058994206" lon="11.608205204014686"><ele>365.0</ele><time>2026-04-25T10:27:34.002Z</time></trkpt><trkpt lat="43.11249090229751" lon="11.608313672012065"><ele>365.0</ele><time>2026-04-25T10:27:35.002Z</time></trkpt><trkpt lat="43.1125903184224" lon="11.608418797681608"><ele>365.0</ele><time>2026-04-25T10:27:36.002Z</time></trkpt><trkpt lat="43.112684846030895" lon="11.608525370714105"><ele>365.0</ele><time>2026-04-25T10:27:37.002Z</time></trkpt><trkpt lat="43.112773450070215" lon="11.608638933774275"><ele>363.75</ele><time>2026-04-25T10:27:38.002Z</time></trkpt><trkpt lat="43.1128565135287" lon="11.608757248707317"><ele>362.5</ele><time>2026-04-25T10:27:39.002Z</time></trkpt><trkpt lat="43.11293047457137" lon="11.608883088924788"><ele>361.25</ele><time>2026-04-25T10:27:40.002Z</time></trkpt><trkpt lat="43.11299691239254" lon="11.609012341109427"><ele>360.0</ele><time>2026-04-25T10:27:41.002Z</time></trkpt><trkpt lat="43.11306367081071" lon="11.609150368175557"><ele>360.0</ele><time>2026-04-25T10:27:42.002Z</time></trkpt><trkpt lat="43.11312846194981" lon="11.60929149049294"><ele>360.0</ele><time>2026-04-25T10:27:43.002Z</time></trkpt><trkpt lat="43.11318524105216" lon="11.609437997755071"><ele>360.0</ele><time>2026-04-25T10:27:44.002Z</time></trkpt><trkpt lat="43.11323280711009" lon="11.60958490107185"><ele>360.0</ele><time>2026-04-25T10:27:45.002Z</time></trkpt><trkpt lat="43.1132780876043" lon="11.609724303423942"><ele>361.8</ele><time>2026-04-25T10:27:46.002Z</time></trkpt><trkpt lat="43.11332023365765" lon="11.609849850437907"><ele>363.6</ele><time>2026-04-25T10:27:47.002Z</time></trkpt><trkpt lat="43.113367262765415" lon="11.609971836459676"><ele>365.4</ele><time>2026-04-25T10:27:48.002Z</time></trkpt><trkpt lat="43.113413310620665" lon="11.610079933590654"><ele>367.2</ele><time>2026-04-25T10:27:49.002Z</time></trkpt><trkpt lat="43.113459495841816" lon="11.610171160582311"><ele>369.0</ele><time>2026-04-25T10:27:50.002Z</time></trkpt><trkpt lat="43.11351196290054" lon="11.610261035485804"><ele>367.25</ele><time>2026-04-25T10:27:51.002Z</time></trkpt><trkpt lat="43.11356728262989" lon="11.610357179847252"><ele>365.5</ele><time>2026-04-25T10:27:52.002Z</time></trkpt><trkpt lat="43.11363290654293" lon="11.610485758151851"><ele>363.75</ele><time>2026-04-25T10:27:53.002Z</time></trkpt><trkpt lat="43.11370898455094" lon="11.610630200715914"><ele>362.0</ele><time>2026-04-25T10:27:54.002Z</time></trkpt><trkpt lat="43.113773982197195" lon="11.61076116258056"><ele>362.0</ele><time>2026-04-25T10:27:55.002Z</time></trkpt><trkpt lat="43.113834535186754" lon="11.610879817814943"><ele>362.0</ele><time>2026-04-25T10:27:56.002Z</time></trkpt><trkpt lat="43.11389562804127" lon="11.610993209279753"><ele>362.0</ele><time>2026-04-25T10:27:57.002Z</time></trkpt><trkpt lat="43.113958367694664" lon="11.611091217917638"><ele>362.0</ele><time>2026-04-25T10:27:58.002Z</time></trkpt><trkpt lat="43.11402233245304" lon="11.611167930816165"><ele>362.0</ele><time>2026-04-25T10:27:59.002Z</time></trkpt><trkpt lat="43.11409855933213" lon="11.611239540997586"><ele>363.20000000000005</ele><time>2026-04-25T10:28:00.002Z</time></trkpt><trkpt lat="43.11418058942807" lon="11.611315966381792"><ele>364.4</ele><time>2026-04-25T10:28:01.002Z</time></trkpt><trkpt lat="43.11426239243882" lon="11.611401395418278"><ele>365.6</ele><time>2026-04-25T10:28:02.002Z</time></trkpt><trkpt lat="43.11433380193173" lon="11.611502579759463"><ele>366.79999999999995</ele><time>2026-04-25T10:28:03.002Z</time></trkpt><trkpt lat="43.114400384654985" lon="11.611612825742256"><ele>368.0</ele><time>2026-04-25T10:28:04.002Z</time></trkpt><trkpt lat="43.11447036856986" lon="11.611732831783744"><ele>368.0</ele><time>2026-04-25T10:28:05.002Z</time></trkpt><trkpt lat="43.11452668138303" lon="11.611844903725554"><ele>368.0</ele><time>2026-04-25T10:28:06.002Z</time></trkpt><trkpt lat="43.11457674303526" lon="11.611952835412097"><ele>368.0</ele><time>2026-04-25T10:28:07.002Z</time></trkpt><trkpt lat="43.11462178226978" lon="11.612076549320088"><ele>368.0</ele><time>2026-04-25T10:28:08.002Z</time></trkpt><trkpt lat="43.11465527569125" lon="11.6122187637507"><ele>368.0</ele><time>2026-04-25T10:28:09.002Z</time></trkpt><trkpt lat="43.11468464103603" lon="11.612360424179847"><ele>368.4</ele><time>2026-04-25T10:28:10.002Z</time></trkpt><trkpt lat="43.1147103302641" lon="11.612492601979245"><ele>368.79999999999995</ele><time>2026-04-25T10:28:11.002Z</time></trkpt><trkpt lat="43.11474381916688" lon="11.612621643071192"><ele>369.2</ele><time>2026-04-25T10:28:12.003Z</time></trkpt><trkpt lat="43.114788182501314" lon="11.612742332534712"><ele>369.6</ele><time>2026-04-25T10:28:13.003Z</time></trkpt><trkpt lat="43.114849078834276" lon="11.612862320423211"><ele>370.0</ele><time>2026-04-25T10:28:14.003Z</time></trkpt><trkpt lat="43.11492943038256" lon="11.61299156262178"><ele>370.0</ele><time>2026-04-25T10:28:15.003Z</time></trkpt><trkpt lat="43.11502227425075" lon="11.613127210369939"><ele>370.0</ele><time>2026-04-25T10:28:16.003Z</time></trkpt><trkpt lat="43.11511274445486" lon="11.613272254556751"><ele>370.0</ele><time>2026-04-25T10:28:17.003Z</time></trkpt><trkpt lat="43.115204702952" lon="11.61341417980912"><ele>370.0</ele><time>2026-04-25T10:28:18.003Z</time></trkpt><trkpt lat="43.115284104200235" lon="11.613546130892807"><ele>368.75</ele><time>2026-04-25T10:28:19.003Z</time></trkpt><trkpt lat="43.11536091204241" lon="11.61367125086252"><ele>367.5</ele><time>2026-04-25T10:28:20.003Z</time></trkpt><trkpt lat="43.1154413094091" lon="11.613784646951435"><ele>366.25</ele><time>2026-04-25T10:28:21.003Z</time></trkpt><trkpt lat="43.11553301081209" lon="11.613893225909576"><ele>365.0</ele><time>2026-04-25T10:28:22.003Z</time></trkpt><trkpt lat="43.115632998847744" lon="11.61399312615883"><ele>365.0</ele><time>2026-04-25T10:28:23.003Z</time></trkpt><trkpt lat="43.11572811679408" lon="11.614080914184568"><ele>365.0</ele><time>2026-04-25T10:28:23.998Z</time></trkpt><trkpt lat="43.11581367436418" lon="11.614165278505531"><ele>365.0</ele><time>2026-04-25T10:28:24.999Z</time></trkpt><trkpt lat="43.11589668926728" lon="11.614260862454088"><ele>365.0</ele><time>2026-04-25T10:28:25.999Z</time></trkpt><trkpt lat="43.11596515012038" lon="11.614370839082579"><ele>365.0</ele><time>2026-04-25T10:28:26.999Z</time></trkpt><trkpt lat="43.116020252415034" lon="11.614498257202886"><ele>368.0</ele><time>2026-04-25T10:28:27.999Z</time></trkpt><trkpt lat="43.116061432677455" lon="11.614637208549217"><ele>371.0</ele><time>2026-04-25T10:28:28.999Z</time></trkpt><trkpt lat="43.116086731384286" lon="11.614788237378752"><ele>374.0</ele><time>2026-04-25T10:28:29.999Z</time></trkpt><trkpt lat="43.11609709280937" lon="11.61494947137967"><ele>377.0</ele><time>2026-04-25T10:28:30.999Z</time></trkpt><trkpt lat="43.116098909705414" lon="11.615102208897635"><ele>377.0</ele><time>2026-04-25T10:28:31.999Z</time></trkpt><trkpt lat="43.11609875438917" lon="11.615238630562596"><ele>377.0</ele><time>2026-04-25T10:28:32.999Z</time></trkpt><trkpt lat="43.11609693139413" lon="11.615373702662785"><ele>377.0</ele><time>2026-04-25T10:28:33.999Z</time></trkpt><trkpt lat="43.11609356224255" lon="11.615508845241873"><ele>377.0</ele><time>2026-04-25T10:28:34.999Z</time></trkpt><trkpt lat="43.116088917406465" lon="11.615634089872163"><ele>377.0</ele><time>2026-04-25T10:28:35.999Z</time></trkpt><trkpt lat="43.11608145412815" lon="11.61575166150715"><ele>377.33333333333337</ele><time>2026-04-25T10:28:36.999Z</time></trkpt><trkpt lat="43.11607229645983" lon="11.615870618068662"><ele>377.6666666666667</ele><time>2026-04-25T10:28:37.999Z</time></trkpt><trkpt lat="43.11606040516529" lon="11.615980043947161"><ele>378.0</ele><time>2026-04-25T10:28:38.999Z</time></trkpt><trkpt lat="43.116040628248854" lon="11.616076471094589"><ele>378.3333333333333</ele><time>2026-04-25T10:28:39.999Z</time></trkpt><trkpt lat="43.116015433637926" lon="11.616166964189443"><ele>378.66666666666663</ele><time>2026-04-25T10:28:41Z</time></trkpt><trkpt lat="43.11598498888151" lon="11.61626074872773"><ele>379.0</ele><time>2026-04-25T10:28:42Z</time></trkpt><trkpt lat="43.115947394934516" lon="11.61635043561045"><ele>379.4</ele><time>2026-04-25T10:28:43Z</time></trkpt><trkpt lat="43.11590529253632" lon="11.616442983969893"><ele>379.79999999999995</ele><time>2026-04-25T10:28:44Z</time></trkpt><trkpt lat="43.115861272394994" lon="11.616543153487248"><ele>380.20000000000005</ele><time>2026-04-25T10:28:45Z</time></trkpt><trkpt lat="43.11581844089705" lon="11.61665190171091"><ele>380.6</ele><time>2026-04-25T10:28:46Z</time></trkpt><trkpt lat="43.115766010126165" lon="11.616765853635265"><ele>381.0</ele><time>2026-04-25T10:28:47Z</time></trkpt><trkpt lat="43.115705422103844" lon="11.616890231240598"><ele>381.25</ele><time>2026-04-25T10:28:48Z</time></trkpt><trkpt lat="43.115633777663014" lon="11.6170428983498"><ele>381.5</ele><time>2026-04-25T10:28:49Z</time></trkpt><trkpt lat="43.11555397567397" lon="11.617226758983616"><ele>381.75</ele><time>2026-04-25T10:28:50Z</time></trkpt><trkpt lat="43.11547581188457" lon="11.617407153897638"><ele>382.0</ele><time>2026-04-25T10:28:51Z</time></trkpt><trkpt lat="43.1154028941986" lon="11.617570507318328"><ele>382.0</ele><time>2026-04-25T10:28:52Z</time></trkpt><trkpt lat="43.11534253398264" lon="11.617715300332824"><ele>382.0</ele><time>2026-04-25T10:28:53Z</time></trkpt><trkpt lat="43.11528881724613" lon="11.617852926910718"><ele>382.0</ele><time>2026-04-25T10:28:54Z</time></trkpt><trkpt lat="43.11524445506971" lon="11.617979322791564"><ele>382.0</ele><time>2026-04-25T10:28:55Z</time></trkpt><trkpt lat="43.11521374206894" lon="11.618086718917109"><ele>382.0</ele><time>2026-04-25T10:28:56Z</time></trkpt><trkpt lat="43.11519052572467" lon="11.618175907997102"><ele>383.16666666666663</ele><time>2026-04-25T10:28:57Z</time></trkpt><trkpt lat="43.11516907518261" lon="11.618304566596938"><ele>384.3333333333333</ele><time>2026-04-25T10:28:59Z</time></trkpt><trkpt lat="43.115159279027196" lon="11.618390885194263"><ele>385.5</ele><time>2026-04-25T10:29:01.001Z</time></trkpt><trkpt lat="43.115204937618316" lon="11.618467774449803"><ele>386.66666666666663</ele><time>2026-04-25T10:29:04.001Z</time></trkpt><trkpt lat="43.11529142376571" lon="11.618523547268618"><ele>387.8333333333333</ele><time>2026-04-25T10:29:12.001Z</time></trkpt><trkpt lat="43.11539590182992" lon="11.618569669147043"><ele>389.0</ele><time>2026-04-25T10:29:14.001Z</time></trkpt><trkpt lat="43.11549569691499" lon="11.61859432265172"><ele>388.99999999999994</ele><time>2026-04-25T10:29:16.001Z</time></trkpt><trkpt lat="43.11559070420418" lon="11.618610662295943"><ele>389.0</ele><time>2026-04-25T10:29:18.001Z</time></trkpt><trkpt lat="43.115673972567095" lon="11.618621385219479"><ele>389.0</ele><time>2026-04-25T10:29:20.001Z</time></trkpt><trkpt lat="43.11579025373877" lon="11.61861888837141"><ele>389.0</ele><time>2026-04-25T10:29:22.001Z</time></trkpt><trkpt lat="43.11586868714036" lon="11.618629977218935"><ele>388.99999999999994</ele><time>2026-04-25T10:29:23.001Z</time></trkpt><trkpt lat="43.115933175283295" lon="11.618634367808431"><ele>389.0</ele><time>2026-04-25T10:29:24.001Z</time></trkpt><trkpt lat="43.11599988717252" lon="11.618631887794823"><ele>388.4</ele><time>2026-04-25T10:29:25.001Z</time></trkpt><trkpt lat="43.116134350661305" lon="11.618594063653774"><ele>387.79999999999995</ele><time>2026-04-25T10:29:27.002Z</time></trkpt><trkpt lat="43.11622220154273" lon="11.618557735746332"><ele>387.20000000000005</ele><time>2026-04-25T10:29:28.001Z</time></trkpt><trkpt lat="43.11632284973767" lon="11.618522253002578"><ele>386.6</ele><time>2026-04-25T10:29:29.002Z</time></trkpt><trkpt lat="43.11642125271788" lon="11.61849171680109"><ele>386.0</ele><time>2026-04-25T10:29:30.002Z</time></trkpt><trkpt lat="43.116515181878576" lon="11.618468418353967"><ele>384.4</ele><time>2026-04-25T10:29:31.002Z</time></trkpt><trkpt lat="43.11660715035689" lon="11.618451955863168"><ele>382.8</ele><time>2026-04-25T10:29:32.002Z</time></trkpt><trkpt lat="43.11669528781565" lon="11.618445598833263"><ele>381.2</ele><time>2026-04-25T10:29:33.002Z</time></trkpt><trkpt lat="43.11678313412057" lon="11.618445858532423"><ele>379.59999999999997</ele><time>2026-04-25T10:29:34.002Z</time></trkpt><trkpt lat="43.116877090640145" lon="11.618451913469464"><ele>378.0</ele><time>2026-04-25T10:29:35.002Z</time></trkpt><trkpt lat="43.11697641826693" lon="11.618460745236273"><ele>378.0</ele><time>2026-04-25T10:29:36.002Z</time></trkpt><trkpt lat="43.117068631838144" lon="11.618469792380568"><ele>378.0</ele><time>2026-04-25T10:29:37.002Z</time></trkpt><trkpt lat="43.1171595534582" lon="11.618479832983864"><ele>378.0</ele><time>2026-04-25T10:29:38.002Z</time></trkpt><trkpt lat="43.11725420951159" lon="11.618491002924356"><ele>378.0</ele><time>2026-04-25T10:29:39.002Z</time></trkpt><trkpt lat="43.11735525923519" lon="11.618504695153002"><ele>378.0</ele><time>2026-04-25T10:29:40.002Z</time></trkpt><trkpt lat="43.11745970286313" lon="11.618515567987876"><ele>377.0</ele><time>2026-04-25T10:29:41.002Z</time></trkpt><trkpt lat="43.117565219394955" lon="11.6185271537259"><ele>376.0</ele><time>2026-04-25T10:29:42.002Z</time></trkpt><trkpt lat="43.11766029074757" lon="11.618533272007737"><ele>375.0</ele><time>2026-04-25T10:29:43.002Z</time></trkpt><trkpt lat="43.11775442086421" lon="11.618534586427884"><ele>374.0</ele><time>2026-04-25T10:29:44.002Z</time></trkpt><trkpt lat="43.117861636007675" lon="11.61853208235449"><ele>373.0</ele><time>2026-04-25T10:29:45.002Z</time></trkpt><trkpt lat="43.1179695724444" lon="11.61853492836041"><ele>373.0</ele><time>2026-04-25T10:29:46.002Z</time></trkpt><trkpt lat="43.11808398724295" lon="11.618539714724655"><ele>373.0</ele><time>2026-04-25T10:29:47.002Z</time></trkpt><trkpt lat="43.118202101483426" lon="11.61854446492355"><ele>373.0</ele><time>2026-04-25T10:29:48.002Z</time></trkpt><trkpt lat="43.118325830257206" lon="11.618547138562729"><ele>373.0</ele><time>2026-04-25T10:29:49.002Z</time></trkpt><trkpt lat="43.11846065406566" lon="11.61855113817803"><ele>372.5</ele><time>2026-04-25T10:29:50.002Z</time></trkpt><trkpt lat="43.11859908740461" lon="11.618560280622672"><ele>372.0</ele><time>2026-04-25T10:29:51.002Z</time></trkpt><trkpt lat="43.11873591557415" lon="11.618568001192946"><ele>371.5</ele><time>2026-04-25T10:29:52.002Z</time></trkpt><trkpt lat="43.118870220737136" lon="11.618577669936245"><ele>371.0</ele><time>2026-04-25T10:29:53.002Z</time></trkpt><trkpt lat="43.11900526547666" lon="11.618594163079031"><ele>370.5</ele><time>2026-04-25T10:29:54.002Z</time></trkpt><trkpt lat="43.11914057580427" lon="11.618617111729941"><ele>370.0</ele><time>2026-04-25T10:29:55.002Z</time></trkpt><trkpt lat="43.1192791226426" lon="11.61863693782523"><ele>369.5</ele><time>2026-04-25T10:29:56.002Z</time></trkpt><trkpt lat="43.119418980368756" lon="11.61865238050664"><ele>369.0</ele><time>2026-04-25T10:29:57.002Z</time></trkpt><trkpt lat="43.11957122694126" lon="11.618667417696528"><ele>369.0</ele><time>2026-04-25T10:29:58.002Z</time></trkpt><trkpt lat="43.11972456621124" lon="11.618676326713047"><ele>369.0</ele><time>2026-04-25T10:29:59.002Z</time></trkpt><trkpt lat="43.11987524836686" lon="11.618687017112762"><ele>369.0</ele><time>2026-04-25T10:30:00.002Z</time></trkpt><trkpt lat="43.12002277730952" lon="11.618696840540776"><ele>370.5</ele><time>2026-04-25T10:30:01.003Z</time></trkpt><trkpt lat="43.12016332293373" lon="11.618713732810265"><ele>372.0</ele><time>2026-04-25T10:30:02.003Z</time></trkpt><trkpt lat="43.120289421270584" lon="11.61872844589565"><ele>373.5</ele><time>2026-04-25T10:30:03.003Z</time></trkpt><trkpt lat="43.12039880442221" lon="11.618743426654428"><ele>375.0</ele><time>2026-04-25T10:30:04.003Z</time></trkpt><trkpt lat="43.12049107529264" lon="11.618752389005422"><ele>375.0</ele><time>2026-04-25T10:30:05.003Z</time></trkpt><trkpt lat="43.120577485829656" lon="11.618747962923491"><ele>375.0</ele><time>2026-04-25T10:30:06.003Z</time></trkpt><trkpt lat="43.12067914465006" lon="11.618725527789444"><ele>375.0</ele><time>2026-04-25T10:30:07.003Z</time></trkpt><trkpt lat="43.120777644216155" lon="11.618680029846178"><ele>375.0</ele><time>2026-04-25T10:30:08.003Z</time></trkpt><trkpt lat="43.120872591193184" lon="11.618616190727419"><ele>375.0</ele><time>2026-04-25T10:30:09.003Z</time></trkpt><trkpt lat="43.12097171050053" lon="11.618520258047338"><ele>376.25</ele><time>2026-04-25T10:30:10.003Z</time></trkpt><trkpt lat="43.12107478128518" lon="11.618409040246727"><ele>377.5</ele><time>2026-04-25T10:30:11.003Z</time></trkpt><trkpt lat="43.12118782752041" lon="11.618282596815085"><ele>378.75</ele><time>2026-04-25T10:30:12.003Z</time></trkpt><trkpt lat="43.12131350268381" lon="11.618146414339131"><ele>380.0</ele><time>2026-04-25T10:30:13.003Z</time></trkpt><trkpt lat="43.12142804201131" lon="11.618029406236166"><ele>380.0</ele><time>2026-04-25T10:30:14.003Z</time></trkpt><trkpt lat="43.12153738964869" lon="11.617916452255248"><ele>380.0</ele><time>2026-04-25T10:30:15.003Z</time></trkpt><trkpt lat="43.12164585148287" lon="11.617802804883267"><ele>380.0</ele><time>2026-04-25T10:30:16.003Z</time></trkpt><trkpt lat="43.12174568839457" lon="11.61769507033514"><ele>380.0</ele><time>2026-04-25T10:30:17.003Z</time></trkpt><trkpt lat="43.12183904400142" lon="11.617600186590348"><ele>380.6</ele><time>2026-04-25T10:30:18.003Z</time></trkpt><trkpt lat="43.12192958970601" lon="11.617514082453914"><ele>381.2</ele><time>2026-04-25T10:30:19.003Z</time></trkpt><trkpt lat="43.12201482968245" lon="11.617428428357792"><ele>381.79999999999995</ele><time>2026-04-25T10:30:20.003Z</time></trkpt><trkpt lat="43.12209664895439" lon="11.617343615692935"><ele>382.4</ele><time>2026-04-25T10:30:21.003Z</time></trkpt><trkpt lat="43.12217570003538" lon="11.617264949940711"><ele>383.0</ele><time>2026-04-25T10:30:22.003Z</time></trkpt><trkpt lat="43.122256270443756" lon="11.617187242566445"><ele>383.0</ele><time>2026-04-25T10:30:23.003Z</time></trkpt><trkpt lat="43.12232859941861" lon="11.617116785508195"><ele>383.0</ele><time>2026-04-25T10:30:24.003Z</time></trkpt><trkpt lat="43.12239232524713" lon="11.617043960815352"><ele>383.0</ele><time>2026-04-25T10:30:25.003Z</time></trkpt><trkpt lat="43.12245387335485" lon="11.616972971785197"><ele>383.0</ele><time>2026-04-25T10:30:26.003Z</time></trkpt><trkpt lat="43.12251711763015" lon="11.616891089484664"><ele>383.0</ele><time>2026-04-25T10:30:27.003Z</time></trkpt><trkpt lat="43.1225810534645" lon="11.616800632189891"><ele>383.0</ele><time>2026-04-25T10:30:28.003Z</time></trkpt><trkpt lat="43.12264727311398" lon="11.616701666581122"><ele>381.2</ele><time>2026-04-25T10:30:29.003Z</time></trkpt><trkpt lat="43.12270942759226" lon="11.616601677146143"><ele>379.4</ele><time>2026-04-25T10:30:29.999Z</time></trkpt><trkpt lat="43.12276220907489" lon="11.6165084024812"><ele>377.59999999999997</ele><time>2026-04-25T10:30:30.999Z</time></trkpt><trkpt lat="43.12281615288966" lon="11.616407386086495"><ele>375.79999999999995</ele><time>2026-04-25T10:30:31.999Z</time></trkpt><trkpt lat="43.12286753519185" lon="11.616306807714327"><ele>374.0</ele><time>2026-04-25T10:30:32.999Z</time></trkpt><trkpt lat="43.12292054646744" lon="11.616197435077137"><ele>373.25</ele><time>2026-04-25T10:30:33.999Z</time></trkpt><trkpt lat="43.122972485264924" lon="11.616072161460648"><ele>372.5</ele><time>2026-04-25T10:30:34.999Z</time></trkpt><trkpt lat="43.12303336011505" lon="11.615919624602629"><ele>371.75</ele><time>2026-04-25T10:30:35.999Z</time></trkpt><trkpt lat="43.12310490142203" lon="11.615752126777007"><ele>371.0</ele><time>2026-04-25T10:30:36.999Z</time></trkpt><trkpt lat="43.12318236382161" lon="11.615584392169197"><ele>372.0</ele><time>2026-04-25T10:30:37.999Z</time></trkpt><trkpt lat="43.123271498414894" lon="11.615415471161736"><ele>373.0</ele><time>2026-04-25T10:30:38.999Z</time></trkpt><trkpt lat="43.1233633965093" lon="11.615252398508874"><ele>374.0</ele><time>2026-04-25T10:30:39.999Z</time></trkpt><trkpt lat="43.123453432256916" lon="11.615102752529959"><ele>375.0</ele><time>2026-04-25T10:30:40.999Z</time></trkpt><trkpt lat="43.12354137165203" lon="11.614959069608778"><ele>376.75</ele><time>2026-04-25T10:30:41.999Z</time></trkpt><trkpt lat="43.12362164926823" lon="11.614831154504223"><ele>378.5</ele><time>2026-04-25T10:30:42.999Z</time></trkpt><trkpt lat="43.12369984948195" lon="11.614720505439946"><ele>380.25</ele><time>2026-04-25T10:30:43.999Z</time></trkpt><trkpt lat="43.123783647163066" lon="11.614620580889984"><ele>382.0</ele><time>2026-04-25T10:30:45Z</time></trkpt><trkpt lat="43.12387623954841" lon="11.61453177726858"><ele>383.5</ele><time>2026-04-25T10:30:46Z</time></trkpt><trkpt lat="43.123980176344425" lon="11.614457577435608"><ele>385.0</ele><time>2026-04-25T10:30:47Z</time></trkpt><trkpt lat="43.124083400201215" lon="11.614399231743759"><ele>386.5</ele><time>2026-04-25T10:30:48Z</time></trkpt><trkpt lat="43.124189838146144" lon="11.61434785991103"><ele>388.0</ele><time>2026-04-25T10:30:49Z</time></trkpt><trkpt lat="43.12429778383274" lon="11.614309134824953"><ele>388.2</ele><time>2026-04-25T10:30:50Z</time></trkpt><trkpt lat="43.12441274624815" lon="11.614283889213716"><ele>388.4</ele><time>2026-04-25T10:30:51Z</time></trkpt><trkpt lat="43.124522457625005" lon="11.61426329277383"><ele>388.59999999999997</ele><time>2026-04-25T10:30:52Z</time></trkpt><trkpt lat="43.12462394271785" lon="11.614239412293843"><ele>388.79999999999995</ele><time>2026-04-25T10:30:53Z</time></trkpt><trkpt lat="43.124721365117416" lon="11.614220971393433"><ele>389.0</ele><time>2026-04-25T10:30:54Z</time></trkpt><trkpt lat="43.124813991903444" lon="11.614212638358177"><ele>387.6</ele><time>2026-04-25T10:30:55Z</time></trkpt><trkpt lat="43.1249127513534" lon="11.614219441982923"><ele>386.2</ele><time>2026-04-25T10:30:56Z</time></trkpt><trkpt lat="43.125011506775806" lon="11.614251543781197"><ele>384.8</ele><time>2026-04-25T10:30:57Z</time></trkpt><trkpt lat="43.12512264974749" lon="11.614296438474764"><ele>383.40000000000003</ele><time>2026-04-25T10:30:58Z</time></trkpt><trkpt lat="43.12523889805605" lon="11.61435372037443"><ele>382.0</ele><time>2026-04-25T10:30:59Z</time></trkpt><trkpt lat="43.12535182942632" lon="11.614418159907617"><ele>382.0</ele><time>2026-04-25T10:31:00Z</time></trkpt><trkpt lat="43.12546628779128" lon="11.614478763677957"><ele>382.0</ele><time>2026-04-25T10:31:01Z</time></trkpt><trkpt lat="43.12557990825883" lon="11.61452278994398"><ele>382.0</ele><time>2026-04-25T10:31:02Z</time></trkpt><trkpt lat="43.12569300552779" lon="11.614545572849659"><ele>382.0</ele><time>2026-04-25T10:31:03Z</time></trkpt><trkpt lat="43.125807462672704" lon="11.61454384515188"><ele>381.25</ele><time>2026-04-25T10:31:04Z</time></trkpt><trkpt lat="43.12592732252318" lon="11.614519842219067"><ele>380.5</ele><time>2026-04-25T10:31:05Z</time></trkpt><trkpt lat="43.12604743043185" lon="11.61449386681102"><ele>379.75</ele><time>2026-04-25T10:31:06.001Z</time></trkpt><trkpt lat="43.12616015745554" lon="11.614474600570945"><ele>379.0</ele><time>2026-04-25T10:31:07.001Z</time></trkpt><trkpt lat="43.126253475790755" lon="11.614460722914194"><ele>379.0</ele><time>2026-04-25T10:31:08.001Z</time></trkpt><trkpt lat="43.12634852457235" lon="11.614443959158654"><ele>379.0</ele><time>2026-04-25T10:31:09.001Z</time></trkpt><trkpt lat="43.12644167005701" lon="11.61443360341727"><ele>379.0</ele><time>2026-04-25T10:31:10.001Z</time></trkpt><trkpt lat="43.12654054226134" lon="11.614426983113495"><ele>379.0</ele><time>2026-04-25T10:31:11.001Z</time></trkpt><trkpt lat="43.12664574933656" lon="11.614420414783499"><ele>379.0</ele><time>2026-04-25T10:31:12.001Z</time></trkpt><trkpt lat="43.12675868991775" lon="11.614412785909229"><ele>378.79999999999995</ele><time>2026-04-25T10:31:13.001Z</time></trkpt><trkpt lat="43.1268712889165" lon="11.614403618369218"><ele>378.59999999999997</ele><time>2026-04-25T10:31:14.001Z</time></trkpt><trkpt lat="43.12697665003355" lon="11.614393489066213"><ele>378.4</ele><time>2026-04-25T10:31:15.001Z</time></trkpt><trkpt lat="43.12707082717963" lon="11.614379441699162"><ele>378.2</ele><time>2026-04-25T10:31:16.001Z</time></trkpt><trkpt lat="43.127156392108354" lon="11.61436025200038"><ele>378.0</ele><time>2026-04-25T10:31:17.001Z</time></trkpt><trkpt lat="43.12723925968449" lon="11.61432912778991"><ele>378.0</ele><time>2026-04-25T10:31:18.001Z</time></trkpt><trkpt lat="43.127319789814415" lon="11.614279045600234"><ele>378.0</ele><time>2026-04-25T10:31:19.001Z</time></trkpt><trkpt lat="43.12738811080202" lon="11.614217798386019"><ele>378.0</ele><time>2026-04-25T10:31:20.001Z</time></trkpt><trkpt lat="43.12744255461567" lon="11.614151440996626"><ele>378.0</ele><time>2026-04-25T10:31:21.001Z</time></trkpt><trkpt lat="43.12749409506534" lon="11.61409245265064"><ele>378.0</ele><time>2026-04-25T10:31:22.001Z</time></trkpt><trkpt lat="43.127543408119294" lon="11.614013729563295"><ele>378.0</ele><time>2026-04-25T10:31:23.001Z</time></trkpt><trkpt lat="43.12760109797904" lon="11.613913791160895"><ele>377.4</ele><time>2026-04-25T10:31:24.001Z</time></trkpt><trkpt lat="43.12766601015386" lon="11.613807501713504"><ele>376.79999999999995</ele><time>2026-04-25T10:31:25.001Z</time></trkpt><trkpt lat="43.12773480625382" lon="11.613716044784299"><ele>376.2</ele><time>2026-04-25T10:31:26.001Z</time></trkpt><trkpt lat="43.12779738112257" lon="11.61362967675204"><ele>375.6</ele><time>2026-04-25T10:31:27.001Z</time></trkpt><trkpt lat="43.127864785870706" lon="11.613545094481978"><ele>375.0</ele><time>2026-04-25T10:31:28.001Z</time></trkpt><trkpt lat="43.12794165423867" lon="11.613463625502396"><ele>373.75</ele><time>2026-04-25T10:31:29.001Z</time></trkpt><trkpt lat="43.128115446241566" lon="11.61332212472923"><ele>372.5</ele><time>2026-04-25T10:31:31.001Z</time></trkpt><trkpt lat="43.1282117627656" lon="11.61325499841279"><ele>371.25</ele><time>2026-04-25T10:31:32.001Z</time></trkpt><trkpt lat="43.12830721550844" lon="11.613190544815152"><ele>370.0</ele><time>2026-04-25T10:31:33.001Z</time></trkpt><trkpt lat="43.128398731145104" lon="11.613127058831846"><ele>369.6</ele><time>2026-04-25T10:31:34.001Z</time></trkpt><trkpt lat="43.128490241901595" lon="11.613069124139136"><ele>369.2</ele><time>2026-04-25T10:31:35.002Z</time></trkpt><trkpt lat="43.12857337429258" lon="11.613007818358431"><ele>368.79999999999995</ele><time>2026-04-25T10:31:36.002Z</time></trkpt><trkpt lat="43.12864875958048" lon="11.612952220270895"><ele>368.4</ele><time>2026-04-25T10:31:37.002Z</time></trkpt><trkpt lat="43.12871288128034" lon="11.612901805911202"><ele>368.0</ele><time>2026-04-25T10:31:38.002Z</time></trkpt><trkpt lat="43.12879267258288" lon="11.612765040886119"><ele>366.25</ele><time>2026-04-25T10:31:40.002Z</time></trkpt><trkpt lat="43.128813232665074" lon="11.612662833239066"><ele>364.5</ele><time>2026-04-25T10:31:41.002Z</time></trkpt><trkpt lat="43.12881792604925" lon="11.612527241426173"><ele>362.75</ele><time>2026-04-25T10:31:42.002Z</time></trkpt><trkpt lat="43.12881571228022" lon="11.612356174348536"><ele>361.0</ele><time>2026-04-25T10:31:43.002Z</time></trkpt><trkpt lat="43.12881277459517" lon="11.612140243982298"><ele>358.66666666666663</ele><time>2026-04-25T10:31:44.002Z</time></trkpt><trkpt lat="43.1288176017767" lon="11.611902734324996"><ele>356.3333333333333</ele><time>2026-04-25T10:31:45.002Z</time></trkpt><trkpt lat="43.12882936183185" lon="11.611630687393077"><ele>354.0</ele><time>2026-04-25T10:31:46.002Z</time></trkpt><trkpt lat="43.12884206040095" lon="11.61138262394313"><ele>353.3333333333333</ele><time>2026-04-25T10:31:47.002Z</time></trkpt><trkpt lat="43.128856436151516" lon="11.611143385047248"><ele>352.66666666666663</ele><time>2026-04-25T10:31:48.002Z</time></trkpt><trkpt lat="43.12886557689468" lon="11.61093258799988"><ele>352.0</ele><time>2026-04-25T10:31:49.002Z</time></trkpt><trkpt lat="43.12887294728696" lon="11.610756027794572"><ele>352.0</ele><time>2026-04-25T10:31:50.002Z</time></trkpt><trkpt lat="43.12887530152932" lon="11.610608075921915"><ele>352.0</ele><time>2026-04-25T10:31:51.002Z</time></trkpt><trkpt lat="43.12887549937014" lon="11.610466127281526"><ele>352.0</ele><time>2026-04-25T10:31:52.002Z</time></trkpt><trkpt lat="43.12886532789434" lon="11.61033246505778"><ele>352.0</ele><time>2026-04-25T10:31:53.002Z</time></trkpt><trkpt lat="43.128840819998466" lon="11.610191572119515"><ele>352.0</ele><time>2026-04-25T10:31:54.002Z</time></trkpt><trkpt lat="43.12880488784309" lon="11.610034903048003"><ele>353.75</ele><time>2026-04-25T10:31:55.002Z</time></trkpt><trkpt lat="43.12876134065144" lon="11.609876182451625"><ele>355.5</ele><time>2026-04-25T10:31:56.002Z</time></trkpt><trkpt lat="43.12870896516076" lon="11.609713076957396"><ele>357.25</ele><time>2026-04-25T10:31:57.002Z</time></trkpt><trkpt lat="43.12864519265534" lon="11.609549850892169"><ele>359.0</ele><time>2026-04-25T10:31:58.002Z</time></trkpt><trkpt lat="43.1285667157036" lon="11.609384886286282"><ele>361.5</ele><time>2026-04-25T10:31:59.002Z</time></trkpt><trkpt lat="43.12848816335878" lon="11.609221606733756"><ele>364.0</ele><time>2026-04-25T10:32:00.002Z</time></trkpt><trkpt lat="43.12841455988467" lon="11.609052962193765"><ele>366.5</ele><time>2026-04-25T10:32:01.002Z</time></trkpt><trkpt lat="43.1283523964039" lon="11.608886943835257"><ele>369.0</ele><time>2026-04-25T10:32:02.002Z</time></trkpt><trkpt lat="43.12829684942533" lon="11.60872312537304"><ele>370.75</ele><time>2026-04-25T10:32:03.002Z</time></trkpt><trkpt lat="43.128239277488525" lon="11.608563290960863"><ele>372.5</ele><time>2026-04-25T10:32:04.002Z</time></trkpt><trkpt lat="43.12816818764713" lon="11.608402872319713"><ele>374.25</ele><time>2026-04-25T10:32:05.002Z</time></trkpt><trkpt lat="43.12808256978006" lon="11.608245213376826"><ele>376.0</ele><time>2026-04-25T10:32:06.005Z</time></trkpt><trkpt lat="43.127986810276376" lon="11.60809419098634"><ele>374.5</ele><time>2026-04-25T10:32:07.002Z</time></trkpt><trkpt lat="43.127892548646415" lon="11.607956014160344"><ele>373.0</ele><time>2026-04-25T10:32:08.003Z</time></trkpt><trkpt lat="43.12780574494272" lon="11.607824948913251"><ele>371.5</ele><time>2026-04-25T10:32:09.003Z</time></trkpt><trkpt lat="43.12772789005107" lon="11.607687109295917"><ele>370.0</ele><time>2026-04-25T10:32:10.003Z</time></trkpt><trkpt lat="43.12766251207878" lon="11.607533775981825"><ele>370.0</ele><time>2026-04-25T10:32:11.003Z</time></trkpt><trkpt lat="43.127611182366465" lon="11.607373096113054"><ele>370.0</ele><time>2026-04-25T10:32:12.003Z</time></trkpt><trkpt lat="43.12756432356418" lon="11.60721260718967"><ele>370.0</ele><time>2026-04-25T10:32:13.003Z</time></trkpt><trkpt lat="43.12751788460915" lon="11.607055909540165"><ele>370.0</ele><time>2026-04-25T10:32:14.003Z</time></trkpt><trkpt lat="43.12747100209042" lon="11.606900960162767"><ele>370.4</ele><time>2026-04-25T10:32:15.003Z</time></trkpt><trkpt lat="43.12742989743573" lon="11.606755224348987"><ele>370.8</ele><time>2026-04-25T10:32:16.003Z</time></trkpt><trkpt lat="43.12739661035886" lon="11.606606038973213"><ele>371.20000000000005</ele><time>2026-04-25T10:32:17.003Z</time></trkpt><trkpt lat="43.127368735601564" lon="11.60645900423228"><ele>371.6</ele><time>2026-04-25T10:32:18.003Z</time></trkpt><trkpt lat="43.12734687210162" lon="11.606321123705584"><ele>372.0</ele><time>2026-04-25T10:32:19.003Z</time></trkpt><trkpt lat="43.127325165393735" lon="11.606191408016183"><ele>370.0</ele><time>2026-04-25T10:32:20.003Z</time></trkpt><trkpt lat="43.12729742528754" lon="11.606061347925344"><ele>368.0</ele><time>2026-04-25T10:32:21.003Z</time></trkpt><trkpt lat="43.12725595998667" lon="11.605939007079712"><ele>366.0</ele><time>2026-04-25T10:32:22.003Z</time></trkpt><trkpt lat="43.12720212267158" lon="11.60581285157973"><ele>364.0</ele><time>2026-04-25T10:32:23.003Z</time></trkpt><trkpt lat="43.12713174737675" lon="11.60569316902201"><ele>362.0</ele><time>2026-04-25T10:32:24.003Z</time></trkpt><trkpt lat="43.12704324209559" lon="11.605578737059368"><ele>362.0</ele><time>2026-04-25T10:32:25.003Z</time></trkpt><trkpt lat="43.12694611460604" lon="11.605478344056607"><ele>362.0</ele><time>2026-04-25T10:32:26.003Z</time></trkpt><trkpt lat="43.12683483491118" lon="11.60538155667621"><ele>362.0</ele><time>2026-04-25T10:32:27.003Z</time></trkpt><trkpt lat="43.12672377276849" lon="11.605285036194065"><ele>362.0</ele><time>2026-04-25T10:32:28.003Z</time></trkpt><trkpt lat="43.126626505218816" lon="11.605194005686975"><ele>361.75</ele><time>2026-04-25T10:32:29.003Z</time></trkpt><trkpt lat="43.126536250586284" lon="11.605095535367473"><ele>361.5</ele><time>2026-04-25T10:32:30.003Z</time></trkpt><trkpt lat="43.12645549675177" lon="11.604987645538149"><ele>361.25</ele><time>2026-04-25T10:32:31.003Z</time></trkpt><trkpt lat="43.12638108866188" lon="11.604862534374451"><ele>361.0</ele><time>2026-04-25T10:32:32.003Z</time></trkpt><trkpt lat="43.126311533915874" lon="11.60471755382171"><ele>361.0</ele><time>2026-04-25T10:32:33.003Z</time></trkpt><trkpt lat="43.126240596956926" lon="11.604551916115105"><ele>361.0</ele><time>2026-04-25T10:32:34.003Z</time></trkpt><trkpt lat="43.12617020440383" lon="11.60436563440898"><ele>361.0</ele><time>2026-04-25T10:32:35.003Z</time></trkpt><trkpt lat="43.12609737211855" lon="11.604179521363267"><ele>361.0</ele><time>2026-04-25T10:32:35.999Z</time></trkpt><trkpt lat="43.126021616372384" lon="11.603991639798812"><ele>362.3333333333333</ele><time>2026-04-25T10:32:36.999Z</time></trkpt><trkpt lat="43.12594384560147" lon="11.603809703367311"><ele>363.6666666666667</ele><time>2026-04-25T10:32:37.999Z</time></trkpt><trkpt lat="43.12586845551221" lon="11.603634063489853"><ele>365.0</ele><time>2026-04-25T10:32:38.999Z</time></trkpt><trkpt lat="43.12579375108613" lon="11.603447948448432"><ele>361.6666666666667</ele><time>2026-04-25T10:32:39.999Z</time></trkpt><trkpt lat="43.125720022217436" lon="11.603268176075652"><ele>358.3333333333333</ele><time>2026-04-25T10:32:40.999Z</time></trkpt><trkpt lat="43.1256430232489" lon="11.603081776463638"><ele>355.0</ele><time>2026-04-25T10:32:41.999Z</time></trkpt><trkpt lat="43.12556278239502" lon="11.602890168396195"><ele>357.3333333333333</ele><time>2026-04-25T10:32:42.999Z</time></trkpt><trkpt lat="43.12547780356879" lon="11.602690646905657"><ele>359.6666666666667</ele><time>2026-04-25T10:32:43.999Z</time></trkpt><trkpt lat="43.12538964217078" lon="11.602484102097065"><ele>362.0</ele><time>2026-04-25T10:32:44.999Z</time></trkpt><trkpt lat="43.12530969335702" lon="11.602288464576759"><ele>362.0</ele><time>2026-04-25T10:32:45.999Z</time></trkpt><trkpt lat="43.125231068311955" lon="11.60209816186872"><ele>362.0</ele><time>2026-04-25T10:32:46.999Z</time></trkpt><trkpt lat="43.125155717257165" lon="11.601909792960177"><ele>362.0</ele><time>2026-04-25T10:32:47.999Z</time></trkpt><trkpt lat="43.125082342980335" lon="11.601721693866377"><ele>362.33333333333337</ele><time>2026-04-25T10:32:48.999Z</time></trkpt><trkpt lat="43.12501358676858" lon="11.6015329261114"><ele>362.6666666666667</ele><time>2026-04-25T10:32:49.999Z</time></trkpt><trkpt lat="43.124947828826244" lon="11.601340868734429"><ele>363.0</ele><time>2026-04-25T10:32:51Z</time></trkpt><trkpt lat="43.124883844797466" lon="11.601147509352083"><ele>363.0</ele><time>2026-04-25T10:32:52Z</time></trkpt><trkpt lat="43.124815149010395" lon="11.600948436525176"><ele>363.0</ele><time>2026-04-25T10:32:53Z</time></trkpt><trkpt lat="43.124751206657336" lon="11.600762328642343"><ele>363.0</ele><time>2026-04-25T10:32:54Z</time></trkpt><trkpt lat="43.12468188883721" lon="11.600583766276552"><ele>363.0</ele><time>2026-04-25T10:32:55Z</time></trkpt><trkpt lat="43.12460436166819" lon="11.600401832494436"><ele>363.0</ele><time>2026-04-25T10:32:56Z</time></trkpt><trkpt lat="43.1245122610168" lon="11.600216768262408"><ele>363.0</ele><time>2026-04-25T10:32:57Z</time></trkpt><trkpt lat="43.12441338664094" lon="11.60004131511728"><ele>365.0</ele><time>2026-04-25T10:32:58Z</time></trkpt><trkpt lat="43.12431456501774" lon="11.599864251317198"><ele>367.0</ele><time>2026-04-25T10:32:59Z</time></trkpt><trkpt lat="43.12423163154694" lon="11.599713208980647"><ele>369.0</ele><time>2026-04-25T10:33:00Z</time></trkpt><trkpt lat="43.12415524269948" lon="11.599574770501336"><ele>371.0</ele><time>2026-04-25T10:33:01Z</time></trkpt><trkpt lat="43.124091371952616" lon="11.59944893175872"><ele>370.8</ele><time>2026-04-25T10:33:02Z</time></trkpt><trkpt lat="43.12404384441675" lon="11.599334393841874"><ele>370.6</ele><time>2026-04-25T10:33:03Z</time></trkpt><trkpt lat="43.12401589503718" lon="11.599222261353836"><ele>370.4</ele><time>2026-04-25T10:33:04Z</time></trkpt><trkpt lat="43.12400828932884" lon="11.599100603605082"><ele>370.2</ele><time>2026-04-25T10:33:05Z</time></trkpt><trkpt lat="43.124019238931545" lon="11.598967399961188"><ele>370.0</ele><time>2026-04-25T10:33:06Z</time></trkpt><trkpt lat="43.1240598567241" lon="11.598832016400921"><ele>369.5</ele><time>2026-04-25T10:33:07Z</time></trkpt><trkpt lat="43.124123962955586" lon="11.598695820071834"><ele>369.0</ele><time>2026-04-25T10:33:08Z</time></trkpt><trkpt lat="43.12419203657051" lon="11.598526118583367"><ele>368.5</ele><time>2026-04-25T10:33:09Z</time></trkpt><trkpt lat="43.124250215599204" lon="11.598369778140496"><ele>368.0</ele><time>2026-04-25T10:33:10Z</time></trkpt><trkpt lat="43.1242946358844" lon="11.59821937561071"><ele>368.0</ele><time>2026-04-25T10:33:11.001Z</time></trkpt><trkpt lat="43.12433168580755" lon="11.598060170566717"><ele>368.0</ele><time>2026-04-25T10:33:12.001Z</time></trkpt><trkpt lat="43.12434781902772" lon="11.597893297909405"><ele>368.0</ele><time>2026-04-25T10:33:13.001Z</time></trkpt><trkpt lat="43.12434673135843" lon="11.597702297229267"><ele>368.0</ele><time>2026-04-25T10:33:14.001Z</time></trkpt><trkpt lat="43.12434785265136" lon="11.597513053079037"><ele>367.5</ele><time>2026-04-25T10:33:15.001Z</time></trkpt><trkpt lat="43.12435572275653" lon="11.59734171967407"><ele>367.0</ele><time>2026-04-25T10:33:16.001Z</time></trkpt><trkpt lat="43.12436596806684" lon="11.597178981049042"><ele>366.5</ele><time>2026-04-25T10:33:17.001Z</time></trkpt><trkpt lat="43.124370971002065" lon="11.597020673701554"><ele>366.0</ele><time>2026-04-25T10:33:18.001Z</time></trkpt><trkpt lat="43.124376760401134" lon="11.596872551177245"><ele>364.6</ele><time>2026-04-25T10:33:19.001Z</time></trkpt><trkpt lat="43.12438012092344" lon="11.59673290195795"><ele>363.20000000000005</ele><time>2026-04-25T10:33:20.001Z</time></trkpt><trkpt lat="43.124389484378945" lon="11.596590071790008"><ele>361.79999999999995</ele><time>2026-04-25T10:33:21.001Z</time></trkpt><trkpt lat="43.124409000668656" lon="11.596451263869195"><ele>360.4</ele><time>2026-04-25T10:33:22.001Z</time></trkpt><trkpt lat="43.12442540126" lon="11.596312780625007"><ele>359.0</ele><time>2026-04-25T10:33:23.001Z</time></trkpt><trkpt lat="43.12444214477026" lon="11.596165433128801"><ele>359.0</ele><time>2026-04-25T10:33:24.001Z</time></trkpt><trkpt lat="43.12446075239239" lon="11.596018429818816"><ele>359.0</ele><time>2026-04-25T10:33:25.001Z</time></trkpt><trkpt lat="43.12447452222288" lon="11.595871392048316"><ele>359.0</ele><time>2026-04-25T10:33:26.001Z</time></trkpt><trkpt lat="43.12448500097979" lon="11.595729826190887"><ele>359.0</ele><time>2026-04-25T10:33:27.001Z</time></trkpt><trkpt lat="43.12448367114023" lon="11.595589736548451"><ele>359.0</ele><time>2026-04-25T10:33:28.001Z</time></trkpt><trkpt lat="43.12446498469786" lon="11.595449956127215"><ele>360.0</ele><time>2026-04-25T10:33:29.001Z</time></trkpt><trkpt lat="43.12443335477105" lon="11.595310088324052"><ele>361.0</ele><time>2026-04-25T10:33:30.001Z</time></trkpt><trkpt lat="43.12439384407847" lon="11.595165199214625"><ele>362.0</ele><time>2026-04-25T10:33:31.001Z</time></trkpt><trkpt lat="43.12434997372278" lon="11.59502430691409"><ele>363.0</ele><time>2026-04-25T10:33:32.001Z</time></trkpt><trkpt lat="43.12430874434121" lon="11.594880251641262"><ele>364.0</ele><time>2026-04-25T10:33:33.001Z</time></trkpt><trkpt lat="43.12426030566156" lon="11.594730826950558"><ele>364.0</ele><time>2026-04-25T10:33:34.001Z</time></trkpt><trkpt lat="43.124215086517395" lon="11.594592711675192"><ele>364.0</ele><time>2026-04-25T10:33:35.001Z</time></trkpt><trkpt lat="43.124169631651164" lon="11.59447944343574"><ele>364.0</ele><time>2026-04-25T10:33:36.001Z</time></trkpt><trkpt lat="43.124138601856345" lon="11.594376746328244"><ele>364.0</ele><time>2026-04-25T10:33:37.001Z</time></trkpt><trkpt lat="43.12410652930548" lon="11.594277557734502"><ele>364.0</ele><time>2026-04-25T10:33:38.001Z</time></trkpt><trkpt lat="43.12408913133246" lon="11.594170966670637"><ele>364.0</ele><time>2026-04-25T10:33:39.001Z</time></trkpt><trkpt lat="43.124073127049165" lon="11.59403699290487"><ele>364.3333333333333</ele><time>2026-04-25T10:33:40.002Z</time></trkpt><trkpt lat="43.124082074972534" lon="11.593912534792876"><ele>364.66666666666663</ele><time>2026-04-25T10:33:41.002Z</time></trkpt><trkpt lat="43.124090107236746" lon="11.593809065042349"><ele>365.0</ele><time>2026-04-25T10:33:42.002Z</time></trkpt><trkpt lat="43.12409681632042" lon="11.593708064366524"><ele>365.3333333333333</ele><time>2026-04-25T10:33:43.002Z</time></trkpt><trkpt lat="43.12410692880569" lon="11.593622329272405"><ele>365.6666666666667</ele><time>2026-04-25T10:33:44.002Z</time></trkpt><trkpt lat="43.1241064011305" lon="11.593506681922685"><ele>366.0</ele><time>2026-04-25T10:33:46.002Z</time></trkpt><trkpt lat="43.12410649522717" lon="11.593397720346562"><ele>366.6</ele><time>2026-04-25T10:33:54.002Z</time></trkpt><trkpt lat="43.1241197620645" lon="11.59329553377565"><ele>367.20000000000005</ele><time>2026-04-25T10:33:56.002Z</time></trkpt><trkpt lat="43.124182523699716" lon="11.593203948397253"><ele>367.79999999999995</ele><time>2026-04-25T10:33:58.002Z</time></trkpt><trkpt lat="43.12431063838278" lon="11.593165730310343"><ele>368.4</ele><time>2026-04-25T10:34:00.002Z</time></trkpt><trkpt lat="43.12439373557334" lon="11.593139573226269"><ele>369.0</ele><time>2026-04-25T10:34:01.002Z</time></trkpt><trkpt lat="43.12447710639604" lon="11.593100489946673"><ele>369.0</ele><time>2026-04-25T10:34:02.002Z</time></trkpt><trkpt lat="43.12455641709571" lon="11.593055099834643"><ele>369.0</ele><time>2026-04-25T10:34:03.002Z</time></trkpt><trkpt lat="43.124631334695245" lon="11.59300245850934"><ele>369.0</ele><time>2026-04-25T10:34:04.002Z</time></trkpt><trkpt lat="43.124709383679914" lon="11.592954504711269"><ele>369.0</ele><time>2026-04-25T10:34:05.002Z</time></trkpt><trkpt lat="43.12478212538291" lon="11.59290813415951"><ele>369.0</ele><time>2026-04-25T10:34:06.002Z</time></trkpt><trkpt lat="43.1248565557776" lon="11.592871649325431"><ele>369.0</ele><time>2026-04-25T10:34:07.002Z</time></trkpt><trkpt lat="43.124932301633685" lon="11.592829891074"><ele>369.8333333333333</ele><time>2026-04-25T10:34:08.002Z</time></trkpt><trkpt lat="43.125006969006066" lon="11.592785195381259"><ele>370.6666666666667</ele><time>2026-04-25T10:34:09.002Z</time></trkpt><trkpt lat="43.12508680125312" lon="11.5927416560095"><ele>371.5</ele><time>2026-04-25T10:34:10.002Z</time></trkpt><trkpt lat="43.12516407839046" lon="11.59270288850256"><ele>372.33333333333337</ele><time>2026-04-25T10:34:11.002Z</time></trkpt><trkpt lat="43.12523800769715" lon="11.592663312907964"><ele>373.1666666666667</ele><time>2026-04-25T10:34:12.003Z</time></trkpt><trkpt lat="43.12531404077525" lon="11.592629706386184"><ele>374.0</ele><time>2026-04-25T10:34:13.003Z</time></trkpt><trkpt lat="43.12538610890998" lon="11.592598908348668"><ele>374.0</ele><time>2026-04-25T10:34:14.003Z</time></trkpt><trkpt lat="43.125458239364505" lon="11.592575491024459"><ele>374.0</ele><time>2026-04-25T10:34:15.003Z</time></trkpt><trkpt lat="43.12553014198291" lon="11.592561812194514"><ele>374.0</ele><time>2026-04-25T10:34:16.003Z</time></trkpt><trkpt lat="43.125604048423064" lon="11.592542583132467"><ele>374.0</ele><time>2026-04-25T10:34:17.003Z</time></trkpt><trkpt lat="43.125675083570975" lon="11.592527712272409"><ele>374.0</ele><time>2026-04-25T10:34:18.003Z</time></trkpt><trkpt lat="43.1257436531753" lon="11.592513948769659"><ele>374.0</ele><time>2026-04-25T10:34:19.003Z</time></trkpt><trkpt lat="43.12580478098244" lon="11.592489749208967"><ele>374.0</ele><time>2026-04-25T10:34:20.003Z</time></trkpt><trkpt lat="43.12587056785617" lon="11.592460742555446"><ele>371.5</ele><time>2026-04-25T10:34:21.003Z</time></trkpt><trkpt lat="43.12593327200645" lon="11.59242674881009"><ele>369.0</ele><time>2026-04-25T10:34:22.003Z</time></trkpt><trkpt lat="43.125997377484836" lon="11.592375619765319"><ele>366.5</ele><time>2026-04-25T10:34:23.003Z</time></trkpt><trkpt lat="43.1260493326811" lon="11.592303728323815"><ele>364.0</ele><time>2026-04-25T10:34:24.003Z</time></trkpt><trkpt lat="43.12609832678009" lon="11.592218892733941"><ele>361.5</ele><time>2026-04-25T10:34:25.003Z</time></trkpt><trkpt lat="43.12614428039044" lon="11.59212002679696"><ele>359.0</ele><time>2026-04-25T10:34:26.003Z</time></trkpt><trkpt lat="43.126192088541636" lon="11.592025555899378"><ele>359.5</ele><time>2026-04-25T10:34:27.003Z</time></trkpt><trkpt lat="43.126235644123554" lon="11.591930938381172"><ele>360.0</ele><time>2026-04-25T10:34:28.003Z</time></trkpt><trkpt lat="43.126282399434814" lon="11.591837697626731"><ele>360.5</ele><time>2026-04-25T10:34:29.003Z</time></trkpt><trkpt lat="43.12631826544975" lon="11.591746012973054"><ele>361.0</ele><time>2026-04-25T10:34:30.003Z</time></trkpt><trkpt lat="43.12635107514174" lon="11.591657346623725"><ele>361.5</ele><time>2026-04-25T10:34:31.003Z</time></trkpt><trkpt lat="43.126381704816424" lon="11.591563048562273"><ele>362.0</ele><time>2026-04-25T10:34:32.003Z</time></trkpt><trkpt lat="43.126413360681276" lon="11.591471206218356"><ele>362.0</ele><time>2026-04-25T10:34:33.003Z</time></trkpt><trkpt lat="43.12643239274523" lon="11.591380178990795"><ele>362.0</ele><time>2026-04-25T10:34:34.003Z</time></trkpt><trkpt lat="43.12644227095946" lon="11.5912860451461"><ele>362.0</ele><time>2026-04-25T10:34:35.003Z</time></trkpt><trkpt lat="43.12642863039708" lon="11.591093825021293"><ele>362.0</ele><time>2026-04-25T10:34:37.003Z</time></trkpt><trkpt lat="43.1263965490741" lon="11.590984318563116"><ele>362.0</ele><time>2026-04-25T10:34:38.003Z</time></trkpt><trkpt lat="43.126360643244205" lon="11.590853710403993"><ele>360.1666666666667</ele><time>2026-04-25T10:34:39.003Z</time></trkpt><trkpt lat="43.126326702394365" lon="11.590732717862316"><ele>358.33333333333337</ele><time>2026-04-25T10:34:40.003Z</time></trkpt><trkpt lat="43.12628618760908" lon="11.590624982390736"><ele>356.5</ele><time>2026-04-25T10:34:41.003Z</time></trkpt><trkpt lat="43.12625849965577" lon="11.590538595414502"><ele>354.6666666666667</ele><time>2026-04-25T10:34:41.999Z</time></trkpt><trkpt lat="43.1262511207363" lon="11.590435108490778"><ele>352.8333333333333</ele><time>2026-04-25T10:34:42.999Z</time></trkpt><trkpt lat="43.12626959260428" lon="11.590328998918743"><ele>351.0</ele><time>2026-04-25T10:34:43.999Z</time></trkpt><trkpt lat="43.12629597469844" lon="11.590226454281874"><ele>349.8</ele><time>2026-04-25T10:34:44.999Z</time></trkpt><trkpt lat="43.12633195603553" lon="11.590127661186159"><ele>348.6</ele><time>2026-04-25T10:34:45.999Z</time></trkpt><trkpt lat="43.12637875238763" lon="11.59003421623335"><ele>347.4</ele><time>2026-04-25T10:34:46.999Z</time></trkpt><trkpt lat="43.12642889595302" lon="11.58993074101504"><ele>346.2</ele><time>2026-04-25T10:34:47.999Z</time></trkpt><trkpt lat="43.126498614793476" lon="11.589820089286931"><ele>345.0</ele><time>2026-04-25T10:34:48.999Z</time></trkpt><trkpt lat="43.12656140672894" lon="11.589716817983092"><ele>345.0</ele><time>2026-04-25T10:34:50Z</time></trkpt><trkpt lat="43.12664182942614" lon="11.589616312434059"><ele>345.0</ele><time>2026-04-25T10:34:51Z</time></trkpt><trkpt lat="43.12671347446513" lon="11.589529485584732"><ele>345.0</ele><time>2026-04-25T10:34:52Z</time></trkpt><trkpt lat="43.126786292866115" lon="11.589423999629863"><ele>345.0</ele><time>2026-04-25T10:34:53Z</time></trkpt><trkpt lat="43.12685661571485" lon="11.589324403601873"><ele>345.0</ele><time>2026-04-25T10:34:54Z</time></trkpt><trkpt lat="43.126926188043015" lon="11.589243697742116"><ele>343.6</ele><time>2026-04-25T10:34:55Z</time></trkpt><trkpt lat="43.12699462460464" lon="11.589147626693842"><ele>342.2</ele><time>2026-04-25T10:34:56Z</time></trkpt><trkpt lat="43.12705791263481" lon="11.589058011861118"><ele>340.79999999999995</ele><time>2026-04-25T10:34:57Z</time></trkpt><trkpt lat="43.12712530578055" lon="11.588963061741067"><ele>339.4</ele><time>2026-04-25T10:34:58Z</time></trkpt><trkpt lat="43.127189245236856" lon="11.588878169125884"><ele>338.0</ele><time>2026-04-25T10:34:59Z</time></trkpt><trkpt lat="43.12725812217073" lon="11.588792005377913"><ele>338.0</ele><time>2026-04-25T10:35:00Z</time></trkpt><trkpt lat="43.127319083122885" lon="11.58870267213918"><ele>338.0</ele><time>2026-04-25T10:35:01Z</time></trkpt><trkpt lat="43.12738421956004" lon="11.588616802340697"><ele>338.0</ele><time>2026-04-25T10:35:02Z</time></trkpt><trkpt lat="43.12744217418175" lon="11.588529202570932"><ele>338.0</ele><time>2026-04-25T10:35:03Z</time></trkpt><trkpt lat="43.127504237380776" lon="11.588434343198662"><ele>338.0</ele><time>2026-04-25T10:35:04Z</time></trkpt><trkpt lat="43.12757774224514" lon="11.588331734817618"><ele>337.59999999999997</ele><time>2026-04-25T10:35:05Z</time></trkpt><trkpt lat="43.12765503643132" lon="11.588228729237683"><ele>337.2</ele><time>2026-04-25T10:35:06Z</time></trkpt><trkpt lat="43.127715007190346" lon="11.588134405983853"><ele>336.8</ele><time>2026-04-25T10:35:07Z</time></trkpt><trkpt lat="43.12776247119316" lon="11.588036319316238"><ele>336.4</ele><time>2026-04-25T10:35:08Z</time></trkpt><trkpt lat="43.12781328071701" lon="11.587931832721827"><ele>336.0</ele><time>2026-04-25T10:35:09Z</time></trkpt><trkpt lat="43.12785125962353" lon="11.587809680082184"><ele>335.5</ele><time>2026-04-25T10:35:10Z</time></trkpt><trkpt lat="43.127882623191354" lon="11.587668498431764"><ele>335.0</ele><time>2026-04-25T10:35:11Z</time></trkpt><trkpt lat="43.12791016067315" lon="11.587509035517874"><ele>334.5</ele><time>2026-04-25T10:35:12Z</time></trkpt><trkpt lat="43.127939204156654" lon="11.587323704581191"><ele>334.0</ele><time>2026-04-25T10:35:13Z</time></trkpt><trkpt lat="43.127970364953455" lon="11.587161966753925"><ele>333.25</ele><time>2026-04-25T10:35:14Z</time></trkpt><trkpt lat="43.12799667691576" lon="11.587000963588267"><ele>332.5</ele><time>2026-04-25T10:35:15.001Z</time></trkpt><trkpt lat="43.12802242498997" lon="11.586843620029878"><ele>331.75</ele><time>2026-04-25T10:35:16.001Z</time></trkpt><trkpt lat="43.12804957234333" lon="11.58669588127874"><ele>331.0</ele><time>2026-04-25T10:35:17.001Z</time></trkpt><trkpt lat="43.128083745440044" lon="11.586554079346627"><ele>331.0</ele><time>2026-04-25T10:35:18.001Z</time></trkpt><trkpt lat="43.12811697809167" lon="11.58641759321597"><ele>331.0</ele><time>2026-04-25T10:35:19.001Z</time></trkpt><trkpt lat="43.12814775939621" lon="11.586290328385708"><ele>331.0</ele><time>2026-04-25T10:35:20.001Z</time></trkpt><trkpt lat="43.12817687300567" lon="11.58616249313109"><ele>331.0</ele><time>2026-04-25T10:35:21.001Z</time></trkpt><trkpt lat="43.12820211314228" lon="11.586032939763996"><ele>331.0</ele><time>2026-04-25T10:35:22.001Z</time></trkpt><trkpt lat="43.12822152112588" lon="11.585890692428336"><ele>329.6</ele><time>2026-04-25T10:35:23.001Z</time></trkpt><trkpt lat="43.12823352555207" lon="11.585740317601838"><ele>328.20000000000005</ele><time>2026-04-25T10:35:24.001Z</time></trkpt><trkpt lat="43.12824411753449" lon="11.585599124706345"><ele>326.79999999999995</ele><time>2026-04-25T10:35:25.001Z</time></trkpt><trkpt lat="43.12825314178773" lon="11.58546500684159"><ele>325.4</ele><time>2026-04-25T10:35:26.001Z</time></trkpt><trkpt lat="43.128259507731784" lon="11.585334174581753"><ele>324.0</ele><time>2026-04-25T10:35:27.001Z</time></trkpt><trkpt lat="43.1282681928391" lon="11.585203166466268"><ele>323.2</ele><time>2026-04-25T10:35:28.001Z</time></trkpt><trkpt lat="43.128276720974654" lon="11.585069673234212"><ele>322.4</ele><time>2026-04-25T10:35:29.001Z</time></trkpt><trkpt lat="43.128283009499334" lon="11.58492893489443"><ele>321.6</ele><time>2026-04-25T10:35:30.001Z</time></trkpt><trkpt lat="43.12829336246586" lon="11.584783077812899"><ele>320.8</ele><time>2026-04-25T10:35:31.001Z</time></trkpt><trkpt lat="43.128317848252834" lon="11.58463589088357"><ele>320.0</ele><time>2026-04-25T10:35:32.001Z</time></trkpt><trkpt lat="43.12833662429081" lon="11.584493564489913"><ele>318.4</ele><time>2026-04-25T10:35:33.001Z</time></trkpt><trkpt lat="43.128372209442404" lon="11.584349226853742"><ele>316.8</ele><time>2026-04-25T10:35:34.001Z</time></trkpt><trkpt lat="43.12842152859487" lon="11.584215776354732"><ele>315.2</ele><time>2026-04-25T10:35:35.001Z</time></trkpt><trkpt lat="43.128486916044146" lon="11.58409572068134"><ele>313.6</ele><time>2026-04-25T10:35:36.001Z</time></trkpt><trkpt lat="43.1285456299312" lon="11.583993603147949"><ele>312.0</ele><time>2026-04-25T10:35:37.001Z</time></trkpt><trkpt lat="43.12861248926953" lon="11.583894123403553"><ele>312.0</ele><time>2026-04-25T10:35:38.001Z</time></trkpt><trkpt lat="43.1287011320794" lon="11.583812112069722"><ele>312.0</ele><time>2026-04-25T10:35:39.001Z</time></trkpt><trkpt lat="43.12881317742311" lon="11.583757929740123"><ele>312.0</ele><time>2026-04-25T10:35:40.001Z</time></trkpt><trkpt lat="43.12892432104496" lon="11.583721501214832"><ele>312.0</ele><time>2026-04-25T10:35:41.001Z</time></trkpt><trkpt lat="43.12902084607012" lon="11.58367724407143"><ele>312.0</ele><time>2026-04-25T10:35:42.001Z</time></trkpt><trkpt lat="43.129097542194316" lon="11.583605195314764"><ele>309.42857142857144</ele><time>2026-04-25T10:35:43.001Z</time></trkpt><trkpt lat="43.12914318033351" lon="11.583509797200211"><ele>306.85714285714283</ele><time>2026-04-25T10:35:44.001Z</time></trkpt><trkpt lat="43.129165542071426" lon="11.583409149084316"><ele>304.2857142857143</ele><time>2026-04-25T10:35:45.002Z</time></trkpt><trkpt lat="43.12918002298923" lon="11.583321317053858"><ele>301.7142857142857</ele><time>2026-04-25T10:35:46.002Z</time></trkpt><trkpt lat="43.12920332613551" lon="11.583232545220612"><ele>299.1428571428571</ele><time>2026-04-25T10:35:47.002Z</time></trkpt><trkpt lat="43.12923135954828" lon="11.58314072936221"><ele>296.57142857142856</ele><time>2026-04-25T10:35:48.002Z</time></trkpt><trkpt lat="43.129258262263384" lon="11.583042679974223"><ele>294.0</ele><time>2026-04-25T10:35:49.002Z</time></trkpt><trkpt lat="43.12928318264293" lon="11.582938182555393"><ele>292.1666666666667</ele><time>2026-04-25T10:35:50.002Z</time></trkpt><trkpt lat="43.12930148309859" lon="11.582830641463895"><ele>290.3333333333333</ele><time>2026-04-25T10:35:51.002Z</time></trkpt><trkpt lat="43.12931399456069" lon="11.582717907022824"><ele>288.5</ele><time>2026-04-25T10:35:52.002Z</time></trkpt><trkpt lat="43.12932427651887" lon="11.582598870281503"><ele>286.66666666666663</ele><time>2026-04-25T10:35:53.002Z</time></trkpt><trkpt lat="43.129337552975294" lon="11.582482048723623"><ele>284.8333333333333</ele><time>2026-04-25T10:35:54.002Z</time></trkpt><trkpt lat="43.129353943041814" lon="11.582360899284055"><ele>283.0</ele><time>2026-04-25T10:35:55.002Z</time></trkpt><trkpt lat="43.129370513405576" lon="11.582236595123245"><ele>283.0</ele><time>2026-04-25T10:35:56.002Z</time></trkpt><trkpt lat="43.12938616519966" lon="11.582103234688802"><ele>283.0</ele><time>2026-04-25T10:35:57.002Z</time></trkpt><trkpt lat="43.1294011676966" lon="11.581971055758041"><ele>283.0</ele><time>2026-04-25T10:35:58.002Z</time></trkpt><trkpt lat="43.129420394985104" lon="11.581835264649413"><ele>283.0</ele><time>2026-04-25T10:35:59.002Z</time></trkpt><trkpt lat="43.129439490316635" lon="11.58169719772264"><ele>283.0</ele><time>2026-04-25T10:36:00.002Z</time></trkpt><trkpt lat="43.129452916189024" lon="11.581560943296715"><ele>280.6</ele><time>2026-04-25T10:36:01.002Z</time></trkpt><trkpt lat="43.12947152296359" lon="11.581425914869772"><ele>278.20000000000005</ele><time>2026-04-25T10:36:02.002Z</time></trkpt><trkpt lat="43.12949205044109" lon="11.581290441077956"><ele>275.8</ele><time>2026-04-25T10:36:03.002Z</time></trkpt><trkpt lat="43.12951273980073" lon="11.581158111623695"><ele>273.40000000000003</ele><time>2026-04-25T10:36:04.002Z</time></trkpt><trkpt lat="43.129532046163796" lon="11.581026055134664"><ele>271.0</ele><time>2026-04-25T10:36:05.002Z</time></trkpt><trkpt lat="43.12955344615988" lon="11.580897817065834"><ele>269.6</ele><time>2026-04-25T10:36:06.002Z</time></trkpt><trkpt lat="43.12957299802328" lon="11.580768215794032"><ele>268.20000000000005</ele><time>2026-04-25T10:36:07.002Z</time></trkpt><trkpt lat="43.12959281252782" lon="11.58063629151058"><ele>266.79999999999995</ele><time>2026-04-25T10:36:08.002Z</time></trkpt><trkpt lat="43.12960615347161" lon="11.580514734367366"><ele>265.4</ele><time>2026-04-25T10:36:09.002Z</time></trkpt><trkpt lat="43.129622877513086" lon="11.580383989326673"><ele>264.0</ele><time>2026-04-25T10:36:10.002Z</time></trkpt><trkpt lat="43.12964075612454" lon="11.580258295068026"><ele>263.59999999999997</ele><time>2026-04-25T10:36:11.002Z</time></trkpt><trkpt lat="43.129656288763606" lon="11.580135217799214"><ele>263.2</ele><time>2026-04-25T10:36:12.002Z</time></trkpt><trkpt lat="43.12967450543257" lon="11.580013926676273"><ele>262.79999999999995</ele><time>2026-04-25T10:36:13.002Z</time></trkpt><trkpt lat="43.129711625040585" lon="11.579881692977427"><ele>262.4</ele><time>2026-04-25T10:36:14.002Z</time></trkpt><trkpt lat="43.12976194425227" lon="11.579746611969972"><ele>262.0</ele><time>2026-04-25T10:36:15.002Z</time></trkpt><trkpt lat="43.12983145972222" lon="11.579600233134169"><ele>262.0</ele><time>2026-04-25T10:36:16.002Z</time></trkpt><trkpt lat="43.129899280549715" lon="11.579452848492004"><ele>262.0</ele><time>2026-04-25T10:36:17.002Z</time></trkpt><trkpt lat="43.12996922501329" lon="11.579302299937726"><ele>262.0</ele><time>2026-04-25T10:36:18.003Z</time></trkpt><trkpt lat="43.13003885199787" lon="11.579149884312532"><ele>262.0</ele><time>2026-04-25T10:36:19.003Z</time></trkpt><trkpt lat="43.1301042597935" lon="11.579000407062836"><ele>262.0</ele><time>2026-04-25T10:36:20.003Z</time></trkpt><trkpt lat="43.13016339837467" lon="11.578856973101525"><ele>262.0</ele><time>2026-04-25T10:36:21.003Z</time></trkpt><trkpt lat="43.13020528070106" lon="11.578707938319518"><ele>262.0</ele><time>2026-04-25T10:36:22.003Z</time></trkpt><trkpt lat="43.13023405027192" lon="11.578560018065515"><ele>262.0</ele><time>2026-04-25T10:36:23.003Z</time></trkpt><trkpt lat="43.130247501846135" lon="11.5784151933829"><ele>261.6</ele><time>2026-04-25T10:36:24.003Z</time></trkpt><trkpt lat="43.130245446602125" lon="11.578271168765461"><ele>261.2</ele><time>2026-04-25T10:36:25.003Z</time></trkpt><trkpt lat="43.1302321905705" lon="11.578142815550317"><ele>260.8</ele><time>2026-04-25T10:36:26.003Z</time></trkpt><trkpt lat="43.130212073833064" lon="11.578035240547342"><ele>260.4</ele><time>2026-04-25T10:36:27.003Z</time></trkpt><trkpt lat="43.13017685560552" lon="11.577929743482596"><ele>260.0</ele><time>2026-04-25T10:36:28.003Z</time></trkpt><trkpt lat="43.13011431272877" lon="11.577807690280116"><ele>258.75</ele><time>2026-04-25T10:36:29.003Z</time></trkpt><trkpt lat="43.13004128180332" lon="11.577673930189663"><ele>257.5</ele><time>2026-04-25T10:36:30.003Z</time></trkpt><trkpt lat="43.129961942709535" lon="11.577544633926834"><ele>256.25</ele><time>2026-04-25T10:36:31.003Z</time></trkpt><trkpt lat="43.129882078356246" lon="11.577434923439487"><ele>255.0</ele><time>2026-04-25T10:36:32.003Z</time></trkpt><trkpt lat="43.12980805972793" lon="11.577357781456481"><ele>254.6</ele><time>2026-04-25T10:36:33.003Z</time></trkpt><trkpt lat="43.12971791966159" lon="11.577316570847888"><ele>254.2</ele><time>2026-04-25T10:36:34.003Z</time></trkpt><trkpt lat="43.12961500102262" lon="11.577298103708214"><ele>253.8</ele><time>2026-04-25T10:36:35.003Z</time></trkpt><trkpt lat="43.12950027873142" lon="11.5772823321798"><ele>253.4</ele><time>2026-04-25T10:36:36.003Z</time></trkpt><trkpt lat="43.12939871415424" lon="11.577294637069764"><ele>253.0</ele><time>2026-04-25T10:36:37.003Z</time></trkpt><trkpt lat="43.12929690483036" lon="11.577266948504413"><ele>253.0</ele><time>2026-04-25T10:36:38.003Z</time></trkpt><trkpt lat="43.129214079943786" lon="11.577206901357064"><ele>253.0</ele><time>2026-04-25T10:36:39.003Z</time></trkpt><trkpt lat="43.129141869698024" lon="11.577121806464756"><ele>253.0</ele><time>2026-04-25T10:36:40.003Z</time></trkpt><trkpt lat="43.12910937595598" lon="11.577022051327447"><ele>253.0</ele><time>2026-04-25T10:36:41.003Z</time></trkpt><trkpt lat="43.12908172592173" lon="11.576894678681759"><ele>253.0</ele><time>2026-04-25T10:36:42.003Z</time></trkpt><trkpt lat="43.12908131435223" lon="11.576746993615401"><ele>253.5</ele><time>2026-04-25T10:36:43.003Z</time></trkpt><trkpt lat="43.12909470401895" lon="11.576589888452618"><ele>254.0</ele><time>2026-04-25T10:36:44.003Z</time></trkpt><trkpt lat="43.12910572669611" lon="11.57638913860998"><ele>254.5</ele><time>2026-04-25T10:36:45.003Z</time></trkpt><trkpt lat="43.12911234904035" lon="11.576172750294003"><ele>255.0</ele><time>2026-04-25T10:36:46.003Z</time></trkpt><trkpt lat="43.12911850802448" lon="11.575952627342069"><ele>255.75</ele><time>2026-04-25T10:36:47.003Z</time></trkpt><trkpt lat="43.12912767409553" lon="11.575751847485728"><ele>256.5</ele><time>2026-04-25T10:36:48Z</time></trkpt><trkpt lat="43.129141294233875" lon="11.575576815408619"><ele>257.25</ele><time>2026-04-25T10:36:49Z</time></trkpt><trkpt lat="43.129155338944294" lon="11.575413900895828"><ele>258.0</ele><time>2026-04-25T10:36:50Z</time></trkpt><trkpt lat="43.12917413324332" lon="11.575271260504081"><ele>258.3333333333333</ele><time>2026-04-25T10:36:51Z</time></trkpt><trkpt lat="43.12919405455336" lon="11.575153000075634"><ele>258.6666666666667</ele><time>2026-04-25T10:36:52Z</time></trkpt><trkpt lat="43.12922174469717" lon="11.575051924059863"><ele>259.0</ele><time>2026-04-25T10:36:53Z</time></trkpt><trkpt lat="43.129273002378014" lon="11.574963946405719"><ele>259.33333333333337</ele><time>2026-04-25T10:36:54Z</time></trkpt><trkpt lat="43.129347031987336" lon="11.574903744732946"><ele>259.6666666666667</ele><time>2026-04-25T10:36:55Z</time></trkpt><trkpt lat="43.12943534136361" lon="11.574873639037127"><ele>260.0</ele><time>2026-04-25T10:36:56Z</time></trkpt><trkpt lat="43.12950318187019" lon="11.574865003982794"><ele>260.0</ele><time>2026-04-25T10:36:57Z</time></trkpt><trkpt lat="43.12958159448308" lon="11.574850589660294"><ele>260.0</ele><time>2026-04-25T10:37:01Z</time></trkpt><trkpt lat="43.12970430152134" lon="11.57483300511901"><ele>260.0</ele><time>2026-04-25T10:37:03Z</time></trkpt><trkpt lat="43.12981477710092" lon="11.574865933558904"><ele>260.0</ele><time>2026-04-25T10:37:04Z</time></trkpt><trkpt lat="43.12995094550656" lon="11.574904376121273"><ele>260.0</ele><time>2026-04-25T10:37:05Z</time></trkpt><trkpt lat="43.1301257172234" lon="11.574947469179671"><ele>260.0</ele><time>2026-04-25T10:37:06Z</time></trkpt><trkpt lat="43.130328661749736" lon="11.57500541662267"><ele>260.0</ele><time>2026-04-25T10:37:07Z</time></trkpt><trkpt lat="43.13055239095103" lon="11.575061536728919"><ele>260.5</ele><time>2026-04-25T10:37:08Z</time></trkpt><trkpt lat="43.130797262209086" lon="11.575125819230884"><ele>261.0</ele><time>2026-04-25T10:37:09Z</time></trkpt><trkpt lat="43.131055256609955" lon="11.575191425813484"><ele>261.0</ele><time>2026-04-25T10:37:10Z</time></trkpt><trkpt lat="43.131296140894726" lon="11.575250984362622"><ele>261.0</ele><time>2026-04-25T10:37:11Z</time></trkpt><trkpt lat="43.1315142385109" lon="11.575305425255413"><ele>261.6666666666667</ele><time>2026-04-25T10:37:12Z</time></trkpt><trkpt lat="43.13170842419544" lon="11.575358999384834"><ele>262.33333333333337</ele><time>2026-04-25T10:37:13Z</time></trkpt><trkpt lat="43.13189123060447" lon="11.575413448707028"><ele>263.0</ele><time>2026-04-25T10:37:14Z</time></trkpt><trkpt lat="43.13206204399652" lon="11.57546521125052"><ele>263.0</ele><time>2026-04-25T10:37:15Z</time></trkpt><trkpt lat="43.13222925911059" lon="11.575515197475124"><ele>263.0</ele><time>2026-04-25T10:37:16Z</time></trkpt><trkpt lat="43.13239572439781" lon="11.575565034642661"><ele>263.0</ele><time>2026-04-25T10:37:17Z</time></trkpt><trkpt lat="43.13256096647599" lon="11.57561809330742"><ele>263.6666666666667</ele><time>2026-04-25T10:37:18Z</time></trkpt><trkpt lat="43.13272613614901" lon="11.575669391230049"><ele>264.3333333333333</ele><time>2026-04-25T10:37:19Z</time></trkpt><trkpt lat="43.13288911033354" lon="11.57572368094193"><ele>265.0</ele><time>2026-04-25T10:37:20.001Z</time></trkpt><trkpt lat="43.133051924065974" lon="11.57577663421613"><ele>265.0</ele><time>2026-04-25T10:37:21.001Z</time></trkpt><trkpt lat="43.133214220795395" lon="11.575828291049666"><ele>265.0</ele><time>2026-04-25T10:37:22.001Z</time></trkpt><trkpt lat="43.1333709370174" lon="11.575875166344504"><ele>265.0</ele><time>2026-04-25T10:37:23.001Z</time></trkpt><trkpt lat="43.13352749823143" lon="11.575923334744814"><ele>265.0</ele><time>2026-04-25T10:37:24.001Z</time></trkpt><trkpt lat="43.13367817920755" lon="11.57597009226915"><ele>265.0</ele><time>2026-04-25T10:37:25.001Z</time></trkpt><trkpt lat="43.133819786102535" lon="11.576015660054388"><ele>265.0</ele><time>2026-04-25T10:37:26.001Z</time></trkpt><trkpt lat="43.1339579930595" lon="11.57606342896389"><ele>265.0</ele><time>2026-04-25T10:37:27.001Z</time></trkpt><trkpt lat="43.13409306623818" lon="11.576110470572265"><ele>265.25</ele><time>2026-04-25T10:37:28.001Z</time></trkpt><trkpt lat="43.134227176663984" lon="11.576156499484277"><ele>265.5</ele><time>2026-04-25T10:37:29.001Z</time></trkpt><trkpt lat="43.134355277819424" lon="11.57619999317962"><ele>265.75</ele><time>2026-04-25T10:37:30.001Z</time></trkpt><trkpt lat="43.13448397924597" lon="11.576244566400181"><ele>266.0</ele><time>2026-04-25T10:37:31.001Z</time></trkpt><trkpt lat="43.13461170189703" lon="11.576292835133106"><ele>265.25</ele><time>2026-04-25T10:37:32.001Z</time></trkpt><trkpt lat="43.13473940578389" lon="11.576342899223732"><ele>264.5</ele><time>2026-04-25T10:37:33.001Z</time></trkpt><trkpt lat="43.13487166189065" lon="11.576402494838408"><ele>263.75</ele><time>2026-04-25T10:37:34.001Z</time></trkpt><trkpt lat="43.135002940676536" lon="11.576479068119603"><ele>263.0</ele><time>2026-04-25T10:37:35.001Z</time></trkpt><trkpt lat="43.13512836322559" lon="11.576574447036826"><ele>263.0</ele><time>2026-04-25T10:37:36.001Z</time></trkpt><trkpt lat="43.13524909583617" lon="11.576682730173856"><ele>263.0</ele><time>2026-04-25T10:37:37.001Z</time></trkpt><trkpt lat="43.13537287662576" lon="11.576788251558698"><ele>263.0</ele><time>2026-04-25T10:37:38.001Z</time></trkpt><trkpt lat="43.13549726684291" lon="11.576895259500697"><ele>263.0</ele><time>2026-04-25T10:37:39.001Z</time></trkpt><trkpt lat="43.135615591109584" lon="11.57701000428634"><ele>262.75</ele><time>2026-04-25T10:37:40.001Z</time></trkpt><trkpt lat="43.13573593508249" lon="11.577114979852439"><ele>262.5</ele><time>2026-04-25T10:37:41.001Z</time></trkpt><trkpt lat="43.13586158711352" lon="11.577222862963483"><ele>262.25</ele><time>2026-04-25T10:37:42.001Z</time></trkpt><trkpt lat="43.135986036402215" lon="11.577334819070042"><ele>262.0</ele><time>2026-04-25T10:37:43.001Z</time></trkpt><trkpt lat="43.13610931325587" lon="11.57744707880673"><ele>262.0</ele><time>2026-04-25T10:37:44.001Z</time></trkpt><trkpt lat="43.13623285648452" lon="11.577559333924901"><ele>262.0</ele><time>2026-04-25T10:37:45.001Z</time></trkpt><trkpt lat="43.13635938987717" lon="11.577677177219417"><ele>262.0</ele><time>2026-04-25T10:37:46.001Z</time></trkpt><trkpt lat="43.13648349161039" lon="11.577792943297224"><ele>262.5</ele><time>2026-04-25T10:37:47.001Z</time></trkpt><trkpt lat="43.13660463917093" lon="11.57790114206045"><ele>263.0</ele><time>2026-04-25T10:37:48.001Z</time></trkpt><trkpt lat="43.136726325734905" lon="11.578008422995836"><ele>263.5</ele><time>2026-04-25T10:37:49.001Z</time></trkpt><trkpt lat="43.13684732231142" lon="11.578117179795443"><ele>264.0</ele><time>2026-04-25T10:37:50.001Z</time></trkpt><trkpt lat="43.13696852327442" lon="11.578227888848987"><ele>264.0</ele><time>2026-04-25T10:37:51.001Z</time></trkpt><trkpt lat="43.137082820988525" lon="11.578330357429747"><ele>264.0</ele><time>2026-04-25T10:37:52.002Z</time></trkpt><trkpt lat="43.13719040404627" lon="11.578423214931737"><ele>264.0</ele><time>2026-04-25T10:37:53.002Z</time></trkpt><trkpt lat="43.137290160127385" lon="11.57850121646959"><ele>264.0</ele><time>2026-04-25T10:37:54.002Z</time></trkpt><trkpt lat="43.13737404398606" lon="11.578573763774592"><ele>264.1666666666667</ele><time>2026-04-25T10:37:55.002Z</time></trkpt><trkpt lat="43.13745019419679" lon="11.578641438460636"><ele>264.3333333333333</ele><time>2026-04-25T10:37:56.002Z</time></trkpt><trkpt lat="43.13751438938172" lon="11.57869481886668"><ele>264.5</ele><time>2026-04-25T10:37:57.002Z</time></trkpt><trkpt lat="43.13761563425015" lon="11.578705046896687"><ele>264.66666666666663</ele><time>2026-04-25T10:37:59.002Z</time></trkpt><trkpt lat="43.13768235836689" lon="11.578630452718162"><ele>264.8333333333333</ele><time>2026-04-25T10:38:02.002Z</time></trkpt><trkpt lat="43.13771911975933" lon="11.5785529578496"><ele>265.0</ele><time>2026-04-25T10:38:06.002Z</time></trkpt><trkpt lat="43.137751166435514" lon="11.57847770499619"><ele>265.5</ele><time>2026-04-25T10:38:12.002Z</time></trkpt><trkpt lat="43.13779280158512" lon="11.578373889221016"><ele>266.0</ele><time>2026-04-25T10:38:26.003Z</time></trkpt><trkpt lat="43.137843202847094" lon="11.578299026779657"><ele>266.5</ele><time>2026-04-25T10:38:27.003Z</time></trkpt><trkpt lat="43.13789763861856" lon="11.578217580793247"><ele>267.0</ele><time>2026-04-25T10:38:28.003Z</time></trkpt><trkpt lat="43.13795458055264" lon="11.578123252256718"><ele>267.5</ele><time>2026-04-25T10:38:29.003Z</time></trkpt><trkpt lat="43.13801662233677" lon="11.578011835919671"><ele>268.0</ele><time>2026-04-25T10:38:30.003Z</time></trkpt><trkpt lat="43.138082049374574" lon="11.577897449970747"><ele>267.5</ele><time>2026-04-25T10:38:31.003Z</time></trkpt><trkpt lat="43.13815170598864" lon="11.57777813853627"><ele>267.0</ele><time>2026-04-25T10:38:32.003Z</time></trkpt><trkpt lat="43.1382254195859" lon="11.577647116285418"><ele>266.5</ele><time>2026-04-25T10:38:33.003Z</time></trkpt><trkpt lat="43.13830523971957" lon="11.57751282809083"><ele>266.0</ele><time>2026-04-25T10:38:34.003Z</time></trkpt><trkpt lat="43.13838596591019" lon="11.577375416833851"><ele>268.25</ele><time>2026-04-25T10:38:35.003Z</time></trkpt><trkpt lat="43.13846551280144" lon="11.577243180496152"><ele>270.5</ele><time>2026-04-25T10:38:36.003Z</time></trkpt><trkpt lat="43.13854320203673" lon="11.577112933268625"><ele>272.75</ele><time>2026-04-25T10:38:37.003Z</time></trkpt><trkpt lat="43.13861181678407" lon="11.576995175522663"><ele>275.0</ele><time>2026-04-25T10:38:38.003Z</time></trkpt><trkpt lat="43.13867868073494" lon="11.576868918386966"><ele>275.75</ele><time>2026-04-25T10:38:39.003Z</time></trkpt><trkpt lat="43.13872769835007" lon="11.576737857627762"><ele>276.5</ele><time>2026-04-25T10:38:40.003Z</time></trkpt><trkpt lat="43.13875801430732" lon="11.57659181044084"><ele>277.25</ele><time>2026-04-25T10:38:41.003Z</time></trkpt><trkpt lat="43.138769664288084" lon="11.57642700592229"><ele>278.0</ele><time>2026-04-25T10:38:42.003Z</time></trkpt><trkpt lat="43.13877256567099" lon="11.576253246060391"><ele>279.4</ele><time>2026-04-25T10:38:43.003Z</time></trkpt><trkpt lat="43.13877267374453" lon="11.576085702602228"><ele>280.8</ele><time>2026-04-25T10:38:44.003Z</time></trkpt><trkpt lat="43.13876983774628" lon="11.57592867697355"><ele>282.2</ele><time>2026-04-25T10:38:45.003Z</time></trkpt><trkpt lat="43.13876391955899" lon="11.575778810361344"><ele>283.6</ele><time>2026-04-25T10:38:46.003Z</time></trkpt><trkpt lat="43.13875126310558" lon="11.575646713999344"><ele>285.0</ele><time>2026-04-25T10:38:47.003Z</time></trkpt><trkpt lat="43.1387243429507" lon="11.575522526796767"><ele>285.0</ele><time>2026-04-25T10:38:48.003Z</time></trkpt><trkpt lat="43.13867413506362" lon="11.575395402709837"><ele>285.0</ele><time>2026-04-25T10:38:49.003Z</time></trkpt><trkpt lat="43.13860115144219" lon="11.57527515639519"><ele>285.0</ele><time>2026-04-25T10:38:50.003Z</time></trkpt><trkpt lat="43.13851581614652" lon="11.575166972709962"><ele>285.0</ele><time>2026-04-25T10:38:51.003Z</time></trkpt><trkpt lat="43.138419890258575" lon="11.575057344953192"><ele>288.25</ele><time>2026-04-25T10:38:52.003Z</time></trkpt><trkpt lat="43.13832143038287" lon="11.574948620877652"><ele>291.5</ele><time>2026-04-25T10:38:53.003Z</time></trkpt><trkpt lat="43.13822739225199" lon="11.574844096493115"><ele>294.75</ele><time>2026-04-25T10:38:53.999Z</time></trkpt><trkpt lat="43.13813975128525" lon="11.574736253788902"><ele>298.0</ele><time>2026-04-25T10:38:54.999Z</time></trkpt><trkpt lat="43.13807219358967" lon="11.574633367354748"><ele>298.6</ele><time>2026-04-25T10:38:56Z</time></trkpt><trkpt lat="43.138022512280436" lon="11.574518949822739"><ele>299.20000000000005</ele><time>2026-04-25T10:38:57Z</time></trkpt><trkpt lat="43.1379964884049" lon="11.574395792002607"><ele>299.8</ele><time>2026-04-25T10:38:58Z</time></trkpt><trkpt lat="43.137989962027" lon="11.57426700076284"><ele>300.40000000000003</ele><time>2026-04-25T10:38:59Z</time></trkpt><trkpt lat="43.13798638464061" lon="11.574121193334799"><ele>301.0</ele><time>2026-04-25T10:39:00Z</time></trkpt><trkpt lat="43.13798449677891" lon="11.573940979873205"><ele>301.0</ele><time>2026-04-25T10:39:01Z</time></trkpt><trkpt lat="43.13797682787093" lon="11.573723652213273"><ele>301.0</ele><time>2026-04-25T10:39:02Z</time></trkpt><trkpt lat="43.137966586104675" lon="11.573515579996961"><ele>301.0</ele><time>2026-04-25T10:39:03Z</time></trkpt><trkpt lat="43.137957523236416" lon="11.573285520142438"><ele>300.0</ele><time>2026-04-25T10:39:04Z</time></trkpt><trkpt lat="43.13794568906633" lon="11.573034449139001"><ele>299.0</ele><time>2026-04-25T10:39:05Z</time></trkpt><trkpt lat="43.13793747170384" lon="11.572808533758732"><ele>298.0</ele><time>2026-04-25T10:39:06Z</time></trkpt><trkpt lat="43.13792887912564" lon="11.572597306932622"><ele>297.2</ele><time>2026-04-25T10:39:07Z</time></trkpt><trkpt lat="43.137926017983546" lon="11.572413189967774"><ele>296.4</ele><time>2026-04-25T10:39:08Z</time></trkpt><trkpt lat="43.137928174951625" lon="11.572273113082169"><ele>295.59999999999997</ele><time>2026-04-25T10:39:09Z</time></trkpt><trkpt lat="43.13794162600107" lon="11.572164742842375"><ele>294.8</ele><time>2026-04-25T10:39:10Z</time></trkpt><trkpt lat="43.13797663440779" lon="11.572068282285164"><ele>294.0</ele><time>2026-04-25T10:39:11Z</time></trkpt><trkpt lat="43.13803529416589" lon="11.571986370191377"><ele>292.4</ele><time>2026-04-25T10:39:12Z</time></trkpt><trkpt lat="43.138116642104215" lon="11.571917410268526"><ele>290.79999999999995</ele><time>2026-04-25T10:39:13Z</time></trkpt><trkpt lat="43.13822061306828" lon="11.571864986136132"><ele>289.20000000000005</ele><time>2026-04-25T10:39:14Z</time></trkpt><trkpt lat="43.13833868657642" lon="11.57180362405914"><ele>287.6</ele><time>2026-04-25T10:39:15Z</time></trkpt><trkpt lat="43.138449106815216" lon="11.571753405506435"><ele>286.0</ele><time>2026-04-25T10:39:16Z</time></trkpt><trkpt lat="43.13854054386797" lon="11.57168064112322"><ele>288.8</ele><time>2026-04-25T10:39:17Z</time></trkpt><trkpt lat="43.138612532983856" lon="11.571592374225524"><ele>291.6</ele><time>2026-04-25T10:39:18Z</time></trkpt><trkpt lat="43.13866306169198" lon="11.571488944800352"><ele>294.4</ele><time>2026-04-25T10:39:19Z</time></trkpt><trkpt lat="43.13870059895385" lon="11.571372779689515"><ele>297.2</ele><time>2026-04-25T10:39:20Z</time></trkpt><trkpt lat="43.138720846098806" lon="11.57124125958067"><ele>300.0</ele><time>2026-04-25T10:39:21Z</time></trkpt><trkpt lat="43.138724937887226" lon="11.571103745849364"><ele>300.0</ele><time>2026-04-25T10:39:22Z</time></trkpt><trkpt lat="43.13870229819668" lon="11.570971501045886"><ele>300.0</ele><time>2026-04-25T10:39:23Z</time></trkpt><trkpt lat="43.13865524611092" lon="11.570845377316521"><ele>300.0</ele><time>2026-04-25T10:39:24Z</time></trkpt><trkpt lat="43.138578934761725" lon="11.570709013856561"><ele>300.0</ele><time>2026-04-25T10:39:25Z</time></trkpt><trkpt lat="43.13850549043158" lon="11.57059830245738"><ele>300.0</ele><time>2026-04-25T10:39:26Z</time></trkpt><trkpt lat="43.138453483756564" lon="11.570495185954817"><ele>300.0</ele><time>2026-04-25T10:39:27.001Z</time></trkpt><trkpt lat="43.13843108106772" lon="11.570379177225131"><ele>300.0</ele><time>2026-04-25T10:39:28.001Z</time></trkpt><trkpt lat="43.13843220961105" lon="11.570244953948187"><ele>300.0</ele><time>2026-04-25T10:39:29.001Z</time></trkpt><trkpt lat="43.13845433978746" lon="11.570093221518432"><ele>300.0</ele><time>2026-04-25T10:39:30.001Z</time></trkpt><trkpt lat="43.13849005775097" lon="11.569927865830573"><ele>300.0</ele><time>2026-04-25T10:39:31.001Z</time></trkpt><trkpt lat="43.13852053118809" lon="11.569756310263232"><ele>301.25</ele><time>2026-04-25T10:39:32.001Z</time></trkpt><trkpt lat="43.13852860124525" lon="11.569566700735258"><ele>302.5</ele><time>2026-04-25T10:39:33.001Z</time></trkpt><trkpt lat="43.13852330840179" lon="11.569374111525999"><ele>303.75</ele><time>2026-04-25T10:39:34.001Z</time></trkpt><trkpt lat="43.13850870090029" lon="11.569189353920148"><ele>305.0</ele><time>2026-04-25T10:39:35.001Z</time></trkpt><trkpt lat="43.13848511778362" lon="11.569028555369114"><ele>305.1666666666667</ele><time>2026-04-25T10:39:36.001Z</time></trkpt><trkpt lat="43.138454635583166" lon="11.568892612503879"><ele>305.33333333333337</ele><time>2026-04-25T10:39:37.001Z</time></trkpt><trkpt lat="43.13842482968775" lon="11.568788094265061"><ele>305.5</ele><time>2026-04-25T10:39:38.001Z</time></trkpt><trkpt lat="43.13839455921562" lon="11.568709751020815"><ele>305.6666666666667</ele><time>2026-04-25T10:39:39.001Z</time></trkpt><trkpt lat="43.13834766970397" lon="11.568610029540574"><ele>305.8333333333333</ele><time>2026-04-25T10:39:41.001Z</time></trkpt><trkpt lat="43.138281653611415" lon="11.568547253653701"><ele>306.0</ele><time>2026-04-25T10:39:53.001Z</time></trkpt><trkpt lat="43.13823295395023" lon="11.568487407323623"><ele>302.0</ele><time>2026-04-25T10:39:54.001Z</time></trkpt><trkpt lat="43.13816644209947" lon="11.568412346931519"><ele>298.0</ele><time>2026-04-25T10:39:55.001Z</time></trkpt><trkpt lat="43.138096542026986" lon="11.568329657432647"><ele>294.0</ele><time>2026-04-25T10:39:56.001Z</time></trkpt><trkpt lat="43.138029564122206" lon="11.568238251910044"><ele>290.0</ele><time>2026-04-25T10:39:57.001Z</time></trkpt><trkpt lat="43.137969057288586" lon="11.56814876010415"><ele>286.0</ele><time>2026-04-25T10:39:58.002Z</time></trkpt><trkpt lat="43.13791929044208" lon="11.568056929117708"><ele>282.0</ele><time>2026-04-25T10:39:59.002Z</time></trkpt><trkpt lat="43.13787737111955" lon="11.5679575778964"><ele>283.4</ele><time>2026-04-25T10:40:00.002Z</time></trkpt><trkpt lat="43.13785277194401" lon="11.56784922853131"><ele>284.79999999999995</ele><time>2026-04-25T10:40:01.002Z</time></trkpt><trkpt lat="43.13784498713237" lon="11.56772338036715"><ele>286.2</ele><time>2026-04-25T10:40:02.002Z</time></trkpt><trkpt lat="43.13785239663642" lon="11.56758092778572"><ele>287.59999999999997</ele><time>2026-04-25T10:40:03.002Z</time></trkpt><trkpt lat="43.137872102063696" lon="11.567435431736454"><ele>289.0</ele><time>2026-04-25T10:40:04.002Z</time></trkpt><trkpt lat="43.137893902211815" lon="11.567305869844608"><ele>289.0</ele><time>2026-04-25T10:40:05.002Z</time></trkpt><trkpt lat="43.137912097215555" lon="11.567176474627338"><ele>289.0</ele><time>2026-04-25T10:40:06.002Z</time></trkpt><trkpt lat="43.137917570784204" lon="11.567053219236696"><ele>289.0</ele><time>2026-04-25T10:40:07.002Z</time></trkpt><trkpt lat="43.137914311803335" lon="11.566928795384758"><ele>289.0</ele><time>2026-04-25T10:40:08.002Z</time></trkpt><trkpt lat="43.137899452094416" lon="11.566796915696036"><ele>289.0</ele><time>2026-04-25T10:40:09.002Z</time></trkpt><trkpt lat="43.137885549701366" lon="11.566669487771387"><ele>288.8</ele><time>2026-04-25T10:40:10.002Z</time></trkpt><trkpt lat="43.13787216896061" lon="11.566536160956515"><ele>288.59999999999997</ele><time>2026-04-25T10:40:11.002Z</time></trkpt><trkpt lat="43.1378605709268" lon="11.56639678440827"><ele>288.4</ele><time>2026-04-25T10:40:12.002Z</time></trkpt><trkpt lat="43.13785247891794" lon="11.566262411026305"><ele>288.2</ele><time>2026-04-25T10:40:13.002Z</time></trkpt><trkpt lat="43.137846292977684" lon="11.56612766448442"><ele>288.0</ele><time>2026-04-25T10:40:14.002Z</time></trkpt><trkpt lat="43.137843520653774" lon="11.565997659880818"><ele>287.2</ele><time>2026-04-25T10:40:15.002Z</time></trkpt><trkpt lat="43.13783959115694" lon="11.565872721621426"><ele>286.4</ele><time>2026-04-25T10:40:16.002Z</time></trkpt><trkpt lat="43.13783580365948" lon="11.565747690541839"><ele>285.59999999999997</ele><time>2026-04-25T10:40:17.002Z</time></trkpt><trkpt lat="43.137831977380195" lon="11.565624108544794"><ele>284.8</ele><time>2026-04-25T10:40:18.002Z</time></trkpt><trkpt lat="43.13783050993966" lon="11.565497949476171"><ele>284.0</ele><time>2026-04-25T10:40:19.002Z</time></trkpt><trkpt lat="43.13782475905751" lon="11.56536802357131"><ele>284.8</ele><time>2026-04-25T10:40:20.002Z</time></trkpt><trkpt lat="43.13781117092588" lon="11.565239897383615"><ele>285.59999999999997</ele><time>2026-04-25T10:40:21.002Z</time></trkpt><trkpt lat="43.137782286346244" lon="11.565121565284054"><ele>286.4</ele><time>2026-04-25T10:40:22.002Z</time></trkpt><trkpt lat="43.13773662341548" lon="11.564995467480731"><ele>287.2</ele><time>2026-04-25T10:40:23.002Z</time></trkpt><trkpt lat="43.13766973645533" lon="11.564870100106367"><ele>288.0</ele><time>2026-04-25T10:40:24.002Z</time></trkpt><trkpt lat="43.13759295743311" lon="11.564728328033777"><ele>288.0</ele><time>2026-04-25T10:40:25.002Z</time></trkpt><trkpt lat="43.13752920433428" lon="11.564604486501802"><ele>288.0</ele><time>2026-04-25T10:40:26.002Z</time></trkpt><trkpt lat="43.137480184413164" lon="11.564501234232539"><ele>288.0</ele><time>2026-04-25T10:40:27.002Z</time></trkpt><trkpt lat="43.13743342360207" lon="11.564409539258145"><ele>288.0</ele><time>2026-04-25T10:40:28.002Z</time></trkpt><trkpt lat="43.137387341891234" lon="11.56434701255368"><ele>288.0</ele><time>2026-04-25T10:40:29.002Z</time></trkpt><trkpt lat="43.13727686290032" lon="11.56430700451775"><ele>284.8333333333333</ele><time>2026-04-25T10:40:31.003Z</time></trkpt><trkpt lat="43.13719781638753" lon="11.564324323560495"><ele>281.6666666666667</ele><time>2026-04-25T10:40:32.003Z</time></trkpt><trkpt lat="43.13712239211825" lon="11.564367904816216"><ele>278.5</ele><time>2026-04-25T10:40:33.003Z</time></trkpt><trkpt lat="43.137051387325066" lon="11.564437535733935"><ele>275.33333333333337</ele><time>2026-04-25T10:40:34.003Z</time></trkpt><trkpt lat="43.13699219262534" lon="11.564524491220372"><ele>272.1666666666667</ele><time>2026-04-25T10:40:35.003Z</time></trkpt><trkpt lat="43.13694882882008" lon="11.564624324639244"><ele>269.0</ele><time>2026-04-25T10:40:36.003Z</time></trkpt><trkpt lat="43.13693025545963" lon="11.56473264134286"><ele>269.0</ele><time>2026-04-25T10:40:37.003Z</time></trkpt><trkpt lat="43.13693298749421" lon="11.564842559315247"><ele>269.0</ele><time>2026-04-25T10:40:38.003Z</time></trkpt><trkpt lat="43.13695623008636" lon="11.564949993550186"><ele>269.0</ele><time>2026-04-25T10:40:39.003Z</time></trkpt><trkpt lat="43.13699885231458" lon="11.565064167741449"><ele>269.0</ele><time>2026-04-25T10:40:40.003Z</time></trkpt><trkpt lat="43.1370640207042" lon="11.565201928741613"><ele>269.0</ele><time>2026-04-25T10:40:41.003Z</time></trkpt><trkpt lat="43.13712940916342" lon="11.565322194757996"><ele>268.6666666666667</ele><time>2026-04-25T10:40:42.003Z</time></trkpt><trkpt lat="43.13718196136287" lon="11.56541701863694"><ele>268.33333333333337</ele><time>2026-04-25T10:40:43.003Z</time></trkpt><trkpt lat="43.137218226913184" lon="11.56549803508779"><ele>268.0</ele><time>2026-04-25T10:40:44.003Z</time></trkpt><trkpt lat="43.13724183079865" lon="11.565595312757555"><ele>267.6666666666667</ele><time>2026-04-25T10:40:45.003Z</time></trkpt><trkpt lat="43.137245160136686" lon="11.565698994177541"><ele>267.3333333333333</ele><time>2026-04-25T10:40:46.003Z</time></trkpt><trkpt lat="43.13723385827295" lon="11.565809326975376"><ele>267.0</ele><time>2026-04-25T10:40:47.003Z</time></trkpt><trkpt lat="43.13720977827833" lon="11.565924946846918"><ele>267.0</ele><time>2026-04-25T10:40:48.003Z</time></trkpt><trkpt lat="43.13717168120596" lon="11.566029394296192"><ele>267.0</ele><time>2026-04-25T10:40:49.003Z</time></trkpt><trkpt lat="43.13712277670617" lon="11.566121536190721"><ele>267.0</ele><time>2026-04-25T10:40:50.003Z</time></trkpt><trkpt lat="43.13705651937116" lon="11.566211310518327"><ele>267.0</ele><time>2026-04-25T10:40:51.003Z</time></trkpt><trkpt lat="43.13697072545788" lon="11.566285327049705"><ele>267.0</ele><time>2026-04-25T10:40:52.003Z</time></trkpt><trkpt lat="43.13685965764504" lon="11.566355100052624"><ele>268.0</ele><time>2026-04-25T10:40:53.003Z</time></trkpt><trkpt lat="43.136726481863626" lon="11.56641470168669"><ele>269.0</ele><time>2026-04-25T10:40:54.003Z</time></trkpt><trkpt lat="43.13660727398023" lon="11.56645790010162"><ele>270.0</ele><time>2026-04-25T10:40:55.003Z</time></trkpt><trkpt lat="43.136494653290015" lon="11.566504439827074"><ele>271.0</ele><time>2026-04-25T10:40:56.003Z</time></trkpt><trkpt lat="43.13639448319267" lon="11.566557141258617"><ele>267.16666666666663</ele><time>2026-04-25T10:40:57.003Z</time></trkpt><trkpt lat="43.13631288203187" lon="11.566596273437906"><ele>263.3333333333333</ele><time>2026-04-25T10:40:58.003Z</time></trkpt><trkpt lat="43.136249439250925" lon="11.566618244984046"><ele>259.5</ele><time>2026-04-25T10:40:59.003Z</time></trkpt><trkpt lat="43.136139140592746" lon="11.566548676341956"><ele>255.66666666666669</ele><time>2026-04-25T10:41:00.999Z</time></trkpt><trkpt lat="43.136096817173076" lon="11.566470058022968"><ele>251.83333333333334</ele><time>2026-04-25T10:41:01.999Z</time></trkpt><trkpt lat="43.136086606325065" lon="11.566366878574293"><ele>248.0</ele><time>2026-04-25T10:41:02.999Z</time></trkpt><trkpt lat="43.13610781602755" lon="11.566255612015404"><ele>248.0</ele><time>2026-04-25T10:41:03.999Z</time></trkpt><trkpt lat="43.136156435947605" lon="11.566143973115464"><ele>248.0</ele><time>2026-04-25T10:41:05Z</time></trkpt><trkpt lat="43.13623463524353" lon="11.56603484364953"><ele>248.0</ele><time>2026-04-25T10:41:05.999Z</time></trkpt><trkpt lat="43.13631138887199" lon="11.565940074702558"><ele>248.0</ele><time>2026-04-25T10:41:06.999Z</time></trkpt><trkpt lat="43.13636551058314" lon="11.565842857092871"><ele>248.0</ele><time>2026-04-25T10:41:08Z</time></trkpt><trkpt lat="43.13639287372352" lon="11.565727024019141"><ele>248.0</ele><time>2026-04-25T10:41:09Z</time></trkpt><trkpt lat="43.13638936281985" lon="11.565606722557487"><ele>248.0</ele><time>2026-04-25T10:41:10Z</time></trkpt><trkpt lat="43.13635663720678" lon="11.56548847844817"><ele>248.0</ele><time>2026-04-25T10:41:11Z</time></trkpt><trkpt lat="43.13628805180678" lon="11.565382062578037"><ele>248.0</ele><time>2026-04-25T10:41:12Z</time></trkpt><trkpt lat="43.13620107425545" lon="11.565286883418786"><ele>248.0</ele><time>2026-04-25T10:41:13Z</time></trkpt><trkpt lat="43.13611910861791" lon="11.565203382233776"><ele>247.4</ele><time>2026-04-25T10:41:14Z</time></trkpt><trkpt lat="43.13606419628335" lon="11.565112450937953"><ele>246.8</ele><time>2026-04-25T10:41:15Z</time></trkpt><trkpt lat="43.13603509810199" lon="11.564994301328127"><ele>246.2</ele><time>2026-04-25T10:41:16Z</time></trkpt><trkpt lat="43.136027618101686" lon="11.564865475633269"><ele>245.6</ele><time>2026-04-25T10:41:17Z</time></trkpt><trkpt lat="43.13603410072092" lon="11.564734411890267"><ele>245.0</ele><time>2026-04-25T10:41:18Z</time></trkpt><trkpt lat="43.13607329423437" lon="11.564594857950487"><ele>243.75</ele><time>2026-04-25T10:41:19Z</time></trkpt><trkpt lat="43.13613085318543" lon="11.564455811814527"><ele>242.5</ele><time>2026-04-25T10:41:20Z</time></trkpt><trkpt lat="43.13620287562248" lon="11.56431052944504"><ele>241.25</ele><time>2026-04-25T10:41:21Z</time></trkpt><trkpt lat="43.13627064051859" lon="11.564184120651838"><ele>240.0</ele><time>2026-04-25T10:41:22Z</time></trkpt><trkpt lat="43.136320512228295" lon="11.564063148632187"><ele>240.0</ele><time>2026-04-25T10:41:23Z</time></trkpt><trkpt lat="43.136356699932875" lon="11.56393179777165"><ele>240.0</ele><time>2026-04-25T10:41:24Z</time></trkpt><trkpt lat="43.13637212959176" lon="11.563792901465678"><ele>240.0</ele><time>2026-04-25T10:41:25Z</time></trkpt><trkpt lat="43.13636969806518" lon="11.563659145626058"><ele>240.0</ele><time>2026-04-25T10:41:26Z</time></trkpt><trkpt lat="43.136351433009786" lon="11.563529846594928"><ele>240.0</ele><time>2026-04-25T10:41:27Z</time></trkpt><trkpt lat="43.13632071139646" lon="11.563409140592404"><ele>240.2</ele><time>2026-04-25T10:41:28Z</time></trkpt><trkpt lat="43.136271116131184" lon="11.5632883717293"><ele>240.4</ele><time>2026-04-25T10:41:29Z</time></trkpt><trkpt lat="43.13620430582467" lon="11.563177146435518"><ele>240.60000000000002</ele><time>2026-04-25T10:41:30Z</time></trkpt><trkpt lat="43.13612142073723" lon="11.563076734638644"><ele>240.8</ele><time>2026-04-25T10:41:31Z</time></trkpt><trkpt lat="43.13602930246624" lon="11.562978729702927"><ele>241.0</ele><time>2026-04-25T10:41:32Z</time></trkpt><trkpt lat="43.135937069048225" lon="11.56287147011397"><ele>243.0</ele><time>2026-04-25T10:41:33Z</time></trkpt><trkpt lat="43.13584928939585" lon="11.562761991973687"><ele>245.0</ele><time>2026-04-25T10:41:34.001Z</time></trkpt><trkpt lat="43.13575804864837" lon="11.562647311684415"><ele>247.0</ele><time>2026-04-25T10:41:35.001Z</time></trkpt><trkpt lat="43.13566827842845" lon="11.562534565049637"><ele>249.0</ele><time>2026-04-25T10:41:36.001Z</time></trkpt><trkpt lat="43.13557516542148" lon="11.562417324106521"><ele>245.0</ele><time>2026-04-25T10:41:37.001Z</time></trkpt><trkpt lat="43.135484303977485" lon="11.562294231052658"><ele>241.0</ele><time>2026-04-25T10:41:38.001Z</time></trkpt><trkpt lat="43.135407131853164" lon="11.562167210828335"><ele>237.0</ele><time>2026-04-25T10:41:39.001Z</time></trkpt><trkpt lat="43.13533761131882" lon="11.562046722909383"><ele>233.0</ele><time>2026-04-25T10:41:40.001Z</time></trkpt><trkpt lat="43.13527046136365" lon="11.561924412237992"><ele>233.0</ele><time>2026-04-25T10:41:41.001Z</time></trkpt><trkpt lat="43.135204588580294" lon="11.561800466549512"><ele>233.0</ele><time>2026-04-25T10:41:42.001Z</time></trkpt><trkpt lat="43.13513742516784" lon="11.56167757787519"><ele>233.0</ele><time>2026-04-25T10:41:43.001Z</time></trkpt><trkpt lat="43.135071312454265" lon="11.561556225874034"><ele>233.0</ele><time>2026-04-25T10:41:44.001Z</time></trkpt><trkpt lat="43.135004564474826" lon="11.561441210775106"><ele>233.0</ele><time>2026-04-25T10:41:45.001Z</time></trkpt><trkpt lat="43.13494355452022" lon="11.561329064989803"><ele>228.8</ele><time>2026-04-25T10:41:46.001Z</time></trkpt><trkpt lat="43.13488550013318" lon="11.561213827920454"><ele>224.60000000000002</ele><time>2026-04-25T10:41:47.001Z</time></trkpt><trkpt lat="43.134830678014715" lon="11.561101160693337"><ele>220.39999999999998</ele><time>2026-04-25T10:41:48.001Z</time></trkpt><trkpt lat="43.13477676649293" lon="11.56099281382287"><ele>216.2</ele><time>2026-04-25T10:41:49.001Z</time></trkpt><trkpt lat="43.13472111069037" lon="11.560881763322762"><ele>212.0</ele><time>2026-04-25T10:41:50.001Z</time></trkpt><trkpt lat="43.13466868660489" lon="11.560776107860528"><ele>212.0</ele><time>2026-04-25T10:41:51.001Z</time></trkpt><trkpt lat="43.134603456624255" lon="11.560650050364584"><ele>212.0</ele><time>2026-04-25T10:41:52.001Z</time></trkpt><trkpt lat="43.1345213193016" lon="11.560492896416383"><ele>212.0</ele><time>2026-04-25T10:41:53.001Z</time></trkpt><trkpt lat="43.13443424631563" lon="11.560335553394372"><ele>212.0</ele><time>2026-04-25T10:41:54.001Z</time></trkpt><trkpt lat="43.134349621436776" lon="11.560184180227427"><ele>213.0</ele><time>2026-04-25T10:41:55.001Z</time></trkpt><trkpt lat="43.13427101961677" lon="11.560044690522304"><ele>214.0</ele><time>2026-04-25T10:41:56.001Z</time></trkpt><trkpt lat="43.13419912670776" lon="11.559911334451824"><ele>215.0</ele><time>2026-04-25T10:41:57.001Z</time></trkpt><trkpt lat="43.134130221672024" lon="11.559779694154832"><ele>216.0</ele><time>2026-04-25T10:41:58.001Z</time></trkpt><trkpt lat="43.13407364302774" lon="11.559660669158845"><ele>213.0</ele><time>2026-04-25T10:41:59.001Z</time></trkpt><trkpt lat="43.13402772443923" lon="11.559537288352137"><ele>210.00000000000003</ele><time>2026-04-25T10:42:00.001Z</time></trkpt><trkpt lat="43.13399768710628" lon="11.55940451829537"><ele>207.0</ele><time>2026-04-25T10:42:01.001Z</time></trkpt><trkpt lat="43.133981408673826" lon="11.559264681550415"><ele>204.0</ele><time>2026-04-25T10:42:02.001Z</time></trkpt><trkpt lat="43.13397878473374" lon="11.559121419897739"><ele>201.0</ele><time>2026-04-25T10:42:03.001Z</time></trkpt><trkpt lat="43.133980174378564" lon="11.558949133984452"><ele>200.66666666666669</ele><time>2026-04-25T10:42:04.002Z</time></trkpt><trkpt lat="43.133991049332344" lon="11.558741953500405"><ele>200.33333333333334</ele><time>2026-04-25T10:42:05.002Z</time></trkpt><trkpt lat="43.13399903771692" lon="11.558524269190793"><ele>200.0</ele><time>2026-04-25T10:42:06.002Z</time></trkpt><trkpt lat="43.1340056515513" lon="11.558327670016352"><ele>200.0</ele><time>2026-04-25T10:42:07.002Z</time></trkpt><trkpt lat="43.13400899376322" lon="11.558147365954067"><ele>200.0</ele><time>2026-04-25T10:42:08.002Z</time></trkpt><trkpt lat="43.134004221346814" lon="11.557971258917302"><ele>200.0</ele><time>2026-04-25T10:42:09.002Z</time></trkpt><trkpt lat="43.1339893856461" lon="11.557788174631984"><ele>200.0</ele><time>2026-04-25T10:42:10.002Z</time></trkpt><trkpt lat="43.13396504787272" lon="11.557594557218287"><ele>200.0</ele><time>2026-04-25T10:42:11.002Z</time></trkpt><trkpt lat="43.1339360283545" lon="11.55738065184425"><ele>200.0</ele><time>2026-04-25T10:42:12.002Z</time></trkpt><trkpt lat="43.1339061966162" lon="11.557181055726433"><ele>200.0</ele><time>2026-04-25T10:42:13.002Z</time></trkpt><trkpt lat="43.13387881982028" lon="11.557000914754841"><ele>200.0</ele><time>2026-04-25T10:42:14.002Z</time></trkpt><trkpt lat="43.13385004775476" lon="11.556822059723393"><ele>201.25</ele><time>2026-04-25T10:42:15.002Z</time></trkpt><trkpt lat="43.133815712304234" lon="11.556643676022134"><ele>202.5</ele><time>2026-04-25T10:42:16.002Z</time></trkpt><trkpt lat="43.13378120866163" lon="11.556468702190964"><ele>203.75</ele><time>2026-04-25T10:42:17.002Z</time></trkpt><trkpt lat="43.133750524908706" lon="11.556307645373316"><ele>205.0</ele><time>2026-04-25T10:42:18.002Z</time></trkpt><trkpt lat="43.13371809703929" lon="11.556172537367098"><ele>207.0</ele><time>2026-04-25T10:42:19.002Z</time></trkpt><trkpt lat="43.1336756207165" lon="11.55606882323954"><ele>209.0</ele><time>2026-04-25T10:42:20.002Z</time></trkpt><trkpt lat="43.13361569814211" lon="11.555988971535383"><ele>211.0</ele><time>2026-04-25T10:42:21.002Z</time></trkpt><trkpt lat="43.13353998927921" lon="11.555921793389466"><ele>213.0</ele><time>2026-04-25T10:42:22.002Z</time></trkpt><trkpt lat="43.133455198880554" lon="11.55585432811989"><ele>215.0</ele><time>2026-04-25T10:42:23.002Z</time></trkpt><trkpt lat="43.133352113283266" lon="11.555834567362277"><ele>215.0</ele><time>2026-04-25T10:42:24.002Z</time></trkpt><trkpt lat="43.13324422434654" lon="11.555844652247183"><ele>215.0</ele><time>2026-04-25T10:42:25.002Z</time></trkpt><trkpt lat="43.133128605622126" lon="11.555884513469845"><ele>215.0</ele><time>2026-04-25T10:42:26.002Z</time></trkpt><trkpt lat="43.133017381386075" lon="11.555955892416128"><ele>215.0</ele><time>2026-04-25T10:42:27.002Z</time></trkpt><trkpt lat="43.13291961438952" lon="11.556059600849064"><ele>215.75</ele><time>2026-04-25T10:42:28.002Z</time></trkpt><trkpt lat="43.13282598078435" lon="11.556183870034493"><ele>216.5</ele><time>2026-04-25T10:42:29.002Z</time></trkpt><trkpt lat="43.13274067871945" lon="11.556313382603667"><ele>217.25</ele><time>2026-04-25T10:42:30.002Z</time></trkpt><trkpt lat="43.132658896279956" lon="11.55643374022762"><ele>218.0</ele><time>2026-04-25T10:42:31.002Z</time></trkpt><trkpt lat="43.132574751137604" lon="11.556558016520366"><ele>218.0</ele><time>2026-04-25T10:42:32.002Z</time></trkpt><trkpt lat="43.13249850202812" lon="11.556685468426108"><ele>218.0</ele><time>2026-04-25T10:42:33.002Z</time></trkpt><trkpt lat="43.1324158557887" lon="11.55680047152288"><ele>218.0</ele><time>2026-04-25T10:42:34.002Z</time></trkpt><trkpt lat="43.1323327922166" lon="11.556901294972015"><ele>218.0</ele><time>2026-04-25T10:42:35.002Z</time></trkpt><trkpt lat="43.13224388206023" lon="11.556992693367212"><ele>217.0</ele><time>2026-04-25T10:42:36.002Z</time></trkpt><trkpt lat="43.13214570320548" lon="11.557067247258178"><ele>216.0</ele><time>2026-04-25T10:42:37.003Z</time></trkpt><trkpt lat="43.13203927992568" lon="11.557129166356173"><ele>215.0</ele><time>2026-04-25T10:42:38.003Z</time></trkpt><trkpt lat="43.13192472465428" lon="11.55718503955668"><ele>214.0</ele><time>2026-04-25T10:42:39.003Z</time></trkpt><trkpt lat="43.131801103247206" lon="11.557242843380616"><ele>214.0</ele><time>2026-04-25T10:42:40.003Z</time></trkpt><trkpt lat="43.13167866781245" lon="11.557296954585814"><ele>214.0</ele><time>2026-04-25T10:42:41.003Z</time></trkpt><trkpt lat="43.13155991480966" lon="11.55734849333263"><ele>214.0</ele><time>2026-04-25T10:42:42.003Z</time></trkpt><trkpt lat="43.13145130044711" lon="11.557378475219583"><ele>214.0</ele><time>2026-04-25T10:42:43.003Z</time></trkpt><trkpt lat="43.13135391289601" lon="11.557380374999505"><ele>213.6</ele><time>2026-04-25T10:42:44.003Z</time></trkpt><trkpt lat="43.131269026314214" lon="11.557351323168849"><ele>213.2</ele><time>2026-04-25T10:42:45.003Z</time></trkpt><trkpt lat="43.131189442697696" lon="11.557291742537734"><ele>212.79999999999998</ele><time>2026-04-25T10:42:46.003Z</time></trkpt><trkpt lat="43.13112644767902" lon="11.557199117511203"><ele>212.39999999999998</ele><time>2026-04-25T10:42:47.003Z</time></trkpt><trkpt lat="43.13107391438161" lon="11.557089731216966"><ele>212.0</ele><time>2026-04-25T10:42:48.003Z</time></trkpt><trkpt lat="43.13104815785438" lon="11.556962551364427"><ele>215.6</ele><time>2026-04-25T10:42:49.003Z</time></trkpt><trkpt lat="43.131049904828615" lon="11.556845139103526"><ele>219.2</ele><time>2026-04-25T10:42:50.003Z</time></trkpt><trkpt lat="43.13107051430448" lon="11.556720912092995"><ele>222.8</ele><time>2026-04-25T10:42:51.003Z</time></trkpt><trkpt lat="43.131120530442345" lon="11.5566202734052"><ele>226.4</ele><time>2026-04-25T10:42:52.003Z</time></trkpt><trkpt lat="43.131194000911634" lon="11.556546366509806"><ele>230.0</ele><time>2026-04-25T10:42:53.003Z</time></trkpt><trkpt lat="43.13128579347174" lon="11.55648793566288"><ele>230.0</ele><time>2026-04-25T10:42:54.003Z</time></trkpt><trkpt lat="43.13138128207368" lon="11.556437716119245"><ele>230.0</ele><time>2026-04-25T10:42:55.003Z</time></trkpt><trkpt lat="43.13150052817081" lon="11.556355377133965"><ele>230.0</ele><time>2026-04-25T10:42:56.003Z</time></trkpt><trkpt lat="43.13162817692873" lon="11.556252289307425"><ele>230.0</ele><time>2026-04-25T10:42:57.003Z</time></trkpt><trkpt lat="43.13175104587987" lon="11.556150222922778"><ele>233.25</ele><time>2026-04-25T10:42:58.003Z</time></trkpt><trkpt lat="43.13185313286991" lon="11.556063802493199"><ele>236.5</ele><time>2026-04-25T10:42:59.003Z</time></trkpt><trkpt lat="43.131948969718906" lon="11.555973802638844"><ele>239.75</ele><time>2026-04-25T10:43:00.003Z</time></trkpt><trkpt lat="43.1320514007076" lon="11.555868088270266"><ele>243.0</ele><time>2026-04-25T10:43:01.003Z</time></trkpt><trkpt lat="43.13216955399908" lon="11.555750579606947"><ele>243.0</ele><time>2026-04-25T10:43:02.003Z</time></trkpt><trkpt lat="43.13228080137831" lon="11.555630153800292"><ele>243.0</ele><time>2026-04-25T10:43:03.003Z</time></trkpt><trkpt lat="43.13239155407755" lon="11.555516254799421"><ele>243.0</ele><time>2026-04-25T10:43:04.003Z</time></trkpt><trkpt lat="43.13249695653853" lon="11.555407762651532"><ele>243.0</ele><time>2026-04-25T10:43:05.003Z</time></trkpt><trkpt lat="43.132595971377796" lon="11.555308582255089"><ele>243.60000000000002</ele><time>2026-04-25T10:43:06Z</time></trkpt><trkpt lat="43.13268207917541" lon="11.555217065978635"><ele>244.20000000000002</ele><time>2026-04-25T10:43:07Z</time></trkpt><trkpt lat="43.132755103580294" lon="11.555134547123345"><ele>244.8</ele><time>2026-04-25T10:43:08Z</time></trkpt><trkpt lat="43.132816718980735" lon="11.555040775759032"><ele>245.4</ele><time>2026-04-25T10:43:09Z</time></trkpt><trkpt lat="43.13285496488381" lon="11.554941601320932"><ele>246.0</ele><time>2026-04-25T10:43:10Z</time></trkpt><trkpt lat="43.132875532437794" lon="11.554826209221673"><ele>246.0</ele><time>2026-04-25T10:43:11Z</time></trkpt><trkpt lat="43.13287785203716" lon="11.554704650650375"><ele>246.00000000000003</ele><time>2026-04-25T10:43:12Z</time></trkpt><trkpt lat="43.132858683183116" lon="11.554585365205858"><ele>246.00000000000003</ele><time>2026-04-25T10:43:13Z</time></trkpt><trkpt lat="43.13281905384144" lon="11.554482742898836"><ele>246.0</ele><time>2026-04-25T10:43:14Z</time></trkpt><trkpt lat="43.13275696878699" lon="11.554380044005432"><ele>246.0</ele><time>2026-04-25T10:43:15Z</time></trkpt><trkpt lat="43.13268441507983" lon="11.554277506862908"><ele>246.66666666666666</ele><time>2026-04-25T10:43:16Z</time></trkpt><trkpt lat="43.13261545654175" lon="11.554194379790793"><ele>247.33333333333331</ele><time>2026-04-25T10:43:17Z</time></trkpt><trkpt lat="43.13254946210951" lon="11.554125664959614"><ele>248.0</ele><time>2026-04-25T10:43:18Z</time></trkpt><trkpt lat="43.13248756226678" lon="11.554074720155228"><ele>248.66666666666666</ele><time>2026-04-25T10:43:19Z</time></trkpt><trkpt lat="43.13237957110961" lon="11.554031951781196"><ele>249.33333333333331</ele><time>2026-04-25T10:43:21Z</time></trkpt><trkpt lat="43.13230266464053" lon="11.55404049284606"><ele>250.0</ele><time>2026-04-25T10:43:22Z</time></trkpt><trkpt lat="43.13221882255431" lon="11.554068823852319"><ele>251.2</ele><time>2026-04-25T10:43:23Z</time></trkpt><trkpt lat="43.13213719130863" lon="11.554124690942896"><ele>252.4</ele><time>2026-04-25T10:43:24Z</time></trkpt><trkpt lat="43.1320666799725" lon="11.554204069018166"><ele>253.60000000000002</ele><time>2026-04-25T10:43:25Z</time></trkpt><trkpt lat="43.13199261648154" lon="11.554312112347446"><ele>254.8</ele><time>2026-04-25T10:43:26Z</time></trkpt><trkpt lat="43.13191192372985" lon="11.554444203402765"><ele>256.0</ele><time>2026-04-25T10:43:27Z</time></trkpt><trkpt lat="43.1318386506417" lon="11.55456407659214"><ele>256.0</ele><time>2026-04-25T10:43:28Z</time></trkpt><trkpt lat="43.13175888556463" lon="11.554685340930726"><ele>256.0</ele><time>2026-04-25T10:43:29Z</time></trkpt><trkpt lat="43.13167328478719" lon="11.554806582670867"><ele>256.0</ele><time>2026-04-25T10:43:30Z</time></trkpt><trkpt lat="43.13158793439471" lon="11.554917725834596"><ele>256.0</ele><time>2026-04-25T10:43:31Z</time></trkpt><trkpt lat="43.13149553187933" lon="11.55501744805605"><ele>257.2</ele><time>2026-04-25T10:43:32Z</time></trkpt><trkpt lat="43.13140421825776" lon="11.555095417580027"><ele>258.40000000000003</ele><time>2026-04-25T10:43:33Z</time></trkpt><trkpt lat="43.13131603431123" lon="11.555192871776637"><ele>259.6</ele><time>2026-04-25T10:43:34Z</time></trkpt><trkpt lat="43.131222912910005" lon="11.555176760837732"><ele>260.8</ele><time>2026-04-25T10:43:35Z</time></trkpt><trkpt lat="43.13112435102938" lon="11.55517295220282"><ele>262.0</ele><time>2026-04-25T10:43:36Z</time></trkpt><trkpt lat="43.13103105933031" lon="11.555149964552477"><ele>262.0</ele><time>2026-04-25T10:43:37.001Z</time></trkpt><trkpt lat="43.1309505643793" lon="11.555085430282118"><ele>262.0</ele><time>2026-04-25T10:43:38.001Z</time></trkpt><trkpt lat="43.13087299230097" lon="11.555004556020407"><ele>262.0</ele><time>2026-04-25T10:43:39.001Z</time></trkpt><trkpt lat="43.13079999685969" lon="11.554892188539794"><ele>262.0</ele><time>2026-04-25T10:43:40.001Z</time></trkpt><trkpt lat="43.130728516523526" lon="11.554767147433743"><ele>262.0</ele><time>2026-04-25T10:43:41.001Z</time></trkpt><trkpt lat="43.1306511794165" lon="11.554636652414509"><ele>263.0</ele><time>2026-04-25T10:43:42.001Z</time></trkpt><trkpt lat="43.13055351300178" lon="11.554527623897508"><ele>264.0</ele><time>2026-04-25T10:43:43.001Z</time></trkpt><trkpt lat="43.13043653792541" lon="11.554433181316716"><ele>265.0</ele><time>2026-04-25T10:43:44.001Z</time></trkpt><trkpt lat="43.13031337154465" lon="11.554330341324036"><ele>266.0</ele><time>2026-04-25T10:43:45.001Z</time></trkpt><trkpt lat="43.1302024981504" lon="11.554218025971114"><ele>266.0</ele><time>2026-04-25T10:43:46.001Z</time></trkpt><trkpt lat="43.13010524821593" lon="11.554090658863759"><ele>266.0</ele><time>2026-04-25T10:43:47.001Z</time></trkpt><trkpt lat="43.13000220299546" lon="11.553976100944977"><ele>266.0</ele><time>2026-04-25T10:43:48.001Z</time></trkpt><trkpt lat="43.129896330291736" lon="11.553882573056994"><ele>266.0</ele><time>2026-04-25T10:43:49.001Z</time></trkpt><trkpt lat="43.129785014882884" lon="11.55381645291578"><ele>266.2</ele><time>2026-04-25T10:43:50.001Z</time></trkpt><trkpt lat="43.12965374833363" lon="11.55379212086299"><ele>266.40000000000003</ele><time>2026-04-25T10:43:51.001Z</time></trkpt><trkpt lat="43.12952303462251" lon="11.553783001934967"><ele>266.6</ele><time>2026-04-25T10:43:52.001Z</time></trkpt><trkpt lat="43.12942624100104" lon="11.553770951755611"><ele>266.8</ele><time>2026-04-25T10:43:53.001Z</time></trkpt><trkpt lat="43.12936142987201" lon="11.553727111135013"><ele>267.0</ele><time>2026-04-25T10:43:54.001Z</time></trkpt><trkpt lat="43.12931784109811" lon="11.553651263028236"><ele>268.8333333333333</ele><time>2026-04-25T10:43:55.001Z</time></trkpt><trkpt lat="43.12929242979195" lon="11.553543300337408"><ele>270.6666666666667</ele><time>2026-04-25T10:43:56.001Z</time></trkpt><trkpt lat="43.129293293694786" lon="11.553424081767163"><ele>272.5</ele><time>2026-04-25T10:43:57.001Z</time></trkpt><trkpt lat="43.129310349574624" lon="11.553310854740948"><ele>274.33333333333337</ele><time>2026-04-25T10:43:58.001Z</time></trkpt><trkpt lat="43.1293601129557" lon="11.553216802246288"><ele>276.1666666666667</ele><time>2026-04-25T10:43:59.001Z</time></trkpt><trkpt lat="43.1294294717765" lon="11.553145892396019"><ele>278.0</ele><time>2026-04-25T10:44:00.001Z</time></trkpt><trkpt lat="43.1295105988559" lon="11.553108417391938"><ele>278.0</ele><time>2026-04-25T10:44:01.001Z</time></trkpt><trkpt lat="43.129600937337436" lon="11.553098429840112"><ele>278.0</ele><time>2026-04-25T10:44:02.001Z</time></trkpt><trkpt lat="43.12970456903292" lon="11.553112783297683"><ele>278.0</ele><time>2026-04-25T10:44:03.001Z</time></trkpt><trkpt lat="43.129825593658005" lon="11.553144048413902"><ele>278.0</ele><time>2026-04-25T10:44:04.001Z</time></trkpt><trkpt lat="43.129956022392875" lon="11.553191557553419"><ele>278.0</ele><time>2026-04-25T10:44:05.001Z</time></trkpt><trkpt lat="43.1300919973789" lon="11.55324604751736"><ele>278.0</ele><time>2026-04-25T10:44:06.001Z</time></trkpt><trkpt lat="43.13024061082207" lon="11.55330892474232"><ele>278.0</ele><time>2026-04-25T10:44:07.001Z</time></trkpt><trkpt lat="43.13036692645506" lon="11.553357748135355"><ele>278.0</ele><time>2026-04-25T10:44:08.001Z</time></trkpt><trkpt lat="43.13047082426173" lon="11.55339115166999"><ele>278.0</ele><time>2026-04-25T10:44:09.001Z</time></trkpt><trkpt lat="43.13056281806746" lon="11.553411023913172"><ele>278.0</ele><time>2026-04-25T10:44:10.001Z</time></trkpt><trkpt lat="43.130661703003526" lon="11.553413725465216"><ele>278.0</ele><time>2026-04-25T10:44:11.001Z</time></trkpt><trkpt lat="43.130760292996825" lon="11.553394594103622"><ele>278.0</ele><time>2026-04-25T10:44:12.001Z</time></trkpt><trkpt lat="43.13085516407229" lon="11.55334834874925"><ele>278.0</ele><time>2026-04-25T10:44:13.001Z</time></trkpt><trkpt lat="43.13093893648842" lon="11.553284636912243"><ele>279.0</ele><time>2026-04-25T10:44:14.001Z</time></trkpt><trkpt lat="43.1310067887269" lon="11.553208329843173"><ele>280.0</ele><time>2026-04-25T10:44:15.001Z</time></trkpt><trkpt lat="43.131065240302256" lon="11.553109517880644"><ele>281.0</ele><time>2026-04-25T10:44:16.001Z</time></trkpt><trkpt lat="43.131103891648934" lon="11.552987200718775"><ele>282.0</ele><time>2026-04-25T10:44:17.001Z</time></trkpt><trkpt lat="43.13112586707349" lon="11.55285673768151"><ele>283.0</ele><time>2026-04-25T10:44:18.002Z</time></trkpt><trkpt lat="43.13112722426204" lon="11.552719743729874"><ele>284.5</ele><time>2026-04-25T10:44:19.002Z</time></trkpt><trkpt lat="43.13111293582571" lon="11.552588757729685"><ele>286.0</ele><time>2026-04-25T10:44:20.002Z</time></trkpt><trkpt lat="43.13109170378021" lon="11.552478920974412"><ele>287.5</ele><time>2026-04-25T10:44:21.002Z</time></trkpt><trkpt lat="43.13107842410506" lon="11.552380901423131"><ele>289.0</ele><time>2026-04-25T10:44:22.002Z</time></trkpt><trkpt lat="43.13106564147075" lon="11.552228148104739"><ele>290.5</ele><time>2026-04-25T10:44:24.002Z</time></trkpt><trkpt lat="43.13106220200803" lon="11.552120704718476"><ele>292.0</ele><time>2026-04-25T10:44:26.002Z</time></trkpt><trkpt lat="43.13107396311614" lon="11.55202178287379"><ele>293.8</ele><time>2026-04-25T10:44:30.002Z</time></trkpt><trkpt lat="43.13108319820057" lon="11.551876811062526"><ele>295.6</ele><time>2026-04-25T10:44:50.002Z</time></trkpt><trkpt lat="43.131105354446426" lon="11.551749652109633"><ele>297.40000000000003</ele><time>2026-04-25T10:44:52.003Z</time></trkpt><trkpt lat="43.13118363980654" lon="11.551610987636154"><ele>299.2</ele><time>2026-04-25T10:44:54.003Z</time></trkpt><trkpt lat="43.13123329670861" lon="11.551530228514908"><ele>301.0</ele><time>2026-04-25T10:44:55.003Z</time></trkpt><trkpt lat="43.1312846118629" lon="11.551445831281828"><ele>301.0</ele><time>2026-04-25T10:44:56.003Z</time></trkpt><trkpt lat="43.13133353318186" lon="11.551364046980432"><ele>301.0</ele><time>2026-04-25T10:44:57.003Z</time></trkpt><trkpt lat="43.131385692827024" lon="11.551277323304197"><ele>301.0</ele><time>2026-04-25T10:44:58.003Z</time></trkpt><trkpt lat="43.1314414126468" lon="11.55117622496632"><ele>301.0</ele><time>2026-04-25T10:44:59.003Z</time></trkpt><trkpt lat="43.13150600489912" lon="11.551066893427706"><ele>301.0</ele><time>2026-04-25T10:45:00.003Z</time></trkpt><trkpt lat="43.131577533514076" lon="11.550944295392373"><ele>300.0</ele><time>2026-04-25T10:45:01.003Z</time></trkpt><trkpt lat="43.1316619923382" lon="11.55078407116203"><ele>299.0</ele><time>2026-04-25T10:45:02.003Z</time></trkpt><trkpt lat="43.131762228544716" lon="11.550595982982319"><ele>298.0</ele><time>2026-04-25T10:45:03.003Z</time></trkpt><trkpt lat="43.13187138168131" lon="11.550390769852756"><ele>301.0</ele><time>2026-04-25T10:45:04.003Z</time></trkpt><trkpt lat="43.131984747968446" lon="11.550179599266038"><ele>304.0</ele><time>2026-04-25T10:45:05.003Z</time></trkpt><trkpt lat="43.132085919117905" lon="11.549988368075994"><ele>307.0</ele><time>2026-04-25T10:45:06.003Z</time></trkpt><trkpt lat="43.13218105144826" lon="11.549805724322997"><ele>307.0</ele><time>2026-04-25T10:45:07.003Z</time></trkpt><trkpt lat="43.13227024779715" lon="11.549642043797848"><ele>307.0</ele><time>2026-04-25T10:45:08.003Z</time></trkpt><trkpt lat="43.13235260633581" lon="11.549496829379624"><ele>307.0</ele><time>2026-04-25T10:45:09.003Z</time></trkpt><trkpt lat="43.132436535159286" lon="11.54936599063078"><ele>307.0</ele><time>2026-04-25T10:45:10.003Z</time></trkpt><trkpt lat="43.13252648149834" lon="11.549256405897541"><ele>307.5</ele><time>2026-04-25T10:45:11.003Z</time></trkpt><trkpt lat="43.13263225060749" lon="11.549162935475017"><ele>308.0</ele><time>2026-04-25T10:45:11.999Z</time></trkpt><trkpt lat="43.132745705858376" lon="11.549078274340996"><ele>308.5</ele><time>2026-04-25T10:45:12.999Z</time></trkpt><trkpt lat="43.1328692631652" lon="11.548991402729639"><ele>309.0</ele><time>2026-04-25T10:45:14Z</time></trkpt><trkpt lat="43.13298844855828" lon="11.5489107624128"><ele>309.0</ele><time>2026-04-25T10:45:15Z</time></trkpt><trkpt lat="43.13309863240999" lon="11.548835760146872"><ele>309.0</ele><time>2026-04-25T10:45:16Z</time></trkpt><trkpt lat="43.1331897886979" lon="11.548761637751538"><ele>309.0</ele><time>2026-04-25T10:45:17Z</time></trkpt><trkpt lat="43.133268498324746" lon="11.548689102187796"><ele>309.0</ele><time>2026-04-25T10:45:18Z</time></trkpt><trkpt lat="43.133335065462205" lon="11.548602062930216"><ele>309.0</ele><time>2026-04-25T10:45:19Z</time></trkpt><trkpt lat="43.133386855550135" lon="11.548504926699781"><ele>309.4</ele><time>2026-04-25T10:45:20Z</time></trkpt><trkpt lat="43.133427553217615" lon="11.548386646824822"><ele>309.79999999999995</ele><time>2026-04-25T10:45:21Z</time></trkpt><trkpt lat="43.13345839694405" lon="11.548252740100054"><ele>310.20000000000005</ele><time>2026-04-25T10:45:22Z</time></trkpt><trkpt lat="43.13347712560764" lon="11.548121781267135"><ele>310.6</ele><time>2026-04-25T10:45:23Z</time></trkpt><trkpt lat="43.13348009567704" lon="11.54799220027848"><ele>311.0</ele><time>2026-04-25T10:45:24Z</time></trkpt><trkpt lat="43.133461486158154" lon="11.547860412023878"><ele>311.0</ele><time>2026-04-25T10:45:25Z</time></trkpt><trkpt lat="43.13342477580595" lon="11.54772811825787"><ele>311.0</ele><time>2026-04-25T10:45:26Z</time></trkpt><trkpt lat="43.13337864644831" lon="11.547566288025507"><ele>311.0</ele><time>2026-04-25T10:45:27Z</time></trkpt><trkpt lat="43.1333323083444" lon="11.54738016862281"><ele>311.0</ele><time>2026-04-25T10:45:28Z</time></trkpt><trkpt lat="43.13328670401126" lon="11.547179470656218"><ele>310.6666666666667</ele><time>2026-04-25T10:45:29Z</time></trkpt><trkpt lat="43.13323822149989" lon="11.546978314562116"><ele>310.3333333333333</ele><time>2026-04-25T10:45:30Z</time></trkpt><trkpt lat="43.13319025654392" lon="11.546779111421525"><ele>310.0</ele><time>2026-04-25T10:45:31Z</time></trkpt><trkpt lat="43.13314076833529" lon="11.546581888226676"><ele>305.0</ele><time>2026-04-25T10:45:32Z</time></trkpt><trkpt lat="43.13309177104035" lon="11.546379746049436"><ele>300.0</ele><time>2026-04-25T10:45:33Z</time></trkpt><trkpt lat="43.13304396847918" lon="11.546174128699723"><ele>295.0</ele><time>2026-04-25T10:45:34Z</time></trkpt><trkpt lat="43.132999452099455" lon="11.545974954381958"><ele>295.0</ele><time>2026-04-25T10:45:35Z</time></trkpt><trkpt lat="43.13295436394039" lon="11.545776021862299"><ele>295.0</ele><time>2026-04-25T10:45:36Z</time></trkpt><trkpt lat="43.13290814903333" lon="11.545580616420404"><ele>295.0</ele><time>2026-04-25T10:45:37Z</time></trkpt><trkpt lat="43.13286153105282" lon="11.545384743672818"><ele>296.0</ele><time>2026-04-25T10:45:38Z</time></trkpt><trkpt lat="43.132817349655014" lon="11.545186651054753"><ele>297.0</ele><time>2026-04-25T10:45:39Z</time></trkpt><trkpt lat="43.13277487458322" lon="11.544988065503622"><ele>298.0</ele><time>2026-04-25T10:45:40Z</time></trkpt><trkpt lat="43.13272586609104" lon="11.544784133895506"><ele>298.0</ele><time>2026-04-25T10:45:41Z</time></trkpt><trkpt lat="43.132677160816485" lon="11.5445869070049"><ele>298.0</ele><time>2026-04-25T10:45:42Z</time></trkpt><trkpt lat="43.13263095187125" lon="11.544398255994391"><ele>298.0</ele><time>2026-04-25T10:45:43Z</time></trkpt><trkpt lat="43.13258927096028" lon="11.544235571607285"><ele>298.0</ele><time>2026-04-25T10:45:44.001Z</time></trkpt><trkpt lat="43.13254981570948" lon="11.54408732745935"><ele>298.8</ele><time>2026-04-25T10:45:45.001Z</time></trkpt><trkpt lat="43.13251290633877" lon="11.543954330248395"><ele>299.6</ele><time>2026-04-25T10:45:46.001Z</time></trkpt><trkpt lat="43.13247429138904" lon="11.543833812341203"><ele>300.4</ele><time>2026-04-25T10:45:47.001Z</time></trkpt><trkpt lat="43.1324328434674" lon="11.543718441298063"><ele>301.2</ele><time>2026-04-25T10:45:48.001Z</time></trkpt><trkpt lat="43.13238229754599" lon="11.543593140127614"><ele>302.0</ele><time>2026-04-25T10:45:49.001Z</time></trkpt><trkpt lat="43.13233274883898" lon="11.543467815636603"><ele>302.0</ele><time>2026-04-25T10:45:50.001Z</time></trkpt><trkpt lat="43.13228313794587" lon="11.543339357969993"><ele>302.0</ele><time>2026-04-25T10:45:51.001Z</time></trkpt><trkpt lat="43.13223161069161" lon="11.543208268880157"><ele>302.0</ele><time>2026-04-25T10:45:52.001Z</time></trkpt><trkpt lat="43.132177362352785" lon="11.543070156827346"><ele>302.0</ele><time>2026-04-25T10:45:53.001Z</time></trkpt><trkpt lat="43.132131152549995" lon="11.542948249745638"><ele>302.0</ele><time>2026-04-25T10:45:54.001Z</time></trkpt><trkpt lat="43.13208754663947" lon="11.542829302674484"><ele>302.4</ele><time>2026-04-25T10:45:55.001Z</time></trkpt><trkpt lat="43.132042623941174" lon="11.542711034441783"><ele>302.79999999999995</ele><time>2026-04-25T10:45:56.001Z</time></trkpt><trkpt lat="43.13199048162618" lon="11.542587303142813"><ele>303.2</ele><time>2026-04-25T10:45:57.001Z</time></trkpt><trkpt lat="43.1319332526193" lon="11.542457097247494"><ele>303.59999999999997</ele><time>2026-04-25T10:45:58.001Z</time></trkpt><trkpt lat="43.131882058576664" lon="11.542335598052741"><ele>304.0</ele><time>2026-04-25T10:45:59.001Z</time></trkpt><trkpt lat="43.131837459270415" lon="11.54221545470432"><ele>304.0</ele><time>2026-04-25T10:46:00.001Z</time></trkpt><trkpt lat="43.13180401361627" lon="11.542093427925732"><ele>304.0</ele><time>2026-04-25T10:46:01.001Z</time></trkpt><trkpt lat="43.1317946330783" lon="11.541965044620575"><ele>304.0</ele><time>2026-04-25T10:46:02.001Z</time></trkpt><trkpt lat="43.13180434417163" lon="11.541822206658201"><ele>304.0</ele><time>2026-04-25T10:46:03.001Z</time></trkpt><trkpt lat="43.131831565359704" lon="11.54165916369595"><ele>304.0</ele><time>2026-04-25T10:46:04.001Z</time></trkpt><trkpt lat="43.13187175649613" lon="11.541481986391156"><ele>304.25</ele><time>2026-04-25T10:46:05.001Z</time></trkpt><trkpt lat="43.13190230034983" lon="11.541284244829246"><ele>304.5</ele><time>2026-04-25T10:46:06.001Z</time></trkpt><trkpt lat="43.13192171249594" lon="11.541090902875297"><ele>304.75</ele><time>2026-04-25T10:46:07.001Z</time></trkpt><trkpt lat="43.13194351941666" lon="11.540898921443953"><ele>305.0</ele><time>2026-04-25T10:46:08.001Z</time></trkpt><trkpt lat="43.13197138981168" lon="11.540712523996971"><ele>305.25</ele><time>2026-04-25T10:46:09.001Z</time></trkpt><trkpt lat="43.132006713698864" lon="11.540529531331297"><ele>305.5</ele><time>2026-04-25T10:46:10.001Z</time></trkpt><trkpt lat="43.13205402163301" lon="11.54035424582564"><ele>305.75</ele><time>2026-04-25T10:46:11.001Z</time></trkpt><trkpt lat="43.132102931523924" lon="11.54018283636462"><ele>306.0</ele><time>2026-04-25T10:46:12.001Z</time></trkpt><trkpt lat="43.13214705897594" lon="11.54001443384959"><ele>306.0</ele><time>2026-04-25T10:46:13.001Z</time></trkpt><trkpt lat="43.132176315062594" lon="11.539857675481258"><ele>306.0</ele><time>2026-04-25T10:46:14.002Z</time></trkpt><trkpt lat="43.13219172590409" lon="11.539697085029436"><ele>306.0</ele><time>2026-04-25T10:46:15.002Z</time></trkpt><trkpt lat="43.13219326428774" lon="11.539531680379453"><ele>306.0</ele><time>2026-04-25T10:46:16.002Z</time></trkpt><trkpt lat="43.1321901683779" lon="11.539360208637703"><ele>304.75</ele><time>2026-04-25T10:46:17.002Z</time></trkpt><trkpt lat="43.1321775834549" lon="11.539183517484226"><ele>303.5</ele><time>2026-04-25T10:46:18.002Z</time></trkpt><trkpt lat="43.13218415989827" lon="11.539008223873177"><ele>302.25</ele><time>2026-04-25T10:46:19.002Z</time></trkpt><trkpt lat="43.13220120133266" lon="11.538843708758638"><ele>301.0</ele><time>2026-04-25T10:46:20.002Z</time></trkpt><trkpt lat="43.13222416010435" lon="11.538677297329516"><ele>299.0</ele><time>2026-04-25T10:46:21.002Z</time></trkpt><trkpt lat="43.13224607838093" lon="11.538507479297483"><ele>297.0</ele><time>2026-04-25T10:46:22.002Z</time></trkpt><trkpt lat="43.13227676295486" lon="11.538338712961677"><ele>295.0</ele><time>2026-04-25T10:46:23.002Z</time></trkpt><trkpt lat="43.13231585368824" lon="11.538173662824269"><ele>293.0</ele><time>2026-04-25T10:46:24.002Z</time></trkpt><trkpt lat="43.13236357415916" lon="11.538011092724151"><ele>290.5</ele><time>2026-04-25T10:46:25.002Z</time></trkpt><trkpt lat="43.13241314882767" lon="11.537856003497973"><ele>288.0</ele><time>2026-04-25T10:46:26.002Z</time></trkpt><trkpt lat="43.13246216692788" lon="11.537710008815196"><ele>285.5</ele><time>2026-04-25T10:46:27.002Z</time></trkpt><trkpt lat="43.132507439003575" lon="11.537569913944818"><ele>283.0</ele><time>2026-04-25T10:46:28.002Z</time></trkpt><trkpt lat="43.132556218784735" lon="11.537428701892932"><ele>283.0</ele><time>2026-04-25T10:46:29.002Z</time></trkpt><trkpt lat="43.132609894945645" lon="11.53729221432204"><ele>283.0</ele><time>2026-04-25T10:46:30.002Z</time></trkpt><trkpt lat="43.13266775862068" lon="11.537168690126101"><ele>283.0</ele><time>2026-04-25T10:46:31.002Z</time></trkpt><trkpt lat="43.13272817142899" lon="11.537049868235163"><ele>283.0</ele><time>2026-04-25T10:46:32.002Z</time></trkpt><trkpt lat="43.132803671205075" lon="11.536937911723186"><ele>283.0</ele><time>2026-04-25T10:46:33.002Z</time></trkpt><trkpt lat="43.132889182869704" lon="11.536820820122749"><ele>281.25</ele><time>2026-04-25T10:46:34.002Z</time></trkpt><trkpt lat="43.13297955166641" lon="11.536697262193236"><ele>279.5</ele><time>2026-04-25T10:46:35.002Z</time></trkpt><trkpt lat="43.13307368396758" lon="11.536569624052365"><ele>277.75</ele><time>2026-04-25T10:46:36.002Z</time></trkpt><trkpt lat="43.13316651912982" lon="11.536453794294854"><ele>276.0</ele><time>2026-04-25T10:46:37.002Z</time></trkpt><trkpt lat="43.133251074414716" lon="11.536340882433837"><ele>276.0</ele><time>2026-04-25T10:46:38.002Z</time></trkpt><trkpt lat="43.13332919796967" lon="11.536222849135278"><ele>276.0</ele><time>2026-04-25T10:46:39.002Z</time></trkpt><trkpt lat="43.133405310766165" lon="11.536096612662547"><ele>276.0</ele><time>2026-04-25T10:46:40.002Z</time></trkpt><trkpt lat="43.13347929183209" lon="11.535954960297996"><ele>276.0</ele><time>2026-04-25T10:46:41.002Z</time></trkpt><trkpt lat="43.13355640458968" lon="11.535798517625413"><ele>275.25</ele><time>2026-04-25T10:46:42.002Z</time></trkpt><trkpt lat="43.13363486484242" lon="11.53562396777621"><ele>274.5</ele><time>2026-04-25T10:46:43.002Z</time></trkpt><trkpt lat="43.13371110875188" lon="11.535446363331799"><ele>273.75</ele><time>2026-04-25T10:46:44.002Z</time></trkpt><trkpt lat="43.133783717043976" lon="11.535267991154468"><ele>273.0</ele><time>2026-04-25T10:46:45.002Z</time></trkpt><trkpt lat="43.133858458440265" lon="11.535090919351385"><ele>271.75</ele><time>2026-04-25T10:46:46.002Z</time></trkpt><trkpt lat="43.13393273720198" lon="11.5349182366925"><ele>270.5</ele><time>2026-04-25T10:46:47.003Z</time></trkpt><trkpt lat="43.1340073166757" lon="11.534748276240933"><ele>269.25</ele><time>2026-04-25T10:46:48.003Z</time></trkpt><trkpt lat="43.13408219274858" lon="11.534578164258813"><ele>268.0</ele><time>2026-04-25T10:46:49.003Z</time></trkpt><trkpt lat="43.13415563463962" lon="11.534411129056526"><ele>268.0</ele><time>2026-04-25T10:46:50.003Z</time></trkpt><trkpt lat="43.13423203777288" lon="11.53423755076136"><ele>268.0</ele><time>2026-04-25T10:46:51.003Z</time></trkpt><trkpt lat="43.13430193376995" lon="11.5340650085243"><ele>268.0</ele><time>2026-04-25T10:46:52.003Z</time></trkpt><trkpt lat="43.13436844410876" lon="11.533887427160382"><ele>268.0</ele><time>2026-04-25T10:46:53.003Z</time></trkpt><trkpt lat="43.13443207813468" lon="11.533704576667404"><ele>267.0</ele><time>2026-04-25T10:46:54.003Z</time></trkpt><trkpt lat="43.13449382519291" lon="11.53351644962674"><ele>266.0</ele><time>2026-04-25T10:46:55.003Z</time></trkpt><trkpt lat="43.134552680720276" lon="11.533321532246328"><ele>265.0</ele><time>2026-04-25T10:46:56.003Z</time></trkpt><trkpt lat="43.13460406670362" lon="11.533139354430554"><ele>264.0</ele><time>2026-04-25T10:46:57.003Z</time></trkpt><trkpt lat="43.13465348404156" lon="11.532970255699286"><ele>263.75</ele><time>2026-04-25T10:46:58.003Z</time></trkpt><trkpt lat="43.134701244427156" lon="11.532795656740262"><ele>263.5</ele><time>2026-04-25T10:46:59.003Z</time></trkpt><trkpt lat="43.13474403117228" lon="11.532622261808408"><ele>263.25</ele><time>2026-04-25T10:47:00.003Z</time></trkpt><trkpt lat="43.13478510999117" lon="11.532454184855926"><ele>263.0</ele><time>2026-04-25T10:47:01.003Z</time></trkpt><trkpt lat="43.13482293229171" lon="11.532284631579921"><ele>263.0</ele><time>2026-04-25T10:47:02.003Z</time></trkpt><trkpt lat="43.1348583865345" lon="11.53211683160272"><ele>263.0</ele><time>2026-04-25T10:47:03.003Z</time></trkpt><trkpt lat="43.13489297510335" lon="11.53194815052622"><ele>263.0</ele><time>2026-04-25T10:47:04.003Z</time></trkpt><trkpt lat="43.13492150765043" lon="11.531784471011967"><ele>263.0</ele><time>2026-04-25T10:47:05.003Z</time></trkpt><trkpt lat="43.13494459859197" lon="11.53162139833347"><ele>265.0</ele><time>2026-04-25T10:47:06.003Z</time></trkpt><trkpt lat="43.13496739532186" lon="11.531458011234864"><ele>267.0</ele><time>2026-04-25T10:47:07.003Z</time></trkpt><trkpt lat="43.13498990185873" lon="11.531293786686648"><ele>269.0</ele><time>2026-04-25T10:47:08.003Z</time></trkpt><trkpt lat="43.13501218230073" lon="11.531129361980142"><ele>271.0</ele><time>2026-04-25T10:47:09.003Z</time></trkpt><trkpt lat="43.135032153757074" lon="11.530969265639216"><ele>271.8</ele><time>2026-04-25T10:47:10.003Z</time></trkpt><trkpt lat="43.135044637369006" lon="11.530824462588404"><ele>272.6</ele><time>2026-04-25T10:47:11.003Z</time></trkpt><trkpt lat="43.13504856404738" lon="11.530687555017414"><ele>273.4</ele><time>2026-04-25T10:47:12.003Z</time></trkpt><trkpt lat="43.13503512038984" lon="11.530559444661442"><ele>274.2</ele><time>2026-04-25T10:47:13.003Z</time></trkpt><trkpt lat="43.13500096451067" lon="11.530433869793976"><ele>275.0</ele><time>2026-04-25T10:47:14.003Z</time></trkpt><trkpt lat="43.13495576534436" lon="11.530305389162523"><ele>275.0</ele><time>2026-04-25T10:47:15.003Z</time></trkpt><trkpt lat="43.13490957580723" lon="11.530173562454694"><ele>275.0</ele><time>2026-04-25T10:47:16.003Z</time></trkpt><trkpt lat="43.1348583606634" lon="11.530031957906461"><ele>275.0</ele><time>2026-04-25T10:47:17.003Z</time></trkpt><trkpt lat="43.134807210537716" lon="11.529883619863789"><ele>275.0</ele><time>2026-04-25T10:47:18Z</time></trkpt><trkpt lat="43.1347554143862" lon="11.5297345688537"><ele>272.4</ele><time>2026-04-25T10:47:19Z</time></trkpt><trkpt lat="43.13470848340597" lon="11.529592725752222"><ele>269.8</ele><time>2026-04-25T10:47:20Z</time></trkpt><trkpt lat="43.13465849150797" lon="11.529455652895496"><ele>267.2</ele><time>2026-04-25T10:47:21Z</time></trkpt><trkpt lat="43.13461232563367" lon="11.529320583948396"><ele>264.6</ele><time>2026-04-25T10:47:22Z</time></trkpt><trkpt lat="43.134561625000906" lon="11.529191491980388"><ele>262.0</ele><time>2026-04-25T10:47:23Z</time></trkpt><trkpt lat="43.13451202119661" lon="11.529067654297702"><ele>262.0</ele><time>2026-04-25T10:47:24Z</time></trkpt><trkpt lat="43.13446072685685" lon="11.52894612339491"><ele>262.0</ele><time>2026-04-25T10:47:25Z</time></trkpt><trkpt lat="43.13441551349139" lon="11.52882852324693"><ele>262.0</ele><time>2026-04-25T10:47:26Z</time></trkpt><trkpt lat="43.13437914949779" lon="11.528711319619257"><ele>262.0</ele><time>2026-04-25T10:47:27Z</time></trkpt><trkpt lat="43.13435952934177" lon="11.528582236692175"><ele>262.0</ele><time>2026-04-25T10:47:28Z</time></trkpt><trkpt lat="43.13434789405084" lon="11.528454981361598"><ele>262.2</ele><time>2026-04-25T10:47:29Z</time></trkpt><trkpt lat="43.13434662229109" lon="11.52832153867"><ele>262.4</ele><time>2026-04-25T10:47:30Z</time></trkpt><trkpt lat="43.134358860937304" lon="11.528187979411667"><ele>262.6</ele><time>2026-04-25T10:47:31Z</time></trkpt><trkpt lat="43.1343718082351" lon="11.52804999712738"><ele>262.8</ele><time>2026-04-25T10:47:32Z</time></trkpt><trkpt lat="43.134379407729305" lon="11.527921627217232"><ele>263.0</ele><time>2026-04-25T10:47:33Z</time></trkpt><trkpt lat="43.13438763317063" lon="11.527774688397917"><ele>262.25</ele><time>2026-04-25T10:47:34Z</time></trkpt><trkpt lat="43.13439823307869" lon="11.527624979769413"><ele>261.5</ele><time>2026-04-25T10:47:35Z</time></trkpt><trkpt lat="43.134415907499786" lon="11.527468702316348"><ele>260.75</ele><time>2026-04-25T10:47:36Z</time></trkpt><trkpt lat="43.13442779268346" lon="11.527310318376994"><ele>260.0</ele><time>2026-04-25T10:47:37Z</time></trkpt><trkpt lat="43.13443931730349" lon="11.527155221185641"><ele>258.5</ele><time>2026-04-25T10:47:38Z</time></trkpt><trkpt lat="43.134450430363856" lon="11.52699683251755"><ele>257.0</ele><time>2026-04-25T10:47:39Z</time></trkpt><trkpt lat="43.13446104447418" lon="11.526839215802898"><ele>255.5</ele><time>2026-04-25T10:47:40Z</time></trkpt><trkpt lat="43.134471209152785" lon="11.526681396116388"><ele>254.0</ele><time>2026-04-25T10:47:41Z</time></trkpt><trkpt lat="43.134482650008074" lon="11.526521476335606"><ele>254.0</ele><time>2026-04-25T10:47:42Z</time></trkpt><trkpt lat="43.134496515393714" lon="11.526365391014814"><ele>254.0</ele><time>2026-04-25T10:47:43Z</time></trkpt><trkpt lat="43.13451162997195" lon="11.526208997123529"><ele>254.0</ele><time>2026-04-25T10:47:44Z</time></trkpt><trkpt lat="43.134529112933954" lon="11.526053225150719"><ele>254.0</ele><time>2026-04-25T10:47:45Z</time></trkpt><trkpt lat="43.13455532716121" lon="11.525900785239585"><ele>253.0</ele><time>2026-04-25T10:47:46Z</time></trkpt><trkpt lat="43.13460277001652" lon="11.525753129830212"><ele>252.0</ele><time>2026-04-25T10:47:47Z</time></trkpt><trkpt lat="43.1346721882855" lon="11.525611187524715"><ele>251.0</ele><time>2026-04-25T10:47:48.001Z</time></trkpt><trkpt lat="43.13473768496647" lon="11.525468085428715"><ele>250.0</ele><time>2026-04-25T10:47:49.001Z</time></trkpt><trkpt lat="43.134795346336425" lon="11.525308225669534"><ele>249.75</ele><time>2026-04-25T10:47:50.001Z</time></trkpt><trkpt lat="43.13484832350853" lon="11.52515080410085"><ele>249.5</ele><time>2026-04-25T10:47:51.001Z</time></trkpt><trkpt lat="43.134900967679954" lon="11.524990535409492"><ele>249.25</ele><time>2026-04-25T10:47:52.001Z</time></trkpt><trkpt lat="43.13494612650893" lon="11.52481942749728"><ele>249.0</ele><time>2026-04-25T10:47:53.001Z</time></trkpt><trkpt lat="43.13498612499696" lon="11.524664825267617"><ele>249.6</ele><time>2026-04-25T10:47:54.001Z</time></trkpt><trkpt lat="43.1350245899915" lon="11.524513192446273"><ele>250.2</ele><time>2026-04-25T10:47:55.001Z</time></trkpt><trkpt lat="43.1350473692361" lon="11.524364524304406"><ele>250.79999999999998</ele><time>2026-04-25T10:47:56.001Z</time></trkpt><trkpt lat="43.135054869161415" lon="11.524221309752853"><ele>251.39999999999998</ele><time>2026-04-25T10:47:57.001Z</time></trkpt><trkpt lat="43.13505007476229" lon="11.524079276929307"><ele>252.0</ele><time>2026-04-25T10:47:58.001Z</time></trkpt><trkpt lat="43.135042618232" lon="11.523927822112814"><ele>252.0</ele><time>2026-04-25T10:47:59.001Z</time></trkpt><trkpt lat="43.135033033130775" lon="11.523778356394205"><ele>252.0</ele><time>2026-04-25T10:48:00.001Z</time></trkpt><trkpt lat="43.135036508535286" lon="11.523628341610108"><ele>252.0</ele><time>2026-04-25T10:48:01.001Z</time></trkpt><trkpt lat="43.135033576983744" lon="11.523471308105604"><ele>252.0</ele><time>2026-04-25T10:48:02.001Z</time></trkpt><trkpt lat="43.135024781717824" lon="11.5233133219094"><ele>252.0</ele><time>2026-04-25T10:48:03.001Z</time></trkpt><trkpt lat="43.13501355846792" lon="11.523155599511078"><ele>251.0</ele><time>2026-04-25T10:48:04.001Z</time></trkpt><trkpt lat="43.13500068999527" lon="11.523000439897384"><ele>250.0</ele><time>2026-04-25T10:48:05.001Z</time></trkpt><trkpt lat="43.134985087244154" lon="11.522846628450338"><ele>249.0</ele><time>2026-04-25T10:48:06.001Z</time></trkpt><trkpt lat="43.134968046353066" lon="11.522698442456896"><ele>248.0</ele><time>2026-04-25T10:48:07.001Z</time></trkpt><trkpt lat="43.134961132748195" lon="11.522557139780968"><ele>247.0</ele><time>2026-04-25T10:48:08.001Z</time></trkpt><trkpt lat="43.13495819099835" lon="11.52241977677156"><ele>245.99999999999997</ele><time>2026-04-25T10:48:09.001Z</time></trkpt><trkpt lat="43.134962774610486" lon="11.522290519265953"><ele>245.0</ele><time>2026-04-25T10:48:10.001Z</time></trkpt><trkpt lat="43.13497099152811" lon="11.522165516034006"><ele>244.0</ele><time>2026-04-25T10:48:11.001Z</time></trkpt><trkpt lat="43.13497939706369" lon="11.522048354806415"><ele>243.0</ele><time>2026-04-25T10:48:12.001Z</time></trkpt><trkpt lat="43.13499014890963" lon="11.52193683022855"><ele>241.99999999999997</ele><time>2026-04-25T10:48:13.001Z</time></trkpt><trkpt lat="43.13499693453513" lon="11.521843194992632"><ele>241.0</ele><time>2026-04-25T10:48:14.001Z</time></trkpt><trkpt lat="43.13500172988968" lon="11.521697779480126"><ele>240.20000000000002</ele><time>2026-04-25T10:48:16.001Z</time></trkpt><trkpt lat="43.13500070771731" lon="11.521596393339394"><ele>239.40000000000003</ele><time>2026-04-25T10:48:19.001Z</time></trkpt><trkpt lat="43.13498268030637" lon="11.521496351175868"><ele>238.6</ele><time>2026-04-25T10:49:14.003Z</time></trkpt><trkpt lat="43.13498718829167" lon="11.521342846858264"><ele>237.8</ele><time>2026-04-25T10:49:16.003Z</time></trkpt><trkpt lat="43.13499202388655" lon="11.521178330697918"><ele>237.0</ele><time>2026-04-25T10:49:18.003Z</time></trkpt><trkpt lat="43.134992552092804" lon="11.521077116454675"><ele>236.8</ele><time>2026-04-25T10:49:19.003Z</time></trkpt><trkpt lat="43.13499035925713" lon="11.520959617488641"><ele>236.6</ele><time>2026-04-25T10:49:20.003Z</time></trkpt><trkpt lat="43.13498844971148" lon="11.520833058144332"><ele>236.40000000000003</ele><time>2026-04-25T10:49:21.003Z</time></trkpt><trkpt lat="43.134982516324705" lon="11.520699595874266"><ele>236.20000000000002</ele><time>2026-04-25T10:49:22.003Z</time></trkpt><trkpt lat="43.134970076783375" lon="11.520569379782591"><ele>236.0</ele><time>2026-04-25T10:49:23.003Z</time></trkpt><trkpt lat="43.134952021395925" lon="11.520435622099148"><ele>237.20000000000002</ele><time>2026-04-25T10:49:24Z</time></trkpt><trkpt lat="43.134926891220864" lon="11.52029425761475"><ele>238.40000000000003</ele><time>2026-04-25T10:49:25Z</time></trkpt><trkpt lat="43.13489869693639" lon="11.52015119859189"><ele>239.6</ele><time>2026-04-25T10:49:26Z</time></trkpt><trkpt lat="43.13486805367025" lon="11.520008710807776"><ele>240.8</ele><time>2026-04-25T10:49:27Z</time></trkpt><trkpt lat="43.13483552082377" lon="11.519864716191597"><ele>242.0</ele><time>2026-04-25T10:49:28Z</time></trkpt><trkpt lat="43.13480140133361" lon="11.51972240590444"><ele>239.6</ele><time>2026-04-25T10:49:29Z</time></trkpt><trkpt lat="43.13476381379381" lon="11.519586669689275"><ele>237.2</ele><time>2026-04-25T10:49:30Z</time></trkpt><trkpt lat="43.13472890996219" lon="11.519453628789412"><ele>234.8</ele><time>2026-04-25T10:49:31Z</time></trkpt><trkpt lat="43.13469704027168" lon="11.519311137939244"><ele>232.4</ele><time>2026-04-25T10:49:32Z</time></trkpt><trkpt lat="43.13467501010061" lon="11.519160952100657"><ele>230.0</ele><time>2026-04-25T10:49:33Z</time></trkpt><trkpt lat="43.1346601805942" lon="11.519002882214389"><ele>230.0</ele><time>2026-04-25T10:49:34Z</time></trkpt><trkpt lat="43.13464859279003" lon="11.518836718212674"><ele>230.0</ele><time>2026-04-25T10:49:35Z</time></trkpt><trkpt lat="43.13464033937624" lon="11.518668789661534"><ele>230.0</ele><time>2026-04-25T10:49:36Z</time></trkpt><trkpt lat="43.13463651107467" lon="11.518501141420444"><ele>230.0</ele><time>2026-04-25T10:49:37Z</time></trkpt><trkpt lat="43.13463880536134" lon="11.518335773721027"><ele>232.6</ele><time>2026-04-25T10:49:38Z</time></trkpt><trkpt lat="43.13464773377665" lon="11.518176867209316"><ele>235.2</ele><time>2026-04-25T10:49:39Z</time></trkpt><trkpt lat="43.134661255985456" lon="11.518033339461361"><ele>237.8</ele><time>2026-04-25T10:49:40Z</time></trkpt><trkpt lat="43.134684195004596" lon="11.517893109141925"><ele>240.4</ele><time>2026-04-25T10:49:41Z</time></trkpt><trkpt lat="43.134721706267825" lon="11.517763315634932"><ele>243.0</ele><time>2026-04-25T10:49:42Z</time></trkpt><trkpt lat="43.134783025917585" lon="11.517640405756218"><ele>244.25</ele><time>2026-04-25T10:49:43Z</time></trkpt><trkpt lat="43.13485941929513" lon="11.517526596145391"><ele>245.5</ele><time>2026-04-25T10:49:44Z</time></trkpt><trkpt lat="43.13494735747194" lon="11.517409671722298"><ele>246.75</ele><time>2026-04-25T10:49:45Z</time></trkpt><trkpt lat="43.135030228778696" lon="11.517284605344352"><ele>248.0</ele><time>2026-04-25T10:49:46Z</time></trkpt><trkpt lat="43.135108797908686" lon="11.517151767893045"><ele>246.0</ele><time>2026-04-25T10:49:47Z</time></trkpt><trkpt lat="43.13518533731457" lon="11.517016910965513"><ele>244.0</ele><time>2026-04-25T10:49:48Z</time></trkpt><trkpt lat="43.13527051549891" lon="11.516881559731644"><ele>242.0</ele><time>2026-04-25T10:49:49Z</time></trkpt><trkpt lat="43.135347794958605" lon="11.516749108083076"><ele>240.0</ele><time>2026-04-25T10:49:50Z</time></trkpt><trkpt lat="43.135426247343496" lon="11.516615990406178"><ele>240.0</ele><time>2026-04-25T10:49:51Z</time></trkpt><trkpt lat="43.13550195342711" lon="11.516478225947102"><ele>240.0</ele><time>2026-04-25T10:49:52.001Z</time></trkpt><trkpt lat="43.135578917253916" lon="11.5163422018936"><ele>240.0</ele><time>2026-04-25T10:49:53.001Z</time></trkpt><trkpt lat="43.13565847489444" lon="11.516208527543215"><ele>240.0</ele><time>2026-04-25T10:49:54.001Z</time></trkpt><trkpt lat="43.135745045017636" lon="11.516080364851408"><ele>237.25</ele><time>2026-04-25T10:49:55.001Z</time></trkpt><trkpt lat="43.135844056978314" lon="11.515967993635655"><ele>234.5</ele><time>2026-04-25T10:49:56.001Z</time></trkpt><trkpt lat="43.1359460200715" lon="11.515875681930458"><ele>231.75</ele><time>2026-04-25T10:49:57.001Z</time></trkpt><trkpt lat="43.13604539849409" lon="11.515787500813975"><ele>229.0</ele><time>2026-04-25T10:49:58.001Z</time></trkpt><trkpt lat="43.13613798134353" lon="11.515691300989689"><ele>229.0</ele><time>2026-04-25T10:49:59.001Z</time></trkpt><trkpt lat="43.13621625432162" lon="11.515579949665689"><ele>228.99999999999997</ele><time>2026-04-25T10:50:00.001Z</time></trkpt><trkpt lat="43.1362714414367" lon="11.515451284039045"><ele>228.99999999999997</ele><time>2026-04-25T10:50:01.001Z</time></trkpt><trkpt lat="43.13630424396407" lon="11.51530660826415"><ele>229.0</ele><time>2026-04-25T10:50:02.001Z</time></trkpt><trkpt lat="43.13631640210251" lon="11.515151600046284"><ele>229.0</ele><time>2026-04-25T10:50:03.001Z</time></trkpt><trkpt lat="43.13631969450273" lon="11.514989618645254"><ele>229.0</ele><time>2026-04-25T10:50:04.001Z</time></trkpt><trkpt lat="43.13631542598032" lon="11.514820959362083"><ele>229.0</ele><time>2026-04-25T10:50:05.001Z</time></trkpt><trkpt lat="43.13629590600534" lon="11.514659713882144"><ele>229.0</ele><time>2026-04-25T10:50:06.001Z</time></trkpt><trkpt lat="43.13626157927119" lon="11.514505704599614"><ele>229.0</ele><time>2026-04-25T10:50:07.001Z</time></trkpt><trkpt lat="43.13621830615316" lon="11.51435821108423"><ele>229.0</ele><time>2026-04-25T10:50:08.001Z</time></trkpt><trkpt lat="43.136139197117146" lon="11.514221891101064"><ele>229.0</ele><time>2026-04-25T10:50:09.001Z</time></trkpt><trkpt lat="43.13606082732763" lon="11.51408278454484"><ele>229.0</ele><time>2026-04-25T10:50:10.001Z</time></trkpt><trkpt lat="43.13597969488314" lon="11.513940025575325"><ele>229.0</ele><time>2026-04-25T10:50:11.001Z</time></trkpt><trkpt lat="43.135905387617655" lon="11.513798533328588"><ele>227.25</ele><time>2026-04-25T10:50:12.001Z</time></trkpt><trkpt lat="43.135834621043756" lon="11.513658869692213"><ele>225.5</ele><time>2026-04-25T10:50:13.001Z</time></trkpt><trkpt lat="43.13576922030053" lon="11.51351538058026"><ele>223.75</ele><time>2026-04-25T10:50:14.001Z</time></trkpt><trkpt lat="43.13570582853673" lon="11.513367335880423"><ele>222.0</ele><time>2026-04-25T10:50:15.001Z</time></trkpt><trkpt lat="43.135643086292895" lon="11.51322429467507"><ele>223.66666666666669</ele><time>2026-04-25T10:50:16.001Z</time></trkpt><trkpt lat="43.13552583615966" lon="11.512886503642925"><ele>225.33333333333334</ele><time>2026-04-25T10:50:18.001Z</time></trkpt><trkpt lat="43.135478369848855" lon="11.512716390072775"><ele>227.0</ele><time>2026-04-25T10:50:19.001Z</time></trkpt><trkpt lat="43.13543225546527" lon="11.512542057983854"><ele>227.0</ele><time>2026-04-25T10:50:20.001Z</time></trkpt><trkpt lat="43.13537786475168" lon="11.51237816349104"><ele>227.0</ele><time>2026-04-25T10:50:21.001Z</time></trkpt><trkpt lat="43.135309505620164" lon="11.512224359695901"><ele>227.0</ele><time>2026-04-25T10:50:22.001Z</time></trkpt><trkpt lat="43.135222300335094" lon="11.512074199945127"><ele>227.0</ele><time>2026-04-25T10:50:23.001Z</time></trkpt><trkpt lat="43.13513392339077" lon="11.511925938373503"><ele>228.0</ele><time>2026-04-25T10:50:24.001Z</time></trkpt><trkpt lat="43.13504423390691" lon="11.511779662857178"><ele>229.0</ele><time>2026-04-25T10:50:25.001Z</time></trkpt><trkpt lat="43.13496351709172" lon="11.511635437912435"><ele>230.0</ele><time>2026-04-25T10:50:26.001Z</time></trkpt><trkpt lat="43.13489006909066" lon="11.511490319204231"><ele>231.0</ele><time>2026-04-25T10:50:27.002Z</time></trkpt><trkpt lat="43.13482152154463" lon="11.51134523323548"><ele>233.0</ele><time>2026-04-25T10:50:28.002Z</time></trkpt><trkpt lat="43.13475638253088" lon="11.511198394905866"><ele>235.0</ele><time>2026-04-25T10:50:29.002Z</time></trkpt><trkpt lat="43.13469524993176" lon="11.511051372891929"><ele>237.0</ele><time>2026-04-25T10:50:30.002Z</time></trkpt><trkpt lat="43.134639909817956" lon="11.510917543608688"><ele>239.0</ele><time>2026-04-25T10:50:31.002Z</time></trkpt><trkpt lat="43.13458504615057" lon="11.510797932699097"><ele>239.0</ele><time>2026-04-25T10:50:32.002Z</time></trkpt><trkpt lat="43.134530475032946" lon="11.510682348612809"><ele>238.99999999999997</ele><time>2026-04-25T10:50:33.002Z</time></trkpt><trkpt lat="43.13447351851723" lon="11.510563790176285"><ele>238.99999999999997</ele><time>2026-04-25T10:50:34.002Z</time></trkpt><trkpt lat="43.134421202197174" lon="11.510447693797405"><ele>239.0</ele><time>2026-04-25T10:50:35.002Z</time></trkpt><trkpt lat="43.13436643278518" lon="11.510331087945298"><ele>239.0</ele><time>2026-04-25T10:50:36.002Z</time></trkpt><trkpt lat="43.134308799341554" lon="11.510209882086112"><ele>237.5</ele><time>2026-04-25T10:50:37.002Z</time></trkpt><trkpt lat="43.13424992816612" lon="11.510075103142562"><ele>236.0</ele><time>2026-04-25T10:50:38.002Z</time></trkpt><trkpt lat="43.13418867399501" lon="11.509944731897658"><ele>234.5</ele><time>2026-04-25T10:50:39.002Z</time></trkpt><trkpt lat="43.134128448823425" lon="11.509813839139088"><ele>233.0</ele><time>2026-04-25T10:50:40.002Z</time></trkpt><trkpt lat="43.134067610259386" lon="11.50968117875834"><ele>231.25</ele><time>2026-04-25T10:50:41.002Z</time></trkpt><trkpt lat="43.134007104076204" lon="11.509549680432565"><ele>229.5</ele><time>2026-04-25T10:50:42.002Z</time></trkpt><trkpt lat="43.13394579937086" lon="11.509416822109994"><ele>227.75</ele><time>2026-04-25T10:50:43.002Z</time></trkpt><trkpt lat="43.13388666097503" lon="11.50927737073426"><ele>226.0</ele><time>2026-04-25T10:50:44.002Z</time></trkpt><trkpt lat="43.133827273985915" lon="11.509123218340672"><ele>226.0</ele><time>2026-04-25T10:50:45.002Z</time></trkpt><trkpt lat="43.13377520319522" lon="11.508942261259385"><ele>226.0</ele><time>2026-04-25T10:50:46.002Z</time></trkpt><trkpt lat="43.13372998948941" lon="11.508750225849353"><ele>226.0</ele><time>2026-04-25T10:50:47.002Z</time></trkpt><trkpt lat="43.13368305662157" lon="11.508557860945336"><ele>226.0</ele><time>2026-04-25T10:50:48.002Z</time></trkpt><trkpt lat="43.13363938743308" lon="11.508375311303473"><ele>224.5</ele><time>2026-04-25T10:50:49.002Z</time></trkpt><trkpt lat="43.13360008040478" lon="11.508196588625554"><ele>223.0</ele><time>2026-04-25T10:50:50.002Z</time></trkpt><trkpt lat="43.1335670382659" lon="11.508026199829374"><ele>221.5</ele><time>2026-04-25T10:50:51.002Z</time></trkpt><trkpt lat="43.13354716734278" lon="11.507849792959009"><ele>220.0</ele><time>2026-04-25T10:50:52.002Z</time></trkpt><trkpt lat="43.133535117628526" lon="11.507661542163003"><ele>218.5</ele><time>2026-04-25T10:50:53.002Z</time></trkpt><trkpt lat="43.13354172720498" lon="11.507464799818973"><ele>217.0</ele><time>2026-04-25T10:50:54.002Z</time></trkpt><trkpt lat="43.133555581714916" lon="11.50727501617631"><ele>215.5</ele><time>2026-04-25T10:50:55.002Z</time></trkpt><trkpt lat="43.13357187247896" lon="11.507084292017064"><ele>214.0</ele><time>2026-04-25T10:50:56.002Z</time></trkpt><trkpt lat="43.13360143043917" lon="11.506881165823529"><ele>213.33333333333331</ele><time>2026-04-25T10:50:57.002Z</time></trkpt><trkpt lat="43.13362984000113" lon="11.506680069346624"><ele>212.66666666666669</ele><time>2026-04-25T10:50:58.002Z</time></trkpt><trkpt lat="43.13365927929118" lon="11.506465541353249"><ele>212.0</ele><time>2026-04-25T10:50:59.002Z</time></trkpt><trkpt lat="43.13369063777376" lon="11.506232407928747"><ele>211.0</ele><time>2026-04-25T10:51:00.002Z</time></trkpt><trkpt lat="43.13371694377952" lon="11.506018663102045"><ele>210.0</ele><time>2026-04-25T10:51:01.003Z</time></trkpt><trkpt lat="43.13374160537822" lon="11.50582106313284"><ele>209.0</ele><time>2026-04-25T10:51:02.003Z</time></trkpt><trkpt lat="43.13376663127398" lon="11.505622331511182"><ele>209.0</ele><time>2026-04-25T10:51:03.003Z</time></trkpt><trkpt lat="43.133786855636856" lon="11.50542777754992"><ele>209.0</ele><time>2026-04-25T10:51:04.003Z</time></trkpt><trkpt lat="43.133806545212046" lon="11.505240841696232"><ele>209.0</ele><time>2026-04-25T10:51:05.003Z</time></trkpt><trkpt lat="43.133828861847626" lon="11.505058599294067"><ele>209.0</ele><time>2026-04-25T10:51:06.003Z</time></trkpt><trkpt lat="43.13385250922877" lon="11.504872158450615"><ele>209.5</ele><time>2026-04-25T10:51:07.003Z</time></trkpt><trkpt lat="43.133878394628695" lon="11.504683937048913"><ele>210.0</ele><time>2026-04-25T10:51:08.003Z</time></trkpt><trkpt lat="43.133902137937895" lon="11.50448908511615"><ele>210.5</ele><time>2026-04-25T10:51:09.003Z</time></trkpt><trkpt lat="43.13393091420172" lon="11.50429554611898"><ele>211.0</ele><time>2026-04-25T10:51:10.003Z</time></trkpt><trkpt lat="43.13395548556957" lon="11.504105302502257"><ele>211.5</ele><time>2026-04-25T10:51:11.003Z</time></trkpt><trkpt lat="43.13398674949907" lon="11.50391045830597"><ele>212.0</ele><time>2026-04-25T10:51:12.003Z</time></trkpt><trkpt lat="43.13402070860269" lon="11.50372048846437"><ele>212.5</ele><time>2026-04-25T10:51:13.003Z</time></trkpt><trkpt lat="43.13406096417418" lon="11.503533528103222"><ele>213.0</ele><time>2026-04-25T10:51:14.003Z</time></trkpt><trkpt lat="43.13410055974156" lon="11.503351461279717"><ele>212.0</ele><time>2026-04-25T10:51:15.003Z</time></trkpt><trkpt lat="43.13413905169321" lon="11.503170916361626"><ele>211.0</ele><time>2026-04-25T10:51:16.003Z</time></trkpt><trkpt lat="43.1341741370874" lon="11.502993871664358"><ele>210.0</ele><time>2026-04-25T10:51:17.003Z</time></trkpt><trkpt lat="43.13420955093447" lon="11.502810271346727"><ele>209.0</ele><time>2026-04-25T10:51:18.003Z</time></trkpt><trkpt lat="43.13424182075361" lon="11.50263700422722"><ele>207.25</ele><time>2026-04-25T10:51:19.003Z</time></trkpt><trkpt lat="43.13427731968343" lon="11.502460425427687"><ele>205.5</ele><time>2026-04-25T10:51:20.003Z</time></trkpt><trkpt lat="43.134310949208746" lon="11.502288421138964"><ele>203.75</ele><time>2026-04-25T10:51:21.003Z</time></trkpt><trkpt lat="43.13434454377977" lon="11.502115056249671"><ele>202.0</ele><time>2026-04-25T10:51:22.003Z</time></trkpt><trkpt lat="43.13437857258107" lon="11.501944908143862"><ele>200.0</ele><time>2026-04-25T10:51:23.003Z</time></trkpt><trkpt lat="43.13441258842379" lon="11.5017770487665"><ele>198.0</ele><time>2026-04-25T10:51:24.003Z</time></trkpt><trkpt lat="43.134444715568364" lon="11.501612231388464"><ele>196.0</ele><time>2026-04-25T10:51:25.003Z</time></trkpt><trkpt lat="43.13448118985467" lon="11.50145268986046"><ele>194.0</ele><time>2026-04-25T10:51:26.003Z</time></trkpt><trkpt lat="43.13451611098445" lon="11.501291542335728"><ele>191.75</ele><time>2026-04-25T10:51:27.003Z</time></trkpt><trkpt lat="43.13454449895758" lon="11.501116000509542"><ele>189.5</ele><time>2026-04-25T10:51:28.003Z</time></trkpt><trkpt lat="43.13458211492137" lon="11.500932042219723"><ele>187.25</ele><time>2026-04-25T10:51:29.003Z</time></trkpt><trkpt lat="43.13460871596862" lon="11.500741051650209"><ele>185.0</ele><time>2026-04-25T10:51:30Z</time></trkpt><trkpt lat="43.13464394972657" lon="11.50055137898614"><ele>182.75</ele><time>2026-04-25T10:51:31Z</time></trkpt><trkpt lat="43.13468236801303" lon="11.50036223411902"><ele>180.5</ele><time>2026-04-25T10:51:32Z</time></trkpt><trkpt lat="43.134720410481364" lon="11.50017236067097"><ele>178.25</ele><time>2026-04-25T10:51:33Z</time></trkpt><trkpt lat="43.13476375700235" lon="11.499978563462838"><ele>176.0</ele><time>2026-04-25T10:51:34Z</time></trkpt><trkpt lat="43.134804625271116" lon="11.49978596080454"><ele>176.0</ele><time>2026-04-25T10:51:35Z</time></trkpt><trkpt lat="43.1348534607225" lon="11.499589978028784"><ele>176.0</ele><time>2026-04-25T10:51:36Z</time></trkpt><trkpt lat="43.134906314770625" lon="11.499393209187437"><ele>176.0</ele><time>2026-04-25T10:51:37Z</time></trkpt><trkpt lat="43.13496655427644" lon="11.499200765345332"><ele>173.66666666666666</ele><time>2026-04-25T10:51:38Z</time></trkpt><trkpt lat="43.135025223020676" lon="11.499001852645735"><ele>171.33333333333334</ele><time>2026-04-25T10:51:39Z</time></trkpt><trkpt lat="43.13508855097997" lon="11.498802921405643"><ele>169.0</ele><time>2026-04-25T10:51:40Z</time></trkpt><trkpt lat="43.135149880858286" lon="11.498606019140967"><ele>166.66666666666669</ele><time>2026-04-25T10:51:41Z</time></trkpt><trkpt lat="43.135212823607645" lon="11.498403875138683"><ele>164.33333333333334</ele><time>2026-04-25T10:51:42Z</time></trkpt><trkpt lat="43.13527563326148" lon="11.498207146561198"><ele>162.0</ele><time>2026-04-25T10:51:43Z</time></trkpt><trkpt lat="43.13534065017181" lon="11.498000694363652"><ele>161.66666666666666</ele><time>2026-04-25T10:51:44Z</time></trkpt><trkpt lat="43.13540410819404" lon="11.497799241054528"><ele>161.33333333333331</ele><time>2026-04-25T10:51:45Z</time></trkpt><trkpt lat="43.135470562019954" lon="11.497593369813519"><ele>161.0</ele><time>2026-04-25T10:51:46Z</time></trkpt><trkpt lat="43.13554546798398" lon="11.497390245261856"><ele>161.0</ele><time>2026-04-25T10:51:47Z</time></trkpt><trkpt lat="43.1356290526673" lon="11.497199846448451"><ele>161.0</ele><time>2026-04-25T10:51:48Z</time></trkpt><trkpt lat="43.13573035562548" lon="11.497022031293376"><ele>161.0</ele><time>2026-04-25T10:51:49Z</time></trkpt><trkpt lat="43.13583890273806" lon="11.496849197583169"><ele>161.33333333333331</ele><time>2026-04-25T10:51:50Z</time></trkpt><trkpt lat="43.13594777305583" lon="11.49667886883181"><ele>161.66666666666666</ele><time>2026-04-25T10:51:51Z</time></trkpt><trkpt lat="43.13605436066775" lon="11.496506904728891"><ele>162.0</ele><time>2026-04-25T10:51:52Z</time></trkpt><trkpt lat="43.13616082829942" lon="11.496320388201234"><ele>162.33333333333334</ele><time>2026-04-25T10:51:53Z</time></trkpt><trkpt lat="43.13627302546533" lon="11.496123009878058"><ele>162.66666666666669</ele><time>2026-04-25T10:51:54Z</time></trkpt><trkpt lat="43.13638286128849" lon="11.495937655513188"><ele>163.0</ele><time>2026-04-25T10:51:55Z</time></trkpt><trkpt lat="43.13648734517249" lon="11.495759417408822"><ele>162.33333333333334</ele><time>2026-04-25T10:51:56Z</time></trkpt><trkpt lat="43.136591071163636" lon="11.495580329436239"><ele>161.66666666666666</ele><time>2026-04-25T10:51:57Z</time></trkpt><trkpt lat="43.13669025341646" lon="11.495397630823106"><ele>161.0</ele><time>2026-04-25T10:51:58.001Z</time></trkpt><trkpt lat="43.13679270971277" lon="11.495222071042846"><ele>163.0</ele><time>2026-04-25T10:51:59.001Z</time></trkpt><trkpt lat="43.13689768171495" lon="11.495049564481702"><ele>165.0</ele><time>2026-04-25T10:52:00.001Z</time></trkpt><trkpt lat="43.13699823752385" lon="11.494880673636777"><ele>167.0</ele><time>2026-04-25T10:52:01.001Z</time></trkpt><trkpt lat="43.13709886512677" lon="11.494716908341122"><ele>170.33333333333331</ele><time>2026-04-25T10:52:02.001Z</time></trkpt><trkpt lat="43.13719340099181" lon="11.494553008309254"><ele>173.66666666666666</ele><time>2026-04-25T10:52:03.001Z</time></trkpt><trkpt lat="43.137283733530914" lon="11.494385047631608"><ele>177.0</ele><time>2026-04-25T10:52:04.001Z</time></trkpt><trkpt lat="43.13736018585794" lon="11.494213619080243"><ele>174.33333333333334</ele><time>2026-04-25T10:52:05.001Z</time></trkpt><trkpt lat="43.13742143546723" lon="11.494030918164368"><ele>171.66666666666669</ele><time>2026-04-25T10:52:06.001Z</time></trkpt><trkpt lat="43.13745618345268" lon="11.493820893775506"><ele>169.0</ele><time>2026-04-25T10:52:07.001Z</time></trkpt><trkpt lat="43.13747943057906" lon="11.493600804428999"><ele>169.0</ele><time>2026-04-25T10:52:08.001Z</time></trkpt><trkpt lat="43.137495257892866" lon="11.493381976780752"><ele>169.0</ele><time>2026-04-25T10:52:09.001Z</time></trkpt><trkpt lat="43.13750779041999" lon="11.49316667459907"><ele>169.0</ele><time>2026-04-25T10:52:10.001Z</time></trkpt><trkpt lat="43.13752650507256" lon="11.492950752871414"><ele>169.66666666666669</ele><time>2026-04-25T10:52:11.001Z</time></trkpt><trkpt lat="43.13755597517846" lon="11.492740117760134"><ele>170.33333333333334</ele><time>2026-04-25T10:52:12.001Z</time></trkpt><trkpt lat="43.13759109712581" lon="11.492532183389473"><ele>171.0</ele><time>2026-04-25T10:52:13.001Z</time></trkpt><trkpt lat="43.137626987345804" lon="11.49231902997813"><ele>171.0</ele><time>2026-04-25T10:52:14.001Z</time></trkpt><trkpt lat="43.13764857261069" lon="11.492107572447223"><ele>171.0</ele><time>2026-04-25T10:52:15.001Z</time></trkpt><trkpt lat="43.13767658394839" lon="11.491901678850985"><ele>171.0</ele><time>2026-04-25T10:52:16.001Z</time></trkpt><trkpt lat="43.13770222601638" lon="11.491712141328986"><ele>171.0</ele><time>2026-04-25T10:52:17.001Z</time></trkpt><trkpt lat="43.13772607056" lon="11.491537427369003"><ele>172.75</ele><time>2026-04-25T10:52:18.001Z</time></trkpt><trkpt lat="43.13774880173127" lon="11.491365243092696"><ele>174.5</ele><time>2026-04-25T10:52:19.001Z</time></trkpt><trkpt lat="43.13777278349988" lon="11.491205306242286"><ele>176.25</ele><time>2026-04-25T10:52:20.001Z</time></trkpt><trkpt lat="43.13779753237809" lon="11.49104766238678"><ele>178.0</ele><time>2026-04-25T10:52:21.001Z</time></trkpt><trkpt lat="43.137807012063064" lon="11.490901046657276"><ele>177.8</ele><time>2026-04-25T10:52:22.001Z</time></trkpt><trkpt lat="43.13781513535487" lon="11.49076055945188"><ele>177.60000000000002</ele><time>2026-04-25T10:52:23.001Z</time></trkpt><trkpt lat="43.137814602154776" lon="11.490632152452596"><ele>177.39999999999998</ele><time>2026-04-25T10:52:24.001Z</time></trkpt><trkpt lat="43.13780401426522" lon="11.490496480844905"><ele>177.2</ele><time>2026-04-25T10:52:25.001Z</time></trkpt><trkpt lat="43.13779020168962" lon="11.490355299653258"><ele>177.0</ele><time>2026-04-25T10:52:26.001Z</time></trkpt><trkpt lat="43.13777769547967" lon="11.490211171318075"><ele>177.0</ele><time>2026-04-25T10:52:27.001Z</time></trkpt><trkpt lat="43.13776246585749" lon="11.490062328564552"><ele>177.0</ele><time>2026-04-25T10:52:28.001Z</time></trkpt><trkpt lat="43.13774846213421" lon="11.48990310464152"><ele>177.0</ele><time>2026-04-25T10:52:29.001Z</time></trkpt><trkpt lat="43.13773158736635" lon="11.489741503304918"><ele>177.0</ele><time>2026-04-25T10:52:30.001Z</time></trkpt><trkpt lat="43.137724042345575" lon="11.489570556796727"><ele>174.6</ele><time>2026-04-25T10:52:31.001Z</time></trkpt><trkpt lat="43.13772535322698" lon="11.489392138406064"><ele>172.2</ele><time>2026-04-25T10:52:32.001Z</time></trkpt><trkpt lat="43.137721471804795" lon="11.489232538663908"><ele>169.8</ele><time>2026-04-25T10:52:33.001Z</time></trkpt><trkpt lat="43.137711636150605" lon="11.489093039056"><ele>167.4</ele><time>2026-04-25T10:52:34.001Z</time></trkpt><trkpt lat="43.13770381795623" lon="11.488966681808348"><ele>165.0</ele><time>2026-04-25T10:52:35.002Z</time></trkpt><trkpt lat="43.13769890026097" lon="11.488848487210928"><ele>163.33333333333334</ele><time>2026-04-25T10:52:36.002Z</time></trkpt><trkpt lat="43.137697407191474" lon="11.488736299154509"><ele>161.66666666666666</ele><time>2026-04-25T10:52:37.002Z</time></trkpt><trkpt lat="43.13769466087736" lon="11.488616937864274"><ele>160.0</ele><time>2026-04-25T10:52:38.002Z</time></trkpt><trkpt lat="43.13769292252862" lon="11.488499253393908"><ele>158.33333333333331</ele><time>2026-04-25T10:52:39.002Z</time></trkpt><trkpt lat="43.13769148124013" lon="11.488389689030294"><ele>156.66666666666666</ele><time>2026-04-25T10:52:40.002Z</time></trkpt><trkpt lat="43.137688784166" lon="11.48827958747156"><ele>155.0</ele><time>2026-04-25T10:52:41.002Z</time></trkpt><trkpt lat="43.13768717249998" lon="11.488166761107916"><ele>155.0</ele><time>2026-04-25T10:52:42.002Z</time></trkpt><trkpt lat="43.137688215623776" lon="11.48805456192077"><ele>155.0</ele><time>2026-04-25T10:52:43.002Z</time></trkpt><trkpt lat="43.13768981873607" lon="11.4879441953042"><ele>155.0</ele><time>2026-04-25T10:52:44.002Z</time></trkpt><trkpt lat="43.13768959760439" lon="11.487842036067372"><ele>155.0</ele><time>2026-04-25T10:52:45.002Z</time></trkpt><trkpt lat="43.13769078080274" lon="11.487750215029623"><ele>155.0</ele><time>2026-04-25T10:52:46.002Z</time></trkpt><trkpt lat="43.137688699326326" lon="11.487662797900292"><ele>155.0</ele><time>2026-04-25T10:52:47.002Z</time></trkpt><trkpt lat="43.13768760699932" lon="11.487575193789251"><ele>155.0</ele><time>2026-04-25T10:52:48.002Z</time></trkpt><trkpt lat="43.13769153226732" lon="11.487413317265364"><ele>154.33333333333331</ele><time>2026-04-25T10:52:50.002Z</time></trkpt><trkpt lat="43.13769581435577" lon="11.487280276506569"><ele>153.66666666666666</ele><time>2026-04-25T10:52:52.002Z</time></trkpt><trkpt lat="43.1377023506546" lon="11.487179423271135"><ele>153.0</ele><time>2026-04-25T10:52:55.002Z</time></trkpt><trkpt lat="43.13769108874144" lon="11.487088609430172"><ele>152.33333333333334</ele><time>2026-04-25T10:53:30.003Z</time></trkpt><trkpt lat="43.13767606805715" lon="11.486926030575434"><ele>151.66666666666669</ele><time>2026-04-25T10:53:32.003Z</time></trkpt><trkpt lat="43.13767935465082" lon="11.486821610270677"><ele>151.0</ele><time>2026-04-25T10:53:33.003Z</time></trkpt><trkpt lat="43.13768208741839" lon="11.486714785524907"><ele>150.5</ele><time>2026-04-25T10:53:34.003Z</time></trkpt><trkpt lat="43.137680869611465" lon="11.486627113450107"><ele>150.0</ele><time>2026-04-25T10:53:35.003Z</time></trkpt><trkpt lat="43.137705725509235" lon="11.486527007165133"><ele>149.5</ele><time>2026-04-25T10:53:37Z</time></trkpt><trkpt lat="43.13781178020503" lon="11.486508650107863"><ele>149.0</ele><time>2026-04-25T10:53:39Z</time></trkpt><trkpt lat="43.13788738057772" lon="11.48652460466143"><ele>148.5</ele><time>2026-04-25T10:53:40Z</time></trkpt><trkpt lat="43.13796714819595" lon="11.486526161483681"><ele>148.0</ele><time>2026-04-25T10:53:41Z</time></trkpt><trkpt lat="43.13804783016038" lon="11.486531747582712"><ele>148.0</ele><time>2026-04-25T10:53:42Z</time></trkpt><trkpt lat="43.138137074985835" lon="11.486537837925225"><ele>148.0</ele><time>2026-04-25T10:53:43Z</time></trkpt><trkpt lat="43.1382317849634" lon="11.486538953274156"><ele>148.0</ele><time>2026-04-25T10:53:44Z</time></trkpt><trkpt lat="43.13833298381487" lon="11.486545455839192"><ele>148.0</ele><time>2026-04-25T10:53:45Z</time></trkpt><trkpt lat="43.13843194852792" lon="11.486549438938132"><ele>148.0</ele><time>2026-04-25T10:53:46Z</time></trkpt><trkpt lat="43.13852049947945" lon="11.486555170240361"><ele>148.0</ele><time>2026-04-25T10:53:47Z</time></trkpt><trkpt lat="43.138602602164205" lon="11.486558832948567"><ele>148.0</ele><time>2026-04-25T10:53:48Z</time></trkpt><trkpt lat="43.1386778036963" lon="11.48655562038545"><ele>148.0</ele><time>2026-04-25T10:53:49Z</time></trkpt><trkpt lat="43.138743247151424" lon="11.486554031356553"><ele>148.0</ele><time>2026-04-25T10:53:50Z</time></trkpt><trkpt lat="43.13883916736516" lon="11.486573954155935"><ele>148.0</ele><time>2026-04-25T10:53:52Z</time></trkpt><trkpt lat="43.13890939970716" lon="11.486546658691418"><ele>148.0</ele><time>2026-04-25T10:53:55Z</time></trkpt><trkpt lat="43.138922970298694" lon="11.486370343351329"><ele>148.0</ele><time>2026-04-25T10:53:57Z</time></trkpt><trkpt lat="43.138916863715906" lon="11.486280177838252"><ele>148.0</ele><time>2026-04-25T10:53:58Z</time></trkpt><trkpt lat="43.138915957943" lon="11.48617495540796"><ele>148.0</ele><time>2026-04-25T10:53:59Z</time></trkpt><trkpt lat="43.138912409787416" lon="11.486020148993541"><ele>148.0</ele><time>2026-04-25T10:54:00Z</time></trkpt><trkpt lat="43.13890511956907" lon="11.485830283995012"><ele>148.0</ele><time>2026-04-25T10:54:01Z</time></trkpt><trkpt lat="43.138891694024366" lon="11.485689462457545"><ele>147.6</ele><time>2026-04-25T10:54:02Z</time></trkpt><trkpt lat="43.13887826653858" lon="11.485575050703467"><ele>147.20000000000002</ele><time>2026-04-25T10:54:03Z</time></trkpt><trkpt lat="43.13887020641909" lon="11.485470204337402"><ele>146.8</ele><time>2026-04-25T10:54:04Z</time></trkpt><trkpt lat="43.138872203149674" lon="11.485382404561312"><ele>146.4</ele><time>2026-04-25T10:54:05Z</time></trkpt><trkpt lat="43.13903803704945" lon="11.485250427143955"><ele>146.0</ele><time>2026-04-25T10:54:08Z</time></trkpt><trkpt lat="43.13914550423908" lon="11.485234646832781"><ele>145.8</ele><time>2026-04-25T10:54:09Z</time></trkpt><trkpt lat="43.13925413399594" lon="11.485194372029413"><ele>145.6</ele><time>2026-04-25T10:54:10Z</time></trkpt><trkpt lat="43.13933830899168" lon="11.485157051248551"><ele>145.4</ele><time>2026-04-25T10:54:11.001Z</time></trkpt><trkpt lat="43.13942475447319" lon="11.48512711995692"><ele>145.2</ele><time>2026-04-25T10:54:12.001Z</time></trkpt><trkpt lat="43.139492918936085" lon="11.485101228300778"><ele>145.0</ele><time>2026-04-25T10:54:13.001Z</time></trkpt><trkpt lat="43.13958734083064" lon="11.485065065202347"><ele>145.0</ele><time>2026-04-25T10:54:15.001Z</time></trkpt><trkpt lat="43.13965176431797" lon="11.485038375354517"><ele>145.0</ele><time>2026-04-25T10:54:17.001Z</time></trkpt><trkpt lat="43.13970984402757" lon="11.484948340223887"><ele>145.0</ele><time>2026-04-25T10:54:21.001Z</time></trkpt><trkpt lat="43.139687094989156" lon="11.484835866039905"><ele>145.0</ele><time>2026-04-25T10:54:22.001Z</time></trkpt><trkpt lat="43.13966153196958" lon="11.484745694463424"><ele>145.0</ele><time>2026-04-25T10:54:23.001Z</time></trkpt><trkpt lat="43.13963948285133" lon="11.48464316588228"><ele>145.0</ele><time>2026-04-25T10:54:24.001Z</time></trkpt><trkpt lat="43.139616145199604" lon="11.48452524191489"><ele>144.8</ele><time>2026-04-25T10:54:25.001Z</time></trkpt><trkpt lat="43.13959172037812" lon="11.484398789788191"><ele>144.6</ele><time>2026-04-25T10:54:26.001Z</time></trkpt><trkpt lat="43.139559775615545" lon="11.484268324478677"><ele>144.4</ele><time>2026-04-25T10:54:27.001Z</time></trkpt><trkpt lat="43.13951838917532" lon="11.484108695087015"><ele>144.2</ele><time>2026-04-25T10:54:28.001Z</time></trkpt><trkpt lat="43.13947319717927" lon="11.483957715811254"><ele>144.0</ele><time>2026-04-25T10:54:29.001Z</time></trkpt><trkpt lat="43.13943514630898" lon="11.483823899277885"><ele>144.16666666666666</ele><time>2026-04-25T10:54:30.001Z</time></trkpt><trkpt lat="43.13940017976627" lon="11.483720294467377"><ele>144.33333333333334</ele><time>2026-04-25T10:54:31.001Z</time></trkpt><trkpt lat="43.139377119204966" lon="11.483614655020935"><ele>144.5</ele><time>2026-04-25T10:54:32.001Z</time></trkpt><trkpt lat="43.139351690225446" lon="11.48351763083936"><ele>144.66666666666669</ele><time>2026-04-25T10:54:33.001Z</time></trkpt><trkpt lat="43.139329109117796" lon="11.483424263471143"><ele>144.83333333333334</ele><time>2026-04-25T10:54:34.001Z</time></trkpt><trkpt lat="43.139306614160155" lon="11.483338830096727"><ele>145.0</ele><time>2026-04-25T10:54:35.001Z</time></trkpt><trkpt lat="43.139270182019594" lon="11.483195654997967"><ele>145.0</ele><time>2026-04-25T10:54:37.001Z</time></trkpt><trkpt lat="43.13924593937548" lon="11.483086809183497"><ele>145.0</ele><time>2026-04-25T10:54:39.001Z</time></trkpt><trkpt lat="43.13925805358293" lon="11.482967114093446"><ele>145.0</ele><time>2026-04-25T10:54:42.001Z</time></trkpt><trkpt lat="43.13936560959553" lon="11.482883908429649"><ele>145.0</ele><time>2026-04-25T10:54:44.002Z</time></trkpt><trkpt lat="43.13943887285166" lon="11.4828401709677"><ele>145.0</ele><time>2026-04-25T10:54:45.002Z</time></trkpt><trkpt lat="43.13951934331862" lon="11.482781609875833"><ele>145.4</ele><time>2026-04-25T10:54:46.002Z</time></trkpt><trkpt lat="43.13960631119947" lon="11.48272112670892"><ele>145.8</ele><time>2026-04-25T10:54:47.002Z</time></trkpt><trkpt lat="43.13969133581834" lon="11.482662693611713"><ele>146.2</ele><time>2026-04-25T10:54:48.002Z</time></trkpt><trkpt lat="43.13978805775164" lon="11.482597405972514"><ele>146.6</ele><time>2026-04-25T10:54:49.002Z</time></trkpt><trkpt lat="43.13988528068494" lon="11.482529542787292"><ele>147.0</ele><time>2026-04-25T10:54:50.002Z</time></trkpt><trkpt lat="43.139977852721636" lon="11.482475283916058"><ele>146.33333333333334</ele><time>2026-04-25T10:54:51.002Z</time></trkpt><trkpt lat="43.14006604959193" lon="11.482408962603468"><ele>145.66666666666666</ele><time>2026-04-25T10:54:52.002Z</time></trkpt><trkpt lat="43.140144374904686" lon="11.482350052205613"><ele>145.0</ele><time>2026-04-25T10:54:53.002Z</time></trkpt><trkpt lat="43.140215281933926" lon="11.482298888916102"><ele>144.33333333333331</ele><time>2026-04-25T10:54:54.002Z</time></trkpt><trkpt lat="43.14028327984871" lon="11.482250661671692"><ele>143.66666666666666</ele><time>2026-04-25T10:54:55.002Z</time></trkpt><trkpt lat="43.14034488349856" lon="11.482204835595542"><ele>143.0</ele><time>2026-04-25T10:54:56.002Z</time></trkpt><trkpt lat="43.140403829979746" lon="11.48215995422477"><ele>143.0</ele><time>2026-04-25T10:54:57.002Z</time></trkpt><trkpt lat="43.14051027795708" lon="11.482113572573034"><ele>143.0</ele><time>2026-04-25T10:54:59.002Z</time></trkpt><trkpt lat="43.14060233465464" lon="11.482144146738424"><ele>143.0</ele><time>2026-04-25T10:55:01.002Z</time></trkpt><trkpt lat="43.140660066236265" lon="11.482185647635491"><ele>143.0</ele><time>2026-04-25T10:55:03.002Z</time></trkpt><trkpt lat="43.140726097431426" lon="11.48216048761174"><ele>143.0</ele><time>2026-04-25T10:57:44.003Z</time></trkpt><trkpt lat="43.14079375189321" lon="11.48214583584559"><ele>143.0</ele><time>2026-04-25T11:00:26.001Z</time></trkpt><trkpt lat="43.14083283100873" lon="11.482066744129057"><ele>142.99999999999997</ele><time>2026-04-25T11:02:14Z</time></trkpt><trkpt lat="43.14088632796012" lon="11.482008484823362"><ele>143.0</ele><time>2026-04-25T11:02:17Z</time></trkpt><trkpt lat="43.14094131210607" lon="11.48205468876873"><ele>143.0</ele><time>2026-04-25T11:02:20Z</time></trkpt><trkpt lat="43.14092430191839" lon="11.482148651958106"><ele>143.0</ele><time>2026-04-25T11:02:24Z</time></trkpt><trkpt lat="43.14085335434828" lon="11.482112174286755"><ele>143.0</ele><time>2026-04-25T11:03:18.002Z</time></trkpt><trkpt lat="43.140797414330585" lon="11.482060980678535"><ele>142.99999999999997</ele><time>2026-04-25T11:03:21.002Z</time></trkpt><trkpt lat="43.140728268876934" lon="11.482067131277425"><ele>143.0</ele><time>2026-04-25T11:03:54.003Z</time></trkpt><trkpt lat="43.14065969780292" lon="11.482105043154176"><ele>143.0</ele><time>2026-04-25T11:03:56.003Z</time></trkpt><trkpt lat="43.14058677150332" lon="11.482248352852489"><ele>143.0</ele><time>2026-04-25T11:03:58.003Z</time></trkpt><trkpt lat="43.14060924341021" lon="11.48212650232797"><ele>143.0</ele><time>2026-04-25T11:04:17Z</time></trkpt><trkpt lat="43.14054397774943" lon="11.48208489265626"><ele>143.0</ele><time>2026-04-25T11:04:32Z</time></trkpt><trkpt lat="43.14047914219035" lon="11.482062359714492"><ele>143.0</ele><time>2026-04-25T11:04:33Z</time></trkpt><trkpt lat="43.140342728265544" lon="11.48214529786466"><ele>143.0</ele><time>2026-04-25T11:04:35Z</time></trkpt><trkpt lat="43.140261729772405" lon="11.482203890811821"><ele>143.0</ele><time>2026-04-25T11:04:36Z</time></trkpt><trkpt lat="43.14020080261595" lon="11.482248366588898"><ele>143.0</ele><time>2026-04-25T11:04:37Z</time></trkpt><trkpt lat="43.14013366339904" lon="11.482295955182055"><ele>143.0</ele><time>2026-04-25T11:04:38.001Z</time></trkpt><trkpt lat="43.140069908679294" lon="11.48234203052881"><ele>143.0</ele><time>2026-04-25T11:04:39.001Z</time></trkpt><trkpt lat="43.140012734017276" lon="11.482378349063913"><ele>143.0</ele><time>2026-04-25T11:04:40.001Z</time></trkpt><trkpt lat="43.13990845929146" lon="11.482441380993725"><ele>143.57142857142856</ele><time>2026-04-25T11:04:42.001Z</time></trkpt><trkpt lat="43.13985000194539" lon="11.482490443531281"><ele>144.14285714285714</ele><time>2026-04-25T11:04:43.001Z</time></trkpt><trkpt lat="43.13978746462464" lon="11.482536831643774"><ele>144.71428571428572</ele><time>2026-04-25T11:04:44.001Z</time></trkpt><trkpt lat="43.13973138204919" lon="11.4825798676561"><ele>145.28571428571428</ele><time>2026-04-25T11:04:45.001Z</time></trkpt><trkpt lat="43.13967275628422" lon="11.482623265582331"><ele>145.85714285714286</ele><time>2026-04-25T11:04:46.001Z</time></trkpt><trkpt lat="43.13961214436145" lon="11.482669557158864"><ele>146.42857142857142</ele><time>2026-04-25T11:04:47.001Z</time></trkpt><trkpt lat="43.13955235350302" lon="11.482713065031135"><ele>147.0</ele><time>2026-04-25T11:04:48.001Z</time></trkpt><trkpt lat="43.13949446818685" lon="11.482757544778057"><ele>147.0</ele><time>2026-04-25T11:04:49.001Z</time></trkpt><trkpt lat="43.13939259956049" lon="11.48283319838552"><ele>147.0</ele><time>2026-04-25T11:04:51.001Z</time></trkpt><trkpt lat="43.13927463075985" lon="11.482915644117126"><ele>147.0</ele><time>2026-04-25T11:04:53.001Z</time></trkpt><trkpt lat="43.139195653364176" lon="11.482968550234204"><ele>147.0</ele><time>2026-04-25T11:04:54.001Z</time></trkpt><trkpt lat="43.13912252148555" lon="11.48301178480933"><ele>147.0</ele><time>2026-04-25T11:04:55.001Z</time></trkpt><trkpt lat="43.139051995220576" lon="11.483050074996804"><ele>146.79999999999998</ele><time>2026-04-25T11:04:56.001Z</time></trkpt><trkpt lat="43.13896117271182" lon="11.483092294769975"><ele>146.6</ele><time>2026-04-25T11:04:57.001Z</time></trkpt><trkpt lat="43.1388655033368" lon="11.483135537802774"><ele>146.39999999999998</ele><time>2026-04-25T11:04:58.001Z</time></trkpt><trkpt lat="43.13877167489216" lon="11.483172624937554"><ele>146.2</ele><time>2026-04-25T11:04:59.001Z</time></trkpt><trkpt lat="43.13868321777633" lon="11.48320470002744"><ele>146.0</ele><time>2026-04-25T11:05:00.001Z</time></trkpt><trkpt lat="43.138593490966585" lon="11.483235418955802"><ele>146.0</ele><time>2026-04-25T11:05:01.001Z</time></trkpt><trkpt lat="43.1385018614302" lon="11.483259378328928"><ele>146.0</ele><time>2026-04-25T11:05:02.001Z</time></trkpt><trkpt lat="43.13841078153239" lon="11.483280899783857"><ele>146.0</ele><time>2026-04-25T11:05:03.001Z</time></trkpt><trkpt lat="43.13832231705568" lon="11.483298493353688"><ele>146.0</ele><time>2026-04-25T11:05:04.001Z</time></trkpt><trkpt lat="43.138241032026656" lon="11.483307049786223"><ele>146.0</ele><time>2026-04-25T11:05:05.001Z</time></trkpt><trkpt lat="43.138166315587284" lon="11.483315042789041"><ele>146.0</ele><time>2026-04-25T11:05:06.001Z</time></trkpt><trkpt lat="43.13809447214931" lon="11.483319211566"><ele>146.16666666666666</ele><time>2026-04-25T11:05:07.001Z</time></trkpt><trkpt lat="43.13802685305494" lon="11.483320846981755"><ele>146.33333333333331</ele><time>2026-04-25T11:05:08.001Z</time></trkpt><trkpt lat="43.13790589701519" lon="11.483324187185177"><ele>146.5</ele><time>2026-04-25T11:05:10.002Z</time></trkpt><trkpt lat="43.137814522795125" lon="11.483327335704637"><ele>146.66666666666666</ele><time>2026-04-25T11:05:12.002Z</time></trkpt><trkpt lat="43.13773118916849" lon="11.483328566046694"><ele>146.83333333333334</ele><time>2026-04-25T11:05:15.002Z</time></trkpt><trkpt lat="43.13768497819159" lon="11.483269882714529"><ele>147.0</ele><time>2026-04-25T11:05:18.002Z</time></trkpt><trkpt lat="43.13768616271955" lon="11.483177652447944"><ele>147.0</ele><time>2026-04-25T11:05:23.002Z</time></trkpt><trkpt lat="43.13766984220051" lon="11.483087727873134"><ele>147.0</ele><time>2026-04-25T11:05:30.002Z</time></trkpt><trkpt lat="43.13769575765092" lon="11.482952166143555"><ele>147.0</ele><time>2026-04-25T11:07:54.003Z</time></trkpt><trkpt lat="43.13777454981342" lon="11.482906376580033"><ele>147.0</ele><time>2026-04-25T11:08:03.003Z</time></trkpt><trkpt lat="43.13784075146299" lon="11.482887558413218"><ele>147.0</ele><time>2026-04-25T11:08:10.003Z</time></trkpt><trkpt lat="43.13784600596435" lon="11.48279125808419"><ele>147.0</ele><time>2026-04-25T11:08:19Z</time></trkpt><trkpt lat="43.13787049403546" lon="11.482696767142354"><ele>147.0</ele><time>2026-04-25T11:08:33Z</time></trkpt><trkpt lat="43.137875928359115" lon="11.482783946314658"><ele>147.0</ele><time>2026-04-25T11:09:22.002Z</time></trkpt><trkpt lat="43.13785896714967" lon="11.48286734364587"><ele>147.0</ele><time>2026-04-25T11:09:31.002Z</time></trkpt><trkpt lat="43.13780071816197" lon="11.482905184096149"><ele>147.0</ele><time>2026-04-25T11:09:38.002Z</time></trkpt><trkpt lat="43.13774016368814" lon="11.482936415072242"><ele>147.0</ele><time>2026-04-25T11:09:45.002Z</time></trkpt><trkpt lat="43.137691562955816" lon="11.482992297491217"><ele>147.0</ele><time>2026-04-25T11:10:00.003Z</time></trkpt><trkpt lat="43.13763585512257" lon="11.482938313346951"><ele>147.0</ele><time>2026-04-25T11:12:46.001Z</time></trkpt><trkpt lat="43.13758429451601" lon="11.483007272851337"><ele>147.0</ele><time>2026-04-25T11:26:03Z</time></trkpt><trkpt lat="43.13765370874661" lon="11.483020780166953"><ele>147.0</ele><time>2026-04-25T11:26:08Z</time></trkpt><trkpt lat="43.137643867771274" lon="11.483106609754602"><ele>147.0</ele><time>2026-04-25T11:29:22.999Z</time></trkpt><trkpt lat="43.137656672531506" lon="11.483223670399553"><ele>147.0</ele><time>2026-04-25T11:29:25.999Z</time></trkpt><trkpt lat="43.13768984375301" lon="11.483315106349787"><ele>147.0</ele><time>2026-04-25T11:29:51Z</time></trkpt><trkpt lat="43.13760564102061" lon="11.483363517501"><ele>147.0</ele><time>2026-04-25T11:29:54Z</time></trkpt><trkpt lat="43.13751342776098" lon="11.483364017927602"><ele>147.0</ele><time>2026-04-25T11:29:56Z</time></trkpt><trkpt lat="43.137450270201455" lon="11.483350355820987"><ele>147.0</ele><time>2026-04-25T11:29:58Z</time></trkpt><trkpt lat="43.13735235134243" lon="11.483351121163773"><ele>147.0</ele><time>2026-04-25T11:30:01Z</time></trkpt><trkpt lat="43.13726985189443" lon="11.483354109404065"><ele>147.0</ele><time>2026-04-25T11:30:03Z</time></trkpt><trkpt lat="43.13719355910432" lon="11.483349073066702"><ele>147.0</ele><time>2026-04-25T11:30:04Z</time></trkpt><trkpt lat="43.13710317706069" lon="11.483349659737504"><ele>147.0</ele><time>2026-04-25T11:30:06Z</time></trkpt><trkpt lat="43.137012877507736" lon="11.483350805817176"><ele>146.83333333333334</ele><time>2026-04-25T11:30:08Z</time></trkpt><trkpt lat="43.1369364519819" lon="11.4833446910665"><ele>146.66666666666666</ele><time>2026-04-25T11:30:10Z</time></trkpt><trkpt lat="43.136858179752366" lon="11.483344637279632"><ele>146.5</ele><time>2026-04-25T11:30:13Z</time></trkpt><trkpt lat="43.1367787318296" lon="11.48333405553906"><ele>146.33333333333331</ele><time>2026-04-25T11:30:16Z</time></trkpt><trkpt lat="43.13671353588875" lon="11.483343985788665"><ele>146.16666666666666</ele><time>2026-04-25T11:30:19Z</time></trkpt><trkpt lat="43.13664008732548" lon="11.483354572662401"><ele>146.0</ele><time>2026-04-25T11:30:50Z</time></trkpt><trkpt lat="43.13653115654109" lon="11.483364127986018"><ele>146.0</ele><time>2026-04-25T11:30:52Z</time></trkpt><trkpt lat="43.13646660582002" lon="11.48336405841052"><ele>146.0</ele><time>2026-04-25T11:30:53Z</time></trkpt><trkpt lat="43.136400310878365" lon="11.48336137916462"><ele>146.0</ele><time>2026-04-25T11:30:54Z</time></trkpt><trkpt lat="43.136337127736034" lon="11.483363134852027"><ele>146.0</ele><time>2026-04-25T11:30:55Z</time></trkpt><trkpt lat="43.136271239400486" lon="11.483364719576057"><ele>146.0</ele><time>2026-04-25T11:30:56Z</time></trkpt><trkpt lat="43.13620555034484" lon="11.483366851866538"><ele>146.0</ele><time>2026-04-25T11:30:57Z</time></trkpt><trkpt lat="43.13614086585381" lon="11.483367788403475"><ele>146.0</ele><time>2026-04-25T11:30:58Z</time></trkpt><trkpt lat="43.136074979326246" lon="11.483365527105226"><ele>146.0</ele><time>2026-04-25T11:30:59Z</time></trkpt><trkpt lat="43.136004363601536" lon="11.483360852721372"><ele>146.0</ele><time>2026-04-25T11:31:00Z</time></trkpt><trkpt lat="43.1359268013807" lon="11.48335542031911"><ele>146.0</ele><time>2026-04-25T11:31:01Z</time></trkpt><trkpt lat="43.13585131897781" lon="11.483351107987728"><ele>146.0</ele><time>2026-04-25T11:31:02Z</time></trkpt><trkpt lat="43.13578455531921" lon="11.483347649669804"><ele>146.0</ele><time>2026-04-25T11:31:03Z</time></trkpt><trkpt lat="43.135670006260696" lon="11.48333462215978"><ele>146.0</ele><time>2026-04-25T11:31:05Z</time></trkpt><trkpt lat="43.135593224138695" lon="11.483310347125599"><ele>146.0</ele><time>2026-04-25T11:31:07Z</time></trkpt><trkpt lat="43.13552802850583" lon="11.483290937117378"><ele>146.0</ele><time>2026-04-25T11:31:09Z</time></trkpt><trkpt lat="43.135495862147025" lon="11.483206132262115"><ele>146.0</ele><time>2026-04-25T11:31:11Z</time></trkpt><trkpt lat="43.13549417954024" lon="11.483082022848182"><ele>146.0</ele><time>2026-04-25T11:31:13Z</time></trkpt><trkpt lat="43.135490751842816" lon="11.48296387846402"><ele>146.0</ele><time>2026-04-25T11:31:16Z</time></trkpt><trkpt lat="43.135481088010955" lon="11.482845156599561"><ele>146.0</ele><time>2026-04-25T11:31:19Z</time></trkpt><trkpt lat="43.135470510617246" lon="11.482733593270558"><ele>145.83333333333331</ele><time>2026-04-25T11:31:21Z</time></trkpt><trkpt lat="43.135449952643086" lon="11.482587597406024"><ele>145.66666666666666</ele><time>2026-04-25T11:31:23Z</time></trkpt><trkpt lat="43.13543813963995" lon="11.482499878336041"><ele>145.5</ele><time>2026-04-25T11:31:23.997Z</time></trkpt><trkpt lat="43.13542862131085" lon="11.48241043893129"><ele>145.33333333333334</ele><time>2026-04-25T11:31:24.997Z</time></trkpt><trkpt lat="43.13542025280766" lon="11.482323442256623"><ele>145.16666666666669</ele><time>2026-04-25T11:31:25.997Z</time></trkpt><trkpt lat="43.135404974499245" lon="11.482166427750581"><ele>145.0</ele><time>2026-04-25T11:31:27.997Z</time></trkpt><trkpt lat="43.13541770174733" lon="11.482076144311678"><ele>145.0</ele><time>2026-04-25T11:31:29.997Z</time></trkpt><trkpt lat="43.13555094925671" lon="11.48203797437477"><ele>145.0</ele><time>2026-04-25T11:31:33.997Z</time></trkpt><trkpt lat="43.135666272990306" lon="11.482027567368837"><ele>145.0</ele><time>2026-04-25T11:31:35.998Z</time></trkpt><trkpt lat="43.135795903226814" lon="11.48201586931945"><ele>145.0</ele><time>2026-04-25T11:31:37.998Z</time></trkpt><trkpt lat="43.135868184114564" lon="11.482009346572088"><ele>145.16666666666669</ele><time>2026-04-25T11:31:38.998Z</time></trkpt><trkpt lat="43.135947295489096" lon="11.482002207430188"><ele>145.33333333333334</ele><time>2026-04-25T11:31:39.998Z</time></trkpt><trkpt lat="43.13603152932738" lon="11.481974628718083"><ele>145.5</ele><time>2026-04-25T11:31:40.998Z</time></trkpt><trkpt lat="43.136112985862475" lon="11.48197769009649"><ele>145.66666666666666</ele><time>2026-04-25T11:31:41.998Z</time></trkpt><trkpt lat="43.136188749296366" lon="11.481973525369213"><ele>145.83333333333331</ele><time>2026-04-25T11:31:42.998Z</time></trkpt><trkpt lat="43.1362607316726" lon="11.481964570375276"><ele>146.0</ele><time>2026-04-25T11:31:43.998Z</time></trkpt><trkpt lat="43.136332931789774" lon="11.481960171873833"><ele>146.0</ele><time>2026-04-25T11:31:44.998Z</time></trkpt><trkpt lat="43.136403972698396" lon="11.481950419162374"><ele>146.0</ele><time>2026-04-25T11:31:45.998Z</time></trkpt><trkpt lat="43.13647755159739" lon="11.481945300464547"><ele>146.0</ele><time>2026-04-25T11:31:46.998Z</time></trkpt><trkpt lat="43.13655370281213" lon="11.48194141665938"><ele>146.0</ele><time>2026-04-25T11:31:47.998Z</time></trkpt><trkpt lat="43.13662544301563" lon="11.481937281984372"><ele>146.0</ele><time>2026-04-25T11:31:48.998Z</time></trkpt><trkpt lat="43.13669366156977" lon="11.481936407862163"><ele>146.0</ele><time>2026-04-25T11:31:49.998Z</time></trkpt><trkpt lat="43.13677525364974" lon="11.481929103666529"><ele>146.0</ele><time>2026-04-25T11:31:50.999Z</time></trkpt><trkpt lat="43.136848389389826" lon="11.48191874355092"><ele>146.16666666666666</ele><time>2026-04-25T11:31:51.999Z</time></trkpt><trkpt lat="43.13692388328265" lon="11.481912121846348"><ele>146.33333333333331</ele><time>2026-04-25T11:31:52.999Z</time></trkpt><trkpt lat="43.13699449193233" lon="11.481910841226426"><ele>146.5</ele><time>2026-04-25T11:31:53.999Z</time></trkpt><trkpt lat="43.13705845198048" lon="11.481909670280448"><ele>146.66666666666666</ele><time>2026-04-25T11:31:54.999Z</time></trkpt><trkpt lat="43.137125600142404" lon="11.481910156071049"><ele>146.83333333333334</ele><time>2026-04-25T11:31:55.999Z</time></trkpt><trkpt lat="43.13719279127001" lon="11.481909228702984"><ele>147.0</ele><time>2026-04-25T11:31:56.999Z</time></trkpt><trkpt lat="43.137318758038376" lon="11.481891516729707"><ele>146.79999999999998</ele><time>2026-04-25T11:31:58.999Z</time></trkpt><trkpt lat="43.13742689201706" lon="11.481864105525045"><ele>146.6</ele><time>2026-04-25T11:32:00.999Z</time></trkpt><trkpt lat="43.137505526603604" lon="11.481854541988815"><ele>146.39999999999998</ele><time>2026-04-25T11:32:02.999Z</time></trkpt><trkpt lat="43.13758446397944" lon="11.481759588540555"><ele>146.2</ele><time>2026-04-25T11:32:04.999Z</time></trkpt><trkpt lat="43.13759670829636" lon="11.481574597724315"><ele>146.0</ele><time>2026-04-25T11:32:06.999Z</time></trkpt><trkpt lat="43.137621195484975" lon="11.481418725042024"><ele>146.0</ele><time>2026-04-25T11:32:08.999Z</time></trkpt><trkpt lat="43.137662288866835" lon="11.4813498651768"><ele>146.0</ele><time>2026-04-25T11:32:09.999Z</time></trkpt><trkpt lat="43.13772183979429" lon="11.481296356759856"><ele>146.0</ele><time>2026-04-25T11:32:10.999Z</time></trkpt><trkpt lat="43.137791326262764" lon="11.481264320761204"><ele>146.0</ele><time>2026-04-25T11:32:11.999Z</time></trkpt><trkpt lat="43.13786828913219" lon="11.481242082789667"><ele>146.0</ele><time>2026-04-25T11:32:12.999Z</time></trkpt><trkpt lat="43.13794822944432" lon="11.4812210360101"><ele>146.0</ele><time>2026-04-25T11:32:13.999Z</time></trkpt><trkpt lat="43.138031162549126" lon="11.481200479881354"><ele>145.8</ele><time>2026-04-25T11:32:14.999Z</time></trkpt><trkpt lat="43.138115661181516" lon="11.481180055413782"><ele>145.6</ele><time>2026-04-25T11:32:15.999Z</time></trkpt><trkpt lat="43.138200393872246" lon="11.481161212374166"><ele>145.4</ele><time>2026-04-25T11:32:16.999Z</time></trkpt><trkpt lat="43.13828929109563" lon="11.481138412997938"><ele>145.2</ele><time>2026-04-25T11:32:17.999Z</time></trkpt><trkpt lat="43.138380425359145" lon="11.481120957626556"><ele>145.0</ele><time>2026-04-25T11:32:18.999Z</time></trkpt><trkpt lat="43.13847747384531" lon="11.481111586000157"><ele>145.0</ele><time>2026-04-25T11:32:19.999Z</time></trkpt><trkpt lat="43.13857336569194" lon="11.481088984613391"><ele>145.0</ele><time>2026-04-25T11:32:20.999Z</time></trkpt><trkpt lat="43.1386684018227" lon="11.481069153622217"><ele>145.0</ele><time>2026-04-25T11:32:21.999Z</time></trkpt><trkpt lat="43.13876453358818" lon="11.481048443934386"><ele>145.0</ele><time>2026-04-25T11:32:22.999Z</time></trkpt><trkpt lat="43.138861204549315" lon="11.481030063053177"><ele>145.0</ele><time>2026-04-25T11:32:23.999Z</time></trkpt><trkpt lat="43.13895763632884" lon="11.481028171543882"><ele>144.66666666666669</ele><time>2026-04-25T11:32:24.999Z</time></trkpt><trkpt lat="43.13905505981025" lon="11.48100840325537"><ele>144.33333333333334</ele><time>2026-04-25T11:32:25.999Z</time></trkpt><trkpt lat="43.13914337671074" lon="11.480990482779895"><ele>144.0</ele><time>2026-04-25T11:32:26.999Z</time></trkpt><trkpt lat="43.139225208327375" lon="11.480975389857395"><ele>143.66666666666666</ele><time>2026-04-25T11:32:27.999Z</time></trkpt><trkpt lat="43.139296656172384" lon="11.480973037881032"><ele>143.33333333333331</ele><time>2026-04-25T11:32:28.999Z</time></trkpt><trkpt lat="43.13936623026887" lon="11.480982797997887"><ele>143.0</ele><time>2026-04-25T11:32:29.999Z</time></trkpt><trkpt lat="43.13943009789132" lon="11.48106057355201"><ele>143.0</ele><time>2026-04-25T11:32:30.999Z</time></trkpt><trkpt lat="43.13947396006124" lon="11.481186279542712"><ele>143.0</ele><time>2026-04-25T11:32:31.999Z</time></trkpt><trkpt lat="43.13950113232437" lon="11.481298452323568"><ele>143.0</ele><time>2026-04-25T11:32:32.999Z</time></trkpt><trkpt lat="43.13953537336576" lon="11.481412017218537"><ele>143.0</ele><time>2026-04-25T11:32:33.999Z</time></trkpt><trkpt lat="43.13957270117907" lon="11.481523886202247"><ele>143.0</ele><time>2026-04-25T11:32:35Z</time></trkpt><trkpt lat="43.13961657353024" lon="11.48163932965139"><ele>143.66666666666666</ele><time>2026-04-25T11:32:36Z</time></trkpt><trkpt lat="43.13965950168394" lon="11.481760272350938"><ele>144.33333333333331</ele><time>2026-04-25T11:32:37Z</time></trkpt><trkpt lat="43.139700385121195" lon="11.481874593761004"><ele>145.0</ele><time>2026-04-25T11:32:38Z</time></trkpt><trkpt lat="43.13973920021508" lon="11.48197614482097"><ele>145.66666666666666</ele><time>2026-04-25T11:32:39Z</time></trkpt><trkpt lat="43.139773582114195" lon="11.482073971461915"><ele>146.33333333333334</ele><time>2026-04-25T11:32:40Z</time></trkpt><trkpt lat="43.13980249927693" lon="11.482171983097492"><ele>147.0</ele><time>2026-04-25T11:32:41Z</time></trkpt><trkpt lat="43.13982232108607" lon="11.482260159336322"><ele>147.0</ele><time>2026-04-25T11:32:42Z</time></trkpt><trkpt lat="43.13987074402107" lon="11.482378987273048"><ele>147.0</ele><time>2026-04-25T11:32:44Z</time></trkpt><trkpt lat="43.1399002726725" lon="11.482463621384317"><ele>147.0</ele><time>2026-04-25T11:33:14Z</time></trkpt><trkpt lat="43.13988761017871" lon="11.482374461546675"><ele>147.0</ele><time>2026-04-25T11:33:19Z</time></trkpt><trkpt lat="43.13986057853179" lon="11.48224680154005"><ele>147.0</ele><time>2026-04-25T11:33:21Z</time></trkpt><trkpt lat="43.13980405249143" lon="11.482099854400527"><ele>147.2</ele><time>2026-04-25T11:33:23Z</time></trkpt><trkpt lat="43.1397409345071" lon="11.481917298353375"><ele>147.39999999999998</ele><time>2026-04-25T11:33:25Z</time></trkpt><trkpt lat="43.139694443350194" lon="11.48176690599882"><ele>147.60000000000002</ele><time>2026-04-25T11:33:26Z</time></trkpt><trkpt lat="43.13966093471494" lon="11.481665037249241"><ele>147.8</ele><time>2026-04-25T11:33:27Z</time></trkpt><trkpt lat="43.13962634740725" lon="11.481557020846472"><ele>148.0</ele><time>2026-04-25T11:33:28Z</time></trkpt><trkpt lat="43.13959091110693" lon="11.481450437610206"><ele>148.0</ele><time>2026-04-25T11:33:29Z</time></trkpt><trkpt lat="43.13955509366093" lon="11.481345544495374"><ele>148.0</ele><time>2026-04-25T11:33:29.996Z</time></trkpt><trkpt lat="43.1395179443216" lon="11.481243406764259"><ele>148.0</ele><time>2026-04-25T11:33:30.996Z</time></trkpt><trkpt lat="43.13948288157217" lon="11.481149886819649"><ele>148.0</ele><time>2026-04-25T11:33:31.996Z</time></trkpt><trkpt lat="43.139441122173565" lon="11.481067528506955"><ele>148.0</ele><time>2026-04-25T11:33:32.996Z</time></trkpt><trkpt lat="43.13939307176559" lon="11.480992418760131"><ele>148.0</ele><time>2026-04-25T11:33:33.996Z</time></trkpt><trkpt lat="43.13933036655631" lon="11.480944115346828"><ele>147.5</ele><time>2026-04-25T11:33:34.996Z</time></trkpt><trkpt lat="43.13925894042531" lon="11.48093437217379"><ele>147.0</ele><time>2026-04-25T11:33:35.996Z</time></trkpt><trkpt lat="43.13918196864211" lon="11.480950444296155"><ele>146.5</ele><time>2026-04-25T11:33:36.996Z</time></trkpt><trkpt lat="43.139105019310215" lon="11.480973981538238"><ele>146.0</ele><time>2026-04-25T11:33:37.996Z</time></trkpt><trkpt lat="43.139030081777484" lon="11.480991414265352"><ele>145.5</ele><time>2026-04-25T11:33:38.996Z</time></trkpt><trkpt lat="43.13895540103693" lon="11.481007564732076"><ele>145.0</ele><time>2026-04-25T11:33:39.996Z</time></trkpt><trkpt lat="43.13887961805524" lon="11.48102123151"><ele>145.0</ele><time>2026-04-25T11:33:40.996Z</time></trkpt><trkpt lat="43.13880442642723" lon="11.48103410483199"><ele>145.0</ele><time>2026-04-25T11:33:41.997Z</time></trkpt><trkpt lat="43.13873439591654" lon="11.481047805390748"><ele>145.0</ele><time>2026-04-25T11:33:42.997Z</time></trkpt><trkpt lat="43.138666886465316" lon="11.481061690544255"><ele>145.0</ele><time>2026-04-25T11:33:43.997Z</time></trkpt><trkpt lat="43.13860403412598" lon="11.48107657113068"><ele>145.0</ele><time>2026-04-25T11:33:44.997Z</time></trkpt><trkpt lat="43.13850730779634" lon="11.481097605983921"><ele>145.0</ele><time>2026-04-25T11:33:46.997Z</time></trkpt><trkpt lat="43.13842779937091" lon="11.481094421698371"><ele>145.0</ele><time>2026-04-25T11:33:49.997Z</time></trkpt><trkpt lat="43.13851974658866" lon="11.48110837929079"><ele>145.0</ele><time>2026-04-25T11:35:04Z</time></trkpt><trkpt lat="43.13860707731914" lon="11.481085335229695"><ele>145.0</ele><time>2026-04-25T11:35:06Z</time></trkpt><trkpt lat="43.13872340280693" lon="11.481062241497876"><ele>145.0</ele><time>2026-04-25T11:35:08Z</time></trkpt><trkpt lat="43.138832480302206" lon="11.481035678533347"><ele>145.0</ele><time>2026-04-25T11:35:10Z</time></trkpt><trkpt lat="43.138935478418176" lon="11.48101055632907"><ele>145.0</ele><time>2026-04-25T11:35:12Z</time></trkpt><trkpt lat="43.13902238250985" lon="11.480994114158733"><ele>145.0</ele><time>2026-04-25T11:35:14Z</time></trkpt><trkpt lat="43.13908530071398" lon="11.480974125729352"><ele>145.0</ele><time>2026-04-25T11:35:22.001Z</time></trkpt><trkpt lat="43.139160215589285" lon="11.480957592314684"><ele>145.0</ele><time>2026-04-25T11:35:24.001Z</time></trkpt><trkpt lat="43.13922567721717" lon="11.48094013293421"><ele>145.0</ele><time>2026-04-25T11:35:25.001Z</time></trkpt><trkpt lat="43.139308713211356" lon="11.480955070462215"><ele>145.0</ele><time>2026-04-25T11:35:27.001Z</time></trkpt><trkpt lat="43.13940353507943" lon="11.481055284993962"><ele>144.6</ele><time>2026-04-25T11:35:29.001Z</time></trkpt><trkpt lat="43.139444919664086" lon="11.481125928518585"><ele>144.2</ele><time>2026-04-25T11:35:30.001Z</time></trkpt><trkpt lat="43.13949666463608" lon="11.481268249935507"><ele>143.8</ele><time>2026-04-25T11:35:32.001Z</time></trkpt><trkpt lat="43.13952904498429" lon="11.481414028894582"><ele>143.4</ele><time>2026-04-25T11:35:34.001Z</time></trkpt><trkpt lat="43.13957521187593" lon="11.48154315748216"><ele>143.0</ele><time>2026-04-25T11:35:35.995Z</time></trkpt><trkpt lat="43.13962933001189" lon="11.481689553474471"><ele>143.66666666666666</ele><time>2026-04-25T11:35:37.995Z</time></trkpt><trkpt lat="43.139659413163734" lon="11.481774512070196"><ele>144.33333333333331</ele><time>2026-04-25T11:35:38.995Z</time></trkpt><trkpt lat="43.139687288125124" lon="11.481856061913009"><ele>145.0</ele><time>2026-04-25T11:35:39.995Z</time></trkpt><trkpt lat="43.139714298597596" lon="11.481937312631278"><ele>145.66666666666666</ele><time>2026-04-25T11:35:40.995Z</time></trkpt><trkpt lat="43.139759231971915" lon="11.482082591786046"><ele>146.33333333333334</ele><time>2026-04-25T11:35:42.995Z</time></trkpt><trkpt lat="43.13980105510906" lon="11.482212479477468"><ele>147.0</ele><time>2026-04-25T11:35:44.996Z</time></trkpt><trkpt lat="43.13983960297627" lon="11.482289365539375"><ele>147.0</ele><time>2026-04-25T11:35:46.996Z</time></trkpt><trkpt lat="43.13986970918383" lon="11.482376021266012"><ele>147.0</ele><time>2026-04-25T11:36:16.999Z</time></trkpt><trkpt lat="43.1398917048778" lon="11.48247997388097"><ele>147.0</ele><time>2026-04-25T11:36:21.999Z</time></trkpt><trkpt lat="43.13974088169378" lon="11.48256924911459"><ele>147.0</ele><time>2026-04-25T11:36:22.999Z</time></trkpt><trkpt lat="43.1396611366693" lon="11.482621937137514"><ele>147.0</ele><time>2026-04-25T11:36:24.999Z</time></trkpt><trkpt lat="43.13957093996" lon="11.482688936879589"><ele>147.0</ele><time>2026-04-25T11:36:26.999Z</time></trkpt><trkpt lat="43.13947847258211" lon="11.482759621967364"><ele>147.0</ele><time>2026-04-25T11:36:28.999Z</time></trkpt><trkpt lat="43.13939242688762" lon="11.482819075205606"><ele>147.0</ele><time>2026-04-25T11:36:30.999Z</time></trkpt><trkpt lat="43.13930513452496" lon="11.482883789293407"><ele>147.0</ele><time>2026-04-25T11:36:32.999Z</time></trkpt><trkpt lat="43.13919928211443" lon="11.482950105258459"><ele>147.0</ele><time>2026-04-25T11:36:34.999Z</time></trkpt><trkpt lat="43.13914066467897" lon="11.482985511767142"><ele>146.83333333333334</ele><time>2026-04-25T11:36:36Z</time></trkpt><trkpt lat="43.13907666829541" lon="11.483025870139855"><ele>146.66666666666666</ele><time>2026-04-25T11:36:37Z</time></trkpt><trkpt lat="43.13900191522115" lon="11.483065320660257"><ele>146.5</ele><time>2026-04-25T11:36:38Z</time></trkpt><trkpt lat="43.138918630969435" lon="11.48310098812518"><ele>146.33333333333331</ele><time>2026-04-25T11:36:39Z</time></trkpt><trkpt lat="43.138830919064596" lon="11.48314114304924"><ele>146.16666666666666</ele><time>2026-04-25T11:36:40Z</time></trkpt><trkpt lat="43.13873578687953" lon="11.483179797246756"><ele>146.0</ele><time>2026-04-25T11:36:41Z</time></trkpt><trkpt lat="43.13863497852919" lon="11.483219181201395"><ele>146.0</ele><time>2026-04-25T11:36:42Z</time></trkpt><trkpt lat="43.13852642772959" lon="11.483256325001172"><ele>146.0</ele><time>2026-04-25T11:36:43Z</time></trkpt><trkpt lat="43.13842005647323" lon="11.483285453553231"><ele>146.0</ele><time>2026-04-25T11:36:44Z</time></trkpt><trkpt lat="43.138312599523786" lon="11.48330437131911"><ele>146.0</ele><time>2026-04-25T11:36:45Z</time></trkpt><trkpt lat="43.13820650176682" lon="11.483317322461625"><ele>146.0</ele><time>2026-04-25T11:36:46Z</time></trkpt><trkpt lat="43.13810289517961" lon="11.483327821987952"><ele>146.16666666666666</ele><time>2026-04-25T11:36:47Z</time></trkpt><trkpt lat="43.13800827940882" lon="11.483333636081577"><ele>146.33333333333331</ele><time>2026-04-25T11:36:48Z</time></trkpt><trkpt lat="43.13792049041428" lon="11.483341110654482"><ele>146.5</ele><time>2026-04-25T11:36:49Z</time></trkpt><trkpt lat="43.137847221325124" lon="11.48334518654214"><ele>146.66666666666666</ele><time>2026-04-25T11:36:50Z</time></trkpt><trkpt lat="43.137738108306905" lon="11.483357220663247"><ele>146.83333333333334</ele><time>2026-04-25T11:36:52Z</time></trkpt><trkpt lat="43.137662429855176" lon="11.48334366008284"><ele>147.0</ele><time>2026-04-25T11:36:54Z</time></trkpt><trkpt lat="43.137672520684504" lon="11.483558304075613"><ele>147.0</ele><time>2026-04-25T11:36:56Z</time></trkpt><trkpt lat="43.137669572413046" lon="11.483698371107229"><ele>147.0</ele><time>2026-04-25T11:36:58Z</time></trkpt><trkpt lat="43.137666792948934" lon="11.483822885794527"><ele>147.0</ele><time>2026-04-25T11:37:00Z</time></trkpt><trkpt lat="43.13766487401279" lon="11.483940248104869"><ele>147.0</ele><time>2026-04-25T11:37:02Z</time></trkpt><trkpt lat="43.137649535331676" lon="11.484024034663916"><ele>147.0</ele><time>2026-04-25T11:37:03Z</time></trkpt><trkpt lat="43.13765313809443" lon="11.484121705722204"><ele>147.0</ele><time>2026-04-25T11:37:04Z</time></trkpt><trkpt lat="43.13765441594803" lon="11.484233000453559"><ele>147.0</ele><time>2026-04-25T11:37:05Z</time></trkpt><trkpt lat="43.137653581469785" lon="11.484352077439302"><ele>147.0</ele><time>2026-04-25T11:37:06.001Z</time></trkpt><trkpt lat="43.137664160322124" lon="11.484480719614632"><ele>147.0</ele><time>2026-04-25T11:37:07.001Z</time></trkpt><trkpt lat="43.13766433454396" lon="11.484595914988475"><ele>147.0</ele><time>2026-04-25T11:37:08.001Z</time></trkpt><trkpt lat="43.13765454756518" lon="11.484708399559102"><ele>147.0</ele><time>2026-04-25T11:37:09.001Z</time></trkpt><trkpt lat="43.13766070214802" lon="11.484825885910096"><ele>147.0</ele><time>2026-04-25T11:37:10.001Z</time></trkpt><trkpt lat="43.13766480910878" lon="11.48495840881627"><ele>147.2</ele><time>2026-04-25T11:37:11.001Z</time></trkpt><trkpt lat="43.13766505751288" lon="11.485085225079235"><ele>147.39999999999998</ele><time>2026-04-25T11:37:12.001Z</time></trkpt><trkpt lat="43.13766383089736" lon="11.485227989996943"><ele>147.60000000000002</ele><time>2026-04-25T11:37:13.001Z</time></trkpt><trkpt lat="43.13766135678348" lon="11.485361429435272"><ele>147.8</ele><time>2026-04-25T11:37:14.001Z</time></trkpt><trkpt lat="43.137656232603035" lon="11.485481183588561"><ele>148.0</ele><time>2026-04-25T11:37:15.001Z</time></trkpt><trkpt lat="43.137652052607955" lon="11.48559019361271"><ele>148.0</ele><time>2026-04-25T11:37:16.001Z</time></trkpt><trkpt lat="43.137658390897506" lon="11.485745564434271"><ele>148.0</ele><time>2026-04-25T11:37:18.001Z</time></trkpt><trkpt lat="43.13765828808407" lon="11.485899849846936"><ele>148.0</ele><time>2026-04-25T11:37:20.001Z</time></trkpt><trkpt lat="43.137660207838906" lon="11.485988586316385"><ele>148.0</ele><time>2026-04-25T11:37:21.001Z</time></trkpt><trkpt lat="43.13766094479595" lon="11.486087769278237"><ele>148.0</ele><time>2026-04-25T11:37:22.001Z</time></trkpt><trkpt lat="43.13766085776931" lon="11.486198103001202"><ele>148.0</ele><time>2026-04-25T11:37:23.001Z</time></trkpt><trkpt lat="43.137659994689656" lon="11.48631851040282"><ele>148.0</ele><time>2026-04-25T11:37:24.001Z</time></trkpt><trkpt lat="43.13766061237089" lon="11.486451695557381"><ele>148.0</ele><time>2026-04-25T11:37:25.001Z</time></trkpt><trkpt lat="43.13765805435105" lon="11.486602285313165"><ele>148.0</ele><time>2026-04-25T11:37:26.001Z</time></trkpt><trkpt lat="43.13765907996842" lon="11.486747967615948"><ele>148.0</ele><time>2026-04-25T11:37:27.001Z</time></trkpt><trkpt lat="43.137657719127944" lon="11.486897125520267"><ele>148.0</ele><time>2026-04-25T11:37:28.001Z</time></trkpt><trkpt lat="43.1376598990107" lon="11.487044852653032"><ele>148.6</ele><time>2026-04-25T11:37:29.001Z</time></trkpt><trkpt lat="43.13766191272818" lon="11.487184664789174"><ele>149.20000000000002</ele><time>2026-04-25T11:37:30.001Z</time></trkpt><trkpt lat="43.13766188267032" lon="11.487320859253751"><ele>149.8</ele><time>2026-04-25T11:37:31.001Z</time></trkpt><trkpt lat="43.13766183924333" lon="11.48745187824912"><ele>150.4</ele><time>2026-04-25T11:37:32.001Z</time></trkpt><trkpt lat="43.137662704091966" lon="11.487570813974088"><ele>151.0</ele><time>2026-04-25T11:37:33.001Z</time></trkpt><trkpt lat="43.13766180194552" lon="11.48767162086843"><ele>151.0</ele><time>2026-04-25T11:37:34.001Z</time></trkpt><trkpt lat="43.1376616719233" lon="11.487801245683965"><ele>151.0</ele><time>2026-04-25T11:37:36.001Z</time></trkpt><trkpt lat="43.13764884250697" lon="11.487889924552126"><ele>151.0</ele><time>2026-04-25T11:37:46.998Z</time></trkpt><trkpt lat="43.13765118033589" lon="11.487780212782688"><ele>151.0</ele><time>2026-04-25T11:38:22.001Z</time></trkpt><trkpt lat="43.1376512693338" lon="11.487671706764383"><ele>151.0</ele><time>2026-04-25T11:38:25.001Z</time></trkpt><trkpt lat="43.137651355399946" lon="11.487566774263605"><ele>151.0</ele><time>2026-04-25T11:38:28.001Z</time></trkpt><trkpt lat="43.13765144978556" lon="11.487451697769165"><ele>151.0</ele><time>2026-04-25T11:38:30.001Z</time></trkpt><trkpt lat="43.13765157924113" lon="11.487293864768874"><ele>151.0</ele><time>2026-04-25T11:38:32.001Z</time></trkpt><trkpt lat="43.13766605312067" lon="11.487200841861378"><ele>151.0</ele><time>2026-04-25T11:38:33.001Z</time></trkpt><trkpt lat="43.13765983140401" lon="11.487060227636682"><ele>151.0</ele><time>2026-04-25T11:38:34.001Z</time></trkpt><trkpt lat="43.137658088593405" lon="11.486916088109306"><ele>151.0</ele><time>2026-04-25T11:38:35.001Z</time></trkpt><trkpt lat="43.137659695837336" lon="11.486744203615459"><ele>150.4</ele><time>2026-04-25T11:38:36.001Z</time></trkpt><trkpt lat="43.137662663601084" lon="11.486585383903261"><ele>149.8</ele><time>2026-04-25T11:38:37.001Z</time></trkpt><trkpt lat="43.13766237331601" lon="11.486458186906209"><ele>149.20000000000002</ele><time>2026-04-25T11:38:38.001Z</time></trkpt><trkpt lat="43.13766318222634" lon="11.486332892888601"><ele>148.6</ele><time>2026-04-25T11:38:39.001Z</time></trkpt><trkpt lat="43.13766273797588" lon="11.48622358670785"><ele>148.0</ele><time>2026-04-25T11:38:40.001Z</time></trkpt><trkpt lat="43.13766244378954" lon="11.48610739621058"><ele>148.0</ele><time>2026-04-25T11:38:41.001Z</time></trkpt><trkpt lat="43.13766345005246" lon="11.486001420643136"><ele>148.0</ele><time>2026-04-25T11:38:42.001Z</time></trkpt><trkpt lat="43.13766387693378" lon="11.485912338862887"><ele>148.0</ele><time>2026-04-25T11:38:43.001Z</time></trkpt><trkpt lat="43.137642038232876" lon="11.485800253436844"><ele>148.0</ele><time>2026-04-25T11:38:45.001Z</time></trkpt><trkpt lat="43.137412454732655" lon="11.485799363281151"><ele>147.6</ele><time>2026-04-25T11:38:48.002Z</time></trkpt><trkpt lat="43.13732782460926" lon="11.48579608028411"><ele>147.20000000000002</ele><time>2026-04-25T11:38:49.002Z</time></trkpt><trkpt lat="43.13723049736143" lon="11.48579491201591"><ele>146.8</ele><time>2026-04-25T11:38:50.002Z</time></trkpt><trkpt lat="43.13713488955367" lon="11.48579376466796"><ele>146.4</ele><time>2026-04-25T11:38:51.002Z</time></trkpt><trkpt lat="43.13702161267433" lon="11.4857967184196"><ele>146.0</ele><time>2026-04-25T11:38:52.002Z</time></trkpt><trkpt lat="43.136898496073826" lon="11.485793003327641"><ele>146.0</ele><time>2026-04-25T11:38:53.002Z</time></trkpt><trkpt lat="43.13676971970296" lon="11.485786556270583"><ele>146.0</ele><time>2026-04-25T11:38:54.002Z</time></trkpt><trkpt lat="43.13663334875064" lon="11.485780437213773"><ele>146.0</ele><time>2026-04-25T11:38:55.002Z</time></trkpt><trkpt lat="43.1365052564026" lon="11.485777240914407"><ele>146.0</ele><time>2026-04-25T11:38:56.002Z</time></trkpt><trkpt lat="43.136377472134484" lon="11.485774713319653"><ele>146.25</ele><time>2026-04-25T11:38:57.002Z</time></trkpt><trkpt lat="43.136243561830206" lon="11.485772231985948"><ele>146.5</ele><time>2026-04-25T11:38:58.002Z</time></trkpt><trkpt lat="43.13610817129815" lon="11.485767354100663"><ele>146.75</ele><time>2026-04-25T11:38:59.002Z</time></trkpt><trkpt lat="43.13597504037281" lon="11.48576052635156"><ele>147.0</ele><time>2026-04-25T11:39:00.002Z</time></trkpt><trkpt lat="43.13583901578487" lon="11.485754339371184"><ele>147.0</ele><time>2026-04-25T11:39:01.002Z</time></trkpt><trkpt lat="43.13570565516865" lon="11.485754770822505"><ele>147.0</ele><time>2026-04-25T11:39:02.002Z</time></trkpt><trkpt lat="43.135582183615796" lon="11.485752135553914"><ele>147.0</ele><time>2026-04-25T11:39:03.002Z</time></trkpt><trkpt lat="43.13545982566173" lon="11.485748403262056"><ele>147.0</ele><time>2026-04-25T11:39:04.002Z</time></trkpt><trkpt lat="43.135337707546405" lon="11.48574561986512"><ele>147.0</ele><time>2026-04-25T11:39:05.002Z</time></trkpt><trkpt lat="43.13522415564384" lon="11.485740991646685"><ele>147.0</ele><time>2026-04-25T11:39:06.002Z</time></trkpt><trkpt lat="43.135119684828716" lon="11.485736320063161"><ele>147.0</ele><time>2026-04-25T11:39:07.002Z</time></trkpt><trkpt lat="43.13502154196022" lon="11.485727992590295"><ele>147.0</ele><time>2026-04-25T11:39:08.002Z</time></trkpt><trkpt lat="43.134938241610755" lon="11.485711025175595"><ele>147.0</ele><time>2026-04-25T11:39:09.002Z</time></trkpt><trkpt lat="43.13486645374021" lon="11.485707867846605"><ele>147.16666666666666</ele><time>2026-04-25T11:39:10.002Z</time></trkpt><trkpt lat="43.13481362740271" lon="11.485644240970652"><ele>147.33333333333334</ele><time>2026-04-25T11:39:11.002Z</time></trkpt><trkpt lat="43.13474776448435" lon="11.485615978510705"><ele>147.5</ele><time>2026-04-25T11:39:12.002Z</time></trkpt><trkpt lat="43.13468875535403" lon="11.485521712883072"><ele>147.66666666666669</ele><time>2026-04-25T11:39:13.002Z</time></trkpt><trkpt lat="43.134661643778784" lon="11.485377632748037"><ele>147.83333333333334</ele><time>2026-04-25T11:39:14.002Z</time></trkpt><trkpt lat="43.13463883566327" lon="11.485239554241163"><ele>148.0</ele><time>2026-04-25T11:39:15.002Z</time></trkpt><trkpt lat="43.134601988900016" lon="11.485096731043475"><ele>147.5</ele><time>2026-04-25T11:39:16.002Z</time></trkpt><trkpt lat="43.13455475714826" lon="11.48495117387737"><ele>147.0</ele><time>2026-04-25T11:39:17.002Z</time></trkpt><trkpt lat="43.13451070373066" lon="11.48479963747696"><ele>146.5</ele><time>2026-04-25T11:39:18.002Z</time></trkpt><trkpt lat="43.134482427952726" lon="11.484655684335259"><ele>146.0</ele><time>2026-04-25T11:39:19.002Z</time></trkpt><trkpt lat="43.134439126021135" lon="11.484523585855898"><ele>145.8</ele><time>2026-04-25T11:39:20.003Z</time></trkpt><trkpt lat="43.13440427730018" lon="11.484389817565347"><ele>145.6</ele><time>2026-04-25T11:39:21.003Z</time></trkpt><trkpt lat="43.13436781806784" lon="11.484250685272151"><ele>145.4</ele><time>2026-04-25T11:39:22.003Z</time></trkpt><trkpt lat="43.134333599662206" lon="11.484124701807408"><ele>145.2</ele><time>2026-04-25T11:39:23.003Z</time></trkpt><trkpt lat="43.13430153643523" lon="11.484008148080646"><ele>145.0</ele><time>2026-04-25T11:39:24.003Z</time></trkpt><trkpt lat="43.13427290144555" lon="11.483897166383663"><ele>145.0</ele><time>2026-04-25T11:39:25.003Z</time></trkpt><trkpt lat="43.13424424482601" lon="11.483784938183096"><ele>145.0</ele><time>2026-04-25T11:39:26.003Z</time></trkpt><trkpt lat="43.134213397094946" lon="11.483667349736429"><ele>145.0</ele><time>2026-04-25T11:39:27.003Z</time></trkpt><trkpt lat="43.13418089295754" lon="11.483552701071234"><ele>145.0</ele><time>2026-04-25T11:39:28.003Z</time></trkpt><trkpt lat="43.13415134125826" lon="11.483449460199878"><ele>145.0</ele><time>2026-04-25T11:39:29.003Z</time></trkpt><trkpt lat="43.134121290380655" lon="11.483351077140043"><ele>145.0</ele><time>2026-04-25T11:39:30.003Z</time></trkpt><trkpt lat="43.134100246508766" lon="11.483268415567457"><ele>145.0</ele><time>2026-04-25T11:39:31.003Z</time></trkpt><trkpt lat="43.13408930713353" lon="11.483158703394672"><ele>145.0</ele><time>2026-04-25T11:39:33.003Z</time></trkpt><trkpt lat="43.13418686892206" lon="11.483133266157363"><ele>145.0</ele><time>2026-04-25T11:39:36.003Z</time></trkpt><trkpt lat="43.13425638601981" lon="11.483130827877684"><ele>145.0</ele><time>2026-04-25T11:39:37.003Z</time></trkpt><trkpt lat="43.134344536740365" lon="11.48315686147116"><ele>145.0</ele><time>2026-04-25T11:39:38.003Z</time></trkpt><trkpt lat="43.13446989408605" lon="11.483175312000029"><ele>145.0</ele><time>2026-04-25T11:39:39.003Z</time></trkpt><trkpt lat="43.13457298825083" lon="11.483193773411326"><ele>145.0</ele><time>2026-04-25T11:39:40.003Z</time></trkpt><trkpt lat="43.13466379289211" lon="11.483215719726994"><ele>145.0</ele><time>2026-04-25T11:39:41.003Z</time></trkpt><trkpt lat="43.134738014993886" lon="11.483229477822116"><ele>145.0</ele><time>2026-04-25T11:39:42.003Z</time></trkpt><trkpt lat="43.13480880295396" lon="11.483241897752896"><ele>145.0</ele><time>2026-04-25T11:39:43.003Z</time></trkpt><trkpt lat="43.13487568104512" lon="11.483254064809891"><ele>145.0</ele><time>2026-04-25T11:39:44.003Z</time></trkpt><trkpt lat="43.13494074941963" lon="11.483268222522366"><ele>145.16666666666669</ele><time>2026-04-25T11:39:45.003Z</time></trkpt><trkpt lat="43.13505991447842" lon="11.483292904824495"><ele>145.33333333333334</ele><time>2026-04-25T11:39:47.003Z</time></trkpt><trkpt lat="43.13512828070396" lon="11.48330947886623"><ele>145.5</ele><time>2026-04-25T11:39:47.999Z</time></trkpt><trkpt lat="43.1351962463282" lon="11.483318330888967"><ele>145.66666666666666</ele><time>2026-04-25T11:39:48.999Z</time></trkpt><trkpt lat="43.135269726458766" lon="11.48333043054504"><ele>145.83333333333331</ele><time>2026-04-25T11:39:49.999Z</time></trkpt><trkpt lat="43.135340284402865" lon="11.48334300386375"><ele>146.0</ele><time>2026-04-25T11:39:50.999Z</time></trkpt><trkpt lat="43.135405212987926" lon="11.483355791936626"><ele>146.0</ele><time>2026-04-25T11:39:51.999Z</time></trkpt><trkpt lat="43.135526923159894" lon="11.483381215484908"><ele>146.0</ele><time>2026-04-25T11:39:53.999Z</time></trkpt><trkpt lat="43.135603625416884" lon="11.483393161120565"><ele>146.0</ele><time>2026-04-25T11:39:54.999Z</time></trkpt><trkpt lat="43.135696724966394" lon="11.483399593684766"><ele>146.0</ele><time>2026-04-25T11:39:55.999Z</time></trkpt><trkpt lat="43.13579456002043" lon="11.483407982223373"><ele>146.0</ele><time>2026-04-25T11:39:56.999Z</time></trkpt><trkpt lat="43.13589016930114" lon="11.48341418466991"><ele>146.0</ele><time>2026-04-25T11:39:57.999Z</time></trkpt><trkpt lat="43.13599411470802" lon="11.483413846211455"><ele>146.0</ele><time>2026-04-25T11:39:58.999Z</time></trkpt><trkpt lat="43.13610785942183" lon="11.483412702695928"><ele>146.0</ele><time>2026-04-25T11:39:59.999Z</time></trkpt><trkpt lat="43.13622802536199" lon="11.483412824061707"><ele>146.0</ele><time>2026-04-25T11:40:00.999Z</time></trkpt><trkpt lat="43.13635199914874" lon="11.483412892416025"><ele>146.0</ele><time>2026-04-25T11:40:01.999Z</time></trkpt><trkpt lat="43.136476925861544" lon="11.483408543172233"><ele>146.0</ele><time>2026-04-25T11:40:03Z</time></trkpt><trkpt lat="43.136603603403536" lon="11.483402336214075"><ele>146.0</ele><time>2026-04-25T11:40:04Z</time></trkpt><trkpt lat="43.13673221717195" lon="11.483400371183183"><ele>146.0</ele><time>2026-04-25T11:40:05Z</time></trkpt><trkpt lat="43.136863250285806" lon="11.48339903419889"><ele>146.0</ele><time>2026-04-25T11:40:06Z</time></trkpt><trkpt lat="43.136991622416524" lon="11.483395573366534"><ele>146.0</ele><time>2026-04-25T11:40:07Z</time></trkpt><trkpt lat="43.137111778578515" lon="11.483389294312754"><ele>146.0</ele><time>2026-04-25T11:40:08Z</time></trkpt><trkpt lat="43.13723317118885" lon="11.483384718511102"><ele>146.0</ele><time>2026-04-25T11:40:09Z</time></trkpt><trkpt lat="43.137353912474694" lon="11.483382568419298"><ele>146.25</ele><time>2026-04-25T11:40:10Z</time></trkpt><trkpt lat="43.13747488544816" lon="11.483380726232022"><ele>146.5</ele><time>2026-04-25T11:40:11Z</time></trkpt><trkpt lat="43.13759725878694" lon="11.483373912768869"><ele>146.75</ele><time>2026-04-25T11:40:12Z</time></trkpt><trkpt lat="43.13771997167177" lon="11.48336911781586"><ele>147.0</ele><time>2026-04-25T11:40:13Z</time></trkpt><trkpt lat="43.13785243797971" lon="11.483363633978463"><ele>147.0</ele><time>2026-04-25T11:40:14Z</time></trkpt><trkpt lat="43.137995699072576" lon="11.483381613698686"><ele>147.0</ele><time>2026-04-25T11:40:15Z</time></trkpt><trkpt lat="43.13813949580242" lon="11.483376999899471"><ele>147.0</ele><time>2026-04-25T11:40:16Z</time></trkpt><trkpt lat="43.1382779297651" lon="11.483343342734097"><ele>147.0</ele><time>2026-04-25T11:40:17Z</time></trkpt><trkpt lat="43.13841271696564" lon="11.483321980947013"><ele>146.75</ele><time>2026-04-25T11:40:18Z</time></trkpt><trkpt lat="43.13854871322029" lon="11.483312339245817"><ele>146.5</ele><time>2026-04-25T11:40:19Z</time></trkpt><trkpt lat="43.13868690368373" lon="11.483271386814847"><ele>146.25</ele><time>2026-04-25T11:40:20Z</time></trkpt><trkpt lat="43.13882461940599" lon="11.483217975909339"><ele>146.0</ele><time>2026-04-25T11:40:21Z</time></trkpt><trkpt lat="43.13896441375671" lon="11.483154539974013"><ele>145.66666666666666</ele><time>2026-04-25T11:40:22Z</time></trkpt><trkpt lat="43.13910501801735" lon="11.48308063746191"><ele>145.33333333333334</ele><time>2026-04-25T11:40:23.001Z</time></trkpt><trkpt lat="43.13924925697654" lon="11.482995011587635"><ele>145.0</ele><time>2026-04-25T11:40:24.001Z</time></trkpt><trkpt lat="43.139393979570436" lon="11.48288928997655"><ele>145.66666666666669</ele><time>2026-04-25T11:40:25.001Z</time></trkpt><trkpt lat="43.13953813017687" lon="11.482781619539894"><ele>146.33333333333334</ele><time>2026-04-25T11:40:26.001Z</time></trkpt><trkpt lat="43.13968500901344" lon="11.482676312576402"><ele>147.0</ele><time>2026-04-25T11:40:27.001Z</time></trkpt><trkpt lat="43.13982413926776" lon="11.482576561074286"><ele>146.0</ele><time>2026-04-25T11:40:28.001Z</time></trkpt><trkpt lat="43.13994548791859" lon="11.482465096731401"><ele>145.0</ele><time>2026-04-25T11:40:29.001Z</time></trkpt><trkpt lat="43.14007370784305" lon="11.482375410084279"><ele>144.0</ele><time>2026-04-25T11:40:30.001Z</time></trkpt><trkpt lat="43.14020205141441" lon="11.482284302473873"><ele>143.0</ele><time>2026-04-25T11:40:31.001Z</time></trkpt><trkpt lat="43.14034432678664" lon="11.482204366742739"><ele>142.66666666666666</ele><time>2026-04-25T11:40:32.001Z</time></trkpt><trkpt lat="43.14047409528287" lon="11.482084533323832"><ele>142.33333333333334</ele><time>2026-04-25T11:40:33.001Z</time></trkpt><trkpt lat="43.140615295217735" lon="11.481984174574025"><ele>142.0</ele><time>2026-04-25T11:40:34.001Z</time></trkpt><trkpt lat="43.14075694156168" lon="11.481883620867055"><ele>141.66666666666669</ele><time>2026-04-25T11:40:35.001Z</time></trkpt><trkpt lat="43.14089954942395" lon="11.481785478304246"><ele>141.33333333333334</ele><time>2026-04-25T11:40:36.001Z</time></trkpt><trkpt lat="43.141039764045296" lon="11.481690051731752"><ele>141.0</ele><time>2026-04-25T11:40:37.001Z</time></trkpt><trkpt lat="43.14117804334105" lon="11.481593250013391"><ele>141.0</ele><time>2026-04-25T11:40:38.001Z</time></trkpt><trkpt lat="43.14132320150861" lon="11.481512680579355"><ele>141.0</ele><time>2026-04-25T11:40:39.001Z</time></trkpt><trkpt lat="43.141453918381224" lon="11.481407165601642"><ele>141.0</ele><time>2026-04-25T11:40:40.001Z</time></trkpt><trkpt lat="43.14158698419289" lon="11.481280087805"><ele>141.33333333333334</ele><time>2026-04-25T11:40:41.001Z</time></trkpt><trkpt lat="43.14171396530789" lon="11.481133263495197"><ele>141.66666666666669</ele><time>2026-04-25T11:40:42.001Z</time></trkpt><trkpt lat="43.14183386413264" lon="11.48097490945802"><ele>142.0</ele><time>2026-04-25T11:40:43.001Z</time></trkpt><trkpt lat="43.14195841272124" lon="11.480818984780406"><ele>142.0</ele><time>2026-04-25T11:40:44.001Z</time></trkpt><trkpt lat="43.14209096179674" lon="11.480653841297212"><ele>142.0</ele><time>2026-04-25T11:40:45.001Z</time></trkpt><trkpt lat="43.14221952297551" lon="11.480495919140525"><ele>142.0</ele><time>2026-04-25T11:40:46.001Z</time></trkpt><trkpt lat="43.142342144781985" lon="11.480344285339303"><ele>142.66666666666669</ele><time>2026-04-25T11:40:47.001Z</time></trkpt><trkpt lat="43.142455926891074" lon="11.48019495328501"><ele>143.33333333333334</ele><time>2026-04-25T11:40:48.001Z</time></trkpt><trkpt lat="43.14256365127895" lon="11.480035480914157"><ele>144.0</ele><time>2026-04-25T11:40:49.001Z</time></trkpt><trkpt lat="43.14265890076236" lon="11.479857729355386"><ele>144.0</ele><time>2026-04-25T11:40:50.001Z</time></trkpt><trkpt lat="43.142733787165625" lon="11.479661035747874"><ele>144.0</ele><time>2026-04-25T11:40:51.001Z</time></trkpt><trkpt lat="43.142769301843444" lon="11.47944669640755"><ele>144.0</ele><time>2026-04-25T11:40:52.002Z</time></trkpt><trkpt lat="43.14282573023724" lon="11.479234335504428"><ele>143.66666666666666</ele><time>2026-04-25T11:40:53.002Z</time></trkpt><trkpt lat="43.14284561591433" lon="11.479009521186356"><ele>143.33333333333331</ele><time>2026-04-25T11:40:54.002Z</time></trkpt><trkpt lat="43.142883351043295" lon="11.478788065661577"><ele>143.0</ele><time>2026-04-25T11:40:55.002Z</time></trkpt><trkpt lat="43.142918632409234" lon="11.478572632826584"><ele>143.0</ele><time>2026-04-25T11:40:56.002Z</time></trkpt><trkpt lat="43.14295678343152" lon="11.47834926305845"><ele>143.0</ele><time>2026-04-25T11:40:57.002Z</time></trkpt><trkpt lat="43.142993779864426" lon="11.478129965851418"><ele>143.0</ele><time>2026-04-25T11:40:58.002Z</time></trkpt><trkpt lat="43.14303543314705" lon="11.47791412344108"><ele>143.0</ele><time>2026-04-25T11:40:59.002Z</time></trkpt><trkpt lat="43.1430926660543" lon="11.477707512159247"><ele>143.0</ele><time>2026-04-25T11:41:00.002Z</time></trkpt><trkpt lat="43.1431652339039" lon="11.477522671900578"><ele>143.0</ele><time>2026-04-25T11:41:01.002Z</time></trkpt><trkpt lat="43.14324959067619" lon="11.477347589466351"><ele>143.0</ele><time>2026-04-25T11:41:02.002Z</time></trkpt><trkpt lat="43.143346298200214" lon="11.477185082247377"><ele>143.0</ele><time>2026-04-25T11:41:03.002Z</time></trkpt><trkpt lat="43.14346092009627" lon="11.477043685253093"><ele>143.0</ele><time>2026-04-25T11:41:04.002Z</time></trkpt><trkpt lat="43.14358720293403" lon="11.476899057168854"><ele>143.0</ele><time>2026-04-25T11:41:05.002Z</time></trkpt><trkpt lat="43.14371508533137" lon="11.4767582821625"><ele>143.0</ele><time>2026-04-25T11:41:06.002Z</time></trkpt><trkpt lat="43.14385257532506" lon="11.47663493290634"><ele>143.0</ele><time>2026-04-25T11:41:07.002Z</time></trkpt><trkpt lat="43.14397097409398" lon="11.476479228999285"><ele>142.75</ele><time>2026-04-25T11:41:08.002Z</time></trkpt><trkpt lat="43.14409525802866" lon="11.476357454399734"><ele>142.5</ele><time>2026-04-25T11:41:09.002Z</time></trkpt><trkpt lat="43.144213033549555" lon="11.47626020883916"><ele>142.25</ele><time>2026-04-25T11:41:10.002Z</time></trkpt><trkpt lat="43.144339198797006" lon="11.47618932493359"><ele>142.0</ele><time>2026-04-25T11:41:11.002Z</time></trkpt><trkpt lat="43.14448995893919" lon="11.476193754163003"><ele>142.0</ele><time>2026-04-25T11:41:12.002Z</time></trkpt><trkpt lat="43.144633469830794" lon="11.476218042791205"><ele>142.0</ele><time>2026-04-25T11:41:13.002Z</time></trkpt><trkpt lat="43.14478197419149" lon="11.476246327445551"><ele>142.0</ele><time>2026-04-25T11:41:14.002Z</time></trkpt><trkpt lat="43.1449246127078" lon="11.476274832354855"><ele>142.0</ele><time>2026-04-25T11:41:15.002Z</time></trkpt><trkpt lat="43.14506864032874" lon="11.476279257256099"><ele>142.0</ele><time>2026-04-25T11:41:16.002Z</time></trkpt><trkpt lat="43.14522554573013" lon="11.476256574184523"><ele>142.0</ele><time>2026-04-25T11:41:17.002Z</time></trkpt><trkpt lat="43.145392826302114" lon="11.476222028198617"><ele>142.0</ele><time>2026-04-25T11:41:18.002Z</time></trkpt><trkpt lat="43.14556855628923" lon="11.476177987542984"><ele>143.0</ele><time>2026-04-25T11:41:19.002Z</time></trkpt><trkpt lat="43.145744441742906" lon="11.47611830964923"><ele>144.0</ele><time>2026-04-25T11:41:20.002Z</time></trkpt><trkpt lat="43.14591433770064" lon="11.476058252287402"><ele>145.0</ele><time>2026-04-25T11:41:21.002Z</time></trkpt><trkpt lat="43.14609295377436" lon="11.476013945099139"><ele>145.0</ele><time>2026-04-25T11:41:22.002Z</time></trkpt><trkpt lat="43.14627075994773" lon="11.475949000850592"><ele>145.0</ele><time>2026-04-25T11:41:23.002Z</time></trkpt><trkpt lat="43.146449228230985" lon="11.475882205586373"><ele>145.0</ele><time>2026-04-25T11:41:24.002Z</time></trkpt><trkpt lat="43.14663219021638" lon="11.475814014115644"><ele>146.0</ele><time>2026-04-25T11:41:25.003Z</time></trkpt><trkpt lat="43.14681932718461" lon="11.475744376101522"><ele>147.0</ele><time>2026-04-25T11:41:26.003Z</time></trkpt><trkpt lat="43.147009864483024" lon="11.475673486755769"><ele>148.0</ele><time>2026-04-25T11:41:27.003Z</time></trkpt><trkpt lat="43.14720515777187" lon="11.475600865489355"><ele>148.66666666666669</ele><time>2026-04-25T11:41:28.003Z</time></trkpt><trkpt lat="43.14739577212444" lon="11.475508456780972"><ele>149.33333333333334</ele><time>2026-04-25T11:41:29.003Z</time></trkpt><trkpt lat="43.14759005452516" lon="11.475438789004167"><ele>150.0</ele><time>2026-04-25T11:41:30.003Z</time></trkpt><trkpt lat="43.14777319835694" lon="11.47537256641295"><ele>148.66666666666666</ele><time>2026-04-25T11:41:31.003Z</time></trkpt><trkpt lat="43.147956999584856" lon="11.475301926516892"><ele>147.33333333333331</ele><time>2026-04-25T11:41:32.003Z</time></trkpt><trkpt lat="43.14814308125219" lon="11.475228721356014"><ele>146.0</ele><time>2026-04-25T11:41:33.003Z</time></trkpt><trkpt lat="43.14832978740716" lon="11.475182663430378"><ele>146.0</ele><time>2026-04-25T11:41:34.003Z</time></trkpt><trkpt lat="43.14851257196535" lon="11.475092800781079"><ele>146.0</ele><time>2026-04-25T11:41:35.003Z</time></trkpt><trkpt lat="43.1486978030696" lon="11.4750249547785"><ele>146.0</ele><time>2026-04-25T11:41:36.003Z</time></trkpt><trkpt lat="43.14887978602314" lon="11.474955352198593"><ele>146.66666666666666</ele><time>2026-04-25T11:41:37.003Z</time></trkpt><trkpt lat="43.14905859218462" lon="11.474909444385265"><ele>147.33333333333334</ele><time>2026-04-25T11:41:38.003Z</time></trkpt><trkpt lat="43.14922945803066" lon="11.474844749906786"><ele>148.0</ele><time>2026-04-25T11:41:39.003Z</time></trkpt><trkpt lat="43.14939872529459" lon="11.47478066069545"><ele>148.0</ele><time>2026-04-25T11:41:40.003Z</time></trkpt><trkpt lat="43.149548588056476" lon="11.474632883138392"><ele>148.0</ele><time>2026-04-25T11:41:41.003Z</time></trkpt><trkpt lat="43.149704509718646" lon="11.474525253423318"><ele>148.0</ele><time>2026-04-25T11:41:42.003Z</time></trkpt><trkpt lat="43.149861898191084" lon="11.474419846695556"><ele>147.66666666666669</ele><time>2026-04-25T11:41:43.003Z</time></trkpt><trkpt lat="43.150019511417604" lon="11.474322054586061"><ele>147.33333333333334</ele><time>2026-04-25T11:41:44.003Z</time></trkpt><trkpt lat="43.1501760460992" lon="11.474221357677868"><ele>147.0</ele><time>2026-04-25T11:41:45.003Z</time></trkpt><trkpt lat="43.150335189328956" lon="11.474110673354257"><ele>147.0</ele><time>2026-04-25T11:41:46.003Z</time></trkpt><trkpt lat="43.150490757401535" lon="11.473986331900193"><ele>147.0</ele><time>2026-04-25T11:41:47.003Z</time></trkpt><trkpt lat="43.15064511945115" lon="11.473855448884194"><ele>147.0</ele><time>2026-04-25T11:41:48.003Z</time></trkpt><trkpt lat="43.15079524720341" lon="11.47370401631806"><ele>147.33333333333334</ele><time>2026-04-25T11:41:49.003Z</time></trkpt><trkpt lat="43.150944838735285" lon="11.473548782430774"><ele>147.66666666666669</ele><time>2026-04-25T11:41:50.003Z</time></trkpt><trkpt lat="43.1510965181659" lon="11.473389684267346"><ele>148.0</ele><time>2026-04-25T11:41:51.003Z</time></trkpt><trkpt lat="43.15125001457436" lon="11.473239886049774"><ele>148.0</ele><time>2026-04-25T11:41:52.003Z</time></trkpt><trkpt lat="43.15140121516277" lon="11.473096524202658"><ele>148.0</ele><time>2026-04-25T11:41:53.003Z</time></trkpt><trkpt lat="43.1515555741728" lon="11.472963402751407"><ele>148.0</ele><time>2026-04-25T11:41:53.999Z</time></trkpt><trkpt lat="43.15171544679784" lon="11.472847131833573"><ele>146.33333333333334</ele><time>2026-04-25T11:41:54.999Z</time></trkpt><trkpt lat="43.15188319208627" lon="11.472743313522997"><ele>144.66666666666666</ele><time>2026-04-25T11:41:55.999Z</time></trkpt><trkpt lat="43.15205328890678" lon="11.47265694383186"><ele>143.0</ele><time>2026-04-25T11:41:56.999Z</time></trkpt><trkpt lat="43.15223247935563" lon="11.472578310807352"><ele>143.0</ele><time>2026-04-25T11:41:57.999Z</time></trkpt><trkpt lat="43.15241939335612" lon="11.472513246326512"><ele>143.0</ele><time>2026-04-25T11:41:58.999Z</time></trkpt><trkpt lat="43.1526079196468" lon="11.472462036796715"><ele>143.0</ele><time>2026-04-25T11:41:59.999Z</time></trkpt><trkpt lat="43.152798729187126" lon="11.472418552594402"><ele>143.0</ele><time>2026-04-25T11:42:00.999Z</time></trkpt><trkpt lat="43.15299036903536" lon="11.47237608071069"><ele>143.0</ele><time>2026-04-25T11:42:01.999Z</time></trkpt><trkpt lat="43.1531766476033" lon="11.472334769599488"><ele>143.0</ele><time>2026-04-25T11:42:02.999Z</time></trkpt><trkpt lat="43.15336410767476" lon="11.472295191711675"><ele>143.0</ele><time>2026-04-25T11:42:03.999Z</time></trkpt><trkpt lat="43.15355036759954" lon="11.47225447260217"><ele>143.0</ele><time>2026-04-25T11:42:05Z</time></trkpt><trkpt lat="43.153737611859846" lon="11.472210287523982"><ele>143.0</ele><time>2026-04-25T11:42:06Z</time></trkpt><trkpt lat="43.15392124087362" lon="11.472162442566027"><ele>143.33333333333331</ele><time>2026-04-25T11:42:07Z</time></trkpt><trkpt lat="43.154110812972625" lon="11.472119833594789"><ele>143.66666666666666</ele><time>2026-04-25T11:42:08Z</time></trkpt><trkpt lat="43.15429848635428" lon="11.472081933831376"><ele>144.0</ele><time>2026-04-25T11:42:09Z</time></trkpt><trkpt lat="43.15448052787799" lon="11.472043129362378"><ele>144.0</ele><time>2026-04-25T11:42:10Z</time></trkpt><trkpt lat="43.15466456192752" lon="11.472001498050643"><ele>144.0</ele><time>2026-04-25T11:42:11Z</time></trkpt><trkpt lat="43.15485119818827" lon="11.47195242903136"><ele>144.0</ele><time>2026-04-25T11:42:12Z</time></trkpt><trkpt lat="43.15503632704589" lon="11.471910096188305"><ele>144.33333333333334</ele><time>2026-04-25T11:42:13Z</time></trkpt><trkpt lat="43.15522498662808" lon="11.471865229756691"><ele>144.66666666666669</ele><time>2026-04-25T11:42:14Z</time></trkpt><trkpt lat="43.15541544205352" lon="11.471826005887078"><ele>145.0</ele><time>2026-04-25T11:42:15Z</time></trkpt><trkpt lat="43.1556000173747" lon="11.471781602229719"><ele>146.0</ele><time>2026-04-25T11:42:16Z</time></trkpt><trkpt lat="43.15578049616797" lon="11.471739124054347"><ele>147.0</ele><time>2026-04-25T11:42:17Z</time></trkpt><trkpt lat="43.15595971431365" lon="11.471699341601564"><ele>148.0</ele><time>2026-04-25T11:42:18Z</time></trkpt><trkpt lat="43.156136932377024" lon="11.471660199151833"><ele>148.0</ele><time>2026-04-25T11:42:19Z</time></trkpt><trkpt lat="43.1563160965801" lon="11.471616283709116"><ele>148.0</ele><time>2026-04-25T11:42:20Z</time></trkpt><trkpt lat="43.15649368058225" lon="11.471567926299214"><ele>148.0</ele><time>2026-04-25T11:42:21Z</time></trkpt><trkpt lat="43.15667331040114" lon="11.471526237549586"><ele>148.33333333333334</ele><time>2026-04-25T11:42:22Z</time></trkpt><trkpt lat="43.15685849656194" lon="11.471492241293442"><ele>148.66666666666666</ele><time>2026-04-25T11:42:23Z</time></trkpt><trkpt lat="43.15703655714773" lon="11.471453305469948"><ele>149.0</ele><time>2026-04-25T11:42:24Z</time></trkpt><trkpt lat="43.15721866079212" lon="11.471412360056052"><ele>149.0</ele><time>2026-04-25T11:42:25Z</time></trkpt><trkpt lat="43.15739567120045" lon="11.471369084204358"><ele>149.0</ele><time>2026-04-25T11:42:26Z</time></trkpt><trkpt lat="43.157575267876375" lon="11.47132352542836"><ele>149.0</ele><time>2026-04-25T11:42:27Z</time></trkpt><trkpt lat="43.15774934287487" lon="11.47126910164162"><ele>148.33333333333331</ele><time>2026-04-25T11:42:28.001Z</time></trkpt><trkpt lat="43.15791609431465" lon="11.47119282136682"><ele>147.66666666666666</ele><time>2026-04-25T11:42:29.001Z</time></trkpt><trkpt lat="43.1580679265842" lon="11.471088129811065"><ele>147.0</ele><time>2026-04-25T11:42:30.001Z</time></trkpt><trkpt lat="43.158218311722365" lon="11.470975480587434"><ele>147.0</ele><time>2026-04-25T11:42:31.001Z</time></trkpt><trkpt lat="43.158368162845086" lon="11.470857191836343"><ele>147.0</ele><time>2026-04-25T11:42:32.001Z</time></trkpt><trkpt lat="43.15852145657972" lon="11.470742685011453"><ele>147.0</ele><time>2026-04-25T11:42:33.001Z</time></trkpt><trkpt lat="43.15868369765189" lon="11.47062539849024"><ele>147.0</ele><time>2026-04-25T11:42:34.001Z</time></trkpt><trkpt lat="43.158843215405895" lon="11.470497304901158"><ele>147.0</ele><time>2026-04-25T11:42:35.001Z</time></trkpt><trkpt lat="43.15900119902954" lon="11.470362778989085"><ele>147.0</ele><time>2026-04-25T11:42:36.001Z</time></trkpt><trkpt lat="43.159160251588396" lon="11.470220355225555"><ele>147.0</ele><time>2026-04-25T11:42:37.001Z</time></trkpt><trkpt lat="43.159318037388324" lon="11.470073672399533"><ele>147.0</ele><time>2026-04-25T11:42:38.001Z</time></trkpt><trkpt lat="43.15947092055269" lon="11.469927261110948"><ele>147.0</ele><time>2026-04-25T11:42:39.001Z</time></trkpt><trkpt lat="43.15961684633322" lon="11.469789255512971"><ele>147.0</ele><time>2026-04-25T11:42:40.001Z</time></trkpt><trkpt lat="43.15976113896047" lon="11.469649384798183"><ele>147.0</ele><time>2026-04-25T11:42:41.001Z</time></trkpt><trkpt lat="43.159906562515616" lon="11.469514943908008"><ele>147.0</ele><time>2026-04-25T11:42:42.001Z</time></trkpt><trkpt lat="43.16005294540812" lon="11.46937937314244"><ele>146.66666666666666</ele><time>2026-04-25T11:42:43.001Z</time></trkpt><trkpt lat="43.16019995988888" lon="11.469243085864269"><ele>146.33333333333331</ele><time>2026-04-25T11:42:44.001Z</time></trkpt><trkpt lat="43.16034748951151" lon="11.469104010778809"><ele>146.0</ele><time>2026-04-25T11:42:45.001Z</time></trkpt><trkpt lat="43.16049424835391" lon="11.46896829297614"><ele>146.0</ele><time>2026-04-25T11:42:46.001Z</time></trkpt><trkpt lat="43.16064083957042" lon="11.468845686985746"><ele>146.0</ele><time>2026-04-25T11:42:47.001Z</time></trkpt><trkpt lat="43.1607933741646" lon="11.468753938847437"><ele>146.0</ele><time>2026-04-25T11:42:48.001Z</time></trkpt><trkpt lat="43.16095129973076" lon="11.468696771121373"><ele>147.0</ele><time>2026-04-25T11:42:49.001Z</time></trkpt><trkpt lat="43.16111420800451" lon="11.468660227564136"><ele>148.0</ele><time>2026-04-25T11:42:50.001Z</time></trkpt><trkpt lat="43.1612803237046" lon="11.468629878181405"><ele>149.0</ele><time>2026-04-25T11:42:51.001Z</time></trkpt><trkpt lat="43.16144962024839" lon="11.468599766984948"><ele>149.66666666666666</ele><time>2026-04-25T11:42:52.001Z</time></trkpt><trkpt lat="43.161616984445395" lon="11.46856401023269"><ele>150.33333333333334</ele><time>2026-04-25T11:42:53.001Z</time></trkpt><trkpt lat="43.16178522739596" lon="11.468532191507814"><ele>151.0</ele><time>2026-04-25T11:42:54.001Z</time></trkpt><trkpt lat="43.16195402099489" lon="11.468504661017858"><ele>151.0</ele><time>2026-04-25T11:42:55.001Z</time></trkpt><trkpt lat="43.16212542222896" lon="11.468476644896633"><ele>151.0</ele><time>2026-04-25T11:42:56.001Z</time></trkpt><trkpt lat="43.16229723702694" lon="11.468447883096177"><ele>151.0</ele><time>2026-04-25T11:42:57.001Z</time></trkpt><trkpt lat="43.1624706870489" lon="11.468414947844574"><ele>150.0</ele><time>2026-04-25T11:42:58.002Z</time></trkpt><trkpt lat="43.162637550764366" lon="11.468379366314268"><ele>149.0</ele><time>2026-04-25T11:42:59.002Z</time></trkpt><trkpt lat="43.162800076708706" lon="11.46833962625926"><ele>148.0</ele><time>2026-04-25T11:43:00.002Z</time></trkpt><trkpt lat="43.16295670026668" lon="11.468279340273424"><ele>148.0</ele><time>2026-04-25T11:43:01.002Z</time></trkpt><trkpt lat="43.16309657636925" lon="11.468173718521516"><ele>148.0</ele><time>2026-04-25T11:43:02.002Z</time></trkpt><trkpt lat="43.163238497091356" lon="11.468075281104078"><ele>148.0</ele><time>2026-04-25T11:43:03.002Z</time></trkpt><trkpt lat="43.16337448329892" lon="11.467978157478683"><ele>146.66666666666669</ele><time>2026-04-25T11:43:04.002Z</time></trkpt><trkpt lat="43.1635095191023" lon="11.467884248137175"><ele>145.33333333333334</ele><time>2026-04-25T11:43:05.002Z</time></trkpt><trkpt lat="43.16364330047625" lon="11.467788135018603"><ele>144.0</ele><time>2026-04-25T11:43:06.002Z</time></trkpt><trkpt lat="43.16378289762857" lon="11.467689723668883"><ele>144.0</ele><time>2026-04-25T11:43:07.002Z</time></trkpt><trkpt lat="43.16391883742168" lon="11.467594347885274"><ele>144.0</ele><time>2026-04-25T11:43:08.002Z</time></trkpt><trkpt lat="43.16405679585623" lon="11.46749785175498"><ele>144.0</ele><time>2026-04-25T11:43:09.002Z</time></trkpt><trkpt lat="43.16419352347007" lon="11.467402966224043"><ele>144.66666666666666</ele><time>2026-04-25T11:43:10.002Z</time></trkpt><trkpt lat="43.16433126625474" lon="11.467306463025514"><ele>145.33333333333331</ele><time>2026-04-25T11:43:11.002Z</time></trkpt><trkpt lat="43.16446881369046" lon="11.467208674315287"><ele>146.0</ele><time>2026-04-25T11:43:12.002Z</time></trkpt><trkpt lat="43.16460423588732" lon="11.467112826675075"><ele>145.75</ele><time>2026-04-25T11:43:13.002Z</time></trkpt><trkpt lat="43.164738098201816" lon="11.467019584599054"><ele>145.5</ele><time>2026-04-25T11:43:14.002Z</time></trkpt><trkpt lat="43.16486086537678" lon="11.46692543460573"><ele>145.25</ele><time>2026-04-25T11:43:15.002Z</time></trkpt><trkpt lat="43.16498263694296" lon="11.46684243423953"><ele>145.0</ele><time>2026-04-25T11:43:16.002Z</time></trkpt><trkpt lat="43.16509941698869" lon="11.466760387767945"><ele>145.75</ele><time>2026-04-25T11:43:17.002Z</time></trkpt><trkpt lat="43.165210130179375" lon="11.466690185056573"><ele>146.5</ele><time>2026-04-25T11:43:18.002Z</time></trkpt><trkpt lat="43.16532020128264" lon="11.466627533613202"><ele>147.25</ele><time>2026-04-25T11:43:19.002Z</time></trkpt><trkpt lat="43.16543521018333" lon="11.466563211092286"><ele>148.0</ele><time>2026-04-25T11:43:20.002Z</time></trkpt><trkpt lat="43.16555196381621" lon="11.466511668712306"><ele>148.0</ele><time>2026-04-25T11:43:21.002Z</time></trkpt><trkpt lat="43.16566317153865" lon="11.466456830605434"><ele>148.0</ele><time>2026-04-25T11:43:22.002Z</time></trkpt><trkpt lat="43.165761749887736" lon="11.466383119489203"><ele>148.0</ele><time>2026-04-25T11:43:23.002Z</time></trkpt><trkpt lat="43.16585216511244" lon="11.466284241317833"><ele>148.0</ele><time>2026-04-25T11:43:24.002Z</time></trkpt><trkpt lat="43.16591716223859" lon="11.46618896329336"><ele>148.0</ele><time>2026-04-25T11:43:25.002Z</time></trkpt><trkpt lat="43.16597168588843" lon="11.466103122054719"><ele>147.33333333333334</ele><time>2026-04-25T11:43:26.002Z</time></trkpt><trkpt lat="43.16602414433051" lon="11.466028002095554"><ele>146.66666666666669</ele><time>2026-04-25T11:43:27.002Z</time></trkpt><trkpt lat="43.16607624505582" lon="11.465956021704299"><ele>146.0</ele><time>2026-04-25T11:43:28.002Z</time></trkpt><trkpt lat="43.16612934459326" lon="11.465878456514009"><ele>145.33333333333334</ele><time>2026-04-25T11:43:29.002Z</time></trkpt><trkpt lat="43.166182958309335" lon="11.465800164393386"><ele>144.66666666666666</ele><time>2026-04-25T11:43:30.002Z</time></trkpt><trkpt lat="43.166239292960455" lon="11.465724713791424"><ele>144.0</ele><time>2026-04-25T11:43:31.003Z</time></trkpt><trkpt lat="43.166301168637396" lon="11.465645013137802"><ele>144.0</ele><time>2026-04-25T11:43:32.003Z</time></trkpt><trkpt lat="43.1663698048125" lon="11.46556157638868"><ele>144.0</ele><time>2026-04-25T11:43:33.003Z</time></trkpt><trkpt lat="43.16644267225618" lon="11.46547504350472"><ele>144.0</ele><time>2026-04-25T11:43:34.003Z</time></trkpt><trkpt lat="43.16652475065725" lon="11.465393000349469"><ele>144.0</ele><time>2026-04-25T11:43:35.003Z</time></trkpt><trkpt lat="43.16661917507041" lon="11.465310304117777"><ele>144.0</ele><time>2026-04-25T11:43:36.003Z</time></trkpt><trkpt lat="43.16672159918406" lon="11.465237950843525"><ele>144.8</ele><time>2026-04-25T11:43:37.003Z</time></trkpt><trkpt lat="43.166825119210394" lon="11.465177915274941"><ele>145.60000000000002</ele><time>2026-04-25T11:43:38.003Z</time></trkpt><trkpt lat="43.16693042767503" lon="11.465127327658076"><ele>146.4</ele><time>2026-04-25T11:43:39.003Z</time></trkpt><trkpt lat="43.167037703776714" lon="11.465089512491657"><ele>147.20000000000002</ele><time>2026-04-25T11:43:40.003Z</time></trkpt><trkpt lat="43.16714652842201" lon="11.465067403200862"><ele>148.0</ele><time>2026-04-25T11:43:41.003Z</time></trkpt><trkpt lat="43.16725936728077" lon="11.465058548445484"><ele>148.25</ele><time>2026-04-25T11:43:42.003Z</time></trkpt><trkpt lat="43.167376561998296" lon="11.46505751586414"><ele>148.5</ele><time>2026-04-25T11:43:43.003Z</time></trkpt><trkpt lat="43.16749203782665" lon="11.465074324008256"><ele>148.75</ele><time>2026-04-25T11:43:44.003Z</time></trkpt><trkpt lat="43.1676056710162" lon="11.465107468111917"><ele>149.0</ele><time>2026-04-25T11:43:45.003Z</time></trkpt><trkpt lat="43.16770894204846" lon="11.465144784703131"><ele>149.0</ele><time>2026-04-25T11:43:46.003Z</time></trkpt><trkpt lat="43.167811924098515" lon="11.465195039617436"><ele>149.0</ele><time>2026-04-25T11:43:47.003Z</time></trkpt><trkpt lat="43.16791631104526" lon="11.465250357106905"><ele>149.0</ele><time>2026-04-25T11:43:48.003Z</time></trkpt><trkpt lat="43.16801904211498" lon="11.465311421900699"><ele>149.0</ele><time>2026-04-25T11:43:49.003Z</time></trkpt><trkpt lat="43.16812918561328" lon="11.46537473524892"><ele>149.0</ele><time>2026-04-25T11:43:50.003Z</time></trkpt><trkpt lat="43.16824005656274" lon="11.46544016317788"><ele>149.0</ele><time>2026-04-25T11:43:51.003Z</time></trkpt><trkpt lat="43.16834942944519" lon="11.465505259053497"><ele>149.0</ele><time>2026-04-25T11:43:52.003Z</time></trkpt><trkpt lat="43.16846296626164" lon="11.46556714632128"><ele>149.0</ele><time>2026-04-25T11:43:53.003Z</time></trkpt><trkpt lat="43.16858407590393" lon="11.465621143592907"><ele>149.0</ele><time>2026-04-25T11:43:54.003Z</time></trkpt><trkpt lat="43.16871135793337" lon="11.465664256747752"><ele>149.0</ele><time>2026-04-25T11:43:55.003Z</time></trkpt><trkpt lat="43.16883755856962" lon="11.46570061192076"><ele>149.0</ele><time>2026-04-25T11:43:56.003Z</time></trkpt><trkpt lat="43.16896966747825" lon="11.465727844926981"><ele>149.0</ele><time>2026-04-25T11:43:57.003Z</time></trkpt><trkpt lat="43.16909699773163" lon="11.465746085085767"><ele>149.25</ele><time>2026-04-25T11:43:58.003Z</time></trkpt><trkpt lat="43.169229000513646" lon="11.465757223604175"><ele>149.5</ele><time>2026-04-25T11:43:59.003Z</time></trkpt><trkpt lat="43.16936151040275" lon="11.465758846844578"><ele>149.75</ele><time>2026-04-25T11:43:59.999Z</time></trkpt><trkpt lat="43.169491414468105" lon="11.465749184774833"><ele>150.0</ele><time>2026-04-25T11:44:00.999Z</time></trkpt><trkpt lat="43.16961897009423" lon="11.465732941232684"><ele>150.0</ele><time>2026-04-25T11:44:01.999Z</time></trkpt><trkpt lat="43.1697378354765" lon="11.465709172834497"><ele>150.0</ele><time>2026-04-25T11:44:02.999Z</time></trkpt><trkpt lat="43.16984910924202" lon="11.465679840722107"><ele>150.0</ele><time>2026-04-25T11:44:03.999Z</time></trkpt><trkpt lat="43.169958323682586" lon="11.465643865810797"><ele>150.0</ele><time>2026-04-25T11:44:04.999Z</time></trkpt><trkpt lat="43.170064825782006" lon="11.465603874439259"><ele>149.8</ele><time>2026-04-25T11:44:05.999Z</time></trkpt><trkpt lat="43.170171860166356" lon="11.465566981127328"><ele>149.6</ele><time>2026-04-25T11:44:06.999Z</time></trkpt><trkpt lat="43.1702789442288" lon="11.465526131334537"><ele>149.4</ele><time>2026-04-25T11:44:07.999Z</time></trkpt><trkpt lat="43.170383995547105" lon="11.465484602944374"><ele>149.2</ele><time>2026-04-25T11:44:08.999Z</time></trkpt><trkpt lat="43.1704887782043" lon="11.46543886570389"><ele>149.0</ele><time>2026-04-25T11:44:09.999Z</time></trkpt><trkpt lat="43.17059105967361" lon="11.465393192954819"><ele>149.0</ele><time>2026-04-25T11:44:10.999Z</time></trkpt><trkpt lat="43.17069370984599" lon="11.465349212571187"><ele>149.0</ele><time>2026-04-25T11:44:11.999Z</time></trkpt><trkpt lat="43.170799707253096" lon="11.465301905153089"><ele>149.0</ele><time>2026-04-25T11:44:12.999Z</time></trkpt><trkpt lat="43.1709149343555" lon="11.465253353669928"><ele>149.0</ele><time>2026-04-25T11:44:14Z</time></trkpt><trkpt lat="43.17103674777187" lon="11.465209358880616"><ele>149.0</ele><time>2026-04-25T11:44:15Z</time></trkpt><trkpt lat="43.17116037699734" lon="11.465158739966618"><ele>149.0</ele><time>2026-04-25T11:44:16Z</time></trkpt><trkpt lat="43.17128389997659" lon="11.465110200606208"><ele>149.0</ele><time>2026-04-25T11:44:17Z</time></trkpt><trkpt lat="43.171405396786106" lon="11.465061142251283"><ele>149.0</ele><time>2026-04-25T11:44:18Z</time></trkpt><trkpt lat="43.171531005496895" lon="11.465009136547158"><ele>148.66666666666666</ele><time>2026-04-25T11:44:19Z</time></trkpt><trkpt lat="43.17166390616434" lon="11.464951337200423"><ele>148.33333333333334</ele><time>2026-04-25T11:44:20Z</time></trkpt><trkpt lat="43.17180925855527" lon="11.464881004629646"><ele>148.0</ele><time>2026-04-25T11:44:21Z</time></trkpt><trkpt lat="43.17196153134728" lon="11.464813813090087"><ele>148.0</ele><time>2026-04-25T11:44:22Z</time></trkpt><trkpt lat="43.1721242901125" lon="11.464743869577914"><ele>148.0</ele><time>2026-04-25T11:44:23Z</time></trkpt><trkpt lat="43.172291609422196" lon="11.46467216698481"><ele>148.0</ele><time>2026-04-25T11:44:24Z</time></trkpt><trkpt lat="43.17246553333912" lon="11.464608703878987"><ele>148.66666666666669</ele><time>2026-04-25T11:44:25Z</time></trkpt><trkpt lat="43.172659528890776" lon="11.464551625109529"><ele>149.33333333333334</ele><time>2026-04-25T11:44:26Z</time></trkpt><trkpt lat="43.17283602898645" lon="11.4644903022933"><ele>150.0</ele><time>2026-04-25T11:44:27Z</time></trkpt><trkpt lat="43.17299184574314" lon="11.464428585652328"><ele>150.0</ele><time>2026-04-25T11:44:28Z</time></trkpt><trkpt lat="43.17314186028833" lon="11.464369277233923"><ele>150.0</ele><time>2026-04-25T11:44:29Z</time></trkpt><trkpt lat="43.17329046898764" lon="11.464309843105474"><ele>150.0</ele><time>2026-04-25T11:44:30Z</time></trkpt><trkpt lat="43.17342667105809" lon="11.464255892158738"><ele>150.0</ele><time>2026-04-25T11:44:31Z</time></trkpt><trkpt lat="43.17356030611235" lon="11.464199957966532"><ele>150.0</ele><time>2026-04-25T11:44:32Z</time></trkpt><trkpt lat="43.17369397211374" lon="11.46414763074135"><ele>150.0</ele><time>2026-04-25T11:44:33Z</time></trkpt><trkpt lat="43.1738250016128" lon="11.464097219013224"><ele>150.0</ele><time>2026-04-25T11:44:34Z</time></trkpt><trkpt lat="43.17395715015754" lon="11.464044512949691"><ele>149.5</ele><time>2026-04-25T11:44:35.001Z</time></trkpt><trkpt lat="43.17409206804836" lon="11.463991104736188"><ele>149.0</ele><time>2026-04-25T11:44:36.001Z</time></trkpt><trkpt lat="43.17422823429855" lon="11.463935717387065"><ele>148.5</ele><time>2026-04-25T11:44:37.001Z</time></trkpt><trkpt lat="43.174364005062145" lon="11.463882072261317"><ele>148.0</ele><time>2026-04-25T11:44:38.001Z</time></trkpt><trkpt lat="43.17449957390871" lon="11.463827418544044"><ele>148.25</ele><time>2026-04-25T11:44:39.001Z</time></trkpt><trkpt lat="43.17463761142495" lon="11.463773409633319"><ele>148.5</ele><time>2026-04-25T11:44:40.001Z</time></trkpt><trkpt lat="43.17477866870364" lon="11.463718274001005"><ele>148.75</ele><time>2026-04-25T11:44:41.001Z</time></trkpt><trkpt lat="43.17491913859077" lon="11.463663883155105"><ele>149.0</ele><time>2026-04-25T11:44:42.001Z</time></trkpt><trkpt lat="43.175058762907526" lon="11.463608897634439"><ele>149.25</ele><time>2026-04-25T11:44:43.001Z</time></trkpt><trkpt lat="43.17519457699829" lon="11.46355623689264"><ele>149.5</ele><time>2026-04-25T11:44:44.001Z</time></trkpt><trkpt lat="43.175330014774154" lon="11.463504185503691"><ele>149.75</ele><time>2026-04-25T11:44:45.001Z</time></trkpt><trkpt lat="43.175465396926064" lon="11.463450547965778"><ele>150.0</ele><time>2026-04-25T11:44:46.001Z</time></trkpt><trkpt lat="43.175601803703735" lon="11.463396517610073"><ele>150.5</ele><time>2026-04-25T11:44:47.001Z</time></trkpt><trkpt lat="43.17574224387754" lon="11.463337896348142"><ele>151.0</ele><time>2026-04-25T11:44:48.001Z</time></trkpt><trkpt lat="43.17588427454153" lon="11.463280128332912"><ele>151.5</ele><time>2026-04-25T11:44:49.001Z</time></trkpt><trkpt lat="43.17602706215853" lon="11.463222852042907"><ele>152.0</ele><time>2026-04-25T11:44:50.001Z</time></trkpt><trkpt lat="43.17617061824902" lon="11.463163905945965"><ele>152.0</ele><time>2026-04-25T11:44:51.001Z</time></trkpt><trkpt lat="43.176313515970044" lon="11.4631064209331"><ele>152.0</ele><time>2026-04-25T11:44:52.001Z</time></trkpt><trkpt lat="43.17645517720204" lon="11.463050609057682"><ele>152.0</ele><time>2026-04-25T11:44:53.001Z</time></trkpt><trkpt lat="43.17659340230761" lon="11.462995345418385"><ele>152.0</ele><time>2026-04-25T11:44:54.001Z</time></trkpt><trkpt lat="43.17672955858399" lon="11.462938737955886"><ele>152.25</ele><time>2026-04-25T11:44:55.001Z</time></trkpt><trkpt lat="43.176862555076944" lon="11.462887226911404"><ele>152.5</ele><time>2026-04-25T11:44:56.001Z</time></trkpt><trkpt lat="43.17698536266905" lon="11.462838895965838"><ele>152.75</ele><time>2026-04-25T11:44:57.001Z</time></trkpt><trkpt lat="43.17710918117" lon="11.462789956459265"><ele>153.0</ele><time>2026-04-25T11:44:58.001Z</time></trkpt><trkpt lat="43.17723143614341" lon="11.462740277373904"><ele>153.0</ele><time>2026-04-25T11:44:59.001Z</time></trkpt><trkpt lat="43.17734940369928" lon="11.462694628012468"><ele>153.0</ele><time>2026-04-25T11:45:00.001Z</time></trkpt><trkpt lat="43.177464034320074" lon="11.462651819831244"><ele>153.0</ele><time>2026-04-25T11:45:01.001Z</time></trkpt><trkpt lat="43.177576398184286" lon="11.4626067846249"><ele>153.0</ele><time>2026-04-25T11:45:02.001Z</time></trkpt><trkpt lat="43.17769091564815" lon="11.462558170377383"><ele>153.25</ele><time>2026-04-25T11:45:03.001Z</time></trkpt><trkpt lat="43.17780167817957" lon="11.462514778794986"><ele>153.5</ele><time>2026-04-25T11:45:04.002Z</time></trkpt><trkpt lat="43.177912886104046" lon="11.46247079009236"><ele>153.75</ele><time>2026-04-25T11:45:05.002Z</time></trkpt><trkpt lat="43.178026126689346" lon="11.46243558027158"><ele>154.0</ele><time>2026-04-25T11:45:06.002Z</time></trkpt><trkpt lat="43.178146474234055" lon="11.462421212703028"><ele>153.75</ele><time>2026-04-25T11:45:07.002Z</time></trkpt><trkpt lat="43.178268605454235" lon="11.462431151728701"><ele>153.5</ele><time>2026-04-25T11:45:08.002Z</time></trkpt><trkpt lat="43.17838603295139" lon="11.462467713215702"><ele>153.25</ele><time>2026-04-25T11:45:09.002Z</time></trkpt><trkpt lat="43.17850474920106" lon="11.462514221038814"><ele>153.0</ele><time>2026-04-25T11:45:10.002Z</time></trkpt><trkpt lat="43.178624599733595" lon="11.462557050230673"><ele>153.0</ele><time>2026-04-25T11:45:11.002Z</time></trkpt><trkpt lat="43.17874654140516" lon="11.462599489011117"><ele>153.0</ele><time>2026-04-25T11:45:12.002Z</time></trkpt><trkpt lat="43.17887103162811" lon="11.462644238586345"><ele>153.0</ele><time>2026-04-25T11:45:13.002Z</time></trkpt><trkpt lat="43.17900095913007" lon="11.462690819422976"><ele>153.0</ele><time>2026-04-25T11:45:14.002Z</time></trkpt><trkpt lat="43.179132767826324" lon="11.462732989023825"><ele>154.0</ele><time>2026-04-25T11:45:15.002Z</time></trkpt><trkpt lat="43.17926572109738" lon="11.462764333944504"><ele>155.0</ele><time>2026-04-25T11:45:16.002Z</time></trkpt><trkpt lat="43.17940094301867" lon="11.46278130798721"><ele>156.0</ele><time>2026-04-25T11:45:17.002Z</time></trkpt><trkpt lat="43.17953744319654" lon="11.462779097662498"><ele>157.0</ele><time>2026-04-25T11:45:18.002Z</time></trkpt><trkpt lat="43.17967170125021" lon="11.462749077837405"><ele>157.0</ele><time>2026-04-25T11:45:19.002Z</time></trkpt><trkpt lat="43.17979586727683" lon="11.462692711683903"><ele>157.0</ele><time>2026-04-25T11:45:20.002Z</time></trkpt><trkpt lat="43.179916859884166" lon="11.462597694408073"><ele>157.0</ele><time>2026-04-25T11:45:21.002Z</time></trkpt><trkpt lat="43.18002753598083" lon="11.462480391054378"><ele>157.0</ele><time>2026-04-25T11:45:22.002Z</time></trkpt><trkpt lat="43.180121809502666" lon="11.462337712447455"><ele>157.33333333333334</ele><time>2026-04-25T11:45:23.002Z</time></trkpt><trkpt lat="43.18020492917496" lon="11.462162819072367"><ele>157.66666666666666</ele><time>2026-04-25T11:45:24.002Z</time></trkpt><trkpt lat="43.18027635476255" lon="11.461967366885643"><ele>158.0</ele><time>2026-04-25T11:45:25.002Z</time></trkpt><trkpt lat="43.180347961386325" lon="11.46177161867536"><ele>161.0</ele><time>2026-04-25T11:45:26.002Z</time></trkpt><trkpt lat="43.180425971126404" lon="11.461577838706763"><ele>164.0</ele><time>2026-04-25T11:45:27.002Z</time></trkpt><trkpt lat="43.18051837428537" lon="11.46139326693388"><ele>167.0</ele><time>2026-04-25T11:45:28.002Z</time></trkpt><trkpt lat="43.18062463293591" lon="11.461227474991073"><ele>165.33333333333331</ele><time>2026-04-25T11:45:29.002Z</time></trkpt><trkpt lat="43.18073806359718" lon="11.461081299653396"><ele>163.66666666666666</ele><time>2026-04-25T11:45:30.002Z</time></trkpt><trkpt lat="43.18086192857546" lon="11.460948190909939"><ele>162.0</ele><time>2026-04-25T11:45:31.002Z</time></trkpt><trkpt lat="43.18098460838234" lon="11.460823218976408"><ele>162.0</ele><time>2026-04-25T11:45:32.002Z</time></trkpt><trkpt lat="43.18110520315987" lon="11.460695503196424"><ele>162.0</ele><time>2026-04-25T11:45:33.002Z</time></trkpt><trkpt lat="43.18122814312907" lon="11.460563286640424"><ele>162.0</ele><time>2026-04-25T11:45:34.002Z</time></trkpt><trkpt lat="43.181358199619936" lon="11.460428340764938"><ele>161.33333333333334</ele><time>2026-04-25T11:45:35.002Z</time></trkpt><trkpt lat="43.18149058943319" lon="11.460291060634223"><ele>160.66666666666669</ele><time>2026-04-25T11:45:36.002Z</time></trkpt><trkpt lat="43.18162514933165" lon="11.460151425539802"><ele>160.0</ele><time>2026-04-25T11:45:37.003Z</time></trkpt><trkpt lat="43.18176050894419" lon="11.460016655587616"><ele>160.0</ele><time>2026-04-25T11:45:38.003Z</time></trkpt><trkpt lat="43.181895418226276" lon="11.459883448706416"><ele>160.0</ele><time>2026-04-25T11:45:39.003Z</time></trkpt><trkpt lat="43.182026571677184" lon="11.459755031002686"><ele>160.0</ele><time>2026-04-25T11:45:40.003Z</time></trkpt><trkpt lat="43.18216030303164" lon="11.459625627361039"><ele>160.0</ele><time>2026-04-25T11:45:41.003Z</time></trkpt><trkpt lat="43.18229559644721" lon="11.459496479889122"><ele>160.0</ele><time>2026-04-25T11:45:42.003Z</time></trkpt><trkpt lat="43.182428742448636" lon="11.45936787885028"><ele>160.0</ele><time>2026-04-25T11:45:43.003Z</time></trkpt><trkpt lat="43.18256122441865" lon="11.459232885601997"><ele>160.0</ele><time>2026-04-25T11:45:44.003Z</time></trkpt><trkpt lat="43.18269520789935" lon="11.459095063868649"><ele>160.0</ele><time>2026-04-25T11:45:45.003Z</time></trkpt><trkpt lat="43.18282937894846" lon="11.458960550157538"><ele>160.0</ele><time>2026-04-25T11:45:46.003Z</time></trkpt><trkpt lat="43.18296285020592" lon="11.45882712830191"><ele>160.66666666666669</ele><time>2026-04-25T11:45:47.003Z</time></trkpt><trkpt lat="43.18309546285509" lon="11.458693078934294"><ele>161.33333333333334</ele><time>2026-04-25T11:45:48.003Z</time></trkpt><trkpt lat="43.18322701254938" lon="11.458558516975694"><ele>162.0</ele><time>2026-04-25T11:45:49.003Z</time></trkpt><trkpt lat="43.18336257836984" lon="11.458425030314402"><ele>162.0</ele><time>2026-04-25T11:45:50.003Z</time></trkpt><trkpt lat="43.18349920178382" lon="11.45828801170899"><ele>162.0</ele><time>2026-04-25T11:45:51.003Z</time></trkpt><trkpt lat="43.18363633204077" lon="11.458143908427491"><ele>162.0</ele><time>2026-04-25T11:45:52.003Z</time></trkpt><trkpt lat="43.18377200574327" lon="11.457993535093093"><ele>162.33333333333334</ele><time>2026-04-25T11:45:53.003Z</time></trkpt><trkpt lat="43.1839054214539" lon="11.457847446145601"><ele>162.66666666666669</ele><time>2026-04-25T11:45:54.003Z</time></trkpt><trkpt lat="43.18403757830982" lon="11.45769734291094"><ele>163.0</ele><time>2026-04-25T11:45:55.003Z</time></trkpt><trkpt lat="43.18417079599138" lon="11.457541933447336"><ele>163.0</ele><time>2026-04-25T11:45:56.003Z</time></trkpt><trkpt lat="43.18430364590512" lon="11.457381427707462"><ele>163.0</ele><time>2026-04-25T11:45:57.003Z</time></trkpt><trkpt lat="43.18443701126982" lon="11.457220857731706"><ele>163.0</ele><time>2026-04-25T11:45:58.003Z</time></trkpt><trkpt lat="43.18457110455858" lon="11.457058076265843"><ele>163.0</ele><time>2026-04-25T11:45:59.003Z</time></trkpt><trkpt lat="43.18470427045637" lon="11.456892679970993"><ele>163.0</ele><time>2026-04-25T11:46:00.003Z</time></trkpt><trkpt lat="43.18483534920011" lon="11.456725720198731"><ele>163.0</ele><time>2026-04-25T11:46:01.003Z</time></trkpt><trkpt lat="43.184969936535424" lon="11.45655411435147"><ele>163.0</ele><time>2026-04-25T11:46:02.003Z</time></trkpt><trkpt lat="43.185106818463616" lon="11.456387554622749"><ele>163.0</ele><time>2026-04-25T11:46:03.003Z</time></trkpt><trkpt lat="43.1852427285576" lon="11.456218456317083"><ele>163.0</ele><time>2026-04-25T11:46:04.003Z</time></trkpt><trkpt lat="43.18537228134272" lon="11.456052597129165"><ele>163.66666666666669</ele><time>2026-04-25T11:46:05.003Z</time></trkpt><trkpt lat="43.18550428038515" lon="11.455890063363062"><ele>164.33333333333334</ele><time>2026-04-25T11:46:05.999Z</time></trkpt><trkpt lat="43.185635590262585" lon="11.455733303982614"><ele>165.0</ele><time>2026-04-25T11:46:06.999Z</time></trkpt><trkpt lat="43.18576473429175" lon="11.455585429229735"><ele>166.33333333333334</ele><time>2026-04-25T11:46:07.999Z</time></trkpt><trkpt lat="43.18589645321199" lon="11.455444999933471"><ele>167.66666666666669</ele><time>2026-04-25T11:46:08.999Z</time></trkpt><trkpt lat="43.18603349080722" lon="11.455314621430027"><ele>169.0</ele><time>2026-04-25T11:46:09.999Z</time></trkpt><trkpt lat="43.186175474820445" lon="11.455196425801528"><ele>169.0</ele><time>2026-04-25T11:46:10.999Z</time></trkpt><trkpt lat="43.1863229430244" lon="11.455088272724224"><ele>169.0</ele><time>2026-04-25T11:46:11.999Z</time></trkpt><trkpt lat="43.186472523707096" lon="11.454992183426615"><ele>169.0</ele><time>2026-04-25T11:46:12.999Z</time></trkpt><trkpt lat="43.18662280403206" lon="11.454906606792743"><ele>169.33333333333334</ele><time>2026-04-25T11:46:13.999Z</time></trkpt><trkpt lat="43.18677230405044" lon="11.454823976374382"><ele>169.66666666666666</ele><time>2026-04-25T11:46:14.999Z</time></trkpt><trkpt lat="43.18691959733985" lon="11.454740150999044"><ele>170.0</ele><time>2026-04-25T11:46:15.999Z</time></trkpt><trkpt lat="43.18706530519595" lon="11.454656052168087"><ele>171.25</ele><time>2026-04-25T11:46:16.999Z</time></trkpt><trkpt lat="43.187207049919344" lon="11.45457426219758"><ele>172.5</ele><time>2026-04-25T11:46:17.999Z</time></trkpt><trkpt lat="43.187344696541025" lon="11.454497096261827"><ele>173.75</ele><time>2026-04-25T11:46:18.999Z</time></trkpt><trkpt lat="43.18747437190112" lon="11.454423023699892"><ele>175.0</ele><time>2026-04-25T11:46:19.999Z</time></trkpt><trkpt lat="43.187589708397496" lon="11.454355519427848"><ele>176.0</ele><time>2026-04-25T11:46:21Z</time></trkpt><trkpt lat="43.18770898769881" lon="11.454288379779399"><ele>177.0</ele><time>2026-04-25T11:46:22Z</time></trkpt><trkpt lat="43.187827551104455" lon="11.454221713130181"><ele>178.0</ele><time>2026-04-25T11:46:23Z</time></trkpt><trkpt lat="43.18794641832497" lon="11.454154994560312"><ele>179.0</ele><time>2026-04-25T11:46:24Z</time></trkpt><trkpt lat="43.188065586052815" lon="11.454096447961584"><ele>179.5</ele><time>2026-04-25T11:46:25Z</time></trkpt><trkpt lat="43.18818448157994" lon="11.454058001260247"><ele>180.0</ele><time>2026-04-25T11:46:26Z</time></trkpt><trkpt lat="43.18830839561039" lon="11.454038020508706"><ele>180.5</ele><time>2026-04-25T11:46:27Z</time></trkpt><trkpt lat="43.188436415074705" lon="11.454034125635388"><ele>181.0</ele><time>2026-04-25T11:46:28Z</time></trkpt><trkpt lat="43.18856567440288" lon="11.45403644161166"><ele>181.0</ele><time>2026-04-25T11:46:29Z</time></trkpt><trkpt lat="43.18869233980803" lon="11.454038002335988"><ele>181.0</ele><time>2026-04-25T11:46:30Z</time></trkpt><trkpt lat="43.18882008494002" lon="11.454037303792578"><ele>181.0</ele><time>2026-04-25T11:46:31Z</time></trkpt><trkpt lat="43.18894911862269" lon="11.454036114836814"><ele>181.0</ele><time>2026-04-25T11:46:32Z</time></trkpt><trkpt lat="43.18907848785682" lon="11.454036529730137"><ele>180.0</ele><time>2026-04-25T11:46:33Z</time></trkpt><trkpt lat="43.18920865414204" lon="11.454039003254051"><ele>179.0</ele><time>2026-04-25T11:46:34Z</time></trkpt><trkpt lat="43.18933515931748" lon="11.454044056143346"><ele>178.0</ele><time>2026-04-25T11:46:35Z</time></trkpt><trkpt lat="43.18945828614803" lon="11.454045865682424"><ele>177.0</ele><time>2026-04-25T11:46:36Z</time></trkpt><trkpt lat="43.18957793668243" lon="11.454034318276511"><ele>177.0</ele><time>2026-04-25T11:46:37Z</time></trkpt><trkpt lat="43.18968964077491" lon="11.454001119922964"><ele>177.0</ele><time>2026-04-25T11:46:38Z</time></trkpt><trkpt lat="43.189802141820785" lon="11.453945487999235"><ele>177.0</ele><time>2026-04-25T11:46:39Z</time></trkpt><trkpt lat="43.189911778061344" lon="11.45387876917094"><ele>177.0</ele><time>2026-04-25T11:46:40Z</time></trkpt><trkpt lat="43.19002226548195" lon="11.45380922713138"><ele>177.0</ele><time>2026-04-25T11:46:41.001Z</time></trkpt><trkpt lat="43.19013516632761" lon="11.453735963029384"><ele>177.0</ele><time>2026-04-25T11:46:42.001Z</time></trkpt><trkpt lat="43.19025404800913" lon="11.453662245016671"><ele>177.0</ele><time>2026-04-25T11:46:43.001Z</time></trkpt><trkpt lat="43.19037870748951" lon="11.453587161685677"><ele>177.0</ele><time>2026-04-25T11:46:44.001Z</time></trkpt><trkpt lat="43.190504548573145" lon="11.453515998559842"><ele>177.0</ele><time>2026-04-25T11:46:45.001Z</time></trkpt><trkpt lat="43.190633228463405" lon="11.453453649910854"><ele>177.0</ele><time>2026-04-25T11:46:46.001Z</time></trkpt><trkpt lat="43.19076591524169" lon="11.453409431306488"><ele>177.0</ele><time>2026-04-25T11:46:47.001Z</time></trkpt><trkpt lat="43.19089437433665" lon="11.453379748951999"><ele>177.0</ele><time>2026-04-25T11:46:48.001Z</time></trkpt><trkpt lat="43.19101811005566" lon="11.453363293332782"><ele>175.5</ele><time>2026-04-25T11:46:49.001Z</time></trkpt><trkpt lat="43.191137707417184" lon="11.453354497585208"><ele>174.0</ele><time>2026-04-25T11:46:50.001Z</time></trkpt><trkpt lat="43.191252010653386" lon="11.453355969450234"><ele>172.5</ele><time>2026-04-25T11:46:51.001Z</time></trkpt><trkpt lat="43.19136122161312" lon="11.453377041951486"><ele>171.0</ele><time>2026-04-25T11:46:52.001Z</time></trkpt><trkpt lat="43.19145910070592" lon="11.453443795133804"><ele>171.0</ele><time>2026-04-25T11:46:53.001Z</time></trkpt><trkpt lat="43.19154098843312" lon="11.453550701208862"><ele>171.0</ele><time>2026-04-25T11:46:54.001Z</time></trkpt><trkpt lat="43.191599769169684" lon="11.453687152809694"><ele>171.0</ele><time>2026-04-25T11:46:55.001Z</time></trkpt><trkpt lat="43.19165157539417" lon="11.453832341510683"><ele>171.0</ele><time>2026-04-25T11:46:56.001Z</time></trkpt><trkpt lat="43.191706701728435" lon="11.453982896882334"><ele>169.75</ele><time>2026-04-25T11:46:57.001Z</time></trkpt><trkpt lat="43.19176755609371" lon="11.454135337222842"><ele>168.5</ele><time>2026-04-25T11:46:58.001Z</time></trkpt><trkpt lat="43.19182723229089" lon="11.454285538180986"><ele>167.25</ele><time>2026-04-25T11:46:59.001Z</time></trkpt><trkpt lat="43.19188139075349" lon="11.45442991714369"><ele>166.0</ele><time>2026-04-25T11:47:00.001Z</time></trkpt><trkpt lat="43.19193549312387" lon="11.45456473715512"><ele>166.0</ele><time>2026-04-25T11:47:01.001Z</time></trkpt><trkpt lat="43.191992598889684" lon="11.454681869030267"><ele>166.0</ele><time>2026-04-25T11:47:02.001Z</time></trkpt><trkpt lat="43.19206266206531" lon="11.454778689797122"><ele>166.0</ele><time>2026-04-25T11:47:03.001Z</time></trkpt><trkpt lat="43.19215236952631" lon="11.454860442019625"><ele>166.0</ele><time>2026-04-25T11:47:04.001Z</time></trkpt><trkpt lat="43.19225944898657" lon="11.454917354769925"><ele>166.0</ele><time>2026-04-25T11:47:05.001Z</time></trkpt><trkpt lat="43.19237720227103" lon="11.454964824835747"><ele>166.0</ele><time>2026-04-25T11:47:06.001Z</time></trkpt><trkpt lat="43.192486469400265" lon="11.455006689750249"><ele>166.0</ele><time>2026-04-25T11:47:07.001Z</time></trkpt><trkpt lat="43.19259397353757" lon="11.455035755883742"><ele>166.0</ele><time>2026-04-25T11:47:08.001Z</time></trkpt><trkpt lat="43.19270255173269" lon="11.45503439609125"><ele>166.0</ele><time>2026-04-25T11:47:09.001Z</time></trkpt><trkpt lat="43.19281730606797" lon="11.454986068861064"><ele>166.0</ele><time>2026-04-25T11:47:10.002Z</time></trkpt><trkpt lat="43.19291951586007" lon="11.454905899998282"><ele>166.0</ele><time>2026-04-25T11:47:11.002Z</time></trkpt><trkpt lat="43.19301125614108" lon="11.454817225849595"><ele>166.0</ele><time>2026-04-25T11:47:12.002Z</time></trkpt><trkpt lat="43.193086264455744" lon="11.454717773775247"><ele>166.0</ele><time>2026-04-25T11:47:13.002Z</time></trkpt><trkpt lat="43.193127545390794" lon="11.45460028772874"><ele>166.0</ele><time>2026-04-25T11:47:14.002Z</time></trkpt><trkpt lat="43.1931348783327" lon="11.454462657826932"><ele>166.20000000000002</ele><time>2026-04-25T11:47:15.002Z</time></trkpt><trkpt lat="43.19312229139967" lon="11.45431035377145"><ele>166.4</ele><time>2026-04-25T11:47:16.002Z</time></trkpt><trkpt lat="43.19310381460645" lon="11.454173199511295"><ele>166.6</ele><time>2026-04-25T11:47:17.002Z</time></trkpt><trkpt lat="43.19307945831969" lon="11.454039735981489"><ele>166.8</ele><time>2026-04-25T11:47:18.002Z</time></trkpt><trkpt lat="43.1930528455082" lon="11.453897773426789"><ele>167.0</ele><time>2026-04-25T11:47:19.002Z</time></trkpt><trkpt lat="43.193019179831595" lon="11.453760033852937"><ele>167.0</ele><time>2026-04-25T11:47:20.002Z</time></trkpt><trkpt lat="43.19296777680999" lon="11.453630114908146"><ele>167.0</ele><time>2026-04-25T11:47:21.002Z</time></trkpt><trkpt lat="43.19290960817566" lon="11.453504715645044"><ele>167.0</ele><time>2026-04-25T11:47:22.002Z</time></trkpt><trkpt lat="43.19284546163281" lon="11.453387105247671"><ele>167.0</ele><time>2026-04-25T11:47:23.002Z</time></trkpt><trkpt lat="43.19278245338896" lon="11.45327180825465"><ele>167.0</ele><time>2026-04-25T11:47:24.002Z</time></trkpt><trkpt lat="43.19272657998235" lon="11.453161424454876"><ele>167.0</ele><time>2026-04-25T11:47:25.002Z</time></trkpt><trkpt lat="43.19269128412591" lon="11.453040375602585"><ele>167.0</ele><time>2026-04-25T11:47:26.002Z</time></trkpt><trkpt lat="43.19268443026849" lon="11.45291029841138"><ele>167.0</ele><time>2026-04-25T11:47:27.002Z</time></trkpt><trkpt lat="43.192703922244064" lon="11.452774703835635"><ele>167.0</ele><time>2026-04-25T11:47:28.002Z</time></trkpt><trkpt lat="43.19275205866627" lon="11.452621524869473"><ele>167.0</ele><time>2026-04-25T11:47:29.002Z</time></trkpt><trkpt lat="43.192831569430105" lon="11.452457975501057"><ele>166.33333333333331</ele><time>2026-04-25T11:47:30.002Z</time></trkpt><trkpt lat="43.192933458156496" lon="11.45226191648153"><ele>165.66666666666666</ele><time>2026-04-25T11:47:31.002Z</time></trkpt><trkpt lat="43.19305959982445" lon="11.452034992797596"><ele>165.0</ele><time>2026-04-25T11:47:32.002Z</time></trkpt><trkpt lat="43.19319590783731" lon="11.451806376322024"><ele>162.66666666666666</ele><time>2026-04-25T11:47:33.002Z</time></trkpt><trkpt lat="43.19332698709019" lon="11.45160878375731"><ele>160.33333333333331</ele><time>2026-04-25T11:47:34.002Z</time></trkpt><trkpt lat="43.19347162573374" lon="11.451385338383057"><ele>158.0</ele><time>2026-04-25T11:47:35.002Z</time></trkpt><trkpt lat="43.19359798397608" lon="11.451173177147709"><ele>158.0</ele><time>2026-04-25T11:47:36.002Z</time></trkpt><trkpt lat="43.19372784827051" lon="11.450953797925795"><ele>158.0</ele><time>2026-04-25T11:47:37.002Z</time></trkpt><trkpt lat="43.193856973293194" lon="11.450733564919709"><ele>158.0</ele><time>2026-04-25T11:47:38.002Z</time></trkpt><trkpt lat="43.19398363237989" lon="11.450513705801821"><ele>158.66666666666666</ele><time>2026-04-25T11:47:39.002Z</time></trkpt><trkpt lat="43.1941070646859" lon="11.45029765191936"><ele>159.33333333333334</ele><time>2026-04-25T11:47:40.002Z</time></trkpt><trkpt lat="43.194225755074314" lon="11.45009446289928"><ele>160.0</ele><time>2026-04-25T11:47:41.002Z</time></trkpt><trkpt lat="43.19434461529658" lon="11.44988735388518"><ele>160.0</ele><time>2026-04-25T11:47:42.002Z</time></trkpt><trkpt lat="43.19447209396413" lon="11.449671164551194"><ele>160.0</ele><time>2026-04-25T11:47:43.003Z</time></trkpt><trkpt lat="43.19459628794374" lon="11.449460769151578"><ele>160.0</ele><time>2026-04-25T11:47:44.003Z</time></trkpt><trkpt lat="43.19471668918854" lon="11.449255762225807"><ele>160.33333333333334</ele><time>2026-04-25T11:47:45.003Z</time></trkpt><trkpt lat="43.19483201135271" lon="11.449051773715954"><ele>160.66666666666666</ele><time>2026-04-25T11:47:46.003Z</time></trkpt><trkpt lat="43.19494507712058" lon="11.448852272627361"><ele>161.0</ele><time>2026-04-25T11:47:47.003Z</time></trkpt><trkpt lat="43.19504809378932" lon="11.448643943989156"><ele>161.0</ele><time>2026-04-25T11:47:48.003Z</time></trkpt><trkpt lat="43.19513713524417" lon="11.448429131998365"><ele>161.0</ele><time>2026-04-25T11:47:49.003Z</time></trkpt><trkpt lat="43.19521387043267" lon="11.448206036957519"><ele>161.0</ele><time>2026-04-25T11:47:50.003Z</time></trkpt><trkpt lat="43.19527620199785" lon="11.44797691212656"><ele>162.66666666666666</ele><time>2026-04-25T11:47:51.003Z</time></trkpt><trkpt lat="43.195332372597946" lon="11.447742279439074"><ele>164.33333333333334</ele><time>2026-04-25T11:47:52.003Z</time></trkpt><trkpt lat="43.19538381109664" lon="11.447509276768354"><ele>166.0</ele><time>2026-04-25T11:47:53.003Z</time></trkpt><trkpt lat="43.19543212590652" lon="11.447274219697706"><ele>167.0</ele><time>2026-04-25T11:47:54.003Z</time></trkpt><trkpt lat="43.19548312495397" lon="11.447038665331082"><ele>168.0</ele><time>2026-04-25T11:47:55.003Z</time></trkpt><trkpt lat="43.19553568462318" lon="11.446801676820376"><ele>169.0</ele><time>2026-04-25T11:47:56.003Z</time></trkpt><trkpt lat="43.19558502057919" lon="11.446570377320405"><ele>169.0</ele><time>2026-04-25T11:47:57.003Z</time></trkpt><trkpt lat="43.195634079011356" lon="11.446336223373867"><ele>169.0</ele><time>2026-04-25T11:47:58.003Z</time></trkpt><trkpt lat="43.19568324801049" lon="11.446106299076678"><ele>169.0</ele><time>2026-04-25T11:47:59.003Z</time></trkpt><trkpt lat="43.19573266772123" lon="11.445875441193689"><ele>166.33333333333334</ele><time>2026-04-25T11:48:00.003Z</time></trkpt><trkpt lat="43.195784220678824" lon="11.445652224259428"><ele>163.66666666666666</ele><time>2026-04-25T11:48:01.003Z</time></trkpt><trkpt lat="43.1958401863019" lon="11.445438581130087"><ele>161.0</ele><time>2026-04-25T11:48:02.003Z</time></trkpt><trkpt lat="43.19591052545801" lon="11.445234770431258"><ele>161.0</ele><time>2026-04-25T11:48:03.003Z</time></trkpt><trkpt lat="43.19600233824298" lon="11.44504232171947"><ele>161.0</ele><time>2026-04-25T11:48:04.003Z</time></trkpt><trkpt lat="43.196100987829496" lon="11.444859168493318"><ele>161.0</ele><time>2026-04-25T11:48:05.003Z</time></trkpt><trkpt lat="43.19619526716891" lon="11.444715762497953"><ele>160.25</ele><time>2026-04-25T11:48:06.003Z</time></trkpt><trkpt lat="43.196289020482226" lon="11.44458471613064"><ele>159.5</ele><time>2026-04-25T11:48:07.003Z</time></trkpt><trkpt lat="43.19640540592704" lon="11.444454996184223"><ele>158.75</ele><time>2026-04-25T11:48:08.003Z</time></trkpt><trkpt lat="43.19652908752163" lon="11.444348958653581"><ele>158.0</ele><time>2026-04-25T11:48:09.003Z</time></trkpt><trkpt lat="43.19666110970282" lon="11.444258712375882"><ele>158.0</ele><time>2026-04-25T11:48:10.003Z</time></trkpt><trkpt lat="43.196793956598604" lon="11.444183210203287"><ele>158.0</ele><time>2026-04-25T11:48:11.003Z</time></trkpt><trkpt lat="43.19692831860221" lon="11.444113217150765"><ele>158.0</ele><time>2026-04-25T11:48:11.999Z</time></trkpt><trkpt lat="43.19706323361228" lon="11.444043333313122"><ele>158.0</ele><time>2026-04-25T11:48:12.999Z</time></trkpt><trkpt lat="43.197193742804615" lon="11.443975419854366"><ele>158.0</ele><time>2026-04-25T11:48:13.999Z</time></trkpt><trkpt lat="43.197322190849015" lon="11.443907294303166"><ele>158.0</ele><time>2026-04-25T11:48:14.999Z</time></trkpt><trkpt lat="43.19745161352724" lon="11.443842420321689"><ele>158.0</ele><time>2026-04-25T11:48:15.999Z</time></trkpt><trkpt lat="43.19758180298561" lon="11.443781664619522"><ele>158.0</ele><time>2026-04-25T11:48:16.999Z</time></trkpt><trkpt lat="43.19770102967629" lon="11.44372396484943"><ele>158.25</ele><time>2026-04-25T11:48:17.999Z</time></trkpt><trkpt lat="43.1978113728647" lon="11.443664500733204"><ele>158.5</ele><time>2026-04-25T11:48:18.999Z</time></trkpt><trkpt lat="43.1979183864226" lon="11.443609053675136"><ele>158.75</ele><time>2026-04-25T11:48:19.999Z</time></trkpt><trkpt lat="43.19802693436283" lon="11.443552922750149"><ele>159.0</ele><time>2026-04-25T11:48:20.999Z</time></trkpt><trkpt lat="43.198127229336194" lon="11.443503847551476"><ele>158.83333333333334</ele><time>2026-04-25T11:48:21.999Z</time></trkpt><trkpt lat="43.19821472425796" lon="11.443463716869784"><ele>158.66666666666666</ele><time>2026-04-25T11:48:22.999Z</time></trkpt><trkpt lat="43.19828331422743" lon="11.443434668849298"><ele>158.5</ele><time>2026-04-25T11:48:23.999Z</time></trkpt><trkpt lat="43.19839071168448" lon="11.443390670000602"><ele>158.33333333333331</ele><time>2026-04-25T11:48:25.999Z</time></trkpt><trkpt lat="43.198473883422196" lon="11.443388346833329"><ele>158.16666666666666</ele><time>2026-04-25T11:48:29Z</time></trkpt><trkpt lat="43.198512335579686" lon="11.443489951964095"><ele>158.0</ele><time>2026-04-25T11:48:33Z</time></trkpt><trkpt lat="43.198525673012455" lon="11.443590634415944"><ele>158.0</ele><time>2026-04-25T11:48:36Z</time></trkpt><trkpt lat="43.198550132486055" lon="11.443674085305352"><ele>158.0</ele><time>2026-04-25T11:48:38Z</time></trkpt><trkpt lat="43.19857561045012" lon="11.443778166638952"><ele>158.0</ele><time>2026-04-25T11:48:40Z</time></trkpt><trkpt lat="43.19860353653921" lon="11.443892070914172"><ele>158.0</ele><time>2026-04-25T11:48:42Z</time></trkpt><trkpt lat="43.198635234592544" lon="11.444028639419608"><ele>158.0</ele><time>2026-04-25T11:48:44Z</time></trkpt><trkpt lat="43.19865788338785" lon="11.444120685179456"><ele>158.0</ele><time>2026-04-25T11:48:45Z</time></trkpt><trkpt lat="43.19869552276361" lon="11.444262660749859"><ele>157.66666666666666</ele><time>2026-04-25T11:48:46Z</time></trkpt><trkpt lat="43.19874521105356" lon="11.444464254491745"><ele>157.33333333333334</ele><time>2026-04-25T11:48:47Z</time></trkpt><trkpt lat="43.198803634362676" lon="11.444688970160515"><ele>157.0</ele><time>2026-04-25T11:48:48.001Z</time></trkpt><trkpt lat="43.198852704584844" lon="11.444883493112526"><ele>156.75</ele><time>2026-04-25T11:48:49.001Z</time></trkpt><trkpt lat="43.198900357955495" lon="11.445078330257608"><ele>156.5</ele><time>2026-04-25T11:48:50.001Z</time></trkpt><trkpt lat="43.19894669133053" lon="11.445270458311922"><ele>156.25</ele><time>2026-04-25T11:48:51.001Z</time></trkpt><trkpt lat="43.19899225067603" lon="11.445461824914467"><ele>156.0</ele><time>2026-04-25T11:48:52.001Z</time></trkpt><trkpt lat="43.199039365920974" lon="11.445654539915884"><ele>156.0</ele><time>2026-04-25T11:48:53.001Z</time></trkpt><trkpt lat="43.1990850176074" lon="11.445850858750932"><ele>156.0</ele><time>2026-04-25T11:48:54.001Z</time></trkpt><trkpt lat="43.19912941068964" lon="11.446037718384368"><ele>156.0</ele><time>2026-04-25T11:48:55.001Z</time></trkpt><trkpt lat="43.19917320273561" lon="11.446227525704213"><ele>156.0</ele><time>2026-04-25T11:48:56.001Z</time></trkpt><trkpt lat="43.199216293732825" lon="11.446414120233788"><ele>155.75</ele><time>2026-04-25T11:48:57.001Z</time></trkpt><trkpt lat="43.19925844521136" lon="11.446593068391998"><ele>155.5</ele><time>2026-04-25T11:48:58.001Z</time></trkpt><trkpt lat="43.19930277755181" lon="11.446774932504457"><ele>155.25</ele><time>2026-04-25T11:48:59.001Z</time></trkpt><trkpt lat="43.199348614320456" lon="11.446959517555605"><ele>155.0</ele><time>2026-04-25T11:49:00.001Z</time></trkpt><trkpt lat="43.19939373845325" lon="11.447149199340533"><ele>155.0</ele><time>2026-04-25T11:49:01.001Z</time></trkpt><trkpt lat="43.1994401644884" lon="11.447345670611993"><ele>155.0</ele><time>2026-04-25T11:49:02.001Z</time></trkpt><trkpt lat="43.199489381893564" lon="11.447546545470495"><ele>155.0</ele><time>2026-04-25T11:49:03.001Z</time></trkpt><trkpt lat="43.199539672611174" lon="11.447749224688215"><ele>155.0</ele><time>2026-04-25T11:49:04.001Z</time></trkpt><trkpt lat="43.1995877000233" lon="11.447946219553648"><ele>155.0</ele><time>2026-04-25T11:49:05.001Z</time></trkpt><trkpt lat="43.1996323118571" lon="11.44813211197091"><ele>155.0</ele><time>2026-04-25T11:49:06.001Z</time></trkpt><trkpt lat="43.19968002995736" lon="11.448323670949474"><ele>155.0</ele><time>2026-04-25T11:49:07.001Z</time></trkpt><trkpt lat="43.19972339492732" lon="11.448508813856716"><ele>155.0</ele><time>2026-04-25T11:49:08.001Z</time></trkpt><trkpt lat="43.19976602320402" lon="11.448694891802553"><ele>155.0</ele><time>2026-04-25T11:49:09.001Z</time></trkpt><trkpt lat="43.1998112447709" lon="11.448878988179011"><ele>155.0</ele><time>2026-04-25T11:49:10.001Z</time></trkpt><trkpt lat="43.19985282950927" lon="11.449053334768834"><ele>155.0</ele><time>2026-04-25T11:49:11.001Z</time></trkpt><trkpt lat="43.19989317440393" lon="11.44922844265458"><ele>155.25</ele><time>2026-04-25T11:49:12.001Z</time></trkpt><trkpt lat="43.19993442746493" lon="11.449398300977952"><ele>155.5</ele><time>2026-04-25T11:49:13.001Z</time></trkpt><trkpt lat="43.1999786577601" lon="11.449562647170946"><ele>155.75</ele><time>2026-04-25T11:49:14.001Z</time></trkpt><trkpt lat="43.20001972369643" lon="11.449732864201193"><ele>156.0</ele><time>2026-04-25T11:49:15.001Z</time></trkpt><trkpt lat="43.20005954003662" lon="11.449908804951376"><ele>156.0</ele><time>2026-04-25T11:49:16.001Z</time></trkpt><trkpt lat="43.200102118279425" lon="11.45008579788591"><ele>156.0</ele><time>2026-04-25T11:49:17.002Z</time></trkpt><trkpt lat="43.20014466299896" lon="11.45026082066659"><ele>156.0</ele><time>2026-04-25T11:49:18.002Z</time></trkpt><trkpt lat="43.20018749865122" lon="11.450435421842217"><ele>156.0</ele><time>2026-04-25T11:49:19.002Z</time></trkpt><trkpt lat="43.20023143488685" lon="11.450610725120471"><ele>156.0</ele><time>2026-04-25T11:49:20.002Z</time></trkpt><trkpt lat="43.20027782667102" lon="11.450792059639495"><ele>156.0</ele><time>2026-04-25T11:49:21.002Z</time></trkpt><trkpt lat="43.2003239041015" lon="11.450972322434577"><ele>156.0</ele><time>2026-04-25T11:49:22.002Z</time></trkpt><trkpt lat="43.20036734750649" lon="11.451151326245121"><ele>156.0</ele><time>2026-04-25T11:49:23.002Z</time></trkpt><trkpt lat="43.20040735270337" lon="11.451332606751336"><ele>155.5</ele><time>2026-04-25T11:49:24.002Z</time></trkpt><trkpt lat="43.2004453135639" lon="11.451520037549908"><ele>155.0</ele><time>2026-04-25T11:49:25.002Z</time></trkpt><trkpt lat="43.20048311137839" lon="11.45170923975207"><ele>154.5</ele><time>2026-04-25T11:49:26.002Z</time></trkpt><trkpt lat="43.20051936588269" lon="11.451893397345632"><ele>154.0</ele><time>2026-04-25T11:49:27.002Z</time></trkpt><trkpt lat="43.20055072003872" lon="11.452062348999524"><ele>153.8</ele><time>2026-04-25T11:49:28.002Z</time></trkpt><trkpt lat="43.20058146731312" lon="11.452232441142085"><ele>153.60000000000002</ele><time>2026-04-25T11:49:29.002Z</time></trkpt><trkpt lat="43.20061339833928" lon="11.45238779021588"><ele>153.4</ele><time>2026-04-25T11:49:30.002Z</time></trkpt><trkpt lat="43.20065290296133" lon="11.452520809000378"><ele>153.20000000000002</ele><time>2026-04-25T11:49:31.002Z</time></trkpt><trkpt lat="43.20070087405415" lon="11.452636184271999"><ele>153.0</ele><time>2026-04-25T11:49:32.002Z</time></trkpt><trkpt lat="43.20074969870484" lon="11.452746738073996"><ele>152.8</ele><time>2026-04-25T11:49:33.002Z</time></trkpt><trkpt lat="43.20080124266589" lon="11.452869498358561"><ele>152.60000000000002</ele><time>2026-04-25T11:49:34.002Z</time></trkpt><trkpt lat="43.20084107425119" lon="11.452991352204652"><ele>152.39999999999998</ele><time>2026-04-25T11:49:35.002Z</time></trkpt><trkpt lat="43.20086478113689" lon="11.453131038100015"><ele>152.2</ele><time>2026-04-25T11:49:36.002Z</time></trkpt><trkpt lat="43.20086050667836" lon="11.453284004938697"><ele>152.0</ele><time>2026-04-25T11:49:37.002Z</time></trkpt><trkpt lat="43.20085389416757" lon="11.453448852380662"><ele>152.0</ele><time>2026-04-25T11:49:38.002Z</time></trkpt><trkpt lat="43.20085054549903" lon="11.453636579396553"><ele>152.0</ele><time>2026-04-25T11:49:39.002Z</time></trkpt><trkpt lat="43.20085563219022" lon="11.453816707482037"><ele>152.0</ele><time>2026-04-25T11:49:40.002Z</time></trkpt><trkpt lat="43.20086505368324" lon="11.453972723367603"><ele>152.0</ele><time>2026-04-25T11:49:41.002Z</time></trkpt><trkpt lat="43.20088787477983" lon="11.454118785330387"><ele>153.4</ele><time>2026-04-25T11:49:42.002Z</time></trkpt><trkpt lat="43.20091765374276" lon="11.454257769176124"><ele>154.79999999999998</ele><time>2026-04-25T11:49:43.002Z</time></trkpt><trkpt lat="43.200946338393976" lon="11.454398859972367"><ele>156.2</ele><time>2026-04-25T11:49:44.002Z</time></trkpt><trkpt lat="43.20095618076243" lon="11.454535267918589"><ele>157.6</ele><time>2026-04-25T11:49:45.002Z</time></trkpt><trkpt lat="43.200947011414534" lon="11.454673358342106"><ele>159.0</ele><time>2026-04-25T11:49:46.002Z</time></trkpt><trkpt lat="43.20094465002126" lon="11.454815019670423"><ele>159.8</ele><time>2026-04-25T11:49:47.002Z</time></trkpt><trkpt lat="43.20094681534983" lon="11.454945058425663"><ele>160.60000000000002</ele><time>2026-04-25T11:49:48.002Z</time></trkpt><trkpt lat="43.20095061366514" lon="11.455075683625413"><ele>161.4</ele><time>2026-04-25T11:49:49.002Z</time></trkpt><trkpt lat="43.2009453055985" lon="11.455202229211602"><ele>162.20000000000002</ele><time>2026-04-25T11:49:50.003Z</time></trkpt><trkpt lat="43.20092054194654" lon="11.45531837082422"><ele>163.0</ele><time>2026-04-25T11:49:51.003Z</time></trkpt><trkpt lat="43.20086713569987" lon="11.45542573529054"><ele>163.60000000000002</ele><time>2026-04-25T11:49:52.003Z</time></trkpt><trkpt lat="43.20079464527485" lon="11.455530446715386"><ele>164.20000000000002</ele><time>2026-04-25T11:49:53.003Z</time></trkpt><trkpt lat="43.200714936970414" lon="11.45563711365773"><ele>164.8</ele><time>2026-04-25T11:49:54.003Z</time></trkpt><trkpt lat="43.20063555434491" lon="11.455742109634906"><ele>165.4</ele><time>2026-04-25T11:49:55.003Z</time></trkpt><trkpt lat="43.200560929586246" lon="11.455841956847078"><ele>166.0</ele><time>2026-04-25T11:49:56.003Z</time></trkpt><trkpt lat="43.20048174401693" lon="11.455951011220364"><ele>166.0</ele><time>2026-04-25T11:49:57.003Z</time></trkpt><trkpt lat="43.20040590697991" lon="11.456063173455451"><ele>166.0</ele><time>2026-04-25T11:49:58.003Z</time></trkpt><trkpt lat="43.20032827161211" lon="11.45617591642299"><ele>166.0</ele><time>2026-04-25T11:49:59.003Z</time></trkpt><trkpt lat="43.200254841342755" lon="11.456280950447212"><ele>166.0</ele><time>2026-04-25T11:50:00.003Z</time></trkpt><trkpt lat="43.200196723083515" lon="11.456364347500227"><ele>166.0</ele><time>2026-04-25T11:50:01.003Z</time></trkpt><trkpt lat="43.20014960971901" lon="11.45643129453886"><ele>166.0</ele><time>2026-04-25T11:50:02.003Z</time></trkpt><trkpt lat="43.20010145165788" lon="11.456487878182882"><ele>166.0</ele><time>2026-04-25T11:50:03.003Z</time></trkpt><trkpt lat="43.20000872535737" lon="11.45658975288579"><ele>166.0</ele><time>2026-04-25T11:50:05.003Z</time></trkpt><trkpt lat="43.199945378751806" lon="11.45668168630418"><ele>166.0</ele><time>2026-04-25T11:50:06.003Z</time></trkpt><trkpt lat="43.19985161066577" lon="11.456799648285926"><ele>166.0</ele><time>2026-04-25T11:50:07.003Z</time></trkpt><trkpt lat="43.19976463797129" lon="11.456917311904329"><ele>165.75</ele><time>2026-04-25T11:50:08.003Z</time></trkpt><trkpt lat="43.199671883055885" lon="11.457046255671672"><ele>165.5</ele><time>2026-04-25T11:50:09.003Z</time></trkpt><trkpt lat="43.19957846136167" lon="11.457177167040111"><ele>165.25</ele><time>2026-04-25T11:50:10.003Z</time></trkpt><trkpt lat="43.19948888478726" lon="11.45730452553652"><ele>165.0</ele><time>2026-04-25T11:50:11.003Z</time></trkpt><trkpt lat="43.199393875688834" lon="11.457405904165578"><ele>165.0</ele><time>2026-04-25T11:50:12.003Z</time></trkpt><trkpt lat="43.199301003317736" lon="11.457503568979075"><ele>165.0</ele><time>2026-04-25T11:50:13.003Z</time></trkpt><trkpt lat="43.19921499877171" lon="11.457599574392933"><ele>165.0</ele><time>2026-04-25T11:50:14.003Z</time></trkpt><trkpt lat="43.199132643066406" lon="11.457692374614952"><ele>165.0</ele><time>2026-04-25T11:50:15.003Z</time></trkpt><trkpt lat="43.19905264285662" lon="11.457779367676407"><ele>165.0</ele><time>2026-04-25T11:50:16.003Z</time></trkpt><trkpt lat="43.1989793483571" lon="11.457864312946693"><ele>164.0</ele><time>2026-04-25T11:50:17.003Z</time></trkpt><trkpt lat="43.19891745995031" lon="11.457942247281277"><ele>163.0</ele><time>2026-04-25T11:50:17.999Z</time></trkpt><trkpt lat="43.1988364301703" lon="11.458053782736403"><ele>162.0</ele><time>2026-04-25T11:50:19.999Z</time></trkpt><trkpt lat="43.19875908164949" lon="11.458172130663327"><ele>161.0</ele><time>2026-04-25T11:50:21.999Z</time></trkpt><trkpt lat="43.1987114303445" lon="11.458251992381438"><ele>160.0</ele><time>2026-04-25T11:50:22.999Z</time></trkpt><trkpt lat="43.198657560910654" lon="11.458336090018122"><ele>160.0</ele><time>2026-04-25T11:50:23.999Z</time></trkpt><trkpt lat="43.19858884614653" lon="11.458444017180831"><ele>160.0</ele><time>2026-04-25T11:50:24.999Z</time></trkpt><trkpt lat="43.198505503547125" lon="11.458571679867168"><ele>160.0</ele><time>2026-04-25T11:50:25.999Z</time></trkpt><trkpt lat="43.19842388644489" lon="11.458700763093148"><ele>160.0</ele><time>2026-04-25T11:50:26.999Z</time></trkpt><trkpt lat="43.19834919301047" lon="11.458830015655785"><ele>159.5</ele><time>2026-04-25T11:50:27.999Z</time></trkpt><trkpt lat="43.198275485999794" lon="11.458953331383459"><ele>159.0</ele><time>2026-04-25T11:50:28.999Z</time></trkpt><trkpt lat="43.198195461992114" lon="11.459083800191896"><ele>158.5</ele><time>2026-04-25T11:50:29.999Z</time></trkpt><trkpt lat="43.19810620756859" lon="11.459226290092023"><ele>158.0</ele><time>2026-04-25T11:50:30.999Z</time></trkpt><trkpt lat="43.198021346543136" lon="11.459363343930223"><ele>157.25</ele><time>2026-04-25T11:50:31.999Z</time></trkpt><trkpt lat="43.197943210562045" lon="11.459489086819554"><ele>156.5</ele><time>2026-04-25T11:50:32.999Z</time></trkpt><trkpt lat="43.19786687574307" lon="11.459614308644237"><ele>155.75</ele><time>2026-04-25T11:50:34Z</time></trkpt><trkpt lat="43.1977857104329" lon="11.459744178798912"><ele>155.0</ele><time>2026-04-25T11:50:35Z</time></trkpt><trkpt lat="43.19769832363955" lon="11.459877768619322"><ele>155.0</ele><time>2026-04-25T11:50:36Z</time></trkpt><trkpt lat="43.19761073116806" lon="11.460010625699294"><ele>155.0</ele><time>2026-04-25T11:50:37Z</time></trkpt><trkpt lat="43.1975214580936" lon="11.460147319541033"><ele>155.0</ele><time>2026-04-25T11:50:38Z</time></trkpt><trkpt lat="43.19743925580974" lon="11.460275320729272"><ele>155.0</ele><time>2026-04-25T11:50:39Z</time></trkpt><trkpt lat="43.19735619907897" lon="11.460402862819985"><ele>155.25</ele><time>2026-04-25T11:50:40Z</time></trkpt><trkpt lat="43.19727501106464" lon="11.460528010840553"><ele>155.5</ele><time>2026-04-25T11:50:41Z</time></trkpt><trkpt lat="43.19719651677415" lon="11.460646807571111"><ele>155.75</ele><time>2026-04-25T11:50:42Z</time></trkpt><trkpt lat="43.19712143773839" lon="11.460759816546734"><ele>156.0</ele><time>2026-04-25T11:50:43Z</time></trkpt><trkpt lat="43.19704969881538" lon="11.460865289116908"><ele>156.0</ele><time>2026-04-25T11:50:44Z</time></trkpt><trkpt lat="43.19698390591834" lon="11.460964846536612"><ele>156.0</ele><time>2026-04-25T11:50:45Z</time></trkpt><trkpt lat="43.19692063505964" lon="11.461061564293678"><ele>156.0</ele><time>2026-04-25T11:50:46Z</time></trkpt><trkpt lat="43.19686101257179" lon="11.461153759978494"><ele>156.0</ele><time>2026-04-25T11:50:47Z</time></trkpt><trkpt lat="43.196804097969974" lon="11.46123767095511"><ele>156.0</ele><time>2026-04-25T11:50:48Z</time></trkpt><trkpt lat="43.19674053193662" lon="11.461330540986683"><ele>155.75</ele><time>2026-04-25T11:50:49Z</time></trkpt><trkpt lat="43.196673363987706" lon="11.461439870428787"><ele>155.5</ele><time>2026-04-25T11:50:50Z</time></trkpt><trkpt lat="43.19659778698542" lon="11.461564455304957"><ele>155.25</ele><time>2026-04-25T11:50:51Z</time></trkpt><trkpt lat="43.196512815742096" lon="11.461700202470293"><ele>155.0</ele><time>2026-04-25T11:50:52Z</time></trkpt><trkpt lat="43.19642776451322" lon="11.461839026170384"><ele>154.25</ele><time>2026-04-25T11:50:53Z</time></trkpt><trkpt lat="43.1963445548194" lon="11.461984371165627"><ele>153.5</ele><time>2026-04-25T11:50:54Z</time></trkpt><trkpt lat="43.196259795268354" lon="11.462129190679718"><ele>152.75</ele><time>2026-04-25T11:50:55.001Z</time></trkpt><trkpt lat="43.19617842304353" lon="11.462267966926746"><ele>152.0</ele><time>2026-04-25T11:50:56.001Z</time></trkpt><trkpt lat="43.19610195444234" lon="11.462410615956147"><ele>151.75</ele><time>2026-04-25T11:50:57.001Z</time></trkpt><trkpt lat="43.19603036184172" lon="11.462562364467876"><ele>151.5</ele><time>2026-04-25T11:50:58.001Z</time></trkpt><trkpt lat="43.195962502718196" lon="11.462723170685061"><ele>151.25</ele><time>2026-04-25T11:50:59.001Z</time></trkpt><trkpt lat="43.195901644734185" lon="11.462890585722194"><ele>151.0</ele><time>2026-04-25T11:51:00.001Z</time></trkpt><trkpt lat="43.19584499564225" lon="11.463058065478172"><ele>150.75</ele><time>2026-04-25T11:51:01.001Z</time></trkpt><trkpt lat="43.1957866242625" lon="11.463230550281132"><ele>150.5</ele><time>2026-04-25T11:51:02.001Z</time></trkpt><trkpt lat="43.19572222909521" lon="11.463403427790599"><ele>150.25</ele><time>2026-04-25T11:51:03.001Z</time></trkpt><trkpt lat="43.19565361476654" lon="11.463573833593056"><ele>150.0</ele><time>2026-04-25T11:51:04.001Z</time></trkpt><trkpt lat="43.19558732977313" lon="11.46374412291999"><ele>150.25</ele><time>2026-04-25T11:51:05.001Z</time></trkpt><trkpt lat="43.19551760590519" lon="11.463913534228366"><ele>150.5</ele><time>2026-04-25T11:51:06.001Z</time></trkpt><trkpt lat="43.195450183732156" lon="11.464083356952184"><ele>150.75</ele><time>2026-04-25T11:51:07.001Z</time></trkpt><trkpt lat="43.19538180677474" lon="11.464251218862133"><ele>151.0</ele><time>2026-04-25T11:51:08.001Z</time></trkpt><trkpt lat="43.19531202341716" lon="11.464412397188296"><ele>151.0</ele><time>2026-04-25T11:51:09.001Z</time></trkpt><trkpt lat="43.195244865522255" lon="11.464576494805897"><ele>151.0</ele><time>2026-04-25T11:51:10.001Z</time></trkpt><trkpt lat="43.19518037305085" lon="11.464733567831201"><ele>151.0</ele><time>2026-04-25T11:51:11.001Z</time></trkpt><trkpt lat="43.19512194445791" lon="11.46487760685528"><ele>151.0</ele><time>2026-04-25T11:51:12.001Z</time></trkpt><trkpt lat="43.19506614275983" lon="11.465016969384292"><ele>151.4</ele><time>2026-04-25T11:51:13.001Z</time></trkpt><trkpt lat="43.19501413846854" lon="11.465147477318279"><ele>151.8</ele><time>2026-04-25T11:51:14.001Z</time></trkpt><trkpt lat="43.194964221397576" lon="11.465267986013048"><ele>152.20000000000002</ele><time>2026-04-25T11:51:15.001Z</time></trkpt><trkpt lat="43.19492083559949" lon="11.46536853268584"><ele>152.6</ele><time>2026-04-25T11:51:16.001Z</time></trkpt><trkpt lat="43.19488895104276" lon="11.465450439842671"><ele>153.0</ele><time>2026-04-25T11:51:17.001Z</time></trkpt><trkpt lat="43.19486804794702" lon="11.46559409679953"><ele>153.33333333333334</ele><time>2026-04-25T11:51:19.001Z</time></trkpt><trkpt lat="43.19488625882836" lon="11.465684151863652"><ele>153.66666666666666</ele><time>2026-04-25T11:51:20.001Z</time></trkpt><trkpt lat="43.19491940008005" lon="11.465783263500033"><ele>154.0</ele><time>2026-04-25T11:51:21.001Z</time></trkpt><trkpt lat="43.194970961052526" lon="11.465882750510655"><ele>154.33333333333331</ele><time>2026-04-25T11:51:22.001Z</time></trkpt><trkpt lat="43.19504319766521" lon="11.465973055105298"><ele>154.66666666666666</ele><time>2026-04-25T11:51:23.001Z</time></trkpt><trkpt lat="43.19512861567905" lon="11.466075160679203"><ele>155.0</ele><time>2026-04-25T11:51:24.001Z</time></trkpt><trkpt lat="43.19521315559954" lon="11.46617995799897"><ele>155.0</ele><time>2026-04-25T11:51:25.002Z</time></trkpt><trkpt lat="43.19528142549519" lon="11.466275855817168"><ele>155.0</ele><time>2026-04-25T11:51:26.002Z</time></trkpt><trkpt lat="43.19533263146229" lon="11.46636698024868"><ele>155.0</ele><time>2026-04-25T11:51:27.002Z</time></trkpt><trkpt lat="43.19536874621035" lon="11.466465136362794"><ele>155.0</ele><time>2026-04-25T11:51:28.002Z</time></trkpt><trkpt lat="43.19539486778603" lon="11.46658094599412"><ele>155.0</ele><time>2026-04-25T11:51:29.002Z</time></trkpt><trkpt lat="43.195414855287176" lon="11.466713228540815"><ele>155.0</ele><time>2026-04-25T11:51:30.002Z</time></trkpt><trkpt lat="43.19542737967818" lon="11.466851127713904"><ele>155.6</ele><time>2026-04-25T11:51:31.002Z</time></trkpt><trkpt lat="43.19544268389015" lon="11.46700226963501"><ele>156.2</ele><time>2026-04-25T11:51:32.002Z</time></trkpt><trkpt lat="43.195460053446794" lon="11.467145010435905"><ele>156.8</ele><time>2026-04-25T11:51:33.002Z</time></trkpt><trkpt lat="43.195482978240676" lon="11.467281904998718"><ele>157.4</ele><time>2026-04-25T11:51:34.002Z</time></trkpt><trkpt lat="43.19550739676547" lon="11.46740082967082"><ele>158.0</ele><time>2026-04-25T11:51:35.002Z</time></trkpt><trkpt lat="43.19554388812848" lon="11.467496960849832"><ele>158.33333333333331</ele><time>2026-04-25T11:51:36.002Z</time></trkpt><trkpt lat="43.195600935897474" lon="11.467566551881175"><ele>158.66666666666666</ele><time>2026-04-25T11:51:37.002Z</time></trkpt><trkpt lat="43.195678604608915" lon="11.467615957553802"><ele>159.0</ele><time>2026-04-25T11:51:38.002Z</time></trkpt><trkpt lat="43.19576101781368" lon="11.467638652151358"><ele>159.33333333333334</ele><time>2026-04-25T11:51:39.002Z</time></trkpt><trkpt lat="43.19585947183653" lon="11.467661758392033"><ele>159.66666666666669</ele><time>2026-04-25T11:51:40.002Z</time></trkpt><trkpt lat="43.19594941514715" lon="11.46769185650663"><ele>160.0</ele><time>2026-04-25T11:51:41.002Z</time></trkpt><trkpt lat="43.196030954279145" lon="11.467736029009517"><ele>160.83333333333334</ele><time>2026-04-25T11:51:42.002Z</time></trkpt><trkpt lat="43.1961027668103" lon="11.467793728232207"><ele>161.66666666666669</ele><time>2026-04-25T11:51:43.002Z</time></trkpt><trkpt lat="43.1961683519655" lon="11.467853002082522"><ele>162.5</ele><time>2026-04-25T11:51:44.002Z</time></trkpt><trkpt lat="43.19623046873341" lon="11.467924750584269"><ele>163.33333333333334</ele><time>2026-04-25T11:51:45.002Z</time></trkpt><trkpt lat="43.19628791985244" lon="11.468000539849013"><ele>164.16666666666666</ele><time>2026-04-25T11:51:46.002Z</time></trkpt><trkpt lat="43.196344566766165" lon="11.468080430496201"><ele>165.0</ele><time>2026-04-25T11:51:47.002Z</time></trkpt><trkpt lat="43.19639292584623" lon="11.468164838577101"><ele>165.33333333333334</ele><time>2026-04-25T11:51:48.002Z</time></trkpt><trkpt lat="43.196438842686845" lon="11.468244787250356"><ele>165.66666666666666</ele><time>2026-04-25T11:51:49.002Z</time></trkpt><trkpt lat="43.19648660640278" lon="11.468330146500922"><ele>166.0</ele><time>2026-04-25T11:51:50.002Z</time></trkpt><trkpt lat="43.196529605026875" lon="11.468423362971798"><ele>166.33333333333331</ele><time>2026-04-25T11:51:51.002Z</time></trkpt><trkpt lat="43.19656374690001" lon="11.46853050691631"><ele>166.66666666666666</ele><time>2026-04-25T11:51:52.002Z</time></trkpt><trkpt lat="43.19658411017283" lon="11.468648947663233"><ele>167.0</ele><time>2026-04-25T11:51:53.002Z</time></trkpt><trkpt lat="43.19659460388406" lon="11.468768330068647"><ele>169.33333333333331</ele><time>2026-04-25T11:51:54.002Z</time></trkpt><trkpt lat="43.196606473574064" lon="11.468886301521643"><ele>171.66666666666666</ele><time>2026-04-25T11:51:55.002Z</time></trkpt><trkpt lat="43.19664088493877" lon="11.468980579032994"><ele>174.0</ele><time>2026-04-25T11:51:56.002Z</time></trkpt><trkpt lat="43.19669260703163" lon="11.469063958097687"><ele>176.33333333333334</ele><time>2026-04-25T11:51:57.003Z</time></trkpt><trkpt lat="43.196760071834376" lon="11.469147709479486"><ele>178.66666666666669</ele><time>2026-04-25T11:51:58.003Z</time></trkpt><trkpt lat="43.196832874479654" lon="11.46924691886637"><ele>181.0</ele><time>2026-04-25T11:51:59.003Z</time></trkpt><trkpt lat="43.19689802524474" lon="11.469348992695094"><ele>181.0</ele><time>2026-04-25T11:52:00.003Z</time></trkpt><trkpt lat="43.19695006180709" lon="11.469445212292117"><ele>181.0</ele><time>2026-04-25T11:52:01.003Z</time></trkpt><trkpt lat="43.1970000684808" lon="11.469547185388638"><ele>181.0</ele><time>2026-04-25T11:52:02.003Z</time></trkpt><trkpt lat="43.19704066924455" lon="11.469662166816272"><ele>181.0</ele><time>2026-04-25T11:52:03.003Z</time></trkpt><trkpt lat="43.19708079233526" lon="11.469772372798584"><ele>181.0</ele><time>2026-04-25T11:52:04.003Z</time></trkpt><trkpt lat="43.19712466170001" lon="11.469883038873498"><ele>181.16666666666669</ele><time>2026-04-25T11:52:05.003Z</time></trkpt><trkpt lat="43.197164398061894" lon="11.469990103712526"><ele>181.33333333333334</ele><time>2026-04-25T11:52:06.003Z</time></trkpt><trkpt lat="43.197197629263016" lon="11.47010088524317"><ele>181.5</ele><time>2026-04-25T11:52:07.003Z</time></trkpt><trkpt lat="43.197237440242084" lon="11.470208830430451"><ele>181.66666666666666</ele><time>2026-04-25T11:52:08.003Z</time></trkpt><trkpt lat="43.19727428365943" lon="11.470302994683875"><ele>181.83333333333331</ele><time>2026-04-25T11:52:09.003Z</time></trkpt><trkpt lat="43.197315283296966" lon="11.470382664399697"><ele>182.0</ele><time>2026-04-25T11:52:10.003Z</time></trkpt><trkpt lat="43.19736588541436" lon="11.47045531409655"><ele>185.0</ele><time>2026-04-25T11:52:11.003Z</time></trkpt><trkpt lat="43.19742095417418" lon="11.470506408003276"><ele>188.0</ele><time>2026-04-25T11:52:12.003Z</time></trkpt><trkpt lat="43.19748081600152" lon="11.470535466291174"><ele>191.0</ele><time>2026-04-25T11:52:13.003Z</time></trkpt><trkpt lat="43.19755711205405" lon="11.470561952829433"><ele>194.0</ele><time>2026-04-25T11:52:14.003Z</time></trkpt><trkpt lat="43.19763911671163" lon="11.47058076013168"><ele>197.00000000000003</ele><time>2026-04-25T11:52:15.003Z</time></trkpt><trkpt lat="43.19771958662182" lon="11.470588866361492"><ele>200.0</ele><time>2026-04-25T11:52:16.003Z</time></trkpt><trkpt lat="43.197798405965784" lon="11.470595158326567"><ele>200.00000000000003</ele><time>2026-04-25T11:52:17.003Z</time></trkpt><trkpt lat="43.197872330191316" lon="11.470615549386265"><ele>200.0</ele><time>2026-04-25T11:52:18.003Z</time></trkpt><trkpt lat="43.19794331558986" lon="11.470649854469508"><ele>200.0</ele><time>2026-04-25T11:52:19.003Z</time></trkpt><trkpt lat="43.198001861294074" lon="11.470703580110163"><ele>200.0</ele><time>2026-04-25T11:52:20.003Z</time></trkpt><trkpt lat="43.19806483162244" lon="11.470759209007028"><ele>200.0</ele><time>2026-04-25T11:52:21.003Z</time></trkpt><trkpt lat="43.19812907829975" lon="11.470815596190931"><ele>200.00000000000003</ele><time>2026-04-25T11:52:22.003Z</time></trkpt><trkpt lat="43.19818909609354" lon="11.470880607642101"><ele>200.0</ele><time>2026-04-25T11:52:23.003Z</time></trkpt><trkpt lat="43.1982450843131" lon="11.470961145850774"><ele>200.66666666666669</ele><time>2026-04-25T11:52:23.998Z</time></trkpt><trkpt lat="43.19829168630958" lon="11.471043226501605"><ele>201.33333333333334</ele><time>2026-04-25T11:52:24.999Z</time></trkpt><trkpt lat="43.19833924014534" lon="11.471152942353418"><ele>202.0</ele><time>2026-04-25T11:52:25.999Z</time></trkpt><trkpt lat="43.198387080518906" lon="11.47125587051716"><ele>202.66666666666669</ele><time>2026-04-25T11:52:26.999Z</time></trkpt><trkpt lat="43.19842273269246" lon="11.471357359532425"><ele>203.33333333333334</ele><time>2026-04-25T11:52:27.999Z</time></trkpt><trkpt lat="43.19845204500875" lon="11.471458516390415"><ele>204.0</ele><time>2026-04-25T11:52:28.999Z</time></trkpt><trkpt lat="43.19848008836834" lon="11.471559855414435"><ele>205.2</ele><time>2026-04-25T11:52:29.999Z</time></trkpt><trkpt lat="43.1985067434369" lon="11.471666927780506"><ele>206.39999999999998</ele><time>2026-04-25T11:52:30.999Z</time></trkpt><trkpt lat="43.19851446743314" lon="11.47177985259265"><ele>207.6</ele><time>2026-04-25T11:52:31.999Z</time></trkpt><trkpt lat="43.19851722694022" lon="11.471902934733775"><ele>208.8</ele><time>2026-04-25T11:52:32.999Z</time></trkpt><trkpt lat="43.19851097559589" lon="11.472041188184983"><ele>210.0</ele><time>2026-04-25T11:52:33.999Z</time></trkpt><trkpt lat="43.198502517663016" lon="11.472197453640774"><ele>210.6</ele><time>2026-04-25T11:52:34.999Z</time></trkpt><trkpt lat="43.198484677852896" lon="11.472363629622592"><ele>211.2</ele><time>2026-04-25T11:52:35.999Z</time></trkpt><trkpt lat="43.198473018996715" lon="11.472494860328219"><ele>211.8</ele><time>2026-04-25T11:52:36.999Z</time></trkpt><trkpt lat="43.198460953648535" lon="11.472620429830398"><ele>212.4</ele><time>2026-04-25T11:52:37.999Z</time></trkpt><trkpt lat="43.19846663742116" lon="11.472729056484805"><ele>213.0</ele><time>2026-04-25T11:52:38.999Z</time></trkpt><trkpt lat="43.198477702181684" lon="11.47282746106958"><ele>213.0</ele><time>2026-04-25T11:52:39.999Z</time></trkpt><trkpt lat="43.19850943137571" lon="11.472928533616782"><ele>213.0</ele><time>2026-04-25T11:52:40.999Z</time></trkpt><trkpt lat="43.19855424043523" lon="11.473020552626076"><ele>213.0</ele><time>2026-04-25T11:52:42Z</time></trkpt><trkpt lat="43.1986096880618" lon="11.473125301580755"><ele>213.0</ele><time>2026-04-25T11:52:43Z</time></trkpt><trkpt lat="43.19867028465131" lon="11.47323402412783"><ele>213.0</ele><time>2026-04-25T11:52:44Z</time></trkpt><trkpt lat="43.198719309080836" lon="11.473339085833565"><ele>213.0</ele><time>2026-04-25T11:52:45Z</time></trkpt><trkpt lat="43.198765548374276" lon="11.473436392108477"><ele>213.16666666666666</ele><time>2026-04-25T11:52:46Z</time></trkpt><trkpt lat="43.198801979137706" lon="11.47353163492792"><ele>213.33333333333331</ele><time>2026-04-25T11:52:47Z</time></trkpt><trkpt lat="43.19883410652474" lon="11.473635857964695"><ele>213.5</ele><time>2026-04-25T11:52:48Z</time></trkpt><trkpt lat="43.19885202985346" lon="11.473762350398035"><ele>213.66666666666666</ele><time>2026-04-25T11:52:49Z</time></trkpt><trkpt lat="43.19885022454409" lon="11.473891492104201"><ele>213.83333333333331</ele><time>2026-04-25T11:52:50Z</time></trkpt><trkpt lat="43.19884185707665" lon="11.474025887938097"><ele>214.0</ele><time>2026-04-25T11:52:51Z</time></trkpt><trkpt lat="43.19884162811286" lon="11.474153211556072"><ele>212.2</ele><time>2026-04-25T11:52:52Z</time></trkpt><trkpt lat="43.19885198523706" lon="11.474277106016874"><ele>210.39999999999998</ele><time>2026-04-25T11:52:53Z</time></trkpt><trkpt lat="43.1988754956395" lon="11.474381040270321"><ele>208.6</ele><time>2026-04-25T11:52:54Z</time></trkpt><trkpt lat="43.19891587839925" lon="11.474487197061594"><ele>206.8</ele><time>2026-04-25T11:52:55Z</time></trkpt><trkpt lat="43.19897113614204" lon="11.474596601214778"><ele>205.0</ele><time>2026-04-25T11:52:56Z</time></trkpt><trkpt lat="43.19904119748731" lon="11.474718374576785"><ele>203.5</ele><time>2026-04-25T11:52:57Z</time></trkpt><trkpt lat="43.19911333135808" lon="11.474846305466034"><ele>202.0</ele><time>2026-04-25T11:52:58Z</time></trkpt><trkpt lat="43.19919429266474" lon="11.47499715450087"><ele>200.5</ele><time>2026-04-25T11:52:59Z</time></trkpt><trkpt lat="43.199278598293645" lon="11.475154388535692"><ele>199.0</ele><time>2026-04-25T11:53:00Z</time></trkpt><trkpt lat="43.19936632171567" lon="11.475312577589678"><ele>196.5</ele><time>2026-04-25T11:53:01Z</time></trkpt><trkpt lat="43.19944701744821" lon="11.475439369705954"><ele>194.0</ele><time>2026-04-25T11:53:02.001Z</time></trkpt><trkpt lat="43.19952762864408" lon="11.475539712898758"><ele>191.5</ele><time>2026-04-25T11:53:03.001Z</time></trkpt><trkpt lat="43.199615472232615" lon="11.475628822188973"><ele>189.0</ele><time>2026-04-25T11:53:04.001Z</time></trkpt><trkpt lat="43.199710464576505" lon="11.475707190603233"><ele>189.0</ele><time>2026-04-25T11:53:05.001Z</time></trkpt><trkpt lat="43.19980530119001" lon="11.475770291179652"><ele>189.0</ele><time>2026-04-25T11:53:06.001Z</time></trkpt><trkpt lat="43.19990904652081" lon="11.47582029866018"><ele>189.0</ele><time>2026-04-25T11:53:07.001Z</time></trkpt><trkpt lat="43.19999692841028" lon="11.47589127553995"><ele>189.0</ele><time>2026-04-25T11:53:08.001Z</time></trkpt><trkpt lat="43.2000733455946" lon="11.475984332449"><ele>189.0</ele><time>2026-04-25T11:53:09.001Z</time></trkpt><trkpt lat="43.20015885845057" lon="11.476096631636121"><ele>190.6</ele><time>2026-04-25T11:53:10.001Z</time></trkpt><trkpt lat="43.20024876331578" lon="11.476204723458858"><ele>192.2</ele><time>2026-04-25T11:53:11.001Z</time></trkpt><trkpt lat="43.20034234527878" lon="11.47630202654865"><ele>193.79999999999998</ele><time>2026-04-25T11:53:12.001Z</time></trkpt><trkpt lat="43.20042923177744" lon="11.47638511611275"><ele>195.39999999999998</ele><time>2026-04-25T11:53:13.001Z</time></trkpt><trkpt lat="43.20051268393697" lon="11.476472215594965"><ele>197.0</ele><time>2026-04-25T11:53:14.001Z</time></trkpt><trkpt lat="43.200594295715675" lon="11.476571060988205"><ele>199.25</ele><time>2026-04-25T11:53:15.001Z</time></trkpt><trkpt lat="43.20067214759018" lon="11.47667906982982"><ele>201.5</ele><time>2026-04-25T11:53:16.001Z</time></trkpt><trkpt lat="43.20074357751407" lon="11.476803112543834"><ele>203.75</ele><time>2026-04-25T11:53:17.001Z</time></trkpt><trkpt lat="43.200812356510674" lon="11.476952172748378"><ele>206.0</ele><time>2026-04-25T11:53:18.001Z</time></trkpt><trkpt lat="43.20088618471357" lon="11.477121356276122"><ele>206.0</ele><time>2026-04-25T11:53:19.001Z</time></trkpt><trkpt lat="43.2009593542511" lon="11.477296110865478"><ele>206.0</ele><time>2026-04-25T11:53:20.001Z</time></trkpt><trkpt lat="43.201024750791795" lon="11.477454482137945"><ele>206.0</ele><time>2026-04-25T11:53:21.001Z</time></trkpt><trkpt lat="43.201084000315355" lon="11.477617236099327"><ele>206.0</ele><time>2026-04-25T11:53:22.001Z</time></trkpt><trkpt lat="43.20114333839471" lon="11.477776332572477"><ele>206.0</ele><time>2026-04-25T11:53:23.001Z</time></trkpt><trkpt lat="43.20120337722381" lon="11.477930276263224"><ele>206.0</ele><time>2026-04-25T11:53:24.001Z</time></trkpt><trkpt lat="43.20126696876416" lon="11.478087745111383"><ele>206.0</ele><time>2026-04-25T11:53:25.001Z</time></trkpt><trkpt lat="43.20133954769778" lon="11.478255227898995"><ele>206.0</ele><time>2026-04-25T11:53:26.001Z</time></trkpt><trkpt lat="43.20141499471892" lon="11.478430612947717"><ele>206.75</ele><time>2026-04-25T11:53:27.001Z</time></trkpt><trkpt lat="43.20148247588557" lon="11.47858623869904"><ele>207.5</ele><time>2026-04-25T11:53:28.001Z</time></trkpt><trkpt lat="43.20154209748015" lon="11.47875107799894"><ele>208.25</ele><time>2026-04-25T11:53:29.001Z</time></trkpt><trkpt lat="43.20160046177097" lon="11.478923251602817"><ele>209.0</ele><time>2026-04-25T11:53:30.001Z</time></trkpt><trkpt lat="43.20165665056319" lon="11.479099366777232"><ele>209.75</ele><time>2026-04-25T11:53:31.001Z</time></trkpt><trkpt lat="43.20170741502234" lon="11.479278202101828"><ele>210.5</ele><time>2026-04-25T11:53:32.002Z</time></trkpt><trkpt lat="43.201757915471084" lon="11.479457147976483"><ele>211.25</ele><time>2026-04-25T11:53:33.002Z</time></trkpt><trkpt lat="43.20180296081827" lon="11.479635145420621"><ele>212.0</ele><time>2026-04-25T11:53:34.002Z</time></trkpt><trkpt lat="43.20184458429217" lon="11.479808870475962"><ele>212.0</ele><time>2026-04-25T11:53:35.002Z</time></trkpt><trkpt lat="43.20189276067763" lon="11.479969164165787"><ele>212.0</ele><time>2026-04-25T11:53:36.002Z</time></trkpt><trkpt lat="43.20194200401141" lon="11.480106925173272"><ele>212.0</ele><time>2026-04-25T11:53:37.002Z</time></trkpt><trkpt lat="43.201992592865906" lon="11.480227223479602"><ele>212.0</ele><time>2026-04-25T11:53:38.002Z</time></trkpt><trkpt lat="43.20204312244747" lon="11.480357957573778"><ele>212.0</ele><time>2026-04-25T11:53:39.002Z</time></trkpt><trkpt lat="43.20209389630477" lon="11.480495270663873"><ele>211.25</ele><time>2026-04-25T11:53:40.002Z</time></trkpt><trkpt lat="43.202142692097105" lon="11.480636556867431"><ele>210.5</ele><time>2026-04-25T11:53:41.002Z</time></trkpt><trkpt lat="43.20218867440433" lon="11.480782839195392"><ele>209.75</ele><time>2026-04-25T11:53:42.002Z</time></trkpt><trkpt lat="43.20221545149994" lon="11.480934931738934"><ele>209.0</ele><time>2026-04-25T11:53:43.002Z</time></trkpt><trkpt lat="43.20223565774673" lon="11.481082632204908"><ele>209.0</ele><time>2026-04-25T11:53:44.002Z</time></trkpt><trkpt lat="43.20225420749078" lon="11.481237817558151"><ele>209.0</ele><time>2026-04-25T11:53:45.002Z</time></trkpt><trkpt lat="43.20227105087777" lon="11.481393712926735"><ele>209.0</ele><time>2026-04-25T11:53:46.002Z</time></trkpt><trkpt lat="43.20228841706189" lon="11.481544240034362"><ele>209.0</ele><time>2026-04-25T11:53:47.002Z</time></trkpt><trkpt lat="43.202305107250105" lon="11.481682385479019"><ele>209.0</ele><time>2026-04-25T11:53:48.002Z</time></trkpt><trkpt lat="43.20230832433314" lon="11.481816009820696"><ele>210.0</ele><time>2026-04-25T11:53:49.002Z</time></trkpt><trkpt lat="43.20230028008673" lon="11.48194566189044"><ele>211.0</ele><time>2026-04-25T11:53:50.002Z</time></trkpt><trkpt lat="43.2022764131097" lon="11.482073231598106"><ele>211.99999999999997</ele><time>2026-04-25T11:53:51.002Z</time></trkpt><trkpt lat="43.202245916221216" lon="11.48219579817383"><ele>213.0</ele><time>2026-04-25T11:53:52.002Z</time></trkpt><trkpt lat="43.202219426242834" lon="11.482319811237254"><ele>214.0</ele><time>2026-04-25T11:53:53.002Z</time></trkpt><trkpt lat="43.202196851897526" lon="11.482445053382262"><ele>215.79999999999998</ele><time>2026-04-25T11:53:54.002Z</time></trkpt><trkpt lat="43.20218274262794" lon="11.482584167523303"><ele>217.59999999999997</ele><time>2026-04-25T11:53:55.002Z</time></trkpt><trkpt lat="43.202178279774095" lon="11.482714058513581"><ele>219.4</ele><time>2026-04-25T11:53:56.002Z</time></trkpt><trkpt lat="43.20218121455444" lon="11.482834856982032"><ele>221.2</ele><time>2026-04-25T11:53:57.002Z</time></trkpt><trkpt lat="43.202185262961564" lon="11.48296512202377"><ele>223.0</ele><time>2026-04-25T11:53:58.002Z</time></trkpt><trkpt lat="43.20218550723963" lon="11.483082803948951"><ele>225.33333333333331</ele><time>2026-04-25T11:53:59.002Z</time></trkpt><trkpt lat="43.202168381310834" lon="11.483197918808116"><ele>227.66666666666666</ele><time>2026-04-25T11:54:00.002Z</time></trkpt><trkpt lat="43.20213307501385" lon="11.483300822787808"><ele>230.0</ele><time>2026-04-25T11:54:01.002Z</time></trkpt><trkpt lat="43.202076380361554" lon="11.483408913268754"><ele>232.33333333333331</ele><time>2026-04-25T11:54:02.002Z</time></trkpt><trkpt lat="43.20201458842093" lon="11.483499648681347"><ele>234.66666666666666</ele><time>2026-04-25T11:54:03.002Z</time></trkpt><trkpt lat="43.20194857034444" lon="11.483589069741836"><ele>237.0</ele><time>2026-04-25T11:54:04.003Z</time></trkpt><trkpt lat="43.20188997572552" lon="11.483680070449005"><ele>239.66666666666666</ele><time>2026-04-25T11:54:05.003Z</time></trkpt><trkpt lat="43.20183607513623" lon="11.483769697900481"><ele>242.33333333333331</ele><time>2026-04-25T11:54:06.003Z</time></trkpt><trkpt lat="43.20178473139932" lon="11.483861597743276"><ele>245.0</ele><time>2026-04-25T11:54:07.003Z</time></trkpt><trkpt lat="43.20174785992722" lon="11.483952806130473"><ele>247.66666666666666</ele><time>2026-04-25T11:54:08.003Z</time></trkpt><trkpt lat="43.20173607931013" lon="11.484049281500845"><ele>250.33333333333331</ele><time>2026-04-25T11:54:09.003Z</time></trkpt><trkpt lat="43.201745338315064" lon="11.48414339524375"><ele>253.0</ele><time>2026-04-25T11:54:10.003Z</time></trkpt><trkpt lat="43.20177678919896" lon="11.48423053726309"><ele>252.99999999999997</ele><time>2026-04-25T11:54:11.003Z</time></trkpt><trkpt lat="43.20182279976824" lon="11.48431548575651"><ele>253.0</ele><time>2026-04-25T11:54:12.003Z</time></trkpt><trkpt lat="43.20187109839422" lon="11.484404840678886"><ele>253.0</ele><time>2026-04-25T11:54:13.003Z</time></trkpt><trkpt lat="43.20191668986167" lon="11.484491397445742"><ele>253.0</ele><time>2026-04-25T11:54:14.003Z</time></trkpt><trkpt lat="43.201964206566" lon="11.484573563665638"><ele>252.99999999999997</ele><time>2026-04-25T11:54:15.003Z</time></trkpt><trkpt lat="43.2020083689253" lon="11.484663178454214"><ele>253.0</ele><time>2026-04-25T11:54:16.003Z</time></trkpt><trkpt lat="43.20203533011482" lon="11.484770444210955"><ele>254.49999999999997</ele><time>2026-04-25T11:54:17.003Z</time></trkpt><trkpt lat="43.202057406957714" lon="11.484876864782983"><ele>256.0</ele><time>2026-04-25T11:54:18.003Z</time></trkpt><trkpt lat="43.20207651397825" lon="11.484987496126887"><ele>257.5</ele><time>2026-04-25T11:54:19.003Z</time></trkpt><trkpt lat="43.20210093091377" lon="11.485104714580954"><ele>259.0</ele><time>2026-04-25T11:54:20.003Z</time></trkpt><trkpt lat="43.20212529120074" lon="11.485218492184966"><ele>260.5</ele><time>2026-04-25T11:54:21.003Z</time></trkpt><trkpt lat="43.20213971330632" lon="11.485311242210756"><ele>262.0</ele><time>2026-04-25T11:54:22.003Z</time></trkpt><trkpt lat="43.20215491596209" lon="11.485395735482811"><ele>260.66666666666663</ele><time>2026-04-25T11:54:23.003Z</time></trkpt><trkpt lat="43.2021740766732" lon="11.485485942866523"><ele>259.3333333333333</ele><time>2026-04-25T11:54:24.003Z</time></trkpt><trkpt lat="43.202192631584715" lon="11.485580343538503"><ele>258.0</ele><time>2026-04-25T11:54:25.003Z</time></trkpt><trkpt lat="43.20221681364235" lon="11.485684575591469"><ele>256.6666666666667</ele><time>2026-04-25T11:54:26.003Z</time></trkpt><trkpt lat="43.20224261303673" lon="11.485781551785445"><ele>255.33333333333334</ele><time>2026-04-25T11:54:27.003Z</time></trkpt><trkpt lat="43.202275477338844" lon="11.48588369212675"><ele>254.0</ele><time>2026-04-25T11:54:28.003Z</time></trkpt><trkpt lat="43.2023130948568" lon="11.485988438935127"><ele>254.33333333333334</ele><time>2026-04-25T11:54:29.003Z</time></trkpt><trkpt lat="43.20235383302639" lon="11.486088005484188"><ele>254.66666666666669</ele><time>2026-04-25T11:54:29.998Z</time></trkpt><trkpt lat="43.20240472383047" lon="11.486177145987176"><ele>255.0</ele><time>2026-04-25T11:54:30.998Z</time></trkpt><trkpt lat="43.202459605493964" lon="11.486262259816266"><ele>255.33333333333331</ele><time>2026-04-25T11:54:31.998Z</time></trkpt><trkpt lat="43.20251650686493" lon="11.486344790892868"><ele>255.66666666666666</ele><time>2026-04-25T11:54:32.998Z</time></trkpt><trkpt lat="43.20258008275219" lon="11.486427804255072"><ele>256.0</ele><time>2026-04-25T11:54:33.998Z</time></trkpt><trkpt lat="43.202651849435924" lon="11.486516915912754"><ele>254.4</ele><time>2026-04-25T11:54:34.999Z</time></trkpt><trkpt lat="43.20272969663798" lon="11.486622435771881"><ele>252.8</ele><time>2026-04-25T11:54:35.999Z</time></trkpt><trkpt lat="43.20281841401541" lon="11.486726922469957"><ele>251.20000000000002</ele><time>2026-04-25T11:54:36.999Z</time></trkpt><trkpt lat="43.2028979422164" lon="11.486837409433441"><ele>249.60000000000002</ele><time>2026-04-25T11:54:37.999Z</time></trkpt><trkpt lat="43.20298246932711" lon="11.486930365371986"><ele>248.0</ele><time>2026-04-25T11:54:38.999Z</time></trkpt><trkpt lat="43.20306288539144" lon="11.487040279572316"><ele>248.2</ele><time>2026-04-25T11:54:39.999Z</time></trkpt><trkpt lat="43.203151579477414" lon="11.48714290043828"><ele>248.4</ele><time>2026-04-25T11:54:40.999Z</time></trkpt><trkpt lat="43.203218564250136" lon="11.487242898211528"><ele>248.59999999999997</ele><time>2026-04-25T11:54:41.999Z</time></trkpt><trkpt lat="43.20328658683098" lon="11.487325278957615"><ele>248.79999999999998</ele><time>2026-04-25T11:54:42.999Z</time></trkpt><trkpt lat="43.20334821129493" lon="11.487404385968393"><ele>249.0</ele><time>2026-04-25T11:54:43.999Z</time></trkpt><trkpt lat="43.203410605584956" lon="11.487487562532213"><ele>249.0</ele><time>2026-04-25T11:54:44.999Z</time></trkpt><trkpt lat="43.20347393724775" lon="11.48756907721599"><ele>249.0</ele><time>2026-04-25T11:54:45.999Z</time></trkpt><trkpt lat="43.20353969593624" lon="11.487643650831327"><ele>249.0</ele><time>2026-04-25T11:54:46.999Z</time></trkpt><trkpt lat="43.20359931287656" lon="11.487722157463743"><ele>249.0</ele><time>2026-04-25T11:54:47.999Z</time></trkpt><trkpt lat="43.203642520756" lon="11.487814390182235"><ele>249.0</ele><time>2026-04-25T11:54:48.999Z</time></trkpt><trkpt lat="43.20370366952069" lon="11.487923873958966"><ele>249.0</ele><time>2026-04-25T11:54:50Z</time></trkpt><trkpt lat="43.203770278345814" lon="11.488044162311187"><ele>245.75</ele><time>2026-04-25T11:54:51Z</time></trkpt><trkpt lat="43.203836121512005" lon="11.488170449316604"><ele>242.5</ele><time>2026-04-25T11:54:52Z</time></trkpt><trkpt lat="43.20390002069376" lon="11.488292524643516"><ele>239.25</ele><time>2026-04-25T11:54:53Z</time></trkpt><trkpt lat="43.203970716281184" lon="11.4884142242698"><ele>236.0</ele><time>2026-04-25T11:54:54Z</time></trkpt><trkpt lat="43.20404253434364" lon="11.488537206994051"><ele>238.4</ele><time>2026-04-25T11:54:55Z</time></trkpt><trkpt lat="43.204116245448304" lon="11.488654852884071"><ele>240.8</ele><time>2026-04-25T11:54:56Z</time></trkpt><trkpt lat="43.20419637451257" lon="11.488760573455956"><ele>243.20000000000002</ele><time>2026-04-25T11:54:57Z</time></trkpt><trkpt lat="43.204273506488605" lon="11.488867158763357"><ele>245.60000000000002</ele><time>2026-04-25T11:54:58Z</time></trkpt><trkpt lat="43.204346383135956" lon="11.488975176573913"><ele>248.0</ele><time>2026-04-25T11:54:59Z</time></trkpt><trkpt lat="43.20441521707131" lon="11.489085405127534"><ele>248.0</ele><time>2026-04-25T11:55:00Z</time></trkpt><trkpt lat="43.204474203565994" lon="11.489208015262744"><ele>248.0</ele><time>2026-04-25T11:55:01Z</time></trkpt><trkpt lat="43.204519852508476" lon="11.489339275215965"><ele>248.0</ele><time>2026-04-25T11:55:02Z</time></trkpt><trkpt lat="43.20456258493259" lon="11.48947188497152"><ele>248.0</ele><time>2026-04-25T11:55:03Z</time></trkpt><trkpt lat="43.20460129846897" lon="11.489599779850765"><ele>248.0</ele><time>2026-04-25T11:55:04Z</time></trkpt><trkpt lat="43.204642157623894" lon="11.489734520081493"><ele>250.4</ele><time>2026-04-25T11:55:05Z</time></trkpt><trkpt lat="43.20468191068156" lon="11.489871286560843"><ele>252.8</ele><time>2026-04-25T11:55:06Z</time></trkpt><trkpt lat="43.20472321622196" lon="11.490011400215526"><ele>255.2</ele><time>2026-04-25T11:55:07Z</time></trkpt><trkpt lat="43.20476619786369" lon="11.49013651175"><ele>257.6</ele><time>2026-04-25T11:55:08.001Z</time></trkpt><trkpt lat="43.20481488771888" lon="11.490248624940733"><ele>260.0</ele><time>2026-04-25T11:55:09.001Z</time></trkpt><trkpt lat="43.20487814155661" lon="11.49035899992506"><ele>257.0</ele><time>2026-04-25T11:55:10.001Z</time></trkpt><trkpt lat="43.204953578023" lon="11.490464624196862"><ele>254.0</ele><time>2026-04-25T11:55:11.001Z</time></trkpt><trkpt lat="43.20503237961831" lon="11.490562069517047"><ele>251.0</ele><time>2026-04-25T11:55:12.001Z</time></trkpt><trkpt lat="43.20511109361992" lon="11.490657404073461"><ele>248.0</ele><time>2026-04-25T11:55:13.001Z</time></trkpt><trkpt lat="43.20518588634057" lon="11.490743285909959"><ele>245.0</ele><time>2026-04-25T11:55:14.001Z</time></trkpt><trkpt lat="43.20526525945822" lon="11.49080973845812"><ele>245.0</ele><time>2026-04-25T11:55:15.001Z</time></trkpt><trkpt lat="43.2053543429436" lon="11.490853581868553"><ele>245.0</ele><time>2026-04-25T11:55:16.001Z</time></trkpt><trkpt lat="43.205444849973915" lon="11.490873892399817"><ele>245.0</ele><time>2026-04-25T11:55:17.001Z</time></trkpt><trkpt lat="43.2055403615888" lon="11.490884387842646"><ele>245.0</ele><time>2026-04-25T11:55:18.001Z</time></trkpt><trkpt lat="43.20564273242419" lon="11.490888044253133"><ele>245.0</ele><time>2026-04-25T11:55:19.001Z</time></trkpt><trkpt lat="43.205746410388954" lon="11.490884437473895"><ele>247.6</ele><time>2026-04-25T11:55:20.001Z</time></trkpt><trkpt lat="43.205851924364445" lon="11.490869179600532"><ele>250.2</ele><time>2026-04-25T11:55:21.001Z</time></trkpt><trkpt lat="43.205956384140016" lon="11.490845998472015"><ele>252.8</ele><time>2026-04-25T11:55:22.001Z</time></trkpt><trkpt lat="43.20606410487157" lon="11.490842332762996"><ele>255.4</ele><time>2026-04-25T11:55:23.001Z</time></trkpt><trkpt lat="43.206174792966934" lon="11.49085695552771"><ele>258.0</ele><time>2026-04-25T11:55:24.001Z</time></trkpt><trkpt lat="43.206266628703254" lon="11.490877964550787"><ele>258.0</ele><time>2026-04-25T11:55:25.001Z</time></trkpt><trkpt lat="43.20635325730167" lon="11.490899025388098"><ele>258.0</ele><time>2026-04-25T11:55:26.001Z</time></trkpt><trkpt lat="43.20643617844885" lon="11.490948107581952"><ele>258.0</ele><time>2026-04-25T11:55:27.001Z</time></trkpt><trkpt lat="43.206515662171604" lon="11.491013832216765"><ele>258.0</ele><time>2026-04-25T11:55:28.001Z</time></trkpt><trkpt lat="43.2065989281844" lon="11.491095121848117"><ele>258.0</ele><time>2026-04-25T11:55:29.001Z</time></trkpt><trkpt lat="43.206672203940414" lon="11.491203917607333"><ele>257.0</ele><time>2026-04-25T11:55:30.001Z</time></trkpt><trkpt lat="43.206729381669284" lon="11.491331197162392"><ele>256.0</ele><time>2026-04-25T11:55:31.001Z</time></trkpt><trkpt lat="43.206781299208686" lon="11.491463808915766"><ele>255.0</ele><time>2026-04-25T11:55:32.001Z</time></trkpt><trkpt lat="43.20683434036922" lon="11.491599291644965"><ele>254.0</ele><time>2026-04-25T11:55:33.001Z</time></trkpt><trkpt lat="43.20688789750052" lon="11.491727377838629"><ele>253.0</ele><time>2026-04-25T11:55:34.001Z</time></trkpt><trkpt lat="43.206952554207135" lon="11.49184193688554"><ele>253.0</ele><time>2026-04-25T11:55:35.001Z</time></trkpt><trkpt lat="43.207020198868335" lon="11.491947633750037"><ele>253.0</ele><time>2026-04-25T11:55:36.002Z</time></trkpt><trkpt lat="43.207097315997984" lon="11.492047623933637"><ele>253.0</ele><time>2026-04-25T11:55:37.002Z</time></trkpt><trkpt lat="43.20718740744808" lon="11.492139766260479"><ele>253.0</ele><time>2026-04-25T11:55:38.002Z</time></trkpt><trkpt lat="43.207288056609954" lon="11.492229521434847"><ele>253.0</ele><time>2026-04-25T11:55:39.002Z</time></trkpt><trkpt lat="43.207386088622975" lon="11.492320182902645"><ele>251.75</ele><time>2026-04-25T11:55:40.002Z</time></trkpt><trkpt lat="43.207481082229954" lon="11.492419786689695"><ele>250.5</ele><time>2026-04-25T11:55:41.002Z</time></trkpt><trkpt lat="43.20757287713976" lon="11.49251925297314"><ele>249.25</ele><time>2026-04-25T11:55:42.002Z</time></trkpt><trkpt lat="43.207665653801236" lon="11.4926179899927"><ele>248.0</ele><time>2026-04-25T11:55:43.002Z</time></trkpt><trkpt lat="43.20775726958653" lon="11.49271858879364"><ele>248.0</ele><time>2026-04-25T11:55:44.002Z</time></trkpt><trkpt lat="43.20785126738873" lon="11.492817754276633"><ele>248.0</ele><time>2026-04-25T11:55:45.002Z</time></trkpt><trkpt lat="43.20794820866393" lon="11.492909494437574"><ele>248.0</ele><time>2026-04-25T11:55:46.002Z</time></trkpt><trkpt lat="43.20803624593718" lon="11.493009445074783"><ele>248.0</ele><time>2026-04-25T11:55:47.002Z</time></trkpt><trkpt lat="43.2081234056834" lon="11.493089860802277"><ele>248.4</ele><time>2026-04-25T11:55:48.002Z</time></trkpt><trkpt lat="43.208206051617495" lon="11.493176324486694"><ele>248.8</ele><time>2026-04-25T11:55:49.002Z</time></trkpt><trkpt lat="43.208289963316105" lon="11.493253092609498"><ele>249.2</ele><time>2026-04-25T11:55:50.002Z</time></trkpt><trkpt lat="43.20837252094038" lon="11.493321651016167"><ele>249.6</ele><time>2026-04-25T11:55:51.002Z</time></trkpt><trkpt lat="43.2084578419608" lon="11.493385091828996"><ele>250.0</ele><time>2026-04-25T11:55:52.002Z</time></trkpt><trkpt lat="43.20854633906278" lon="11.493444236000675"><ele>249.99999999999997</ele><time>2026-04-25T11:55:53.002Z</time></trkpt><trkpt lat="43.20862815626174" lon="11.493499603618105"><ele>250.0</ele><time>2026-04-25T11:55:54.002Z</time></trkpt><trkpt lat="43.20869609079664" lon="11.493555817425431"><ele>250.0</ele><time>2026-04-25T11:55:55.002Z</time></trkpt><trkpt lat="43.20874849789531" lon="11.493616649635404"><ele>250.0</ele><time>2026-04-25T11:55:56.002Z</time></trkpt><trkpt lat="43.20879793244766" lon="11.493689262977368"><ele>249.99999999999997</ele><time>2026-04-25T11:55:57.002Z</time></trkpt><trkpt lat="43.20884544634323" lon="11.493770780860887"><ele>250.0</ele><time>2026-04-25T11:55:58.002Z</time></trkpt><trkpt lat="43.2088876356623" lon="11.493860499238384"><ele>251.49999999999997</ele><time>2026-04-25T11:55:59.002Z</time></trkpt><trkpt lat="43.20892735227901" lon="11.493950565080734"><ele>253.0</ele><time>2026-04-25T11:56:00.002Z</time></trkpt><trkpt lat="43.208967499867775" lon="11.494049545974589"><ele>254.5</ele><time>2026-04-25T11:56:01.002Z</time></trkpt><trkpt lat="43.20900399448081" lon="11.494151678908123"><ele>256.0</ele><time>2026-04-25T11:56:02.002Z</time></trkpt><trkpt lat="43.209038382704065" lon="11.49425393686384"><ele>257.5</ele><time>2026-04-25T11:56:03.002Z</time></trkpt><trkpt lat="43.209070858885944" lon="11.49436335102353"><ele>259.0</ele><time>2026-04-25T11:56:04.002Z</time></trkpt><trkpt lat="43.20910144603938" lon="11.494481825767332"><ele>259.3333333333333</ele><time>2026-04-25T11:56:05.002Z</time></trkpt><trkpt lat="43.20912842330724" lon="11.494591315823802"><ele>259.66666666666663</ele><time>2026-04-25T11:56:06.002Z</time></trkpt><trkpt lat="43.20915498364567" lon="11.494706463794635"><ele>260.0</ele><time>2026-04-25T11:56:07.002Z</time></trkpt><trkpt lat="43.20917658451404" lon="11.494818783089421"><ele>260.3333333333333</ele><time>2026-04-25T11:56:08.002Z</time></trkpt><trkpt lat="43.209188895723" lon="11.494928468374201"><ele>260.6666666666667</ele><time>2026-04-25T11:56:09.003Z</time></trkpt><trkpt lat="43.209196201848684" lon="11.495039552688045"><ele>261.0</ele><time>2026-04-25T11:56:10.003Z</time></trkpt><trkpt lat="43.20921342496518" lon="11.495171484253875"><ele>261.0</ele><time>2026-04-25T11:56:11.003Z</time></trkpt><trkpt lat="43.209225167744314" lon="11.495296392930001"><ele>261.0</ele><time>2026-04-25T11:56:12.003Z</time></trkpt><trkpt lat="43.20924277662622" lon="11.495398838885981"><ele>261.0</ele><time>2026-04-25T11:56:13.003Z</time></trkpt><trkpt lat="43.20927608299305" lon="11.495488182296654"><ele>261.0</ele><time>2026-04-25T11:56:14.003Z</time></trkpt><trkpt lat="43.209315559565454" lon="11.495585075647043"><ele>261.0</ele><time>2026-04-25T11:56:15.003Z</time></trkpt><trkpt lat="43.20936457539085" lon="11.495691369842467"><ele>261.0</ele><time>2026-04-25T11:56:16.003Z</time></trkpt><trkpt lat="43.209405325186744" lon="11.495807221012704"><ele>261.3333333333333</ele><time>2026-04-25T11:56:17.003Z</time></trkpt><trkpt lat="43.209441336533885" lon="11.49592669315134"><ele>261.6666666666667</ele><time>2026-04-25T11:56:18.003Z</time></trkpt><trkpt lat="43.20947680822055" lon="11.496038076705325"><ele>262.0</ele><time>2026-04-25T11:56:19.003Z</time></trkpt><trkpt lat="43.209508685987" lon="11.496148115674217"><ele>262.33333333333337</ele><time>2026-04-25T11:56:20.003Z</time></trkpt><trkpt lat="43.20954371553979" lon="11.496253941633098"><ele>262.6666666666667</ele><time>2026-04-25T11:56:21.003Z</time></trkpt><trkpt lat="43.209585240008956" lon="11.496357791724874"><ele>263.0</ele><time>2026-04-25T11:56:22.003Z</time></trkpt><trkpt lat="43.20963387686768" lon="11.496457777050766"><ele>263.4</ele><time>2026-04-25T11:56:23.003Z</time></trkpt><trkpt lat="43.20969434232665" lon="11.496552018956416"><ele>263.8</ele><time>2026-04-25T11:56:24.003Z</time></trkpt><trkpt lat="43.2097586314831" lon="11.496645882425069"><ele>264.2</ele><time>2026-04-25T11:56:25.003Z</time></trkpt><trkpt lat="43.20983671873997" lon="11.496729353531547"><ele>264.6</ele><time>2026-04-25T11:56:26.003Z</time></trkpt><trkpt lat="43.20991912163647" lon="11.496797462137911"><ele>265.0</ele><time>2026-04-25T11:56:27.003Z</time></trkpt><trkpt lat="43.21000111981324" lon="11.496853739135304"><ele>265.0</ele><time>2026-04-25T11:56:28.003Z</time></trkpt><trkpt lat="43.21008169724504" lon="11.496911725394105"><ele>265.0</ele><time>2026-04-25T11:56:29.003Z</time></trkpt><trkpt lat="43.21016309129229" lon="11.496971634780355"><ele>265.0</ele><time>2026-04-25T11:56:30.003Z</time></trkpt><trkpt lat="43.21023457329733" lon="11.497027954270338"><ele>265.0</ele><time>2026-04-25T11:56:31.003Z</time></trkpt><trkpt lat="43.21031438784252" lon="11.497086930194362"><ele>265.0</ele><time>2026-04-25T11:56:32.003Z</time></trkpt><trkpt lat="43.21039019255083" lon="11.497147325112378"><ele>265.0</ele><time>2026-04-25T11:56:33.003Z</time></trkpt><trkpt lat="43.21047206716207" lon="11.497210736421017"><ele>264.8</ele><time>2026-04-25T11:56:34.003Z</time></trkpt><trkpt lat="43.21055680757964" lon="11.49727709064841"><ele>264.6</ele><time>2026-04-25T11:56:35.003Z</time></trkpt><trkpt lat="43.21063509655348" lon="11.497341262500054"><ele>264.4</ele><time>2026-04-25T11:56:35.998Z</time></trkpt><trkpt lat="43.21070655729928" lon="11.497417736292626"><ele>264.2</ele><time>2026-04-25T11:56:36.998Z</time></trkpt><trkpt lat="43.21076490896309" lon="11.497505526660035"><ele>264.0</ele><time>2026-04-25T11:56:37.998Z</time></trkpt><trkpt lat="43.21080920205243" lon="11.497605908060523"><ele>264.0</ele><time>2026-04-25T11:56:38.998Z</time></trkpt><trkpt lat="43.21084013128271" lon="11.497716826475118"><ele>264.0</ele><time>2026-04-25T11:56:39.998Z</time></trkpt><trkpt lat="43.2108553552743" lon="11.497825075759465"><ele>264.0</ele><time>2026-04-25T11:56:40.999Z</time></trkpt><trkpt lat="43.210873563175525" lon="11.497940219210578"><ele>264.0</ele><time>2026-04-25T11:56:41.999Z</time></trkpt><trkpt lat="43.21089256575262" lon="11.498063305925413"><ele>264.0</ele><time>2026-04-25T11:56:42.999Z</time></trkpt><trkpt lat="43.21091084763596" lon="11.498186064989758"><ele>264.0</ele><time>2026-04-25T11:56:43.999Z</time></trkpt><trkpt lat="43.21093135631962" lon="11.498298155267436"><ele>263.1666666666667</ele><time>2026-04-25T11:56:44.999Z</time></trkpt><trkpt lat="43.21096363810743" lon="11.498399103901711"><ele>262.3333333333333</ele><time>2026-04-25T11:56:45.999Z</time></trkpt><trkpt lat="43.21101343886459" lon="11.498488999773992"><ele>261.5</ele><time>2026-04-25T11:56:46.999Z</time></trkpt><trkpt lat="43.211081491919536" lon="11.498561321576476"><ele>260.66666666666663</ele><time>2026-04-25T11:56:47.999Z</time></trkpt><trkpt lat="43.21115584322766" lon="11.498612377563099"><ele>259.8333333333333</ele><time>2026-04-25T11:56:48.999Z</time></trkpt><trkpt lat="43.211235530307704" lon="11.498643316925076"><ele>259.0</ele><time>2026-04-25T11:56:49.999Z</time></trkpt><trkpt lat="43.211313693679784" lon="11.498660151812384"><ele>259.0</ele><time>2026-04-25T11:56:50.999Z</time></trkpt><trkpt lat="43.21139245226149" lon="11.498661848673882"><ele>259.0</ele><time>2026-04-25T11:56:51.999Z</time></trkpt><trkpt lat="43.21147054447693" lon="11.498654836056476"><ele>259.0</ele><time>2026-04-25T11:56:52.999Z</time></trkpt><trkpt lat="43.21155532788166" lon="11.498632484684206"><ele>259.0</ele><time>2026-04-25T11:56:53.999Z</time></trkpt><trkpt lat="43.21162774915752" lon="11.498613358836568"><ele>259.0</ele><time>2026-04-25T11:56:54.999Z</time></trkpt><trkpt lat="43.21171339936989" lon="11.498583741232746"><ele>259.0</ele><time>2026-04-25T11:56:56Z</time></trkpt><trkpt lat="43.211781063313104" lon="11.49856125796904"><ele>257.5</ele><time>2026-04-25T11:56:57Z</time></trkpt><trkpt lat="43.211890072507785" lon="11.498541978528847"><ele>256.0</ele><time>2026-04-25T11:56:59Z</time></trkpt><trkpt lat="43.21200230398827" lon="11.498615310882519"><ele>254.5</ele><time>2026-04-25T11:57:01Z</time></trkpt><trkpt lat="43.21205122736933" lon="11.498682905770318"><ele>253.0</ele><time>2026-04-25T11:57:02Z</time></trkpt><trkpt lat="43.212092885635" lon="11.49875616455665"><ele>251.49999999999997</ele><time>2026-04-25T11:57:03Z</time></trkpt><trkpt lat="43.21213490861882" lon="11.498838907514724"><ele>250.0</ele><time>2026-04-25T11:57:04Z</time></trkpt><trkpt lat="43.21216873770861" lon="11.498929185589299"><ele>248.99999999999997</ele><time>2026-04-25T11:57:05Z</time></trkpt><trkpt lat="43.21218516752005" lon="11.499013275806078"><ele>248.0</ele><time>2026-04-25T11:57:06Z</time></trkpt><trkpt lat="43.212192478050255" lon="11.49910028760475"><ele>247.0</ele><time>2026-04-25T11:57:07Z</time></trkpt><trkpt lat="43.21219227965538" lon="11.49918780501535"><ele>246.0</ele><time>2026-04-25T11:57:08Z</time></trkpt><trkpt lat="43.21216250722486" lon="11.499354538370845"><ele>244.99999999999997</ele><time>2026-04-25T11:57:10Z</time></trkpt><trkpt lat="43.212098422381516" lon="11.499488286559933"><ele>244.0</ele><time>2026-04-25T11:57:12Z</time></trkpt><trkpt lat="43.21199048848801" lon="11.499572453975425"><ele>241.83333333333331</ele><time>2026-04-25T11:57:14Z</time></trkpt><trkpt lat="43.211902993758805" lon="11.49960693685116"><ele>239.66666666666666</ele><time>2026-04-25T11:57:15.001Z</time></trkpt><trkpt lat="43.21180737252762" lon="11.49964059224162"><ele>237.5</ele><time>2026-04-25T11:57:16.001Z</time></trkpt><trkpt lat="43.21172011689306" lon="11.499673614247776"><ele>235.33333333333331</ele><time>2026-04-25T11:57:17.001Z</time></trkpt><trkpt lat="43.21164435106464" lon="11.499723589196561"><ele>233.16666666666666</ele><time>2026-04-25T11:57:18.001Z</time></trkpt><trkpt lat="43.211592597178885" lon="11.499790754972"><ele>231.0</ele><time>2026-04-25T11:57:19.001Z</time></trkpt><trkpt lat="43.21156004456229" lon="11.499881698468071"><ele>231.0</ele><time>2026-04-25T11:57:20.001Z</time></trkpt><trkpt lat="43.21153440336264" lon="11.499993304518753"><ele>231.00000000000003</ele><time>2026-04-25T11:57:21.001Z</time></trkpt><trkpt lat="43.21151352910192" lon="11.500108621266486"><ele>231.00000000000003</ele><time>2026-04-25T11:57:22.001Z</time></trkpt><trkpt lat="43.21149100641116" lon="11.500236477266197"><ele>231.0</ele><time>2026-04-25T11:57:23.001Z</time></trkpt><trkpt lat="43.211462592045024" lon="11.50037445511205"><ele>231.0</ele><time>2026-04-25T11:57:24.001Z</time></trkpt><trkpt lat="43.21143577901088" lon="11.50050953012818"><ele>229.0</ele><time>2026-04-25T11:57:25.001Z</time></trkpt><trkpt lat="43.211411603156726" lon="11.500636066478705"><ele>227.0</ele><time>2026-04-25T11:57:26.001Z</time></trkpt><trkpt lat="43.21138882768546" lon="11.500747039509543"><ele>225.0</ele><time>2026-04-25T11:57:27.001Z</time></trkpt><trkpt lat="43.21135081640003" lon="11.500869633780335"><ele>223.0</ele><time>2026-04-25T11:57:28.001Z</time></trkpt><trkpt lat="43.211310916366564" lon="11.500937041574417"><ele>221.0</ele><time>2026-04-25T11:57:29.001Z</time></trkpt><trkpt lat="43.21125735845938" lon="11.501000875004681"><ele>219.0</ele><time>2026-04-25T11:57:30.001Z</time></trkpt><trkpt lat="43.211187324907854" lon="11.501056056118129"><ele>219.0</ele><time>2026-04-25T11:57:31.001Z</time></trkpt><trkpt lat="43.2111047798474" lon="11.501097080910583"><ele>218.99999999999997</ele><time>2026-04-25T11:57:32.001Z</time></trkpt><trkpt lat="43.21101450273684" lon="11.501127325888888"><ele>218.99999999999997</ele><time>2026-04-25T11:57:33.001Z</time></trkpt><trkpt lat="43.21092531481328" lon="11.501173262539565"><ele>219.0</ele><time>2026-04-25T11:57:34.001Z</time></trkpt><trkpt lat="43.21082881116924" lon="11.501249837614468"><ele>219.0</ele><time>2026-04-25T11:57:35.001Z</time></trkpt><trkpt lat="43.21073808203528" lon="11.501344671881625"><ele>219.2</ele><time>2026-04-25T11:57:36.001Z</time></trkpt><trkpt lat="43.21066270228066" lon="11.501444914067978"><ele>219.39999999999998</ele><time>2026-04-25T11:57:37.001Z</time></trkpt><trkpt lat="43.21059374174516" lon="11.501550941236646"><ele>219.6</ele><time>2026-04-25T11:57:38.001Z</time></trkpt><trkpt lat="43.21054338750173" lon="11.501665732710665"><ele>219.8</ele><time>2026-04-25T11:57:39.001Z</time></trkpt><trkpt lat="43.21050233406559" lon="11.501794487834923"><ele>220.0</ele><time>2026-04-25T11:57:40.001Z</time></trkpt><trkpt lat="43.210467990058085" lon="11.5019274499509"><ele>219.99999999999997</ele><time>2026-04-25T11:57:41.001Z</time></trkpt><trkpt lat="43.210427257995796" lon="11.5020654183622"><ele>220.0</ele><time>2026-04-25T11:57:42.001Z</time></trkpt><trkpt lat="43.21038790530763" lon="11.502181861909639"><ele>220.0</ele><time>2026-04-25T11:57:43.002Z</time></trkpt><trkpt lat="43.21034457416736" lon="11.502275587043755"><ele>220.0</ele><time>2026-04-25T11:57:44.002Z</time></trkpt><trkpt lat="43.210294221680066" lon="11.502354009845162"><ele>219.99999999999997</ele><time>2026-04-25T11:57:45.002Z</time></trkpt><trkpt lat="43.21023020539929" lon="11.502415618091574"><ele>220.0</ele><time>2026-04-25T11:57:46.002Z</time></trkpt><trkpt lat="43.21015542458279" lon="11.502477145023851"><ele>220.6</ele><time>2026-04-25T11:57:47.002Z</time></trkpt><trkpt lat="43.21008143894433" lon="11.502547679283543"><ele>221.2</ele><time>2026-04-25T11:57:48.002Z</time></trkpt><trkpt lat="43.21000743573724" lon="11.502619635344042"><ele>221.8</ele><time>2026-04-25T11:57:49.002Z</time></trkpt><trkpt lat="43.209931249187505" lon="11.502694088403311"><ele>222.4</ele><time>2026-04-25T11:57:50.002Z</time></trkpt><trkpt lat="43.20985450379306" lon="11.502771370194754"><ele>223.0</ele><time>2026-04-25T11:57:51.002Z</time></trkpt><trkpt lat="43.20977796218149" lon="11.502847894420773"><ele>222.2</ele><time>2026-04-25T11:57:52.002Z</time></trkpt><trkpt lat="43.209701393509505" lon="11.502928695215012"><ele>221.4</ele><time>2026-04-25T11:57:53.002Z</time></trkpt><trkpt lat="43.209630177107606" lon="11.503009535098384"><ele>220.59999999999997</ele><time>2026-04-25T11:57:54.002Z</time></trkpt><trkpt lat="43.20955552520854" lon="11.503092457051993"><ele>219.79999999999998</ele><time>2026-04-25T11:57:55.002Z</time></trkpt><trkpt lat="43.20947875404314" lon="11.503174179088978"><ele>219.0</ele><time>2026-04-25T11:57:56.002Z</time></trkpt><trkpt lat="43.20940341406464" lon="11.503255413725944"><ele>219.0</ele><time>2026-04-25T11:57:57.002Z</time></trkpt><trkpt lat="43.20932908044073" lon="11.503345516021799"><ele>218.99999999999997</ele><time>2026-04-25T11:57:58.002Z</time></trkpt><trkpt lat="43.20926034413006" lon="11.503438768136053"><ele>218.99999999999997</ele><time>2026-04-25T11:57:59.002Z</time></trkpt><trkpt lat="43.209197509558734" lon="11.503539598047567"><ele>219.0</ele><time>2026-04-25T11:58:00.002Z</time></trkpt><trkpt lat="43.20913847979796" lon="11.503646667362064"><ele>219.0</ele><time>2026-04-25T11:58:01.002Z</time></trkpt><trkpt lat="43.20907969418918" lon="11.503764812218686"><ele>216.79999999999998</ele><time>2026-04-25T11:58:02.002Z</time></trkpt><trkpt lat="43.20901474980264" lon="11.503884447217773"><ele>214.59999999999997</ele><time>2026-04-25T11:58:03.002Z</time></trkpt><trkpt lat="43.20895147944817" lon="11.5039995854557"><ele>212.4</ele><time>2026-04-25T11:58:04.002Z</time></trkpt><trkpt lat="43.208886606086345" lon="11.504110164117744"><ele>210.2</ele><time>2026-04-25T11:58:05.002Z</time></trkpt><trkpt lat="43.208821628509256" lon="11.504215171936384"><ele>208.0</ele><time>2026-04-25T11:58:06.002Z</time></trkpt><trkpt lat="43.20876082331747" lon="11.504305566549027"><ele>207.99999999999997</ele><time>2026-04-25T11:58:07.002Z</time></trkpt><trkpt lat="43.20870551454746" lon="11.50438782085933"><ele>208.0</ele><time>2026-04-25T11:58:08.002Z</time></trkpt><trkpt lat="43.208645839314805" lon="11.504464124671255"><ele>208.0</ele><time>2026-04-25T11:58:09.002Z</time></trkpt><trkpt lat="43.20857483922746" lon="11.504519703933644"><ele>208.0</ele><time>2026-04-25T11:58:10.002Z</time></trkpt><trkpt lat="43.20849537823922" lon="11.504550546126636"><ele>207.99999999999997</ele><time>2026-04-25T11:58:11.002Z</time></trkpt><trkpt lat="43.208415605307174" lon="11.504568046612146"><ele>208.0</ele><time>2026-04-25T11:58:12.002Z</time></trkpt><trkpt lat="43.20832500696582" lon="11.504582277612196"><ele>204.8</ele><time>2026-04-25T11:58:13.002Z</time></trkpt><trkpt lat="43.20821906577884" lon="11.504592261308987"><ele>201.60000000000002</ele><time>2026-04-25T11:58:14.002Z</time></trkpt><trkpt lat="43.20811354261661" lon="11.504596955704262"><ele>198.39999999999998</ele><time>2026-04-25T11:58:15.002Z</time></trkpt><trkpt lat="43.20802055900585" lon="11.504597143050875"><ele>195.2</ele><time>2026-04-25T11:58:16.003Z</time></trkpt><trkpt lat="43.20793592119566" lon="11.504578814497343"><ele>192.0</ele><time>2026-04-25T11:58:17.003Z</time></trkpt><trkpt lat="43.20785815576701" lon="11.504549929402664"><ele>192.0</ele><time>2026-04-25T11:58:18.003Z</time></trkpt><trkpt lat="43.20775919440123" lon="11.504533419462081"><ele>192.0</ele><time>2026-04-25T11:58:20.003Z</time></trkpt><trkpt lat="43.207710904282784" lon="11.504624987787238"><ele>192.0</ele><time>2026-04-25T11:58:22.003Z</time></trkpt><trkpt lat="43.20773990115065" lon="11.504718758965735"><ele>192.0</ele><time>2026-04-25T11:58:24.003Z</time></trkpt><trkpt lat="43.207804935205" lon="11.504760236518754"><ele>192.0</ele><time>2026-04-25T11:58:26.003Z</time></trkpt><trkpt lat="43.20794733439104" lon="11.504811405528693"><ele>192.0</ele><time>2026-04-25T11:58:28.003Z</time></trkpt><trkpt lat="43.20806629233143" lon="11.504864225436537"><ele>192.0</ele><time>2026-04-25T11:58:29.003Z</time></trkpt><trkpt lat="43.20819173375157" lon="11.50492873099451"><ele>192.0</ele><time>2026-04-25T11:58:30.003Z</time></trkpt><trkpt lat="43.208297584067154" lon="11.504993038773408"><ele>192.0</ele><time>2026-04-25T11:58:31.003Z</time></trkpt><trkpt lat="43.20838815750804" lon="11.50504740354343"><ele>192.0</ele><time>2026-04-25T11:58:32.003Z</time></trkpt><trkpt lat="43.20847621697352" lon="11.505084243005285"><ele>192.0</ele><time>2026-04-25T11:58:33.003Z</time></trkpt><trkpt lat="43.20856814076842" lon="11.505098314064268"><ele>192.0</ele><time>2026-04-25T11:58:34.003Z</time></trkpt><trkpt lat="43.20865639358104" lon="11.505101618677253"><ele>192.0</ele><time>2026-04-25T11:58:35.003Z</time></trkpt><trkpt lat="43.20874228213583" lon="11.505111753400726"><ele>192.0</ele><time>2026-04-25T11:58:36.003Z</time></trkpt><trkpt lat="43.20883021583025" lon="11.505127150551944"><ele>192.0</ele><time>2026-04-25T11:58:37.003Z</time></trkpt><trkpt lat="43.20890418773994" lon="11.50514225451747"><ele>191.99999999999997</ele><time>2026-04-25T11:58:38.003Z</time></trkpt><trkpt lat="43.20896959006139" lon="11.505151984771413"><ele>192.0</ele><time>2026-04-25T11:58:39.003Z</time></trkpt><trkpt lat="43.20903568368054" lon="11.505147216623191"><ele>192.0</ele><time>2026-04-25T11:58:40.003Z</time></trkpt><trkpt lat="43.20910154887336" lon="11.505116918273732"><ele>192.0</ele><time>2026-04-25T11:58:41.003Z</time></trkpt><trkpt lat="43.20917143420053" lon="11.505069563995047"><ele>192.0</ele><time>2026-04-25T11:58:41.998Z</time></trkpt><trkpt lat="43.209235880538955" lon="11.50501720536367"><ele>191.99999999999997</ele><time>2026-04-25T11:58:42.998Z</time></trkpt><trkpt lat="43.209295496961175" lon="11.504966734040245"><ele>192.0</ele><time>2026-04-25T11:58:43.998Z</time></trkpt><trkpt lat="43.209355540209465" lon="11.504925594541708"><ele>190.83333333333334</ele><time>2026-04-25T11:58:44.998Z</time></trkpt><trkpt lat="43.20947052430076" lon="11.504881954757233"><ele>189.66666666666666</ele><time>2026-04-25T11:58:46.998Z</time></trkpt><trkpt lat="43.20953411693131" lon="11.504873177043201"><ele>188.5</ele><time>2026-04-25T11:58:47.998Z</time></trkpt><trkpt lat="43.209603810710306" lon="11.504876458061334"><ele>187.33333333333331</ele><time>2026-04-25T11:58:48.999Z</time></trkpt><trkpt lat="43.209669818325494" lon="11.504897733888372"><ele>186.16666666666666</ele><time>2026-04-25T11:58:49.999Z</time></trkpt><trkpt lat="43.20973756193491" lon="11.504936767020062"><ele>185.0</ele><time>2026-04-25T11:58:50.999Z</time></trkpt><trkpt lat="43.209797932214116" lon="11.504987515514193"><ele>183.4</ele><time>2026-04-25T11:58:51.999Z</time></trkpt><trkpt lat="43.20984953595375" lon="11.505046478385673"><ele>181.8</ele><time>2026-04-25T11:58:52.999Z</time></trkpt><trkpt lat="43.20994632151595" lon="11.505153704816214"><ele>180.2</ele><time>2026-04-25T11:58:54.999Z</time></trkpt><trkpt lat="43.2100382029032" lon="11.505247640524159"><ele>178.6</ele><time>2026-04-25T11:58:56.999Z</time></trkpt><trkpt lat="43.21011672717487" lon="11.505306648177909"><ele>177.0</ele><time>2026-04-25T11:58:58.999Z</time></trkpt><trkpt lat="43.21023883991753" lon="11.505354010273855"><ele>177.0</ele><time>2026-04-25T11:59:01Z</time></trkpt><trkpt lat="43.21030394351265" lon="11.505381519104581"><ele>177.0</ele><time>2026-04-25T11:59:02Z</time></trkpt><trkpt lat="43.21036908290451" lon="11.505406232159089"><ele>177.0</ele><time>2026-04-25T11:59:03Z</time></trkpt><trkpt lat="43.210432219502046" lon="11.505424338107623"><ele>177.0</ele><time>2026-04-25T11:59:04Z</time></trkpt><trkpt lat="43.21049703010733" lon="11.50543995019029"><ele>177.0</ele><time>2026-04-25T11:59:05Z</time></trkpt><trkpt lat="43.21057076694034" lon="11.505447240190158"><ele>177.0</ele><time>2026-04-25T11:59:06Z</time></trkpt><trkpt lat="43.210655939780764" lon="11.505440025896453"><ele>177.0</ele><time>2026-04-25T11:59:07Z</time></trkpt><trkpt lat="43.210744319124395" lon="11.505419814587722"><ele>176.5</ele><time>2026-04-25T11:59:08Z</time></trkpt><trkpt lat="43.2108489520083" lon="11.50538400939973"><ele>176.0</ele><time>2026-04-25T11:59:09Z</time></trkpt><trkpt lat="43.210950478632405" lon="11.505351848757437"><ele>175.5</ele><time>2026-04-25T11:59:10Z</time></trkpt><trkpt lat="43.21103426848764" lon="11.505327394125562"><ele>175.0</ele><time>2026-04-25T11:59:11Z</time></trkpt><trkpt lat="43.21110236264491" lon="11.505317926431049"><ele>174.5</ele><time>2026-04-25T11:59:12Z</time></trkpt><trkpt lat="43.2111679259567" lon="11.505328380074792"><ele>174.0</ele><time>2026-04-25T11:59:13Z</time></trkpt><trkpt lat="43.21122982342914" lon="11.50536248713089"><ele>172.33333333333334</ele><time>2026-04-25T11:59:14Z</time></trkpt><trkpt lat="43.21128810031966" lon="11.505427180803549"><ele>170.66666666666666</ele><time>2026-04-25T11:59:15Z</time></trkpt><trkpt lat="43.21134251983199" lon="11.505511235152547"><ele>169.0</ele><time>2026-04-25T11:59:16Z</time></trkpt><trkpt lat="43.21138174536297" lon="11.505608566433859"><ele>167.33333333333331</ele><time>2026-04-25T11:59:17.001Z</time></trkpt><trkpt lat="43.21141825752058" lon="11.505710878671787"><ele>165.66666666666666</ele><time>2026-04-25T11:59:18.001Z</time></trkpt><trkpt lat="43.211454885313444" lon="11.505814607875188"><ele>164.0</ele><time>2026-04-25T11:59:19.001Z</time></trkpt><trkpt lat="43.21148676442773" lon="11.505916403234568"><ele>164.16666666666666</ele><time>2026-04-25T11:59:20.001Z</time></trkpt><trkpt lat="43.21151623167664" lon="11.506027850341994"><ele>164.33333333333331</ele><time>2026-04-25T11:59:21.001Z</time></trkpt><trkpt lat="43.21154592023499" lon="11.506134588743063"><ele>164.5</ele><time>2026-04-25T11:59:22.001Z</time></trkpt><trkpt lat="43.211574641698974" lon="11.506239105313744"><ele>164.66666666666666</ele><time>2026-04-25T11:59:23.001Z</time></trkpt><trkpt lat="43.211606278168176" lon="11.506342702966915"><ele>164.83333333333334</ele><time>2026-04-25T11:59:24.001Z</time></trkpt><trkpt lat="43.211635808729405" lon="11.506438458381965"><ele>165.0</ele><time>2026-04-25T11:59:25.001Z</time></trkpt><trkpt lat="43.21166153438317" lon="11.506526145342322"><ele>165.0</ele><time>2026-04-25T11:59:26.001Z</time></trkpt><trkpt lat="43.21168817061789" lon="11.506621271652495"><ele>165.0</ele><time>2026-04-25T11:59:27.001Z</time></trkpt><trkpt lat="43.211720941284604" lon="11.506740668735345"><ele>165.0</ele><time>2026-04-25T11:59:28.001Z</time></trkpt><trkpt lat="43.211766426855846" lon="11.506909563421692"><ele>165.0</ele><time>2026-04-25T11:59:29.001Z</time></trkpt><trkpt lat="43.211815864520425" lon="11.507097045505743"><ele>165.0</ele><time>2026-04-25T11:59:30.001Z</time></trkpt><trkpt lat="43.211857364364484" lon="11.507240383907329"><ele>164.83333333333334</ele><time>2026-04-25T11:59:31.001Z</time></trkpt><trkpt lat="43.21188883489205" lon="11.507352935227928"><ele>164.66666666666666</ele><time>2026-04-25T11:59:32.001Z</time></trkpt><trkpt lat="43.211917810349384" lon="11.507447546627843"><ele>164.5</ele><time>2026-04-25T11:59:33.001Z</time></trkpt><trkpt lat="43.21195130830314" lon="11.507540361697103"><ele>164.33333333333331</ele><time>2026-04-25T11:59:34.001Z</time></trkpt><trkpt lat="43.212000271672885" lon="11.50762681624559"><ele>164.16666666666666</ele><time>2026-04-25T11:59:35.001Z</time></trkpt><trkpt lat="43.21207140634765" lon="11.50770155752872"><ele>164.0</ele><time>2026-04-25T11:59:36.001Z</time></trkpt><trkpt lat="43.21215295343953" lon="11.507758993641245"><ele>164.0</ele><time>2026-04-25T11:59:37.001Z</time></trkpt><trkpt lat="43.2122571200046" lon="11.507812634745383"><ele>164.0</ele><time>2026-04-25T11:59:38.001Z</time></trkpt><trkpt lat="43.21235692421672" lon="11.507859310106166"><ele>164.0</ele><time>2026-04-25T11:59:39.001Z</time></trkpt><trkpt lat="43.212444029643216" lon="11.507920032326712"><ele>164.0</ele><time>2026-04-25T11:59:40.001Z</time></trkpt><trkpt lat="43.2125176438101" lon="11.50800312563889"><ele>164.0</ele><time>2026-04-25T11:59:41.001Z</time></trkpt><trkpt lat="43.212586018810725" lon="11.508104980510621"><ele>163.5</ele><time>2026-04-25T11:59:42.001Z</time></trkpt><trkpt lat="43.2126493949969" lon="11.508243582434107"><ele>163.0</ele><time>2026-04-25T11:59:43.002Z</time></trkpt><trkpt lat="43.21272503054653" lon="11.508414622956288"><ele>162.5</ele><time>2026-04-25T11:59:44.002Z</time></trkpt><trkpt lat="43.21280409376944" lon="11.508597093670767"><ele>162.0</ele><time>2026-04-25T11:59:45.002Z</time></trkpt><trkpt lat="43.212883726075" lon="11.508774089983921"><ele>161.75</ele><time>2026-04-25T11:59:46.002Z</time></trkpt><trkpt lat="43.21297144427194" lon="11.50895191402817"><ele>161.5</ele><time>2026-04-25T11:59:47.002Z</time></trkpt><trkpt lat="43.21305513296941" lon="11.509119831718841"><ele>161.25</ele><time>2026-04-25T11:59:48.002Z</time></trkpt><trkpt lat="43.21312718729643" lon="11.509271868652574"><ele>161.0</ele><time>2026-04-25T11:59:49.002Z</time></trkpt><trkpt lat="43.21319407785597" lon="11.509417200454935"><ele>161.4</ele><time>2026-04-25T11:59:50.002Z</time></trkpt><trkpt lat="43.21325563130083" lon="11.509530615350165"><ele>161.8</ele><time>2026-04-25T11:59:51.002Z</time></trkpt><trkpt lat="43.213328025229565" lon="11.509630180409696"><ele>162.20000000000002</ele><time>2026-04-25T11:59:52.002Z</time></trkpt><trkpt lat="43.21341359607413" lon="11.509727612290224"><ele>162.60000000000002</ele><time>2026-04-25T11:59:53.002Z</time></trkpt><trkpt lat="43.213511472432046" lon="11.509836009446541"><ele>163.0</ele><time>2026-04-25T11:59:54.002Z</time></trkpt><trkpt lat="43.21363135455429" lon="11.509969241613256"><ele>163.0</ele><time>2026-04-25T11:59:55.002Z</time></trkpt><trkpt lat="43.213732677183756" lon="11.510092836438615"><ele>163.0</ele><time>2026-04-25T11:59:56.002Z</time></trkpt><trkpt lat="43.21382476169995" lon="11.510236683567403"><ele>163.0</ele><time>2026-04-25T11:59:57.002Z</time></trkpt><trkpt lat="43.21390913428171" lon="11.510379102804068"><ele>163.0</ele><time>2026-04-25T11:59:58.002Z</time></trkpt><trkpt lat="43.21398992078412" lon="11.510525105392741"><ele>163.25</ele><time>2026-04-25T11:59:59.002Z</time></trkpt><trkpt lat="43.21406552428092" lon="11.510672770015724"><ele>163.5</ele><time>2026-04-25T12:00:00.002Z</time></trkpt><trkpt lat="43.214132798953564" lon="11.510802468755191"><ele>163.75</ele><time>2026-04-25T12:00:01.002Z</time></trkpt><trkpt lat="43.214189095823684" lon="11.510918867764849"><ele>164.0</ele><time>2026-04-25T12:00:02.002Z</time></trkpt><trkpt lat="43.21423472170531" lon="11.511043646044058"><ele>164.0</ele><time>2026-04-25T12:00:03.002Z</time></trkpt><trkpt lat="43.214254392014915" lon="11.51117043735195"><ele>164.0</ele><time>2026-04-25T12:00:04.002Z</time></trkpt><trkpt lat="43.21424775786178" lon="11.511291782093654"><ele>164.0</ele><time>2026-04-25T12:00:05.002Z</time></trkpt><trkpt lat="43.214222946983725" lon="11.511435162709144"><ele>164.0</ele><time>2026-04-25T12:00:06.002Z</time></trkpt><trkpt lat="43.21418968828687" lon="11.511589269049036"><ele>164.0</ele><time>2026-04-25T12:00:07.002Z</time></trkpt><trkpt lat="43.214164945616176" lon="11.511722822687346"><ele>164.39999999999998</ele><time>2026-04-25T12:00:08.002Z</time></trkpt><trkpt lat="43.21416634457551" lon="11.511840381229694"><ele>164.8</ele><time>2026-04-25T12:00:09.002Z</time></trkpt><trkpt lat="43.21419267295213" lon="11.511948205262499"><ele>165.2</ele><time>2026-04-25T12:00:10.002Z</time></trkpt><trkpt lat="43.214233924935776" lon="11.512065463821893"><ele>165.60000000000002</ele><time>2026-04-25T12:00:11.002Z</time></trkpt><trkpt lat="43.21428642361292" lon="11.512185563745938"><ele>166.0</ele><time>2026-04-25T12:00:12.002Z</time></trkpt><trkpt lat="43.21435007517512" lon="11.51228041875506"><ele>166.5</ele><time>2026-04-25T12:00:13.002Z</time></trkpt><trkpt lat="43.21443143564957" lon="11.512366718785682"><ele>167.0</ele><time>2026-04-25T12:00:14.002Z</time></trkpt><trkpt lat="43.21452904854483" lon="11.51244894002113"><ele>167.5</ele><time>2026-04-25T12:00:15.003Z</time></trkpt><trkpt lat="43.21463172313651" lon="11.512540168628464"><ele>168.0</ele><time>2026-04-25T12:00:16.003Z</time></trkpt><trkpt lat="43.214845450175346" lon="11.512741591701866"><ele>170.5</ele><time>2026-04-25T12:00:18.003Z</time></trkpt><trkpt lat="43.21496351154101" lon="11.512858326751127"><ele>173.0</ele><time>2026-04-25T12:00:19.003Z</time></trkpt><trkpt lat="43.21506601595098" lon="11.512962545874222"><ele>175.5</ele><time>2026-04-25T12:00:20.003Z</time></trkpt><trkpt lat="43.21516054382804" lon="11.513066566791824"><ele>178.0</ele><time>2026-04-25T12:00:21.003Z</time></trkpt><trkpt lat="43.215249659124225" lon="11.513177756846616"><ele>178.4</ele><time>2026-04-25T12:00:22.003Z</time></trkpt><trkpt lat="43.21532595520787" lon="11.513289827964249"><ele>178.8</ele><time>2026-04-25T12:00:23.003Z</time></trkpt><trkpt lat="43.21538937003906" lon="11.513409290527717"><ele>179.2</ele><time>2026-04-25T12:00:24.003Z</time></trkpt><trkpt lat="43.215433485501386" lon="11.513536965516025"><ele>179.6</ele><time>2026-04-25T12:00:25.003Z</time></trkpt><trkpt lat="43.21546870636969" lon="11.513674154668797"><ele>180.0</ele><time>2026-04-25T12:00:26.003Z</time></trkpt><trkpt lat="43.215492643003714" lon="11.513822691368299"><ele>180.4</ele><time>2026-04-25T12:00:27.003Z</time></trkpt><trkpt lat="43.21550888537691" lon="11.513956977554034"><ele>180.8</ele><time>2026-04-25T12:00:28.003Z</time></trkpt><trkpt lat="43.21552725230088" lon="11.514084250885128"><ele>181.2</ele><time>2026-04-25T12:00:29.003Z</time></trkpt><trkpt lat="43.215557088116476" lon="11.514206301061078"><ele>181.6</ele><time>2026-04-25T12:00:30.003Z</time></trkpt><trkpt lat="43.215598752290674" lon="11.51433246182791"><ele>182.0</ele><time>2026-04-25T12:00:31.003Z</time></trkpt><trkpt lat="43.215644246401624" lon="11.51445821282442"><ele>180.0</ele><time>2026-04-25T12:00:32.003Z</time></trkpt><trkpt lat="43.215691743487454" lon="11.51459300234419"><ele>178.0</ele><time>2026-04-25T12:00:33.003Z</time></trkpt><trkpt lat="43.21574322348439" lon="11.514732085358496"><ele>176.0</ele><time>2026-04-25T12:00:34.003Z</time></trkpt><trkpt lat="43.21579156297083" lon="11.514876089402781"><ele>174.0</ele><time>2026-04-25T12:00:35.003Z</time></trkpt><trkpt lat="43.21584037673932" lon="11.515015442691418"><ele>174.0</ele><time>2026-04-25T12:00:36.003Z</time></trkpt><trkpt lat="43.21589114841517" lon="11.515160082563275"><ele>174.0</ele><time>2026-04-25T12:00:37.003Z</time></trkpt><trkpt lat="43.21593872345608" lon="11.51530640333145"><ele>174.0</ele><time>2026-04-25T12:00:38.003Z</time></trkpt><trkpt lat="43.21598898257747" lon="11.515451554543738"><ele>174.0</ele><time>2026-04-25T12:00:39.003Z</time></trkpt><trkpt lat="43.2160447867466" lon="11.51560103572922"><ele>172.5</ele><time>2026-04-25T12:00:40.003Z</time></trkpt><trkpt lat="43.216113399461534" lon="11.51576109432255"><ele>171.0</ele><time>2026-04-25T12:00:41.003Z</time></trkpt><trkpt lat="43.21618907752616" lon="11.515919271980632"><ele>169.5</ele><time>2026-04-25T12:00:42.003Z</time></trkpt><trkpt lat="43.21627008203933" lon="11.51607813984566"><ele>168.0</ele><time>2026-04-25T12:00:43.003Z</time></trkpt><trkpt lat="43.21635656727279" lon="11.516242914116752"><ele>168.25</ele><time>2026-04-25T12:00:44.003Z</time></trkpt><trkpt lat="43.216446949320115" lon="11.516410266728183"><ele>168.5</ele><time>2026-04-25T12:00:45.003Z</time></trkpt><trkpt lat="43.21653625759947" lon="11.516577586261938"><ele>168.75</ele><time>2026-04-25T12:00:46.003Z</time></trkpt><trkpt lat="43.21661814146948" lon="11.516740280126859"><ele>169.0</ele><time>2026-04-25T12:00:47.003Z</time></trkpt><trkpt lat="43.216691456275115" lon="11.516899328014583"><ele>169.0</ele><time>2026-04-25T12:00:47.998Z</time></trkpt><trkpt lat="43.21676312138219" lon="11.517057913847855"><ele>169.0</ele><time>2026-04-25T12:00:48.998Z</time></trkpt><trkpt lat="43.21683394567793" lon="11.517214630621822"><ele>169.0</ele><time>2026-04-25T12:00:49.998Z</time></trkpt><trkpt lat="43.216898491422164" lon="11.51737165783209"><ele>169.0</ele><time>2026-04-25T12:00:50.999Z</time></trkpt><trkpt lat="43.21696491365455" lon="11.51753475104089"><ele>169.0</ele><time>2026-04-25T12:00:51.999Z</time></trkpt><trkpt lat="43.21702879724438" lon="11.517697772898996"><ele>169.0</ele><time>2026-04-25T12:00:52.999Z</time></trkpt><trkpt lat="43.217087506373204" lon="11.517849119797987"><ele>169.0</ele><time>2026-04-25T12:00:53.999Z</time></trkpt><trkpt lat="43.21714046169585" lon="11.517989309630728"><ele>169.0</ele><time>2026-04-25T12:00:54.999Z</time></trkpt><trkpt lat="43.21719301210152" lon="11.518125760647935"><ele>169.0</ele><time>2026-04-25T12:00:55.999Z</time></trkpt><trkpt lat="43.21724657530085" lon="11.518262279591431"><ele>169.0</ele><time>2026-04-25T12:00:56.999Z</time></trkpt><trkpt lat="43.217296350810365" lon="11.518396881498596"><ele>169.0</ele><time>2026-04-25T12:00:57.999Z</time></trkpt><trkpt lat="43.21734074883665" lon="11.518529699624592"><ele>169.0</ele><time>2026-04-25T12:00:58.999Z</time></trkpt><trkpt lat="43.21738392885953" lon="11.518670959193736"><ele>169.0</ele><time>2026-04-25T12:00:59.999Z</time></trkpt><trkpt lat="43.217420598967195" lon="11.518816891624105"><ele>170.25</ele><time>2026-04-25T12:01:00.999Z</time></trkpt><trkpt lat="43.217451821934795" lon="11.51896897669341"><ele>171.5</ele><time>2026-04-25T12:01:01.999Z</time></trkpt><trkpt lat="43.217465115119055" lon="11.51912933871635"><ele>172.75</ele><time>2026-04-25T12:01:02.999Z</time></trkpt><trkpt lat="43.217463335593095" lon="11.519280940476545"><ele>174.0</ele><time>2026-04-25T12:01:03.999Z</time></trkpt><trkpt lat="43.217443796843824" lon="11.519430215902068"><ele>175.5</ele><time>2026-04-25T12:01:04.999Z</time></trkpt><trkpt lat="43.21742491320444" lon="11.51959373351383"><ele>177.0</ele><time>2026-04-25T12:01:06Z</time></trkpt><trkpt lat="43.21741433529914" lon="11.519758567084336"><ele>178.5</ele><time>2026-04-25T12:01:07Z</time></trkpt><trkpt lat="43.21740609616849" lon="11.519924519886647"><ele>180.0</ele><time>2026-04-25T12:01:08Z</time></trkpt><trkpt lat="43.21739990686293" lon="11.520088774490988"><ele>180.0</ele><time>2026-04-25T12:01:09Z</time></trkpt><trkpt lat="43.21739341623425" lon="11.520254877172263"><ele>180.0</ele><time>2026-04-25T12:01:10Z</time></trkpt><trkpt lat="43.21738578562949" lon="11.520436832241636"><ele>180.0</ele><time>2026-04-25T12:01:11Z</time></trkpt><trkpt lat="43.21737871824669" lon="11.52058284891676"><ele>180.0</ele><time>2026-04-25T12:01:12Z</time></trkpt><trkpt lat="43.21737840053725" lon="11.520702923860993"><ele>180.0</ele><time>2026-04-25T12:01:13Z</time></trkpt><trkpt lat="43.21738518181115" lon="11.520794978894711"><ele>179.83333333333334</ele><time>2026-04-25T12:01:14Z</time></trkpt><trkpt lat="43.21740253353932" lon="11.520887681822446"><ele>179.66666666666666</ele><time>2026-04-25T12:01:15Z</time></trkpt><trkpt lat="43.21743782032224" lon="11.52098617251533"><ele>179.5</ele><time>2026-04-25T12:01:16Z</time></trkpt><trkpt lat="43.21748694088863" lon="11.521089843026937"><ele>179.33333333333331</ele><time>2026-04-25T12:01:17Z</time></trkpt><trkpt lat="43.217535778506644" lon="11.521178513294613"><ele>179.16666666666666</ele><time>2026-04-25T12:01:18Z</time></trkpt><trkpt lat="43.2175957201923" lon="11.521271987781889"><ele>179.0</ele><time>2026-04-25T12:01:19Z</time></trkpt><trkpt lat="43.21766219055733" lon="11.521352387671381"><ele>179.0</ele><time>2026-04-25T12:01:20Z</time></trkpt><trkpt lat="43.21773814374558" lon="11.521410464508547"><ele>179.0</ele><time>2026-04-25T12:01:21Z</time></trkpt><trkpt lat="43.21782433221984" lon="11.521460083602651"><ele>179.0</ele><time>2026-04-25T12:01:22Z</time></trkpt><trkpt lat="43.21791949609562" lon="11.521511321722569"><ele>179.0</ele><time>2026-04-25T12:01:23Z</time></trkpt><trkpt lat="43.21800892958187" lon="11.521559488429112"><ele>179.0</ele><time>2026-04-25T12:01:24.001Z</time></trkpt><trkpt lat="43.21808077048064" lon="11.521619034722143"><ele>179.0</ele><time>2026-04-25T12:01:25.001Z</time></trkpt><trkpt lat="43.21813556323333" lon="11.521705204413891"><ele>179.0</ele><time>2026-04-25T12:01:26.001Z</time></trkpt><trkpt lat="43.2181631529248" lon="11.521808993093172"><ele>179.0</ele><time>2026-04-25T12:01:27.001Z</time></trkpt><trkpt lat="43.218167980293714" lon="11.521930635635917"><ele>179.0</ele><time>2026-04-25T12:01:28.001Z</time></trkpt><trkpt lat="43.218163244469494" lon="11.522068511271943"><ele>179.0</ele><time>2026-04-25T12:01:29.001Z</time></trkpt><trkpt lat="43.21817121515335" lon="11.522195412950763"><ele>179.0</ele><time>2026-04-25T12:01:30.001Z</time></trkpt><trkpt lat="43.21819832975182" lon="11.522316127373113"><ele>179.2</ele><time>2026-04-25T12:01:31.001Z</time></trkpt><trkpt lat="43.218240631481464" lon="11.522451191588688"><ele>179.39999999999998</ele><time>2026-04-25T12:01:32.001Z</time></trkpt><trkpt lat="43.218287632737976" lon="11.522601591848794"><ele>179.6</ele><time>2026-04-25T12:01:33.001Z</time></trkpt><trkpt lat="43.21832925749523" lon="11.522742508032817"><ele>179.8</ele><time>2026-04-25T12:01:34.001Z</time></trkpt><trkpt lat="43.21836975418289" lon="11.522873695031118"><ele>180.0</ele><time>2026-04-25T12:01:35.001Z</time></trkpt><trkpt lat="43.218411087210896" lon="11.523003867703242"><ele>178.4</ele><time>2026-04-25T12:01:36.001Z</time></trkpt><trkpt lat="43.21846137416623" lon="11.52312948526848"><ele>176.8</ele><time>2026-04-25T12:01:37.001Z</time></trkpt><trkpt lat="43.21851773647421" lon="11.523249635135453"><ele>175.2</ele><time>2026-04-25T12:01:38.001Z</time></trkpt><trkpt lat="43.21857623896484" lon="11.523365793032529"><ele>173.6</ele><time>2026-04-25T12:01:39.001Z</time></trkpt><trkpt lat="43.21863804260541" lon="11.523483229343196"><ele>172.0</ele><time>2026-04-25T12:01:40.001Z</time></trkpt><trkpt lat="43.21870515861079" lon="11.523599257157771"><ele>172.0</ele><time>2026-04-25T12:01:41.001Z</time></trkpt><trkpt lat="43.218771144613854" lon="11.523710853738772"><ele>172.0</ele><time>2026-04-25T12:01:42.001Z</time></trkpt><trkpt lat="43.218840906082825" lon="11.523827529889553"><ele>172.0</ele><time>2026-04-25T12:01:43.001Z</time></trkpt><trkpt lat="43.21890526838759" lon="11.523941945791154"><ele>172.0</ele><time>2026-04-25T12:01:44.001Z</time></trkpt><trkpt lat="43.21897342331596" lon="11.52406641259591"><ele>172.0</ele><time>2026-04-25T12:01:45.001Z</time></trkpt><trkpt lat="43.21904698763673" lon="11.524193816979372"><ele>172.0</ele><time>2026-04-25T12:01:46.001Z</time></trkpt><trkpt lat="43.21912358032065" lon="11.524320402993778"><ele>172.0</ele><time>2026-04-25T12:01:47.001Z</time></trkpt><trkpt lat="43.21920477213156" lon="11.524456318103324"><ele>172.0</ele><time>2026-04-25T12:01:48.001Z</time></trkpt><trkpt lat="43.21928032849885" lon="11.524585362146164"><ele>172.0</ele><time>2026-04-25T12:01:49.001Z</time></trkpt><trkpt lat="43.21935179669962" lon="11.524702844241583"><ele>171.0</ele><time>2026-04-25T12:01:50.001Z</time></trkpt><trkpt lat="43.219421467838046" lon="11.524803814681041"><ele>170.0</ele><time>2026-04-25T12:01:51.001Z</time></trkpt><trkpt lat="43.21949756032966" lon="11.524884851959175"><ele>169.0</ele><time>2026-04-25T12:01:52.002Z</time></trkpt><trkpt lat="43.219579778439666" lon="11.524951726990189"><ele>168.0</ele><time>2026-04-25T12:01:53.002Z</time></trkpt><trkpt lat="43.219664810323856" lon="11.52499629326106"><ele>167.0</ele><time>2026-04-25T12:01:54.002Z</time></trkpt><trkpt lat="43.21974150043482" lon="11.525016183967754"><ele>168.2</ele><time>2026-04-25T12:01:55.002Z</time></trkpt><trkpt lat="43.21981923259068" lon="11.525007937584219"><ele>169.39999999999998</ele><time>2026-04-25T12:01:56.002Z</time></trkpt><trkpt lat="43.21990094707417" lon="11.524979643351521"><ele>170.60000000000002</ele><time>2026-04-25T12:01:57.002Z</time></trkpt><trkpt lat="43.219992573079615" lon="11.524941482235603"><ele>171.8</ele><time>2026-04-25T12:01:58.002Z</time></trkpt><trkpt lat="43.22008631974918" lon="11.52489883832964"><ele>173.0</ele><time>2026-04-25T12:01:59.002Z</time></trkpt><trkpt lat="43.220178808619806" lon="11.524861924269121"><ele>173.0</ele><time>2026-04-25T12:02:00.002Z</time></trkpt><trkpt lat="43.220261126758516" lon="11.52483156425792"><ele>173.0</ele><time>2026-04-25T12:02:01.002Z</time></trkpt><trkpt lat="43.220338742205755" lon="11.524818822935254"><ele>173.0</ele><time>2026-04-25T12:02:02.002Z</time></trkpt><trkpt lat="43.22042315807468" lon="11.52482140599577"><ele>173.0</ele><time>2026-04-25T12:02:03.002Z</time></trkpt><trkpt lat="43.220515159058195" lon="11.524852836538027"><ele>173.0</ele><time>2026-04-25T12:02:04.002Z</time></trkpt><trkpt lat="43.220601165319216" lon="11.524914534357887"><ele>173.0</ele><time>2026-04-25T12:02:05.002Z</time></trkpt><trkpt lat="43.220683179330685" lon="11.524995084675037"><ele>174.0</ele><time>2026-04-25T12:02:06.002Z</time></trkpt><trkpt lat="43.22077178619245" lon="11.525079910797697"><ele>175.0</ele><time>2026-04-25T12:02:07.002Z</time></trkpt><trkpt lat="43.22085959711856" lon="11.525149805832225"><ele>176.0</ele><time>2026-04-25T12:02:08.002Z</time></trkpt><trkpt lat="43.220949716357694" lon="11.525204291375553"><ele>177.0</ele><time>2026-04-25T12:02:09.002Z</time></trkpt><trkpt lat="43.22104463877762" lon="11.525238538058533"><ele>178.0</ele><time>2026-04-25T12:02:10.002Z</time></trkpt><trkpt lat="43.22115009559234" lon="11.525256827221792"><ele>178.0</ele><time>2026-04-25T12:02:11.002Z</time></trkpt><trkpt lat="43.2212548073144" lon="11.52527119453628"><ele>178.0</ele><time>2026-04-25T12:02:12.002Z</time></trkpt><trkpt lat="43.22136364301515" lon="11.52529316657013"><ele>178.0</ele><time>2026-04-25T12:02:13.002Z</time></trkpt><trkpt lat="43.22147906028406" lon="11.5253159215889"><ele>178.0</ele><time>2026-04-25T12:02:14.002Z</time></trkpt><trkpt lat="43.22160294531241" lon="11.52534069568985"><ele>179.5</ele><time>2026-04-25T12:02:15.002Z</time></trkpt><trkpt lat="43.22173180497452" lon="11.525361445037257"><ele>181.0</ele><time>2026-04-25T12:02:16.002Z</time></trkpt><trkpt lat="43.22186816685561" lon="11.52538218689023"><ele>182.5</ele><time>2026-04-25T12:02:17.002Z</time></trkpt><trkpt lat="43.222001003964294" lon="11.525400579747073"><ele>184.0</ele><time>2026-04-25T12:02:18.002Z</time></trkpt><trkpt lat="43.222128853942685" lon="11.525420814840762"><ele>180.75</ele><time>2026-04-25T12:02:19.002Z</time></trkpt><trkpt lat="43.222246792869015" lon="11.52544470806475"><ele>177.5</ele><time>2026-04-25T12:02:20.002Z</time></trkpt><trkpt lat="43.22236621537534" lon="11.525458797580807"><ele>174.25</ele><time>2026-04-25T12:02:21.002Z</time></trkpt><trkpt lat="43.22248110858371" lon="11.525463220439988"><ele>171.0</ele><time>2026-04-25T12:02:22.002Z</time></trkpt><trkpt lat="43.222580802501874" lon="11.525467278926238"><ele>170.60000000000002</ele><time>2026-04-25T12:02:23.002Z</time></trkpt><trkpt lat="43.22267522434704" lon="11.525488938902676"><ele>170.2</ele><time>2026-04-25T12:02:24.002Z</time></trkpt><trkpt lat="43.2227685226103" lon="11.52554109168311"><ele>169.8</ele><time>2026-04-25T12:02:25.003Z</time></trkpt><trkpt lat="43.222851978761724" lon="11.525624745873268"><ele>169.39999999999998</ele><time>2026-04-25T12:02:26.003Z</time></trkpt><trkpt lat="43.222920414641315" lon="11.525712397027041"><ele>169.0</ele><time>2026-04-25T12:02:27.003Z</time></trkpt><trkpt lat="43.22299283941948" lon="11.525807878742011"><ele>169.0</ele><time>2026-04-25T12:02:28.003Z</time></trkpt><trkpt lat="43.22306842664585" lon="11.525883168732848"><ele>169.0</ele><time>2026-04-25T12:02:29.003Z</time></trkpt><trkpt lat="43.22315055628702" lon="11.525931782437324"><ele>169.0</ele><time>2026-04-25T12:02:30.003Z</time></trkpt><trkpt lat="43.2232347153437" lon="11.525957745050786"><ele>169.0</ele><time>2026-04-25T12:02:31.003Z</time></trkpt><trkpt lat="43.22332161912154" lon="11.525972065960497"><ele>169.0</ele><time>2026-04-25T12:02:32.003Z</time></trkpt><trkpt lat="43.2234200353388" lon="11.525970186718988"><ele>170.75</ele><time>2026-04-25T12:02:33.003Z</time></trkpt><trkpt lat="43.22353574973045" lon="11.525961182680245"><ele>172.5</ele><time>2026-04-25T12:02:34.003Z</time></trkpt><trkpt lat="43.22367759424495" lon="11.525957683019117"><ele>174.25</ele><time>2026-04-25T12:02:35.003Z</time></trkpt><trkpt lat="43.22381683309727" lon="11.525952934776258"><ele>176.0</ele><time>2026-04-25T12:02:36.003Z</time></trkpt><trkpt lat="43.22393599220978" lon="11.52593965424834"><ele>176.25</ele><time>2026-04-25T12:02:37.003Z</time></trkpt><trkpt lat="43.224052368328394" lon="11.525919524281838"><ele>176.5</ele><time>2026-04-25T12:02:38.003Z</time></trkpt><trkpt lat="43.22416561263781" lon="11.525901765914695"><ele>176.75</ele><time>2026-04-25T12:02:39.003Z</time></trkpt><trkpt lat="43.224288880766565" lon="11.525893665911209"><ele>177.0</ele><time>2026-04-25T12:02:40.003Z</time></trkpt><trkpt lat="43.22441812548966" lon="11.525909830995749"><ele>177.0</ele><time>2026-04-25T12:02:41.003Z</time></trkpt><trkpt lat="43.22455782487449" lon="11.52594472002434"><ele>177.0</ele><time>2026-04-25T12:02:42.003Z</time></trkpt><trkpt lat="43.224699722767376" lon="11.525985670464983"><ele>177.0</ele><time>2026-04-25T12:02:43.003Z</time></trkpt><trkpt lat="43.22483779189464" lon="11.526029882673841"><ele>177.0</ele><time>2026-04-25T12:02:44.003Z</time></trkpt><trkpt lat="43.224976853791176" lon="11.5260722353721"><ele>177.75</ele><time>2026-04-25T12:02:45.003Z</time></trkpt><trkpt lat="43.22510901750638" lon="11.526108640752334"><ele>178.5</ele><time>2026-04-25T12:02:46.003Z</time></trkpt><trkpt lat="43.225245008981595" lon="11.526143335646504"><ele>179.25</ele><time>2026-04-25T12:02:47.003Z</time></trkpt><trkpt lat="43.22537583197884" lon="11.526179993355479"><ele>180.0</ele><time>2026-04-25T12:02:48.003Z</time></trkpt><trkpt lat="43.22549998638368" lon="11.526219654806743"><ele>179.0</ele><time>2026-04-25T12:02:49.003Z</time></trkpt><trkpt lat="43.225623359954184" lon="11.526263055195734"><ele>178.0</ele><time>2026-04-25T12:02:50.003Z</time></trkpt><trkpt lat="43.22573465012286" lon="11.526307068378577"><ele>177.0</ele><time>2026-04-25T12:02:51.003Z</time></trkpt><trkpt lat="43.225826872519335" lon="11.526346159866357"><ele>176.0</ele><time>2026-04-25T12:02:52.003Z</time></trkpt><trkpt lat="43.22590948998835" lon="11.526373258074194"><ele>175.0</ele><time>2026-04-25T12:02:53.003Z</time></trkpt><trkpt lat="43.22598938719418" lon="11.526388548307256"><ele>175.0</ele><time>2026-04-25T12:02:53.999Z</time></trkpt><trkpt lat="43.22607578330352" lon="11.526388018879192"><ele>175.0</ele><time>2026-04-25T12:02:55Z</time></trkpt><trkpt lat="43.22617932123099" lon="11.526385933194446"><ele>175.0</ele><time>2026-04-25T12:02:56Z</time></trkpt><trkpt lat="43.22628138058521" lon="11.5263758046335"><ele>175.0</ele><time>2026-04-25T12:02:57Z</time></trkpt><trkpt lat="43.22638363595606" lon="11.526373661582873"><ele>175.0</ele><time>2026-04-25T12:02:58Z</time></trkpt><trkpt lat="43.22648499901069" lon="11.526367762356696"><ele>175.4</ele><time>2026-04-25T12:02:59Z</time></trkpt><trkpt lat="43.22658740899882" lon="11.526365389559643"><ele>175.8</ele><time>2026-04-25T12:03:00Z</time></trkpt><trkpt lat="43.226688462418025" lon="11.526360716258756"><ele>176.2</ele><time>2026-04-25T12:03:01Z</time></trkpt><trkpt lat="43.226789325737926" lon="11.526362249263514"><ele>176.6</ele><time>2026-04-25T12:03:02Z</time></trkpt><trkpt lat="43.22688349719317" lon="11.526356993999833"><ele>177.0</ele><time>2026-04-25T12:03:03Z</time></trkpt><trkpt lat="43.22697319190554" lon="11.52635022298855"><ele>177.0</ele><time>2026-04-25T12:03:04Z</time></trkpt><trkpt lat="43.2270634317482" lon="11.526362142061375"><ele>177.0</ele><time>2026-04-25T12:03:05Z</time></trkpt><trkpt lat="43.227151783486796" lon="11.526386099073271"><ele>177.0</ele><time>2026-04-25T12:03:06Z</time></trkpt><trkpt lat="43.2272242277963" lon="11.526420562449456"><ele>177.0</ele><time>2026-04-25T12:03:07Z</time></trkpt><trkpt lat="43.2272900266402" lon="11.526465401085233"><ele>177.0</ele><time>2026-04-25T12:03:08Z</time></trkpt><trkpt lat="43.22735326442834" lon="11.52653163302235"><ele>177.0</ele><time>2026-04-25T12:03:09Z</time></trkpt><trkpt lat="43.22741285346946" lon="11.526604671562954"><ele>176.2</ele><time>2026-04-25T12:03:10Z</time></trkpt><trkpt lat="43.227479614482164" lon="11.526673813363661"><ele>175.39999999999998</ele><time>2026-04-25T12:03:11Z</time></trkpt><trkpt lat="43.22755216628305" lon="11.52675327091188"><ele>174.60000000000002</ele><time>2026-04-25T12:03:12Z</time></trkpt><trkpt lat="43.227627145747576" lon="11.52683057677489"><ele>173.8</ele><time>2026-04-25T12:03:13Z</time></trkpt><trkpt lat="43.22770872690768" lon="11.526913697149729"><ele>173.0</ele><time>2026-04-25T12:03:14Z</time></trkpt><trkpt lat="43.227785478457" lon="11.526989945870046"><ele>172.8</ele><time>2026-04-25T12:03:15Z</time></trkpt><trkpt lat="43.22786714464271" lon="11.52706744019947"><ele>172.60000000000002</ele><time>2026-04-25T12:03:16Z</time></trkpt><trkpt lat="43.22794978457312" lon="11.527131810387415"><ele>172.39999999999998</ele><time>2026-04-25T12:03:17Z</time></trkpt><trkpt lat="43.22804255586045" lon="11.527192449162253"><ele>172.2</ele><time>2026-04-25T12:03:18Z</time></trkpt><trkpt lat="43.22815407095527" lon="11.52724462841989"><ele>172.0</ele><time>2026-04-25T12:03:19Z</time></trkpt><trkpt lat="43.22826267653607" lon="11.527295949800722"><ele>171.2</ele><time>2026-04-25T12:03:20Z</time></trkpt><trkpt lat="43.22836124133264" lon="11.527338006704365"><ele>170.39999999999998</ele><time>2026-04-25T12:03:21Z</time></trkpt><trkpt lat="43.22845972853476" lon="11.527381803003292"><ele>169.60000000000002</ele><time>2026-04-25T12:03:22Z</time></trkpt><trkpt lat="43.22856387295042" lon="11.527426697825472"><ele>168.8</ele><time>2026-04-25T12:03:23Z</time></trkpt><trkpt lat="43.22865803867503" lon="11.527486139917213"><ele>168.0</ele><time>2026-04-25T12:03:24Z</time></trkpt><trkpt lat="43.228751591537076" lon="11.527571066368429"><ele>168.0</ele><time>2026-04-25T12:03:25Z</time></trkpt><trkpt lat="43.228844132583234" lon="11.527674936006516"><ele>168.0</ele><time>2026-04-25T12:03:26.001Z</time></trkpt><trkpt lat="43.228933258884986" lon="11.52778085059014"><ele>168.0</ele><time>2026-04-25T12:03:27.001Z</time></trkpt><trkpt lat="43.229021298670695" lon="11.52788997332552"><ele>168.0</ele><time>2026-04-25T12:03:28.001Z</time></trkpt><trkpt lat="43.22910226590255" lon="11.527996759480958"><ele>169.2</ele><time>2026-04-25T12:03:29.001Z</time></trkpt><trkpt lat="43.2291879615991" lon="11.528101559162932"><ele>170.4</ele><time>2026-04-25T12:03:30.001Z</time></trkpt><trkpt lat="43.22927308847463" lon="11.528203143279436"><ele>171.6</ele><time>2026-04-25T12:03:31.001Z</time></trkpt><trkpt lat="43.2293573052162" lon="11.528300272908634"><ele>172.79999999999998</ele><time>2026-04-25T12:03:32.001Z</time></trkpt><trkpt lat="43.229432398382805" lon="11.528392674279871"><ele>174.0</ele><time>2026-04-25T12:03:33.001Z</time></trkpt><trkpt lat="43.229497383420686" lon="11.528470452571021"><ele>174.0</ele><time>2026-04-25T12:03:34.001Z</time></trkpt><trkpt lat="43.22956096240822" lon="11.528543413275502"><ele>174.0</ele><time>2026-04-25T12:03:35.001Z</time></trkpt><trkpt lat="43.22962025474209" lon="11.528599177911898"><ele>174.0</ele><time>2026-04-25T12:03:36.001Z</time></trkpt><trkpt lat="43.22970909292375" lon="11.528677937271995"><ele>174.0</ele><time>2026-04-25T12:03:38.001Z</time></trkpt><trkpt lat="43.22977866206274" lon="11.528720963578662"><ele>174.0</ele><time>2026-04-25T12:03:40.001Z</time></trkpt><trkpt lat="43.22985967994952" lon="11.528749762666955"><ele>174.0</ele><time>2026-04-25T12:03:55.001Z</time></trkpt><trkpt lat="43.22995353032516" lon="11.52885503467219"><ele>174.5</ele><time>2026-04-25T12:03:57.002Z</time></trkpt><trkpt lat="43.230019608864865" lon="11.528953362992851"><ele>175.0</ele><time>2026-04-25T12:03:58.002Z</time></trkpt><trkpt lat="43.23009491015102" lon="11.529051915658211"><ele>175.5</ele><time>2026-04-25T12:03:59.002Z</time></trkpt><trkpt lat="43.230179694045376" lon="11.529165136254763"><ele>176.0</ele><time>2026-04-25T12:04:00.002Z</time></trkpt><trkpt lat="43.23027143759433" lon="11.529291579389671"><ele>176.0</ele><time>2026-04-25T12:04:01.002Z</time></trkpt><trkpt lat="43.230371534226435" lon="11.529433387084035"><ele>176.0</ele><time>2026-04-25T12:04:02.002Z</time></trkpt><trkpt lat="43.23047334094603" lon="11.52957513327941"><ele>176.0</ele><time>2026-04-25T12:04:03.002Z</time></trkpt><trkpt lat="43.23057870975974" lon="11.529723650223582"><ele>176.0</ele><time>2026-04-25T12:04:04.002Z</time></trkpt><trkpt lat="43.23068506555797" lon="11.529867435940986"><ele>174.66666666666666</ele><time>2026-04-25T12:04:05.002Z</time></trkpt><trkpt lat="43.230797710411686" lon="11.530022174378045"><ele>173.33333333333334</ele><time>2026-04-25T12:04:06.002Z</time></trkpt><trkpt lat="43.23091181234049" lon="11.530178858937049"><ele>172.0</ele><time>2026-04-25T12:04:07.002Z</time></trkpt><trkpt lat="43.231020390660944" lon="11.530322329064692"><ele>171.25</ele><time>2026-04-25T12:04:08.002Z</time></trkpt><trkpt lat="43.23111859335495" lon="11.530459212922171"><ele>170.5</ele><time>2026-04-25T12:04:09.002Z</time></trkpt><trkpt lat="43.231206666355696" lon="11.530604790245862"><ele>169.75</ele><time>2026-04-25T12:04:10.002Z</time></trkpt><trkpt lat="43.23127717167514" lon="11.530756274357422"><ele>169.0</ele><time>2026-04-25T12:04:11.002Z</time></trkpt><trkpt lat="43.23133969892802" lon="11.530929028104659"><ele>169.0</ele><time>2026-04-25T12:04:12.002Z</time></trkpt><trkpt lat="43.231395000604515" lon="11.531118795782817"><ele>169.0</ele><time>2026-04-25T12:04:13.002Z</time></trkpt><trkpt lat="43.23144624491804" lon="11.531318705546347"><ele>169.0</ele><time>2026-04-25T12:04:14.002Z</time></trkpt><trkpt lat="43.23149474042404" lon="11.531528483707081"><ele>169.33333333333334</ele><time>2026-04-25T12:04:15.002Z</time></trkpt><trkpt lat="43.231536941617385" lon="11.531739623986244"><ele>169.66666666666666</ele><time>2026-04-25T12:04:16.002Z</time></trkpt><trkpt lat="43.23157714961573" lon="11.53195568150717"><ele>170.0</ele><time>2026-04-25T12:04:17.002Z</time></trkpt><trkpt lat="43.23161264235682" lon="11.532165170465968"><ele>170.0</ele><time>2026-04-25T12:04:18.002Z</time></trkpt><trkpt lat="43.23165373936672" lon="11.532371907075964"><ele>170.0</ele><time>2026-04-25T12:04:19.002Z</time></trkpt><trkpt lat="43.23169349191336" lon="11.532573343029743"><ele>170.0</ele><time>2026-04-25T12:04:20.002Z</time></trkpt><trkpt lat="43.231738315312654" lon="11.532772439040542"><ele>170.0</ele><time>2026-04-25T12:04:21.002Z</time></trkpt><trkpt lat="43.23177412369953" lon="11.53295845425047"><ele>170.0</ele><time>2026-04-25T12:04:22.002Z</time></trkpt><trkpt lat="43.23180632047328" lon="11.53312586317118"><ele>170.0</ele><time>2026-04-25T12:04:23.002Z</time></trkpt><trkpt lat="43.23182177868116" lon="11.533240982841676"><ele>170.0</ele><time>2026-04-25T12:04:24.002Z</time></trkpt><trkpt lat="43.23184476489814" lon="11.5333666408244"><ele>170.0</ele><time>2026-04-25T12:04:26.002Z</time></trkpt><trkpt lat="43.231874674319236" lon="11.53350307879516"><ele>170.0</ele><time>2026-04-25T12:06:26Z</time></trkpt><trkpt lat="43.231913498352434" lon="11.533637515592117"><ele>170.0</ele><time>2026-04-25T12:06:28Z</time></trkpt><trkpt lat="43.23197387734903" lon="11.533835734126145"><ele>170.0</ele><time>2026-04-25T12:06:30Z</time></trkpt><trkpt lat="43.23201868849279" lon="11.533971249207418"><ele>170.0</ele><time>2026-04-25T12:06:31Z</time></trkpt><trkpt lat="43.23209510227142" lon="11.534118790092766"><ele>169.5</ele><time>2026-04-25T12:06:32Z</time></trkpt><trkpt lat="43.23217797928312" lon="11.534224364959128"><ele>169.0</ele><time>2026-04-25T12:06:33Z</time></trkpt><trkpt lat="43.23228019919782" lon="11.534340793834042"><ele>168.5</ele><time>2026-04-25T12:06:34Z</time></trkpt><trkpt lat="43.232392800568014" lon="11.534448238585481"><ele>168.0</ele><time>2026-04-25T12:06:35Z</time></trkpt><trkpt lat="43.23251776688594" lon="11.534540331430051"><ele>168.5</ele><time>2026-04-25T12:06:36Z</time></trkpt><trkpt lat="43.2326388334476" lon="11.534633260434745"><ele>169.0</ele><time>2026-04-25T12:06:37Z</time></trkpt><trkpt lat="43.23276493405433" lon="11.534727967799103"><ele>169.5</ele><time>2026-04-25T12:06:38Z</time></trkpt><trkpt lat="43.23290009808116" lon="11.53483688914469"><ele>170.0</ele><time>2026-04-25T12:06:39Z</time></trkpt><trkpt lat="43.232990810027886" lon="11.534914529704503"><ele>170.0</ele><time>2026-04-25T12:06:40Z</time></trkpt><trkpt lat="43.233121501568" lon="11.535021233586301"><ele>170.0</ele><time>2026-04-25T12:06:41Z</time></trkpt><trkpt lat="43.233255220789744" lon="11.535115929359648"><ele>170.0</ele><time>2026-04-25T12:06:42.001Z</time></trkpt><trkpt lat="43.23338461186677" lon="11.535228122495562"><ele>169.66666666666666</ele><time>2026-04-25T12:06:43.001Z</time></trkpt><trkpt lat="43.23351555315148" lon="11.535349250459166"><ele>169.33333333333334</ele><time>2026-04-25T12:06:44.001Z</time></trkpt><trkpt lat="43.233629007007764" lon="11.535489381730287"><ele>169.0</ele><time>2026-04-25T12:06:45.001Z</time></trkpt><trkpt lat="43.2337436208568" lon="11.5356767397886"><ele>169.0</ele><time>2026-04-25T12:06:46.001Z</time></trkpt><trkpt lat="43.233833413795864" lon="11.535872490464312"><ele>169.0</ele><time>2026-04-25T12:06:47.001Z</time></trkpt><trkpt lat="43.23392129602018" lon="11.536068610818308"><ele>169.0</ele><time>2026-04-25T12:06:48.001Z</time></trkpt><trkpt lat="43.23401847638957" lon="11.536248063894263"><ele>170.0</ele><time>2026-04-25T12:06:49.001Z</time></trkpt><trkpt lat="43.23411863182574" lon="11.536432542884448"><ele>171.0</ele><time>2026-04-25T12:06:50.001Z</time></trkpt><trkpt lat="43.23422238914771" lon="11.536624329854238"><ele>172.0</ele><time>2026-04-25T12:06:51.001Z</time></trkpt><trkpt lat="43.234323331062136" lon="11.536818770021476"><ele>172.0</ele><time>2026-04-25T12:06:52.001Z</time></trkpt><trkpt lat="43.23442334151616" lon="11.537020108393353"><ele>172.0</ele><time>2026-04-25T12:06:53.001Z</time></trkpt><trkpt lat="43.23452841184433" lon="11.537222995437833"><ele>172.0</ele><time>2026-04-25T12:06:54.001Z</time></trkpt><trkpt lat="43.23463581614452" lon="11.537422108345515"><ele>172.0</ele><time>2026-04-25T12:06:55.001Z</time></trkpt><trkpt lat="43.23474522019281" lon="11.537619382892585"><ele>172.0</ele><time>2026-04-25T12:06:56.001Z</time></trkpt><trkpt lat="43.23485823989469" lon="11.537812010103181"><ele>172.0</ele><time>2026-04-25T12:06:57.001Z</time></trkpt><trkpt lat="43.23496842146145" lon="11.538017325708568"><ele>172.66666666666669</ele><time>2026-04-25T12:06:58.001Z</time></trkpt><trkpt lat="43.23507661089035" lon="11.5382235787458"><ele>173.33333333333334</ele><time>2026-04-25T12:06:59.001Z</time></trkpt><trkpt lat="43.23518832829995" lon="11.538422547081653"><ele>174.0</ele><time>2026-04-25T12:07:00.001Z</time></trkpt><trkpt lat="43.23529836427977" lon="11.538629046406882"><ele>173.66666666666666</ele><time>2026-04-25T12:07:01.001Z</time></trkpt><trkpt lat="43.23540644983505" lon="11.53883437703023"><ele>173.33333333333331</ele><time>2026-04-25T12:07:02.001Z</time></trkpt><trkpt lat="43.23551455884321" lon="11.539021355320711"><ele>173.0</ele><time>2026-04-25T12:07:03.001Z</time></trkpt><trkpt lat="43.2356141632915" lon="11.539210620818363"><ele>173.5</ele><time>2026-04-25T12:07:04.001Z</time></trkpt><trkpt lat="43.23570470346015" lon="11.539384256490676"><ele>174.0</ele><time>2026-04-25T12:07:05.001Z</time></trkpt><trkpt lat="43.23578791538551" lon="11.539549526889143"><ele>174.5</ele><time>2026-04-25T12:07:06.001Z</time></trkpt><trkpt lat="43.23585234571624" lon="11.539722771462348"><ele>175.0</ele><time>2026-04-25T12:07:07.001Z</time></trkpt><trkpt lat="43.235885247322685" lon="11.539913400273202"><ele>175.0</ele><time>2026-04-25T12:07:08.001Z</time></trkpt><trkpt lat="43.235886767922686" lon="11.540126269804915"><ele>175.0</ele><time>2026-04-25T12:07:09.001Z</time></trkpt><trkpt lat="43.235868417540274" lon="11.540368520687332"><ele>175.0</ele><time>2026-04-25T12:07:10.001Z</time></trkpt><trkpt lat="43.23583431842191" lon="11.540581755970258"><ele>175.0</ele><time>2026-04-25T12:07:11.001Z</time></trkpt><trkpt lat="43.235828931212716" lon="11.540811625337835"><ele>175.0</ele><time>2026-04-25T12:07:12.001Z</time></trkpt><trkpt lat="43.23582129061435" lon="11.541035098958831"><ele>175.0</ele><time>2026-04-25T12:07:13.001Z</time></trkpt><trkpt lat="43.2358100045982" lon="11.54127725711761"><ele>176.33333333333334</ele><time>2026-04-25T12:07:14.001Z</time></trkpt><trkpt lat="43.23579717075975" lon="11.541522064778565"><ele>177.66666666666666</ele><time>2026-04-25T12:07:15.001Z</time></trkpt><trkpt lat="43.235792450112406" lon="11.541761530205882"><ele>179.0</ele><time>2026-04-25T12:07:16.001Z</time></trkpt><trkpt lat="43.23578302691367" lon="11.542002312554791"><ele>179.0</ele><time>2026-04-25T12:07:17.001Z</time></trkpt><trkpt lat="43.23577104287974" lon="11.542245768621072"><ele>179.0</ele><time>2026-04-25T12:07:18.001Z</time></trkpt><trkpt lat="43.23576019089021" lon="11.542496933319434"><ele>179.0</ele><time>2026-04-25T12:07:19.001Z</time></trkpt><trkpt lat="43.23575072874367" lon="11.542752287341001"><ele>178.66666666666666</ele><time>2026-04-25T12:07:20.001Z</time></trkpt><trkpt lat="43.2357516449329" lon="11.542976526049353"><ele>178.33333333333334</ele><time>2026-04-25T12:07:21.002Z</time></trkpt><trkpt lat="43.23574970920042" lon="11.54322799897017"><ele>178.0</ele><time>2026-04-25T12:07:22.002Z</time></trkpt><trkpt lat="43.23573659612129" lon="11.543488323535705"><ele>177.66666666666669</ele><time>2026-04-25T12:07:23.002Z</time></trkpt><trkpt lat="43.235723020643576" lon="11.543747945659142"><ele>177.33333333333334</ele><time>2026-04-25T12:07:24.002Z</time></trkpt><trkpt lat="43.23571256135472" lon="11.543994913968639"><ele>177.0</ele><time>2026-04-25T12:07:25.002Z</time></trkpt><trkpt lat="43.23569290956134" lon="11.54425868301225"><ele>177.0</ele><time>2026-04-25T12:07:26.002Z</time></trkpt><trkpt lat="43.235679861653566" lon="11.54451152007339"><ele>177.0</ele><time>2026-04-25T12:07:27.002Z</time></trkpt><trkpt lat="43.23567788186404" lon="11.544747537913032"><ele>177.0</ele><time>2026-04-25T12:07:28.002Z</time></trkpt><trkpt lat="43.23568485218493" lon="11.544990935432043"><ele>176.66666666666666</ele><time>2026-04-25T12:07:29.002Z</time></trkpt><trkpt lat="43.2357148040255" lon="11.545225079298026"><ele>176.33333333333331</ele><time>2026-04-25T12:07:30.002Z</time></trkpt><trkpt lat="43.23576879094172" lon="11.545463297994088"><ele>176.0</ele><time>2026-04-25T12:07:31.002Z</time></trkpt><trkpt lat="43.23584744535084" lon="11.545697722418113"><ele>176.0</ele><time>2026-04-25T12:07:32.002Z</time></trkpt><trkpt lat="43.23593606102705" lon="11.54591922906395"><ele>176.0</ele><time>2026-04-25T12:07:33.002Z</time></trkpt><trkpt lat="43.23602175146335" lon="11.546139712925148"><ele>176.0</ele><time>2026-04-25T12:07:34.002Z</time></trkpt><trkpt lat="43.23611679777513" lon="11.546337645206966"><ele>176.66666666666666</ele><time>2026-04-25T12:07:35.002Z</time></trkpt><trkpt lat="43.236231628936984" lon="11.546522937411535"><ele>177.33333333333334</ele><time>2026-04-25T12:07:36.002Z</time></trkpt><trkpt lat="43.23635901510658" lon="11.546716638014072"><ele>178.0</ele><time>2026-04-25T12:07:37.002Z</time></trkpt><trkpt lat="43.23648236809055" lon="11.546901936324527"><ele>176.66666666666669</ele><time>2026-04-25T12:07:38.002Z</time></trkpt><trkpt lat="43.23661169343361" lon="11.547072787542294"><ele>175.33333333333334</ele><time>2026-04-25T12:07:39.002Z</time></trkpt><trkpt lat="43.23674910998765" lon="11.547255871815793"><ele>174.0</ele><time>2026-04-25T12:07:40.002Z</time></trkpt><trkpt lat="43.236889567999725" lon="11.547433025749354"><ele>174.0</ele><time>2026-04-25T12:07:41.002Z</time></trkpt><trkpt lat="43.23704616157867" lon="11.547601250834644"><ele>174.0</ele><time>2026-04-25T12:07:42.002Z</time></trkpt><trkpt lat="43.23719911077127" lon="11.547764261765026"><ele>174.0</ele><time>2026-04-25T12:07:43.002Z</time></trkpt><trkpt lat="43.23735066145168" lon="11.547928023086891"><ele>174.66666666666666</ele><time>2026-04-25T12:07:44.002Z</time></trkpt><trkpt lat="43.23750001592786" lon="11.548093603480055"><ele>175.33333333333331</ele><time>2026-04-25T12:07:45.002Z</time></trkpt><trkpt lat="43.23764397016739" lon="11.548265085493794"><ele>176.0</ele><time>2026-04-25T12:07:46.002Z</time></trkpt><trkpt lat="43.23779146611494" lon="11.548418012033837"><ele>176.0</ele><time>2026-04-25T12:07:47.002Z</time></trkpt><trkpt lat="43.23793651866685" lon="11.548560642159263"><ele>176.0</ele><time>2026-04-25T12:07:48.002Z</time></trkpt><trkpt lat="43.238082973639145" lon="11.548702589164298"><ele>176.0</ele><time>2026-04-25T12:07:49.002Z</time></trkpt><trkpt lat="43.23822514211972" lon="11.54882246123733"><ele>176.0</ele><time>2026-04-25T12:07:50.002Z</time></trkpt><trkpt lat="43.23837807382643" lon="11.54895431756577"><ele>176.0</ele><time>2026-04-25T12:07:51.002Z</time></trkpt><trkpt lat="43.23853793993021" lon="11.54907698879523"><ele>176.0</ele><time>2026-04-25T12:07:52.002Z</time></trkpt><trkpt lat="43.23868887844856" lon="11.54919663515186"><ele>176.0</ele><time>2026-04-25T12:07:53.002Z</time></trkpt><trkpt lat="43.23883976696474" lon="11.549297852606074"><ele>176.0</ele><time>2026-04-25T12:07:54.002Z</time></trkpt><trkpt lat="43.23899710845335" lon="11.54942284433474"><ele>176.0</ele><time>2026-04-25T12:07:55.002Z</time></trkpt><trkpt lat="43.239138125335465" lon="11.549538988029665"><ele>175.66666666666666</ele><time>2026-04-25T12:07:56.002Z</time></trkpt><trkpt lat="43.239282676769896" lon="11.549670213394064"><ele>175.33333333333334</ele><time>2026-04-25T12:07:57.002Z</time></trkpt><trkpt lat="43.23941704723945" lon="11.549830023108656"><ele>175.0</ele><time>2026-04-25T12:07:58.002Z</time></trkpt><trkpt lat="43.2395422224445" lon="11.549994982526693"><ele>175.0</ele><time>2026-04-25T12:07:59.003Z</time></trkpt><trkpt lat="43.23966260015635" lon="11.550165172821666"><ele>175.0</ele><time>2026-04-25T12:08:00.003Z</time></trkpt><trkpt lat="43.2397796811319" lon="11.550335624830666"><ele>175.0</ele><time>2026-04-25T12:08:01.003Z</time></trkpt><trkpt lat="43.23989961468781" lon="11.550514767494212"><ele>174.33333333333334</ele><time>2026-04-25T12:08:02.003Z</time></trkpt><trkpt lat="43.24001857121878" lon="11.550684794425845"><ele>173.66666666666666</ele><time>2026-04-25T12:08:03.003Z</time></trkpt><trkpt lat="43.24013139113479" lon="11.550842094790086"><ele>173.0</ele><time>2026-04-25T12:08:04.003Z</time></trkpt><trkpt lat="43.240245087247004" lon="11.551000395370053"><ele>173.0</ele><time>2026-04-25T12:08:05.003Z</time></trkpt><trkpt lat="43.240354569064635" lon="11.55113368041166"><ele>173.0</ele><time>2026-04-25T12:08:06.003Z</time></trkpt><trkpt lat="43.240454196668935" lon="11.551265888685434"><ele>173.0</ele><time>2026-04-25T12:08:07.003Z</time></trkpt><trkpt lat="43.24054341274081" lon="11.55138730216203"><ele>173.0</ele><time>2026-04-25T12:08:08.003Z</time></trkpt><trkpt lat="43.240630887459666" lon="11.551503369534391"><ele>174.2</ele><time>2026-04-25T12:08:09.003Z</time></trkpt><trkpt lat="43.24071188995582" lon="11.551611092264658"><ele>175.4</ele><time>2026-04-25T12:08:10.003Z</time></trkpt><trkpt lat="43.24077816507217" lon="11.551725030501686"><ele>176.6</ele><time>2026-04-25T12:08:11.003Z</time></trkpt><trkpt lat="43.24082023011216" lon="11.551852496653396"><ele>177.79999999999998</ele><time>2026-04-25T12:08:12.003Z</time></trkpt><trkpt lat="43.24080947965438" lon="11.551999255649372"><ele>179.0</ele><time>2026-04-25T12:08:13.003Z</time></trkpt><trkpt lat="43.240755077328565" lon="11.552126360003513"><ele>179.14285714285717</ele><time>2026-04-25T12:08:14.003Z</time></trkpt><trkpt lat="43.240703470684274" lon="11.552218285318245"><ele>179.28571428571428</ele><time>2026-04-25T12:08:15.003Z</time></trkpt><trkpt lat="43.24065452639682" lon="11.552291877446985"><ele>179.42857142857144</ele><time>2026-04-25T12:08:16.003Z</time></trkpt><trkpt lat="43.24061841080442" lon="11.552363097366014"><ele>179.57142857142858</ele><time>2026-04-25T12:08:17.003Z</time></trkpt><trkpt lat="43.24058866551803" lon="11.552443177957935"><ele>179.71428571428572</ele><time>2026-04-25T12:08:18.003Z</time></trkpt><trkpt lat="43.24053949061898" lon="11.552552222001758"><ele>179.85714285714286</ele><time>2026-04-25T12:08:20Z</time></trkpt><trkpt lat="43.240508240929685" lon="11.552636660154263"><ele>180.0</ele><time>2026-04-25T12:08:23Z</time></trkpt><trkpt lat="43.24047394041754" lon="11.552712012060924"><ele>178.83333333333334</ele><time>2026-04-25T12:08:25Z</time></trkpt><trkpt lat="43.24041272058549" lon="11.552830577086302"><ele>177.66666666666666</ele><time>2026-04-25T12:08:27Z</time></trkpt><trkpt lat="43.24036229510558" lon="11.552926600702156"><ele>176.5</ele><time>2026-04-25T12:08:29Z</time></trkpt><trkpt lat="43.24033821459831" lon="11.553009891260995"><ele>175.33333333333331</ele><time>2026-04-25T12:08:31Z</time></trkpt><trkpt lat="43.24037311885037" lon="11.553103474721306"><ele>174.16666666666666</ele><time>2026-04-25T12:08:33Z</time></trkpt><trkpt lat="43.24042933214107" lon="11.553142513496143"><ele>173.0</ele><time>2026-04-25T12:08:35Z</time></trkpt><trkpt lat="43.24050188595255" lon="11.553186987559371"><ele>173.0</ele><time>2026-04-25T12:08:37Z</time></trkpt><trkpt lat="43.24058357171011" lon="11.55322304791248"><ele>173.0</ele><time>2026-04-25T12:08:39Z</time></trkpt><trkpt lat="43.24065831340371" lon="11.553281696447508"><ele>173.0</ele><time>2026-04-25T12:08:41Z</time></trkpt><trkpt lat="43.24071587347898" lon="11.553321623532186"><ele>173.0</ele><time>2026-04-25T12:08:43Z</time></trkpt><trkpt lat="43.24080292361204" lon="11.553368811032133"><ele>173.0</ele><time>2026-04-25T12:08:45Z</time></trkpt><trkpt lat="43.240896992665775" lon="11.553463497973054"><ele>173.0</ele><time>2026-04-25T12:08:47Z</time></trkpt><trkpt lat="43.24095715558748" lon="11.553511720962222"><ele>173.0</ele><time>2026-04-25T12:08:48Z</time></trkpt><trkpt lat="43.241025541398756" lon="11.553566576317312"><ele>173.0</ele><time>2026-04-25T12:08:49.001Z</time></trkpt><trkpt lat="43.24109483910245" lon="11.553620548722579"><ele>173.0</ele><time>2026-04-25T12:08:50.001Z</time></trkpt><trkpt lat="43.24116691962124" lon="11.553683278748517"><ele>173.0</ele><time>2026-04-25T12:08:51.001Z</time></trkpt><trkpt lat="43.24123409773339" lon="11.553741794255206"><ele>173.0</ele><time>2026-04-25T12:08:52.001Z</time></trkpt><trkpt lat="43.241307948010174" lon="11.55378802939077"><ele>173.0</ele><time>2026-04-25T12:08:53.001Z</time></trkpt><trkpt lat="43.24139603278531" lon="11.553789575554811"><ele>174.0</ele><time>2026-04-25T12:08:54.001Z</time></trkpt><trkpt lat="43.24148111778532" lon="11.553790741775105"><ele>175.0</ele><time>2026-04-25T12:08:55.001Z</time></trkpt><trkpt lat="43.241596774841845" lon="11.553783705002692"><ele>176.0</ele><time>2026-04-25T12:08:56.001Z</time></trkpt><trkpt lat="43.241700535524814" lon="11.553782082717062"><ele>177.0</ele><time>2026-04-25T12:08:57.001Z</time></trkpt><trkpt lat="43.24178919925827" lon="11.553792407910224"><ele>178.0</ele><time>2026-04-25T12:08:58.001Z</time></trkpt><trkpt lat="43.24188539445693" lon="11.553821325931652"><ele>178.0</ele><time>2026-04-25T12:08:59.001Z</time></trkpt><trkpt lat="43.24197155558553" lon="11.553849349889319"><ele>178.0</ele><time>2026-04-25T12:09:00.001Z</time></trkpt><trkpt lat="43.242064293708914" lon="11.553902338350309"><ele>178.0</ele><time>2026-04-25T12:09:01.001Z</time></trkpt><trkpt lat="43.24213632390145" lon="11.553972844266704"><ele>178.0</ele><time>2026-04-25T12:09:02.001Z</time></trkpt><trkpt lat="43.24222608303424" lon="11.554065656636718"><ele>178.0</ele><time>2026-04-25T12:09:03.001Z</time></trkpt><trkpt lat="43.24231137407706" lon="11.554146489213366"><ele>181.2</ele><time>2026-04-25T12:09:04.001Z</time></trkpt><trkpt lat="43.24240983408045" lon="11.554216166860986"><ele>184.4</ele><time>2026-04-25T12:09:05.001Z</time></trkpt><trkpt lat="43.24249729597135" lon="11.554285794520307"><ele>187.6</ele><time>2026-04-25T12:09:06.001Z</time></trkpt><trkpt lat="43.24258186521191" lon="11.554346861328549"><ele>190.79999999999998</ele><time>2026-04-25T12:09:07.001Z</time></trkpt><trkpt lat="43.2426703956694" lon="11.55440999687003"><ele>194.0</ele><time>2026-04-25T12:09:08.001Z</time></trkpt><trkpt lat="43.24275329055835" lon="11.554445735155069"><ele>194.0</ele><time>2026-04-25T12:09:09.001Z</time></trkpt><trkpt lat="43.24285641138418" lon="11.554492652194396"><ele>194.0</ele><time>2026-04-25T12:09:10.001Z</time></trkpt><trkpt lat="43.24295320354661" lon="11.55451520669666"><ele>194.0</ele><time>2026-04-25T12:09:11.001Z</time></trkpt><trkpt lat="43.24305359988188" lon="11.554541330516594"><ele>194.0</ele><time>2026-04-25T12:09:12.001Z</time></trkpt><trkpt lat="43.24315425204438" lon="11.554528251974354"><ele>194.0</ele><time>2026-04-25T12:09:13.001Z</time></trkpt><trkpt lat="43.24324084719051" lon="11.55451596967972"><ele>195.5</ele><time>2026-04-25T12:09:14.001Z</time></trkpt><trkpt lat="43.2433574147294" lon="11.55450076178234"><ele>197.0</ele><time>2026-04-25T12:09:15.001Z</time></trkpt><trkpt lat="43.24347383487068" lon="11.554484885889211"><ele>198.5</ele><time>2026-04-25T12:09:16.001Z</time></trkpt><trkpt lat="43.243598685042045" lon="11.554471978062356"><ele>200.0</ele><time>2026-04-25T12:09:17.001Z</time></trkpt><trkpt lat="43.243719955540726" lon="11.554448223047258"><ele>200.0</ele><time>2026-04-25T12:09:18.001Z</time></trkpt><trkpt lat="43.24383317796043" lon="11.554430265506495"><ele>200.0</ele><time>2026-04-25T12:09:19.001Z</time></trkpt><trkpt lat="43.24394191831325" lon="11.554410101751445"><ele>200.0</ele><time>2026-04-25T12:09:20.001Z</time></trkpt><trkpt lat="43.24405455661399" lon="11.554387437737569"><ele>200.0</ele><time>2026-04-25T12:09:21.001Z</time></trkpt><trkpt lat="43.244168171593536" lon="11.55436780141911"><ele>197.5</ele><time>2026-04-25T12:09:22.001Z</time></trkpt><trkpt lat="43.24427945205065" lon="11.554348299636281"><ele>195.0</ele><time>2026-04-25T12:09:23.001Z</time></trkpt><trkpt lat="43.24439082131132" lon="11.554330361613777"><ele>192.5</ele><time>2026-04-25T12:09:24.001Z</time></trkpt><trkpt lat="43.24452190577436" lon="11.554314056788817"><ele>190.0</ele><time>2026-04-25T12:09:25.001Z</time></trkpt><trkpt lat="43.244658763677585" lon="11.55429534705802"><ele>189.0</ele><time>2026-04-25T12:09:26.001Z</time></trkpt><trkpt lat="43.244805825029935" lon="11.554281476503059"><ele>188.0</ele><time>2026-04-25T12:09:27.001Z</time></trkpt><trkpt lat="43.24493617635" lon="11.554265140850644"><ele>187.0</ele><time>2026-04-25T12:09:28.001Z</time></trkpt><trkpt lat="43.24507569354836" lon="11.554246119768646"><ele>186.0</ele><time>2026-04-25T12:09:29.002Z</time></trkpt><trkpt lat="43.24520872716178" lon="11.554219251208245"><ele>186.0</ele><time>2026-04-25T12:09:30.002Z</time></trkpt><trkpt lat="43.245362764127314" lon="11.55419826655733"><ele>186.0</ele><time>2026-04-25T12:09:31.002Z</time></trkpt><trkpt lat="43.24550860517343" lon="11.55417973616686"><ele>186.0</ele><time>2026-04-25T12:09:32.002Z</time></trkpt><trkpt lat="43.24565394038754" lon="11.554167158514103"><ele>186.0</ele><time>2026-04-25T12:09:33.002Z</time></trkpt><trkpt lat="43.24579426173569" lon="11.554144659917068"><ele>183.75</ele><time>2026-04-25T12:09:34.002Z</time></trkpt><trkpt lat="43.245931357935504" lon="11.554125692638241"><ele>181.5</ele><time>2026-04-25T12:09:35.002Z</time></trkpt><trkpt lat="43.24607172262203" lon="11.554105773427123"><ele>179.25</ele><time>2026-04-25T12:09:36.002Z</time></trkpt><trkpt lat="43.24620657916648" lon="11.55408781658011"><ele>177.0</ele><time>2026-04-25T12:09:37.002Z</time></trkpt><trkpt lat="43.24633840913008" lon="11.554075352656165"><ele>176.0</ele><time>2026-04-25T12:09:38.002Z</time></trkpt><trkpt lat="43.24646273353811" lon="11.554066405026816"><ele>175.0</ele><time>2026-04-25T12:09:39.002Z</time></trkpt><trkpt lat="43.24657228757449" lon="11.554072262911058"><ele>174.0</ele><time>2026-04-25T12:09:40.002Z</time></trkpt><trkpt lat="43.24666912083806" lon="11.554114619487226"><ele>173.0</ele><time>2026-04-25T12:09:41.002Z</time></trkpt><trkpt lat="43.24676210516552" lon="11.554168301202502"><ele>172.0</ele><time>2026-04-25T12:09:42.002Z</time></trkpt><trkpt lat="43.24688120737249" lon="11.554232399973744"><ele>172.0</ele><time>2026-04-25T12:09:43.002Z</time></trkpt><trkpt lat="43.24699145867955" lon="11.554313294531843"><ele>172.0</ele><time>2026-04-25T12:09:44.002Z</time></trkpt><trkpt lat="43.2471134952438" lon="11.554405223582219"><ele>172.0</ele><time>2026-04-25T12:09:45.002Z</time></trkpt><trkpt lat="43.24724973651599" lon="11.554507332879085"><ele>172.0</ele><time>2026-04-25T12:09:46.002Z</time></trkpt><trkpt lat="43.24740479181632" lon="11.554621108905833"><ele>173.75</ele><time>2026-04-25T12:09:47.002Z</time></trkpt><trkpt lat="43.247530004763505" lon="11.554712660134529"><ele>175.5</ele><time>2026-04-25T12:09:48.002Z</time></trkpt><trkpt lat="43.24762747538828" lon="11.554794524980604"><ele>177.25</ele><time>2026-04-25T12:09:49.002Z</time></trkpt><trkpt lat="43.247712463196635" lon="11.554863198381087"><ele>179.0</ele><time>2026-04-25T12:09:50.002Z</time></trkpt><trkpt lat="43.247791607100446" lon="11.554944590202641"><ele>179.0</ele><time>2026-04-25T12:09:51.002Z</time></trkpt><trkpt lat="43.24784872503283" lon="11.555037490261714"><ele>179.0</ele><time>2026-04-25T12:09:52.002Z</time></trkpt><trkpt lat="43.24790431124361" lon="11.555144919425512"><ele>179.0</ele><time>2026-04-25T12:09:53.002Z</time></trkpt><trkpt lat="43.24797037757146" lon="11.555279873658321"><ele>179.0</ele><time>2026-04-25T12:09:54.002Z</time></trkpt><trkpt lat="43.24804154195919" lon="11.555393466969235"><ele>179.0</ele><time>2026-04-25T12:09:55.002Z</time></trkpt><trkpt lat="43.248119743569475" lon="11.555493021519398"><ele>181.0</ele><time>2026-04-25T12:09:56.002Z</time></trkpt><trkpt lat="43.24822227697511" lon="11.555596839535733"><ele>183.0</ele><time>2026-04-25T12:09:57.002Z</time></trkpt><trkpt lat="43.24831996289934" lon="11.555687426399865"><ele>185.0</ele><time>2026-04-25T12:09:58.002Z</time></trkpt><trkpt lat="43.248420543804116" lon="11.555772037371046"><ele>187.0</ele><time>2026-04-25T12:09:59.002Z</time></trkpt><trkpt lat="43.24852045424358" lon="11.55585571002804"><ele>187.0</ele><time>2026-04-25T12:10:00.002Z</time></trkpt><trkpt lat="43.24861350810006" lon="11.55592769196532"><ele>187.0</ele><time>2026-04-25T12:10:01.002Z</time></trkpt><trkpt lat="43.248704405868644" lon="11.555996569917678"><ele>187.0</ele><time>2026-04-25T12:10:02.002Z</time></trkpt><trkpt lat="43.24879201090796" lon="11.556048113388572"><ele>187.0</ele><time>2026-04-25T12:10:03.002Z</time></trkpt><trkpt lat="43.2488888383406" lon="11.556073772600213"><ele>187.0</ele><time>2026-04-25T12:10:04.002Z</time></trkpt><trkpt lat="43.24899392695779" lon="11.55607921242579"><ele>189.25</ele><time>2026-04-25T12:10:05.002Z</time></trkpt><trkpt lat="43.24911203865507" lon="11.556058124330352"><ele>191.5</ele><time>2026-04-25T12:10:06.002Z</time></trkpt><trkpt lat="43.24924397577167" lon="11.55602386024592"><ele>193.75</ele><time>2026-04-25T12:10:07.003Z</time></trkpt><trkpt lat="43.249355389430306" lon="11.556000465359796"><ele>196.0</ele><time>2026-04-25T12:10:08.003Z</time></trkpt><trkpt lat="43.24945927507131" lon="11.555982056427833"><ele>196.0</ele><time>2026-04-25T12:10:09.003Z</time></trkpt><trkpt lat="43.24957052445683" lon="11.55596149330094"><ele>196.0</ele><time>2026-04-25T12:10:10.003Z</time></trkpt><trkpt lat="43.24968548788247" lon="11.555954982665906"><ele>196.0</ele><time>2026-04-25T12:10:11.003Z</time></trkpt><trkpt lat="43.24979894390166" lon="11.555952165557384"><ele>196.0</ele><time>2026-04-25T12:10:12.003Z</time></trkpt><trkpt lat="43.24989952524341" lon="11.555937906799643"><ele>196.0</ele><time>2026-04-25T12:10:13.003Z</time></trkpt><trkpt lat="43.24999311374889" lon="11.555905431475757"><ele>196.60000000000002</ele><time>2026-04-25T12:10:14.003Z</time></trkpt><trkpt lat="43.25008206683285" lon="11.555854516087399"><ele>197.2</ele><time>2026-04-25T12:10:15.003Z</time></trkpt><trkpt lat="43.250169010573295" lon="11.555790695476796"><ele>197.8</ele><time>2026-04-25T12:10:16.003Z</time></trkpt><trkpt lat="43.250257676097476" lon="11.555726042053267"><ele>198.39999999999998</ele><time>2026-04-25T12:10:17.003Z</time></trkpt><trkpt lat="43.250352509673135" lon="11.555639233614997"><ele>199.0</ele><time>2026-04-25T12:10:18.003Z</time></trkpt><trkpt lat="43.2504447034437" lon="11.555548214568534"><ele>199.0</ele><time>2026-04-25T12:10:19.003Z</time></trkpt><trkpt lat="43.250533172182244" lon="11.555455470100886"><ele>199.0</ele><time>2026-04-25T12:10:20.003Z</time></trkpt><trkpt lat="43.25062151585899" lon="11.555364891943682"><ele>199.0</ele><time>2026-04-25T12:10:21.003Z</time></trkpt><trkpt lat="43.25069824877901" lon="11.555277094689188"><ele>199.0</ele><time>2026-04-25T12:10:22.003Z</time></trkpt><trkpt lat="43.25076681971586" lon="11.555193461679439"><ele>199.0</ele><time>2026-04-25T12:10:23.003Z</time></trkpt><trkpt lat="43.250834856624905" lon="11.555122066520312"><ele>201.66666666666666</ele><time>2026-04-25T12:10:24.003Z</time></trkpt><trkpt lat="43.25089716292609" lon="11.555063816181557"><ele>204.33333333333331</ele><time>2026-04-25T12:10:25.001Z</time></trkpt><trkpt lat="43.25095956622423" lon="11.555016794094271"><ele>207.0</ele><time>2026-04-25T12:10:26.001Z</time></trkpt><trkpt lat="43.251032539125134" lon="11.55497538803917"><ele>209.66666666666669</ele><time>2026-04-25T12:10:27.001Z</time></trkpt><trkpt lat="43.251108130839505" lon="11.55493650611927"><ele>212.33333333333334</ele><time>2026-04-25T12:10:28.001Z</time></trkpt><trkpt lat="43.25118012456574" lon="11.554893952274785"><ele>215.0</ele><time>2026-04-25T12:10:29.001Z</time></trkpt><trkpt lat="43.25125322370819" lon="11.554853545468015"><ele>215.0</ele><time>2026-04-25T12:10:30.001Z</time></trkpt><trkpt lat="43.25134096776485" lon="11.554822445737557"><ele>215.0</ele><time>2026-04-25T12:10:31.001Z</time></trkpt><trkpt lat="43.25143669929271" lon="11.554793600890461"><ele>215.0</ele><time>2026-04-25T12:10:32.001Z</time></trkpt><trkpt lat="43.25153252135719" lon="11.554757077563961"><ele>215.0</ele><time>2026-04-25T12:10:33.001Z</time></trkpt><trkpt lat="43.25162733966332" lon="11.554724721967514"><ele>215.0</ele><time>2026-04-25T12:10:34.001Z</time></trkpt><trkpt lat="43.251721311190224" lon="11.554693515908726"><ele>214.6</ele><time>2026-04-25T12:10:35.001Z</time></trkpt><trkpt lat="43.25178592679327" lon="11.554673778624995"><ele>214.2</ele><time>2026-04-25T12:10:36.001Z</time></trkpt><trkpt lat="43.25192070671732" lon="11.554626140141435"><ele>213.8</ele><time>2026-04-25T12:10:38.001Z</time></trkpt><trkpt lat="43.2520304479427" lon="11.554605326641392"><ele>213.4</ele><time>2026-04-25T12:10:40.001Z</time></trkpt><trkpt lat="43.25215370565399" lon="11.554596676377072"><ele>213.0</ele><time>2026-04-25T12:10:42.001Z</time></trkpt><trkpt lat="43.252222018893946" lon="11.554605490147742"><ele>213.0</ele><time>2026-04-25T12:10:43.001Z</time></trkpt><trkpt lat="43.25228839541941" lon="11.554621971078113"><ele>213.0</ele><time>2026-04-25T12:10:44.001Z</time></trkpt><trkpt lat="43.25236643193131" lon="11.554645956416655"><ele>213.0</ele><time>2026-04-25T12:10:45.001Z</time></trkpt><trkpt lat="43.252452621490846" lon="11.55468374801772"><ele>213.0</ele><time>2026-04-25T12:10:46.001Z</time></trkpt><trkpt lat="43.25255821439753" lon="11.554697585445943"><ele>213.0</ele><time>2026-04-25T12:10:47.001Z</time></trkpt><trkpt lat="43.25265929538412" lon="11.554699869859625"><ele>213.0</ele><time>2026-04-25T12:10:48.001Z</time></trkpt><trkpt lat="43.25276233752341" lon="11.554693390392915"><ele>213.25</ele><time>2026-04-25T12:10:49.001Z</time></trkpt><trkpt lat="43.25286843014068" lon="11.554675521019545"><ele>213.5</ele><time>2026-04-25T12:10:50.001Z</time></trkpt><trkpt lat="43.252993611490936" lon="11.55464192538459"><ele>213.75</ele><time>2026-04-25T12:10:51.001Z</time></trkpt><trkpt lat="43.25311157916069" lon="11.554610251124409"><ele>214.0</ele><time>2026-04-25T12:10:52.001Z</time></trkpt><trkpt lat="43.25322104952959" lon="11.554566676095297"><ele>216.99999999999997</ele><time>2026-04-25T12:10:53.001Z</time></trkpt><trkpt lat="43.25332215079488" lon="11.554513585536643"><ele>220.0</ele><time>2026-04-25T12:10:54.001Z</time></trkpt><trkpt lat="43.253405889250075" lon="11.554461183394203"><ele>223.0</ele><time>2026-04-25T12:10:55.001Z</time></trkpt><trkpt lat="43.253483631278044" lon="11.554403945809772"><ele>226.0</ele><time>2026-04-25T12:10:56.001Z</time></trkpt><trkpt lat="43.25355284530051" lon="11.554351642168845"><ele>228.99999999999997</ele><time>2026-04-25T12:10:57.001Z</time></trkpt><trkpt lat="43.25361232521471" lon="11.554304803723142"><ele>232.0</ele><time>2026-04-25T12:10:58.001Z</time></trkpt><trkpt lat="43.25371412150126" lon="11.554222868385347"><ele>231.99999999999997</ele><time>2026-04-25T12:11:00.001Z</time></trkpt><trkpt lat="43.253775471378425" lon="11.554170845310153"><ele>232.0</ele><time>2026-04-25T12:11:01.001Z</time></trkpt><trkpt lat="43.253844792914656" lon="11.554107589278582"><ele>232.0</ele><time>2026-04-25T12:11:02.001Z</time></trkpt><trkpt lat="43.25390289323877" lon="11.554029994225896"><ele>232.0</ele><time>2026-04-25T12:11:03.001Z</time></trkpt><trkpt lat="43.25395710249468" lon="11.55393389884458"><ele>231.99999999999997</ele><time>2026-04-25T12:11:04.001Z</time></trkpt><trkpt lat="43.253999152007296" lon="11.553823554641294"><ele>232.0</ele><time>2026-04-25T12:11:05.001Z</time></trkpt><trkpt lat="43.25402888915696" lon="11.55370442644289"><ele>234.16666666666666</ele><time>2026-04-25T12:11:06.001Z</time></trkpt><trkpt lat="43.25404572441671" lon="11.553590757560963"><ele>236.33333333333331</ele><time>2026-04-25T12:11:07.001Z</time></trkpt><trkpt lat="43.2540524969906" lon="11.553473062338561"><ele>238.5</ele><time>2026-04-25T12:11:08.001Z</time></trkpt><trkpt lat="43.254055997776355" lon="11.553359089043553"><ele>240.66666666666669</ele><time>2026-04-25T12:11:09.001Z</time></trkpt><trkpt lat="43.25407000563732" lon="11.553249574677972"><ele>242.83333333333334</ele><time>2026-04-25T12:11:10.001Z</time></trkpt><trkpt lat="43.25409767169152" lon="11.553149996700713"><ele>245.0</ele><time>2026-04-25T12:11:11.001Z</time></trkpt><trkpt lat="43.254134895070116" lon="11.553067314219438"><ele>245.0</ele><time>2026-04-25T12:11:12.001Z</time></trkpt><trkpt lat="43.25422367929163" lon="11.552968953803372"><ele>245.0</ele><time>2026-04-25T12:11:14.001Z</time></trkpt><trkpt lat="43.254347918111556" lon="11.552908805891523"><ele>245.0</ele><time>2026-04-25T12:11:16.001Z</time></trkpt><trkpt lat="43.25448212947405" lon="11.552895713038401"><ele>245.0</ele><time>2026-04-25T12:11:18.001Z</time></trkpt><trkpt lat="43.254560238050196" lon="11.55289581134821"><ele>245.0</ele><time>2026-04-25T12:11:19.001Z</time></trkpt><trkpt lat="43.254665683328156" lon="11.552887764248764"><ele>245.0</ele><time>2026-04-25T12:11:20.001Z</time></trkpt><trkpt lat="43.254782323499924" lon="11.55287792879941"><ele>245.0</ele><time>2026-04-25T12:11:21.001Z</time></trkpt><trkpt lat="43.254888939023395" lon="11.552866093956366"><ele>245.0</ele><time>2026-04-25T12:11:22.001Z</time></trkpt><trkpt lat="43.255010213703734" lon="11.552856839742429"><ele>245.6</ele><time>2026-04-25T12:11:23.001Z</time></trkpt><trkpt lat="43.255122875743005" lon="11.552850608156138"><ele>246.2</ele><time>2026-04-25T12:11:24.001Z</time></trkpt><trkpt lat="43.25522853451599" lon="11.552851553942235"><ele>246.8</ele><time>2026-04-25T12:11:25.001Z</time></trkpt><trkpt lat="43.255328089499855" lon="11.552855780947203"><ele>247.4</ele><time>2026-04-25T12:11:26.001Z</time></trkpt><trkpt lat="43.255422063763135" lon="11.552854236460808"><ele>248.0</ele><time>2026-04-25T12:11:27.001Z</time></trkpt><trkpt lat="43.25552309116155" lon="11.552881950082032"><ele>249.0</ele><time>2026-04-25T12:11:28.001Z</time></trkpt><trkpt lat="43.255623496098224" lon="11.552925513845432"><ele>250.0</ele><time>2026-04-25T12:11:29.001Z</time></trkpt><trkpt lat="43.25571849108028" lon="11.55298149761363"><ele>251.0</ele><time>2026-04-25T12:11:30.001Z</time></trkpt><trkpt lat="43.25584321136421" lon="11.55305372011332"><ele>252.0</ele><time>2026-04-25T12:11:31.001Z</time></trkpt><trkpt lat="43.25597638187721" lon="11.553139653674146"><ele>252.0</ele><time>2026-04-25T12:11:32.001Z</time></trkpt><trkpt lat="43.25609659821189" lon="11.553220634626175"><ele>252.0</ele><time>2026-04-25T12:11:33.002Z</time></trkpt><trkpt lat="43.25622105612195" lon="11.553298439965756"><ele>252.0</ele><time>2026-04-25T12:11:34.002Z</time></trkpt><trkpt lat="43.256338545354815" lon="11.553375941437142"><ele>252.0</ele><time>2026-04-25T12:11:35.002Z</time></trkpt><trkpt lat="43.25644975440054" lon="11.55345496493122"><ele>251.8</ele><time>2026-04-25T12:11:36.002Z</time></trkpt><trkpt lat="43.25654759217814" lon="11.553523240421882"><ele>251.6</ele><time>2026-04-25T12:11:37.002Z</time></trkpt><trkpt lat="43.256644742552055" lon="11.553587882758949"><ele>251.40000000000003</ele><time>2026-04-25T12:11:38.002Z</time></trkpt><trkpt lat="43.25673978663298" lon="11.553637134636631"><ele>251.20000000000002</ele><time>2026-04-25T12:11:39.002Z</time></trkpt><trkpt lat="43.25682869323406" lon="11.553666230503133"><ele>251.0</ele><time>2026-04-25T12:11:40.002Z</time></trkpt><trkpt lat="43.256926154889626" lon="11.553677930515308"><ele>251.0</ele><time>2026-04-25T12:11:41.002Z</time></trkpt><trkpt lat="43.25702893814255" lon="11.553671781614392"><ele>251.0</ele><time>2026-04-25T12:11:42.002Z</time></trkpt><trkpt lat="43.257134155465955" lon="11.553642898609787"><ele>251.0</ele><time>2026-04-25T12:11:43.002Z</time></trkpt><trkpt lat="43.257257464820015" lon="11.553607342224355"><ele>251.0</ele><time>2026-04-25T12:11:44.002Z</time></trkpt><trkpt lat="43.257391711241596" lon="11.553572050760492"><ele>251.25</ele><time>2026-04-25T12:11:45.002Z</time></trkpt><trkpt lat="43.2575234426697" lon="11.553519499212758"><ele>251.5</ele><time>2026-04-25T12:11:46.002Z</time></trkpt><trkpt lat="43.25765055676365" lon="11.553462816778046"><ele>251.75</ele><time>2026-04-25T12:11:47.002Z</time></trkpt><trkpt lat="43.25777002106082" lon="11.553406144221393"><ele>252.0</ele><time>2026-04-25T12:11:48.002Z</time></trkpt><trkpt lat="43.2578864290611" lon="11.553350691636673"><ele>252.0</ele><time>2026-04-25T12:11:49.002Z</time></trkpt><trkpt lat="43.25800467503804" lon="11.553297598546202"><ele>252.0</ele><time>2026-04-25T12:11:50.002Z</time></trkpt><trkpt lat="43.25812606814514" lon="11.553255135539844"><ele>252.0</ele><time>2026-04-25T12:11:51.002Z</time></trkpt><trkpt lat="43.258266333699005" lon="11.553213914401027"><ele>252.0</ele><time>2026-04-25T12:11:52.002Z</time></trkpt><trkpt lat="43.258396214382785" lon="11.553178575244832"><ele>252.0</ele><time>2026-04-25T12:11:53.002Z</time></trkpt><trkpt lat="43.25851759301361" lon="11.553149420060532"><ele>252.0</ele><time>2026-04-25T12:11:54.002Z</time></trkpt><trkpt lat="43.25863146250285" lon="11.553120020491173"><ele>252.0</ele><time>2026-04-25T12:11:55.002Z</time></trkpt><trkpt lat="43.25874049942386" lon="11.55308963314407"><ele>252.0</ele><time>2026-04-25T12:11:56.002Z</time></trkpt><trkpt lat="43.2588412263963" lon="11.553049417697803"><ele>252.0</ele><time>2026-04-25T12:11:57.002Z</time></trkpt><trkpt lat="43.25894280325937" lon="11.552991312914934"><ele>252.0</ele><time>2026-04-25T12:11:58.002Z</time></trkpt><trkpt lat="43.25903957411912" lon="11.552913810803899"><ele>252.0</ele><time>2026-04-25T12:11:59.002Z</time></trkpt><trkpt lat="43.25912862439822" lon="11.552818540908733"><ele>252.0</ele><time>2026-04-25T12:12:00.002Z</time></trkpt><trkpt lat="43.25921655886032" lon="11.552708677371392"><ele>250.5</ele><time>2026-04-25T12:12:01.002Z</time></trkpt><trkpt lat="43.25929493063254" lon="11.552598366058216"><ele>249.0</ele><time>2026-04-25T12:12:02.002Z</time></trkpt><trkpt lat="43.2593680180277" lon="11.552478886888215"><ele>247.5</ele><time>2026-04-25T12:12:03.002Z</time></trkpt><trkpt lat="43.25943818267509" lon="11.552348466796175"><ele>246.0</ele><time>2026-04-25T12:12:04.002Z</time></trkpt><trkpt lat="43.25949560234002" lon="11.552209249214958"><ele>246.0</ele><time>2026-04-25T12:12:05.002Z</time></trkpt><trkpt lat="43.259542627593206" lon="11.552053214642784"><ele>246.0</ele><time>2026-04-25T12:12:06.002Z</time></trkpt><trkpt lat="43.259583002690675" lon="11.551893234307895"><ele>246.0</ele><time>2026-04-25T12:12:07.002Z</time></trkpt><trkpt lat="43.25962007659973" lon="11.551739209185287"><ele>246.0</ele><time>2026-04-25T12:12:08.002Z</time></trkpt><trkpt lat="43.25965800166282" lon="11.551596903003363"><ele>246.0</ele><time>2026-04-25T12:12:09.002Z</time></trkpt><trkpt lat="43.25968588226958" lon="11.551466621625515"><ele>246.0</ele><time>2026-04-25T12:12:10.002Z</time></trkpt><trkpt lat="43.25970709685083" lon="11.551352543672714"><ele>246.0</ele><time>2026-04-25T12:12:11.002Z</time></trkpt><trkpt lat="43.25973139779988" lon="11.551245573617349"><ele>246.0</ele><time>2026-04-25T12:12:12.002Z</time></trkpt><trkpt lat="43.25976255857711" lon="11.551133398257189"><ele>246.0</ele><time>2026-04-25T12:12:13.002Z</time></trkpt><trkpt lat="43.25979973575529" lon="11.551018867678634"><ele>246.0</ele><time>2026-04-25T12:12:14.002Z</time></trkpt><trkpt lat="43.25984982689252" lon="11.55091453208066"><ele>246.4</ele><time>2026-04-25T12:12:15.002Z</time></trkpt><trkpt lat="43.25990867522174" lon="11.55081305911166"><ele>246.8</ele><time>2026-04-25T12:12:16.003Z</time></trkpt><trkpt lat="43.259970467575485" lon="11.550709290622125"><ele>247.20000000000002</ele><time>2026-04-25T12:12:17.003Z</time></trkpt><trkpt lat="43.26003602450006" lon="11.550597655144278"><ele>247.60000000000002</ele><time>2026-04-25T12:12:18.003Z</time></trkpt><trkpt lat="43.260101296851" lon="11.550486496795122"><ele>248.0</ele><time>2026-04-25T12:12:19.003Z</time></trkpt><trkpt lat="43.26017077987969" lon="11.550368994282778"><ele>246.60000000000002</ele><time>2026-04-25T12:12:20.003Z</time></trkpt><trkpt lat="43.26024186309373" lon="11.550256660319338"><ele>245.20000000000002</ele><time>2026-04-25T12:12:21.003Z</time></trkpt><trkpt lat="43.2603185687518" lon="11.550158417819597"><ele>243.8</ele><time>2026-04-25T12:12:22.003Z</time></trkpt><trkpt lat="43.260411537780385" lon="11.550067138118145"><ele>242.4</ele><time>2026-04-25T12:12:23.003Z</time></trkpt><trkpt lat="43.260507067688295" lon="11.549995756650036"><ele>241.0</ele><time>2026-04-25T12:12:24.003Z</time></trkpt><trkpt lat="43.26061138446729" lon="11.549945788812563"><ele>239.0</ele><time>2026-04-25T12:12:25.003Z</time></trkpt><trkpt lat="43.26071755563517" lon="11.54990617530475"><ele>237.0</ele><time>2026-04-25T12:12:26.003Z</time></trkpt><trkpt lat="43.2608252938075" lon="11.54987898962441"><ele>235.0</ele><time>2026-04-25T12:12:27.003Z</time></trkpt><trkpt lat="43.26094165210248" lon="11.549871877093034"><ele>233.0</ele><time>2026-04-25T12:12:28.003Z</time></trkpt><trkpt lat="43.26105569239212" lon="11.549884079559053"><ele>233.0</ele><time>2026-04-25T12:12:29.003Z</time></trkpt><trkpt lat="43.26116443380181" lon="11.54990182676171"><ele>233.0</ele><time>2026-04-25T12:12:30.003Z</time></trkpt><trkpt lat="43.26127149290381" lon="11.549913695014094"><ele>233.0</ele><time>2026-04-25T12:12:31.001Z</time></trkpt><trkpt lat="43.2613851389453" lon="11.549911937303065"><ele>233.0</ele><time>2026-04-25T12:12:32.001Z</time></trkpt><trkpt lat="43.26150034030601" lon="11.54989130347349"><ele>233.0</ele><time>2026-04-25T12:12:33.001Z</time></trkpt><trkpt lat="43.26162124823457" lon="11.549850013928433"><ele>233.5</ele><time>2026-04-25T12:12:34.001Z</time></trkpt><trkpt lat="43.26174192053558" lon="11.549795429224757"><ele>234.0</ele><time>2026-04-25T12:12:35.001Z</time></trkpt><trkpt lat="43.261856530678564" lon="11.54971754809384"><ele>234.5</ele><time>2026-04-25T12:12:36.001Z</time></trkpt><trkpt lat="43.26197369711361" lon="11.549610733455415"><ele>235.0</ele><time>2026-04-25T12:12:37.001Z</time></trkpt><trkpt lat="43.26210319482778" lon="11.54947859611762"><ele>235.5</ele><time>2026-04-25T12:12:38.001Z</time></trkpt><trkpt lat="43.26222592407881" lon="11.54933993619104"><ele>236.0</ele><time>2026-04-25T12:12:39.001Z</time></trkpt><trkpt lat="43.26233212553461" lon="11.549210303434505"><ele>236.5</ele><time>2026-04-25T12:12:40.001Z</time></trkpt><trkpt lat="43.262434715469084" lon="11.5490776616875"><ele>237.0</ele><time>2026-04-25T12:12:41.001Z</time></trkpt><trkpt lat="43.26252553843049" lon="11.54894207878022"><ele>239.25</ele><time>2026-04-25T12:12:42.001Z</time></trkpt><trkpt lat="43.26260303594148" lon="11.54880021062652"><ele>241.5</ele><time>2026-04-25T12:12:43.001Z</time></trkpt><trkpt lat="43.2626844890074" lon="11.548646185130577"><ele>243.75</ele><time>2026-04-25T12:12:44.001Z</time></trkpt><trkpt lat="43.26276352948616" lon="11.548494959474553"><ele>246.0</ele><time>2026-04-25T12:12:45.001Z</time></trkpt><trkpt lat="43.26283779125512" lon="11.548364714064427"><ele>248.0</ele><time>2026-04-25T12:12:46.001Z</time></trkpt><trkpt lat="43.26290976858862" lon="11.54824094187632"><ele>250.0</ele><time>2026-04-25T12:12:47.001Z</time></trkpt><trkpt lat="43.26297752937329" lon="11.5481131489894"><ele>252.0</ele><time>2026-04-25T12:12:48.001Z</time></trkpt><trkpt lat="43.263040412874965" lon="11.547959575619332"><ele>254.0</ele><time>2026-04-25T12:12:49.001Z</time></trkpt><trkpt lat="43.26309148132564" lon="11.547812580041326"><ele>256.0</ele><time>2026-04-25T12:12:50.001Z</time></trkpt><trkpt lat="43.26314272206237" lon="11.547688393646823"><ele>258.0</ele><time>2026-04-25T12:12:51.001Z</time></trkpt><trkpt lat="43.26319639347288" lon="11.547564433136834"><ele>260.0</ele><time>2026-04-25T12:12:52.001Z</time></trkpt><trkpt lat="43.26325946481806" lon="11.547438285523004"><ele>262.0</ele><time>2026-04-25T12:12:53.001Z</time></trkpt><trkpt lat="43.26332947686586" lon="11.54733030069194"><ele>264.0</ele><time>2026-04-25T12:12:54.001Z</time></trkpt><trkpt lat="43.263389940186855" lon="11.547248382602325"><ele>264.0</ele><time>2026-04-25T12:12:55.001Z</time></trkpt><trkpt lat="43.26346310321593" lon="11.547172406751214"><ele>264.0</ele><time>2026-04-25T12:12:56.001Z</time></trkpt><trkpt lat="43.26352398760462" lon="11.547106991316202"><ele>264.0</ele><time>2026-04-25T12:12:57.001Z</time></trkpt><trkpt lat="43.263597696877234" lon="11.547040154667604"><ele>264.0</ele><time>2026-04-25T12:12:58.001Z</time></trkpt><trkpt lat="43.26367885870741" lon="11.546964008215667"><ele>264.0</ele><time>2026-04-25T12:12:59.001Z</time></trkpt><trkpt lat="43.263773575750555" lon="11.546881815215805"><ele>264.0</ele><time>2026-04-25T12:13:00.001Z</time></trkpt><trkpt lat="43.2638723114809" lon="11.546796422837106"><ele>264.0</ele><time>2026-04-25T12:13:01.001Z</time></trkpt><trkpt lat="43.263973932833096" lon="11.546702769747224"><ele>264.0</ele><time>2026-04-25T12:13:02.001Z</time></trkpt><trkpt lat="43.26407328162706" lon="11.546610938818365"><ele>264.0</ele><time>2026-04-25T12:13:03.001Z</time></trkpt><trkpt lat="43.26416894855918" lon="11.546507056628581"><ele>264.0</ele><time>2026-04-25T12:13:04.001Z</time></trkpt><trkpt lat="43.264254237297266" lon="11.54640464116255"><ele>264.0</ele><time>2026-04-25T12:13:05.001Z</time></trkpt><trkpt lat="43.264331956542705" lon="11.546293656566673"><ele>264.0</ele><time>2026-04-25T12:13:06.001Z</time></trkpt><trkpt lat="43.26439790483269" lon="11.546167359822684"><ele>264.0</ele><time>2026-04-25T12:13:07.001Z</time></trkpt><trkpt lat="43.26444278773304" lon="11.546026861514013"><ele>266.4</ele><time>2026-04-25T12:13:08.001Z</time></trkpt><trkpt lat="43.26448407263082" lon="11.54587846932218"><ele>268.79999999999995</ele><time>2026-04-25T12:13:09.001Z</time></trkpt><trkpt lat="43.26451439303486" lon="11.54573396506258"><ele>271.20000000000005</ele><time>2026-04-25T12:13:10.001Z</time></trkpt><trkpt lat="43.26453170528861" lon="11.545593885776295"><ele>273.6</ele><time>2026-04-25T12:13:11.001Z</time></trkpt><trkpt lat="43.26455046784107" lon="11.545450404059398"><ele>276.0</ele><time>2026-04-25T12:13:12.001Z</time></trkpt><trkpt lat="43.264565690525686" lon="11.545309547373762"><ele>276.1666666666667</ele><time>2026-04-25T12:13:13.001Z</time></trkpt><trkpt lat="43.26458539231326" lon="11.545181271631222"><ele>276.3333333333333</ele><time>2026-04-25T12:13:14.001Z</time></trkpt><trkpt lat="43.26459871121701" lon="11.545062858784782"><ele>276.5</ele><time>2026-04-25T12:13:15.001Z</time></trkpt><trkpt lat="43.26461738916924" lon="11.544951146745865"><ele>276.66666666666663</ele><time>2026-04-25T12:13:16.001Z</time></trkpt><trkpt lat="43.26462787032919" lon="11.544845303222733"><ele>276.8333333333333</ele><time>2026-04-25T12:13:17.001Z</time></trkpt><trkpt lat="43.264642270496914" lon="11.544738459235795"><ele>277.0</ele><time>2026-04-25T12:13:18.001Z</time></trkpt><trkpt lat="43.264681224186795" lon="11.54462352871931"><ele>274.8</ele><time>2026-04-25T12:13:19.001Z</time></trkpt><trkpt lat="43.26472377007222" lon="11.544511229645476"><ele>272.6</ele><time>2026-04-25T12:13:20.001Z</time></trkpt><trkpt lat="43.26478052557463" lon="11.544404427726992"><ele>270.40000000000003</ele><time>2026-04-25T12:13:21.001Z</time></trkpt><trkpt lat="43.264838278995484" lon="11.544295648298661"><ele>268.2</ele><time>2026-04-25T12:13:22.001Z</time></trkpt><trkpt lat="43.264899568894144" lon="11.544193841053293"><ele>266.0</ele><time>2026-04-25T12:13:23.001Z</time></trkpt><trkpt lat="43.26495575577139" lon="11.544091172308002"><ele>263.40000000000003</ele><time>2026-04-25T12:13:24.001Z</time></trkpt><trkpt lat="43.26500646719145" lon="11.543974646912938"><ele>260.8</ele><time>2026-04-25T12:13:25.001Z</time></trkpt><trkpt lat="43.26505040316376" lon="11.543846622386356"><ele>258.20000000000005</ele><time>2026-04-25T12:13:26.001Z</time></trkpt><trkpt lat="43.26509237412158" lon="11.543726635850222"><ele>255.60000000000002</ele><time>2026-04-25T12:13:27.001Z</time></trkpt><trkpt lat="43.265132393139616" lon="11.543611073272595"><ele>253.0</ele><time>2026-04-25T12:13:28.001Z</time></trkpt><trkpt lat="43.26516939970283" lon="11.543489589608168"><ele>251.2</ele><time>2026-04-25T12:13:29.001Z</time></trkpt><trkpt lat="43.26519860344141" lon="11.543359641099741"><ele>249.4</ele><time>2026-04-25T12:13:30.001Z</time></trkpt><trkpt lat="43.26520568959084" lon="11.543214372057296"><ele>247.59999999999997</ele><time>2026-04-25T12:13:31.001Z</time></trkpt><trkpt lat="43.2652022087769" lon="11.543067009555573"><ele>245.79999999999998</ele><time>2026-04-25T12:13:32.001Z</time></trkpt><trkpt lat="43.265191671739004" lon="11.54291484851097"><ele>244.0</ele><time>2026-04-25T12:13:33.001Z</time></trkpt><trkpt lat="43.26518029355755" lon="11.542765535785927"><ele>242.6</ele><time>2026-04-25T12:13:34.001Z</time></trkpt><trkpt lat="43.265181884102645" lon="11.542616777959129"><ele>241.2</ele><time>2026-04-25T12:13:35.001Z</time></trkpt><trkpt lat="43.26518815746789" lon="11.542478114897225"><ele>239.79999999999998</ele><time>2026-04-25T12:13:36.001Z</time></trkpt><trkpt lat="43.26521094914125" lon="11.542340456590221"><ele>238.39999999999998</ele><time>2026-04-25T12:13:37.001Z</time></trkpt><trkpt lat="43.26525103303244" lon="11.54220796036337"><ele>237.0</ele><time>2026-04-25T12:13:38.001Z</time></trkpt><trkpt lat="43.2653077820411" lon="11.54205573489345"><ele>236.25</ele><time>2026-04-25T12:13:39.002Z</time></trkpt><trkpt lat="43.265362420203914" lon="11.541899294437112"><ele>235.5</ele><time>2026-04-25T12:13:40.002Z</time></trkpt><trkpt lat="43.26541015319329" lon="11.541725116380215"><ele>234.75</ele><time>2026-04-25T12:13:41.002Z</time></trkpt><trkpt lat="43.26544711309866" lon="11.541541773459338"><ele>234.0</ele><time>2026-04-25T12:13:42.002Z</time></trkpt><trkpt lat="43.26547225421113" lon="11.541354322873518"><ele>235.0</ele><time>2026-04-25T12:13:43.002Z</time></trkpt><trkpt lat="43.26549677412324" lon="11.541154724661741"><ele>236.0</ele><time>2026-04-25T12:13:44.002Z</time></trkpt><trkpt lat="43.265515212006775" lon="11.540982111091886"><ele>237.0</ele><time>2026-04-25T12:13:45.002Z</time></trkpt><trkpt lat="43.26553610566566" lon="11.540826261842781"><ele>238.0</ele><time>2026-04-25T12:13:46.002Z</time></trkpt><trkpt lat="43.265553515068504" lon="11.540686148060326"><ele>238.0</ele><time>2026-04-25T12:13:47.002Z</time></trkpt><trkpt lat="43.2655819394064" lon="11.54057319490359"><ele>238.0</ele><time>2026-04-25T12:13:48.002Z</time></trkpt><trkpt lat="43.26562639521162" lon="11.540472488708518"><ele>238.0</ele><time>2026-04-25T12:13:49.002Z</time></trkpt><trkpt lat="43.26568258678921" lon="11.540379405043357"><ele>238.0</ele><time>2026-04-25T12:13:50.002Z</time></trkpt><trkpt lat="43.26575173221746" lon="11.54028675928418"><ele>238.0</ele><time>2026-04-25T12:13:51.002Z</time></trkpt><trkpt lat="43.265830283444394" lon="11.540171529484656"><ele>240.25</ele><time>2026-04-25T12:13:52.002Z</time></trkpt><trkpt lat="43.26590665235851" lon="11.540056748761305"><ele>242.5</ele><time>2026-04-25T12:13:53.002Z</time></trkpt><trkpt lat="43.26598591425194" lon="11.539940031541672"><ele>244.75</ele><time>2026-04-25T12:13:54.002Z</time></trkpt><trkpt lat="43.26607001877517" lon="11.539819059170066"><ele>247.0</ele><time>2026-04-25T12:13:55.002Z</time></trkpt><trkpt lat="43.26615243075278" lon="11.539702294767256"><ele>247.0</ele><time>2026-04-25T12:13:56.002Z</time></trkpt><trkpt lat="43.26623368287976" lon="11.539581326220395"><ele>247.0</ele><time>2026-04-25T12:13:57.002Z</time></trkpt><trkpt lat="43.26630613684182" lon="11.539462030204744"><ele>247.0</ele><time>2026-04-25T12:13:58.002Z</time></trkpt><trkpt lat="43.266371259486874" lon="11.53933776486695"><ele>247.0</ele><time>2026-04-25T12:13:59.002Z</time></trkpt><trkpt lat="43.2664308361448" lon="11.539217010941414"><ele>245.49999999999997</ele><time>2026-04-25T12:14:00.002Z</time></trkpt><trkpt lat="43.26649508782859" lon="11.539112415718868"><ele>244.0</ele><time>2026-04-25T12:14:01.002Z</time></trkpt><trkpt lat="43.266558816273445" lon="11.539039973969848"><ele>242.5</ele><time>2026-04-25T12:14:02.002Z</time></trkpt><trkpt lat="43.26662120522978" lon="11.538996212906978"><ele>241.0</ele><time>2026-04-25T12:14:03.002Z</time></trkpt><trkpt lat="43.266695488084544" lon="11.538956817537981"><ele>239.49999999999997</ele><time>2026-04-25T12:14:04.002Z</time></trkpt><trkpt lat="43.26677299338506" lon="11.538908405934482"><ele>238.0</ele><time>2026-04-25T12:14:05.002Z</time></trkpt><trkpt lat="43.26687046966437" lon="11.538855241222539"><ele>238.0</ele><time>2026-04-25T12:14:06.002Z</time></trkpt><trkpt lat="43.266986682689726" lon="11.538789360561333"><ele>238.0</ele><time>2026-04-25T12:14:07.002Z</time></trkpt><trkpt lat="43.26711584071907" lon="11.53870253727454"><ele>238.0</ele><time>2026-04-25T12:14:08.002Z</time></trkpt><trkpt lat="43.26723661744598" lon="11.538626318433792"><ele>238.0</ele><time>2026-04-25T12:14:09.002Z</time></trkpt><trkpt lat="43.26734573927221" lon="11.538549962585973"><ele>237.0</ele><time>2026-04-25T12:14:10.002Z</time></trkpt><trkpt lat="43.26744751266886" lon="11.538481098009449"><ele>236.0</ele><time>2026-04-25T12:14:11.002Z</time></trkpt><trkpt lat="43.26753922704524" lon="11.538418654038402"><ele>235.0</ele><time>2026-04-25T12:14:12.002Z</time></trkpt><trkpt lat="43.26761464436108" lon="11.538366852667314"><ele>234.0</ele><time>2026-04-25T12:14:13.002Z</time></trkpt><trkpt lat="43.26768398280938" lon="11.538317888873506"><ele>233.0</ele><time>2026-04-25T12:14:14.002Z</time></trkpt><trkpt lat="43.26775419972511" lon="11.538267173748492"><ele>233.00000000000003</ele><time>2026-04-25T12:14:15.002Z</time></trkpt><trkpt lat="43.26782170165524" lon="11.538215203573857"><ele>233.0</ele><time>2026-04-25T12:14:16.002Z</time></trkpt><trkpt lat="43.26789008572808" lon="11.538165777243297"><ele>233.0</ele><time>2026-04-25T12:14:17.002Z</time></trkpt><trkpt lat="43.267964273516526" lon="11.538114046462837"><ele>233.0</ele><time>2026-04-25T12:14:18.002Z</time></trkpt><trkpt lat="43.26804200152198" lon="11.538058417248896"><ele>233.00000000000003</ele><time>2026-04-25T12:14:19.002Z</time></trkpt><trkpt lat="43.26812532316291" lon="11.538003041908999"><ele>233.0</ele><time>2026-04-25T12:14:20.002Z</time></trkpt><trkpt lat="43.26820934276256" lon="11.537944120691346"><ele>230.4</ele><time>2026-04-25T12:14:21.002Z</time></trkpt><trkpt lat="43.26830346105539" lon="11.537886046118912"><ele>227.8</ele><time>2026-04-25T12:14:22.002Z</time></trkpt><trkpt lat="43.26839491481261" lon="11.537819600516931"><ele>225.2</ele><time>2026-04-25T12:14:23.002Z</time></trkpt><trkpt lat="43.26848202749959" lon="11.537758402723092"><ele>222.6</ele><time>2026-04-25T12:14:24.002Z</time></trkpt><trkpt lat="43.26856745669488" lon="11.537702715581016"><ele>220.0</ele><time>2026-04-25T12:14:25.002Z</time></trkpt><trkpt lat="43.268654995377695" lon="11.537664339023488"><ele>219.49999999999997</ele><time>2026-04-25T12:14:26.002Z</time></trkpt><trkpt lat="43.26874260799319" lon="11.53764766684405"><ele>219.0</ele><time>2026-04-25T12:14:27.003Z</time></trkpt><trkpt lat="43.26882299158899" lon="11.537665175768108"><ele>218.5</ele><time>2026-04-25T12:14:28.003Z</time></trkpt><trkpt lat="43.26890360905684" lon="11.537688466115428"><ele>218.0</ele><time>2026-04-25T12:14:29.003Z</time></trkpt><trkpt lat="43.26897680982048" lon="11.537723623090265"><ele>217.49999999999997</ele><time>2026-04-25T12:14:30.003Z</time></trkpt><trkpt lat="43.269051251985516" lon="11.537748960732417"><ele>217.0</ele><time>2026-04-25T12:14:31.003Z</time></trkpt><trkpt lat="43.26913124715873" lon="11.537769007899696"><ele>214.2</ele><time>2026-04-25T12:14:32.003Z</time></trkpt><trkpt lat="43.26922225463161" lon="11.537776666499"><ele>211.39999999999998</ele><time>2026-04-25T12:14:33.003Z</time></trkpt><trkpt lat="43.269319062415626" lon="11.537774240825918"><ele>208.60000000000002</ele><time>2026-04-25T12:14:34.003Z</time></trkpt><trkpt lat="43.26942160839743" lon="11.537751032071567"><ele>205.8</ele><time>2026-04-25T12:14:35.003Z</time></trkpt><trkpt lat="43.269525393912524" lon="11.537713333971917"><ele>203.0</ele><time>2026-04-25T12:14:36.003Z</time></trkpt><trkpt lat="43.26962575147171" lon="11.537669264995051"><ele>203.0</ele><time>2026-04-25T12:14:37.001Z</time></trkpt><trkpt lat="43.26972162576892" lon="11.537621500604988"><ele>203.0</ele><time>2026-04-25T12:14:38.001Z</time></trkpt><trkpt lat="43.26981439888987" lon="11.537575318703578"><ele>203.0</ele><time>2026-04-25T12:14:39.001Z</time></trkpt><trkpt lat="43.269903141797236" lon="11.537537079902107"><ele>203.0</ele><time>2026-04-25T12:14:40.001Z</time></trkpt><trkpt lat="43.26999313548598" lon="11.537509587735384"><ele>203.0</ele><time>2026-04-25T12:14:41.001Z</time></trkpt><trkpt lat="43.27008181235935" lon="11.53751269461586"><ele>200.4</ele><time>2026-04-25T12:14:42.001Z</time></trkpt><trkpt lat="43.270168628098" lon="11.537535665487747"><ele>197.8</ele><time>2026-04-25T12:14:43.001Z</time></trkpt><trkpt lat="43.270263491170304" lon="11.537568670497727"><ele>195.2</ele><time>2026-04-25T12:14:44.001Z</time></trkpt><trkpt lat="43.27035311893092" lon="11.537610859477418"><ele>192.6</ele><time>2026-04-25T12:14:45.001Z</time></trkpt><trkpt lat="43.27045339077692" lon="11.537634121188407"><ele>190.0</ele><time>2026-04-25T12:14:46.001Z</time></trkpt><trkpt lat="43.270549886952544" lon="11.537658360277348"><ele>189.0</ele><time>2026-04-25T12:14:47.001Z</time></trkpt><trkpt lat="43.270638330305275" lon="11.537689333458296"><ele>188.0</ele><time>2026-04-25T12:14:48.001Z</time></trkpt><trkpt lat="43.2707290671302" lon="11.53773475539154"><ele>187.0</ele><time>2026-04-25T12:14:49.001Z</time></trkpt><trkpt lat="43.270828864883725" lon="11.537808417333574"><ele>186.0</ele><time>2026-04-25T12:14:50.001Z</time></trkpt><trkpt lat="43.270925861813375" lon="11.537887864427383"><ele>185.0</ele><time>2026-04-25T12:14:51.001Z</time></trkpt><trkpt lat="43.27101573167947" lon="11.537979441596676"><ele>184.5</ele><time>2026-04-25T12:14:52.001Z</time></trkpt><trkpt lat="43.27109021048822" lon="11.53808132013188"><ele>184.0</ele><time>2026-04-25T12:14:53.001Z</time></trkpt><trkpt lat="43.271156087126315" lon="11.538209800521727"><ele>183.5</ele><time>2026-04-25T12:14:54.001Z</time></trkpt><trkpt lat="43.27122219311727" lon="11.538347222820905"><ele>183.0</ele><time>2026-04-25T12:14:55.001Z</time></trkpt><trkpt lat="43.2712934263129" lon="11.53849900266084"><ele>183.0</ele><time>2026-04-25T12:14:56.001Z</time></trkpt><trkpt lat="43.27136530973114" lon="11.538663697151941"><ele>183.0</ele><time>2026-04-25T12:14:57.001Z</time></trkpt><trkpt lat="43.27144236915874" lon="11.538836280440705"><ele>183.0</ele><time>2026-04-25T12:14:58.001Z</time></trkpt><trkpt lat="43.27153104557669" lon="11.539048267499435"><ele>184.33333333333334</ele><time>2026-04-25T12:14:59.001Z</time></trkpt><trkpt lat="43.271622206027395" lon="11.539278100691797"><ele>185.66666666666669</ele><time>2026-04-25T12:15:00.001Z</time></trkpt><trkpt lat="43.27170559464334" lon="11.539493788379614"><ele>187.0</ele><time>2026-04-25T12:15:01.001Z</time></trkpt><trkpt lat="43.27178456090636" lon="11.539693895319406"><ele>187.66666666666669</ele><time>2026-04-25T12:15:02.001Z</time></trkpt><trkpt lat="43.271866265582254" lon="11.53989713851327"><ele>188.33333333333334</ele><time>2026-04-25T12:15:03.001Z</time></trkpt><trkpt lat="43.27194124787656" lon="11.540082838077765"><ele>189.0</ele><time>2026-04-25T12:15:04.001Z</time></trkpt><trkpt lat="43.27202823969669" lon="11.540290599281533"><ele>189.66666666666666</ele><time>2026-04-25T12:15:05.001Z</time></trkpt><trkpt lat="43.272106757418484" lon="11.540485676333349"><ele>190.33333333333331</ele><time>2026-04-25T12:15:06.001Z</time></trkpt><trkpt lat="43.27217714594424" lon="11.540669544919101"><ele>191.0</ele><time>2026-04-25T12:15:07.001Z</time></trkpt><trkpt lat="43.27223855718634" lon="11.540842501962098"><ele>192.25</ele><time>2026-04-25T12:15:08.001Z</time></trkpt><trkpt lat="43.272299746859815" lon="11.541012493036384"><ele>193.5</ele><time>2026-04-25T12:15:09.001Z</time></trkpt><trkpt lat="43.27235267510112" lon="11.541184039056363"><ele>194.75</ele><time>2026-04-25T12:15:10.001Z</time></trkpt><trkpt lat="43.27239336960456" lon="11.541362422932947"><ele>196.0</ele><time>2026-04-25T12:15:11.001Z</time></trkpt><trkpt lat="43.27242151776058" lon="11.541533379750478"><ele>197.75</ele><time>2026-04-25T12:15:12.001Z</time></trkpt><trkpt lat="43.272447436357794" lon="11.541706863732447"><ele>199.5</ele><time>2026-04-25T12:15:13.001Z</time></trkpt><trkpt lat="43.27247171595707" lon="11.541878302457937"><ele>201.25</ele><time>2026-04-25T12:15:14.001Z</time></trkpt><trkpt lat="43.27249255575958" lon="11.542051464794739"><ele>203.0</ele><time>2026-04-25T12:15:15.001Z</time></trkpt><trkpt lat="43.27251179176337" lon="11.542226093374666"><ele>204.60000000000002</ele><time>2026-04-25T12:15:16.001Z</time></trkpt><trkpt lat="43.27253745167213" lon="11.542400238714182"><ele>206.20000000000002</ele><time>2026-04-25T12:15:17.001Z</time></trkpt><trkpt lat="43.27256677424869" lon="11.542559962262695"><ele>207.8</ele><time>2026-04-25T12:15:18.001Z</time></trkpt><trkpt lat="43.27260014434475" lon="11.542690440938692"><ele>209.4</ele><time>2026-04-25T12:15:19.001Z</time></trkpt><trkpt lat="43.27263210300112" lon="11.542796134153887"><ele>211.0</ele><time>2026-04-25T12:15:20.001Z</time></trkpt><trkpt lat="43.27267047778019" lon="11.542882587559854"><ele>212.28571428571428</ele><time>2026-04-25T12:15:21.001Z</time></trkpt><trkpt lat="43.27271890316399" lon="11.54294692304478"><ele>213.57142857142858</ele><time>2026-04-25T12:15:22.001Z</time></trkpt><trkpt lat="43.272777588713225" lon="11.54298565764122"><ele>214.85714285714283</ele><time>2026-04-25T12:15:23.001Z</time></trkpt><trkpt lat="43.272848684350855" lon="11.542979209181398"><ele>216.14285714285714</ele><time>2026-04-25T12:15:24.001Z</time></trkpt><trkpt lat="43.27292266826137" lon="11.542950081673254"><ele>217.42857142857142</ele><time>2026-04-25T12:15:25.001Z</time></trkpt><trkpt lat="43.27299913905181" lon="11.54291466753074"><ele>218.7142857142857</ele><time>2026-04-25T12:15:26.001Z</time></trkpt><trkpt lat="43.27307890094374" lon="11.542902892718951"><ele>220.0</ele><time>2026-04-25T12:15:27.001Z</time></trkpt><trkpt lat="43.27315728240095" lon="11.54291841186648"><ele>221.99999999999997</ele><time>2026-04-25T12:15:28.001Z</time></trkpt><trkpt lat="43.273223190387355" lon="11.542960309125146"><ele>224.0</ele><time>2026-04-25T12:15:29.001Z</time></trkpt><trkpt lat="43.27328500404296" lon="11.543001192067624"><ele>226.0</ele><time>2026-04-25T12:15:30.001Z</time></trkpt><trkpt lat="43.273351769098696" lon="11.54305801938245"><ele>228.0</ele><time>2026-04-25T12:15:31.001Z</time></trkpt><trkpt lat="43.27341705711342" lon="11.543121359495508"><ele>229.99999999999997</ele><time>2026-04-25T12:15:32.001Z</time></trkpt><trkpt lat="43.27347653679215" lon="11.543190509098006"><ele>232.0</ele><time>2026-04-25T12:15:33.001Z</time></trkpt><trkpt lat="43.27353124893799" lon="11.543263198274296"><ele>232.00000000000003</ele><time>2026-04-25T12:15:34.001Z</time></trkpt><trkpt lat="43.27357673896466" lon="11.54334141526894"><ele>232.0</ele><time>2026-04-25T12:15:35.001Z</time></trkpt><trkpt lat="43.27360564598274" lon="11.543430288234553"><ele>232.00000000000003</ele><time>2026-04-25T12:15:36.001Z</time></trkpt><trkpt lat="43.27361717882191" lon="11.543523216500695"><ele>232.00000000000003</ele><time>2026-04-25T12:15:37.001Z</time></trkpt><trkpt lat="43.27360726528765" lon="11.54362166814911"><ele>232.0</ele><time>2026-04-25T12:15:38.001Z</time></trkpt><trkpt lat="43.27358765848482" lon="11.543713849770914"><ele>232.00000000000003</ele><time>2026-04-25T12:15:39.001Z</time></trkpt><trkpt lat="43.27355718193208" lon="11.54380340538603"><ele>232.00000000000003</ele><time>2026-04-25T12:15:40.001Z</time></trkpt><trkpt lat="43.27350664816922" lon="11.543894156696975"><ele>233.6</ele><time>2026-04-25T12:15:41.001Z</time></trkpt><trkpt lat="43.273437957342075" lon="11.543996528767691"><ele>235.2</ele><time>2026-04-25T12:15:42.001Z</time></trkpt><trkpt lat="43.27336214996437" lon="11.544101943944892"><ele>236.8</ele><time>2026-04-25T12:15:43.001Z</time></trkpt><trkpt lat="43.27329546657236" lon="11.544204043995164"><ele>238.4</ele><time>2026-04-25T12:15:44.001Z</time></trkpt><trkpt lat="43.27323910730369" lon="11.544309551640634"><ele>240.0</ele><time>2026-04-25T12:15:45.001Z</time></trkpt><trkpt lat="43.27320600442534" lon="11.544414002578089"><ele>240.0</ele><time>2026-04-25T12:15:46.002Z</time></trkpt><trkpt lat="43.27318518083006" lon="11.544522819380171"><ele>240.0</ele><time>2026-04-25T12:15:47.002Z</time></trkpt><trkpt lat="43.273180578829056" lon="11.544648673030974"><ele>240.0</ele><time>2026-04-25T12:15:48.002Z</time></trkpt><trkpt lat="43.27317849570297" lon="11.544788594608344"><ele>240.0</ele><time>2026-04-25T12:15:49.002Z</time></trkpt><trkpt lat="43.27317316467131" lon="11.544932832052204"><ele>240.0</ele><time>2026-04-25T12:15:50.002Z</time></trkpt><trkpt lat="43.27316566074213" lon="11.545102122128192"><ele>241.25</ele><time>2026-04-25T12:15:51.002Z</time></trkpt><trkpt lat="43.273156424998234" lon="11.545261954416398"><ele>242.5</ele><time>2026-04-25T12:15:52.002Z</time></trkpt><trkpt lat="43.27315382775613" lon="11.545423645521069"><ele>243.75</ele><time>2026-04-25T12:15:53.002Z</time></trkpt><trkpt lat="43.273154457462745" lon="11.545595223239479"><ele>245.0</ele><time>2026-04-25T12:15:54.002Z</time></trkpt><trkpt lat="43.273164092615474" lon="11.545764541671886"><ele>246.75</ele><time>2026-04-25T12:15:55.002Z</time></trkpt><trkpt lat="43.2731844243888" lon="11.545941056080665"><ele>248.5</ele><time>2026-04-25T12:15:56.002Z</time></trkpt><trkpt lat="43.27321420212891" lon="11.546101164481048"><ele>250.25</ele><time>2026-04-25T12:15:57.002Z</time></trkpt><trkpt lat="43.273246240375656" lon="11.546243761165114"><ele>252.0</ele><time>2026-04-25T12:15:58.002Z</time></trkpt><trkpt lat="43.27328189439094" lon="11.546373546321915"><ele>253.8</ele><time>2026-04-25T12:15:59.002Z</time></trkpt><trkpt lat="43.273326834500246" lon="11.546505972527799"><ele>255.6</ele><time>2026-04-25T12:16:00.002Z</time></trkpt><trkpt lat="43.273375372288335" lon="11.546629313908877"><ele>257.40000000000003</ele><time>2026-04-25T12:16:01.002Z</time></trkpt><trkpt lat="43.27342834741389" lon="11.546750132440451"><ele>259.2</ele><time>2026-04-25T12:16:02.002Z</time></trkpt><trkpt lat="43.27348028741471" lon="11.54685828642069"><ele>261.0</ele><time>2026-04-25T12:16:03.002Z</time></trkpt><trkpt lat="43.27354187347075" lon="11.54694338279057"><ele>261.0</ele><time>2026-04-25T12:16:04.002Z</time></trkpt><trkpt lat="43.273618575205184" lon="11.54701941331044"><ele>261.0</ele><time>2026-04-25T12:16:05.002Z</time></trkpt><trkpt lat="43.273709288655134" lon="11.547076432444873"><ele>261.0</ele><time>2026-04-25T12:16:06.002Z</time></trkpt><trkpt lat="43.273812589432566" lon="11.547113233187236"><ele>261.0</ele><time>2026-04-25T12:16:07.002Z</time></trkpt><trkpt lat="43.2739253626176" lon="11.547129013182936"><ele>261.0</ele><time>2026-04-25T12:16:08.002Z</time></trkpt><trkpt lat="43.274056120936265" lon="11.547121473530428"><ele>265.5</ele><time>2026-04-25T12:16:09.002Z</time></trkpt><trkpt lat="43.27419770209518" lon="11.54711666580134"><ele>270.0</ele><time>2026-04-25T12:16:10.002Z</time></trkpt><trkpt lat="43.274320880196896" lon="11.54710315897291"><ele>274.5</ele><time>2026-04-25T12:16:11.002Z</time></trkpt><trkpt lat="43.27442125395986" lon="11.547083774559466"><ele>279.0</ele><time>2026-04-25T12:16:12.002Z</time></trkpt><trkpt lat="43.27451337039863" lon="11.547078132907012"><ele>279.0</ele><time>2026-04-25T12:16:13.002Z</time></trkpt><trkpt lat="43.27460142513747" lon="11.54709380681821"><ele>279.0</ele><time>2026-04-25T12:16:14.002Z</time></trkpt><trkpt lat="43.274701289411944" lon="11.547134242208807"><ele>279.0</ele><time>2026-04-25T12:16:15.002Z</time></trkpt><trkpt lat="43.27479288567781" lon="11.547191205732297"><ele>279.0</ele><time>2026-04-25T12:16:16.002Z</time></trkpt><trkpt lat="43.27488190690014" lon="11.54727538695758"><ele>279.0</ele><time>2026-04-25T12:16:17.002Z</time></trkpt><trkpt lat="43.274982116973945" lon="11.547363923399892"><ele>280.4</ele><time>2026-04-25T12:16:18.002Z</time></trkpt><trkpt lat="43.275090935882595" lon="11.547459884192568"><ele>281.79999999999995</ele><time>2026-04-25T12:16:19.002Z</time></trkpt><trkpt lat="43.275175331678426" lon="11.547542914008359"><ele>283.20000000000005</ele><time>2026-04-25T12:16:20.002Z</time></trkpt><trkpt lat="43.275260572420564" lon="11.547604245156544"><ele>284.6</ele><time>2026-04-25T12:16:21.002Z</time></trkpt><trkpt lat="43.27534123774541" lon="11.547680700694228"><ele>286.0</ele><time>2026-04-25T12:16:22.002Z</time></trkpt><trkpt lat="43.275417029841485" lon="11.547751406026718"><ele>286.0</ele><time>2026-04-25T12:16:23.002Z</time></trkpt><trkpt lat="43.27549917673433" lon="11.547829168794634"><ele>286.0</ele><time>2026-04-25T12:16:24.002Z</time></trkpt><trkpt lat="43.27557617057391" lon="11.547897249767843"><ele>286.0</ele><time>2026-04-25T12:16:25.002Z</time></trkpt><trkpt lat="43.27566219900992" lon="11.547952730566266"><ele>286.0</ele><time>2026-04-25T12:16:26.002Z</time></trkpt><trkpt lat="43.27575093384771" lon="11.547998924755106"><ele>286.0</ele><time>2026-04-25T12:16:27.002Z</time></trkpt><trkpt lat="43.27584841014876" lon="11.548044651727775"><ele>289.0</ele><time>2026-04-25T12:16:28.002Z</time></trkpt><trkpt lat="43.2759523376853" lon="11.548088525655329"><ele>292.0</ele><time>2026-04-25T12:16:29.002Z</time></trkpt><trkpt lat="43.27605216127666" lon="11.548122292241095"><ele>295.0</ele><time>2026-04-25T12:16:30.002Z</time></trkpt><trkpt lat="43.27616256835944" lon="11.5481553119669"><ele>298.0</ele><time>2026-04-25T12:16:31.002Z</time></trkpt><trkpt lat="43.27626037145791" lon="11.548194808761572"><ele>301.0</ele><time>2026-04-25T12:16:32.002Z</time></trkpt><trkpt lat="43.276345269097" lon="11.54822448916486"><ele>301.0</ele><time>2026-04-25T12:16:33.002Z</time></trkpt><trkpt lat="43.276428451980095" lon="11.548260661607806"><ele>301.0</ele><time>2026-04-25T12:16:34.002Z</time></trkpt><trkpt lat="43.276510600896465" lon="11.54830325798933"><ele>301.0</ele><time>2026-04-25T12:16:35.002Z</time></trkpt><trkpt lat="43.27659650044224" lon="11.548356883023532"><ele>301.0</ele><time>2026-04-25T12:16:36.002Z</time></trkpt><trkpt lat="43.27668379858069" lon="11.54841972224727"><ele>301.0</ele><time>2026-04-25T12:16:37.002Z</time></trkpt><trkpt lat="43.276770885492" lon="11.548483825741991"><ele>301.40000000000003</ele><time>2026-04-25T12:16:38.002Z</time></trkpt><trkpt lat="43.27685229971373" lon="11.54856363527572"><ele>301.8</ele><time>2026-04-25T12:16:39.002Z</time></trkpt><trkpt lat="43.27693979912422" lon="11.548649277071336"><ele>302.20000000000005</ele><time>2026-04-25T12:16:40.002Z</time></trkpt><trkpt lat="43.27702700828355" lon="11.548735626805284"><ele>302.6</ele><time>2026-04-25T12:16:41.003Z</time></trkpt><trkpt lat="43.27711226887918" lon="11.548819276971603"><ele>303.0</ele><time>2026-04-25T12:16:42.003Z</time></trkpt><trkpt lat="43.27719531035133" lon="11.548894891568589"><ele>300.6666666666667</ele><time>2026-04-25T12:16:43.001Z</time></trkpt><trkpt lat="43.277271377749216" lon="11.548960123943374"><ele>298.3333333333333</ele><time>2026-04-25T12:16:44.001Z</time></trkpt><trkpt lat="43.27734973032647" lon="11.549020695409043"><ele>296.0</ele><time>2026-04-25T12:16:45.001Z</time></trkpt><trkpt lat="43.27742338534497" lon="11.549083025673188"><ele>293.66666666666663</ele><time>2026-04-25T12:16:46.001Z</time></trkpt><trkpt lat="43.2774977013193" lon="11.549156111709781"><ele>291.3333333333333</ele><time>2026-04-25T12:16:47.001Z</time></trkpt><trkpt lat="43.27757317182265" lon="11.549220131605114"><ele>289.0</ele><time>2026-04-25T12:16:48.001Z</time></trkpt><trkpt lat="43.2776503999965" lon="11.549288155343282"><ele>289.0</ele><time>2026-04-25T12:16:49.001Z</time></trkpt><trkpt lat="43.277726647196296" lon="11.549343558068339"><ele>289.0</ele><time>2026-04-25T12:16:50.001Z</time></trkpt><trkpt lat="43.27781408829644" lon="11.549383949537964"><ele>289.0</ele><time>2026-04-25T12:16:51.001Z</time></trkpt><trkpt lat="43.277899022258765" lon="11.549433278223047"><ele>289.0</ele><time>2026-04-25T12:16:52.001Z</time></trkpt><trkpt lat="43.278001721019216" lon="11.549442604617836"><ele>289.0</ele><time>2026-04-25T12:16:53.001Z</time></trkpt><trkpt lat="43.27812336063468" lon="11.549445514125454"><ele>285.25</ele><time>2026-04-25T12:16:54.001Z</time></trkpt><trkpt lat="43.27824110813884" lon="11.549446918739655"><ele>281.5</ele><time>2026-04-25T12:16:55.001Z</time></trkpt><trkpt lat="43.278357192587826" lon="11.549448303515426"><ele>277.75</ele><time>2026-04-25T12:16:56.001Z</time></trkpt><trkpt lat="43.27846678361231" lon="11.54945062060149"><ele>274.0</ele><time>2026-04-25T12:16:57.001Z</time></trkpt><trkpt lat="43.27857997927127" lon="11.549433107832288"><ele>274.0</ele><time>2026-04-25T12:16:58.001Z</time></trkpt><trkpt lat="43.27868545920243" lon="11.549449502093742"><ele>274.0</ele><time>2026-04-25T12:16:59.001Z</time></trkpt><trkpt lat="43.278790371188244" lon="11.549466718018623"><ele>274.0</ele><time>2026-04-25T12:17:00.001Z</time></trkpt><trkpt lat="43.27888335120351" lon="11.549495981460423"><ele>274.0</ele><time>2026-04-25T12:17:01.001Z</time></trkpt><trkpt lat="43.27898761771229" lon="11.549556807285649"><ele>274.0</ele><time>2026-04-25T12:17:02.001Z</time></trkpt><trkpt lat="43.27908387947671" lon="11.549625827182957"><ele>273.59999999999997</ele><time>2026-04-25T12:17:03.001Z</time></trkpt><trkpt lat="43.27917040710714" lon="11.549691880298184"><ele>273.2</ele><time>2026-04-25T12:17:04.001Z</time></trkpt><trkpt lat="43.27925849277992" lon="11.549754036601406"><ele>272.79999999999995</ele><time>2026-04-25T12:17:05.001Z</time></trkpt><trkpt lat="43.2793495842995" lon="11.5498065323116"><ele>272.4</ele><time>2026-04-25T12:17:06.001Z</time></trkpt><trkpt lat="43.27943989124181" lon="11.549880436145985"><ele>272.0</ele><time>2026-04-25T12:17:07.001Z</time></trkpt><trkpt lat="43.27955837741448" lon="11.549925209215695"><ele>272.0</ele><time>2026-04-25T12:17:08.001Z</time></trkpt><trkpt lat="43.27967313349222" lon="11.5499484838473"><ele>272.0</ele><time>2026-04-25T12:17:09.001Z</time></trkpt><trkpt lat="43.279789816802975" lon="11.549948145122627"><ele>272.0</ele><time>2026-04-25T12:17:10.001Z</time></trkpt><trkpt lat="43.27989782802885" lon="11.549938438522117"><ele>272.0</ele><time>2026-04-25T12:17:11.001Z</time></trkpt><trkpt lat="43.28002116431508" lon="11.549909393324564"><ele>271.25</ele><time>2026-04-25T12:17:12.001Z</time></trkpt><trkpt lat="43.28014131234175" lon="11.549855918443328"><ele>270.5</ele><time>2026-04-25T12:17:13.001Z</time></trkpt><trkpt lat="43.28026700939905" lon="11.549784962804786"><ele>269.75</ele><time>2026-04-25T12:17:14.001Z</time></trkpt><trkpt lat="43.28038963444478" lon="11.54970604206126"><ele>269.0</ele><time>2026-04-25T12:17:15.001Z</time></trkpt><trkpt lat="43.28050394434133" lon="11.549622694658936"><ele>269.0</ele><time>2026-04-25T12:17:16.001Z</time></trkpt><trkpt lat="43.28059469060791" lon="11.54955112981938"><ele>269.0</ele><time>2026-04-25T12:17:17.001Z</time></trkpt><trkpt lat="43.28068834435762" lon="11.54944864589101"><ele>269.0</ele><time>2026-04-25T12:17:18.001Z</time></trkpt><trkpt lat="43.28077029918094" lon="11.549313624223702"><ele>269.0</ele><time>2026-04-25T12:17:19.001Z</time></trkpt><trkpt lat="43.28084640781328" lon="11.54917769667443"><ele>271.75</ele><time>2026-04-25T12:17:20.001Z</time></trkpt><trkpt lat="43.2809218856829" lon="11.549042540890126"><ele>274.5</ele><time>2026-04-25T12:17:21.001Z</time></trkpt><trkpt lat="43.28100106783541" lon="11.548926981120907"><ele>277.25</ele><time>2026-04-25T12:17:22.001Z</time></trkpt><trkpt lat="43.28108844878674" lon="11.54882047281443"><ele>280.0</ele><time>2026-04-25T12:17:23.001Z</time></trkpt><trkpt lat="43.28119969696085" lon="11.548693899868091"><ele>280.0</ele><time>2026-04-25T12:17:24.001Z</time></trkpt><trkpt lat="43.2813303647537" lon="11.54855678065168"><ele>280.0</ele><time>2026-04-25T12:17:25.001Z</time></trkpt><trkpt lat="43.28144394468634" lon="11.548434164474212"><ele>280.0</ele><time>2026-04-25T12:17:26.001Z</time></trkpt><trkpt lat="43.281538266735566" lon="11.548308960013298"><ele>280.0</ele><time>2026-04-25T12:17:27.001Z</time></trkpt><trkpt lat="43.28162609729383" lon="11.548224569784974"><ele>283.5</ele><time>2026-04-25T12:17:28.001Z</time></trkpt><trkpt lat="43.28171508554742" lon="11.548178451058561"><ele>287.0</ele><time>2026-04-25T12:17:29.001Z</time></trkpt><trkpt lat="43.28178964440569" lon="11.548144504517241"><ele>290.5</ele><time>2026-04-25T12:17:30.001Z</time></trkpt><trkpt lat="43.281864680679966" lon="11.548138641096354"><ele>294.0</ele><time>2026-04-25T12:17:31.001Z</time></trkpt><trkpt lat="43.281949815728815" lon="11.548142491354822"><ele>297.5</ele><time>2026-04-25T12:17:32.001Z</time></trkpt><trkpt lat="43.28202234260383" lon="11.548144977217193"><ele>301.0</ele><time>2026-04-25T12:17:34.001Z</time></trkpt><trkpt lat="43.28212761184343" lon="11.548148400595911"><ele>301.0</ele><time>2026-04-25T12:17:36.001Z</time></trkpt><trkpt lat="43.28220090609791" lon="11.548154449950001"><ele>301.0</ele><time>2026-04-25T12:17:37.001Z</time></trkpt><trkpt lat="43.282328413889296" lon="11.548158437428706"><ele>301.0</ele><time>2026-04-25T12:17:39.001Z</time></trkpt><trkpt lat="43.282403150419576" lon="11.548159314284627"><ele>301.0</ele><time>2026-04-25T12:17:40.001Z</time></trkpt><trkpt lat="43.28248371037488" lon="11.548161893344265"><ele>301.0</ele><time>2026-04-25T12:17:41.001Z</time></trkpt><trkpt lat="43.28256304314087" lon="11.548170914043165"><ele>301.0</ele><time>2026-04-25T12:17:42.001Z</time></trkpt><trkpt lat="43.282642988222165" lon="11.548190941571418"><ele>300.6</ele><time>2026-04-25T12:17:43.001Z</time></trkpt><trkpt lat="43.2827294511425" lon="11.548223711624141"><ele>300.20000000000005</ele><time>2026-04-25T12:17:44.001Z</time></trkpt><trkpt lat="43.2828298716468" lon="11.548272771955583"><ele>299.79999999999995</ele><time>2026-04-25T12:17:45.001Z</time></trkpt><trkpt lat="43.28292659120203" lon="11.548327793284288"><ele>299.4</ele><time>2026-04-25T12:17:46.001Z</time></trkpt><trkpt lat="43.283030636261024" lon="11.548384750749522"><ele>299.0</ele><time>2026-04-25T12:17:47.001Z</time></trkpt><trkpt lat="43.283148255685376" lon="11.548473100357663"><ele>299.0</ele><time>2026-04-25T12:17:48.001Z</time></trkpt><trkpt lat="43.28325325703859" lon="11.54857609438428"><ele>299.0</ele><time>2026-04-25T12:17:49.001Z</time></trkpt><trkpt lat="43.2833665198109" lon="11.548664286788584"><ele>299.0</ele><time>2026-04-25T12:17:50.001Z</time></trkpt><trkpt lat="43.283468683958425" lon="11.548733172745619"><ele>299.0</ele><time>2026-04-25T12:17:51.001Z</time></trkpt><trkpt lat="43.28357802401431" lon="11.548787298495263"><ele>298.59999999999997</ele><time>2026-04-25T12:17:52.001Z</time></trkpt><trkpt lat="43.283684170566374" lon="11.548825511590003"><ele>298.2</ele><time>2026-04-25T12:17:53.001Z</time></trkpt><trkpt lat="43.28377998758707" lon="11.548846950039065"><ele>297.79999999999995</ele><time>2026-04-25T12:17:54.001Z</time></trkpt><trkpt lat="43.28388170141057" lon="11.548844558720612"><ele>297.4</ele><time>2026-04-25T12:17:55.001Z</time></trkpt><trkpt lat="43.28396082910911" lon="11.548850859841945"><ele>297.0</ele><time>2026-04-25T12:17:56.001Z</time></trkpt><trkpt lat="43.28404045656582" lon="11.548848118632586"><ele>297.0</ele><time>2026-04-25T12:17:57.002Z</time></trkpt><trkpt lat="43.284117686624775" lon="11.54882227709717"><ele>297.0</ele><time>2026-04-25T12:17:58.002Z</time></trkpt><trkpt lat="43.284185932499874" lon="11.548798296805966"><ele>297.0</ele><time>2026-04-25T12:17:59.002Z</time></trkpt><trkpt lat="43.28428111241171" lon="11.548716563137896"><ele>297.0</ele><time>2026-04-25T12:18:00.002Z</time></trkpt><trkpt lat="43.28434575169033" lon="11.548619344130943"><ele>297.0</ele><time>2026-04-25T12:18:01.002Z</time></trkpt><trkpt lat="43.2844069301547" lon="11.548496905143786"><ele>296.5</ele><time>2026-04-25T12:18:02.002Z</time></trkpt><trkpt lat="43.28446388680877" lon="11.548361066699348"><ele>296.0</ele><time>2026-04-25T12:18:03.002Z</time></trkpt><trkpt lat="43.28452851843313" lon="11.548200234643282"><ele>295.5</ele><time>2026-04-25T12:18:04.002Z</time></trkpt><trkpt lat="43.28457565436616" lon="11.548028924890652"><ele>295.0</ele><time>2026-04-25T12:18:05.002Z</time></trkpt><trkpt lat="43.284633908591786" lon="11.547879743572313"><ele>292.5</ele><time>2026-04-25T12:18:06.002Z</time></trkpt><trkpt lat="43.284686684169095" lon="11.547732480234794"><ele>290.0</ele><time>2026-04-25T12:18:07.002Z</time></trkpt><trkpt lat="43.28472030906382" lon="11.547582511283753"><ele>287.5</ele><time>2026-04-25T12:18:08.002Z</time></trkpt><trkpt lat="43.28473830791273" lon="11.547424144607792"><ele>285.0</ele><time>2026-04-25T12:18:09.002Z</time></trkpt><trkpt lat="43.28474703111659" lon="11.54726167931233"><ele>285.0</ele><time>2026-04-25T12:18:10.002Z</time></trkpt><trkpt lat="43.28475918415496" lon="11.54711865552019"><ele>285.0</ele><time>2026-04-25T12:18:11.002Z</time></trkpt><trkpt lat="43.28480574991815" lon="11.547003491344297"><ele>285.0</ele><time>2026-04-25T12:18:12.002Z</time></trkpt><trkpt lat="43.28485294477241" lon="11.54690233882218"><ele>285.0</ele><time>2026-04-25T12:18:13.002Z</time></trkpt><trkpt lat="43.28490276249309" lon="11.546827084803256"><ele>285.0</ele><time>2026-04-25T12:18:14.002Z</time></trkpt><trkpt lat="43.28496086443337" lon="11.546718971868689"><ele>289.1666666666667</ele><time>2026-04-25T12:18:15.002Z</time></trkpt><trkpt lat="43.285040455277844" lon="11.546654078861959"><ele>293.3333333333333</ele><time>2026-04-25T12:18:16.002Z</time></trkpt><trkpt lat="43.28512479141798" lon="11.546597220758247"><ele>297.5</ele><time>2026-04-25T12:18:17.002Z</time></trkpt><trkpt lat="43.285205369672234" lon="11.546546486941157"><ele>301.66666666666663</ele><time>2026-04-25T12:18:18.002Z</time></trkpt><trkpt lat="43.2852852746719" lon="11.546506837073146"><ele>305.8333333333333</ele><time>2026-04-25T12:18:19.002Z</time></trkpt><trkpt lat="43.28536952167641" lon="11.54647537834805"><ele>310.0</ele><time>2026-04-25T12:18:20.002Z</time></trkpt><trkpt lat="43.28544739424246" lon="11.546440701074427"><ele>310.0</ele><time>2026-04-25T12:18:21.002Z</time></trkpt><trkpt lat="43.285534653660214" lon="11.546416400191529"><ele>310.0</ele><time>2026-04-25T12:18:22.002Z</time></trkpt><trkpt lat="43.28559736953287" lon="11.546369166812145"><ele>310.0</ele><time>2026-04-25T12:18:23.002Z</time></trkpt><trkpt lat="43.28572324549045" lon="11.546297696952605"><ele>310.0</ele><time>2026-04-25T12:18:25.002Z</time></trkpt><trkpt lat="43.28579509449297" lon="11.54621793015758"><ele>310.0</ele><time>2026-04-25T12:18:26.002Z</time></trkpt><trkpt lat="43.28587585712169" lon="11.546167623028353"><ele>310.66666666666663</ele><time>2026-04-25T12:18:27.002Z</time></trkpt><trkpt lat="43.28593464434599" lon="11.546112113099296"><ele>311.3333333333333</ele><time>2026-04-25T12:18:28.002Z</time></trkpt><trkpt lat="43.28599306752717" lon="11.546059210433706"><ele>312.0</ele><time>2026-04-25T12:18:29.002Z</time></trkpt><trkpt lat="43.28605504444992" lon="11.546007664672272"><ele>312.6666666666667</ele><time>2026-04-25T12:18:30.002Z</time></trkpt><trkpt lat="43.286110479952555" lon="11.545965217456542"><ele>313.33333333333337</ele><time>2026-04-25T12:18:31.002Z</time></trkpt><trkpt lat="43.286211250974866" lon="11.545884672133287"><ele>314.0</ele><time>2026-04-25T12:18:33.002Z</time></trkpt><trkpt lat="43.28629091741477" lon="11.54586474087325"><ele>314.0</ele><time>2026-04-25T12:18:34.002Z</time></trkpt><trkpt lat="43.28636516496636" lon="11.545867893272932"><ele>314.0</ele><time>2026-04-25T12:18:35.002Z</time></trkpt><trkpt lat="43.28643887631718" lon="11.545879095307159"><ele>314.0</ele><time>2026-04-25T12:18:36.002Z</time></trkpt><trkpt lat="43.28655417430324" lon="11.545968426262197"><ele>314.0</ele><time>2026-04-25T12:18:38.002Z</time></trkpt><trkpt lat="43.28661774903401" lon="11.546021433969171"><ele>314.0</ele><time>2026-04-25T12:18:39.002Z</time></trkpt><trkpt lat="43.28669331725359" lon="11.546080786223344"><ele>314.0</ele><time>2026-04-25T12:18:40.002Z</time></trkpt><trkpt lat="43.28676274927881" lon="11.546127633450968"><ele>313.6666666666667</ele><time>2026-04-25T12:18:41.002Z</time></trkpt><trkpt lat="43.2868363787155" lon="11.54615218659799"><ele>313.33333333333337</ele><time>2026-04-25T12:18:42.002Z</time></trkpt><trkpt lat="43.28691548335369" lon="11.546176837400399"><ele>313.0</ele><time>2026-04-25T12:18:43.002Z</time></trkpt><trkpt lat="43.287001348685536" lon="11.546158870339355"><ele>312.6666666666667</ele><time>2026-04-25T12:18:44.002Z</time></trkpt><trkpt lat="43.287068936729725" lon="11.54613946465843"><ele>312.3333333333333</ele><time>2026-04-25T12:18:45.002Z</time></trkpt><trkpt lat="43.28714769793473" lon="11.546092890551712"><ele>312.0</ele><time>2026-04-25T12:18:46.002Z</time></trkpt><trkpt lat="43.28720572578034" lon="11.546027741455477"><ele>312.0</ele><time>2026-04-25T12:18:47.002Z</time></trkpt><trkpt lat="43.287247164134925" lon="11.545926805649412"><ele>312.0</ele><time>2026-04-25T12:18:48.002Z</time></trkpt><trkpt lat="43.28728000025279" lon="11.545803381530934"><ele>312.0</ele><time>2026-04-25T12:18:49.001Z</time></trkpt><trkpt lat="43.28731454814321" lon="11.545645067164031"><ele>312.0</ele><time>2026-04-25T12:18:50.001Z</time></trkpt><trkpt lat="43.287341081437745" lon="11.545475819841599"><ele>312.0</ele><time>2026-04-25T12:18:51.001Z</time></trkpt><trkpt lat="43.28736321389859" lon="11.545290728127945"><ele>309.25</ele><time>2026-04-25T12:18:52.001Z</time></trkpt><trkpt lat="43.28736449773993" lon="11.54509449855379"><ele>306.5</ele><time>2026-04-25T12:18:53.001Z</time></trkpt><trkpt lat="43.28740064166037" lon="11.54493286472364"><ele>303.75</ele><time>2026-04-25T12:18:54.001Z</time></trkpt><trkpt lat="43.28741438690038" lon="11.544780810101054"><ele>301.0</ele><time>2026-04-25T12:18:55.001Z</time></trkpt><trkpt lat="43.28742261753504" lon="11.544648711814313"><ele>300.6</ele><time>2026-04-25T12:18:56.001Z</time></trkpt><trkpt lat="43.28745277907192" lon="11.544502445796729"><ele>300.20000000000005</ele><time>2026-04-25T12:18:57.001Z</time></trkpt><trkpt lat="43.28748756983393" lon="11.544375902609753"><ele>299.79999999999995</ele><time>2026-04-25T12:18:58.001Z</time></trkpt><trkpt lat="43.287524319652036" lon="11.544262630775721"><ele>299.4</ele><time>2026-04-25T12:18:59.001Z</time></trkpt><trkpt lat="43.28755962690255" lon="11.544151080708907"><ele>299.0</ele><time>2026-04-25T12:19:00.001Z</time></trkpt><trkpt lat="43.287590919347245" lon="11.544046696795917"><ele>299.0</ele><time>2026-04-25T12:19:01.001Z</time></trkpt><trkpt lat="43.28763252078008" lon="11.543942536821776"><ele>299.0</ele><time>2026-04-25T12:19:02.001Z</time></trkpt><trkpt lat="43.287640159683185" lon="11.543814092256621"><ele>299.0</ele><time>2026-04-25T12:19:03.001Z</time></trkpt><trkpt lat="43.287636085601434" lon="11.543694321136602"><ele>299.0</ele><time>2026-04-25T12:19:04.001Z</time></trkpt><trkpt lat="43.28762606582462" lon="11.543573907865158"><ele>299.0</ele><time>2026-04-25T12:19:05.001Z</time></trkpt><trkpt lat="43.2876124657226" lon="11.543458576930613"><ele>299.0</ele><time>2026-04-25T12:19:06.001Z</time></trkpt><trkpt lat="43.287633592516634" lon="11.54334502015724"><ele>298.1666666666667</ele><time>2026-04-25T12:19:07.001Z</time></trkpt><trkpt lat="43.28765278606791" lon="11.543236707020677"><ele>297.33333333333337</ele><time>2026-04-25T12:19:08.001Z</time></trkpt><trkpt lat="43.2876792374347" lon="11.543122866806131"><ele>296.5</ele><time>2026-04-25T12:19:09.001Z</time></trkpt><trkpt lat="43.287707703731144" lon="11.543004400173338"><ele>295.6666666666667</ele><time>2026-04-25T12:19:10.001Z</time></trkpt><trkpt lat="43.28772233673896" lon="11.54288151175965"><ele>294.8333333333333</ele><time>2026-04-25T12:19:11.001Z</time></trkpt><trkpt lat="43.28775886276202" lon="11.542773965240496"><ele>294.0</ele><time>2026-04-25T12:19:12.001Z</time></trkpt><trkpt lat="43.28779236783304" lon="11.542675053227038"><ele>295.59999999999997</ele><time>2026-04-25T12:19:13.001Z</time></trkpt><trkpt lat="43.287832245697146" lon="11.542569990425287"><ele>297.2</ele><time>2026-04-25T12:19:14.001Z</time></trkpt><trkpt lat="43.287895511521754" lon="11.542480153578666"><ele>298.79999999999995</ele><time>2026-04-25T12:19:15.001Z</time></trkpt><trkpt lat="43.287964646684905" lon="11.542359361359859"><ele>300.4</ele><time>2026-04-25T12:19:16.001Z</time></trkpt><trkpt lat="43.28803375843073" lon="11.54220024386795"><ele>302.0</ele><time>2026-04-25T12:19:17.001Z</time></trkpt><trkpt lat="43.28812673431209" lon="11.54201989850802"><ele>302.0</ele><time>2026-04-25T12:19:18.001Z</time></trkpt><trkpt lat="43.2882096994563" lon="11.541836698125394"><ele>302.0</ele><time>2026-04-25T12:19:19.001Z</time></trkpt><trkpt lat="43.288270798696054" lon="11.541675057319997"><ele>302.0</ele><time>2026-04-25T12:19:20.001Z</time></trkpt><trkpt lat="43.288317878483404" lon="11.541536473280223"><ele>302.0</ele><time>2026-04-25T12:19:21.001Z</time></trkpt><trkpt lat="43.28837955946592" lon="11.54143257491703"><ele>302.0</ele><time>2026-04-25T12:19:22.001Z</time></trkpt><trkpt lat="43.288470511074" lon="11.541375406206058"><ele>302.0</ele><time>2026-04-25T12:19:23.001Z</time></trkpt><trkpt lat="43.288552774606316" lon="11.541318907392839"><ele>302.0</ele><time>2026-04-25T12:19:24.001Z</time></trkpt><trkpt lat="43.28865925566465" lon="11.54127082654383"><ele>302.0</ele><time>2026-04-25T12:19:25.001Z</time></trkpt><trkpt lat="43.288798015808446" lon="11.541228205827686"><ele>302.0</ele><time>2026-04-25T12:19:26.001Z</time></trkpt><trkpt lat="43.28895075628248" lon="11.541182788323392"><ele>302.0</ele><time>2026-04-25T12:19:27.001Z</time></trkpt><trkpt lat="43.28907164428703" lon="11.541121914343238"><ele>302.0</ele><time>2026-04-25T12:19:28.001Z</time></trkpt><trkpt lat="43.28918255404437" lon="11.541089652031012"><ele>302.0</ele><time>2026-04-25T12:19:29.001Z</time></trkpt><trkpt lat="43.28928753168986" lon="11.541098865484344"><ele>302.0</ele><time>2026-04-25T12:19:30.001Z</time></trkpt><trkpt lat="43.28938388505128" lon="11.54111422255148"><ele>302.0</ele><time>2026-04-25T12:19:31.001Z</time></trkpt><trkpt lat="43.28948925987721" lon="11.54115920220713"><ele>302.0</ele><time>2026-04-25T12:19:32.001Z</time></trkpt><trkpt lat="43.289608980845905" lon="11.54120091837045"><ele>302.0</ele><time>2026-04-25T12:19:33.001Z</time></trkpt><trkpt lat="43.28973453459737" lon="11.541208200364615"><ele>302.0</ele><time>2026-04-25T12:19:34.001Z</time></trkpt><trkpt lat="43.28985375145154" lon="11.541222638332329"><ele>302.0</ele><time>2026-04-25T12:19:35.001Z</time></trkpt><trkpt lat="43.28998561231338" lon="11.541206860446392"><ele>302.0</ele><time>2026-04-25T12:19:36.001Z</time></trkpt><trkpt lat="43.29010867959758" lon="11.541188591577479"><ele>302.0</ele><time>2026-04-25T12:19:37.001Z</time></trkpt><trkpt lat="43.290219836422324" lon="11.541209413083058"><ele>302.0</ele><time>2026-04-25T12:19:38.001Z</time></trkpt><trkpt lat="43.29032029322647" lon="11.541226509086496"><ele>302.0</ele><time>2026-04-25T12:19:39.001Z</time></trkpt><trkpt lat="43.29041272548581" lon="11.541252529520948"><ele>302.0</ele><time>2026-04-25T12:19:40.001Z</time></trkpt><trkpt lat="43.29052200086794" lon="11.541273026630298"><ele>303.6</ele><time>2026-04-25T12:19:41.001Z</time></trkpt><trkpt lat="43.290630406031624" lon="11.54131840910832"><ele>305.2</ele><time>2026-04-25T12:19:42.001Z</time></trkpt><trkpt lat="43.290730288042745" lon="11.54135873254829"><ele>306.8</ele><time>2026-04-25T12:19:43.001Z</time></trkpt><trkpt lat="43.290833493845966" lon="11.541407775480804"><ele>308.4</ele><time>2026-04-25T12:19:44.001Z</time></trkpt><trkpt lat="43.29093597766275" lon="11.541383894923879"><ele>310.0</ele><time>2026-04-25T12:19:45.001Z</time></trkpt><trkpt lat="43.2910323270936" lon="11.541343780088209"><ele>310.0</ele><time>2026-04-25T12:19:46.001Z</time></trkpt><trkpt lat="43.2911207178335" lon="11.54128883786503"><ele>310.0</ele><time>2026-04-25T12:19:47.001Z</time></trkpt><trkpt lat="43.291181467371636" lon="11.541217085468924"><ele>310.0</ele><time>2026-04-25T12:19:48.001Z</time></trkpt><trkpt lat="43.29125286435667" lon="11.541152959253346"><ele>310.0</ele><time>2026-04-25T12:19:49.001Z</time></trkpt><trkpt lat="43.29130553635933" lon="11.541068938948941"><ele>310.0</ele><time>2026-04-25T12:19:50.001Z</time></trkpt><trkpt lat="43.29134195931328" lon="11.540965160128025"><ele>310.0</ele><time>2026-04-25T12:19:51.001Z</time></trkpt><trkpt lat="43.29134722698718" lon="11.540824307079678"><ele>308.8</ele><time>2026-04-25T12:19:52.001Z</time></trkpt><trkpt lat="43.2913387895387" lon="11.540683094309744"><ele>307.6</ele><time>2026-04-25T12:19:53.001Z</time></trkpt><trkpt lat="43.29132864639114" lon="11.540539759933697"><ele>306.4</ele><time>2026-04-25T12:19:54.001Z</time></trkpt><trkpt lat="43.29131917320589" lon="11.54040589314614"><ele>305.2</ele><time>2026-04-25T12:19:55.001Z</time></trkpt><trkpt lat="43.29132245084037" lon="11.540285796095116"><ele>304.0</ele><time>2026-04-25T12:19:56.001Z</time></trkpt><trkpt lat="43.29133633711073" lon="11.540163621268581"><ele>303.59999999999997</ele><time>2026-04-25T12:19:57.001Z</time></trkpt><trkpt lat="43.291359620886595" lon="11.540041072786659"><ele>303.2</ele><time>2026-04-25T12:19:58.001Z</time></trkpt><trkpt lat="43.291394536180775" lon="11.539917809491183"><ele>302.79999999999995</ele><time>2026-04-25T12:19:59.001Z</time></trkpt><trkpt lat="43.29144192206075" lon="11.539784370746034"><ele>302.4</ele><time>2026-04-25T12:20:00.001Z</time></trkpt><trkpt lat="43.29148925088006" lon="11.539651803293236"><ele>302.0</ele><time>2026-04-25T12:20:01.001Z</time></trkpt><trkpt lat="43.29152752205803" lon="11.539498762605747"><ele>305.75</ele><time>2026-04-25T12:20:02.001Z</time></trkpt><trkpt lat="43.291593705539654" lon="11.539367095425447"><ele>309.5</ele><time>2026-04-25T12:20:03.001Z</time></trkpt><trkpt lat="43.291656869647596" lon="11.53921358386981"><ele>313.25</ele><time>2026-04-25T12:20:04.001Z</time></trkpt><trkpt lat="43.29171541118273" lon="11.539079749224893"><ele>317.0</ele><time>2026-04-25T12:20:05.001Z</time></trkpt><trkpt lat="43.29177335338777" lon="11.538950387396529"><ele>317.0</ele><time>2026-04-25T12:20:06.001Z</time></trkpt><trkpt lat="43.291825423686554" lon="11.538849639742523"><ele>317.0</ele><time>2026-04-25T12:20:07.001Z</time></trkpt><trkpt lat="43.29187869524255" lon="11.538789711385297"><ele>317.0</ele><time>2026-04-25T12:20:08.001Z</time></trkpt><trkpt lat="43.291957496111465" lon="11.538809351588583"><ele>317.0</ele><time>2026-04-25T12:20:09.001Z</time></trkpt><trkpt lat="43.29202451768297" lon="11.538813925408137"><ele>317.0</ele><time>2026-04-25T12:20:10.001Z</time></trkpt><trkpt lat="43.29214806414622" lon="11.53884516205597"><ele>317.0</ele><time>2026-04-25T12:20:12.001Z</time></trkpt><trkpt lat="43.292216733014484" lon="11.538871956567508"><ele>317.0</ele><time>2026-04-25T12:20:13.001Z</time></trkpt><trkpt lat="43.292296497594116" lon="11.53890064965012"><ele>317.0</ele><time>2026-04-25T12:20:14.001Z</time></trkpt><trkpt lat="43.292383901174006" lon="11.538927592196913"><ele>317.0</ele><time>2026-04-25T12:20:15.001Z</time></trkpt><trkpt lat="43.29247148006835" lon="11.538938205302593"><ele>317.0</ele><time>2026-04-25T12:20:16.001Z</time></trkpt><trkpt lat="43.29254972308885" lon="11.538943840589837"><ele>317.0</ele><time>2026-04-25T12:20:17.001Z</time></trkpt><trkpt lat="43.29262266940915" lon="11.538939284222572"><ele>317.0</ele><time>2026-04-25T12:20:18.001Z</time></trkpt><trkpt lat="43.29270561251401" lon="11.53891086312012"><ele>317.0</ele><time>2026-04-25T12:20:19.001Z</time></trkpt><trkpt lat="43.292786622066934" lon="11.538854624259276"><ele>317.0</ele><time>2026-04-25T12:20:20.001Z</time></trkpt><trkpt lat="43.29285723561483" lon="11.538786360423352"><ele>317.0</ele><time>2026-04-25T12:20:21.001Z</time></trkpt><trkpt lat="43.29291881253278" lon="11.53871852512442"><ele>317.0</ele><time>2026-04-25T12:20:22.001Z</time></trkpt><trkpt lat="43.29298975821258" lon="11.53864447060065"><ele>317.0</ele><time>2026-04-25T12:20:23.001Z</time></trkpt><trkpt lat="43.293076633315586" lon="11.538563462215352"><ele>315.75</ele><time>2026-04-25T12:20:24.001Z</time></trkpt><trkpt lat="43.2931793961042" lon="11.538472064960883"><ele>314.5</ele><time>2026-04-25T12:20:25.001Z</time></trkpt><trkpt lat="43.29327766919477" lon="11.538386523547743"><ele>313.25</ele><time>2026-04-25T12:20:26.001Z</time></trkpt><trkpt lat="43.293374258975284" lon="11.538303232704738"><ele>312.0</ele><time>2026-04-25T12:20:27.001Z</time></trkpt><trkpt lat="43.29347605688095" lon="11.538212699513979"><ele>312.0</ele><time>2026-04-25T12:20:28.001Z</time></trkpt><trkpt lat="43.293575574515536" lon="11.538122064025371"><ele>312.0</ele><time>2026-04-25T12:20:29.001Z</time></trkpt><trkpt lat="43.293671091023825" lon="11.538034116107255"><ele>312.0</ele><time>2026-04-25T12:20:30.002Z</time></trkpt><trkpt lat="43.29376568854776" lon="11.537922204387359"><ele>312.0</ele><time>2026-04-25T12:20:31.002Z</time></trkpt><trkpt lat="43.29386382762113" lon="11.537837749750361"><ele>312.25</ele><time>2026-04-25T12:20:32.002Z</time></trkpt><trkpt lat="43.29397846728975" lon="11.537743197235203"><ele>312.5</ele><time>2026-04-25T12:20:33.002Z</time></trkpt><trkpt lat="43.29407592834541" lon="11.537645382084593"><ele>312.75</ele><time>2026-04-25T12:20:34.002Z</time></trkpt><trkpt lat="43.2941679328159" lon="11.53753968862818"><ele>313.0</ele><time>2026-04-25T12:20:35.002Z</time></trkpt><trkpt lat="43.29425129237284" lon="11.53742865944378"><ele>313.0</ele><time>2026-04-25T12:20:36.002Z</time></trkpt><trkpt lat="43.294331055274434" lon="11.537315847480182"><ele>313.0</ele><time>2026-04-25T12:20:37.002Z</time></trkpt><trkpt lat="43.294406855690916" lon="11.537208618209142"><ele>313.0</ele><time>2026-04-25T12:20:38.002Z</time></trkpt><trkpt lat="43.29448671297199" lon="11.537143478402978"><ele>313.0</ele><time>2026-04-25T12:20:39.002Z</time></trkpt><trkpt lat="43.294555686684866" lon="11.537079829201552"><ele>313.0</ele><time>2026-04-25T12:20:40.002Z</time></trkpt><trkpt lat="43.294624890822725" lon="11.537030446418573"><ele>312.0</ele><time>2026-04-25T12:20:41.002Z</time></trkpt><trkpt lat="43.294692088600435" lon="11.536990365267423"><ele>311.0</ele><time>2026-04-25T12:20:42.002Z</time></trkpt><trkpt lat="43.29476433001487" lon="11.536948904222589"><ele>310.0</ele><time>2026-04-25T12:20:43.002Z</time></trkpt><trkpt lat="43.29484170022103" lon="11.536903736607512"><ele>309.0</ele><time>2026-04-25T12:20:44.002Z</time></trkpt><trkpt lat="43.29491415113152" lon="11.536858300226704"><ele>308.0</ele><time>2026-04-25T12:20:45.002Z</time></trkpt><trkpt lat="43.294984609387434" lon="11.53682420330559"><ele>307.0</ele><time>2026-04-25T12:20:46.002Z</time></trkpt><trkpt lat="43.29505890501529" lon="11.536807377905829"><ele>307.0</ele><time>2026-04-25T12:20:47.002Z</time></trkpt><trkpt lat="43.29513860426943" lon="11.53679715810912"><ele>307.0</ele><time>2026-04-25T12:20:48.002Z</time></trkpt><trkpt lat="43.29521729334249" lon="11.536792548708998"><ele>307.0</ele><time>2026-04-25T12:20:49.002Z</time></trkpt><trkpt lat="43.295304403674656" lon="11.536767377375064"><ele>307.0</ele><time>2026-04-25T12:20:50.002Z</time></trkpt><trkpt lat="43.29538156860199" lon="11.536712643990032"><ele>307.0</ele><time>2026-04-25T12:20:51.002Z</time></trkpt><trkpt lat="43.29545202076275" lon="11.536637852497112"><ele>307.0</ele><time>2026-04-25T12:20:52.002Z</time></trkpt><trkpt lat="43.295517577016085" lon="11.53653716417169"><ele>307.0</ele><time>2026-04-25T12:20:53.002Z</time></trkpt><trkpt lat="43.29556252321574" lon="11.536434454189529"><ele>307.0</ele><time>2026-04-25T12:20:54.002Z</time></trkpt><trkpt lat="43.29559766713837" lon="11.536340737913681"><ele>307.0</ele><time>2026-04-25T12:20:55.001Z</time></trkpt><trkpt lat="43.295639573726824" lon="11.536226863958516"><ele>307.0</ele><time>2026-04-25T12:20:56.001Z</time></trkpt><trkpt lat="43.29567468964514" lon="11.536127027162125"><ele>307.0</ele><time>2026-04-25T12:20:57.001Z</time></trkpt><trkpt lat="43.29570689295505" lon="11.536037394522621"><ele>307.0</ele><time>2026-04-25T12:20:58.001Z</time></trkpt><trkpt lat="43.29574430507712" lon="11.535919152119178"><ele>309.66666666666663</ele><time>2026-04-25T12:21:00.001Z</time></trkpt><trkpt lat="43.29578680703338" lon="11.535798388891095"><ele>312.3333333333333</ele><time>2026-04-25T12:21:02.001Z</time></trkpt><trkpt lat="43.295818042378734" lon="11.535635901970267"><ele>315.0</ele><time>2026-04-25T12:21:04.001Z</time></trkpt><trkpt lat="43.295829941824806" lon="11.5355420743161"><ele>317.6666666666667</ele><time>2026-04-25T12:21:05.001Z</time></trkpt><trkpt lat="43.29583654289921" lon="11.535442175421833"><ele>320.33333333333337</ele><time>2026-04-25T12:21:06.001Z</time></trkpt><trkpt lat="43.29583499281106" lon="11.535344526817003"><ele>323.0</ele><time>2026-04-25T12:21:07.001Z</time></trkpt><trkpt lat="43.29583920208469" lon="11.535253622276848"><ele>324.0</ele><time>2026-04-25T12:21:08.001Z</time></trkpt><trkpt lat="43.29585028199063" lon="11.53508572029821"><ele>325.0</ele><time>2026-04-25T12:21:10.001Z</time></trkpt><trkpt lat="43.29585865010315" lon="11.53492695947027"><ele>326.0</ele><time>2026-04-25T12:21:12.001Z</time></trkpt><trkpt lat="43.29582772414391" lon="11.534783976994264"><ele>327.0</ele><time>2026-04-25T12:21:14.001Z</time></trkpt><trkpt lat="43.295779757207924" lon="11.534659219811203"><ele>327.0</ele><time>2026-04-25T12:21:16.001Z</time></trkpt><trkpt lat="43.2957055223692" lon="11.53456556143406"><ele>327.0</ele><time>2026-04-25T12:21:18.001Z</time></trkpt><trkpt lat="43.295600119234095" lon="11.534479298184204"><ele>327.0</ele><time>2026-04-25T12:21:20.001Z</time></trkpt><trkpt lat="43.2955310418229" lon="11.534437850719375"><ele>327.0</ele><time>2026-04-25T12:21:21.001Z</time></trkpt><trkpt lat="43.29545798733359" lon="11.534393629266443"><ele>327.0</ele><time>2026-04-25T12:21:22.001Z</time></trkpt><trkpt lat="43.29537689095425" lon="11.534331685097094"><ele>327.6</ele><time>2026-04-25T12:21:23.001Z</time></trkpt><trkpt lat="43.295299624870275" lon="11.534251677429626"><ele>328.20000000000005</ele><time>2026-04-25T12:21:24.001Z</time></trkpt><trkpt lat="43.295226687384854" lon="11.534152800990963"><ele>328.8</ele><time>2026-04-25T12:21:25.001Z</time></trkpt><trkpt lat="43.295159766113564" lon="11.534060285591972"><ele>329.4</ele><time>2026-04-25T12:21:26.001Z</time></trkpt><trkpt lat="43.29509397249659" lon="11.533971058305335"><ele>330.0</ele><time>2026-04-25T12:21:27.001Z</time></trkpt><trkpt lat="43.29500862213494" lon="11.533909266941123"><ele>330.0</ele><time>2026-04-25T12:21:28.001Z</time></trkpt><trkpt lat="43.2948961225744" lon="11.533826435437803"><ele>330.0</ele><time>2026-04-25T12:21:29.001Z</time></trkpt><trkpt lat="43.29479542555386" lon="11.533769999541132"><ele>330.0</ele><time>2026-04-25T12:21:30.001Z</time></trkpt><trkpt lat="43.294695760851546" lon="11.533715584531063"><ele>330.0</ele><time>2026-04-25T12:21:31.001Z</time></trkpt><trkpt lat="43.29460529396489" lon="11.533646260380634"><ele>330.0</ele><time>2026-04-25T12:21:32.001Z</time></trkpt><trkpt lat="43.29453864410349" lon="11.533568707760079"><ele>328.6</ele><time>2026-04-25T12:21:33.001Z</time></trkpt><trkpt lat="43.29450121197067" lon="11.53347953726836"><ele>327.2</ele><time>2026-04-25T12:21:34.001Z</time></trkpt><trkpt lat="43.29447639873712" lon="11.533380359337418"><ele>325.79999999999995</ele><time>2026-04-25T12:21:35.001Z</time></trkpt><trkpt lat="43.294475136208725" lon="11.533256968576808"><ele>324.4</ele><time>2026-04-25T12:21:36.001Z</time></trkpt><trkpt lat="43.294484878268364" lon="11.53308733468463"><ele>323.0</ele><time>2026-04-25T12:21:37.001Z</time></trkpt><trkpt lat="43.29447943662077" lon="11.532901767186818"><ele>323.5</ele><time>2026-04-25T12:21:38.001Z</time></trkpt><trkpt lat="43.294448113170176" lon="11.53272537974331"><ele>324.0</ele><time>2026-04-25T12:21:39.001Z</time></trkpt><trkpt lat="43.29445826122237" lon="11.532567659671097"><ele>324.5</ele><time>2026-04-25T12:21:40.001Z</time></trkpt><trkpt lat="43.29448173921359" lon="11.532412802794413"><ele>325.0</ele><time>2026-04-25T12:21:41.001Z</time></trkpt><trkpt lat="43.29450593066967" lon="11.532295442090714"><ele>325.0</ele><time>2026-04-25T12:21:42.001Z</time></trkpt><trkpt lat="43.29457169098763" lon="11.532179038132425"><ele>325.0</ele><time>2026-04-25T12:21:44.001Z</time></trkpt><trkpt lat="43.29459041827542" lon="11.532075193459299"><ele>325.0</ele><time>2026-04-25T12:21:47.001Z</time></trkpt><trkpt lat="43.294637859396104" lon="11.531991809066435"><ele>325.0</ele><time>2026-04-25T12:22:43.001Z</time></trkpt><trkpt lat="43.29467801413785" lon="11.531889358099146"><ele>325.0</ele><time>2026-04-25T12:22:46.001Z</time></trkpt><trkpt lat="43.294732979546325" lon="11.531775901528674"><ele>325.0</ele><time>2026-04-25T12:22:48.001Z</time></trkpt><trkpt lat="43.29477627040845" lon="11.531682340088375"><ele>324.16666666666663</ele><time>2026-04-25T12:22:50.001Z</time></trkpt><trkpt lat="43.29480993283808" lon="11.531595981169167"><ele>323.3333333333333</ele><time>2026-04-25T12:22:54.001Z</time></trkpt><trkpt lat="43.29485890150905" lon="11.531517757687528"><ele>322.5</ele><time>2026-04-25T12:22:56.001Z</time></trkpt><trkpt lat="43.294927034303875" lon="11.531373729437552"><ele>321.6666666666667</ele><time>2026-04-25T12:22:58.001Z</time></trkpt><trkpt lat="43.294970195982174" lon="11.531286114915606"><ele>320.83333333333337</ele><time>2026-04-25T12:22:59.001Z</time></trkpt><trkpt lat="43.2950295862439" lon="11.531197669091663"><ele>320.0</ele><time>2026-04-25T12:23:00.001Z</time></trkpt><trkpt lat="43.29508284254848" lon="11.531110822989877"><ele>320.0</ele><time>2026-04-25T12:23:01.001Z</time></trkpt><trkpt lat="43.29514818714473" lon="11.531028243507933"><ele>320.0</ele><time>2026-04-25T12:23:02Z</time></trkpt><trkpt lat="43.29522030504709" lon="11.530948244303866"><ele>320.0</ele><time>2026-04-25T12:23:03.001Z</time></trkpt><trkpt lat="43.29529714200562" lon="11.530873068054056"><ele>320.0</ele><time>2026-04-25T12:23:04Z</time></trkpt><trkpt lat="43.295387532949576" lon="11.530825473836929"><ele>320.0</ele><time>2026-04-25T12:23:05Z</time></trkpt><trkpt lat="43.29547446181462" lon="11.530764148142346"><ele>320.0</ele><time>2026-04-25T12:23:06Z</time></trkpt><trkpt lat="43.29556200166994" lon="11.530707555185897"><ele>320.0</ele><time>2026-04-25T12:23:07Z</time></trkpt><trkpt lat="43.29565468452205" lon="11.530651562762708"><ele>320.0</ele><time>2026-04-25T12:23:08Z</time></trkpt><trkpt lat="43.29574474556678" lon="11.530603432513024"><ele>320.0</ele><time>2026-04-25T12:23:09Z</time></trkpt><trkpt lat="43.29584196466485" lon="11.530555935185278"><ele>320.0</ele><time>2026-04-25T12:23:10Z</time></trkpt><trkpt lat="43.2959381590889" lon="11.530492599030659"><ele>317.6</ele><time>2026-04-25T12:23:11Z</time></trkpt><trkpt lat="43.29604707939476" lon="11.530456427404342"><ele>315.2</ele><time>2026-04-25T12:23:12Z</time></trkpt><trkpt lat="43.296145883145556" lon="11.53041865164954"><ele>312.8</ele><time>2026-04-25T12:23:13Z</time></trkpt><trkpt lat="43.29624221663966" lon="11.530378141077787"><ele>310.4</ele><time>2026-04-25T12:23:14Z</time></trkpt><trkpt lat="43.296337335915716" lon="11.53033309129131"><ele>308.0</ele><time>2026-04-25T12:23:15Z</time></trkpt><trkpt lat="43.296423905988014" lon="11.530298226160028"><ele>306.2857142857143</ele><time>2026-04-25T12:23:16Z</time></trkpt><trkpt lat="43.29649683844669" lon="11.530265299358675"><ele>304.57142857142856</ele><time>2026-04-25T12:23:17Z</time></trkpt><trkpt lat="43.29656276629471" lon="11.530218852232151"><ele>302.8571428571429</ele><time>2026-04-25T12:23:18Z</time></trkpt><trkpt lat="43.29661011692523" lon="11.53015505491171"><ele>301.1428571428571</ele><time>2026-04-25T12:23:19Z</time></trkpt><trkpt lat="43.296641976188525" lon="11.530078805491916"><ele>299.42857142857144</ele><time>2026-04-25T12:23:20Z</time></trkpt><trkpt lat="43.29665723405096" lon="11.529989789738728"><ele>297.7142857142857</ele><time>2026-04-25T12:23:21Z</time></trkpt><trkpt lat="43.29661967793977" lon="11.529887578005141"><ele>296.0</ele><time>2026-04-25T12:23:22Z</time></trkpt><trkpt lat="43.296564364264114" lon="11.529809318943009"><ele>296.0</ele><time>2026-04-25T12:23:23Z</time></trkpt><trkpt lat="43.296492106070545" lon="11.529755285387491"><ele>296.0</ele><time>2026-04-25T12:23:24Z</time></trkpt><trkpt lat="43.296404665088495" lon="11.529707737686085"><ele>296.0</ele><time>2026-04-25T12:23:25Z</time></trkpt><trkpt lat="43.29629996486442" lon="11.529661980295067"><ele>296.0</ele><time>2026-04-25T12:23:26Z</time></trkpt><trkpt lat="43.296170447740195" lon="11.529615332335075"><ele>296.0</ele><time>2026-04-25T12:23:27Z</time></trkpt><trkpt lat="43.29605934533365" lon="11.529582291002331"><ele>295.6</ele><time>2026-04-25T12:23:28Z</time></trkpt><trkpt lat="43.29595487053645" lon="11.529559969924144"><ele>295.20000000000005</ele><time>2026-04-25T12:23:29Z</time></trkpt><trkpt lat="43.29585824183328" lon="11.529518477736048"><ele>294.79999999999995</ele><time>2026-04-25T12:23:30Z</time></trkpt><trkpt lat="43.295766356534614" lon="11.529444595447297"><ele>294.4</ele><time>2026-04-25T12:23:31Z</time></trkpt><trkpt lat="43.29568321797089" lon="11.529377604551236"><ele>294.0</ele><time>2026-04-25T12:23:32Z</time></trkpt><trkpt lat="43.295598484931084" lon="11.529320947758194"><ele>294.42857142857144</ele><time>2026-04-25T12:23:33Z</time></trkpt><trkpt lat="43.2955120439863" lon="11.529282160152682"><ele>294.8571428571429</ele><time>2026-04-25T12:23:34Z</time></trkpt><trkpt lat="43.295433346759374" lon="11.52924641351077"><ele>295.2857142857143</ele><time>2026-04-25T12:23:35Z</time></trkpt><trkpt lat="43.29537467485058" lon="11.529213405969614"><ele>295.7142857142857</ele><time>2026-04-25T12:23:36Z</time></trkpt><trkpt lat="43.295323705663" lon="11.529160182047622"><ele>296.14285714285717</ele><time>2026-04-25T12:23:37Z</time></trkpt><trkpt lat="43.295290082145236" lon="11.529082298528188"><ele>296.57142857142856</ele><time>2026-04-25T12:23:38Z</time></trkpt><trkpt lat="43.295325685830534" lon="11.528999385527944"><ele>297.0</ele><time>2026-04-25T12:23:39Z</time></trkpt><trkpt lat="43.29541331974075" lon="11.528898089991142"><ele>297.0</ele><time>2026-04-25T12:23:41Z</time></trkpt><trkpt lat="43.29547024365505" lon="11.52885844808353"><ele>297.0</ele><time>2026-04-25T12:23:42Z</time></trkpt><trkpt lat="43.29552978251054" lon="11.528814155516013"><ele>297.0</ele><time>2026-04-25T12:23:43Z</time></trkpt><trkpt lat="43.29558700237723" lon="11.52877342624956"><ele>297.0</ele><time>2026-04-25T12:23:44Z</time></trkpt><trkpt lat="43.29564442161577" lon="11.528729034713098"><ele>297.0</ele><time>2026-04-25T12:23:45Z</time></trkpt><trkpt lat="43.29570028539261" lon="11.528675399864797"><ele>297.0</ele><time>2026-04-25T12:23:46.001Z</time></trkpt><trkpt lat="43.29575264042769" lon="11.528621108057749"><ele>297.0</ele><time>2026-04-25T12:23:47.001Z</time></trkpt><trkpt lat="43.29580405826091" lon="11.528557551644017"><ele>296.0</ele><time>2026-04-25T12:23:48.001Z</time></trkpt><trkpt lat="43.295855189078104" lon="11.528471634927007"><ele>295.0</ele><time>2026-04-25T12:23:49.001Z</time></trkpt><trkpt lat="43.2958927601077" lon="11.52836944100773"><ele>294.0</ele><time>2026-04-25T12:23:50.001Z</time></trkpt><trkpt lat="43.29592087224077" lon="11.528255016153086"><ele>293.0</ele><time>2026-04-25T12:23:51.001Z</time></trkpt><trkpt lat="43.29593909581443" lon="11.528114364389173"><ele>292.0</ele><time>2026-04-25T12:23:52.001Z</time></trkpt><trkpt lat="43.295953500387554" lon="11.527953782718235"><ele>292.0</ele><time>2026-04-25T12:23:53.001Z</time></trkpt><trkpt lat="43.29596953939985" lon="11.527798813010945"><ele>292.0</ele><time>2026-04-25T12:23:54.001Z</time></trkpt><trkpt lat="43.29598536122842" lon="11.527645954342383"><ele>292.0</ele><time>2026-04-25T12:23:55.001Z</time></trkpt><trkpt lat="43.29599243711956" lon="11.527495202381658"><ele>292.0</ele><time>2026-04-25T12:23:56.001Z</time></trkpt><trkpt lat="43.2960136970948" lon="11.527355099897973"><ele>292.0</ele><time>2026-04-25T12:23:57.001Z</time></trkpt><trkpt lat="43.29604029399877" lon="11.52720434534029"><ele>292.0</ele><time>2026-04-25T12:23:58.001Z</time></trkpt><trkpt lat="43.29610021635993" lon="11.527075464388261"><ele>292.0</ele><time>2026-04-25T12:23:59.001Z</time></trkpt><trkpt lat="43.29615650198413" lon="11.526958935355779"><ele>292.0</ele><time>2026-04-25T12:24:00.001Z</time></trkpt><trkpt lat="43.29621900452799" lon="11.526847888592537"><ele>292.0</ele><time>2026-04-25T12:24:01.001Z</time></trkpt><trkpt lat="43.2962910260437" lon="11.526730493662011"><ele>292.0</ele><time>2026-04-25T12:24:02.001Z</time></trkpt><trkpt lat="43.29636981701238" lon="11.526602204226734"><ele>291.4</ele><time>2026-04-25T12:24:03.001Z</time></trkpt><trkpt lat="43.29645342365478" lon="11.526466073913701"><ele>290.79999999999995</ele><time>2026-04-25T12:24:04.001Z</time></trkpt><trkpt lat="43.29653143065163" lon="11.526343362229746"><ele>290.2</ele><time>2026-04-25T12:24:05.001Z</time></trkpt><trkpt lat="43.296612805644955" lon="11.526253505866405"><ele>289.59999999999997</ele><time>2026-04-25T12:24:06.001Z</time></trkpt><trkpt lat="43.29669078755366" lon="11.526176407225345"><ele>289.0</ele><time>2026-04-25T12:24:07.001Z</time></trkpt><trkpt lat="43.29674772472979" lon="11.526095792855525"><ele>289.0</ele><time>2026-04-25T12:24:08.001Z</time></trkpt><trkpt lat="43.29676836194978" lon="11.525983638894706"><ele>289.0</ele><time>2026-04-25T12:24:09.001Z</time></trkpt><trkpt lat="43.296786281482746" lon="11.525871801091963"><ele>289.0</ele><time>2026-04-25T12:24:10.001Z</time></trkpt><trkpt lat="43.296771426636" lon="11.525755753606312"><ele>289.0</ele><time>2026-04-25T12:24:11.001Z</time></trkpt><trkpt lat="43.29675863420538" lon="11.525634127528905"><ele>289.0</ele><time>2026-04-25T12:24:12.001Z</time></trkpt><trkpt lat="43.296751080078025" lon="11.525513631029161"><ele>289.0</ele><time>2026-04-25T12:24:13.001Z</time></trkpt><trkpt lat="43.29674865103714" lon="11.525391648940344"><ele>289.59999999999997</ele><time>2026-04-25T12:24:14.001Z</time></trkpt><trkpt lat="43.29676922768555" lon="11.525278294517998"><ele>290.2</ele><time>2026-04-25T12:24:15.001Z</time></trkpt><trkpt lat="43.29678320070761" lon="11.525141693942025"><ele>290.79999999999995</ele><time>2026-04-25T12:24:16.001Z</time></trkpt><trkpt lat="43.296782221562154" lon="11.525005232405283"><ele>291.4</ele><time>2026-04-25T12:24:17.001Z</time></trkpt><trkpt lat="43.296740758926504" lon="11.524870664617689"><ele>292.0</ele><time>2026-04-25T12:24:18.001Z</time></trkpt><trkpt lat="43.296682346422664" lon="11.524738800031432"><ele>292.0</ele><time>2026-04-25T12:24:19.001Z</time></trkpt><trkpt lat="43.29663685330368" lon="11.52457894380719"><ele>292.0</ele><time>2026-04-25T12:24:20.001Z</time></trkpt><trkpt lat="43.296601984735275" lon="11.52443715277312"><ele>292.0</ele><time>2026-04-25T12:24:21.001Z</time></trkpt><trkpt lat="43.29657187041985" lon="11.52425108285626"><ele>292.0</ele><time>2026-04-25T12:24:22.001Z</time></trkpt><trkpt lat="43.296540642473374" lon="11.524024633862302"><ele>294.5</ele><time>2026-04-25T12:24:23.001Z</time></trkpt><trkpt lat="43.29650288345954" lon="11.523818575937911"><ele>297.0</ele><time>2026-04-25T12:24:24.001Z</time></trkpt><trkpt lat="43.29647162586535" lon="11.523629107176252"><ele>299.5</ele><time>2026-04-25T12:24:25.001Z</time></trkpt><trkpt lat="43.296447151575414" lon="11.523467463451013"><ele>302.0</ele><time>2026-04-25T12:24:26.001Z</time></trkpt><trkpt lat="43.2964304630224" lon="11.523311041124865"><ele>302.8</ele><time>2026-04-25T12:24:27.001Z</time></trkpt><trkpt lat="43.29642097334866" lon="11.523147686462535"><ele>303.6</ele><time>2026-04-25T12:24:28.001Z</time></trkpt><trkpt lat="43.29643349981456" lon="11.522990164478284"><ele>304.40000000000003</ele><time>2026-04-25T12:24:29.001Z</time></trkpt><trkpt lat="43.29643881490924" lon="11.522846045143343"><ele>305.2</ele><time>2026-04-25T12:24:30.001Z</time></trkpt><trkpt lat="43.2964506208243" lon="11.522708179129806"><ele>306.0</ele><time>2026-04-25T12:24:31.001Z</time></trkpt><trkpt lat="43.29647903840882" lon="11.522599976945392"><ele>306.0</ele><time>2026-04-25T12:24:32.001Z</time></trkpt><trkpt lat="43.296518510531655" lon="11.522494194314698"><ele>306.0</ele><time>2026-04-25T12:24:33.001Z</time></trkpt><trkpt lat="43.296590236458634" lon="11.522393579954974"><ele>306.0</ele><time>2026-04-25T12:24:34.001Z</time></trkpt><trkpt lat="43.29664673816397" lon="11.522278448944837"><ele>306.0</ele><time>2026-04-25T12:24:35.001Z</time></trkpt><trkpt lat="43.296694961693625" lon="11.522131987325954"><ele>306.0</ele><time>2026-04-25T12:24:36.001Z</time></trkpt><trkpt lat="43.2967054263838" lon="11.52198329304172"><ele>304.3333333333333</ele><time>2026-04-25T12:24:37.001Z</time></trkpt><trkpt lat="43.296719855884724" lon="11.521834402007686"><ele>302.6666666666667</ele><time>2026-04-25T12:24:38.001Z</time></trkpt><trkpt lat="43.296759202103814" lon="11.521726237114814"><ele>301.0</ele><time>2026-04-25T12:24:39.001Z</time></trkpt><trkpt lat="43.296793094696035" lon="11.52162488413282"><ele>299.33333333333337</ele><time>2026-04-25T12:24:40.001Z</time></trkpt><trkpt lat="43.296851563647344" lon="11.521567569743674"><ele>297.6666666666667</ele><time>2026-04-25T12:24:41.001Z</time></trkpt><trkpt lat="43.29693127591842" lon="11.521521422478221"><ele>296.0</ele><time>2026-04-25T12:24:42.001Z</time></trkpt><trkpt lat="43.29702186500087" lon="11.521467789180802"><ele>296.0</ele><time>2026-04-25T12:24:43.001Z</time></trkpt><trkpt lat="43.297110280190566" lon="11.521423922815075"><ele>296.0</ele><time>2026-04-25T12:24:44.001Z</time></trkpt><trkpt lat="43.29720287542764" lon="11.52138689886976"><ele>296.0</ele><time>2026-04-25T12:24:45.001Z</time></trkpt><trkpt lat="43.297293088084665" lon="11.521360506509895"><ele>296.0</ele><time>2026-04-25T12:24:46.001Z</time></trkpt><trkpt lat="43.29738063451659" lon="11.521351996621291"><ele>296.0</ele><time>2026-04-25T12:24:47.001Z</time></trkpt><trkpt lat="43.29746513819859" lon="11.521352471695518"><ele>297.6</ele><time>2026-04-25T12:24:48.001Z</time></trkpt><trkpt lat="43.2975480883567" lon="11.52139700241511"><ele>299.20000000000005</ele><time>2026-04-25T12:24:49.001Z</time></trkpt><trkpt lat="43.297632684935806" lon="11.521451822424725"><ele>300.79999999999995</ele><time>2026-04-25T12:24:50.001Z</time></trkpt><trkpt lat="43.297713987642105" lon="11.521532047054263"><ele>302.4</ele><time>2026-04-25T12:24:51.001Z</time></trkpt><trkpt lat="43.297788923117544" lon="11.521626954226631"><ele>304.0</ele><time>2026-04-25T12:24:52.001Z</time></trkpt><trkpt lat="43.297872260859435" lon="11.521693045409789"><ele>304.0</ele><time>2026-04-25T12:24:53.001Z</time></trkpt><trkpt lat="43.2979428952153" lon="11.521793957736506"><ele>304.0</ele><time>2026-04-25T12:24:54.001Z</time></trkpt><trkpt lat="43.29800499854988" lon="11.52190244153196"><ele>304.0</ele><time>2026-04-25T12:24:55.001Z</time></trkpt><trkpt lat="43.29805686412185" lon="11.522012945131626"><ele>304.0</ele><time>2026-04-25T12:24:56.001Z</time></trkpt><trkpt lat="43.2981093018767" lon="11.522119734387685"><ele>304.0</ele><time>2026-04-25T12:24:57.001Z</time></trkpt><trkpt lat="43.29816095982068" lon="11.522204899786914"><ele>304.2</ele><time>2026-04-25T12:24:58.001Z</time></trkpt><trkpt lat="43.298215589109056" lon="11.522289505044451"><ele>304.4</ele><time>2026-04-25T12:24:59.001Z</time></trkpt><trkpt lat="43.298307298009156" lon="11.522336436246254"><ele>304.6</ele><time>2026-04-25T12:25:00.001Z</time></trkpt><trkpt lat="43.29841328854257" lon="11.522330217340864"><ele>304.8</ele><time>2026-04-25T12:25:01.001Z</time></trkpt><trkpt lat="43.298500438094536" lon="11.52228977915579"><ele>305.0</ele><time>2026-04-25T12:25:02.001Z</time></trkpt><trkpt lat="43.29857499235404" lon="11.522264005262132"><ele>305.0</ele><time>2026-04-25T12:25:03.001Z</time></trkpt><trkpt lat="43.29864847186992" lon="11.522267759661844"><ele>305.0</ele><time>2026-04-25T12:25:04.001Z</time></trkpt><trkpt lat="43.29873487718827" lon="11.522288812753676"><ele>305.0</ele><time>2026-04-25T12:25:05.001Z</time></trkpt><trkpt lat="43.298794506367756" lon="11.522391966050591"><ele>305.0</ele><time>2026-04-25T12:25:06.001Z</time></trkpt><trkpt lat="43.29886485755335" lon="11.522470771836426"><ele>305.0</ele><time>2026-04-25T12:25:07Z</time></trkpt><trkpt lat="43.298948798063506" lon="11.522507221372122"><ele>305.0</ele><time>2026-04-25T12:25:08Z</time></trkpt><trkpt lat="43.29903197479825" lon="11.522546911337306"><ele>303.6</ele><time>2026-04-25T12:25:09Z</time></trkpt><trkpt lat="43.29914074861545" lon="11.522541767783"><ele>302.2</ele><time>2026-04-25T12:25:10Z</time></trkpt><trkpt lat="43.29924806961816" lon="11.522527669788193"><ele>300.8</ele><time>2026-04-25T12:25:11Z</time></trkpt><trkpt lat="43.299347543624854" lon="11.522509875561212"><ele>299.4</ele><time>2026-04-25T12:25:12Z</time></trkpt><trkpt lat="43.299445996819635" lon="11.52247822352167"><ele>298.0</ele><time>2026-04-25T12:25:13Z</time></trkpt><trkpt lat="43.29954296152758" lon="11.52241309722253"><ele>298.0</ele><time>2026-04-25T12:25:14Z</time></trkpt><trkpt lat="43.2996241563919" lon="11.522352693195957"><ele>298.0</ele><time>2026-04-25T12:25:15Z</time></trkpt><trkpt lat="43.299715796160065" lon="11.522292253677387"><ele>298.0</ele><time>2026-04-25T12:25:16Z</time></trkpt><trkpt lat="43.29980829204475" lon="11.522257751825924"><ele>298.0</ele><time>2026-04-25T12:25:17Z</time></trkpt><trkpt lat="43.29991147532435" lon="11.522240186959682"><ele>298.0</ele><time>2026-04-25T12:25:18Z</time></trkpt><trkpt lat="43.3000121271931" lon="11.522243646680364"><ele>298.2</ele><time>2026-04-25T12:25:19Z</time></trkpt><trkpt lat="43.30011534259551" lon="11.52226032975987"><ele>298.4</ele><time>2026-04-25T12:25:20Z</time></trkpt><trkpt lat="43.300216109145104" lon="11.52228684957581"><ele>298.59999999999997</ele><time>2026-04-25T12:25:21Z</time></trkpt><trkpt lat="43.300316608440575" lon="11.522324312423434"><ele>298.8</ele><time>2026-04-25T12:25:22Z</time></trkpt><trkpt lat="43.300416415957606" lon="11.522373423997172"><ele>299.0</ele><time>2026-04-25T12:25:23Z</time></trkpt><trkpt lat="43.30049779095316" lon="11.522415381894655"><ele>298.0</ele><time>2026-04-25T12:25:24Z</time></trkpt><trkpt lat="43.30060317891768" lon="11.522438937036386"><ele>297.0</ele><time>2026-04-25T12:25:25Z</time></trkpt><trkpt lat="43.3006962769792" lon="11.522468733174241"><ele>296.0</ele><time>2026-04-25T12:25:26Z</time></trkpt><trkpt lat="43.30079622556505" lon="11.522501796876211"><ele>295.0</ele><time>2026-04-25T12:25:27Z</time></trkpt><trkpt lat="43.30090510708436" lon="11.522536233733193"><ele>294.0</ele><time>2026-04-25T12:25:28Z</time></trkpt><trkpt lat="43.30101221977757" lon="11.522571302451814"><ele>294.0</ele><time>2026-04-25T12:25:29Z</time></trkpt><trkpt lat="43.30111734687564" lon="11.52264163524555"><ele>294.0</ele><time>2026-04-25T12:25:30Z</time></trkpt><trkpt lat="43.301214572563666" lon="11.522698821041516"><ele>294.0</ele><time>2026-04-25T12:25:31Z</time></trkpt><trkpt lat="43.30130063315486" lon="11.522752189635248"><ele>294.0</ele><time>2026-04-25T12:25:32Z</time></trkpt><trkpt lat="43.30138635706096" lon="11.522810551197889"><ele>294.0</ele><time>2026-04-25T12:25:33Z</time></trkpt><trkpt lat="43.30148440121182" lon="11.522858393693582"><ele>293.2</ele><time>2026-04-25T12:25:34Z</time></trkpt><trkpt lat="43.30159057696591" lon="11.522863317563184"><ele>292.4</ele><time>2026-04-25T12:25:35Z</time></trkpt><trkpt lat="43.301693514843926" lon="11.522886816834642"><ele>291.6</ele><time>2026-04-25T12:25:36Z</time></trkpt><trkpt lat="43.301798305256504" lon="11.5229033653998"><ele>290.8</ele><time>2026-04-25T12:25:37Z</time></trkpt><trkpt lat="43.301906531387516" lon="11.522920818132505"><ele>290.0</ele><time>2026-04-25T12:25:38Z</time></trkpt><trkpt lat="43.3020117077516" lon="11.522932114067181"><ele>290.4</ele><time>2026-04-25T12:25:39Z</time></trkpt><trkpt lat="43.30210647053498" lon="11.522932982387136"><ele>290.8</ele><time>2026-04-25T12:25:40Z</time></trkpt><trkpt lat="43.30220191867957" lon="11.522917920024373"><ele>291.2</ele><time>2026-04-25T12:25:41Z</time></trkpt><trkpt lat="43.302308111801025" lon="11.522882626621538"><ele>291.6</ele><time>2026-04-25T12:25:42Z</time></trkpt><trkpt lat="43.30242791281037" lon="11.52283357570946"><ele>292.0</ele><time>2026-04-25T12:25:43Z</time></trkpt><trkpt lat="43.30254969137527" lon="11.522776923141164"><ele>292.0</ele><time>2026-04-25T12:25:44Z</time></trkpt><trkpt lat="43.302670166194055" lon="11.522737268612032"><ele>292.0</ele><time>2026-04-25T12:25:45Z</time></trkpt><trkpt lat="43.302787507030224" lon="11.522707582617395"><ele>292.0</ele><time>2026-04-25T12:25:46Z</time></trkpt><trkpt lat="43.302890258532464" lon="11.52268769988823"><ele>292.0</ele><time>2026-04-25T12:25:47Z</time></trkpt><trkpt lat="43.30298608086521" lon="11.522674762463726"><ele>292.0</ele><time>2026-04-25T12:25:48Z</time></trkpt><trkpt lat="43.30308938801111" lon="11.52267495782009"><ele>291.4</ele><time>2026-04-25T12:25:49Z</time></trkpt><trkpt lat="43.303177371294524" lon="11.522709739182886"><ele>290.79999999999995</ele><time>2026-04-25T12:25:50Z</time></trkpt><trkpt lat="43.30326084692998" lon="11.522714058608182"><ele>290.2</ele><time>2026-04-25T12:25:51Z</time></trkpt><trkpt lat="43.30333931011577" lon="11.52277099219078"><ele>289.59999999999997</ele><time>2026-04-25T12:25:52Z</time></trkpt><trkpt lat="43.30340068576037" lon="11.522863819813503"><ele>289.0</ele><time>2026-04-25T12:25:53Z</time></trkpt><trkpt lat="43.30346595799927" lon="11.522961950480955"><ele>292.8</ele><time>2026-04-25T12:25:54Z</time></trkpt><trkpt lat="43.303545781211874" lon="11.52305874615118"><ele>296.59999999999997</ele><time>2026-04-25T12:25:55Z</time></trkpt><trkpt lat="43.30360668112316" lon="11.523168684951733"><ele>300.4</ele><time>2026-04-25T12:25:56Z</time></trkpt><trkpt lat="43.303671250807255" lon="11.523278544467775"><ele>304.2</ele><time>2026-04-25T12:25:57Z</time></trkpt><trkpt lat="43.30372264918429" lon="11.5234066351102"><ele>308.0</ele><time>2026-04-25T12:25:58Z</time></trkpt><trkpt lat="43.30378399080935" lon="11.523517347374508"><ele>308.0</ele><time>2026-04-25T12:25:59Z</time></trkpt><trkpt lat="43.30384105290953" lon="11.523625176108814"><ele>308.0</ele><time>2026-04-25T12:26:00Z</time></trkpt><trkpt lat="43.30390121106584" lon="11.523721387479345"><ele>308.0</ele><time>2026-04-25T12:26:01Z</time></trkpt><trkpt lat="43.30397873718986" lon="11.523800635896475"><ele>308.0</ele><time>2026-04-25T12:26:02Z</time></trkpt><trkpt lat="43.304071485148825" lon="11.523830604383807"><ele>308.0</ele><time>2026-04-25T12:26:03Z</time></trkpt><trkpt lat="43.30414791571847" lon="11.523876186634368"><ele>305.2</ele><time>2026-04-25T12:26:04Z</time></trkpt><trkpt lat="43.304246248894955" lon="11.52386027835565"><ele>302.4</ele><time>2026-04-25T12:26:05Z</time></trkpt><trkpt lat="43.304334281427224" lon="11.523790290395207"><ele>299.59999999999997</ele><time>2026-04-25T12:26:06.001Z</time></trkpt><trkpt lat="43.30441154662288" lon="11.523707714675997"><ele>296.8</ele><time>2026-04-25T12:26:07.001Z</time></trkpt><trkpt lat="43.30449937938624" lon="11.523619808411695"><ele>294.0</ele><time>2026-04-25T12:26:08.001Z</time></trkpt><trkpt lat="43.304573860657634" lon="11.523508569057384"><ele>294.0</ele><time>2026-04-25T12:26:09.001Z</time></trkpt><trkpt lat="43.30464069459793" lon="11.523403994797842"><ele>294.0</ele><time>2026-04-25T12:26:10.001Z</time></trkpt><trkpt lat="43.304701243764036" lon="11.523320431286226"><ele>294.0</ele><time>2026-04-25T12:26:11.001Z</time></trkpt><trkpt lat="43.30476914311295" lon="11.523260780879387"><ele>294.0</ele><time>2026-04-25T12:26:12.001Z</time></trkpt><trkpt lat="43.3048456913334" lon="11.523205133194002"><ele>294.0</ele><time>2026-04-25T12:26:13.001Z</time></trkpt><trkpt lat="43.30492371116551" lon="11.523148303527117"><ele>294.0</ele><time>2026-04-25T12:26:14.001Z</time></trkpt><trkpt lat="43.30500847678384" lon="11.523063816509739"><ele>295.59999999999997</ele><time>2026-04-25T12:26:15.001Z</time></trkpt><trkpt lat="43.30510882555098" lon="11.523023753937562"><ele>297.2</ele><time>2026-04-25T12:26:16.001Z</time></trkpt><trkpt lat="43.305207839314534" lon="11.522987400083117"><ele>298.79999999999995</ele><time>2026-04-25T12:26:17.001Z</time></trkpt><trkpt lat="43.30530674737401" lon="11.522946541367327"><ele>300.4</ele><time>2026-04-25T12:26:18.001Z</time></trkpt><trkpt lat="43.3053997370947" lon="11.52290917062375"><ele>302.0</ele><time>2026-04-25T12:26:19.001Z</time></trkpt><trkpt lat="43.30549423017373" lon="11.522871668152069"><ele>302.0</ele><time>2026-04-25T12:26:20.001Z</time></trkpt><trkpt lat="43.30557683500965" lon="11.52284119313738"><ele>302.0</ele><time>2026-04-25T12:26:21.001Z</time></trkpt><trkpt lat="43.30565954289613" lon="11.522830222949398"><ele>302.0</ele><time>2026-04-25T12:26:22.001Z</time></trkpt><trkpt lat="43.305727545519254" lon="11.522832217576445"><ele>302.0</ele><time>2026-04-25T12:26:23.001Z</time></trkpt><trkpt lat="43.30580540863338" lon="11.52284271572806"><ele>302.0</ele><time>2026-04-25T12:26:24.001Z</time></trkpt><trkpt lat="43.30588094050202" lon="11.5228672354449"><ele>302.0</ele><time>2026-04-25T12:26:25.001Z</time></trkpt><trkpt lat="43.30594283189775" lon="11.522888967703434"><ele>305.2</ele><time>2026-04-25T12:26:26.001Z</time></trkpt><trkpt lat="43.30601327255675" lon="11.522921878503137"><ele>308.4</ele><time>2026-04-25T12:26:27.001Z</time></trkpt><trkpt lat="43.30610070436631" lon="11.522936611711632"><ele>311.6</ele><time>2026-04-25T12:26:28.001Z</time></trkpt><trkpt lat="43.30617149850816" lon="11.522991875444731"><ele>314.8</ele><time>2026-04-25T12:26:29.001Z</time></trkpt><trkpt lat="43.306258653776176" lon="11.52301461888065"><ele>318.0</ele><time>2026-04-25T12:26:30.001Z</time></trkpt><trkpt lat="43.306383079577515" lon="11.52306522382592"><ele>319.1666666666667</ele><time>2026-04-25T12:26:32.001Z</time></trkpt><trkpt lat="43.30647227423275" lon="11.523074761156906"><ele>320.3333333333333</ele><time>2026-04-25T12:26:33.001Z</time></trkpt><trkpt lat="43.30655212904912" lon="11.523063173089367"><ele>321.5</ele><time>2026-04-25T12:26:34.001Z</time></trkpt><trkpt lat="43.306629791219905" lon="11.523064276736875"><ele>322.66666666666663</ele><time>2026-04-25T12:26:35.001Z</time></trkpt><trkpt lat="43.30671497155154" lon="11.523068808414402"><ele>323.8333333333333</ele><time>2026-04-25T12:26:36.001Z</time></trkpt><trkpt lat="43.30680330476022" lon="11.523067897700443"><ele>325.0</ele><time>2026-04-25T12:26:37.001Z</time></trkpt><trkpt lat="43.30693787518635" lon="11.523089312515998"><ele>325.0</ele><time>2026-04-25T12:26:38.001Z</time></trkpt><trkpt lat="43.307009398221886" lon="11.523086919112075"><ele>325.0</ele><time>2026-04-25T12:26:39.001Z</time></trkpt><trkpt lat="43.3071010158483" lon="11.523087838315567"><ele>325.0</ele><time>2026-04-25T12:26:40.001Z</time></trkpt><trkpt lat="43.307187132742534" lon="11.52309233055249"><ele>325.0</ele><time>2026-04-25T12:26:41.001Z</time></trkpt><trkpt lat="43.30727800929387" lon="11.523097083242401"><ele>325.0</ele><time>2026-04-25T12:26:42.001Z</time></trkpt><trkpt lat="43.30736192228101" lon="11.523117361366987"><ele>325.0</ele><time>2026-04-25T12:26:43.001Z</time></trkpt><trkpt lat="43.30743773068886" lon="11.52314902465147"><ele>325.16666666666663</ele><time>2026-04-25T12:26:44.001Z</time></trkpt><trkpt lat="43.30750776182528" lon="11.523196600459572"><ele>325.3333333333333</ele><time>2026-04-25T12:26:45.001Z</time></trkpt><trkpt lat="43.307567583400356" lon="11.523274210146704"><ele>325.5</ele><time>2026-04-25T12:26:46.001Z</time></trkpt><trkpt lat="43.3076310916906" lon="11.523353227667998"><ele>325.6666666666667</ele><time>2026-04-25T12:26:47.001Z</time></trkpt><trkpt lat="43.30771061164496" lon="11.523425258255141"><ele>325.83333333333337</ele><time>2026-04-25T12:26:48.001Z</time></trkpt><trkpt lat="43.307793943218115" lon="11.523495226573127"><ele>326.0</ele><time>2026-04-25T12:26:49.001Z</time></trkpt><trkpt lat="43.30788329446986" lon="11.523572683496395"><ele>326.0</ele><time>2026-04-25T12:26:50.001Z</time></trkpt><trkpt lat="43.30796881224821" lon="11.52364950787668"><ele>326.0</ele><time>2026-04-25T12:26:51.001Z</time></trkpt><trkpt lat="43.308049439068405" lon="11.523708163152751"><ele>326.0</ele><time>2026-04-25T12:26:52.001Z</time></trkpt><trkpt lat="43.30812655686436" lon="11.523768338460965"><ele>326.0</ele><time>2026-04-25T12:26:53.001Z</time></trkpt><trkpt lat="43.30821170949235" lon="11.523832339684917"><ele>326.0</ele><time>2026-04-25T12:26:54.001Z</time></trkpt><trkpt lat="43.30828655791591" lon="11.523896304671549"><ele>326.0</ele><time>2026-04-25T12:26:55.001Z</time></trkpt><trkpt lat="43.308354403144904" lon="11.523944142090736"><ele>326.0</ele><time>2026-04-25T12:26:56.001Z</time></trkpt><trkpt lat="43.30841647598365" lon="11.524004906118975"><ele>326.0</ele><time>2026-04-25T12:26:57.001Z</time></trkpt><trkpt lat="43.308466973512914" lon="11.524062526882073"><ele>326.0</ele><time>2026-04-25T12:26:58.001Z</time></trkpt><trkpt lat="43.30851475235192" lon="11.524132529989089"><ele>326.0</ele><time>2026-04-25T12:26:59.001Z</time></trkpt><trkpt lat="43.30855776556763" lon="11.524205793824342"><ele>326.0</ele><time>2026-04-25T12:27:00.001Z</time></trkpt><trkpt lat="43.30863283249503" lon="11.524333605914986"><ele>326.0</ele><time>2026-04-25T12:27:02.001Z</time></trkpt><trkpt lat="43.30871778288249" lon="11.524435368946879"><ele>326.0</ele><time>2026-04-25T12:27:04.001Z</time></trkpt><trkpt lat="43.30878769945469" lon="11.524477819740577"><ele>326.0</ele><time>2026-04-25T12:27:06.001Z</time></trkpt><trkpt lat="43.30884392281484" lon="11.524323613418437"><ele>326.0</ele><time>2026-04-25T12:27:07.001Z</time></trkpt><trkpt lat="43.308876289516995" lon="11.524218172363199"><ele>326.0</ele><time>2026-04-25T12:27:08.001Z</time></trkpt><trkpt lat="43.30889563453355" lon="11.524127403497028"><ele>326.20000000000005</ele><time>2026-04-25T12:27:09.001Z</time></trkpt><trkpt lat="43.308915072309155" lon="11.524019755506108"><ele>326.40000000000003</ele><time>2026-04-25T12:27:10.001Z</time></trkpt><trkpt lat="43.30892125784249" lon="11.523874021106918"><ele>326.6</ele><time>2026-04-25T12:27:11.001Z</time></trkpt><trkpt lat="43.308911070401585" lon="11.523724473958803"><ele>326.8</ele><time>2026-04-25T12:27:12.001Z</time></trkpt><trkpt lat="43.30888349278366" lon="11.52357543159159"><ele>327.0</ele><time>2026-04-25T12:27:13Z</time></trkpt><trkpt lat="43.30886696495155" lon="11.523457992895228"><ele>327.0</ele><time>2026-04-25T12:27:14Z</time></trkpt><trkpt lat="43.30885853685698" lon="11.523357660350085"><ele>327.0</ele><time>2026-04-25T12:27:15Z</time></trkpt><trkpt lat="43.30887609108135" lon="11.523259314242557"><ele>327.0</ele><time>2026-04-25T12:27:16Z</time></trkpt><trkpt lat="43.30892212749391" lon="11.523160167966383"><ele>327.0</ele><time>2026-04-25T12:27:17Z</time></trkpt><trkpt lat="43.30898404277362" lon="11.523063788937465"><ele>327.0</ele><time>2026-04-25T12:27:18Z</time></trkpt><trkpt lat="43.30905850776329" lon="11.522976454040768"><ele>327.0</ele><time>2026-04-25T12:27:19Z</time></trkpt><trkpt lat="43.30915612128892" lon="11.52287728914396"><ele>322.75</ele><time>2026-04-25T12:27:20Z</time></trkpt><trkpt lat="43.30925596189889" lon="11.522798245797482"><ele>318.5</ele><time>2026-04-25T12:27:21Z</time></trkpt><trkpt lat="43.30937428802871" lon="11.522721515552718"><ele>314.25</ele><time>2026-04-25T12:27:22Z</time></trkpt><trkpt lat="43.30948635327502" lon="11.522643923182926"><ele>310.0</ele><time>2026-04-25T12:27:23Z</time></trkpt><trkpt lat="43.30959050075682" lon="11.522559571790474"><ele>310.0</ele><time>2026-04-25T12:27:24Z</time></trkpt><trkpt lat="43.309686282110874" lon="11.522457016806975"><ele>310.0</ele><time>2026-04-25T12:27:25Z</time></trkpt><trkpt lat="43.30977551836259" lon="11.522352918404355"><ele>310.0</ele><time>2026-04-25T12:27:26Z</time></trkpt><trkpt lat="43.30983217162826" lon="11.522217251843188"><ele>310.0</ele><time>2026-04-25T12:27:27Z</time></trkpt><trkpt lat="43.30987217247238" lon="11.522053672227957"><ele>308.75</ele><time>2026-04-25T12:27:28Z</time></trkpt><trkpt lat="43.30987847073853" lon="11.52188522124085"><ele>307.5</ele><time>2026-04-25T12:27:29Z</time></trkpt><trkpt lat="43.30984742693585" lon="11.521707116798932"><ele>306.25</ele><time>2026-04-25T12:27:30Z</time></trkpt><trkpt lat="43.30980644917108" lon="11.521540662668832"><ele>305.0</ele><time>2026-04-25T12:27:31Z</time></trkpt><trkpt lat="43.30974402709052" lon="11.52136562871755"><ele>300.75</ele><time>2026-04-25T12:27:32Z</time></trkpt><trkpt lat="43.30970493487124" lon="11.521173929296015"><ele>296.5</ele><time>2026-04-25T12:27:33Z</time></trkpt><trkpt lat="43.309705144031604" lon="11.52098094179834"><ele>292.25</ele><time>2026-04-25T12:27:34Z</time></trkpt><trkpt lat="43.309694696401856" lon="11.520791624052862"><ele>288.0</ele><time>2026-04-25T12:27:35Z</time></trkpt><trkpt lat="43.30968355869102" lon="11.52059077511587"><ele>290.0</ele><time>2026-04-25T12:27:36Z</time></trkpt><trkpt lat="43.30967287766399" lon="11.520398161559077"><ele>292.0</ele><time>2026-04-25T12:27:37Z</time></trkpt><trkpt lat="43.30966005241907" lon="11.520210204391187"><ele>294.0</ele><time>2026-04-25T12:27:38Z</time></trkpt><trkpt lat="43.3096476738423" lon="11.5200321180519"><ele>296.0</ele><time>2026-04-25T12:27:39Z</time></trkpt><trkpt lat="43.30965622774295" lon="11.519863759536939"><ele>296.0</ele><time>2026-04-25T12:27:40Z</time></trkpt><trkpt lat="43.309692409086395" lon="11.519693482077006"><ele>296.0</ele><time>2026-04-25T12:27:41Z</time></trkpt><trkpt lat="43.309746283954084" lon="11.519526479145707"><ele>296.0</ele><time>2026-04-25T12:27:42Z</time></trkpt><trkpt lat="43.30980863100653" lon="11.519364289777975"><ele>296.0</ele><time>2026-04-25T12:27:43Z</time></trkpt><trkpt lat="43.30986867511829" lon="11.519204385564933"><ele>296.0</ele><time>2026-04-25T12:27:44Z</time></trkpt><trkpt lat="43.309905309708256" lon="11.519031536232372"><ele>296.0</ele><time>2026-04-25T12:27:45Z</time></trkpt><trkpt lat="43.30993129437584" lon="11.5188661344499"><ele>296.0</ele><time>2026-04-25T12:27:46Z</time></trkpt><trkpt lat="43.30994105118124" lon="11.518698350889135"><ele>296.0</ele><time>2026-04-25T12:27:47Z</time></trkpt><trkpt lat="43.309928076301425" lon="11.518524596641344"><ele>295.75</ele><time>2026-04-25T12:27:48Z</time></trkpt><trkpt lat="43.30988951483955" lon="11.518343789370421"><ele>295.5</ele><time>2026-04-25T12:27:49Z</time></trkpt><trkpt lat="43.30983563789502" lon="11.518164181886863"><ele>295.25</ele><time>2026-04-25T12:27:50Z</time></trkpt><trkpt lat="43.309773664419986" lon="11.517992007936641"><ele>295.0</ele><time>2026-04-25T12:27:51Z</time></trkpt><trkpt lat="43.30969091573634" lon="11.51782746847815"><ele>293.3333333333333</ele><time>2026-04-25T12:27:52Z</time></trkpt><trkpt lat="43.30958247995473" lon="11.517661095084168"><ele>291.6666666666667</ele><time>2026-04-25T12:27:53Z</time></trkpt><trkpt lat="43.30946940622365" lon="11.517518314420053"><ele>290.0</ele><time>2026-04-25T12:27:54Z</time></trkpt><trkpt lat="43.30936208127462" lon="11.517392756979492"><ele>290.0</ele><time>2026-04-25T12:27:55Z</time></trkpt><trkpt lat="43.309268375892614" lon="11.517267290425458"><ele>290.0</ele><time>2026-04-25T12:27:56Z</time></trkpt><trkpt lat="43.30920217798822" lon="11.517129770544871"><ele>290.0</ele><time>2026-04-25T12:27:57Z</time></trkpt><trkpt lat="43.30915933291523" lon="11.51697009492386"><ele>290.0</ele><time>2026-04-25T12:27:58Z</time></trkpt><trkpt lat="43.309174402446985" lon="11.516813259068478"><ele>290.8</ele><time>2026-04-25T12:27:59Z</time></trkpt><trkpt lat="43.30920434340232" lon="11.516682953416021"><ele>291.6</ele><time>2026-04-25T12:28:00Z</time></trkpt><trkpt lat="43.30927090201801" lon="11.516576093138244"><ele>292.4</ele><time>2026-04-25T12:28:01Z</time></trkpt><trkpt lat="43.30934628155613" lon="11.516471277359528"><ele>293.2</ele><time>2026-04-25T12:28:02Z</time></trkpt><trkpt lat="43.30943143568912" lon="11.516364833502438"><ele>294.0</ele><time>2026-04-25T12:28:03Z</time></trkpt><trkpt lat="43.309523642817375" lon="11.51624861839231"><ele>295.0</ele><time>2026-04-25T12:28:04Z</time></trkpt><trkpt lat="43.309619733279604" lon="11.516127508915892"><ele>296.0</ele><time>2026-04-25T12:28:05Z</time></trkpt><trkpt lat="43.30971622330574" lon="11.516003908572783"><ele>297.0</ele><time>2026-04-25T12:28:06Z</time></trkpt><trkpt lat="43.30981550691334" lon="11.51587672141916"><ele>298.0</ele><time>2026-04-25T12:28:07Z</time></trkpt><trkpt lat="43.30991789334875" lon="11.515751242609351"><ele>295.75</ele><time>2026-04-25T12:28:08Z</time></trkpt><trkpt lat="43.31002620765577" lon="11.515624552973083"><ele>293.5</ele><time>2026-04-25T12:28:09Z</time></trkpt><trkpt lat="43.31014442203775" lon="11.51551649891333"><ele>291.25</ele><time>2026-04-25T12:28:10Z</time></trkpt><trkpt lat="43.31027364229777" lon="11.515432007067146"><ele>289.0</ele><time>2026-04-25T12:28:11Z</time></trkpt><trkpt lat="43.31041005301372" lon="11.515365794564591"><ele>287.5</ele><time>2026-04-25T12:28:12Z</time></trkpt><trkpt lat="43.31054905816596" lon="11.515312962752"><ele>286.0</ele><time>2026-04-25T12:28:13Z</time></trkpt><trkpt lat="43.31069965096363" lon="11.515262122180069"><ele>284.5</ele><time>2026-04-25T12:28:14Z</time></trkpt><trkpt lat="43.31084432372362" lon="11.515220925297164"><ele>283.0</ele><time>2026-04-25T12:28:15Z</time></trkpt><trkpt lat="43.3109901485374" lon="11.515193259274964"><ele>283.0</ele><time>2026-04-25T12:28:16Z</time></trkpt><trkpt lat="43.31113468375702" lon="11.515177796815413"><ele>283.0</ele><time>2026-04-25T12:28:17Z</time></trkpt><trkpt lat="43.31127159971811" lon="11.5151747465154"><ele>283.0</ele><time>2026-04-25T12:28:18Z</time></trkpt><trkpt lat="43.31140416916521" lon="11.515175155908498"><ele>283.0</ele><time>2026-04-25T12:28:19.001Z</time></trkpt><trkpt lat="43.31154018895866" lon="11.51517938206858"><ele>285.0</ele><time>2026-04-25T12:28:20.001Z</time></trkpt><trkpt lat="43.31167227117079" lon="11.515178113123586"><ele>287.0</ele><time>2026-04-25T12:28:21.001Z</time></trkpt><trkpt lat="43.31178851700231" lon="11.515167586174412"><ele>289.0</ele><time>2026-04-25T12:28:22.001Z</time></trkpt><trkpt lat="43.31189748364067" lon="11.515131939410136"><ele>291.0</ele><time>2026-04-25T12:28:23.001Z</time></trkpt><trkpt lat="43.31200123609467" lon="11.515056539536374"><ele>291.0</ele><time>2026-04-25T12:28:24.001Z</time></trkpt><trkpt lat="43.31209055808471" lon="11.514922437151219"><ele>291.0</ele><time>2026-04-25T12:28:25.001Z</time></trkpt><trkpt lat="43.312169529058224" lon="11.514774590192133"><ele>291.0</ele><time>2026-04-25T12:28:26.001Z</time></trkpt><trkpt lat="43.3122502667114" lon="11.51460858937133"><ele>291.0</ele><time>2026-04-25T12:28:27.001Z</time></trkpt><trkpt lat="43.3123212847773" lon="11.514459091837079"><ele>292.5</ele><time>2026-04-25T12:28:28.001Z</time></trkpt><trkpt lat="43.312394146358564" lon="11.514323799882742"><ele>294.0</ele><time>2026-04-25T12:28:29.001Z</time></trkpt><trkpt lat="43.31248326962674" lon="11.51421950815479"><ele>295.5</ele><time>2026-04-25T12:28:30.001Z</time></trkpt><trkpt lat="43.31256703185226" lon="11.514096926633934"><ele>297.0</ele><time>2026-04-25T12:28:31.001Z</time></trkpt><trkpt lat="43.3126875036604" lon="11.514000257340934"><ele>297.0</ele><time>2026-04-25T12:28:32.001Z</time></trkpt><trkpt lat="43.31281283503988" lon="11.513909432771072"><ele>297.0</ele><time>2026-04-25T12:28:33.001Z</time></trkpt><trkpt lat="43.31293925863677" lon="11.513839515976183"><ele>297.0</ele><time>2026-04-25T12:28:34.001Z</time></trkpt><trkpt lat="43.313072776363" lon="11.513851427880537"><ele>297.0</ele><time>2026-04-25T12:28:35.001Z</time></trkpt><trkpt lat="43.31319063505452" lon="11.513852544661185"><ele>297.5</ele><time>2026-04-25T12:28:36.001Z</time></trkpt><trkpt lat="43.313309213171074" lon="11.513884716138843"><ele>298.0</ele><time>2026-04-25T12:28:37.001Z</time></trkpt><trkpt lat="43.313426362372475" lon="11.513946260767485"><ele>298.5</ele><time>2026-04-25T12:28:38.001Z</time></trkpt><trkpt lat="43.31354803455971" lon="11.514005993635164"><ele>299.0</ele><time>2026-04-25T12:28:39.001Z</time></trkpt><trkpt lat="43.3136657309287" lon="11.514103560368882"><ele>299.0</ele><time>2026-04-25T12:28:40.001Z</time></trkpt><trkpt lat="43.31377614748766" lon="11.514211966199735"><ele>299.0</ele><time>2026-04-25T12:28:41.001Z</time></trkpt><trkpt lat="43.31387764646085" lon="11.514326223071848"><ele>299.0</ele><time>2026-04-25T12:28:42.001Z</time></trkpt><trkpt lat="43.313957716121585" lon="11.514435721349042"><ele>299.0</ele><time>2026-04-25T12:28:43.001Z</time></trkpt><trkpt lat="43.31402634097113" lon="11.51453253241628"><ele>299.0</ele><time>2026-04-25T12:28:44.001Z</time></trkpt><trkpt lat="43.314095124575736" lon="11.51461296697103"><ele>299.0</ele><time>2026-04-25T12:28:45.001Z</time></trkpt><trkpt lat="43.31417521267811" lon="11.514655054206266"><ele>299.0</ele><time>2026-04-25T12:28:46.001Z</time></trkpt><trkpt lat="43.31425973436662" lon="11.514679202607516"><ele>299.0</ele><time>2026-04-25T12:28:47.001Z</time></trkpt><trkpt lat="43.31434017428445" lon="11.514662615401242"><ele>299.0</ele><time>2026-04-25T12:28:48.001Z</time></trkpt><trkpt lat="43.31442557395633" lon="11.514611395877637"><ele>299.0</ele><time>2026-04-25T12:28:49.001Z</time></trkpt><trkpt lat="43.31450372196635" lon="11.514532770632162"><ele>299.1666666666667</ele><time>2026-04-25T12:28:50.001Z</time></trkpt><trkpt lat="43.314569371229" lon="11.514439200958659"><ele>299.33333333333337</ele><time>2026-04-25T12:28:51.001Z</time></trkpt><trkpt lat="43.31462457003626" lon="11.514341417848678"><ele>299.5</ele><time>2026-04-25T12:28:52.001Z</time></trkpt><trkpt lat="43.31467322234297" lon="11.514232936979857"><ele>299.6666666666667</ele><time>2026-04-25T12:28:53.001Z</time></trkpt><trkpt lat="43.31471486820533" lon="11.514128243941093"><ele>299.8333333333333</ele><time>2026-04-25T12:28:54.001Z</time></trkpt><trkpt lat="43.31476190659457" lon="11.514041154011728"><ele>300.0</ele><time>2026-04-25T12:28:55.001Z</time></trkpt><trkpt lat="43.31481643651909" lon="11.51398110321343"><ele>300.57142857142856</ele><time>2026-04-25T12:28:56.001Z</time></trkpt><trkpt lat="43.314883934244726" lon="11.513940076113215"><ele>301.1428571428571</ele><time>2026-04-25T12:28:57.001Z</time></trkpt><trkpt lat="43.31495779158362" lon="11.513913010300419"><ele>301.71428571428567</ele><time>2026-04-25T12:28:58.001Z</time></trkpt><trkpt lat="43.315037623659165" lon="11.513896299591888"><ele>302.2857142857143</ele><time>2026-04-25T12:28:59.001Z</time></trkpt><trkpt lat="43.31510997163886" lon="11.513890992125187"><ele>302.8571428571429</ele><time>2026-04-25T12:29:00.001Z</time></trkpt><trkpt lat="43.315187281010374" lon="11.513888661779143"><ele>303.4285714285714</ele><time>2026-04-25T12:29:01.001Z</time></trkpt><trkpt lat="43.315253875789466" lon="11.513889128567449"><ele>304.0</ele><time>2026-04-25T12:29:02.001Z</time></trkpt><trkpt lat="43.31533423171742" lon="11.513892238341528"><ele>304.0</ele><time>2026-04-25T12:29:03.001Z</time></trkpt><trkpt lat="43.31540052178678" lon="11.513891900500973"><ele>304.0</ele><time>2026-04-25T12:29:04.001Z</time></trkpt><trkpt lat="43.315455251225764" lon="11.51395322204223"><ele>304.0</ele><time>2026-04-25T12:29:05.001Z</time></trkpt><trkpt lat="43.315506261317985" lon="11.514117185831664"><ele>304.0</ele><time>2026-04-25T12:29:07.001Z</time></trkpt><trkpt lat="43.31553495707643" lon="11.514197417901764"><ele>304.0</ele><time>2026-04-25T12:29:08.001Z</time></trkpt><trkpt lat="43.315551037150755" lon="11.51435774577269"><ele>304.0</ele><time>2026-04-25T12:29:10.001Z</time></trkpt><trkpt lat="43.3155677403011" lon="11.514524781481486"><ele>303.0</ele><time>2026-04-25T12:29:12.001Z</time></trkpt><trkpt lat="43.31558828264969" lon="11.514678698431599"><ele>302.0</ele><time>2026-04-25T12:29:14.001Z</time></trkpt><trkpt lat="43.31561750475367" lon="11.514808044593588"><ele>301.0</ele><time>2026-04-25T12:29:16.001Z</time></trkpt><trkpt lat="43.31566386389083" lon="11.51493022905838"><ele>300.0</ele><time>2026-04-25T12:29:18.001Z</time></trkpt><trkpt lat="43.3157108152314" lon="11.515024422171093"><ele>299.0</ele><time>2026-04-25T12:29:20Z</time></trkpt><trkpt lat="43.31575701148852" lon="11.515121185974902"><ele>299.0</ele><time>2026-04-25T12:29:22Z</time></trkpt><trkpt lat="43.31583430904917" lon="11.51519210770109"><ele>299.0</ele><time>2026-04-25T12:29:24Z</time></trkpt><trkpt lat="43.315914134090335" lon="11.51525292693977"><ele>299.0</ele><time>2026-04-25T12:29:26Z</time></trkpt><trkpt lat="43.31601638374345" lon="11.515272076626266"><ele>299.0</ele><time>2026-04-25T12:29:28Z</time></trkpt><trkpt lat="43.31612204660509" lon="11.51530595763615"><ele>299.0</ele><time>2026-04-25T12:29:30Z</time></trkpt><trkpt lat="43.31621885599406" lon="11.51529500076459"><ele>299.0</ele><time>2026-04-25T12:29:32Z</time></trkpt><trkpt lat="43.316324119782706" lon="11.5152707670142"><ele>299.0</ele><time>2026-04-25T12:29:34Z</time></trkpt><trkpt lat="43.31642559376786" lon="11.51523947333352"><ele>299.0</ele><time>2026-04-25T12:29:36Z</time></trkpt><trkpt lat="43.31652690091766" lon="11.51520113247002"><ele>299.0</ele><time>2026-04-25T12:29:38Z</time></trkpt><trkpt lat="43.31660964241567" lon="11.515166320668206"><ele>299.0</ele><time>2026-04-25T12:29:40Z</time></trkpt><trkpt lat="43.316692756759856" lon="11.51510561805753"><ele>299.1666666666667</ele><time>2026-04-25T12:29:42Z</time></trkpt><trkpt lat="43.31677478605591" lon="11.515072170554586"><ele>299.33333333333337</ele><time>2026-04-25T12:29:44Z</time></trkpt><trkpt lat="43.31684563045695" lon="11.515042452121614"><ele>299.5</ele><time>2026-04-25T12:29:46Z</time></trkpt><trkpt lat="43.31692918586035" lon="11.514998434211588"><ele>299.6666666666667</ele><time>2026-04-25T12:29:48Z</time></trkpt><trkpt lat="43.31699832188446" lon="11.514976855582125"><ele>299.8333333333333</ele><time>2026-04-25T12:29:49Z</time></trkpt><trkpt lat="43.31707811647291" lon="11.514940399091422"><ele>300.0</ele><time>2026-04-25T12:29:50Z</time></trkpt><trkpt lat="43.31716917558038" lon="11.5148946442028"><ele>300.2</ele><time>2026-04-25T12:29:51Z</time></trkpt><trkpt lat="43.31725765171756" lon="11.514843751480468"><ele>300.4</ele><time>2026-04-25T12:29:52Z</time></trkpt><trkpt lat="43.317348775749046" lon="11.514785081056948"><ele>300.6</ele><time>2026-04-25T12:29:53Z</time></trkpt><trkpt lat="43.31743651835356" lon="11.514694532256364"><ele>300.8</ele><time>2026-04-25T12:29:54Z</time></trkpt><trkpt lat="43.31751223374278" lon="11.514570160926617"><ele>301.0</ele><time>2026-04-25T12:29:55Z</time></trkpt><trkpt lat="43.317574429390504" lon="11.514417987936021"><ele>301.0</ele><time>2026-04-25T12:29:56Z</time></trkpt><trkpt lat="43.31762128137175" lon="11.514220630090538"><ele>301.0</ele><time>2026-04-25T12:29:57Z</time></trkpt><trkpt lat="43.31766275185456" lon="11.514021587132264"><ele>301.0</ele><time>2026-04-25T12:29:58Z</time></trkpt><trkpt lat="43.31770142577288" lon="11.513849728472545"><ele>301.0</ele><time>2026-04-25T12:29:59Z</time></trkpt><trkpt lat="43.31774326104998" lon="11.513701971932623"><ele>300.25</ele><time>2026-04-25T12:30:00Z</time></trkpt><trkpt lat="43.31783278419246" lon="11.513596671822452"><ele>299.5</ele><time>2026-04-25T12:30:01Z</time></trkpt><trkpt lat="43.31790913756275" lon="11.513513245548928"><ele>298.75</ele><time>2026-04-25T12:30:02Z</time></trkpt><trkpt lat="43.318016888922855" lon="11.513450800170531"><ele>298.0</ele><time>2026-04-25T12:30:03Z</time></trkpt><trkpt lat="43.31814559409096" lon="11.513406466256843"><ele>298.0</ele><time>2026-04-25T12:30:04Z</time></trkpt><trkpt lat="43.31826472341101" lon="11.513389869739482"><ele>298.0</ele><time>2026-04-25T12:30:05Z</time></trkpt><trkpt lat="43.31838599855047" lon="11.513378808990408"><ele>298.0</ele><time>2026-04-25T12:30:06Z</time></trkpt><trkpt lat="43.31849638663938" lon="11.513430976166154"><ele>298.0</ele><time>2026-04-25T12:30:07Z</time></trkpt><trkpt lat="43.31859046224214" lon="11.513511806023464"><ele>298.0</ele><time>2026-04-25T12:30:08Z</time></trkpt><trkpt lat="43.31865602073015" lon="11.51362923445458"><ele>298.0</ele><time>2026-04-25T12:30:09Z</time></trkpt><trkpt lat="43.31869779266059" lon="11.513768726531996"><ele>298.0</ele><time>2026-04-25T12:30:10Z</time></trkpt><trkpt lat="43.31871364506025" lon="11.513913624612854"><ele>298.0</ele><time>2026-04-25T12:30:11Z</time></trkpt><trkpt lat="43.31872759792156" lon="11.514065879819874"><ele>298.0</ele><time>2026-04-25T12:30:12Z</time></trkpt><trkpt lat="43.318693812131556" lon="11.514206506445353"><ele>298.0</ele><time>2026-04-25T12:30:13Z</time></trkpt><trkpt lat="43.318638727853525" lon="11.514325003346007"><ele>298.0</ele><time>2026-04-25T12:30:14Z</time></trkpt><trkpt lat="43.31856325461769" lon="11.514403490728075"><ele>298.0</ele><time>2026-04-25T12:30:15Z</time></trkpt><trkpt lat="43.31848567163764" lon="11.514498591527822"><ele>298.0</ele><time>2026-04-25T12:30:16Z</time></trkpt><trkpt lat="43.318410860549605" lon="11.5145923327272"><ele>298.0</ele><time>2026-04-25T12:30:17Z</time></trkpt><trkpt lat="43.31834498941848" lon="11.51468293513982"><ele>298.0</ele><time>2026-04-25T12:30:18Z</time></trkpt><trkpt lat="43.318302882734955" lon="11.514785064374491"><ele>298.0</ele><time>2026-04-25T12:30:19Z</time></trkpt><trkpt lat="43.318294044034964" lon="11.51489608689095"><ele>298.0</ele><time>2026-04-25T12:30:20Z</time></trkpt><trkpt lat="43.31833831043891" lon="11.514982080325604"><ele>298.0</ele><time>2026-04-25T12:30:21Z</time></trkpt><trkpt lat="43.31838730508082" lon="11.515050242628748"><ele>298.0</ele><time>2026-04-25T12:30:22Z</time></trkpt><trkpt lat="43.31845882329285" lon="11.51505709994997"><ele>298.0</ele><time>2026-04-25T12:30:23Z</time></trkpt><trkpt lat="43.31852124494917" lon="11.515002576336032"><ele>298.0</ele><time>2026-04-25T12:30:24Z</time></trkpt><trkpt lat="43.318585590968176" lon="11.514945626837989"><ele>298.0</ele><time>2026-04-25T12:30:25Z</time></trkpt><trkpt lat="43.31862802898566" lon="11.514800954198941"><ele>298.0</ele><time>2026-04-25T12:30:26Z</time></trkpt><trkpt lat="43.31870032928733" lon="11.514703835573977"><ele>298.0</ele><time>2026-04-25T12:30:27Z</time></trkpt><trkpt lat="43.31876834336893" lon="11.51460105815323"><ele>298.0</ele><time>2026-04-25T12:30:28Z</time></trkpt><trkpt lat="43.31882903390233" lon="11.514507572093317"><ele>298.4</ele><time>2026-04-25T12:30:29Z</time></trkpt><trkpt lat="43.31888985200167" lon="11.514409932758984"><ele>298.8</ele><time>2026-04-25T12:30:30Z</time></trkpt><trkpt lat="43.318944404011084" lon="11.51430311074209"><ele>299.2</ele><time>2026-04-25T12:30:31Z</time></trkpt><trkpt lat="43.31898497468302" lon="11.514181102857728"><ele>299.6</ele><time>2026-04-25T12:30:32Z</time></trkpt><trkpt lat="43.31900351965537" lon="11.514045513229513"><ele>300.0</ele><time>2026-04-25T12:30:33Z</time></trkpt><trkpt lat="43.319004248467614" lon="11.513908297570936"><ele>298.25</ele><time>2026-04-25T12:30:34Z</time></trkpt><trkpt lat="43.318996685030804" lon="11.513754406341805"><ele>296.5</ele><time>2026-04-25T12:30:35.001Z</time></trkpt><trkpt lat="43.31899059335818" lon="11.51360480415141"><ele>294.75</ele><time>2026-04-25T12:30:36.001Z</time></trkpt><trkpt lat="43.31899295750217" lon="11.513446128861965"><ele>293.0</ele><time>2026-04-25T12:30:37.001Z</time></trkpt><trkpt lat="43.319020115182084" lon="11.513294578710452"><ele>292.25</ele><time>2026-04-25T12:30:38.001Z</time></trkpt><trkpt lat="43.319073157802926" lon="11.513175088026975"><ele>291.5</ele><time>2026-04-25T12:30:39.001Z</time></trkpt><trkpt lat="43.31913633692996" lon="11.513039332854019"><ele>290.75</ele><time>2026-04-25T12:30:40.001Z</time></trkpt><trkpt lat="43.31919526461224" lon="11.512908597586492"><ele>290.0</ele><time>2026-04-25T12:30:41.001Z</time></trkpt><trkpt lat="43.31924174821709" lon="11.512733091738282"><ele>287.75</ele><time>2026-04-25T12:30:42.001Z</time></trkpt><trkpt lat="43.31925413541017" lon="11.512538092011091"><ele>285.5</ele><time>2026-04-25T12:30:43.001Z</time></trkpt><trkpt lat="43.31925761230089" lon="11.512331816217323"><ele>283.25</ele><time>2026-04-25T12:30:44.001Z</time></trkpt><trkpt lat="43.319247162266336" lon="11.51211972731935"><ele>281.0</ele><time>2026-04-25T12:30:45.001Z</time></trkpt><trkpt lat="43.3192125968534" lon="11.511906122940257"><ele>279.0</ele><time>2026-04-25T12:30:46.001Z</time></trkpt><trkpt lat="43.319184713963075" lon="11.511687599661066"><ele>277.0</ele><time>2026-04-25T12:30:47.001Z</time></trkpt><trkpt lat="43.31915331914281" lon="11.511493272034198"><ele>275.0</ele><time>2026-04-25T12:30:48.001Z</time></trkpt><trkpt lat="43.31913838773208" lon="11.511298778553813"><ele>273.0</ele><time>2026-04-25T12:30:49.001Z</time></trkpt><trkpt lat="43.31912299922564" lon="11.511110886770371"><ele>270.75</ele><time>2026-04-25T12:30:50.001Z</time></trkpt><trkpt lat="43.319122486691256" lon="11.510931549834114"><ele>268.5</ele><time>2026-04-25T12:30:51.001Z</time></trkpt><trkpt lat="43.319148052950794" lon="11.510758201066956"><ele>266.25</ele><time>2026-04-25T12:30:52.001Z</time></trkpt><trkpt lat="43.3191984257354" lon="11.51059083202496"><ele>264.0</ele><time>2026-04-25T12:30:53.001Z</time></trkpt><trkpt lat="43.319278719790965" lon="11.51043559680078"><ele>260.6666666666667</ele><time>2026-04-25T12:30:54.001Z</time></trkpt><trkpt lat="43.31937651286272" lon="11.510270992687433"><ele>257.33333333333337</ele><time>2026-04-25T12:30:55.001Z</time></trkpt><trkpt lat="43.31947882620399" lon="11.51010336986701"><ele>254.0</ele><time>2026-04-25T12:30:56.001Z</time></trkpt><trkpt lat="43.31957031056804" lon="11.509950466918182"><ele>254.0</ele><time>2026-04-25T12:30:57.001Z</time></trkpt><trkpt lat="43.319654830241404" lon="11.5097944343558"><ele>254.0</ele><time>2026-04-25T12:30:58.001Z</time></trkpt><trkpt lat="43.319726245239494" lon="11.509636751882017"><ele>254.0</ele><time>2026-04-25T12:30:59.001Z</time></trkpt><trkpt lat="43.31977537746567" lon="11.509470462834287"><ele>254.0</ele><time>2026-04-25T12:31:00.001Z</time></trkpt><trkpt lat="43.31981442139417" lon="11.509305595111787"><ele>252.25</ele><time>2026-04-25T12:31:01.001Z</time></trkpt><trkpt lat="43.319839465261765" lon="11.509140099346014"><ele>250.5</ele><time>2026-04-25T12:31:02.001Z</time></trkpt><trkpt lat="43.31985931623439" lon="11.50898501504178"><ele>248.75</ele><time>2026-04-25T12:31:03.001Z</time></trkpt><trkpt lat="43.31986711196023" lon="11.508822196608739"><ele>247.0</ele><time>2026-04-25T12:31:04.001Z</time></trkpt><trkpt lat="43.319862179699605" lon="11.508662428180681"><ele>247.0</ele><time>2026-04-25T12:31:05.001Z</time></trkpt><trkpt lat="43.31985680616102" lon="11.508512667966672"><ele>247.0</ele><time>2026-04-25T12:31:06.001Z</time></trkpt><trkpt lat="43.31984813745046" lon="11.508372726815569"><ele>247.0</ele><time>2026-04-25T12:31:07.001Z</time></trkpt><trkpt lat="43.31982483200288" lon="11.508267842655407"><ele>247.0</ele><time>2026-04-25T12:31:08.001Z</time></trkpt><trkpt lat="43.31982436464519" lon="11.508137547286655"><ele>247.0</ele><time>2026-04-25T12:31:10.001Z</time></trkpt><trkpt lat="43.319813989204455" lon="11.507988175838513"><ele>246.6</ele><time>2026-04-25T12:31:44Z</time></trkpt><trkpt lat="43.31980691288924" lon="11.50790055015488"><ele>246.2</ele><time>2026-04-25T12:31:45Z</time></trkpt><trkpt lat="43.3197930746365" lon="11.507757902102936"><ele>245.8</ele><time>2026-04-25T12:31:46Z</time></trkpt><trkpt lat="43.31977523238049" lon="11.507605906052499"><ele>245.4</ele><time>2026-04-25T12:31:47Z</time></trkpt><trkpt lat="43.31975556191712" lon="11.507442111810667"><ele>245.0</ele><time>2026-04-25T12:31:48Z</time></trkpt><trkpt lat="43.319747853621735" lon="11.507268601089782"><ele>249.66666666666669</ele><time>2026-04-25T12:31:49Z</time></trkpt><trkpt lat="43.31972142018007" lon="11.507050181427669"><ele>254.33333333333331</ele><time>2026-04-25T12:31:50Z</time></trkpt><trkpt lat="43.31969822101162" lon="11.506845682281888"><ele>259.0</ele><time>2026-04-25T12:31:51Z</time></trkpt><trkpt lat="43.31967281209717" lon="11.50664579918868"><ele>259.0</ele><time>2026-04-25T12:31:52Z</time></trkpt><trkpt lat="43.31966048589861" lon="11.506494053031846"><ele>259.0</ele><time>2026-04-25T12:31:53Z</time></trkpt><trkpt lat="43.31967860096709" lon="11.50635428987894"><ele>259.0</ele><time>2026-04-25T12:31:54Z</time></trkpt><trkpt lat="43.319710720428056" lon="11.506242355180778"><ele>259.0</ele><time>2026-04-25T12:31:55Z</time></trkpt><trkpt lat="43.31977333536381" lon="11.506140873232923"><ele>259.0</ele><time>2026-04-25T12:31:56Z</time></trkpt><trkpt lat="43.31986207886265" lon="11.506073570061192"><ele>255.25</ele><time>2026-04-25T12:31:57Z</time></trkpt><trkpt lat="43.31996773493733" lon="11.506036275278268"><ele>251.5</ele><time>2026-04-25T12:31:58Z</time></trkpt><trkpt lat="43.320106220819014" lon="11.505982235982575"><ele>247.75</ele><time>2026-04-25T12:31:59Z</time></trkpt><trkpt lat="43.32022253081784" lon="11.505937741296465"><ele>244.0</ele><time>2026-04-25T12:32:00Z</time></trkpt><trkpt lat="43.320335202360326" lon="11.505896239409035"><ele>244.0</ele><time>2026-04-25T12:32:01Z</time></trkpt><trkpt lat="43.320449241705354" lon="11.505852662506197"><ele>244.0</ele><time>2026-04-25T12:32:02Z</time></trkpt><trkpt lat="43.320574476701225" lon="11.505804807473494"><ele>244.0</ele><time>2026-04-25T12:32:03Z</time></trkpt><trkpt lat="43.32069716497753" lon="11.505735096668104"><ele>244.0</ele><time>2026-04-25T12:32:04Z</time></trkpt><trkpt lat="43.320832141769706" lon="11.505693742703121"><ele>244.75</ele><time>2026-04-25T12:32:05Z</time></trkpt><trkpt lat="43.320964514794916" lon="11.505669596031986"><ele>245.5</ele><time>2026-04-25T12:32:06Z</time></trkpt><trkpt lat="43.32110618880029" lon="11.505676610964665"><ele>246.25</ele><time>2026-04-25T12:32:07Z</time></trkpt><trkpt lat="43.321236799748704" lon="11.505719371252122"><ele>247.0</ele><time>2026-04-25T12:32:08Z</time></trkpt><trkpt lat="43.32138025997011" lon="11.505824569488519"><ele>249.66666666666666</ele><time>2026-04-25T12:32:09Z</time></trkpt><trkpt lat="43.321508356000365" lon="11.505963499123617"><ele>252.33333333333331</ele><time>2026-04-25T12:32:10Z</time></trkpt><trkpt lat="43.32161346158967" lon="11.50611447262319"><ele>255.0</ele><time>2026-04-25T12:32:11Z</time></trkpt><trkpt lat="43.321718793347806" lon="11.506272393962215"><ele>255.0</ele><time>2026-04-25T12:32:12Z</time></trkpt><trkpt lat="43.32182221790065" lon="11.506427757375231"><ele>255.0</ele><time>2026-04-25T12:32:13Z</time></trkpt><trkpt lat="43.32193241111791" lon="11.506585543971436"><ele>255.0</ele><time>2026-04-25T12:32:14Z</time></trkpt><trkpt lat="43.32204327169285" lon="11.506750755267463"><ele>255.0</ele><time>2026-04-25T12:32:15Z</time></trkpt><trkpt lat="43.32215614197576" lon="11.506920072266325"><ele>255.0</ele><time>2026-04-25T12:32:16Z</time></trkpt><trkpt lat="43.32227203431319" lon="11.507084125207927"><ele>255.0</ele><time>2026-04-25T12:32:17Z</time></trkpt><trkpt lat="43.32238540044112" lon="11.507245596589675"><ele>258.5</ele><time>2026-04-25T12:32:18Z</time></trkpt><trkpt lat="43.32248455005945" lon="11.507388402986862"><ele>262.0</ele><time>2026-04-25T12:32:19Z</time></trkpt><trkpt lat="43.322581982160095" lon="11.507508629442466"><ele>265.5</ele><time>2026-04-25T12:32:20Z</time></trkpt><trkpt lat="43.32269825953348" lon="11.507587310952516"><ele>269.0</ele><time>2026-04-25T12:32:21Z</time></trkpt><trkpt lat="43.32284254632458" lon="11.507632655509179"><ele>269.0</ele><time>2026-04-25T12:32:22Z</time></trkpt><trkpt lat="43.32300339974904" lon="11.507648284271584"><ele>269.0</ele><time>2026-04-25T12:32:23Z</time></trkpt><trkpt lat="43.32316503327307" lon="11.507675281840179"><ele>269.0</ele><time>2026-04-25T12:32:24Z</time></trkpt><trkpt lat="43.32330964055363" lon="11.50767630630479"><ele>270.5</ele><time>2026-04-25T12:32:25Z</time></trkpt><trkpt lat="43.32345404381268" lon="11.507673747954906"><ele>272.0</ele><time>2026-04-25T12:32:26Z</time></trkpt><trkpt lat="43.32358969463259" lon="11.507688790204897"><ele>273.5</ele><time>2026-04-25T12:32:27Z</time></trkpt><trkpt lat="43.32372399909943" lon="11.507714067193202"><ele>275.0</ele><time>2026-04-25T12:32:28Z</time></trkpt><trkpt lat="43.32385035278242" lon="11.507790669068719"><ele>274.5</ele><time>2026-04-25T12:32:29Z</time></trkpt><trkpt lat="43.3239554217298" lon="11.507904125947862"><ele>274.0</ele><time>2026-04-25T12:32:30Z</time></trkpt><trkpt lat="43.324036264500535" lon="11.50804599101907"><ele>273.5</ele><time>2026-04-25T12:32:31Z</time></trkpt><trkpt lat="43.324110147167865" lon="11.508206887578444"><ele>273.0</ele><time>2026-04-25T12:32:32Z</time></trkpt><trkpt lat="43.32417068575999" lon="11.508372418181237"><ele>275.75</ele><time>2026-04-25T12:32:33Z</time></trkpt><trkpt lat="43.324228706614676" lon="11.508535500712323"><ele>278.5</ele><time>2026-04-25T12:32:34Z</time></trkpt><trkpt lat="43.324296946702034" lon="11.508684092355747"><ele>281.25</ele><time>2026-04-25T12:32:35Z</time></trkpt><trkpt lat="43.32435751158047" lon="11.508837706958454"><ele>284.0</ele><time>2026-04-25T12:32:36Z</time></trkpt><trkpt lat="43.324418122519916" lon="11.50899613835373"><ele>285.25</ele><time>2026-04-25T12:32:37Z</time></trkpt><trkpt lat="43.32448851578096" lon="11.509155271240834"><ele>286.5</ele><time>2026-04-25T12:32:38Z</time></trkpt><trkpt lat="43.32457438659294" lon="11.50929304128696"><ele>287.75</ele><time>2026-04-25T12:32:39Z</time></trkpt><trkpt lat="43.32466779465712" lon="11.509393086496718"><ele>289.0</ele><time>2026-04-25T12:32:40Z</time></trkpt><trkpt lat="43.32477522374693" lon="11.509468214309079"><ele>289.0</ele><time>2026-04-25T12:32:41Z</time></trkpt><trkpt lat="43.324900296417084" lon="11.509508055390512"><ele>289.0</ele><time>2026-04-25T12:32:42Z</time></trkpt><trkpt lat="43.32503988438881" lon="11.50953540624293"><ele>289.0</ele><time>2026-04-25T12:32:43Z</time></trkpt><trkpt lat="43.32518250975195" lon="11.509498293451013"><ele>289.0</ele><time>2026-04-25T12:32:44Z</time></trkpt><trkpt lat="43.32532793250364" lon="11.50944511186167"><ele>289.0</ele><time>2026-04-25T12:32:45Z</time></trkpt><trkpt lat="43.325494275771064" lon="11.509373885579707"><ele>289.0</ele><time>2026-04-25T12:32:46Z</time></trkpt><trkpt lat="43.32567115465384" lon="11.509297578295211"><ele>289.0</ele><time>2026-04-25T12:32:47Z</time></trkpt><trkpt lat="43.325851968654185" lon="11.509219738947998"><ele>289.3333333333333</ele><time>2026-04-25T12:32:48Z</time></trkpt><trkpt lat="43.32605147220723" lon="11.509133786694655"><ele>289.6666666666667</ele><time>2026-04-25T12:32:49Z</time></trkpt><trkpt lat="43.326262310375284" lon="11.50903841545689"><ele>290.0</ele><time>2026-04-25T12:32:50Z</time></trkpt><trkpt lat="43.32646321450498" lon="11.508934209493491"><ele>291.5</ele><time>2026-04-25T12:32:51.001Z</time></trkpt><trkpt lat="43.32667837911051" lon="11.508816951231992"><ele>293.0</ele><time>2026-04-25T12:32:52.001Z</time></trkpt><trkpt lat="43.326900216333996" lon="11.508686818645668"><ele>294.0</ele><time>2026-04-25T12:32:53.001Z</time></trkpt><trkpt lat="43.32711958964406" lon="11.508550910990902"><ele>295.0</ele><time>2026-04-25T12:32:54.001Z</time></trkpt><trkpt lat="43.32732374686871" lon="11.50842172770134"><ele>296.3333333333333</ele><time>2026-04-25T12:32:55.001Z</time></trkpt><trkpt lat="43.327516508032936" lon="11.508297025681403"><ele>297.6666666666667</ele><time>2026-04-25T12:32:56.001Z</time></trkpt><trkpt lat="43.3277060805457" lon="11.508176286962742"><ele>299.0</ele><time>2026-04-25T12:32:57.001Z</time></trkpt><trkpt lat="43.32788796670962" lon="11.508056692104004"><ele>299.6666666666667</ele><time>2026-04-25T12:32:58.001Z</time></trkpt><trkpt lat="43.32806526788072" lon="11.50794463312305"><ele>300.3333333333333</ele><time>2026-04-25T12:32:59.001Z</time></trkpt><trkpt lat="43.3282373750839" lon="11.507834136722657"><ele>301.0</ele><time>2026-04-25T12:33:00.001Z</time></trkpt><trkpt lat="43.328410503774265" lon="11.507722683857976"><ele>301.66666666666663</ele><time>2026-04-25T12:33:01.001Z</time></trkpt><trkpt lat="43.32856877998063" lon="11.507564008623186"><ele>302.3333333333333</ele><time>2026-04-25T12:33:02.001Z</time></trkpt><trkpt lat="43.32874276537452" lon="11.507448747002664"><ele>303.0</ele><time>2026-04-25T12:33:03.001Z</time></trkpt><trkpt lat="43.32891220357306" lon="11.507345866987832"><ele>304.3333333333333</ele><time>2026-04-25T12:33:04.001Z</time></trkpt><trkpt lat="43.32908117806368" lon="11.50725924817518"><ele>305.66666666666663</ele><time>2026-04-25T12:33:05.001Z</time></trkpt><trkpt lat="43.329264282357286" lon="11.50723815313587"><ele>307.0</ele><time>2026-04-25T12:33:06.001Z</time></trkpt><trkpt lat="43.32944677189438" lon="11.507184903018969"><ele>307.0</ele><time>2026-04-25T12:33:07.001Z</time></trkpt><trkpt lat="43.32963959711969" lon="11.507146528360492"><ele>307.0</ele><time>2026-04-25T12:33:08.001Z</time></trkpt><trkpt lat="43.32984518329021" lon="11.507108111120521"><ele>307.0</ele><time>2026-04-25T12:33:09.001Z</time></trkpt><trkpt lat="43.33005088749055" lon="11.507069544028814"><ele>307.0</ele><time>2026-04-25T12:33:10.001Z</time></trkpt><trkpt lat="43.330254625340984" lon="11.507030534571788"><ele>307.0</ele><time>2026-04-25T12:33:11.001Z</time></trkpt><trkpt lat="43.33044353806148" lon="11.506994283145588"><ele>307.0</ele><time>2026-04-25T12:33:12.001Z</time></trkpt><trkpt lat="43.33063355124705" lon="11.506959177721567"><ele>308.3333333333333</ele><time>2026-04-25T12:33:13.001Z</time></trkpt><trkpt lat="43.33082119521584" lon="11.506923885850535"><ele>309.6666666666667</ele><time>2026-04-25T12:33:14.001Z</time></trkpt><trkpt lat="43.33099725811276" lon="11.506887302241124"><ele>311.0</ele><time>2026-04-25T12:33:15.001Z</time></trkpt><trkpt lat="43.331169453326204" lon="11.506843250033311"><ele>311.0</ele><time>2026-04-25T12:33:16.001Z</time></trkpt><trkpt lat="43.33134050768435" lon="11.506779672624514"><ele>311.0</ele><time>2026-04-25T12:33:17.001Z</time></trkpt><trkpt lat="43.33149912942895" lon="11.506687650934524"><ele>311.0</ele><time>2026-04-25T12:33:18.001Z</time></trkpt><trkpt lat="43.3316512903388" lon="11.506590645911869"><ele>312.0</ele><time>2026-04-25T12:33:19.001Z</time></trkpt><trkpt lat="43.33178743955197" lon="11.506438907568386"><ele>313.0</ele><time>2026-04-25T12:33:20.001Z</time></trkpt><trkpt lat="43.33192926040132" lon="11.506346565584748"><ele>314.0</ele><time>2026-04-25T12:33:21.001Z</time></trkpt><trkpt lat="43.332080833966366" lon="11.506256601719203"><ele>314.6666666666667</ele><time>2026-04-25T12:33:22.001Z</time></trkpt><trkpt lat="43.33222233998431" lon="11.506153342319093"><ele>315.3333333333333</ele><time>2026-04-25T12:33:23.001Z</time></trkpt><trkpt lat="43.332385718350544" lon="11.506102378372637"><ele>316.0</ele><time>2026-04-25T12:33:24.001Z</time></trkpt><trkpt lat="43.33253051512114" lon="11.50601222756085"><ele>316.0</ele><time>2026-04-25T12:33:25.001Z</time></trkpt><trkpt lat="43.33269063511428" lon="11.505934444995589"><ele>316.0</ele><time>2026-04-25T12:33:26.001Z</time></trkpt><trkpt lat="43.33284631483334" lon="11.505879153624335"><ele>316.0</ele><time>2026-04-25T12:33:27.001Z</time></trkpt><trkpt lat="43.33300583148909" lon="11.505841767229068"><ele>316.0</ele><time>2026-04-25T12:33:28.001Z</time></trkpt><trkpt lat="43.333181298450626" lon="11.50580576299529"><ele>316.0</ele><time>2026-04-25T12:33:29.001Z</time></trkpt><trkpt lat="43.33335686593521" lon="11.505769110017225"><ele>316.0</ele><time>2026-04-25T12:33:30.001Z</time></trkpt><trkpt lat="43.333546406006406" lon="11.505730552844412"><ele>316.0</ele><time>2026-04-25T12:33:31Z</time></trkpt><trkpt lat="43.333743791795385" lon="11.50569007885418"><ele>316.0</ele><time>2026-04-25T12:33:32Z</time></trkpt><trkpt lat="43.333954996115594" lon="11.505648077851063"><ele>316.0</ele><time>2026-04-25T12:33:33Z</time></trkpt><trkpt lat="43.334177233326784" lon="11.505603882725323"><ele>315.5</ele><time>2026-04-25T12:33:34Z</time></trkpt><trkpt lat="43.334410394454764" lon="11.505557037269613"><ele>315.0</ele><time>2026-04-25T12:33:35Z</time></trkpt><trkpt lat="43.33465629003471" lon="11.505507200633655"><ele>314.5</ele><time>2026-04-25T12:33:36Z</time></trkpt><trkpt lat="43.334910986636295" lon="11.505455553658454"><ele>314.0</ele><time>2026-04-25T12:33:37Z</time></trkpt><trkpt lat="43.33517643523122" lon="11.505401689887474"><ele>316.0</ele><time>2026-04-25T12:33:38Z</time></trkpt><trkpt lat="43.335439898143434" lon="11.505348229057079"><ele>318.0</ele><time>2026-04-25T12:33:39Z</time></trkpt><trkpt lat="43.33567624552341" lon="11.505300270371755"><ele>318.0</ele><time>2026-04-25T12:33:40Z</time></trkpt><trkpt lat="43.33589664703669" lon="11.50525600609483"><ele>318.0</ele><time>2026-04-25T12:33:41Z</time></trkpt><trkpt lat="43.336087629794534" lon="11.50521691180812"><ele>318.0</ele><time>2026-04-25T12:33:42Z</time></trkpt><trkpt lat="43.33626845584055" lon="11.505179559290712"><ele>320.0</ele><time>2026-04-25T12:33:43Z</time></trkpt><trkpt lat="43.33644352881197" lon="11.505143943962738"><ele>322.0</ele><time>2026-04-25T12:33:44Z</time></trkpt><trkpt lat="43.336625548743726" lon="11.505109271965134"><ele>324.0</ele><time>2026-04-25T12:33:45Z</time></trkpt><trkpt lat="43.336800166928164" lon="11.505095117470546"><ele>324.0</ele><time>2026-04-25T12:33:46Z</time></trkpt><trkpt lat="43.33697332041959" lon="11.505084273901687"><ele>324.0</ele><time>2026-04-25T12:33:47Z</time></trkpt><trkpt lat="43.337145012887646" lon="11.505127992952849"><ele>324.0</ele><time>2026-04-25T12:33:48Z</time></trkpt><trkpt lat="43.33732130765807" lon="11.505195112788112"><ele>324.3333333333333</ele><time>2026-04-25T12:33:49Z</time></trkpt><trkpt lat="43.337491609460315" lon="11.505291191368505"><ele>324.66666666666663</ele><time>2026-04-25T12:33:50Z</time></trkpt><trkpt lat="43.33763292465742" lon="11.505391082247382"><ele>325.0</ele><time>2026-04-25T12:33:51Z</time></trkpt><trkpt lat="43.337762383151926" lon="11.505481994493763"><ele>326.0</ele><time>2026-04-25T12:33:52Z</time></trkpt><trkpt lat="43.337890916810856" lon="11.50556522992685"><ele>327.0</ele><time>2026-04-25T12:33:53Z</time></trkpt><trkpt lat="43.338016653877126" lon="11.50564579850678"><ele>328.0</ele><time>2026-04-25T12:33:54Z</time></trkpt><trkpt lat="43.33814880174191" lon="11.505717483898993"><ele>329.0</ele><time>2026-04-25T12:33:55Z</time></trkpt><trkpt lat="43.338272884903404" lon="11.505807939889175"><ele>329.75</ele><time>2026-04-25T12:33:56Z</time></trkpt><trkpt lat="43.338401811852485" lon="11.505860682730129"><ele>330.5</ele><time>2026-04-25T12:33:57Z</time></trkpt><trkpt lat="43.33853583983436" lon="11.505878323749542"><ele>331.25</ele><time>2026-04-25T12:33:58Z</time></trkpt><trkpt lat="43.33866249345781" lon="11.50589137976765"><ele>332.0</ele><time>2026-04-25T12:33:59Z</time></trkpt><trkpt lat="43.33878813231056" lon="11.50591401162689"><ele>333.25</ele><time>2026-04-25T12:34:00Z</time></trkpt><trkpt lat="43.33891681393804" lon="11.505908776179707"><ele>334.5</ele><time>2026-04-25T12:34:01Z</time></trkpt><trkpt lat="43.3390496038984" lon="11.505879795078465"><ele>335.75</ele><time>2026-04-25T12:34:02Z</time></trkpt><trkpt lat="43.33917321290487" lon="11.50582145758996"><ele>337.0</ele><time>2026-04-25T12:34:03Z</time></trkpt><trkpt lat="43.33928473709369" lon="11.505783044482966"><ele>337.0</ele><time>2026-04-25T12:34:04Z</time></trkpt><trkpt lat="43.339404654028456" lon="11.505760848879012"><ele>337.0</ele><time>2026-04-25T12:34:05Z</time></trkpt><trkpt lat="43.339516071192804" lon="11.50569673837549"><ele>337.0</ele><time>2026-04-25T12:34:06Z</time></trkpt><trkpt lat="43.33963534712957" lon="11.505676016044758"><ele>337.0</ele><time>2026-04-25T12:34:07Z</time></trkpt><trkpt lat="43.33974931423205" lon="11.505634106944887"><ele>336.8</ele><time>2026-04-25T12:34:08Z</time></trkpt><trkpt lat="43.339856354179446" lon="11.505594745255761"><ele>336.6</ele><time>2026-04-25T12:34:09Z</time></trkpt><trkpt lat="43.33995019523101" lon="11.505561585737418"><ele>336.40000000000003</ele><time>2026-04-25T12:34:10Z</time></trkpt><trkpt lat="43.340053994113624" lon="11.50552477705653"><ele>336.20000000000005</ele><time>2026-04-25T12:34:11Z</time></trkpt><trkpt lat="43.34014702147425" lon="11.505491788821898"><ele>336.0</ele><time>2026-04-25T12:34:12Z</time></trkpt><trkpt lat="43.34024735651007" lon="11.505457627286646"><ele>336.0</ele><time>2026-04-25T12:34:13Z</time></trkpt><trkpt lat="43.340332894477065" lon="11.505426205158304"><ele>336.0</ele><time>2026-04-25T12:34:14Z</time></trkpt><trkpt lat="43.3404131421522" lon="11.505396976452978"><ele>336.0</ele><time>2026-04-25T12:34:15Z</time></trkpt><trkpt lat="43.34048657945981" lon="11.505374410897282"><ele>336.0</ele><time>2026-04-25T12:34:16Z</time></trkpt><trkpt lat="43.34061006497316" lon="11.505352670476858"><ele>336.0</ele><time>2026-04-25T12:34:18Z</time></trkpt><trkpt lat="43.34067937323574" lon="11.505390880339915"><ele>336.0</ele><time>2026-04-25T12:34:19Z</time></trkpt><trkpt lat="43.34075793806637" lon="11.505387542264039"><ele>335.8</ele><time>2026-04-25T12:34:20Z</time></trkpt><trkpt lat="43.34083868674566" lon="11.505336732832948"><ele>335.6</ele><time>2026-04-25T12:34:21Z</time></trkpt><trkpt lat="43.340928145118994" lon="11.505268322197233"><ele>335.4</ele><time>2026-04-25T12:34:22Z</time></trkpt><trkpt lat="43.341022681123086" lon="11.505190331819072"><ele>335.2</ele><time>2026-04-25T12:34:23Z</time></trkpt><trkpt lat="43.34113178433902" lon="11.505164798243262"><ele>335.0</ele><time>2026-04-25T12:34:24Z</time></trkpt><trkpt lat="43.34123707922931" lon="11.505121835290723"><ele>335.0</ele><time>2026-04-25T12:34:25Z</time></trkpt><trkpt lat="43.341338688769795" lon="11.505072532526617"><ele>335.0</ele><time>2026-04-25T12:34:26Z</time></trkpt><trkpt lat="43.34145135510201" lon="11.505043536389708"><ele>335.0</ele><time>2026-04-25T12:34:27Z</time></trkpt><trkpt lat="43.34156714154199" lon="11.50501638133137"><ele>335.0</ele><time>2026-04-25T12:34:28Z</time></trkpt><trkpt lat="43.34171736923088" lon="11.504986058469916"><ele>335.0</ele><time>2026-04-25T12:34:29Z</time></trkpt><trkpt lat="43.3418620062893" lon="11.504963711098881"><ele>335.0</ele><time>2026-04-25T12:34:30Z</time></trkpt><trkpt lat="43.34200639996765" lon="11.504935721924397"><ele>335.0</ele><time>2026-04-25T12:34:31Z</time></trkpt><trkpt lat="43.34214679248881" lon="11.504909629415277"><ele>335.0</ele><time>2026-04-25T12:34:32Z</time></trkpt><trkpt lat="43.342272327894435" lon="11.504886343760397"><ele>335.75</ele><time>2026-04-25T12:34:33Z</time></trkpt><trkpt lat="43.34239608436681" lon="11.504865088759917"><ele>336.5</ele><time>2026-04-25T12:34:34Z</time></trkpt><trkpt lat="43.34251747437924" lon="11.50484063808262"><ele>337.25</ele><time>2026-04-25T12:34:35Z</time></trkpt><trkpt lat="43.342636026727874" lon="11.50481062378829"><ele>338.0</ele><time>2026-04-25T12:34:36Z</time></trkpt><trkpt lat="43.34276376627607" lon="11.50480616328282"><ele>338.0</ele><time>2026-04-25T12:34:37Z</time></trkpt><trkpt lat="43.34288437737462" lon="11.50478393686773"><ele>338.0</ele><time>2026-04-25T12:34:38Z</time></trkpt><trkpt lat="43.34301212262447" lon="11.504760399791715"><ele>338.0</ele><time>2026-04-25T12:34:39Z</time></trkpt><trkpt lat="43.34314109607286" lon="11.504736636426854"><ele>338.0</ele><time>2026-04-25T12:34:40Z</time></trkpt><trkpt lat="43.34327479489972" lon="11.504711514350074"><ele>338.0</ele><time>2026-04-25T12:34:41Z</time></trkpt><trkpt lat="43.34340716760637" lon="11.504664664449756"><ele>338.0</ele><time>2026-04-25T12:34:42Z</time></trkpt><trkpt lat="43.34354293535726" lon="11.504650101035557"><ele>338.0</ele><time>2026-04-25T12:34:43Z</time></trkpt><trkpt lat="43.343665711830056" lon="11.504633158029488"><ele>338.0</ele><time>2026-04-25T12:34:44Z</time></trkpt><trkpt lat="43.34380056065936" lon="11.504609953430784"><ele>338.0</ele><time>2026-04-25T12:34:45Z</time></trkpt><trkpt lat="43.343933338740555" lon="11.504584746990394"><ele>338.0</ele><time>2026-04-25T12:34:46Z</time></trkpt><trkpt lat="43.34405670238818" lon="11.504558471420003"><ele>338.0</ele><time>2026-04-25T12:34:47Z</time></trkpt><trkpt lat="43.34417573621062" lon="11.504535965618242"><ele>338.0</ele><time>2026-04-25T12:34:48Z</time></trkpt><trkpt lat="43.344282162641655" lon="11.504512229144416"><ele>337.6666666666667</ele><time>2026-04-25T12:34:49Z</time></trkpt><trkpt lat="43.344387787455766" lon="11.504489897931586"><ele>337.33333333333337</ele><time>2026-04-25T12:34:50Z</time></trkpt><trkpt lat="43.344477613322475" lon="11.50446967639292"><ele>337.0</ele><time>2026-04-25T12:34:51Z</time></trkpt><trkpt lat="43.34456047563452" lon="11.504462344394476"><ele>336.6666666666667</ele><time>2026-04-25T12:34:52Z</time></trkpt><trkpt lat="43.34463627277545" lon="11.504453339712912"><ele>336.3333333333333</ele><time>2026-04-25T12:34:55Z</time></trkpt><trkpt lat="43.3447181858386" lon="11.50448158610253"><ele>336.0</ele><time>2026-04-25T12:34:59Z</time></trkpt><trkpt lat="43.344802287694286" lon="11.504320798184668"><ele>337.1666666666667</ele><time>2026-04-25T12:35:02Z</time></trkpt><trkpt lat="43.344868545937246" lon="11.504174350094331"><ele>338.3333333333333</ele><time>2026-04-25T12:35:04.001Z</time></trkpt><trkpt lat="43.34490679986274" lon="11.504091135133638"><ele>339.5</ele><time>2026-04-25T12:35:05.001Z</time></trkpt><trkpt lat="43.34494510425269" lon="11.504007810551112"><ele>340.66666666666663</ele><time>2026-04-25T12:35:06.001Z</time></trkpt><trkpt lat="43.34498280084539" lon="11.503917445215926"><ele>341.8333333333333</ele><time>2026-04-25T12:35:07.001Z</time></trkpt><trkpt lat="43.34501331232375" lon="11.50383103821319"><ele>343.0</ele><time>2026-04-25T12:35:08.001Z</time></trkpt><trkpt lat="43.345043290729365" lon="11.503738508118657"><ele>343.0</ele><time>2026-04-25T12:35:09.001Z</time></trkpt><trkpt lat="43.34507211945776" lon="11.503649530317256"><ele>343.0</ele><time>2026-04-25T12:35:10.001Z</time></trkpt><trkpt lat="43.34509409386827" lon="11.503527216288123"><ele>343.0</ele><time>2026-04-25T12:35:11.001Z</time></trkpt><trkpt lat="43.344959742688616" lon="11.503409298676978"><ele>343.0</ele><time>2026-04-25T12:35:12.001Z</time></trkpt><trkpt lat="43.3449235803257" lon="11.503308165441675"><ele>343.0</ele><time>2026-04-25T12:35:13.001Z</time></trkpt><trkpt lat="43.344896677163156" lon="11.503199806867558"><ele>343.0</ele><time>2026-04-25T12:35:14.001Z</time></trkpt><trkpt lat="43.34488740249748" lon="11.503088146557683"><ele>343.0</ele><time>2026-04-25T12:35:15.001Z</time></trkpt><trkpt lat="43.34489164499597" lon="11.502970912211552"><ele>343.0</ele><time>2026-04-25T12:35:16.001Z</time></trkpt><trkpt lat="43.344904074696466" lon="11.502848663567887"><ele>343.0</ele><time>2026-04-25T12:35:17.001Z</time></trkpt><trkpt lat="43.34491993189905" lon="11.502720379581588"><ele>343.0</ele><time>2026-04-25T12:35:18.001Z</time></trkpt><trkpt lat="43.344962940353774" lon="11.50258734259827"><ele>343.2</ele><time>2026-04-25T12:35:19.001Z</time></trkpt><trkpt lat="43.345014445268944" lon="11.502452195716069"><ele>343.4</ele><time>2026-04-25T12:35:20.001Z</time></trkpt><trkpt lat="43.345063917821435" lon="11.502317797478531"><ele>343.59999999999997</ele><time>2026-04-25T12:35:21.001Z</time></trkpt><trkpt lat="43.34511520053686" lon="11.502183121940984"><ele>343.79999999999995</ele><time>2026-04-25T12:35:22.001Z</time></trkpt><trkpt lat="43.345160013183914" lon="11.502041418309247"><ele>344.0</ele><time>2026-04-25T12:35:23.001Z</time></trkpt><trkpt lat="43.34518996273739" lon="11.50189508879943"><ele>342.4</ele><time>2026-04-25T12:35:24.001Z</time></trkpt><trkpt lat="43.34524446598731" lon="11.5017743742106"><ele>340.79999999999995</ele><time>2026-04-25T12:35:25.001Z</time></trkpt><trkpt lat="43.34525706481123" lon="11.501635048029936"><ele>339.20000000000005</ele><time>2026-04-25T12:35:26.001Z</time></trkpt><trkpt lat="43.34522087165511" lon="11.501510463904806"><ele>337.6</ele><time>2026-04-25T12:35:27.001Z</time></trkpt><trkpt lat="43.345185558436874" lon="11.50139711496834"><ele>336.0</ele><time>2026-04-25T12:35:28.001Z</time></trkpt><trkpt lat="43.345164585129744" lon="11.50126914247069"><ele>335.8</ele><time>2026-04-25T12:35:29.001Z</time></trkpt><trkpt lat="43.345125273938805" lon="11.501176582182683"><ele>335.6</ele><time>2026-04-25T12:35:30.001Z</time></trkpt><trkpt lat="43.34508127050323" lon="11.501076447309627"><ele>335.4</ele><time>2026-04-25T12:35:31.001Z</time></trkpt><trkpt lat="43.345019630968224" lon="11.500969630118748"><ele>335.2</ele><time>2026-04-25T12:35:32.001Z</time></trkpt><trkpt lat="43.344965419259296" lon="11.500869343634946"><ele>335.0</ele><time>2026-04-25T12:35:33.001Z</time></trkpt><trkpt lat="43.34492933125308" lon="11.500727959629673"><ele>335.0</ele><time>2026-04-25T12:35:35.001Z</time></trkpt><trkpt lat="43.3449888963429" lon="11.500643912468501"><ele>335.0</ele><time>2026-04-25T12:35:37Z</time></trkpt><trkpt lat="43.34502583149652" lon="11.500573297957486"><ele>335.0</ele><time>2026-04-25T12:35:43Z</time></trkpt><trkpt lat="43.34509161177302" lon="11.500529755215911"><ele>335.0</ele><time>2026-04-25T12:35:55Z</time></trkpt><trkpt lat="43.34503862486224" lon="11.50038880502261"><ele>335.0</ele><time>2026-04-25T12:35:56Z</time></trkpt><trkpt lat="43.34498918955282" lon="11.50031835510455"><ele>335.0</ele><time>2026-04-25T12:35:57Z</time></trkpt><trkpt lat="43.34493758906919" lon="11.500209025710978"><ele>335.0</ele><time>2026-04-25T12:35:58Z</time></trkpt><trkpt lat="43.344900271738744" lon="11.50009173158162"><ele>335.0</ele><time>2026-04-25T12:35:59Z</time></trkpt><trkpt lat="43.34484356586033" lon="11.499929379164644"><ele>335.0</ele><time>2026-04-25T12:36:00Z</time></trkpt><trkpt lat="43.344788310873994" lon="11.499773954453362"><ele>335.0</ele><time>2026-04-25T12:36:01Z</time></trkpt><trkpt lat="43.344741537553915" lon="11.499652972189708"><ele>335.2</ele><time>2026-04-25T12:36:02Z</time></trkpt><trkpt lat="43.34470081470144" lon="11.499527687068703"><ele>335.4</ele><time>2026-04-25T12:36:03Z</time></trkpt><trkpt lat="43.34465208193208" lon="11.499398274947684"><ele>335.6</ele><time>2026-04-25T12:36:04Z</time></trkpt><trkpt lat="43.34460541558813" lon="11.499283596527219"><ele>335.8</ele><time>2026-04-25T12:36:05Z</time></trkpt><trkpt lat="43.34456749346696" lon="11.499162579665327"><ele>336.0</ele><time>2026-04-25T12:36:06Z</time></trkpt><trkpt lat="43.34452246950187" lon="11.499030703997349"><ele>336.0</ele><time>2026-04-25T12:36:07Z</time></trkpt><trkpt lat="43.344469307925685" lon="11.498862687328021"><ele>336.0</ele><time>2026-04-25T12:36:08Z</time></trkpt><trkpt lat="43.34440307215473" lon="11.498677728833039"><ele>336.0</ele><time>2026-04-25T12:36:09Z</time></trkpt><trkpt lat="43.3443506359148" lon="11.498522145788591"><ele>336.0</ele><time>2026-04-25T12:36:10Z</time></trkpt><trkpt lat="43.34430130521627" lon="11.498362325175712"><ele>336.25</ele><time>2026-04-25T12:36:11Z</time></trkpt><trkpt lat="43.344250010061025" lon="11.498221472563342"><ele>336.5</ele><time>2026-04-25T12:36:12Z</time></trkpt><trkpt lat="43.34420367195546" lon="11.49808585006106"><ele>336.75</ele><time>2026-04-25T12:36:13Z</time></trkpt><trkpt lat="43.34415073596757" lon="11.497938206964124"><ele>337.0</ele><time>2026-04-25T12:36:14Z</time></trkpt><trkpt lat="43.34409601981028" lon="11.497789295725434"><ele>337.0</ele><time>2026-04-25T12:36:15Z</time></trkpt><trkpt lat="43.34403782001436" lon="11.497644030137204"><ele>337.0</ele><time>2026-04-25T12:36:16Z</time></trkpt><trkpt lat="43.34397507079493" lon="11.497508199429758"><ele>337.0</ele><time>2026-04-25T12:36:17Z</time></trkpt><trkpt lat="43.34392860458973" lon="11.49738636872756"><ele>337.0</ele><time>2026-04-25T12:36:18Z</time></trkpt><trkpt lat="43.343878678467135" lon="11.49727327438108"><ele>337.0</ele><time>2026-04-25T12:36:19Z</time></trkpt><trkpt lat="43.343834982407884" lon="11.497173618968791"><ele>336.5</ele><time>2026-04-25T12:36:20Z</time></trkpt><trkpt lat="43.34380561573962" lon="11.497069981762117"><ele>336.0</ele><time>2026-04-25T12:36:21Z</time></trkpt><trkpt lat="43.343750454857094" lon="11.49699361946412"><ele>335.5</ele><time>2026-04-25T12:36:22Z</time></trkpt><trkpt lat="43.34368849813468" lon="11.496915727640495"><ele>335.0</ele><time>2026-04-25T12:36:23Z</time></trkpt><trkpt lat="43.34362313534165" lon="11.496830745294647"><ele>334.5</ele><time>2026-04-25T12:36:24Z</time></trkpt><trkpt lat="43.34355557937694" lon="11.496738900910998"><ele>334.0</ele><time>2026-04-25T12:36:25Z</time></trkpt><trkpt lat="43.34349220863726" lon="11.496659503933863"><ele>334.0</ele><time>2026-04-25T12:36:26Z</time></trkpt><trkpt lat="43.343435927996126" lon="11.496581887533793"><ele>334.0</ele><time>2026-04-25T12:36:27Z</time></trkpt><trkpt lat="43.34337814314374" lon="11.496511402218912"><ele>334.0</ele><time>2026-04-25T12:36:28Z</time></trkpt><trkpt lat="43.34332181784286" lon="11.49643695360254"><ele>334.0</ele><time>2026-04-25T12:36:29Z</time></trkpt><trkpt lat="43.34327213279076" lon="11.496371279486455"><ele>334.0</ele><time>2026-04-25T12:36:30Z</time></trkpt><trkpt lat="43.34321499576247" lon="11.49630781016771"><ele>334.0</ele><time>2026-04-25T12:36:31Z</time></trkpt><trkpt lat="43.343146883528746" lon="11.496232020381033"><ele>333.4</ele><time>2026-04-25T12:36:32Z</time></trkpt><trkpt lat="43.343081782321605" lon="11.496159960456596"><ele>332.79999999999995</ele><time>2026-04-25T12:36:33Z</time></trkpt><trkpt lat="43.34302336630678" lon="11.49608997778551"><ele>332.20000000000005</ele><time>2026-04-25T12:36:34Z</time></trkpt><trkpt lat="43.34296342691018" lon="11.496011353680155"><ele>331.6</ele><time>2026-04-25T12:36:35Z</time></trkpt><trkpt lat="43.34288800343443" lon="11.495921655389573"><ele>331.0</ele><time>2026-04-25T12:36:36Z</time></trkpt><trkpt lat="43.34279315619527" lon="11.49581952517219"><ele>331.0</ele><time>2026-04-25T12:36:37Z</time></trkpt><trkpt lat="43.342705405622894" lon="11.495685602576241"><ele>331.0</ele><time>2026-04-25T12:36:38Z</time></trkpt><trkpt lat="43.342600772049984" lon="11.495566355311867"><ele>331.0</ele><time>2026-04-25T12:36:39Z</time></trkpt><trkpt lat="43.342464805500455" lon="11.495397449036476"><ele>328.3333333333333</ele><time>2026-04-25T12:36:40Z</time></trkpt><trkpt lat="43.34233313923425" lon="11.495235104165351"><ele>325.6666666666667</ele><time>2026-04-25T12:36:41Z</time></trkpt><trkpt lat="43.34219449003323" lon="11.49506470966182"><ele>323.0</ele><time>2026-04-25T12:36:42Z</time></trkpt><trkpt lat="43.342059644039644" lon="11.494904215511422"><ele>320.6666666666667</ele><time>2026-04-25T12:36:43Z</time></trkpt><trkpt lat="43.34191496398508" lon="11.494736486932409"><ele>318.3333333333333</ele><time>2026-04-25T12:36:44Z</time></trkpt><trkpt lat="43.34176910243042" lon="11.494565109631548"><ele>316.0</ele><time>2026-04-25T12:36:45Z</time></trkpt><trkpt lat="43.34161208787093" lon="11.494382989130289"><ele>315.0</ele><time>2026-04-25T12:36:46Z</time></trkpt><trkpt lat="43.341461494643184" lon="11.494202823255403"><ele>314.0</ele><time>2026-04-25T12:36:47Z</time></trkpt><trkpt lat="43.341312840790984" lon="11.494031155627418"><ele>313.0</ele><time>2026-04-25T12:36:48Z</time></trkpt><trkpt lat="43.341166201928104" lon="11.493862477328042"><ele>312.0</ele><time>2026-04-25T12:36:49Z</time></trkpt><trkpt lat="43.341027554119364" lon="11.493703380116182"><ele>311.0</ele><time>2026-04-25T12:36:50Z</time></trkpt><trkpt lat="43.34089100038607" lon="11.493544302367663"><ele>310.0</ele><time>2026-04-25T12:36:51Z</time></trkpt><trkpt lat="43.340755386903915" lon="11.493389321731973"><ele>310.0</ele><time>2026-04-25T12:36:52Z</time></trkpt><trkpt lat="43.34062490276303" lon="11.493234224975964"><ele>310.0</ele><time>2026-04-25T12:36:53Z</time></trkpt><trkpt lat="43.34049457537506" lon="11.493072456781755"><ele>310.0</ele><time>2026-04-25T12:36:54Z</time></trkpt><trkpt lat="43.34035660295153" lon="11.49289546754463"><ele>310.3333333333333</ele><time>2026-04-25T12:36:55Z</time></trkpt><trkpt lat="43.34022201711476" lon="11.492717944246374"><ele>310.6666666666667</ele><time>2026-04-25T12:36:56Z</time></trkpt><trkpt lat="43.34008964464843" lon="11.492524728420031"><ele>311.0</ele><time>2026-04-25T12:36:57Z</time></trkpt><trkpt lat="43.33994672311088" lon="11.492315531051274"><ele>311.0</ele><time>2026-04-25T12:36:58Z</time></trkpt><trkpt lat="43.339800080459106" lon="11.492099347258824"><ele>311.0</ele><time>2026-04-25T12:36:59Z</time></trkpt><trkpt lat="43.3396602372651" lon="11.491895848334718"><ele>311.0</ele><time>2026-04-25T12:37:00Z</time></trkpt><trkpt lat="43.33952287570942" lon="11.49168845527098"><ele>309.6666666666667</ele><time>2026-04-25T12:37:01Z</time></trkpt><trkpt lat="43.33939374270927" lon="11.49148827467729"><ele>308.3333333333333</ele><time>2026-04-25T12:37:02Z</time></trkpt><trkpt lat="43.339263643716706" lon="11.491290386727027"><ele>307.0</ele><time>2026-04-25T12:37:03Z</time></trkpt><trkpt lat="43.339128164546395" lon="11.4910982533904"><ele>306.66666666666663</ele><time>2026-04-25T12:37:04Z</time></trkpt><trkpt lat="43.33898841775957" lon="11.490924985047764"><ele>306.3333333333333</ele><time>2026-04-25T12:37:05Z</time></trkpt><trkpt lat="43.338841340358556" lon="11.490769217800182"><ele>306.0</ele><time>2026-04-25T12:37:06Z</time></trkpt><trkpt lat="43.33869376902282" lon="11.490616001288359"><ele>305.0</ele><time>2026-04-25T12:37:07Z</time></trkpt><trkpt lat="43.338548801387844" lon="11.490461707021932"><ele>304.0</ele><time>2026-04-25T12:37:08Z</time></trkpt><trkpt lat="43.3384011521698" lon="11.490303800206204"><ele>303.0</ele><time>2026-04-25T12:37:09Z</time></trkpt><trkpt lat="43.33825612588593" lon="11.490150757519283"><ele>303.0</ele><time>2026-04-25T12:37:10Z</time></trkpt><trkpt lat="43.338104475948846" lon="11.489993978061436"><ele>303.0</ele><time>2026-04-25T12:37:11Z</time></trkpt><trkpt lat="43.337945112817636" lon="11.489824771580803"><ele>303.0</ele><time>2026-04-25T12:37:12Z</time></trkpt><trkpt lat="43.33779452209852" lon="11.48966235042474"><ele>301.0</ele><time>2026-04-25T12:37:13Z</time></trkpt><trkpt lat="43.33764970394514" lon="11.489512198954158"><ele>299.0</ele><time>2026-04-25T12:37:14Z</time></trkpt><trkpt lat="43.33750933666019" lon="11.4893692201965"><ele>297.0</ele><time>2026-04-25T12:37:15Z</time></trkpt><trkpt lat="43.33737464345688" lon="11.48922368253143"><ele>297.0</ele><time>2026-04-25T12:37:16Z</time></trkpt><trkpt lat="43.33723921572778" lon="11.489082430166814"><ele>297.0</ele><time>2026-04-25T12:37:17Z</time></trkpt><trkpt lat="43.337094495184886" lon="11.488947491419841"><ele>297.0</ele><time>2026-04-25T12:37:18Z</time></trkpt><trkpt lat="43.33693574564121" lon="11.488856126156266"><ele>297.6666666666667</ele><time>2026-04-25T12:37:19Z</time></trkpt><trkpt lat="43.33678015643028" lon="11.488774327486434"><ele>298.33333333333337</ele><time>2026-04-25T12:37:20Z</time></trkpt><trkpt lat="43.33662741047629" lon="11.488673914645243"><ele>299.0</ele><time>2026-04-25T12:37:21Z</time></trkpt><trkpt lat="43.33648792733318" lon="11.488551361050861"><ele>299.0</ele><time>2026-04-25T12:37:22Z</time></trkpt><trkpt lat="43.3363698291577" lon="11.488397386280397"><ele>299.0</ele><time>2026-04-25T12:37:23Z</time></trkpt><trkpt lat="43.336276548693675" lon="11.488223643070402"><ele>299.0</ele><time>2026-04-25T12:37:24Z</time></trkpt><trkpt lat="43.33617968836261" lon="11.488040859852994"><ele>296.33333333333337</ele><time>2026-04-25T12:37:25Z</time></trkpt><trkpt lat="43.33606009401578" lon="11.487874940600781"><ele>293.6666666666667</ele><time>2026-04-25T12:37:26Z</time></trkpt><trkpt lat="43.33592777133121" lon="11.4877302001884"><ele>291.0</ele><time>2026-04-25T12:37:27Z</time></trkpt><trkpt lat="43.33580276748198" lon="11.487591135710142"><ele>291.0</ele><time>2026-04-25T12:37:28Z</time></trkpt><trkpt lat="43.33568505728154" lon="11.487431924669549"><ele>291.0</ele><time>2026-04-25T12:37:29Z</time></trkpt><trkpt lat="43.33557809353377" lon="11.487256150041357"><ele>291.0</ele><time>2026-04-25T12:37:30Z</time></trkpt><trkpt lat="43.3354866168301" lon="11.487067486410382"><ele>292.0</ele><time>2026-04-25T12:37:31Z</time></trkpt><trkpt lat="43.33540384243908" lon="11.486867125589525"><ele>293.0</ele><time>2026-04-25T12:37:32.001Z</time></trkpt><trkpt lat="43.33532342890782" lon="11.486675339352784"><ele>294.0</ele><time>2026-04-25T12:37:33.001Z</time></trkpt><trkpt lat="43.335246443150766" lon="11.486492367169266"><ele>294.0</ele><time>2026-04-25T12:37:34.001Z</time></trkpt><trkpt lat="43.33517240678857" lon="11.48631531902521"><ele>294.0</ele><time>2026-04-25T12:37:35.001Z</time></trkpt><trkpt lat="43.335096317537484" lon="11.486128270960993"><ele>294.0</ele><time>2026-04-25T12:37:36.001Z</time></trkpt><trkpt lat="43.335024335309576" lon="11.4859240831779"><ele>291.0</ele><time>2026-04-25T12:37:37.001Z</time></trkpt><trkpt lat="43.33496551490214" lon="11.485705655184535"><ele>288.0</ele><time>2026-04-25T12:37:38.001Z</time></trkpt><trkpt lat="43.33492374537787" lon="11.485467241562455"><ele>285.0</ele><time>2026-04-25T12:37:39.001Z</time></trkpt><trkpt lat="43.334886455603076" lon="11.485218295665284"><ele>283.0</ele><time>2026-04-25T12:37:40.001Z</time></trkpt><trkpt lat="43.3348508864815" lon="11.484962443027092"><ele>281.0</ele><time>2026-04-25T12:37:41.001Z</time></trkpt><trkpt lat="43.334810535037796" lon="11.484711014984235"><ele>279.0</ele><time>2026-04-25T12:37:42.001Z</time></trkpt><trkpt lat="43.334797189932225" lon="11.484459751802516"><ele>277.6666666666667</ele><time>2026-04-25T12:37:43Z</time></trkpt><trkpt lat="43.33477282289649" lon="11.484218895304817"><ele>276.33333333333337</ele><time>2026-04-25T12:37:44Z</time></trkpt><trkpt lat="43.334736640476095" lon="11.483992294378625"><ele>275.0</ele><time>2026-04-25T12:37:45Z</time></trkpt><trkpt lat="43.334733936199115" lon="11.483766984366902"><ele>278.0</ele><time>2026-04-25T12:37:46Z</time></trkpt><trkpt lat="43.334717846298766" lon="11.483551693603935"><ele>281.0</ele><time>2026-04-25T12:37:47Z</time></trkpt><trkpt lat="43.33470159707843" lon="11.483334271019444"><ele>284.0</ele><time>2026-04-25T12:37:48Z</time></trkpt><trkpt lat="43.334683829653734" lon="11.483109193216388"><ele>283.0</ele><time>2026-04-25T12:37:49Z</time></trkpt><trkpt lat="43.3346552395827" lon="11.482881373327448"><ele>282.0</ele><time>2026-04-25T12:37:50Z</time></trkpt><trkpt lat="43.33462115982277" lon="11.482656607348613"><ele>281.0</ele><time>2026-04-25T12:37:51Z</time></trkpt><trkpt lat="43.33457169165444" lon="11.482476572664387"><ele>281.0</ele><time>2026-04-25T12:37:52Z</time></trkpt><trkpt lat="43.33456045211192" lon="11.482281638566134"><ele>281.0</ele><time>2026-04-25T12:37:53Z</time></trkpt><trkpt lat="43.334586102074624" lon="11.482104178550156"><ele>281.0</ele><time>2026-04-25T12:37:54Z</time></trkpt><trkpt lat="43.334613074054715" lon="11.481932831226237"><ele>281.0</ele><time>2026-04-25T12:37:55Z</time></trkpt><trkpt lat="43.33471398062287" lon="11.481775002807687"><ele>280.5</ele><time>2026-04-25T12:37:56Z</time></trkpt><trkpt lat="43.3348016819145" lon="11.481615656374375"><ele>280.0</ele><time>2026-04-25T12:37:57Z</time></trkpt><trkpt lat="43.3348940160858" lon="11.481455806684675"><ele>279.5</ele><time>2026-04-25T12:37:58Z</time></trkpt><trkpt lat="43.33499038005589" lon="11.481288980686083"><ele>279.0</ele><time>2026-04-25T12:37:59Z</time></trkpt><trkpt lat="43.335092264463505" lon="11.481115968654997"><ele>279.0</ele><time>2026-04-25T12:38:00Z</time></trkpt><trkpt lat="43.33521883820467" lon="11.48091773118317"><ele>279.0</ele><time>2026-04-25T12:38:01Z</time></trkpt><trkpt lat="43.33531109996115" lon="11.480768305001826"><ele>279.0</ele><time>2026-04-25T12:38:02Z</time></trkpt><trkpt lat="43.33538378265714" lon="11.480655180489606"><ele>279.0</ele><time>2026-04-25T12:38:03Z</time></trkpt><trkpt lat="43.33544382546696" lon="11.480566507767092"><ele>279.0</ele><time>2026-04-25T12:38:04Z</time></trkpt><trkpt lat="43.33543608083563" lon="11.480433413190704"><ele>279.0</ele><time>2026-04-25T12:38:05Z</time></trkpt><trkpt lat="43.33545426353787" lon="11.48027336740869"><ele>279.0</ele><time>2026-04-25T12:38:07Z</time></trkpt><trkpt lat="43.33547318590524" lon="11.480127769871542"><ele>279.0</ele><time>2026-04-25T12:38:09Z</time></trkpt><trkpt lat="43.3354903029846" lon="11.480036877515824"><ele>279.0</ele><time>2026-04-25T12:38:10Z</time></trkpt><trkpt lat="43.335513744301224" lon="11.479943774994267"><ele>279.1666666666667</ele><time>2026-04-25T12:38:11Z</time></trkpt><trkpt lat="43.33555508690059" lon="11.479868499231296"><ele>279.3333333333333</ele><time>2026-04-25T12:38:12Z</time></trkpt><trkpt lat="43.3356021957097" lon="11.479730205127371"><ele>279.5</ele><time>2026-04-25T12:38:14Z</time></trkpt><trkpt lat="43.335646267068995" lon="11.479595706689931"><ele>279.66666666666663</ele><time>2026-04-25T12:38:16Z</time></trkpt><trkpt lat="43.335687697447604" lon="11.479504033228693"><ele>279.8333333333333</ele><time>2026-04-25T12:38:18Z</time></trkpt><trkpt lat="43.33571781753033" lon="11.479409561453519"><ele>280.0</ele><time>2026-04-25T12:38:20Z</time></trkpt><trkpt lat="43.33573625130401" lon="11.47932491887997"><ele>280.0</ele><time>2026-04-25T12:38:56Z</time></trkpt><trkpt lat="43.335699293911915" lon="11.479439160179155"><ele>280.0</ele><time>2026-04-25T12:39:14Z</time></trkpt><trkpt lat="43.33566298910684" lon="11.479548184463066"><ele>280.0</ele><time>2026-04-25T12:39:16Z</time></trkpt><trkpt lat="43.335635116879615" lon="11.47963188618477"><ele>280.0</ele><time>2026-04-25T12:39:17Z</time></trkpt><trkpt lat="43.3355818824769" lon="11.479791748855584"><ele>280.0</ele><time>2026-04-25T12:39:19Z</time></trkpt><trkpt lat="43.33555188935116" lon="11.479876436224822"><ele>280.0</ele><time>2026-04-25T12:39:20Z</time></trkpt><trkpt lat="43.33552547559652" lon="11.479962919404798"><ele>280.16666666666663</ele><time>2026-04-25T12:39:21Z</time></trkpt><trkpt lat="43.33549649395482" lon="11.480055329594023"><ele>280.3333333333333</ele><time>2026-04-25T12:39:22Z</time></trkpt><trkpt lat="43.33544488338867" lon="11.480141207679322"><ele>280.5</ele><time>2026-04-25T12:39:23Z</time></trkpt><trkpt lat="43.33542628119716" lon="11.48022397411241"><ele>280.6666666666667</ele><time>2026-04-25T12:39:24Z</time></trkpt><trkpt lat="43.335399566381824" lon="11.480357626981466"><ele>280.83333333333337</ele><time>2026-04-25T12:39:26Z</time></trkpt><trkpt lat="43.335415997965875" lon="11.48044751401673"><ele>281.0</ele><time>2026-04-25T12:39:29Z</time></trkpt><trkpt lat="43.33545507772409" lon="11.480375432486438"><ele>281.0</ele><time>2026-04-25T12:39:33Z</time></trkpt><trkpt lat="43.33553890529568" lon="11.480193593288343"><ele>281.0</ele><time>2026-04-25T12:39:34Z</time></trkpt><trkpt lat="43.33559832067187" lon="11.480126524665463"><ele>281.0</ele><time>2026-04-25T12:39:35Z</time></trkpt><trkpt lat="43.33567291623327" lon="11.480038537045445"><ele>281.0</ele><time>2026-04-25T12:39:36Z</time></trkpt><trkpt lat="43.33572898630396" lon="11.479947254829938"><ele>281.0</ele><time>2026-04-25T12:39:37Z</time></trkpt><trkpt lat="43.33580536946813" lon="11.479810019979498"><ele>280.8</ele><time>2026-04-25T12:39:38Z</time></trkpt><trkpt lat="43.335884794477295" lon="11.479702862459668"><ele>280.6</ele><time>2026-04-25T12:39:39Z</time></trkpt><trkpt lat="43.33596296231329" lon="11.479597398109853"><ele>280.4</ele><time>2026-04-25T12:39:40Z</time></trkpt><trkpt lat="43.33604395029016" lon="11.479488128813987"><ele>280.2</ele><time>2026-04-25T12:39:41Z</time></trkpt><trkpt lat="43.33612246484511" lon="11.479382196668691"><ele>280.0</ele><time>2026-04-25T12:39:42Z</time></trkpt><trkpt lat="43.336425255424174" lon="11.479587929313599"><ele>279.2</ele><time>2026-04-25T12:39:43Z</time></trkpt><trkpt lat="43.336511664685204" lon="11.47950430549378"><ele>278.4</ele><time>2026-04-25T12:39:44Z</time></trkpt><trkpt lat="43.336618163394206" lon="11.479425638095815"><ele>277.6</ele><time>2026-04-25T12:39:45Z</time></trkpt><trkpt lat="43.33673646818394" lon="11.479417063502467"><ele>276.8</ele><time>2026-04-25T12:39:46Z</time></trkpt><trkpt lat="43.33682885354925" lon="11.47936317048073"><ele>276.0</ele><time>2026-04-25T12:39:47Z</time></trkpt><trkpt lat="43.336919982881014" lon="11.479323024028849"><ele>276.0</ele><time>2026-04-25T12:39:48Z</time></trkpt><trkpt lat="43.33700780021592" lon="11.479310112424285"><ele>276.0</ele><time>2026-04-25T12:39:49Z</time></trkpt><trkpt lat="43.33709946428371" lon="11.479302101503997"><ele>276.0</ele><time>2026-04-25T12:39:50Z</time></trkpt><trkpt lat="43.337189816113" lon="11.479299211693252"><ele>276.0</ele><time>2026-04-25T12:39:51Z</time></trkpt><trkpt lat="43.337271688049064" lon="11.479299211694682"><ele>276.0</ele><time>2026-04-25T12:39:52Z</time></trkpt><trkpt lat="43.33735577736698" lon="11.479274274833209"><ele>276.0</ele><time>2026-04-25T12:39:53Z</time></trkpt><trkpt lat="43.33744160740654" lon="11.479294896549433"><ele>275.6</ele><time>2026-04-25T12:39:54Z</time></trkpt><trkpt lat="43.33750920309222" lon="11.479287822219217"><ele>275.20000000000005</ele><time>2026-04-25T12:39:55Z</time></trkpt><trkpt lat="43.3375992062394" lon="11.479265816610797"><ele>274.79999999999995</ele><time>2026-04-25T12:39:56Z</time></trkpt><trkpt lat="43.33773296111419" lon="11.479232475182384"><ele>274.4</ele><time>2026-04-25T12:39:58Z</time></trkpt><trkpt lat="43.33780069318921" lon="11.47918180157175"><ele>274.0</ele><time>2026-04-25T12:39:59Z</time></trkpt><trkpt lat="43.33786578455913" lon="11.47910084922948"><ele>274.0</ele><time>2026-04-25T12:40:00Z</time></trkpt><trkpt lat="43.33791389410621" lon="11.478989629141319"><ele>274.0</ele><time>2026-04-25T12:40:01Z</time></trkpt><trkpt lat="43.33793543359691" lon="11.478855709886732"><ele>274.0</ele><time>2026-04-25T12:40:02Z</time></trkpt><trkpt lat="43.33792595211275" lon="11.478723095922474"><ele>274.0</ele><time>2026-04-25T12:40:03Z</time></trkpt><trkpt lat="43.33789361246608" lon="11.47860224508584"><ele>274.0</ele><time>2026-04-25T12:40:04Z</time></trkpt><trkpt lat="43.33787832169574" lon="11.478473881425417"><ele>273.25</ele><time>2026-04-25T12:40:05Z</time></trkpt><trkpt lat="43.33784072355784" lon="11.47830402116852"><ele>272.5</ele><time>2026-04-25T12:40:06Z</time></trkpt><trkpt lat="43.33778576244875" lon="11.47813353355206"><ele>271.75</ele><time>2026-04-25T12:40:07Z</time></trkpt><trkpt lat="43.337751932468315" lon="11.477938171363519"><ele>271.0</ele><time>2026-04-25T12:40:08Z</time></trkpt><trkpt lat="43.33771356488402" lon="11.477742945766176"><ele>269.3333333333333</ele><time>2026-04-25T12:40:09Z</time></trkpt><trkpt lat="43.33766900428983" lon="11.477546917003425"><ele>267.6666666666667</ele><time>2026-04-25T12:40:10Z</time></trkpt><trkpt lat="43.33762318380309" lon="11.477342388638258"><ele>266.0</ele><time>2026-04-25T12:40:11Z</time></trkpt><trkpt lat="43.33760021652605" lon="11.477142600796016"><ele>265.25</ele><time>2026-04-25T12:40:12Z</time></trkpt><trkpt lat="43.33756552923867" lon="11.47696822573965"><ele>264.5</ele><time>2026-04-25T12:40:13Z</time></trkpt><trkpt lat="43.337535087926405" lon="11.476782540292971"><ele>263.75</ele><time>2026-04-25T12:40:14Z</time></trkpt><trkpt lat="43.33752504138704" lon="11.476595224618276"><ele>263.0</ele><time>2026-04-25T12:40:15Z</time></trkpt><trkpt lat="43.33753665788253" lon="11.476400376005943"><ele>262.33333333333337</ele><time>2026-04-25T12:40:16Z</time></trkpt><trkpt lat="43.337568756065636" lon="11.476187562250677"><ele>261.6666666666667</ele><time>2026-04-25T12:40:17Z</time></trkpt><trkpt lat="43.337631625341984" lon="11.475984675202758"><ele>261.0</ele><time>2026-04-25T12:40:18Z</time></trkpt><trkpt lat="43.33769152572022" lon="11.475744360190129"><ele>261.0</ele><time>2026-04-25T12:40:19Z</time></trkpt><trkpt lat="43.3377104010785" lon="11.475495735648886"><ele>261.0</ele><time>2026-04-25T12:40:20Z</time></trkpt><trkpt lat="43.33774176981984" lon="11.47526677416444"><ele>261.0</ele><time>2026-04-25T12:40:21Z</time></trkpt><trkpt lat="43.33777784734118" lon="11.475029089289585"><ele>259.0</ele><time>2026-04-25T12:40:22Z</time></trkpt><trkpt lat="43.33782336538622" lon="11.474810428104298"><ele>257.0</ele><time>2026-04-25T12:40:23Z</time></trkpt><trkpt lat="43.33788728896106" lon="11.474621649122989"><ele>255.0</ele><time>2026-04-25T12:40:24Z</time></trkpt><trkpt lat="43.33793531641445" lon="11.474451955554695"><ele>253.0</ele><time>2026-04-25T12:40:25Z</time></trkpt><trkpt lat="43.3379891744723" lon="11.474294349206316"><ele>252.25</ele><time>2026-04-25T12:40:26Z</time></trkpt><trkpt lat="43.33806057134972" lon="11.474169528547108"><ele>251.5</ele><time>2026-04-25T12:40:27Z</time></trkpt><trkpt lat="43.338156739306875" lon="11.474084976269591"><ele>250.75</ele><time>2026-04-25T12:40:28Z</time></trkpt><trkpt lat="43.33828447058391" lon="11.473992783164205"><ele>250.0</ele><time>2026-04-25T12:40:29Z</time></trkpt><trkpt lat="43.338413221602124" lon="11.47392860777701"><ele>250.0</ele><time>2026-04-25T12:40:30Z</time></trkpt><trkpt lat="43.33853547045133" lon="11.473909497701815"><ele>250.0</ele><time>2026-04-25T12:40:31Z</time></trkpt><trkpt lat="43.33866968840094" lon="11.473899170245975"><ele>250.0</ele><time>2026-04-25T12:40:32Z</time></trkpt><trkpt lat="43.33880205161793" lon="11.473886970389803"><ele>250.0</ele><time>2026-04-25T12:40:33Z</time></trkpt><trkpt lat="43.338940769601216" lon="11.473845990824797"><ele>246.75</ele><time>2026-04-25T12:40:34Z</time></trkpt><trkpt lat="43.33906713345729" lon="11.473769590328127"><ele>243.5</ele><time>2026-04-25T12:40:35Z</time></trkpt><trkpt lat="43.33917283584104" lon="11.473651933713839"><ele>240.25</ele><time>2026-04-25T12:40:36Z</time></trkpt><trkpt lat="43.33927564815871" lon="11.47349056954298"><ele>237.0</ele><time>2026-04-25T12:40:37Z</time></trkpt><trkpt lat="43.339386577674745" lon="11.473288188392504"><ele>237.0</ele><time>2026-04-25T12:40:38Z</time></trkpt><trkpt lat="43.339481622050315" lon="11.473111116350308"><ele>237.0</ele><time>2026-04-25T12:40:39Z</time></trkpt><trkpt lat="43.339586885583856" lon="11.472913811881874"><ele>237.0</ele><time>2026-04-25T12:40:40Z</time></trkpt><trkpt lat="43.339697455942876" lon="11.472706560008335"><ele>233.66666666666669</ele><time>2026-04-25T12:40:41Z</time></trkpt><trkpt lat="43.339803663029386" lon="11.472509252359673"><ele>230.33333333333334</ele><time>2026-04-25T12:40:42Z</time></trkpt><trkpt lat="43.33991391745948" lon="11.472309505063029"><ele>227.0</ele><time>2026-04-25T12:40:43Z</time></trkpt><trkpt lat="43.34000944232108" lon="11.472107399233776"><ele>228.0</ele><time>2026-04-25T12:40:44Z</time></trkpt><trkpt lat="43.34007655851263" lon="11.471897256467548"><ele>229.0</ele><time>2026-04-25T12:40:45Z</time></trkpt><trkpt lat="43.34009289438114" lon="11.471678818524984"><ele>230.0</ele><time>2026-04-25T12:40:46Z</time></trkpt><trkpt lat="43.340102776840425" lon="11.471467546649246"><ele>231.0</ele><time>2026-04-25T12:40:47Z</time></trkpt><trkpt lat="43.340079293829234" lon="11.471265893764212"><ele>232.0</ele><time>2026-04-25T12:40:48Z</time></trkpt><trkpt lat="43.34001155835453" lon="11.471058494325536"><ele>233.0</ele><time>2026-04-25T12:40:49Z</time></trkpt><trkpt lat="43.339948808302545" lon="11.470872772384325"><ele>233.0</ele><time>2026-04-25T12:40:50Z</time></trkpt><trkpt lat="43.33988902276491" lon="11.47069060717391"><ele>233.0</ele><time>2026-04-25T12:40:51Z</time></trkpt><trkpt lat="43.33984655685515" lon="11.470519867104466"><ele>233.0</ele><time>2026-04-25T12:40:52Z</time></trkpt><trkpt lat="43.33984418174492" lon="11.47034442244333"><ele>233.0</ele><time>2026-04-25T12:40:53Z</time></trkpt><trkpt lat="43.33985593917218" lon="11.470161250732545"><ele>232.75</ele><time>2026-04-25T12:40:54Z</time></trkpt><trkpt lat="43.339886387213" lon="11.46997219221142"><ele>232.5</ele><time>2026-04-25T12:40:55Z</time></trkpt><trkpt lat="43.339941511993246" lon="11.4697935743529"><ele>232.25</ele><time>2026-04-25T12:40:56Z</time></trkpt><trkpt lat="43.34001246762962" lon="11.469623789167386"><ele>232.0</ele><time>2026-04-25T12:40:57Z</time></trkpt><trkpt lat="43.3400710358461" lon="11.469468765227903"><ele>232.0</ele><time>2026-04-25T12:40:58Z</time></trkpt><trkpt lat="43.34015890348028" lon="11.469342727415473"><ele>232.0</ele><time>2026-04-25T12:40:59Z</time></trkpt><trkpt lat="43.34020776110757" lon="11.469192311755702"><ele>232.0</ele><time>2026-04-25T12:41:00Z</time></trkpt><trkpt lat="43.34037718296758" lon="11.469166238836266"><ele>232.0</ele><time>2026-04-25T12:41:01Z</time></trkpt><trkpt lat="43.34049718576487" lon="11.469151720468084"><ele>233.5</ele><time>2026-04-25T12:41:02Z</time></trkpt><trkpt lat="43.34061707317399" lon="11.469155204149589"><ele>235.0</ele><time>2026-04-25T12:41:03Z</time></trkpt><trkpt lat="43.340732643625536" lon="11.469209526614305"><ele>236.5</ele><time>2026-04-25T12:41:04Z</time></trkpt><trkpt lat="43.340843428752024" lon="11.469272971277206"><ele>238.0</ele><time>2026-04-25T12:41:05Z</time></trkpt><trkpt lat="43.34094964973579" lon="11.469320566232183"><ele>238.0</ele><time>2026-04-25T12:41:06Z</time></trkpt><trkpt lat="43.341057185342734" lon="11.469358561727113"><ele>238.0</ele><time>2026-04-25T12:41:07Z</time></trkpt><trkpt lat="43.341176567633276" lon="11.469379278734642"><ele>238.0</ele><time>2026-04-25T12:41:08Z</time></trkpt><trkpt lat="43.34130477446888" lon="11.469366585292038"><ele>238.0</ele><time>2026-04-25T12:41:09Z</time></trkpt><trkpt lat="43.3414311523385" lon="11.469323374182334"><ele>239.0</ele><time>2026-04-25T12:41:10Z</time></trkpt><trkpt lat="43.34154553850089" lon="11.469262001261882"><ele>240.0</ele><time>2026-04-25T12:41:11Z</time></trkpt><trkpt lat="43.341655322332514" lon="11.469181277327932"><ele>241.0</ele><time>2026-04-25T12:41:12Z</time></trkpt><trkpt lat="43.34174022625609" lon="11.469057118970387"><ele>242.0</ele><time>2026-04-25T12:41:13Z</time></trkpt><trkpt lat="43.34180383568703" lon="11.468906657234863"><ele>241.75</ele><time>2026-04-25T12:41:14Z</time></trkpt><trkpt lat="43.34184353713651" lon="11.468735820603275"><ele>241.5</ele><time>2026-04-25T12:41:15Z</time></trkpt><trkpt lat="43.34185055204522" lon="11.468541857708132"><ele>241.25</ele><time>2026-04-25T12:41:16Z</time></trkpt><trkpt lat="43.3418426145499" lon="11.468337058069704"><ele>241.0</ele><time>2026-04-25T12:41:17Z</time></trkpt><trkpt lat="43.34183021074324" lon="11.468113793818054"><ele>243.0</ele><time>2026-04-25T12:41:18Z</time></trkpt><trkpt lat="43.34181187044201" lon="11.467866915794238"><ele>245.0</ele><time>2026-04-25T12:41:19Z</time></trkpt><trkpt lat="43.34180355946415" lon="11.467632799722915"><ele>247.0</ele><time>2026-04-25T12:41:20Z</time></trkpt><trkpt lat="43.341796602783916" lon="11.467397629200475"><ele>247.0</ele><time>2026-04-25T12:41:21Z</time></trkpt><trkpt lat="43.34178521631236" lon="11.46716631933668"><ele>247.0</ele><time>2026-04-25T12:41:22Z</time></trkpt><trkpt lat="43.341780438866905" lon="11.466946959676491"><ele>247.0</ele><time>2026-04-25T12:41:23Z</time></trkpt><trkpt lat="43.34177200789172" lon="11.46673264137661"><ele>249.0</ele><time>2026-04-25T12:41:24Z</time></trkpt><trkpt lat="43.341752052897746" lon="11.466518333412765"><ele>251.0</ele><time>2026-04-25T12:41:25Z</time></trkpt><trkpt lat="43.34172296452674" lon="11.466316533693421"><ele>253.0</ele><time>2026-04-25T12:41:26Z</time></trkpt><trkpt lat="43.341658276129365" lon="11.466111610470863"><ele>253.5</ele><time>2026-04-25T12:41:27Z</time></trkpt><trkpt lat="43.34158330561546" lon="11.465924280713752"><ele>254.0</ele><time>2026-04-25T12:41:28Z</time></trkpt><trkpt lat="43.34151041263924" lon="11.465743873220475"><ele>254.5</ele><time>2026-04-25T12:41:29Z</time></trkpt><trkpt lat="43.34145965582686" lon="11.465589323526187"><ele>255.0</ele><time>2026-04-25T12:41:30Z</time></trkpt><trkpt lat="43.3414367820089" lon="11.465441492973719"><ele>255.5</ele><time>2026-04-25T12:41:31Z</time></trkpt><trkpt lat="43.341446008515824" lon="11.465280098219955"><ele>256.0</ele><time>2026-04-25T12:41:32Z</time></trkpt><trkpt lat="43.341485691307646" lon="11.465122200043538"><ele>256.5</ele><time>2026-04-25T12:41:33Z</time></trkpt><trkpt lat="43.34157153647349" lon="11.464993201128488"><ele>257.0</ele><time>2026-04-25T12:41:34Z</time></trkpt><trkpt lat="43.34168540770036" lon="11.46491429740891"><ele>257.0</ele><time>2026-04-25T12:41:35Z</time></trkpt><trkpt lat="43.341805411635896" lon="11.464873395091477"><ele>257.0</ele><time>2026-04-25T12:41:36Z</time></trkpt><trkpt lat="43.341921412976966" lon="11.464929276685485"><ele>257.0</ele><time>2026-04-25T12:41:37Z</time></trkpt><trkpt lat="43.34203748690061" lon="11.465026843501752"><ele>257.0</ele><time>2026-04-25T12:41:38Z</time></trkpt><trkpt lat="43.34213494669403" lon="11.465166018948333"><ele>257.75</ele><time>2026-04-25T12:41:39Z</time></trkpt><trkpt lat="43.34223939912514" lon="11.465293817264188"><ele>258.5</ele><time>2026-04-25T12:41:40Z</time></trkpt><trkpt lat="43.34233553840586" lon="11.465416775150336"><ele>259.25</ele><time>2026-04-25T12:41:41Z</time></trkpt><trkpt lat="43.34242195158371" lon="11.465514250839874"><ele>260.0</ele><time>2026-04-25T12:41:42Z</time></trkpt><trkpt lat="43.34252166239576" lon="11.465621843330624"><ele>260.0</ele><time>2026-04-25T12:41:43Z</time></trkpt><trkpt lat="43.342628965354876" lon="11.465677850132302"><ele>260.0</ele><time>2026-04-25T12:41:44Z</time></trkpt><trkpt lat="43.34274633530008" lon="11.465688191491648"><ele>260.0</ele><time>2026-04-25T12:41:45Z</time></trkpt><trkpt lat="43.34286745868779" lon="11.465649191874897"><ele>260.0</ele><time>2026-04-25T12:41:46Z</time></trkpt><trkpt lat="43.342983236513234" lon="11.465575194676706"><ele>260.5</ele><time>2026-04-25T12:41:47Z</time></trkpt><trkpt lat="43.34309702720253" lon="11.46549491953731"><ele>261.0</ele><time>2026-04-25T12:41:48Z</time></trkpt><trkpt lat="43.34322255732651" lon="11.465420853052828"><ele>261.5</ele><time>2026-04-25T12:41:49Z</time></trkpt><trkpt lat="43.34335535934399" lon="11.465365468111072"><ele>262.0</ele><time>2026-04-25T12:41:50Z</time></trkpt><trkpt lat="43.34350257030537" lon="11.46534941479259"><ele>262.66666666666663</ele><time>2026-04-25T12:41:51Z</time></trkpt><trkpt lat="43.34366316641838" lon="11.465381445505665"><ele>263.3333333333333</ele><time>2026-04-25T12:41:52Z</time></trkpt><trkpt lat="43.343834441181635" lon="11.465423585732335"><ele>264.0</ele><time>2026-04-25T12:41:53Z</time></trkpt><trkpt lat="43.343987032938365" lon="11.465461252754748"><ele>264.0</ele><time>2026-04-25T12:41:54Z</time></trkpt><trkpt lat="43.344137641924455" lon="11.465496793791635"><ele>264.0</ele><time>2026-04-25T12:41:55Z</time></trkpt><trkpt lat="43.3442890205714" lon="11.465530712002966"><ele>264.0</ele><time>2026-04-25T12:41:56Z</time></trkpt><trkpt lat="43.34444037880094" lon="11.46556299102369"><ele>264.0</ele><time>2026-04-25T12:41:57Z</time></trkpt><trkpt lat="43.34458957151962" lon="11.465592151037173"><ele>264.0</ele><time>2026-04-25T12:41:58Z</time></trkpt><trkpt lat="43.344736098222796" lon="11.4656304350103"><ele>264.0</ele><time>2026-04-25T12:41:59Z</time></trkpt><trkpt lat="43.34488646216382" lon="11.465681546164415"><ele>266.0</ele><time>2026-04-25T12:42:00Z</time></trkpt><trkpt lat="43.34502902360747" lon="11.46576881501058"><ele>268.0</ele><time>2026-04-25T12:42:01Z</time></trkpt><trkpt lat="43.34516051818236" lon="11.465863682568072"><ele>270.0</ele><time>2026-04-25T12:42:02Z</time></trkpt><trkpt lat="43.34528530497699" lon="11.465948921386545"><ele>272.0</ele><time>2026-04-25T12:42:03Z</time></trkpt><trkpt lat="43.345400200718466" lon="11.46600490308875"><ele>272.0</ele><time>2026-04-25T12:42:04Z</time></trkpt><trkpt lat="43.34551463413557" lon="11.466021970292259"><ele>272.0</ele><time>2026-04-25T12:42:05Z</time></trkpt><trkpt lat="43.3456322464739" lon="11.466001815394238"><ele>272.0</ele><time>2026-04-25T12:42:06Z</time></trkpt><trkpt lat="43.34575296694237" lon="11.465962262612402"><ele>272.0</ele><time>2026-04-25T12:42:07Z</time></trkpt><trkpt lat="43.34587143393924" lon="11.465932979148375"><ele>273.0</ele><time>2026-04-25T12:42:08Z</time></trkpt><trkpt lat="43.34600330566536" lon="11.46590373083892"><ele>274.0</ele><time>2026-04-25T12:42:09Z</time></trkpt><trkpt lat="43.34613959186168" lon="11.465884261335763"><ele>275.0</ele><time>2026-04-25T12:42:10Z</time></trkpt><trkpt lat="43.34628002388569" lon="11.465891433374875"><ele>276.0</ele><time>2026-04-25T12:42:11Z</time></trkpt><trkpt lat="43.34641857937319" lon="11.46589872443487"><ele>276.0</ele><time>2026-04-25T12:42:12Z</time></trkpt><trkpt lat="43.346558686280396" lon="11.465888650074394"><ele>276.0</ele><time>2026-04-25T12:42:13Z</time></trkpt><trkpt lat="43.3466943030048" lon="11.465849993894578"><ele>276.0</ele><time>2026-04-25T12:42:14Z</time></trkpt><trkpt lat="43.34681681952348" lon="11.46577750275289"><ele>276.0</ele><time>2026-04-25T12:42:15Z</time></trkpt><trkpt lat="43.34691582981793" lon="11.465661000295126"><ele>276.0</ele><time>2026-04-25T12:42:16Z</time></trkpt><trkpt lat="43.3470036546264" lon="11.465525678961027"><ele>276.0</ele><time>2026-04-25T12:42:17Z</time></trkpt><trkpt lat="43.34709443711919" lon="11.465386967843894"><ele>276.0</ele><time>2026-04-25T12:42:18Z</time></trkpt><trkpt lat="43.34719310250776" lon="11.465245398761454"><ele>276.0</ele><time>2026-04-25T12:42:19Z</time></trkpt><trkpt lat="43.347294533970164" lon="11.465100867985965"><ele>276.25</ele><time>2026-04-25T12:42:20Z</time></trkpt><trkpt lat="43.34739633747194" lon="11.464951717157183"><ele>276.5</ele><time>2026-04-25T12:42:21Z</time></trkpt><trkpt lat="43.34750338056485" lon="11.46480329924975"><ele>276.75</ele><time>2026-04-25T12:42:22Z</time></trkpt><trkpt lat="43.34760587348988" lon="11.464669760246007"><ele>277.0</ele><time>2026-04-25T12:42:23Z</time></trkpt><trkpt lat="43.34771591808835" lon="11.464570429771978"><ele>277.0</ele><time>2026-04-25T12:42:24Z</time></trkpt><trkpt lat="43.34783929551988" lon="11.464516961636482"><ele>277.0</ele><time>2026-04-25T12:42:25Z</time></trkpt><trkpt lat="43.34796815456528" lon="11.464492832021579"><ele>277.0</ele><time>2026-04-25T12:42:26Z</time></trkpt><trkpt lat="43.34810197313024" lon="11.464481608699426"><ele>277.0</ele><time>2026-04-25T12:42:27Z</time></trkpt><trkpt lat="43.34823682040713" lon="11.464467677750223"><ele>279.25</ele><time>2026-04-25T12:42:28Z</time></trkpt><trkpt lat="43.34836747030068" lon="11.464462178415747"><ele>281.5</ele><time>2026-04-25T12:42:29Z</time></trkpt><trkpt lat="43.348493065780794" lon="11.464465021631273"><ele>283.75</ele><time>2026-04-25T12:42:30Z</time></trkpt><trkpt lat="43.34861829674144" lon="11.464468142222676"><ele>286.0</ele><time>2026-04-25T12:42:31Z</time></trkpt><trkpt lat="43.348744191543425" lon="11.464471118096471"><ele>286.0</ele><time>2026-04-25T12:42:32Z</time></trkpt><trkpt lat="43.348840736575454" lon="11.46450079200497"><ele>286.0</ele><time>2026-04-25T12:42:33Z</time></trkpt><trkpt lat="43.34894641485905" lon="11.464563399692771"><ele>286.0</ele><time>2026-04-25T12:42:34Z</time></trkpt><trkpt lat="43.34904650747538" lon="11.46463582367828"><ele>286.0</ele><time>2026-04-25T12:42:35Z</time></trkpt><trkpt lat="43.34914079081961" lon="11.464745509523457"><ele>290.5</ele><time>2026-04-25T12:42:36Z</time></trkpt><trkpt lat="43.349227906409105" lon="11.464804922648323"><ele>295.0</ele><time>2026-04-25T12:42:37Z</time></trkpt><trkpt lat="43.34934039174142" lon="11.464892573354021"><ele>299.5</ele><time>2026-04-25T12:42:38Z</time></trkpt><trkpt lat="43.34944950376435" lon="11.464979724701314"><ele>304.0</ele><time>2026-04-25T12:42:39Z</time></trkpt><trkpt lat="43.34955852570723" lon="11.465023469934843"><ele>304.0</ele><time>2026-04-25T12:42:40Z</time></trkpt><trkpt lat="43.34969034520314" lon="11.465053232919717"><ele>304.0</ele><time>2026-04-25T12:42:41Z</time></trkpt><trkpt lat="43.349811483524405" lon="11.46501893394202"><ele>304.0</ele><time>2026-04-25T12:42:42Z</time></trkpt><trkpt lat="43.34992030963639" lon="11.464931196154195"><ele>304.0</ele><time>2026-04-25T12:42:43Z</time></trkpt><trkpt lat="43.34999826693961" lon="11.464819881261688"><ele>303.5</ele><time>2026-04-25T12:42:44Z</time></trkpt><trkpt lat="43.35005083786321" lon="11.464656244276858"><ele>303.0</ele><time>2026-04-25T12:42:45Z</time></trkpt><trkpt lat="43.35008275608914" lon="11.464476282753017"><ele>302.5</ele><time>2026-04-25T12:42:46Z</time></trkpt><trkpt lat="43.35010738828838" lon="11.464315886830311"><ele>302.0</ele><time>2026-04-25T12:42:47Z</time></trkpt><trkpt lat="43.35015006889579" lon="11.464172908620194"><ele>302.0</ele><time>2026-04-25T12:42:48Z</time></trkpt><trkpt lat="43.3502282471212" lon="11.464054237579887"><ele>302.0</ele><time>2026-04-25T12:42:49Z</time></trkpt><trkpt lat="43.35032755257244" lon="11.463961267922611"><ele>302.0</ele><time>2026-04-25T12:42:50Z</time></trkpt><trkpt lat="43.35043761807884" lon="11.46387673865793"><ele>302.0</ele><time>2026-04-25T12:42:51Z</time></trkpt><trkpt lat="43.350524233997305" lon="11.463756160232284"><ele>301.25</ele><time>2026-04-25T12:42:52Z</time></trkpt><trkpt lat="43.350539138102015" lon="11.463583525672457"><ele>300.5</ele><time>2026-04-25T12:42:53Z</time></trkpt><trkpt lat="43.35054221954711" lon="11.46342527050815"><ele>299.75</ele><time>2026-04-25T12:42:54Z</time></trkpt><trkpt lat="43.35048074235791" lon="11.463270798483162"><ele>299.0</ele><time>2026-04-25T12:42:55Z</time></trkpt><trkpt lat="43.35042111788793" lon="11.46313103074228"><ele>299.0</ele><time>2026-04-25T12:42:56Z</time></trkpt><trkpt lat="43.350323973166105" lon="11.463012460834147"><ele>299.0</ele><time>2026-04-25T12:42:57Z</time></trkpt><trkpt lat="43.35022791255233" lon="11.46291606405347"><ele>299.0</ele><time>2026-04-25T12:42:58Z</time></trkpt><trkpt lat="43.35014685817498" lon="11.462832606752524"><ele>299.0</ele><time>2026-04-25T12:42:59Z</time></trkpt><trkpt lat="43.3501108409875" lon="11.46272159777326"><ele>299.0</ele><time>2026-04-25T12:43:00Z</time></trkpt><trkpt lat="43.3500998161615" lon="11.46262831577677"><ele>300.59999999999997</ele><time>2026-04-25T12:43:01Z</time></trkpt><trkpt lat="43.35013401326955" lon="11.462553204675897"><ele>302.2</ele><time>2026-04-25T12:43:02Z</time></trkpt><trkpt lat="43.350247519073946" lon="11.46245064089177"><ele>303.79999999999995</ele><time>2026-04-25T12:43:04Z</time></trkpt><trkpt lat="43.350336448581395" lon="11.462405626021013"><ele>305.4</ele><time>2026-04-25T12:43:05Z</time></trkpt><trkpt lat="43.350431882605385" lon="11.462362044952641"><ele>307.0</ele><time>2026-04-25T12:43:06Z</time></trkpt><trkpt lat="43.350540881893316" lon="11.462317660843837"><ele>307.0</ele><time>2026-04-25T12:43:07Z</time></trkpt><trkpt lat="43.350657025046225" lon="11.46226913933499"><ele>307.0</ele><time>2026-04-25T12:43:08Z</time></trkpt><trkpt lat="43.35077054257045" lon="11.462192990136872"><ele>307.0</ele><time>2026-04-25T12:43:09Z</time></trkpt><trkpt lat="43.350886915745455" lon="11.462141973440039"><ele>307.0</ele><time>2026-04-25T12:43:10Z</time></trkpt><trkpt lat="43.35100316782951" lon="11.462056020030918"><ele>307.0</ele><time>2026-04-25T12:43:11Z</time></trkpt><trkpt lat="43.35111094126632" lon="11.461970830213218"><ele>307.0</ele><time>2026-04-25T12:43:12Z</time></trkpt><trkpt lat="43.35121965509586" lon="11.4618842345189"><ele>307.0</ele><time>2026-04-25T12:43:13Z</time></trkpt><trkpt lat="43.35130081115889" lon="11.461798667258979"><ele>307.0</ele><time>2026-04-25T12:43:14Z</time></trkpt><trkpt lat="43.35139503468405" lon="11.46175649184298"><ele>308.2</ele><time>2026-04-25T12:43:15Z</time></trkpt><trkpt lat="43.35148636166347" lon="11.46178874563048"><ele>309.4</ele><time>2026-04-25T12:43:16Z</time></trkpt><trkpt lat="43.35159070296719" lon="11.46182472428723"><ele>310.6</ele><time>2026-04-25T12:43:17Z</time></trkpt><trkpt lat="43.351702795030334" lon="11.461888237214275"><ele>311.8</ele><time>2026-04-25T12:43:18Z</time></trkpt><trkpt lat="43.35181211216199" lon="11.461919711681842"><ele>313.0</ele><time>2026-04-25T12:43:19Z</time></trkpt><trkpt lat="43.35193647714947" lon="11.461913315758705"><ele>313.0</ele><time>2026-04-25T12:43:20Z</time></trkpt><trkpt lat="43.35205776868212" lon="11.46187052941802"><ele>313.0</ele><time>2026-04-25T12:43:21Z</time></trkpt><trkpt lat="43.3521684645275" lon="11.461775338558507"><ele>313.0</ele><time>2026-04-25T12:43:22Z</time></trkpt><trkpt lat="43.35227266825112" lon="11.461692934182139"><ele>313.0</ele><time>2026-04-25T12:43:23Z</time></trkpt><trkpt lat="43.35238864939833" lon="11.461628571002262"><ele>313.8</ele><time>2026-04-25T12:43:24Z</time></trkpt><trkpt lat="43.352510382758055" lon="11.461601137870469"><ele>314.6</ele><time>2026-04-25T12:43:25Z</time></trkpt><trkpt lat="43.35261083729728" lon="11.461583127075446"><ele>315.4</ele><time>2026-04-25T12:43:26Z</time></trkpt><trkpt lat="43.352710444009944" lon="11.461558804018573"><ele>316.2</ele><time>2026-04-25T12:43:27Z</time></trkpt><trkpt lat="43.352811548025095" lon="11.461494271552526"><ele>317.0</ele><time>2026-04-25T12:43:28Z</time></trkpt><trkpt lat="43.352878055200314" lon="11.461358421134378"><ele>313.25</ele><time>2026-04-25T12:43:29Z</time></trkpt><trkpt lat="43.352889930766615" lon="11.461175359641661"><ele>309.5</ele><time>2026-04-25T12:43:30Z</time></trkpt><trkpt lat="43.35290087575238" lon="11.460986191971491"><ele>305.75</ele><time>2026-04-25T12:43:31Z</time></trkpt><trkpt lat="43.35293082482884" lon="11.460836936394367"><ele>302.0</ele><time>2026-04-25T12:43:32Z</time></trkpt><trkpt lat="43.353010549651806" lon="11.460713279694277"><ele>304.75</ele><time>2026-04-25T12:43:33Z</time></trkpt><trkpt lat="43.35311591910747" lon="11.460638627743204"><ele>307.5</ele><time>2026-04-25T12:43:34Z</time></trkpt><trkpt lat="43.35324388350266" lon="11.460632054386519"><ele>310.25</ele><time>2026-04-25T12:43:35Z</time></trkpt><trkpt lat="43.353371315192206" lon="11.460639847669531"><ele>313.0</ele><time>2026-04-25T12:43:36Z</time></trkpt><trkpt lat="43.353497069467785" lon="11.460643235307801"><ele>313.0</ele><time>2026-04-25T12:43:37Z</time></trkpt><trkpt lat="43.35362694858465" lon="11.460609614368273"><ele>313.0</ele><time>2026-04-25T12:43:38Z</time></trkpt><trkpt lat="43.353726235979416" lon="11.460535090389577"><ele>313.0</ele><time>2026-04-25T12:43:39Z</time></trkpt><trkpt lat="43.35379006700757" lon="11.460387501932814"><ele>313.0</ele><time>2026-04-25T12:43:40Z</time></trkpt><trkpt lat="43.35379327163339" lon="11.460227899677383"><ele>309.5</ele><time>2026-04-25T12:43:41Z</time></trkpt><trkpt lat="43.35376115026214" lon="11.460105343080025"><ele>306.0</ele><time>2026-04-25T12:43:42Z</time></trkpt><trkpt lat="43.35368711679066" lon="11.45999202975429"><ele>302.5</ele><time>2026-04-25T12:43:43Z</time></trkpt><trkpt lat="43.35356679021909" lon="11.459883218739247"><ele>299.0</ele><time>2026-04-25T12:43:44Z</time></trkpt><trkpt lat="43.35347103916263" lon="11.459742548987677"><ele>299.0</ele><time>2026-04-25T12:43:45Z</time></trkpt><trkpt lat="43.35336310033415" lon="11.459591947809026"><ele>299.0</ele><time>2026-04-25T12:43:46Z</time></trkpt><trkpt lat="43.353259259240886" lon="11.459447064030963"><ele>299.0</ele><time>2026-04-25T12:43:47Z</time></trkpt><trkpt lat="43.35317497509562" lon="11.459325660854635"><ele>299.0</ele><time>2026-04-25T12:43:48Z</time></trkpt><trkpt lat="43.353081257852814" lon="11.459172927673656"><ele>295.25</ele><time>2026-04-25T12:43:49Z</time></trkpt><trkpt lat="43.353000688420266" lon="11.459019161499741"><ele>291.5</ele><time>2026-04-25T12:43:50Z</time></trkpt><trkpt lat="43.35292583948539" lon="11.458839611673335"><ele>287.75</ele><time>2026-04-25T12:43:51Z</time></trkpt><trkpt lat="43.35285474273011" lon="11.458662815922775"><ele>284.0</ele><time>2026-04-25T12:43:52Z</time></trkpt><trkpt lat="43.35278319305526" lon="11.458483210555125"><ele>284.0</ele><time>2026-04-25T12:43:53Z</time></trkpt><trkpt lat="43.35270834512017" lon="11.458295325865956"><ele>284.0</ele><time>2026-04-25T12:43:54Z</time></trkpt><trkpt lat="43.35262585254686" lon="11.458088251464005"><ele>284.0</ele><time>2026-04-25T12:43:55Z</time></trkpt><trkpt lat="43.352544616800486" lon="11.457878702230513"><ele>283.6666666666667</ele><time>2026-04-25T12:43:56Z</time></trkpt><trkpt lat="43.35245635498303" lon="11.457688685564843"><ele>283.3333333333333</ele><time>2026-04-25T12:43:57Z</time></trkpt><trkpt lat="43.3524117435179" lon="11.457496212424322"><ele>283.0</ele><time>2026-04-25T12:43:58Z</time></trkpt><trkpt lat="43.352354518576455" lon="11.457301086747005"><ele>281.25</ele><time>2026-04-25T12:43:59Z</time></trkpt><trkpt lat="43.35230352477382" lon="11.457109264593017"><ele>279.5</ele><time>2026-04-25T12:44:00Z</time></trkpt><trkpt lat="43.35226322503834" lon="11.456952258703287"><ele>277.75</ele><time>2026-04-25T12:44:01Z</time></trkpt><trkpt lat="43.35222885814747" lon="11.45680426822726"><ele>276.0</ele><time>2026-04-25T12:44:02Z</time></trkpt><trkpt lat="43.352195531974225" lon="11.456664573231048"><ele>276.0</ele><time>2026-04-25T12:44:03Z</time></trkpt><trkpt lat="43.352216450197496" lon="11.456524335314755"><ele>276.0</ele><time>2026-04-25T12:44:04Z</time></trkpt><trkpt lat="43.352266575594946" lon="11.456364701578787"><ele>276.0</ele><time>2026-04-25T12:44:05Z</time></trkpt><trkpt lat="43.35233028089619" lon="11.45622617671709"><ele>276.0</ele><time>2026-04-25T12:44:06Z</time></trkpt><trkpt lat="43.352399288165344" lon="11.456133136731742"><ele>276.0</ele><time>2026-04-25T12:44:07Z</time></trkpt><trkpt lat="43.35248837628428" lon="11.456084978913651"><ele>274.40000000000003</ele><time>2026-04-25T12:44:08Z</time></trkpt><trkpt lat="43.35259116883899" lon="11.456130867690675"><ele>272.8</ele><time>2026-04-25T12:44:09Z</time></trkpt><trkpt lat="43.35271210479742" lon="11.456148686088524"><ele>271.20000000000005</ele><time>2026-04-25T12:44:10Z</time></trkpt><trkpt lat="43.35281699257728" lon="11.456150204444898"><ele>269.6</ele><time>2026-04-25T12:44:11Z</time></trkpt><trkpt lat="43.352930744232964" lon="11.456145557865506"><ele>268.0</ele><time>2026-04-25T12:44:12Z</time></trkpt><trkpt lat="43.35303990086158" lon="11.456062470645016"><ele>268.0</ele><time>2026-04-25T12:44:13Z</time></trkpt><trkpt lat="43.353127997563966" lon="11.455922602844934"><ele>268.0</ele><time>2026-04-25T12:44:14Z</time></trkpt><trkpt lat="43.35319632472561" lon="11.45571708578748"><ele>268.0</ele><time>2026-04-25T12:44:15Z</time></trkpt><trkpt lat="43.35326492295077" lon="11.455512469605942"><ele>266.6</ele><time>2026-04-25T12:44:16Z</time></trkpt><trkpt lat="43.3533210921237" lon="11.45534170556082"><ele>265.20000000000005</ele><time>2026-04-25T12:44:17Z</time></trkpt><trkpt lat="43.353378220867995" lon="11.45521366654269"><ele>263.8</ele><time>2026-04-25T12:44:18Z</time></trkpt><trkpt lat="43.35343700278586" lon="11.455121514076112"><ele>262.40000000000003</ele><time>2026-04-25T12:44:19Z</time></trkpt><trkpt lat="43.353507432188295" lon="11.455087544193743"><ele>261.0</ele><time>2026-04-25T12:44:20Z</time></trkpt><trkpt lat="43.353590347654865" lon="11.455094716738346"><ele>261.0</ele><time>2026-04-25T12:44:21Z</time></trkpt><trkpt lat="43.35368820039231" lon="11.455155447054663"><ele>261.0</ele><time>2026-04-25T12:44:22Z</time></trkpt><trkpt lat="43.35375995595237" lon="11.455285515273877"><ele>261.0</ele><time>2026-04-25T12:44:23Z</time></trkpt><trkpt lat="43.35381813161239" lon="11.45540937850082"><ele>261.0</ele><time>2026-04-25T12:44:24Z</time></trkpt><trkpt lat="43.353884647059246" lon="11.455515763011725"><ele>261.0</ele><time>2026-04-25T12:44:25Z</time></trkpt><trkpt lat="43.35396225103413" lon="11.455583967723097"><ele>261.0</ele><time>2026-04-25T12:44:26Z</time></trkpt><trkpt lat="43.354035636528025" lon="11.45558547574279"><ele>261.0</ele><time>2026-04-25T12:44:27Z</time></trkpt><trkpt lat="43.35411694103984" lon="11.455535021316933"><ele>261.0</ele><time>2026-04-25T12:44:28Z</time></trkpt><trkpt lat="43.354126127893714" lon="11.45540446272192"><ele>261.0</ele><time>2026-04-25T12:44:29Z</time></trkpt><trkpt lat="43.35410929265884" lon="11.45527926120711"><ele>261.0</ele><time>2026-04-25T12:44:30Z</time></trkpt><trkpt lat="43.35406770582876" lon="11.455131020592123"><ele>261.0</ele><time>2026-04-25T12:44:31Z</time></trkpt><trkpt lat="43.35401905320174" lon="11.454950684938387"><ele>261.0</ele><time>2026-04-25T12:44:32Z</time></trkpt><trkpt lat="43.35396953607861" lon="11.454710507758646"><ele>261.0</ele><time>2026-04-25T12:44:33Z</time></trkpt><trkpt lat="43.35390536383724" lon="11.454466748666189"><ele>258.3333333333333</ele><time>2026-04-25T12:44:34Z</time></trkpt><trkpt lat="43.353833374572616" lon="11.454267839184045"><ele>255.66666666666666</ele><time>2026-04-25T12:44:35Z</time></trkpt><trkpt lat="43.35376417455833" lon="11.454058420520557"><ele>253.0</ele><time>2026-04-25T12:44:36Z</time></trkpt><trkpt lat="43.35367310376475" lon="11.453849577215319"><ele>252.0</ele><time>2026-04-25T12:44:37Z</time></trkpt><trkpt lat="43.353566515735686" lon="11.45364704202286"><ele>251.0</ele><time>2026-04-25T12:44:38Z</time></trkpt><trkpt lat="43.35347485534401" lon="11.453447025805646"><ele>250.0</ele><time>2026-04-25T12:44:39Z</time></trkpt><trkpt lat="43.35337029204523" lon="11.453272478403154"><ele>250.0</ele><time>2026-04-25T12:44:40Z</time></trkpt><trkpt lat="43.35325454076317" lon="11.453113899667693"><ele>250.0</ele><time>2026-04-25T12:44:41Z</time></trkpt><trkpt lat="43.35314086258613" lon="11.452966566258551"><ele>250.0</ele><time>2026-04-25T12:44:42Z</time></trkpt><trkpt lat="43.353031528754435" lon="11.452813896995107"><ele>246.0</ele><time>2026-04-25T12:44:43Z</time></trkpt><trkpt lat="43.35293942231926" lon="11.452656315713266"><ele>242.0</ele><time>2026-04-25T12:44:44Z</time></trkpt><trkpt lat="43.3528549833562" lon="11.452478118933298"><ele>238.0</ele><time>2026-04-25T12:44:45Z</time></trkpt><trkpt lat="43.35278613508382" lon="11.452286280654654"><ele>235.66666666666666</ele><time>2026-04-25T12:44:46Z</time></trkpt><trkpt lat="43.35271205262534" lon="11.452088872042662"><ele>233.33333333333331</ele><time>2026-04-25T12:44:47Z</time></trkpt><trkpt lat="43.35267850403455" lon="11.451897476572803"><ele>231.0</ele><time>2026-04-25T12:44:48Z</time></trkpt><trkpt lat="43.352688304317056" lon="11.451666434547553"><ele>231.0</ele><time>2026-04-25T12:44:49Z</time></trkpt><trkpt lat="43.35271451630312" lon="11.45141383393536"><ele>231.0</ele><time>2026-04-25T12:44:50Z</time></trkpt><trkpt lat="43.352732333526504" lon="11.451146344065382"><ele>231.0</ele><time>2026-04-25T12:44:51Z</time></trkpt><trkpt lat="43.35276307811871" lon="11.450885819619863"><ele>229.66666666666669</ele><time>2026-04-25T12:44:52Z</time></trkpt><trkpt lat="43.352788743310214" lon="11.450612252166026"><ele>228.33333333333334</ele><time>2026-04-25T12:44:53Z</time></trkpt><trkpt lat="43.352813918639" lon="11.450344905540986"><ele>227.0</ele><time>2026-04-25T12:44:54Z</time></trkpt><trkpt lat="43.352839353939544" lon="11.450083005796104"><ele>226.66666666666669</ele><time>2026-04-25T12:44:55Z</time></trkpt><trkpt lat="43.35285934724858" lon="11.449844855890795"><ele>226.33333333333331</ele><time>2026-04-25T12:44:56Z</time></trkpt><trkpt lat="43.352867035214324" lon="11.44962286394691"><ele>226.0</ele><time>2026-04-25T12:44:57Z</time></trkpt><trkpt lat="43.35283844350946" lon="11.449429944961585"><ele>227.5</ele><time>2026-04-25T12:44:58Z</time></trkpt><trkpt lat="43.352765261222075" lon="11.449260426053366"><ele>229.0</ele><time>2026-04-25T12:44:59Z</time></trkpt><trkpt lat="43.35266872907461" lon="11.44910488325913"><ele>230.5</ele><time>2026-04-25T12:45:00Z</time></trkpt><trkpt lat="43.352542260969564" lon="11.448993879801408"><ele>232.0</ele><time>2026-04-25T12:45:01Z</time></trkpt><trkpt lat="43.352391111449386" lon="11.448900982029658"><ele>232.0</ele><time>2026-04-25T12:45:02Z</time></trkpt><trkpt lat="43.35223620928784" lon="11.448809310446368"><ele>232.0</ele><time>2026-04-25T12:45:03Z</time></trkpt><trkpt lat="43.35211117589869" lon="11.448724043210264"><ele>232.0</ele><time>2026-04-25T12:45:04Z</time></trkpt><trkpt lat="43.35200451501123" lon="11.44863554448969"><ele>232.0</ele><time>2026-04-25T12:45:05Z</time></trkpt><trkpt lat="43.351914187171204" lon="11.448516118736297"><ele>232.5</ele><time>2026-04-25T12:45:06Z</time></trkpt><trkpt lat="43.35185122707286" lon="11.44836280183697"><ele>233.0</ele><time>2026-04-25T12:45:07Z</time></trkpt><trkpt lat="43.35183546448482" lon="11.448175889653083"><ele>233.5</ele><time>2026-04-25T12:45:08Z</time></trkpt><trkpt lat="43.35182087016126" lon="11.447986491598526"><ele>234.0</ele><time>2026-04-25T12:45:09Z</time></trkpt><trkpt lat="43.35181712368962" lon="11.447798066152812"><ele>234.0</ele><time>2026-04-25T12:45:10Z</time></trkpt><trkpt lat="43.351814722224454" lon="11.447590785323635"><ele>234.0</ele><time>2026-04-25T12:45:11Z</time></trkpt><trkpt lat="43.351798811157536" lon="11.447365328364567"><ele>234.0</ele><time>2026-04-25T12:45:12Z</time></trkpt><trkpt lat="43.35180892364179" lon="11.447126085595642"><ele>234.33333333333331</ele><time>2026-04-25T12:45:13Z</time></trkpt><trkpt lat="43.35181203625015" lon="11.4468911853895"><ele>234.66666666666666</ele><time>2026-04-25T12:45:14Z</time></trkpt><trkpt lat="43.35180818027036" lon="11.446652267439708"><ele>235.0</ele><time>2026-04-25T12:45:15Z</time></trkpt><trkpt lat="43.35179765642241" lon="11.446406485520264"><ele>236.66666666666666</ele><time>2026-04-25T12:45:16Z</time></trkpt><trkpt lat="43.3517928250663" lon="11.446161769221874"><ele>238.33333333333331</ele><time>2026-04-25T12:45:17Z</time></trkpt><trkpt lat="43.35178970794362" lon="11.445923332289867"><ele>240.0</ele><time>2026-04-25T12:45:18Z</time></trkpt><trkpt lat="43.35178772900463" lon="11.44569566522401"><ele>240.0</ele><time>2026-04-25T12:45:19Z</time></trkpt><trkpt lat="43.351783748320436" lon="11.445470655449698"><ele>240.0</ele><time>2026-04-25T12:45:20Z</time></trkpt><trkpt lat="43.35177898973902" lon="11.44525572017927"><ele>240.0</ele><time>2026-04-25T12:45:21Z</time></trkpt><trkpt lat="43.35176732334439" lon="11.445066097617154"><ele>241.0</ele><time>2026-04-25T12:45:22Z</time></trkpt><trkpt lat="43.35174218821471" lon="11.444880065240175"><ele>242.0</ele><time>2026-04-25T12:45:23Z</time></trkpt><trkpt lat="43.35170636311116" lon="11.444701654576098"><ele>243.0</ele><time>2026-04-25T12:45:24Z</time></trkpt><trkpt lat="43.351663074623005" lon="11.444555907276246"><ele>244.0</ele><time>2026-04-25T12:45:25Z</time></trkpt><trkpt lat="43.351622366711226" lon="11.444402704298286"><ele>244.5</ele><time>2026-04-25T12:45:26Z</time></trkpt><trkpt lat="43.351586611957565" lon="11.444240161307562"><ele>245.0</ele><time>2026-04-25T12:45:27Z</time></trkpt><trkpt lat="43.35155531627968" lon="11.444084284397203"><ele>245.5</ele><time>2026-04-25T12:45:28Z</time></trkpt><trkpt lat="43.351537121974175" lon="11.443902001171566"><ele>246.0</ele><time>2026-04-25T12:45:29Z</time></trkpt><trkpt lat="43.35152635099421" lon="11.443723242147197"><ele>244.25</ele><time>2026-04-25T12:45:30Z</time></trkpt><trkpt lat="43.35153241954041" lon="11.44355315865886"><ele>242.5</ele><time>2026-04-25T12:45:31Z</time></trkpt><trkpt lat="43.35156083538473" lon="11.443402165145143"><ele>240.75</ele><time>2026-04-25T12:45:32Z</time></trkpt><trkpt lat="43.35162479252341" lon="11.44326671084985"><ele>239.0</ele><time>2026-04-25T12:45:33Z</time></trkpt><trkpt lat="43.35173635348172" lon="11.443199054256961"><ele>239.0</ele><time>2026-04-25T12:45:34Z</time></trkpt><trkpt lat="43.35185599421507" lon="11.443136724315659"><ele>239.0</ele><time>2026-04-25T12:45:35Z</time></trkpt><trkpt lat="43.35198238802858" lon="11.443090321954838"><ele>239.0</ele><time>2026-04-25T12:45:36Z</time></trkpt><trkpt lat="43.352110967054614" lon="11.443046133031096"><ele>239.0</ele><time>2026-04-25T12:45:37Z</time></trkpt><trkpt lat="43.352233927850925" lon="11.443009435240022"><ele>239.5</ele><time>2026-04-25T12:45:38Z</time></trkpt><trkpt lat="43.35235620106575" lon="11.442980274139938"><ele>240.0</ele><time>2026-04-25T12:45:39Z</time></trkpt><trkpt lat="43.35247822994932" lon="11.442927488058753"><ele>240.5</ele><time>2026-04-25T12:45:40Z</time></trkpt><trkpt lat="43.352593517855674" lon="11.442890615188585"><ele>241.0</ele><time>2026-04-25T12:45:41Z</time></trkpt><trkpt lat="43.352692766284804" lon="11.442825899385305"><ele>238.75</ele><time>2026-04-25T12:45:42Z</time></trkpt><trkpt lat="43.35278637670839" lon="11.442737661611256"><ele>236.5</ele><time>2026-04-25T12:45:43Z</time></trkpt><trkpt lat="43.3528386264266" lon="11.442579177258976"><ele>234.25</ele><time>2026-04-25T12:45:44Z</time></trkpt><trkpt lat="43.35282722626028" lon="11.442387940656157"><ele>232.0</ele><time>2026-04-25T12:45:45Z</time></trkpt><trkpt lat="43.35280314329318" lon="11.44219941039606"><ele>234.0</ele><time>2026-04-25T12:45:46Z</time></trkpt><trkpt lat="43.35274541108509" lon="11.44203123098899"><ele>236.0</ele><time>2026-04-25T12:45:47Z</time></trkpt><trkpt lat="43.35270376049589" lon="11.441858707365505"><ele>238.0</ele><time>2026-04-25T12:45:48Z</time></trkpt><trkpt lat="43.352630477807544" lon="11.441701771493998"><ele>240.0</ele><time>2026-04-25T12:45:49Z</time></trkpt><trkpt lat="43.352539755896636" lon="11.44158108530302"><ele>240.0</ele><time>2026-04-25T12:45:50Z</time></trkpt><trkpt lat="43.352449291794706" lon="11.441454896061222"><ele>240.0</ele><time>2026-04-25T12:45:51Z</time></trkpt><trkpt lat="43.35234091125362" lon="11.441350030681875"><ele>240.0</ele><time>2026-04-25T12:45:52Z</time></trkpt><trkpt lat="43.35222258954099" lon="11.441266425726193"><ele>240.0</ele><time>2026-04-25T12:45:53Z</time></trkpt><trkpt lat="43.35209639915811" lon="11.441204485181977"><ele>241.25</ele><time>2026-04-25T12:45:54Z</time></trkpt><trkpt lat="43.35196466472862" lon="11.44116186575445"><ele>242.5</ele><time>2026-04-25T12:45:55Z</time></trkpt><trkpt lat="43.35183517591135" lon="11.441142999575424"><ele>243.75</ele><time>2026-04-25T12:45:56Z</time></trkpt><trkpt lat="43.351725250216205" lon="11.441136887245383"><ele>245.0</ele><time>2026-04-25T12:45:57Z</time></trkpt><trkpt lat="43.35163149915573" lon="11.441119161279403"><ele>245.0</ele><time>2026-04-25T12:45:58Z</time></trkpt><trkpt lat="43.35154591686296" lon="11.44107171692249"><ele>245.0</ele><time>2026-04-25T12:45:59Z</time></trkpt><trkpt lat="43.35147645302626" lon="11.440983213522633"><ele>245.0</ele><time>2026-04-25T12:46:00Z</time></trkpt><trkpt lat="43.3514405863622" lon="11.44085590635304"><ele>245.0</ele><time>2026-04-25T12:46:01Z</time></trkpt><trkpt lat="43.351414278796405" lon="11.440729578261129"><ele>245.0</ele><time>2026-04-25T12:46:02Z</time></trkpt><trkpt lat="43.35139698994598" lon="11.440600097220214"><ele>245.00000000000003</ele><time>2026-04-25T12:46:03Z</time></trkpt><trkpt lat="43.35139302433785" lon="11.440468783872252"><ele>245.0</ele><time>2026-04-25T12:46:04Z</time></trkpt><trkpt lat="43.35139643540059" lon="11.440350110597112"><ele>245.0</ele><time>2026-04-25T12:46:05Z</time></trkpt><trkpt lat="43.351403888935245" lon="11.440234906173552"><ele>245.0</ele><time>2026-04-25T12:46:06Z</time></trkpt><trkpt lat="43.35141535817087" lon="11.440109537774825"><ele>245.00000000000003</ele><time>2026-04-25T12:46:07Z</time></trkpt><trkpt lat="43.351411707769365" lon="11.439986449791618"><ele>245.0</ele><time>2026-04-25T12:46:08Z</time></trkpt><trkpt lat="43.35143260522588" lon="11.439890895701362"><ele>246.00000000000003</ele><time>2026-04-25T12:46:09Z</time></trkpt><trkpt lat="43.3514814193539" lon="11.439763040749645"><ele>247.0</ele><time>2026-04-25T12:46:11Z</time></trkpt><trkpt lat="43.351548933115765" lon="11.439676417769189"><ele>248.0</ele><time>2026-04-25T12:46:13Z</time></trkpt><trkpt lat="43.35159746467411" lon="11.439616217811295"><ele>249.0</ele><time>2026-04-25T12:46:14Z</time></trkpt><trkpt lat="43.35167735054126" lon="11.439585935835026"><ele>250.00000000000003</ele><time>2026-04-25T12:46:15Z</time></trkpt><trkpt lat="43.35175719423091" lon="11.439505216933156"><ele>251.0</ele><time>2026-04-25T12:46:16Z</time></trkpt><trkpt lat="43.351864828409425" lon="11.439467045213572"><ele>251.0</ele><time>2026-04-25T12:46:17Z</time></trkpt><trkpt lat="43.351958550079694" lon="11.43940164489761"><ele>251.00000000000003</ele><time>2026-04-25T12:46:18Z</time></trkpt><trkpt lat="43.352071733858644" lon="11.439381490218427"><ele>251.00000000000003</ele><time>2026-04-25T12:46:19Z</time></trkpt><trkpt lat="43.35218189869633" lon="11.439362733076639"><ele>251.0</ele><time>2026-04-25T12:46:20Z</time></trkpt><trkpt lat="43.35228870568385" lon="11.439321695288102"><ele>251.0</ele><time>2026-04-25T12:46:21Z</time></trkpt><trkpt lat="43.35239757803891" lon="11.439265906761047"><ele>252.75</ele><time>2026-04-25T12:46:22Z</time></trkpt><trkpt lat="43.352481961574554" lon="11.439143901466336"><ele>254.5</ele><time>2026-04-25T12:46:23Z</time></trkpt><trkpt lat="43.352559833719816" lon="11.439040352405495"><ele>256.25</ele><time>2026-04-25T12:46:24Z</time></trkpt><trkpt lat="43.35264754561979" lon="11.438935230166768"><ele>258.0</ele><time>2026-04-25T12:46:25Z</time></trkpt><trkpt lat="43.35274045759939" lon="11.438838462787404"><ele>258.0</ele><time>2026-04-25T12:46:26Z</time></trkpt><trkpt lat="43.352836752296945" lon="11.438748540801523"><ele>258.0</ele><time>2026-04-25T12:46:27Z</time></trkpt><trkpt lat="43.35293913117942" lon="11.438662084386548"><ele>258.0</ele><time>2026-04-25T12:46:28Z</time></trkpt><trkpt lat="43.3530423550301" lon="11.438578235924183"><ele>258.0</ele><time>2026-04-25T12:46:29Z</time></trkpt><trkpt lat="43.353152259573775" lon="11.438506615899101"><ele>259.75</ele><time>2026-04-25T12:46:30Z</time></trkpt><trkpt lat="43.353265200430116" lon="11.438448950466952"><ele>261.5</ele><time>2026-04-25T12:46:31Z</time></trkpt><trkpt lat="43.35338502617881" lon="11.43839984184223"><ele>263.25</ele><time>2026-04-25T12:46:32Z</time></trkpt><trkpt lat="43.35350484370462" lon="11.438372398268234"><ele>265.0</ele><time>2026-04-25T12:46:33Z</time></trkpt><trkpt lat="43.35363006252288" lon="11.438343690339831"><ele>265.0</ele><time>2026-04-25T12:46:34Z</time></trkpt><trkpt lat="43.353750983041905" lon="11.43831428637202"><ele>265.0</ele><time>2026-04-25T12:46:35Z</time></trkpt><trkpt lat="43.35387760919952" lon="11.438282298591814"><ele>265.0</ele><time>2026-04-25T12:46:36Z</time></trkpt><trkpt lat="43.35401126176229" lon="11.438248535836637"><ele>265.0</ele><time>2026-04-25T12:46:37Z</time></trkpt><trkpt lat="43.35413384994105" lon="11.438191588249497"><ele>265.25</ele><time>2026-04-25T12:46:38Z</time></trkpt><trkpt lat="43.35427794887106" lon="11.438174961513473"><ele>265.5</ele><time>2026-04-25T12:46:39Z</time></trkpt><trkpt lat="43.35440964450756" lon="11.438162184505101"><ele>265.75</ele><time>2026-04-25T12:46:40Z</time></trkpt><trkpt lat="43.3545464426115" lon="11.438155533034516"><ele>266.0</ele><time>2026-04-25T12:46:41Z</time></trkpt><trkpt lat="43.354649362867605" lon="11.43814604379315"><ele>266.5</ele><time>2026-04-25T12:46:42Z</time></trkpt><trkpt lat="43.354768557265196" lon="11.43815525024823"><ele>267.0</ele><time>2026-04-25T12:46:43Z</time></trkpt><trkpt lat="43.35489356576974" lon="11.438169483007652"><ele>267.5</ele><time>2026-04-25T12:46:44Z</time></trkpt><trkpt lat="43.355001486534384" lon="11.438188538145809"><ele>268.0</ele><time>2026-04-25T12:46:45Z</time></trkpt><trkpt lat="43.35512062187011" lon="11.438209196806682"><ele>268.0</ele><time>2026-04-25T12:46:46Z</time></trkpt><trkpt lat="43.355243307578725" lon="11.43823118545087"><ele>268.0</ele><time>2026-04-25T12:46:47Z</time></trkpt><trkpt lat="43.355366981818975" lon="11.438257041246311"><ele>268.0</ele><time>2026-04-25T12:46:48Z</time></trkpt><trkpt lat="43.35548811702717" lon="11.438284707515269"><ele>268.0</ele><time>2026-04-25T12:46:49Z</time></trkpt><trkpt lat="43.355609412968064" lon="11.438313966882486"><ele>267.5</ele><time>2026-04-25T12:46:50Z</time></trkpt><trkpt lat="43.355733752932366" lon="11.43834448936131"><ele>267.0</ele><time>2026-04-25T12:46:51Z</time></trkpt><trkpt lat="43.35585278429095" lon="11.438365758837167"><ele>266.5</ele><time>2026-04-25T12:46:52Z</time></trkpt><trkpt lat="43.35597669333973" lon="11.438393090978444"><ele>266.0</ele><time>2026-04-25T12:46:53Z</time></trkpt><trkpt lat="43.35610476199642" lon="11.43841792839182"><ele>266.0</ele><time>2026-04-25T12:46:54Z</time></trkpt><trkpt lat="43.35624187028016" lon="11.438448350406183"><ele>266.0</ele><time>2026-04-25T12:46:55Z</time></trkpt><trkpt lat="43.356387386599025" lon="11.438476159833137"><ele>266.0</ele><time>2026-04-25T12:46:56Z</time></trkpt><trkpt lat="43.35652600668062" lon="11.438529275609048"><ele>266.0</ele><time>2026-04-25T12:46:57Z</time></trkpt><trkpt lat="43.35666568346528" lon="11.438561283859016"><ele>265.75</ele><time>2026-04-25T12:46:58Z</time></trkpt><trkpt lat="43.356797477495924" lon="11.43859018337269"><ele>265.5</ele><time>2026-04-25T12:46:59Z</time></trkpt><trkpt lat="43.35693601878223" lon="11.438614670555399"><ele>265.25</ele><time>2026-04-25T12:47:00Z</time></trkpt><trkpt lat="43.35708058815333" lon="11.438613166940085"><ele>265.0</ele><time>2026-04-25T12:47:01Z</time></trkpt><trkpt lat="43.3572237686738" lon="11.438596190239156"><ele>265.0</ele><time>2026-04-25T12:47:02Z</time></trkpt><trkpt lat="43.35736293978374" lon="11.43856004824894"><ele>265.0</ele><time>2026-04-25T12:47:03Z</time></trkpt><trkpt lat="43.35749933831954" lon="11.4385148708811"><ele>265.0</ele><time>2026-04-25T12:47:04Z</time></trkpt><trkpt lat="43.357633390658584" lon="11.438470470627303"><ele>265.0</ele><time>2026-04-25T12:47:05Z</time></trkpt><trkpt lat="43.35776457926617" lon="11.43842701883222"><ele>265.0</ele><time>2026-04-25T12:47:06Z</time></trkpt><trkpt lat="43.357885507045005" lon="11.438386965619971"><ele>265.0</ele><time>2026-04-25T12:47:07Z</time></trkpt><trkpt lat="43.35801004227809" lon="11.43834174968799"><ele>265.0</ele><time>2026-04-25T12:47:08Z</time></trkpt><trkpt lat="43.35812765066943" lon="11.438270278254022"><ele>265.0</ele><time>2026-04-25T12:47:09Z</time></trkpt><trkpt lat="43.358227165860065" lon="11.438159077823357"><ele>265.5</ele><time>2026-04-25T12:47:10Z</time></trkpt><trkpt lat="43.358303143722075" lon="11.438015847930854"><ele>266.0</ele><time>2026-04-25T12:47:11Z</time></trkpt><trkpt lat="43.35835973377959" lon="11.4378679637851"><ele>266.5</ele><time>2026-04-25T12:47:12Z</time></trkpt><trkpt lat="43.35839985090749" lon="11.437698818095711"><ele>267.0</ele><time>2026-04-25T12:47:13Z</time></trkpt><trkpt lat="43.358420122775996" lon="11.437541611753781"><ele>267.5</ele><time>2026-04-25T12:47:14Z</time></trkpt><trkpt lat="43.35841682131799" lon="11.437364847835223"><ele>268.0</ele><time>2026-04-25T12:47:15Z</time></trkpt><trkpt lat="43.358396561317306" lon="11.437191040647122"><ele>268.5</ele><time>2026-04-25T12:47:16Z</time></trkpt><trkpt lat="43.35837562667166" lon="11.4370185777983"><ele>269.0</ele><time>2026-04-25T12:47:17Z</time></trkpt><trkpt lat="43.35834824389989" lon="11.43686331467264"><ele>269.0</ele><time>2026-04-25T12:47:18Z</time></trkpt><trkpt lat="43.35835069908547" lon="11.436709802757944"><ele>269.0</ele><time>2026-04-25T12:47:19Z</time></trkpt><trkpt lat="43.358361849249405" lon="11.436567133358155"><ele>269.0</ele><time>2026-04-25T12:47:20Z</time></trkpt><trkpt lat="43.35837809383919" lon="11.436432405677449"><ele>269.0</ele><time>2026-04-25T12:47:21Z</time></trkpt><trkpt lat="43.35841072791404" lon="11.43630485429529"><ele>269.0</ele><time>2026-04-25T12:47:22Z</time></trkpt><trkpt lat="43.35843936784197" lon="11.436178564049651"><ele>269.0</ele><time>2026-04-25T12:47:23Z</time></trkpt><trkpt lat="43.358456812331454" lon="11.436052257281872"><ele>269.0</ele><time>2026-04-25T12:47:24Z</time></trkpt><trkpt lat="43.358483248352286" lon="11.435910382139484"><ele>269.0</ele><time>2026-04-25T12:47:25Z</time></trkpt><trkpt lat="43.358514095622326" lon="11.435760917217838"><ele>269.0</ele><time>2026-04-25T12:47:26Z</time></trkpt><trkpt lat="43.358554276985565" lon="11.43560891999816"><ele>269.0</ele><time>2026-04-25T12:47:27Z</time></trkpt><trkpt lat="43.35860069686432" lon="11.435457446545596"><ele>269.5</ele><time>2026-04-25T12:47:28Z</time></trkpt><trkpt lat="43.358654098259194" lon="11.43531351821591"><ele>270.0</ele><time>2026-04-25T12:47:29Z</time></trkpt><trkpt lat="43.35871304867464" lon="11.435163625396415"><ele>270.5</ele><time>2026-04-25T12:47:30Z</time></trkpt><trkpt lat="43.35879550618187" lon="11.435010850273777"><ele>271.0</ele><time>2026-04-25T12:47:31Z</time></trkpt><trkpt lat="43.35885118881092" lon="11.434840929356271"><ele>269.0</ele><time>2026-04-25T12:47:32Z</time></trkpt><trkpt lat="43.358898743660305" lon="11.434664143798953"><ele>267.0</ele><time>2026-04-25T12:47:33Z</time></trkpt><trkpt lat="43.358932815276205" lon="11.434476152293357"><ele>265.0</ele><time>2026-04-25T12:47:34Z</time></trkpt><trkpt lat="43.35895842452634" lon="11.434276748011493"><ele>263.0</ele><time>2026-04-25T12:47:35Z</time></trkpt><trkpt lat="43.35896883416922" lon="11.434075296615466"><ele>263.0</ele><time>2026-04-25T12:47:36Z</time></trkpt><trkpt lat="43.35895918314918" lon="11.43387370521516"><ele>263.0</ele><time>2026-04-25T12:47:37Z</time></trkpt><trkpt lat="43.358938185963986" lon="11.433713111468983"><ele>263.0</ele><time>2026-04-25T12:47:38Z</time></trkpt><trkpt lat="43.35893762396555" lon="11.433536509432946"><ele>263.0</ele><time>2026-04-25T12:47:39Z</time></trkpt><trkpt lat="43.35890924106517" lon="11.433385376975904"><ele>263.0</ele><time>2026-04-25T12:47:40Z</time></trkpt><trkpt lat="43.3588859062863" lon="11.433231459140334"><ele>263.0</ele><time>2026-04-25T12:47:41Z</time></trkpt><trkpt lat="43.358874206801154" lon="11.433066427148962"><ele>263.0</ele><time>2026-04-25T12:47:42Z</time></trkpt><trkpt lat="43.358856572783324" lon="11.43290091264733"><ele>263.0</ele><time>2026-04-25T12:47:43Z</time></trkpt><trkpt lat="43.35884723867727" lon="11.432734278130154"><ele>263.0</ele><time>2026-04-25T12:47:44Z</time></trkpt><trkpt lat="43.35884914496029" lon="11.43256958125246"><ele>263.0</ele><time>2026-04-25T12:47:45Z</time></trkpt><trkpt lat="43.358852959165176" lon="11.432407377332055"><ele>263.0</ele><time>2026-04-25T12:47:46Z</time></trkpt><trkpt lat="43.358864822984515" lon="11.432250791162064"><ele>263.0</ele><time>2026-04-25T12:47:47Z</time></trkpt><trkpt lat="43.358887580449604" lon="11.432089885001067"><ele>262.5</ele><time>2026-04-25T12:47:48Z</time></trkpt><trkpt lat="43.3589182027955" lon="11.431931896235465"><ele>262.0</ele><time>2026-04-25T12:47:49Z</time></trkpt><trkpt lat="43.358954835567516" lon="11.431764633612486"><ele>261.5</ele><time>2026-04-25T12:47:50Z</time></trkpt><trkpt lat="43.35899599700171" lon="11.431590803095016"><ele>261.0</ele><time>2026-04-25T12:47:51Z</time></trkpt><trkpt lat="43.35904183504461" lon="11.431393591257688"><ele>262.0</ele><time>2026-04-25T12:47:52Z</time></trkpt><trkpt lat="43.35908637403372" lon="11.431189588369067"><ele>263.0</ele><time>2026-04-25T12:47:53Z</time></trkpt><trkpt lat="43.35912720282319" lon="11.430976021101676"><ele>264.0</ele><time>2026-04-25T12:47:54Z</time></trkpt><trkpt lat="43.35916472795015" lon="11.430784150576967"><ele>264.0</ele><time>2026-04-25T12:47:55Z</time></trkpt><trkpt lat="43.35919244711687" lon="11.430600187154207"><ele>264.0</ele><time>2026-04-25T12:47:56Z</time></trkpt><trkpt lat="43.359209440156675" lon="11.430420075895944"><ele>264.0</ele><time>2026-04-25T12:47:57Z</time></trkpt><trkpt lat="43.359220756307394" lon="11.430238787053037"><ele>264.0</ele><time>2026-04-25T12:47:58Z</time></trkpt><trkpt lat="43.35919961853368" lon="11.430039850157339"><ele>264.25</ele><time>2026-04-25T12:47:59Z</time></trkpt><trkpt lat="43.35918140246739" lon="11.429870645567336"><ele>264.5</ele><time>2026-04-25T12:48:00Z</time></trkpt><trkpt lat="43.35915646167807" lon="11.429700890412539"><ele>264.75</ele><time>2026-04-25T12:48:01Z</time></trkpt><trkpt lat="43.35914421756817" lon="11.42951986668078"><ele>265.0</ele><time>2026-04-25T12:48:02Z</time></trkpt><trkpt lat="43.35910945642414" lon="11.429343864993331"><ele>265.5</ele><time>2026-04-25T12:48:03Z</time></trkpt><trkpt lat="43.35906684348146" lon="11.429180678541057"><ele>266.0</ele><time>2026-04-25T12:48:04Z</time></trkpt><trkpt lat="43.3590087846633" lon="11.429001784020475"><ele>266.5</ele><time>2026-04-25T12:48:05Z</time></trkpt><trkpt lat="43.35893824900353" lon="11.42883714208247"><ele>267.0</ele><time>2026-04-25T12:48:06Z</time></trkpt><trkpt lat="43.35884796761135" lon="11.428682992728977"><ele>267.0</ele><time>2026-04-25T12:48:07Z</time></trkpt><trkpt lat="43.3587474478555" lon="11.428551153966113"><ele>267.0</ele><time>2026-04-25T12:48:08Z</time></trkpt><trkpt lat="43.35865718309249" lon="11.428421676084465"><ele>267.0</ele><time>2026-04-25T12:48:09Z</time></trkpt><trkpt lat="43.35856967066775" lon="11.428278245018209"><ele>267.0</ele><time>2026-04-25T12:48:10Z</time></trkpt><trkpt lat="43.3584863500065" lon="11.428148774597108"><ele>267.0</ele><time>2026-04-25T12:48:11Z</time></trkpt><trkpt lat="43.35840405436151" lon="11.42801301939103"><ele>267.0</ele><time>2026-04-25T12:48:12Z</time></trkpt><trkpt lat="43.358324184636324" lon="11.42787736366307"><ele>267.0</ele><time>2026-04-25T12:48:13Z</time></trkpt><trkpt lat="43.358243767397774" lon="11.42771962730906"><ele>267.0</ele><time>2026-04-25T12:48:14Z</time></trkpt><trkpt lat="43.35816030642664" lon="11.427583133213844"><ele>266.0</ele><time>2026-04-25T12:48:15Z</time></trkpt><trkpt lat="43.35807839787406" lon="11.427440156378042"><ele>265.0</ele><time>2026-04-25T12:48:16Z</time></trkpt><trkpt lat="43.357984621268265" lon="11.427316625026428"><ele>264.0</ele><time>2026-04-25T12:48:17Z</time></trkpt><trkpt lat="43.357869577727705" lon="11.427203253048987"><ele>263.0</ele><time>2026-04-25T12:48:18Z</time></trkpt><trkpt lat="43.35774727120374" lon="11.42711166057161"><ele>260.5</ele><time>2026-04-25T12:48:19Z</time></trkpt><trkpt lat="43.357612680019386" lon="11.427010878774558"><ele>258.0</ele><time>2026-04-25T12:48:20Z</time></trkpt><trkpt lat="43.35748296106187" lon="11.426920059974364"><ele>255.5</ele><time>2026-04-25T12:48:21Z</time></trkpt><trkpt lat="43.35735592730621" lon="11.42682279691795"><ele>253.0</ele><time>2026-04-25T12:48:22Z</time></trkpt><trkpt lat="43.35722255004664" lon="11.426734075325696"><ele>254.0</ele><time>2026-04-25T12:48:23Z</time></trkpt><trkpt lat="43.357083523858805" lon="11.42665163659202"><ele>255.0</ele><time>2026-04-25T12:48:24Z</time></trkpt><trkpt lat="43.35693896521643" lon="11.426549811005888"><ele>256.0</ele><time>2026-04-25T12:48:25Z</time></trkpt><trkpt lat="43.35681149904283" lon="11.426472299862336"><ele>256.0</ele><time>2026-04-25T12:48:26Z</time></trkpt><trkpt lat="43.35667291212287" lon="11.426366076221226"><ele>256.0</ele><time>2026-04-25T12:48:27Z</time></trkpt><trkpt lat="43.35654345461881" lon="11.426257421127758"><ele>256.0</ele><time>2026-04-25T12:48:28Z</time></trkpt><trkpt lat="43.35641006330547" lon="11.426104752771039"><ele>252.66666666666666</ele><time>2026-04-25T12:48:29Z</time></trkpt><trkpt lat="43.356284657200746" lon="11.425947094233186"><ele>249.33333333333331</ele><time>2026-04-25T12:48:30Z</time></trkpt><trkpt lat="43.356165469872096" lon="11.425783840472226"><ele>246.0</ele><time>2026-04-25T12:48:31Z</time></trkpt><trkpt lat="43.35605223115681" lon="11.425640644333717"><ele>246.0</ele><time>2026-04-25T12:48:32Z</time></trkpt><trkpt lat="43.35594505539075" lon="11.425499731121167"><ele>246.0</ele><time>2026-04-25T12:48:33Z</time></trkpt><trkpt lat="43.35584253531347" lon="11.425350534762785"><ele>246.0</ele><time>2026-04-25T12:48:34Z</time></trkpt><trkpt lat="43.35573901765793" lon="11.42521136322711"><ele>246.0</ele><time>2026-04-25T12:48:35Z</time></trkpt><trkpt lat="43.35562846652017" lon="11.42507022064936"><ele>244.5</ele><time>2026-04-25T12:48:36Z</time></trkpt><trkpt lat="43.35552013365607" lon="11.424931521998042"><ele>243.0</ele><time>2026-04-25T12:48:37Z</time></trkpt><trkpt lat="43.35541516465422" lon="11.424789110622044"><ele>241.5</ele><time>2026-04-25T12:48:38Z</time></trkpt><trkpt lat="43.355316688005914" lon="11.424658329013777"><ele>240.0</ele><time>2026-04-25T12:48:39Z</time></trkpt><trkpt lat="43.35522215300563" lon="11.42453063648842"><ele>239.0</ele><time>2026-04-25T12:48:40Z</time></trkpt><trkpt lat="43.35512862134896" lon="11.424405320080545"><ele>238.0</ele><time>2026-04-25T12:48:41Z</time></trkpt><trkpt lat="43.355045929168995" lon="11.424278453450677"><ele>237.0</ele><time>2026-04-25T12:48:42Z</time></trkpt><trkpt lat="43.35497574306448" lon="11.424142286317284"><ele>236.0</ele><time>2026-04-25T12:48:43Z</time></trkpt><trkpt lat="43.35493292972094" lon="11.424007672766846"><ele>236.0</ele><time>2026-04-25T12:48:44Z</time></trkpt><trkpt lat="43.3549562498883" lon="11.423848268013574"><ele>236.0</ele><time>2026-04-25T12:48:45Z</time></trkpt><trkpt lat="43.35499411658362" lon="11.423680202595776"><ele>236.0</ele><time>2026-04-25T12:48:46Z</time></trkpt><trkpt lat="43.35504281364587" lon="11.423495485425837"><ele>236.0</ele><time>2026-04-25T12:48:47Z</time></trkpt><trkpt lat="43.355087295049316" lon="11.423322937114154"><ele>235.0</ele><time>2026-04-25T12:48:48Z</time></trkpt><trkpt lat="43.355123558083214" lon="11.423142007154711"><ele>234.0</ele><time>2026-04-25T12:48:49Z</time></trkpt><trkpt lat="43.35516890710151" lon="11.422957638567711"><ele>233.0</ele><time>2026-04-25T12:48:50Z</time></trkpt><trkpt lat="43.35521053238531" lon="11.422759571495302"><ele>232.0</ele><time>2026-04-25T12:48:51Z</time></trkpt><trkpt lat="43.35524571335118" lon="11.422569953133033"><ele>230.25</ele><time>2026-04-25T12:48:52Z</time></trkpt><trkpt lat="43.35527347614899" lon="11.42236617202917"><ele>228.5</ele><time>2026-04-25T12:48:53Z</time></trkpt><trkpt lat="43.35531355222257" lon="11.422155825755347"><ele>226.75</ele><time>2026-04-25T12:48:54Z</time></trkpt><trkpt lat="43.35532998916442" lon="11.421964451166847"><ele>225.0</ele><time>2026-04-25T12:48:55Z</time></trkpt><trkpt lat="43.35534529588694" lon="11.421774599715812"><ele>223.25</ele><time>2026-04-25T12:48:56Z</time></trkpt><trkpt lat="43.355361875684196" lon="11.421587684332506"><ele>221.5</ele><time>2026-04-25T12:48:57Z</time></trkpt><trkpt lat="43.35538051198458" lon="11.421387019237788"><ele>219.75</ele><time>2026-04-25T12:48:58Z</time></trkpt><trkpt lat="43.355402883169134" lon="11.42120206818849"><ele>218.0</ele><time>2026-04-25T12:48:59Z</time></trkpt><trkpt lat="43.35542700009289" lon="11.421022526119836"><ele>217.75</ele><time>2026-04-25T12:49:00Z</time></trkpt><trkpt lat="43.35546179688603" lon="11.420835671406811"><ele>217.5</ele><time>2026-04-25T12:49:01Z</time></trkpt><trkpt lat="43.35549826634486" lon="11.420639450540794"><ele>217.25</ele><time>2026-04-25T12:49:02Z</time></trkpt><trkpt lat="43.35552852589012" lon="11.4204511104583"><ele>217.0</ele><time>2026-04-25T12:49:03Z</time></trkpt><trkpt lat="43.35556363029312" lon="11.420248294911886"><ele>217.0</ele><time>2026-04-25T12:49:04Z</time></trkpt><trkpt lat="43.3556029590191" lon="11.420060108427554"><ele>217.0</ele><time>2026-04-25T12:49:05Z</time></trkpt><trkpt lat="43.35564678052144" lon="11.419853935340374"><ele>217.0</ele><time>2026-04-25T12:49:06Z</time></trkpt><trkpt lat="43.35571568000069" lon="11.419669275534547"><ele>217.0</ele><time>2026-04-25T12:49:07Z</time></trkpt><trkpt lat="43.35576179123145" lon="11.41946909810374"><ele>216.75</ele><time>2026-04-25T12:49:08Z</time></trkpt><trkpt lat="43.355840056717525" lon="11.419293768805423"><ele>216.5</ele><time>2026-04-25T12:49:09Z</time></trkpt><trkpt lat="43.355917294039536" lon="11.41913271037087"><ele>216.25</ele><time>2026-04-25T12:49:10Z</time></trkpt><trkpt lat="43.355995158833814" lon="11.418961987551835"><ele>216.0</ele><time>2026-04-25T12:49:11Z</time></trkpt><trkpt lat="43.356087496399816" lon="11.418812911340403"><ele>216.25</ele><time>2026-04-25T12:49:12Z</time></trkpt><trkpt lat="43.3561671767956" lon="11.418645980276489"><ele>216.5</ele><time>2026-04-25T12:49:13Z</time></trkpt><trkpt lat="43.356240530422625" lon="11.418453889113039"><ele>216.75</ele><time>2026-04-25T12:49:14Z</time></trkpt><trkpt lat="43.35633369793008" lon="11.418299196967036"><ele>217.0</ele><time>2026-04-25T12:49:15Z</time></trkpt><trkpt lat="43.35641622652163" lon="11.418125074974743"><ele>217.5</ele><time>2026-04-25T12:49:16Z</time></trkpt><trkpt lat="43.35649372779662" lon="11.41796011814117"><ele>218.0</ele><time>2026-04-25T12:49:17Z</time></trkpt><trkpt lat="43.35656811523049" lon="11.417801482222693"><ele>218.5</ele><time>2026-04-25T12:49:18Z</time></trkpt><trkpt lat="43.35663504936728" lon="11.417657780252945"><ele>219.0</ele><time>2026-04-25T12:49:19Z</time></trkpt><trkpt lat="43.356696066240936" lon="11.417526782208943"><ele>219.0</ele><time>2026-04-25T12:49:20Z</time></trkpt><trkpt lat="43.35675007858924" lon="11.417407306330292"><ele>218.99999999999997</ele><time>2026-04-25T12:49:21Z</time></trkpt><trkpt lat="43.356796808772856" lon="11.417292473146373"><ele>218.99999999999997</ele><time>2026-04-25T12:49:22Z</time></trkpt><trkpt lat="43.356836057576004" lon="11.417166715067644"><ele>219.0</ele><time>2026-04-25T12:49:23Z</time></trkpt><trkpt lat="43.35685123342128" lon="11.41705237877296"><ele>219.0</ele><time>2026-04-25T12:49:24Z</time></trkpt><trkpt lat="43.35686642430112" lon="11.416903285924617"><ele>219.0</ele><time>2026-04-25T12:49:26Z</time></trkpt><trkpt lat="43.35688659584942" lon="11.416820656799324"><ele>219.0</ele><time>2026-04-25T12:49:28Z</time></trkpt><trkpt lat="43.35688678066878" lon="11.416733645690936"><ele>219.0</ele><time>2026-04-25T12:50:30Z</time></trkpt><trkpt lat="43.35686080326722" lon="11.416598057229088"><ele>219.0</ele><time>2026-04-25T12:50:32Z</time></trkpt><trkpt lat="43.35681121345422" lon="11.416524070723398"><ele>219.0</ele><time>2026-04-25T12:50:33Z</time></trkpt><trkpt lat="43.35675311987222" lon="11.416437652959228"><ele>219.0</ele><time>2026-04-25T12:50:34Z</time></trkpt><trkpt lat="43.35668918650855" lon="11.41634043094966"><ele>219.39999999999998</ele><time>2026-04-25T12:50:35Z</time></trkpt><trkpt lat="43.356623578708415" lon="11.416232133138008"><ele>219.79999999999998</ele><time>2026-04-25T12:50:36Z</time></trkpt><trkpt lat="43.35655350215988" lon="11.416115338352224"><ele>220.20000000000002</ele><time>2026-04-25T12:50:37Z</time></trkpt><trkpt lat="43.35648728233546" lon="11.416006348198406"><ele>220.60000000000002</ele><time>2026-04-25T12:50:38Z</time></trkpt><trkpt lat="43.35643343079495" lon="11.415917970665019"><ele>221.0</ele><time>2026-04-25T12:50:39Z</time></trkpt><trkpt lat="43.35640564120871" lon="11.415801374179114"><ele>221.16666666666669</ele><time>2026-04-25T12:50:40Z</time></trkpt><trkpt lat="43.356347960582916" lon="11.415754810876004"><ele>221.33333333333334</ele><time>2026-04-25T12:50:41Z</time></trkpt><trkpt lat="43.3563638827736" lon="11.41558830163736"><ele>221.5</ele><time>2026-04-25T12:50:42Z</time></trkpt><trkpt lat="43.35637095030216" lon="11.415474695692224"><ele>221.66666666666669</ele><time>2026-04-25T12:50:43Z</time></trkpt><trkpt lat="43.35639748879607" lon="11.415384638465266"><ele>221.83333333333334</ele><time>2026-04-25T12:50:44Z</time></trkpt><trkpt lat="43.35641167003526" lon="11.415283180712532"><ele>222.0</ele><time>2026-04-25T12:50:45Z</time></trkpt><trkpt lat="43.35644676071501" lon="11.41512799976304"><ele>222.83333333333334</ele><time>2026-04-25T12:50:47Z</time></trkpt><trkpt lat="43.35646188277874" lon="11.41503979898245"><ele>223.66666666666669</ele><time>2026-04-25T12:50:48Z</time></trkpt><trkpt lat="43.35648050131025" lon="11.414949071284864"><ele>224.5</ele><time>2026-04-25T12:50:49Z</time></trkpt><trkpt lat="43.356498224571254" lon="11.414858175453345"><ele>225.33333333333334</ele><time>2026-04-25T12:50:50Z</time></trkpt><trkpt lat="43.356508618404845" lon="11.414769343333528"><ele>226.16666666666669</ele><time>2026-04-25T12:50:51Z</time></trkpt><trkpt lat="43.35654726358546" lon="11.414597108570735"><ele>227.0</ele><time>2026-04-25T12:50:53Z</time></trkpt><trkpt lat="43.35657536601564" lon="11.414487109575703"><ele>227.8</ele><time>2026-04-25T12:50:54Z</time></trkpt><trkpt lat="43.356598448519414" lon="11.414373790209098"><ele>228.6</ele><time>2026-04-25T12:50:55Z</time></trkpt><trkpt lat="43.35663664896558" lon="11.414242323563544"><ele>229.40000000000003</ele><time>2026-04-25T12:50:56Z</time></trkpt><trkpt lat="43.35667053233475" lon="11.414101970025081"><ele>230.20000000000002</ele><time>2026-04-25T12:50:57Z</time></trkpt><trkpt lat="43.35671034623898" lon="11.413937506072465"><ele>231.0</ele><time>2026-04-25T12:50:58Z</time></trkpt><trkpt lat="43.356756260541346" lon="11.413759212596688"><ele>231.75</ele><time>2026-04-25T12:50:59Z</time></trkpt><trkpt lat="43.3568101160263" lon="11.413598634106206"><ele>232.5</ele><time>2026-04-25T12:51:00Z</time></trkpt><trkpt lat="43.35684986071636" lon="11.413436606093878"><ele>233.25</ele><time>2026-04-25T12:51:01Z</time></trkpt><trkpt lat="43.356907827585694" lon="11.413288616650465"><ele>234.0</ele><time>2026-04-25T12:51:02Z</time></trkpt><trkpt lat="43.35695756225305" lon="11.413130911004163"><ele>234.6</ele><time>2026-04-25T12:51:03Z</time></trkpt><trkpt lat="43.35700359908653" lon="11.412974030763875"><ele>235.2</ele><time>2026-04-25T12:51:04Z</time></trkpt><trkpt lat="43.35704604123416" lon="11.412829360938522"><ele>235.79999999999998</ele><time>2026-04-25T12:51:05Z</time></trkpt><trkpt lat="43.35709884159664" lon="11.412695226683876"><ele>236.39999999999998</ele><time>2026-04-25T12:51:06Z</time></trkpt><trkpt lat="43.35716460495224" lon="11.412595239109972"><ele>237.0</ele><time>2026-04-25T12:51:07Z</time></trkpt><trkpt lat="43.35722599048879" lon="11.41249827689332"><ele>237.83333333333334</ele><time>2026-04-25T12:51:08Z</time></trkpt><trkpt lat="43.357291989041215" lon="11.412427383141894"><ele>238.66666666666669</ele><time>2026-04-25T12:51:09Z</time></trkpt><trkpt lat="43.35736419316502" lon="11.412380206942375"><ele>239.5</ele><time>2026-04-25T12:51:10Z</time></trkpt><trkpt lat="43.35744079635798" lon="11.412342976860442"><ele>240.33333333333334</ele><time>2026-04-25T12:51:11Z</time></trkpt><trkpt lat="43.357520626367254" lon="11.412314306630641"><ele>241.16666666666669</ele><time>2026-04-25T12:51:12Z</time></trkpt><trkpt lat="43.35759822735144" lon="11.412303378026943"><ele>242.0</ele><time>2026-04-25T12:51:13Z</time></trkpt><trkpt lat="43.35767085515688" lon="11.412305121189592"><ele>242.00000000000003</ele><time>2026-04-25T12:51:14Z</time></trkpt><trkpt lat="43.357738620921765" lon="11.41231895701605"><ele>242.0</ele><time>2026-04-25T12:51:15Z</time></trkpt><trkpt lat="43.35780872558559" lon="11.412352560962422"><ele>242.0</ele><time>2026-04-25T12:51:16Z</time></trkpt><trkpt lat="43.35790407719803" lon="11.412404357082558"><ele>242.0</ele><time>2026-04-25T12:51:17Z</time></trkpt><trkpt lat="43.357996412254444" lon="11.412435988932668"><ele>242.00000000000003</ele><time>2026-04-25T12:51:18Z</time></trkpt><trkpt lat="43.358083102616504" lon="11.412454567008353"><ele>242.0</ele><time>2026-04-25T12:51:19Z</time></trkpt><trkpt lat="43.358181585381885" lon="11.412465970561088"><ele>243.0</ele><time>2026-04-25T12:51:20Z</time></trkpt><trkpt lat="43.358295260315394" lon="11.412468354466908"><ele>244.0</ele><time>2026-04-25T12:51:21Z</time></trkpt><trkpt lat="43.35839955799632" lon="11.412444502592017"><ele>245.0</ele><time>2026-04-25T12:51:22Z</time></trkpt><trkpt lat="43.35849856082566" lon="11.412440071292343"><ele>246.0</ele><time>2026-04-25T12:51:23Z</time></trkpt><trkpt lat="43.358587871170556" lon="11.412420328686684"><ele>247.0</ele><time>2026-04-25T12:51:24Z</time></trkpt><trkpt lat="43.35866950945433" lon="11.412414433019023"><ele>246.99999999999997</ele><time>2026-04-25T12:51:25Z</time></trkpt><trkpt lat="43.358740820137854" lon="11.412376464369622"><ele>247.0</ele><time>2026-04-25T12:51:26Z</time></trkpt><trkpt lat="43.35881122631635" lon="11.412326719504145"><ele>247.0</ele><time>2026-04-25T12:51:27Z</time></trkpt><trkpt lat="43.35888003677089" lon="11.412268250892792"><ele>247.0</ele><time>2026-04-25T12:51:28Z</time></trkpt><trkpt lat="43.3589426036422" lon="11.412198816737831"><ele>246.99999999999997</ele><time>2026-04-25T12:51:29Z</time></trkpt><trkpt lat="43.35899071238578" lon="11.412095697244583"><ele>247.0</ele><time>2026-04-25T12:51:30Z</time></trkpt><trkpt lat="43.35900611381365" lon="11.411976979066601"><ele>249.2</ele><time>2026-04-25T12:51:31Z</time></trkpt><trkpt lat="43.3590092806147" lon="11.411882414713332"><ele>251.39999999999998</ele><time>2026-04-25T12:51:32Z</time></trkpt><trkpt lat="43.35900900520402" lon="11.411775144417902"><ele>253.60000000000002</ele><time>2026-04-25T12:51:33Z</time></trkpt><trkpt lat="43.35900798860739" lon="11.411642885748378"><ele>255.8</ele><time>2026-04-25T12:51:34Z</time></trkpt><trkpt lat="43.35901103625485" lon="11.411499607766718"><ele>258.0</ele><time>2026-04-25T12:51:35Z</time></trkpt><trkpt lat="43.359012810627796" lon="11.411350206830305"><ele>259.0</ele><time>2026-04-25T12:51:36Z</time></trkpt><trkpt lat="43.35904232707708" lon="11.411220566295539"><ele>260.0</ele><time>2026-04-25T12:51:37Z</time></trkpt><trkpt lat="43.359079118240956" lon="11.41111227725513"><ele>261.0</ele><time>2026-04-25T12:51:38Z</time></trkpt><trkpt lat="43.359128913496725" lon="11.411019326411106"><ele>262.0</ele><time>2026-04-25T12:51:39Z</time></trkpt><trkpt lat="43.359182159320326" lon="11.4109588179044"><ele>263.0</ele><time>2026-04-25T12:51:40Z</time></trkpt><trkpt lat="43.35925075025094" lon="11.410920881149362"><ele>264.0</ele><time>2026-04-25T12:51:41Z</time></trkpt><trkpt lat="43.35932271093981" lon="11.410920039967527"><ele>264.0</ele><time>2026-04-25T12:51:42Z</time></trkpt><trkpt lat="43.35936752099881" lon="11.410991010890053"><ele>264.0</ele><time>2026-04-25T12:51:43Z</time></trkpt><trkpt lat="43.359459352804926" lon="11.411078682258855"><ele>264.0</ele><time>2026-04-25T12:51:45Z</time></trkpt><trkpt lat="43.35949767201486" lon="11.411168607622193"><ele>264.0</ele><time>2026-04-25T12:51:46Z</time></trkpt><trkpt lat="43.35953741467804" lon="11.411317909238457"><ele>264.0</ele><time>2026-04-25T12:51:48Z</time></trkpt><trkpt lat="43.35956336811854" lon="11.411402351503035"><ele>264.0</ele><time>2026-04-25T12:51:49Z</time></trkpt><trkpt lat="43.3595833803585" lon="11.411504993270585"><ele>263.1428571428571</ele><time>2026-04-25T12:51:50Z</time></trkpt><trkpt lat="43.35959434133697" lon="11.411604354811121"><ele>262.2857142857143</ele><time>2026-04-25T12:51:51Z</time></trkpt><trkpt lat="43.35960119346991" lon="11.411702111983272"><ele>261.42857142857144</ele><time>2026-04-25T12:51:52Z</time></trkpt><trkpt lat="43.3596098772975" lon="11.411792631405177"><ele>260.57142857142856</ele><time>2026-04-25T12:51:53Z</time></trkpt><trkpt lat="43.35963994332819" lon="11.411888283762258"><ele>259.7142857142857</ele><time>2026-04-25T12:51:54Z</time></trkpt><trkpt lat="43.35968197589079" lon="11.411959818969777"><ele>258.85714285714283</ele><time>2026-04-25T12:51:55Z</time></trkpt><trkpt lat="43.3597381190261" lon="11.41200552819912"><ele>258.0</ele><time>2026-04-25T12:51:56Z</time></trkpt><trkpt lat="43.35980383419034" lon="11.412042876795526"><ele>260.0</ele><time>2026-04-25T12:51:57Z</time></trkpt><trkpt lat="43.35986695384822" lon="11.412055475253728"><ele>262.0</ele><time>2026-04-25T12:51:58Z</time></trkpt><trkpt lat="43.359966360194996" lon="11.411999991543173"><ele>264.0</ele><time>2026-04-25T12:52:00Z</time></trkpt><trkpt lat="43.360000320823445" lon="11.411918509473312"><ele>266.0</ele><time>2026-04-25T12:52:01Z</time></trkpt><trkpt lat="43.35998447387103" lon="11.411801681859357"><ele>268.0</ele><time>2026-04-25T12:52:02Z</time></trkpt><trkpt lat="43.35995848472313" lon="11.411644079254106"><ele>270.0</ele><time>2026-04-25T12:52:04Z</time></trkpt><trkpt lat="43.35994195100535" lon="11.411495684437584"><ele>270.0</ele><time>2026-04-25T12:52:06Z</time></trkpt><trkpt lat="43.359959784986984" lon="11.411339536028644"><ele>270.0</ele><time>2026-04-25T12:52:08Z</time></trkpt><trkpt lat="43.360007841571914" lon="11.411207326551184"><ele>270.0</ele><time>2026-04-25T12:52:10Z</time></trkpt><trkpt lat="43.36009284314696" lon="11.411093475446151"><ele>270.0</ele><time>2026-04-25T12:52:12Z</time></trkpt><trkpt lat="43.36018921810907" lon="11.411015632449141"><ele>270.0</ele><time>2026-04-25T12:52:14Z</time></trkpt><trkpt lat="43.36030931241887" lon="11.41095277195076"><ele>270.0</ele><time>2026-04-25T12:52:16Z</time></trkpt><trkpt lat="43.3603778300886" lon="11.410920607920573"><ele>270.0</ele><time>2026-04-25T12:52:17Z</time></trkpt><trkpt lat="43.36044411880438" lon="11.410889254939928"><ele>270.0</ele><time>2026-04-25T12:52:18Z</time></trkpt><trkpt lat="43.360528706744084" lon="11.410844297965019"><ele>270.0</ele><time>2026-04-25T12:52:19Z</time></trkpt><trkpt lat="43.36061545924464" lon="11.410776401263638"><ele>271.3333333333333</ele><time>2026-04-25T12:52:20Z</time></trkpt><trkpt lat="43.36069727837156" lon="11.41073679983415"><ele>272.6666666666667</ele><time>2026-04-25T12:52:21Z</time></trkpt><trkpt lat="43.360764942769606" lon="11.410655260850934"><ele>274.0</ele><time>2026-04-25T12:52:22Z</time></trkpt><trkpt lat="43.36082269437772" lon="11.410596685881675"><ele>275.33333333333337</ele><time>2026-04-25T12:52:23Z</time></trkpt><trkpt lat="43.36084478644221" lon="11.41049343393343"><ele>276.6666666666667</ele><time>2026-04-25T12:52:24Z</time></trkpt><trkpt lat="43.360879107870524" lon="11.410406430461236"><ele>278.0</ele><time>2026-04-25T12:52:25Z</time></trkpt><trkpt lat="43.360891393566305" lon="11.41027012339432"><ele>278.6</ele><time>2026-04-25T12:52:26Z</time></trkpt><trkpt lat="43.360870675763344" lon="11.410136307225773"><ele>279.20000000000005</ele><time>2026-04-25T12:52:27Z</time></trkpt><trkpt lat="43.36084168410084" lon="11.410000012606382"><ele>279.8</ele><time>2026-04-25T12:52:28Z</time></trkpt><trkpt lat="43.36079912836048" lon="11.409893037323616"><ele>280.40000000000003</ele><time>2026-04-25T12:52:29Z</time></trkpt><trkpt lat="43.36077166232556" lon="11.40976802707729"><ele>281.0</ele><time>2026-04-25T12:52:30Z</time></trkpt><trkpt lat="43.36072617698625" lon="11.409644152612247"><ele>280.8</ele><time>2026-04-25T12:52:31Z</time></trkpt><trkpt lat="43.360667563875495" lon="11.40953201665116"><ele>280.6</ele><time>2026-04-25T12:52:32Z</time></trkpt><trkpt lat="43.360619470304385" lon="11.40939652637384"><ele>280.4</ele><time>2026-04-25T12:52:33Z</time></trkpt><trkpt lat="43.360562667524924" lon="11.409283799159978"><ele>280.2</ele><time>2026-04-25T12:52:34Z</time></trkpt><trkpt lat="43.36050161283699" lon="11.409164366759457"><ele>280.0</ele><time>2026-04-25T12:52:35Z</time></trkpt><trkpt lat="43.36044132823061" lon="11.409051326889644"><ele>280.0</ele><time>2026-04-25T12:52:36Z</time></trkpt><trkpt lat="43.36037712785952" lon="11.408952640633869"><ele>280.0</ele><time>2026-04-25T12:52:37Z</time></trkpt><trkpt lat="43.36030279387595" lon="11.408857176685304"><ele>280.0</ele><time>2026-04-25T12:52:38Z</time></trkpt><trkpt lat="43.360210958040334" lon="11.408767927698273"><ele>280.0</ele><time>2026-04-25T12:52:39Z</time></trkpt><trkpt lat="43.36010071948031" lon="11.408680908574999"><ele>280.0</ele><time>2026-04-25T12:52:40Z</time></trkpt><trkpt lat="43.359966512122185" lon="11.408572508516537"><ele>281.8</ele><time>2026-04-25T12:52:41Z</time></trkpt><trkpt lat="43.3598577420549" lon="11.408480500305213"><ele>283.6</ele><time>2026-04-25T12:52:42Z</time></trkpt><trkpt lat="43.35976174595886" lon="11.408411210323983"><ele>285.4</ele><time>2026-04-25T12:52:43Z</time></trkpt><trkpt lat="43.35967920919612" lon="11.408341346741548"><ele>287.2</ele><time>2026-04-25T12:52:44Z</time></trkpt><trkpt lat="43.35960315828413" lon="11.408269521353033"><ele>289.0</ele><time>2026-04-25T12:52:45Z</time></trkpt><trkpt lat="43.35954191984041" lon="11.408196170316927"><ele>289.0</ele><time>2026-04-25T12:52:46Z</time></trkpt><trkpt lat="43.359501783433075" lon="11.408111974471268"><ele>289.0</ele><time>2026-04-25T12:52:47Z</time></trkpt><trkpt lat="43.35948215849351" lon="11.408006340155342"><ele>289.0</ele><time>2026-04-25T12:52:48Z</time></trkpt><trkpt lat="43.35947944819749" lon="11.40789994880854"><ele>289.0</ele><time>2026-04-25T12:52:49Z</time></trkpt><trkpt lat="43.35948797220996" lon="11.40780043056188"><ele>289.0</ele><time>2026-04-25T12:52:50Z</time></trkpt><trkpt lat="43.359532023079204" lon="11.407709876875618"><ele>289.0</ele><time>2026-04-25T12:52:51Z</time></trkpt><trkpt lat="43.35957655734439" lon="11.407625739650152"><ele>289.8571428571429</ele><time>2026-04-25T12:52:52Z</time></trkpt><trkpt lat="43.35962738491997" lon="11.40755447671812"><ele>290.7142857142857</ele><time>2026-04-25T12:52:53Z</time></trkpt><trkpt lat="43.35967807431484" lon="11.40749574864791"><ele>291.57142857142856</ele><time>2026-04-25T12:52:54Z</time></trkpt><trkpt lat="43.359736205506934" lon="11.4074465588652"><ele>292.42857142857144</ele><time>2026-04-25T12:52:55Z</time></trkpt><trkpt lat="43.359799874984425" lon="11.407426543305672"><ele>293.2857142857143</ele><time>2026-04-25T12:52:56Z</time></trkpt><trkpt lat="43.35987389098326" lon="11.407416153400854"><ele>294.14285714285717</ele><time>2026-04-25T12:52:57Z</time></trkpt><trkpt lat="43.359947608546214" lon="11.407433472026817"><ele>295.0</ele><time>2026-04-25T12:52:58Z</time></trkpt><trkpt lat="43.36003624043559" lon="11.407452473750123"><ele>295.0</ele><time>2026-04-25T12:52:59Z</time></trkpt><trkpt lat="43.36012716130235" lon="11.407475666201245"><ele>295.0</ele><time>2026-04-25T12:53:00Z</time></trkpt><trkpt lat="43.36022721439086" lon="11.407500467628955"><ele>295.0</ele><time>2026-04-25T12:53:01Z</time></trkpt><trkpt lat="43.360335009642334" lon="11.407521498841565"><ele>295.0</ele><time>2026-04-25T12:53:02Z</time></trkpt><trkpt lat="43.36044832863345" lon="11.407539788110688"><ele>295.0</ele><time>2026-04-25T12:53:03Z</time></trkpt><trkpt lat="43.36055772640938" lon="11.407556299519483"><ele>295.75</ele><time>2026-04-25T12:53:04Z</time></trkpt><trkpt lat="43.36067078679473" lon="11.407571361054975"><ele>296.5</ele><time>2026-04-25T12:53:05Z</time></trkpt><trkpt lat="43.360784100917" lon="11.407581869027027"><ele>297.25</ele><time>2026-04-25T12:53:06Z</time></trkpt><trkpt lat="43.36090117038656" lon="11.407579571744899"><ele>298.0</ele><time>2026-04-25T12:53:07Z</time></trkpt><trkpt lat="43.36102651124222" lon="11.4075670638023"><ele>298.0</ele><time>2026-04-25T12:53:08Z</time></trkpt><trkpt lat="43.36117019484468" lon="11.407552041081576"><ele>298.0</ele><time>2026-04-25T12:53:09Z</time></trkpt><trkpt lat="43.36129704546111" lon="11.407535376844933"><ele>298.0</ele><time>2026-04-25T12:53:10Z</time></trkpt><trkpt lat="43.36142266879799" lon="11.40751325171456"><ele>298.0</ele><time>2026-04-25T12:53:11Z</time></trkpt><trkpt lat="43.36154758753091" lon="11.40748441931019"><ele>300.0</ele><time>2026-04-25T12:53:12Z</time></trkpt><trkpt lat="43.36166994741138" lon="11.407453029871043"><ele>302.0</ele><time>2026-04-25T12:53:13Z</time></trkpt><trkpt lat="43.36179484054503" lon="11.407419499961035"><ele>304.0</ele><time>2026-04-25T12:53:14Z</time></trkpt><trkpt lat="43.36193077594739" lon="11.407383005529002"><ele>306.0</ele><time>2026-04-25T12:53:15Z</time></trkpt><trkpt lat="43.36208122753051" lon="11.407342613951663"><ele>307.25</ele><time>2026-04-25T12:53:16Z</time></trkpt><trkpt lat="43.362238585040274" lon="11.407297777995442"><ele>308.5</ele><time>2026-04-25T12:53:17Z</time></trkpt><trkpt lat="43.362382901241915" lon="11.407253337033449"><ele>309.75</ele><time>2026-04-25T12:53:18Z</time></trkpt><trkpt lat="43.36251283441654" lon="11.407193929099078"><ele>311.0</ele><time>2026-04-25T12:53:19Z</time></trkpt><trkpt lat="43.36265142580531" lon="11.407143588028879"><ele>311.0</ele><time>2026-04-25T12:53:20Z</time></trkpt><trkpt lat="43.362771934611985" lon="11.407095088878883"><ele>311.0</ele><time>2026-04-25T12:53:21Z</time></trkpt><trkpt lat="43.36288862019898" lon="11.407037825169976"><ele>311.0</ele><time>2026-04-25T12:53:22Z</time></trkpt><trkpt lat="43.363004752620576" lon="11.406976286511082"><ele>311.0</ele><time>2026-04-25T12:53:23Z</time></trkpt><trkpt lat="43.363120461083874" lon="11.406911936667475"><ele>313.0</ele><time>2026-04-25T12:53:24Z</time></trkpt><trkpt lat="43.36323347659905" lon="11.40684047849308"><ele>315.0</ele><time>2026-04-25T12:53:25Z</time></trkpt><trkpt lat="43.36334841507343" lon="11.40676598477361"><ele>317.0</ele><time>2026-04-25T12:53:26Z</time></trkpt><trkpt lat="43.36345031924551" lon="11.406688711392656"><ele>319.0</ele><time>2026-04-25T12:53:27Z</time></trkpt><trkpt lat="43.36355953823306" lon="11.406613380847459"><ele>319.0</ele><time>2026-04-25T12:53:28Z</time></trkpt><trkpt lat="43.36366775595096" lon="11.40653867584294"><ele>319.0</ele><time>2026-04-25T12:53:29Z</time></trkpt><trkpt lat="43.36378813446765" lon="11.406473008402203"><ele>319.0</ele><time>2026-04-25T12:53:30Z</time></trkpt><trkpt lat="43.36389448983799" lon="11.406394180914866"><ele>319.0</ele><time>2026-04-25T12:53:31Z</time></trkpt><trkpt lat="43.363999973091836" lon="11.406315096804702"><ele>321.5</ele><time>2026-04-25T12:53:32Z</time></trkpt><trkpt lat="43.364119673084936" lon="11.406243558123355"><ele>324.0</ele><time>2026-04-25T12:53:33Z</time></trkpt><trkpt lat="43.36423171169086" lon="11.40616329665673"><ele>326.5</ele><time>2026-04-25T12:53:34Z</time></trkpt><trkpt lat="43.364335814137256" lon="11.406096463496972"><ele>329.0</ele><time>2026-04-25T12:53:35Z</time></trkpt><trkpt lat="43.364429498913246" lon="11.406046496932644"><ele>329.0</ele><time>2026-04-25T12:53:36Z</time></trkpt><trkpt lat="43.36450759283773" lon="11.406009604006828"><ele>329.0</ele><time>2026-04-25T12:53:37Z</time></trkpt><trkpt lat="43.36457759988243" lon="11.406007753206195"><ele>329.0</ele><time>2026-04-25T12:53:38Z</time></trkpt><trkpt lat="43.3646312384495" lon="11.406055236723589"><ele>329.0</ele><time>2026-04-25T12:53:39Z</time></trkpt><trkpt lat="43.36472693168926" lon="11.40614183971869"><ele>329.0</ele><time>2026-04-25T12:53:41Z</time></trkpt><trkpt lat="43.3647787978982" lon="11.406243719962928"><ele>329.0</ele><time>2026-04-25T12:53:42Z</time></trkpt><trkpt lat="43.364857138275305" lon="11.406318644878642"><ele>330.6666666666667</ele><time>2026-04-25T12:53:43Z</time></trkpt><trkpt lat="43.364923417875225" lon="11.406392305030431"><ele>332.33333333333337</ele><time>2026-04-25T12:53:44Z</time></trkpt><trkpt lat="43.364976552377314" lon="11.406470935064522"><ele>334.0</ele><time>2026-04-25T12:53:45Z</time></trkpt><trkpt lat="43.365051925378886" lon="11.406505137174424"><ele>335.6666666666667</ele><time>2026-04-25T12:53:46Z</time></trkpt><trkpt lat="43.365148337585964" lon="11.406505042262058"><ele>337.3333333333333</ele><time>2026-04-25T12:53:47Z</time></trkpt><trkpt lat="43.36524313587879" lon="11.406470575948381"><ele>339.0</ele><time>2026-04-25T12:53:48Z</time></trkpt><trkpt lat="43.36534971890258" lon="11.40642812684977"><ele>339.0</ele><time>2026-04-25T12:53:49Z</time></trkpt><trkpt lat="43.36547732944215" lon="11.406376867239477"><ele>339.0</ele><time>2026-04-25T12:53:50Z</time></trkpt><trkpt lat="43.36560636521116" lon="11.406302145972502"><ele>339.0</ele><time>2026-04-25T12:53:51Z</time></trkpt><trkpt lat="43.365721039674185" lon="11.406267013077622"><ele>339.0</ele><time>2026-04-25T12:53:52Z</time></trkpt><trkpt lat="43.36580309823727" lon="11.406216541345954"><ele>340.0</ele><time>2026-04-25T12:53:53Z</time></trkpt><trkpt lat="43.36586996247452" lon="11.406169469630097"><ele>341.0</ele><time>2026-04-25T12:53:54Z</time></trkpt><trkpt lat="43.36594903734483" lon="11.406118109203613"><ele>342.0</ele><time>2026-04-25T12:53:55Z</time></trkpt><trkpt lat="43.36601162166612" lon="11.405991580220016"><ele>343.0</ele><time>2026-04-25T12:53:56Z</time></trkpt><trkpt lat="43.36606794428055" lon="11.405855034259563"><ele>344.0</ele><time>2026-04-25T12:53:57Z</time></trkpt><trkpt lat="43.36614195337693" lon="11.40566930740371"><ele>345.33333333333337</ele><time>2026-04-25T12:53:58Z</time></trkpt><trkpt lat="43.36621977972906" lon="11.405474001118778"><ele>346.6666666666667</ele><time>2026-04-25T12:53:59Z</time></trkpt><trkpt lat="43.3662982285766" lon="11.405275958924246"><ele>348.0</ele><time>2026-04-25T12:54:00Z</time></trkpt><trkpt lat="43.36634839655514" lon="11.405102638362067"><ele>348.25</ele><time>2026-04-25T12:54:01Z</time></trkpt><trkpt lat="43.36642791014966" lon="11.404962538104078"><ele>348.5</ele><time>2026-04-25T12:54:02Z</time></trkpt><trkpt lat="43.366478800056974" lon="11.404815666035017"><ele>348.75</ele><time>2026-04-25T12:54:03Z</time></trkpt><trkpt lat="43.36655330551171" lon="11.404692075390924"><ele>349.0</ele><time>2026-04-25T12:54:04Z</time></trkpt><trkpt lat="43.36663337116054" lon="11.404577829916066"><ele>349.0</ele><time>2026-04-25T12:54:05Z</time></trkpt><trkpt lat="43.36672953371829" lon="11.404499001424904"><ele>349.0</ele><time>2026-04-25T12:54:06Z</time></trkpt><trkpt lat="43.36682329632644" lon="11.404418661608572"><ele>349.0</ele><time>2026-04-25T12:54:07Z</time></trkpt><trkpt lat="43.36693535485325" lon="11.404353961364095"><ele>349.0</ele><time>2026-04-25T12:54:08Z</time></trkpt><trkpt lat="43.367042967003776" lon="11.404311421034652"><ele>349.0</ele><time>2026-04-25T12:54:09Z</time></trkpt><trkpt lat="43.36715679064556" lon="11.404293292403864"><ele>349.0</ele><time>2026-04-25T12:54:10Z</time></trkpt><trkpt lat="43.36726916413138" lon="11.404293839014102"><ele>349.0</ele><time>2026-04-25T12:54:11Z</time></trkpt><trkpt lat="43.36738549174877" lon="11.404304636828405"><ele>349.0</ele><time>2026-04-25T12:54:12Z</time></trkpt><trkpt lat="43.36750363771152" lon="11.404318622223292"><ele>349.0</ele><time>2026-04-25T12:54:13Z</time></trkpt><trkpt lat="43.36762576279194" lon="11.404341997461847"><ele>349.0</ele><time>2026-04-25T12:54:14Z</time></trkpt><trkpt lat="43.367746787032615" lon="11.404362624461575"><ele>349.0</ele><time>2026-04-25T12:54:15Z</time></trkpt><trkpt lat="43.36787152452015" lon="11.40438509147489"><ele>349.0</ele><time>2026-04-25T12:54:16Z</time></trkpt><trkpt lat="43.368001899997594" lon="11.404408973196912"><ele>349.75</ele><time>2026-04-25T12:54:17Z</time></trkpt><trkpt lat="43.36812844608958" lon="11.404432153478451"><ele>350.5</ele><time>2026-04-25T12:54:18Z</time></trkpt><trkpt lat="43.36824944841019" lon="11.404454318271904"><ele>351.25</ele><time>2026-04-25T12:54:19Z</time></trkpt><trkpt lat="43.368386563048716" lon="11.404478569110177"><ele>352.0</ele><time>2026-04-25T12:54:20Z</time></trkpt><trkpt lat="43.3685244883911" lon="11.404502070644153"><ele>352.0</ele><time>2026-04-25T12:54:21Z</time></trkpt><trkpt lat="43.368665572329505" lon="11.404506448340408"><ele>352.0</ele><time>2026-04-25T12:54:22Z</time></trkpt><trkpt lat="43.36880672993301" lon="11.404532758474835"><ele>352.0</ele><time>2026-04-25T12:54:23Z</time></trkpt><trkpt lat="43.36892047717794" lon="11.404518959872211"><ele>352.0</ele><time>2026-04-25T12:54:24Z</time></trkpt><trkpt lat="43.36902955887104" lon="11.40449720706746"><ele>352.75</ele><time>2026-04-25T12:54:25Z</time></trkpt><trkpt lat="43.36915845378285" lon="11.404477329364818"><ele>353.5</ele><time>2026-04-25T12:54:26Z</time></trkpt><trkpt lat="43.369286429853794" lon="11.404464643706204"><ele>354.25</ele><time>2026-04-25T12:54:27Z</time></trkpt><trkpt lat="43.36941282686514" lon="11.404464342260672"><ele>355.0</ele><time>2026-04-25T12:54:28Z</time></trkpt><trkpt lat="43.36953967109349" lon="11.40449054173288"><ele>355.0</ele><time>2026-04-25T12:54:29Z</time></trkpt><trkpt lat="43.36966553257439" lon="11.404494454823574"><ele>355.0</ele><time>2026-04-25T12:54:30Z</time></trkpt><trkpt lat="43.36980035613376" lon="11.404500148593254"><ele>355.0</ele><time>2026-04-25T12:54:31Z</time></trkpt><trkpt lat="43.36994428689262" lon="11.404508100319845"><ele>355.0</ele><time>2026-04-25T12:54:32Z</time></trkpt><trkpt lat="43.370089632031686" lon="11.404516130176082"><ele>356.5</ele><time>2026-04-25T12:54:33Z</time></trkpt><trkpt lat="43.37022926072192" lon="11.404523844224292"><ele>358.0</ele><time>2026-04-25T12:54:34Z</time></trkpt><trkpt lat="43.370358890580505" lon="11.404531005863964"><ele>359.5</ele><time>2026-04-25T12:54:35Z</time></trkpt><trkpt lat="43.37047675802186" lon="11.404527456085487"><ele>361.0</ele><time>2026-04-25T12:54:36Z</time></trkpt><trkpt lat="43.370588416528626" lon="11.404511595978118"><ele>362.0</ele><time>2026-04-25T12:54:37Z</time></trkpt><trkpt lat="43.37069361376412" lon="11.404485159343684"><ele>363.0</ele><time>2026-04-25T12:54:38Z</time></trkpt><trkpt lat="43.370793024779054" lon="11.404443659473499"><ele>364.0</ele><time>2026-04-25T12:54:39Z</time></trkpt><trkpt lat="43.37089064794331" lon="11.404371428213965"><ele>365.0</ele><time>2026-04-25T12:54:40Z</time></trkpt><trkpt lat="43.37097750859805" lon="11.404273660556843"><ele>366.0</ele><time>2026-04-25T12:54:41Z</time></trkpt><trkpt lat="43.37105349540889" lon="11.404137563228524"><ele>366.0</ele><time>2026-04-25T12:54:42Z</time></trkpt><trkpt lat="43.37111647954527" lon="11.403990676285616"><ele>366.0</ele><time>2026-04-25T12:54:43Z</time></trkpt><trkpt lat="43.37117807605983" lon="11.403844347219103"><ele>366.0</ele><time>2026-04-25T12:54:44Z</time></trkpt><trkpt lat="43.37124354661135" lon="11.403687000910772"><ele>366.0</ele><time>2026-04-25T12:54:45Z</time></trkpt><trkpt lat="43.37131002564278" lon="11.403526888121979"><ele>367.5</ele><time>2026-04-25T12:54:46Z</time></trkpt><trkpt lat="43.3713757672178" lon="11.403368551483648"><ele>369.0</ele><time>2026-04-25T12:54:47Z</time></trkpt><trkpt lat="43.37144123664977" lon="11.403210870273309"><ele>370.5</ele><time>2026-04-25T12:54:48Z</time></trkpt><trkpt lat="43.37152560159765" lon="11.403009195249334"><ele>372.0</ele><time>2026-04-25T12:54:49Z</time></trkpt><trkpt lat="43.37159377600917" lon="11.4028470035714"><ele>373.75</ele><time>2026-04-25T12:54:50Z</time></trkpt><trkpt lat="43.37164871184532" lon="11.402689439177449"><ele>375.5</ele><time>2026-04-25T12:54:51Z</time></trkpt><trkpt lat="43.37172096873979" lon="11.402541505338563"><ele>377.25</ele><time>2026-04-25T12:54:52Z</time></trkpt><trkpt lat="43.37178717219535" lon="11.402386302699421"><ele>379.0</ele><time>2026-04-25T12:54:53Z</time></trkpt><trkpt lat="43.371837190827364" lon="11.402248719566247"><ele>379.4</ele><time>2026-04-25T12:54:54Z</time></trkpt><trkpt lat="43.37186397233721" lon="11.402108164953217"><ele>379.79999999999995</ele><time>2026-04-25T12:54:55Z</time></trkpt><trkpt lat="43.371867565918976" lon="11.401973158238674"><ele>380.20000000000005</ele><time>2026-04-25T12:54:56Z</time></trkpt><trkpt lat="43.37187832751224" lon="11.401851300860368"><ele>380.6</ele><time>2026-04-25T12:54:57Z</time></trkpt><trkpt lat="43.37191373256644" lon="11.40174414531725"><ele>381.0</ele><time>2026-04-25T12:54:58Z</time></trkpt><trkpt lat="43.3719583914" lon="11.401643194464103"><ele>381.0</ele><time>2026-04-25T12:54:59Z</time></trkpt><trkpt lat="43.37201697032764" lon="11.401551112932752"><ele>381.0</ele><time>2026-04-25T12:55:00Z</time></trkpt><trkpt lat="43.37210071828321" lon="11.401467682436332"><ele>381.0</ele><time>2026-04-25T12:55:01Z</time></trkpt><trkpt lat="43.372202428156456" lon="11.401364673983513"><ele>381.0</ele><time>2026-04-25T12:55:02Z</time></trkpt><trkpt lat="43.37229847911435" lon="11.401268289985195"><ele>381.0</ele><time>2026-04-25T12:55:03Z</time></trkpt><trkpt lat="43.372403358869725" lon="11.401136824979064"><ele>382.25</ele><time>2026-04-25T12:55:04Z</time></trkpt><trkpt lat="43.37252052080742" lon="11.40102693097908"><ele>383.5</ele><time>2026-04-25T12:55:05Z</time></trkpt><trkpt lat="43.37260938004818" lon="11.40092925909391"><ele>384.75</ele><time>2026-04-25T12:55:06Z</time></trkpt><trkpt lat="43.372685902097764" lon="11.400833131588344"><ele>386.0</ele><time>2026-04-25T12:55:07Z</time></trkpt><trkpt lat="43.372779166781015" lon="11.400736767163208"><ele>386.0</ele><time>2026-04-25T12:55:08Z</time></trkpt><trkpt lat="43.372876376865186" lon="11.400626973625013"><ele>386.0</ele><time>2026-04-25T12:55:09Z</time></trkpt><trkpt lat="43.37295643113091" lon="11.400506556485647"><ele>386.0</ele><time>2026-04-25T12:55:10Z</time></trkpt><trkpt lat="43.37305349269205" lon="11.400429872913218"><ele>386.0</ele><time>2026-04-25T12:55:11Z</time></trkpt><trkpt lat="43.373154100344955" lon="11.400337369754128"><ele>385.25</ele><time>2026-04-25T12:55:12Z</time></trkpt><trkpt lat="43.373253849437994" lon="11.400248742445482"><ele>384.5</ele><time>2026-04-25T12:55:13Z</time></trkpt><trkpt lat="43.3733560430617" lon="11.400194934398801"><ele>383.75</ele><time>2026-04-25T12:55:14Z</time></trkpt><trkpt lat="43.373463251841606" lon="11.400152959105114"><ele>383.0</ele><time>2026-04-25T12:55:15Z</time></trkpt><trkpt lat="43.37357653301431" lon="11.40010441040018"><ele>383.0</ele><time>2026-04-25T12:55:16Z</time></trkpt><trkpt lat="43.37368767616141" lon="11.400059247118328"><ele>383.0</ele><time>2026-04-25T12:55:17Z</time></trkpt><trkpt lat="43.37380689774333" lon="11.400010676048574"><ele>383.0</ele><time>2026-04-25T12:55:18Z</time></trkpt><trkpt lat="43.373931156917095" lon="11.399952630671779"><ele>383.0</ele><time>2026-04-25T12:55:19Z</time></trkpt><trkpt lat="43.374050966651595" lon="11.39988592142153"><ele>383.0</ele><time>2026-04-25T12:55:20Z</time></trkpt><trkpt lat="43.37417111360184" lon="11.399809790397798"><ele>383.0</ele><time>2026-04-25T12:55:21Z</time></trkpt><trkpt lat="43.374288438501715" lon="11.399717680417178"><ele>383.0</ele><time>2026-04-25T12:55:22Z</time></trkpt><trkpt lat="43.37441882006604" lon="11.399590735912625"><ele>383.0</ele><time>2026-04-25T12:55:23Z</time></trkpt><trkpt lat="43.37453486253811" lon="11.399440968570875"><ele>382.75</ele><time>2026-04-25T12:55:24Z</time></trkpt><trkpt lat="43.37466421062931" lon="11.399328531307141"><ele>382.5</ele><time>2026-04-25T12:55:25Z</time></trkpt><trkpt lat="43.37477646219369" lon="11.399202695053106"><ele>382.25</ele><time>2026-04-25T12:55:26Z</time></trkpt><trkpt lat="43.374883826513965" lon="11.399082338007723"><ele>382.0</ele><time>2026-04-25T12:55:27Z</time></trkpt><trkpt lat="43.37498657803394" lon="11.398967151895159"><ele>382.0</ele><time>2026-04-25T12:55:28Z</time></trkpt><trkpt lat="43.37509004518768" lon="11.398850238349269"><ele>382.0</ele><time>2026-04-25T12:55:29Z</time></trkpt><trkpt lat="43.375201913319785" lon="11.39873165782012"><ele>382.0</ele><time>2026-04-25T12:55:30Z</time></trkpt><trkpt lat="43.37531039880851" lon="11.398635620533762"><ele>382.0</ele><time>2026-04-25T12:55:31Z</time></trkpt><trkpt lat="43.37542936818229" lon="11.398546914653522"><ele>382.25</ele><time>2026-04-25T12:55:32Z</time></trkpt><trkpt lat="43.37554306707066" lon="11.39847658346096"><ele>382.5</ele><time>2026-04-25T12:55:33Z</time></trkpt><trkpt lat="43.375666955626684" lon="11.398418785120125"><ele>382.75</ele><time>2026-04-25T12:55:34Z</time></trkpt><trkpt lat="43.375779094366436" lon="11.398375570680379"><ele>383.0</ele><time>2026-04-25T12:55:35Z</time></trkpt><trkpt lat="43.375890489072894" lon="11.398333656773673"><ele>383.0</ele><time>2026-04-25T12:55:36Z</time></trkpt><trkpt lat="43.37600779201724" lon="11.398290658074567"><ele>383.0</ele><time>2026-04-25T12:55:37Z</time></trkpt><trkpt lat="43.376125049511614" lon="11.398249358007657"><ele>383.0</ele><time>2026-04-25T12:55:38Z</time></trkpt><trkpt lat="43.37622789252204" lon="11.398213626809238"><ele>383.0</ele><time>2026-04-25T12:55:39Z</time></trkpt><trkpt lat="43.376341924033056" lon="11.398172580874014"><ele>382.59999999999997</ele><time>2026-04-25T12:55:40Z</time></trkpt><trkpt lat="43.37643998377904" lon="11.398115395842785"><ele>382.2</ele><time>2026-04-25T12:55:41Z</time></trkpt><trkpt lat="43.37653653746267" lon="11.398075462293548"><ele>381.8</ele><time>2026-04-25T12:55:42Z</time></trkpt><trkpt lat="43.3766272713082" lon="11.398011983646795"><ele>381.4</ele><time>2026-04-25T12:55:43Z</time></trkpt><trkpt lat="43.376704792690944" lon="11.39793533494019"><ele>381.0</ele><time>2026-04-25T12:55:44Z</time></trkpt><trkpt lat="43.37679527796954" lon="11.39786707457752"><ele>382.25</ele><time>2026-04-25T12:55:45Z</time></trkpt><trkpt lat="43.376875345098036" lon="11.39778236832541"><ele>383.5</ele><time>2026-04-25T12:55:46Z</time></trkpt><trkpt lat="43.376986328172315" lon="11.397666555644518"><ele>384.75</ele><time>2026-04-25T12:55:47Z</time></trkpt><trkpt lat="43.37711415405511" lon="11.397538188044281"><ele>386.0</ele><time>2026-04-25T12:55:48Z</time></trkpt><trkpt lat="43.37721846671742" lon="11.397436474213187"><ele>386.0</ele><time>2026-04-25T12:55:49Z</time></trkpt><trkpt lat="43.37730997589716" lon="11.397365105138649"><ele>386.0</ele><time>2026-04-25T12:55:50Z</time></trkpt><trkpt lat="43.37741407531061" lon="11.397286371671091"><ele>386.0</ele><time>2026-04-25T12:55:51Z</time></trkpt><trkpt lat="43.37752211062699" lon="11.397215039555649"><ele>386.0</ele><time>2026-04-25T12:55:52Z</time></trkpt><trkpt lat="43.377630068794964" lon="11.397173288176658"><ele>386.75</ele><time>2026-04-25T12:55:53Z</time></trkpt><trkpt lat="43.377753439111785" lon="11.397153482173923"><ele>387.5</ele><time>2026-04-25T12:55:54Z</time></trkpt><trkpt lat="43.377895793447095" lon="11.3971411148686"><ele>388.25</ele><time>2026-04-25T12:55:55Z</time></trkpt><trkpt lat="43.37804126766277" lon="11.39710615815068"><ele>389.0</ele><time>2026-04-25T12:55:56Z</time></trkpt><trkpt lat="43.378176874667226" lon="11.397060999291469"><ele>390.66666666666663</ele><time>2026-04-25T12:55:57Z</time></trkpt><trkpt lat="43.37832429052477" lon="11.397012851554454"><ele>392.33333333333337</ele><time>2026-04-25T12:55:58Z</time></trkpt><trkpt lat="43.3784984024583" lon="11.396954661922553"><ele>394.0</ele><time>2026-04-25T12:55:59Z</time></trkpt><trkpt lat="43.37866319737828" lon="11.39689949759907"><ele>394.0</ele><time>2026-04-25T12:56:00Z</time></trkpt><trkpt lat="43.37882794245605" lon="11.396844349971213"><ele>394.0</ele><time>2026-04-25T12:56:01Z</time></trkpt><trkpt lat="43.37897177423866" lon="11.39679620295378"><ele>394.0</ele><time>2026-04-25T12:56:02Z</time></trkpt><trkpt lat="43.379106235224775" lon="11.396751192751093"><ele>395.5</ele><time>2026-04-25T12:56:03Z</time></trkpt><trkpt lat="43.379227132200874" lon="11.396711197329651"><ele>397.0</ele><time>2026-04-25T12:56:04Z</time></trkpt><trkpt lat="43.37936139291969" lon="11.396669805333406"><ele>398.5</ele><time>2026-04-25T12:56:05Z</time></trkpt><trkpt lat="43.37949992979358" lon="11.396631650767928"><ele>400.0</ele><time>2026-04-25T12:56:06Z</time></trkpt><trkpt lat="43.37963037587797" lon="11.396578361741893"><ele>401.0</ele><time>2026-04-25T12:56:07Z</time></trkpt><trkpt lat="43.379771122730595" lon="11.396553611437414"><ele>402.0</ele><time>2026-04-25T12:56:08Z</time></trkpt><trkpt lat="43.3799000777782" lon="11.396517508295961"><ele>403.0</ele><time>2026-04-25T12:56:09Z</time></trkpt><trkpt lat="43.380029009050226" lon="11.396479104526524"><ele>404.0</ele><time>2026-04-25T12:56:10Z</time></trkpt><trkpt lat="43.380179423239866" lon="11.396438026024486"><ele>404.0</ele><time>2026-04-25T12:56:11Z</time></trkpt><trkpt lat="43.38032823042686" lon="11.396424554620932"><ele>404.0</ele><time>2026-04-25T12:56:12Z</time></trkpt><trkpt lat="43.380477604367975" lon="11.39637088512892"><ele>404.0</ele><time>2026-04-25T12:56:13Z</time></trkpt><trkpt lat="43.38061629600297" lon="11.396334890364022"><ele>404.0</ele><time>2026-04-25T12:56:14Z</time></trkpt><trkpt lat="43.380759076420766" lon="11.396306456230787"><ele>405.0</ele><time>2026-04-25T12:56:15Z</time></trkpt><trkpt lat="43.380897401303756" lon="11.396286657591624"><ele>406.0</ele><time>2026-04-25T12:56:16Z</time></trkpt><trkpt lat="43.38104320036737" lon="11.396277099808403"><ele>407.0</ele><time>2026-04-25T12:56:17Z</time></trkpt><trkpt lat="43.3811866362791" lon="11.396271013919778"><ele>408.0</ele><time>2026-04-25T12:56:18Z</time></trkpt><trkpt lat="43.38133620796773" lon="11.396293235908182"><ele>408.5</ele><time>2026-04-25T12:56:19Z</time></trkpt><trkpt lat="43.381481487875256" lon="11.396284873966305"><ele>409.0</ele><time>2026-04-25T12:56:20Z</time></trkpt><trkpt lat="43.38162403364511" lon="11.396265498070576"><ele>409.5</ele><time>2026-04-25T12:56:21Z</time></trkpt><trkpt lat="43.38174946690754" lon="11.396246522270454"><ele>410.0</ele><time>2026-04-25T12:56:22Z</time></trkpt><trkpt lat="43.38187223421529" lon="11.396227949747374"><ele>410.0</ele><time>2026-04-25T12:56:23Z</time></trkpt><trkpt lat="43.382006548409706" lon="11.396207630499271"><ele>410.0</ele><time>2026-04-25T12:56:24Z</time></trkpt><trkpt lat="43.38213969356322" lon="11.396183390830041"><ele>410.0</ele><time>2026-04-25T12:56:25Z</time></trkpt><trkpt lat="43.38227570547098" lon="11.396157359452694"><ele>410.0</ele><time>2026-04-25T12:56:26Z</time></trkpt><trkpt lat="43.38241212415514" lon="11.396126022709913"><ele>411.0</ele><time>2026-04-25T12:56:27Z</time></trkpt><trkpt lat="43.382545161507586" lon="11.396090885967633"><ele>412.0</ele><time>2026-04-25T12:56:28Z</time></trkpt><trkpt lat="43.38268641867864" lon="11.396050668158956"><ele>413.0</ele><time>2026-04-25T12:56:29Z</time></trkpt><trkpt lat="43.38282210965185" lon="11.396007049820966"><ele>414.0</ele><time>2026-04-25T12:56:30Z</time></trkpt><trkpt lat="43.38295149397785" lon="11.395960492122333"><ele>415.0</ele><time>2026-04-25T12:56:31Z</time></trkpt><trkpt lat="43.38309989551893" lon="11.395903521875688"><ele>416.0</ele><time>2026-04-25T12:56:32Z</time></trkpt><trkpt lat="43.38323649384846" lon="11.395849743754017"><ele>417.0</ele><time>2026-04-25T12:56:33Z</time></trkpt><trkpt lat="43.38337980185107" lon="11.395793323960106"><ele>418.0</ele><time>2026-04-25T12:56:34Z</time></trkpt><trkpt lat="43.38354045640654" lon="11.395727483069189"><ele>418.0</ele><time>2026-04-25T12:56:35Z</time></trkpt><trkpt lat="43.38369880232121" lon="11.395662546624402"><ele>418.0</ele><time>2026-04-25T12:56:36Z</time></trkpt><trkpt lat="43.38384945073811" lon="11.395601773632281"><ele>418.0</ele><time>2026-04-25T12:56:37Z</time></trkpt><trkpt lat="43.383989652303356" lon="11.395548372172042"><ele>417.5</ele><time>2026-04-25T12:56:38Z</time></trkpt><trkpt lat="43.384122457363475" lon="11.39549866190371"><ele>417.0</ele><time>2026-04-25T12:56:39Z</time></trkpt><trkpt lat="43.38424722672216" lon="11.395451959532032"><ele>416.5</ele><time>2026-04-25T12:56:40Z</time></trkpt><trkpt lat="43.38436130876321" lon="11.395405986010344"><ele>416.0</ele><time>2026-04-25T12:56:41Z</time></trkpt><trkpt lat="43.38447238294186" lon="11.395355634694534"><ele>416.0</ele><time>2026-04-25T12:56:42Z</time></trkpt><trkpt lat="43.38458765432778" lon="11.395279360812426"><ele>416.0</ele><time>2026-04-25T12:56:43Z</time></trkpt><trkpt lat="43.3846941312088" lon="11.395170624624845"><ele>416.0</ele><time>2026-04-25T12:56:44Z</time></trkpt><trkpt lat="43.38479679138012" lon="11.395030117938163"><ele>416.0</ele><time>2026-04-25T12:56:45Z</time></trkpt><trkpt lat="43.38491271113427" lon="11.394850339627167"><ele>419.0</ele><time>2026-04-25T12:56:46Z</time></trkpt><trkpt lat="43.38503071585584" lon="11.39466754144813"><ele>422.0</ele><time>2026-04-25T12:56:47Z</time></trkpt><trkpt lat="43.3851694408233" lon="11.394469174479662"><ele>425.0</ele><time>2026-04-25T12:56:48Z</time></trkpt><trkpt lat="43.385304481718514" lon="11.39427369362508"><ele>425.0</ele><time>2026-04-25T12:56:49Z</time></trkpt><trkpt lat="43.38542548034171" lon="11.394092463759488"><ele>425.0</ele><time>2026-04-25T12:56:50Z</time></trkpt><trkpt lat="43.385552386708596" lon="11.393900880870184"><ele>425.0</ele><time>2026-04-25T12:56:51Z</time></trkpt><trkpt lat="43.38566347660553" lon="11.393733510229996"><ele>426.0</ele><time>2026-04-25T12:56:52Z</time></trkpt><trkpt lat="43.385769063774745" lon="11.393578508862046"><ele>427.0</ele><time>2026-04-25T12:56:53Z</time></trkpt><trkpt lat="43.38588064830585" lon="11.393418259265076"><ele>428.0</ele><time>2026-04-25T12:56:54Z</time></trkpt><trkpt lat="43.38598248743493" lon="11.393270962411208"><ele>428.0</ele><time>2026-04-25T12:56:55Z</time></trkpt><trkpt lat="43.38610289537152" lon="11.393092532404742"><ele>428.0</ele><time>2026-04-25T12:56:56Z</time></trkpt><trkpt lat="43.38618176381982" lon="11.392938686800363"><ele>428.0</ele><time>2026-04-25T12:56:57Z</time></trkpt><trkpt lat="43.3862691379421" lon="11.392814230867453"><ele>428.0</ele><time>2026-04-25T12:56:58Z</time></trkpt><trkpt lat="43.38636608508025" lon="11.392729253995151"><ele>428.75</ele><time>2026-04-25T12:56:59Z</time></trkpt><trkpt lat="43.38646527478852" lon="11.392632622839123"><ele>429.5</ele><time>2026-04-25T12:57:00Z</time></trkpt><trkpt lat="43.38657648805634" lon="11.392533478460436"><ele>430.25</ele><time>2026-04-25T12:57:01Z</time></trkpt><trkpt lat="43.38668470957897" lon="11.392438277620654"><ele>431.0</ele><time>2026-04-25T12:57:02Z</time></trkpt><trkpt lat="43.38678750547375" lon="11.392340709052425"><ele>431.0</ele><time>2026-04-25T12:57:03Z</time></trkpt><trkpt lat="43.38688548542468" lon="11.392235216387279"><ele>431.0</ele><time>2026-04-25T12:57:04Z</time></trkpt><trkpt lat="43.38698703580905" lon="11.392108437576772"><ele>431.0</ele><time>2026-04-25T12:57:05Z</time></trkpt><trkpt lat="43.38708968616084" lon="11.391935803931217"><ele>431.0</ele><time>2026-04-25T12:57:06Z</time></trkpt><trkpt lat="43.38718466351557" lon="11.391802197385559"><ele>431.75</ele><time>2026-04-25T12:57:07Z</time></trkpt><trkpt lat="43.387261125148584" lon="11.391673966119814"><ele>432.5</ele><time>2026-04-25T12:57:08Z</time></trkpt><trkpt lat="43.387339359656835" lon="11.39154386109205"><ele>433.25</ele><time>2026-04-25T12:57:09Z</time></trkpt><trkpt lat="43.3874331086979" lon="11.391413376486652"><ele>434.0</ele><time>2026-04-25T12:57:10Z</time></trkpt><trkpt lat="43.38751468037674" lon="11.39128167063097"><ele>434.5</ele><time>2026-04-25T12:57:11Z</time></trkpt><trkpt lat="43.38759625634929" lon="11.391152951184935"><ele>435.0</ele><time>2026-04-25T12:57:12Z</time></trkpt><trkpt lat="43.38769434067105" lon="11.391031796209857"><ele>435.5</ele><time>2026-04-25T12:57:13Z</time></trkpt><trkpt lat="43.38776684521396" lon="11.390894577614224"><ele>436.0</ele><time>2026-04-25T12:57:14Z</time></trkpt><trkpt lat="43.387843886418715" lon="11.390784305069975"><ele>436.0</ele><time>2026-04-25T12:57:15Z</time></trkpt><trkpt lat="43.38790597960698" lon="11.390678105073555"><ele>436.0</ele><time>2026-04-25T12:57:16Z</time></trkpt><trkpt lat="43.3879821283624" lon="11.390590067233694"><ele>436.0</ele><time>2026-04-25T12:57:17Z</time></trkpt><trkpt lat="43.38802525641889" lon="11.390483175850937"><ele>436.0</ele><time>2026-04-25T12:57:18Z</time></trkpt><trkpt lat="43.388070420503226" lon="11.390387840086868"><ele>436.0</ele><time>2026-04-25T12:57:19Z</time></trkpt><trkpt lat="43.388099297903594" lon="11.390274681567975"><ele>434.4</ele><time>2026-04-25T12:57:20Z</time></trkpt><trkpt lat="43.388112382992276" lon="11.390150722276708"><ele>432.8</ele><time>2026-04-25T12:57:21Z</time></trkpt><trkpt lat="43.38813214798229" lon="11.3900096801765"><ele>431.19999999999993</ele><time>2026-04-25T12:57:22Z</time></trkpt><trkpt lat="43.38815419174337" lon="11.389866433009898"><ele>429.59999999999997</ele><time>2026-04-25T12:57:23Z</time></trkpt><trkpt lat="43.38818665506884" lon="11.38971914983844"><ele>428.0</ele><time>2026-04-25T12:57:24Z</time></trkpt><trkpt lat="43.38823010669555" lon="11.389561404243171"><ele>427.75</ele><time>2026-04-25T12:57:25Z</time></trkpt><trkpt lat="43.388299731921926" lon="11.38942292857393"><ele>427.5</ele><time>2026-04-25T12:57:26Z</time></trkpt><trkpt lat="43.38836344987591" lon="11.389270004585873"><ele>427.25</ele><time>2026-04-25T12:57:27Z</time></trkpt><trkpt lat="43.388431878343795" lon="11.389112177993352"><ele>427.0</ele><time>2026-04-25T12:57:28Z</time></trkpt><trkpt lat="43.38850319753358" lon="11.388950616792188"><ele>427.6666666666667</ele><time>2026-04-25T12:57:29Z</time></trkpt><trkpt lat="43.388581061711115" lon="11.388774331496355"><ele>428.33333333333337</ele><time>2026-04-25T12:57:30Z</time></trkpt><trkpt lat="43.388670684107254" lon="11.388573049511363"><ele>429.0</ele><time>2026-04-25T12:57:31Z</time></trkpt><trkpt lat="43.38875537753098" lon="11.388385511364351"><ele>429.0</ele><time>2026-04-25T12:57:32Z</time></trkpt><trkpt lat="43.38883446588051" lon="11.388210384613135"><ele>429.0</ele><time>2026-04-25T12:57:33Z</time></trkpt><trkpt lat="43.38890870784949" lon="11.388040753613348"><ele>429.0</ele><time>2026-04-25T12:57:34Z</time></trkpt><trkpt lat="43.3889784053097" lon="11.387876718630075"><ele>429.0</ele><time>2026-04-25T12:57:35Z</time></trkpt><trkpt lat="43.38904491657977" lon="11.387703664862348"><ele>428.0</ele><time>2026-04-25T12:57:36Z</time></trkpt><trkpt lat="43.389098019044084" lon="11.38752390899861"><ele>427.0</ele><time>2026-04-25T12:57:37Z</time></trkpt><trkpt lat="43.389157512195" lon="11.387362782022349"><ele>426.0</ele><time>2026-04-25T12:57:38Z</time></trkpt><trkpt lat="43.389242146550245" lon="11.387224308581477"><ele>425.0</ele><time>2026-04-25T12:57:39Z</time></trkpt><trkpt lat="43.38932022699317" lon="11.387080201604713"><ele>425.0</ele><time>2026-04-25T12:57:40Z</time></trkpt><trkpt lat="43.38939630573529" lon="11.386936354880236"><ele>425.0</ele><time>2026-04-25T12:57:41Z</time></trkpt><trkpt lat="43.38946745712664" lon="11.386797230675903"><ele>425.0</ele><time>2026-04-25T12:57:42Z</time></trkpt><trkpt lat="43.38953303802455" lon="11.386659598445737"><ele>425.0</ele><time>2026-04-25T12:57:43Z</time></trkpt><trkpt lat="43.389597416846755" lon="11.386522587076886"><ele>425.0</ele><time>2026-04-25T12:57:44Z</time></trkpt><trkpt lat="43.38965554561256" lon="11.386392633466766"><ele>425.0</ele><time>2026-04-25T12:57:45Z</time></trkpt><trkpt lat="43.38970945627475" lon="11.38625887278283"><ele>425.0</ele><time>2026-04-25T12:57:46Z</time></trkpt><trkpt lat="43.38974244798308" lon="11.386112037838895"><ele>425.0</ele><time>2026-04-25T12:57:47Z</time></trkpt><trkpt lat="43.38978613505958" lon="11.38600101191491"><ele>425.0</ele><time>2026-04-25T12:57:48Z</time></trkpt><trkpt lat="43.38981690117171" lon="11.385907954088255"><ele>424.4</ele><time>2026-04-25T12:57:49Z</time></trkpt><trkpt lat="43.38985944065001" lon="11.385781301724846"><ele>423.8</ele><time>2026-04-25T12:57:51Z</time></trkpt><trkpt lat="43.38989347377284" lon="11.385694216715953"><ele>423.20000000000005</ele><time>2026-04-25T12:57:53Z</time></trkpt><trkpt lat="43.390012244760044" lon="11.38563065232733"><ele>422.6</ele><time>2026-04-25T12:57:55Z</time></trkpt><trkpt lat="43.390091122317806" lon="11.385576909513276"><ele>422.0</ele><time>2026-04-25T12:57:56Z</time></trkpt><trkpt lat="43.39018075529791" lon="11.385518334920608"><ele>422.20000000000005</ele><time>2026-04-25T12:57:57Z</time></trkpt><trkpt lat="43.39028177663566" lon="11.385454113321819"><ele>422.4</ele><time>2026-04-25T12:57:58Z</time></trkpt><trkpt lat="43.390373434317766" lon="11.38539584446282"><ele>422.6</ele><time>2026-04-25T12:57:59Z</time></trkpt><trkpt lat="43.390455865134186" lon="11.385341349678152"><ele>422.79999999999995</ele><time>2026-04-25T12:58:00Z</time></trkpt><trkpt lat="43.39053778126493" lon="11.38525688834732"><ele>423.0</ele><time>2026-04-25T12:58:01Z</time></trkpt><trkpt lat="43.390630087853445" lon="11.385188302243014"><ele>423.25</ele><time>2026-04-25T12:58:02Z</time></trkpt><trkpt lat="43.3907376710677" lon="11.385103175858587"><ele>423.5</ele><time>2026-04-25T12:58:03Z</time></trkpt><trkpt lat="43.39084765972205" lon="11.385006716125522"><ele>423.75</ele><time>2026-04-25T12:58:04Z</time></trkpt><trkpt lat="43.390970120793355" lon="11.384889467918647"><ele>424.0</ele><time>2026-04-25T12:58:05Z</time></trkpt><trkpt lat="43.39108304790516" lon="11.38478550606999"><ele>423.75</ele><time>2026-04-25T12:58:06Z</time></trkpt><trkpt lat="43.39120052068197" lon="11.384678819964137"><ele>423.5</ele><time>2026-04-25T12:58:07Z</time></trkpt><trkpt lat="43.39131366178403" lon="11.384576254832849"><ele>423.25</ele><time>2026-04-25T12:58:08Z</time></trkpt><trkpt lat="43.39143301746128" lon="11.384473808274645"><ele>423.0</ele><time>2026-04-25T12:58:09Z</time></trkpt><trkpt lat="43.39153394232851" lon="11.384383002158025"><ele>423.4</ele><time>2026-04-25T12:58:10Z</time></trkpt><trkpt lat="43.39162347664526" lon="11.384294471670394"><ele>423.79999999999995</ele><time>2026-04-25T12:58:11Z</time></trkpt><trkpt lat="43.39171860298369" lon="11.384225561521728"><ele>424.2</ele><time>2026-04-25T12:58:12Z</time></trkpt><trkpt lat="43.391801214903" lon="11.384115415007006"><ele>424.6</ele><time>2026-04-25T12:58:13Z</time></trkpt><trkpt lat="43.39186562887353" lon="11.383997220628999"><ele>425.0</ele><time>2026-04-25T12:58:14Z</time></trkpt><trkpt lat="43.391899081751504" lon="11.383843611715552"><ele>425.25</ele><time>2026-04-25T12:58:15Z</time></trkpt><trkpt lat="43.39193717651991" lon="11.383692071289897"><ele>425.5</ele><time>2026-04-25T12:58:16Z</time></trkpt><trkpt lat="43.391962676052366" lon="11.383527547799812"><ele>425.75</ele><time>2026-04-25T12:58:17Z</time></trkpt><trkpt lat="43.391980143187425" lon="11.383360673703221"><ele>426.0</ele><time>2026-04-25T12:58:18Z</time></trkpt><trkpt lat="43.392000322718125" lon="11.38319905551074"><ele>426.0</ele><time>2026-04-25T12:58:19Z</time></trkpt><trkpt lat="43.392033284277545" lon="11.383038512996206"><ele>426.0</ele><time>2026-04-25T12:58:20Z</time></trkpt><trkpt lat="43.392087928505404" lon="11.38288637762315"><ele>426.0</ele><time>2026-04-25T12:58:21Z</time></trkpt><trkpt lat="43.39216121224788" lon="11.382746398308418"><ele>426.0</ele><time>2026-04-25T12:58:22Z</time></trkpt><trkpt lat="43.39225149179123" lon="11.382618485882734"><ele>425.75</ele><time>2026-04-25T12:58:23Z</time></trkpt><trkpt lat="43.39235519960624" lon="11.382505137259155"><ele>425.5</ele><time>2026-04-25T12:58:24Z</time></trkpt><trkpt lat="43.39245907845685" lon="11.382395991538498"><ele>425.25</ele><time>2026-04-25T12:58:25Z</time></trkpt><trkpt lat="43.392567036922436" lon="11.38230093839721"><ele>425.0</ele><time>2026-04-25T12:58:26Z</time></trkpt><trkpt lat="43.39268221286763" lon="11.382204489513827"><ele>425.25</ele><time>2026-04-25T12:58:27Z</time></trkpt><trkpt lat="43.39278616649059" lon="11.382125923490275"><ele>425.5</ele><time>2026-04-25T12:58:28Z</time></trkpt><trkpt lat="43.39290452445409" lon="11.382042739235391"><ele>425.75</ele><time>2026-04-25T12:58:29Z</time></trkpt><trkpt lat="43.39300716921323" lon="11.381948375044788"><ele>426.0</ele><time>2026-04-25T12:58:30Z</time></trkpt><trkpt lat="43.39311976371842" lon="11.381878550854326"><ele>424.75</ele><time>2026-04-25T12:58:31Z</time></trkpt><trkpt lat="43.39323221187524" lon="11.381792933387015"><ele>423.5</ele><time>2026-04-25T12:58:32Z</time></trkpt><trkpt lat="43.3933453950472" lon="11.381696916629242"><ele>422.25</ele><time>2026-04-25T12:58:33Z</time></trkpt><trkpt lat="43.39346198458232" lon="11.381611631061856"><ele>421.0</ele><time>2026-04-25T12:58:34Z</time></trkpt><trkpt lat="43.393589303773574" lon="11.381537877916248"><ele>421.0</ele><time>2026-04-25T12:58:35Z</time></trkpt><trkpt lat="43.39370133538149" lon="11.381456998146072"><ele>421.0</ele><time>2026-04-25T12:58:36Z</time></trkpt><trkpt lat="43.39380795974185" lon="11.381380800096126"><ele>421.0</ele><time>2026-04-25T12:58:37Z</time></trkpt><trkpt lat="43.393915926874385" lon="11.381306316314367"><ele>421.0</ele><time>2026-04-25T12:58:38Z</time></trkpt><trkpt lat="43.394031715065786" lon="11.381245561499567"><ele>419.5</ele><time>2026-04-25T12:58:39Z</time></trkpt><trkpt lat="43.39414041555288" lon="11.381205034790021"><ele>418.0</ele><time>2026-04-25T12:58:40Z</time></trkpt><trkpt lat="43.39425704717511" lon="11.381155832392938"><ele>416.5</ele><time>2026-04-25T12:58:41Z</time></trkpt><trkpt lat="43.39437936929665" lon="11.381105922403533"><ele>415.0</ele><time>2026-04-25T12:58:42Z</time></trkpt><trkpt lat="43.39450022050975" lon="11.381063379227964"><ele>415.0</ele><time>2026-04-25T12:58:43Z</time></trkpt><trkpt lat="43.39463214585304" lon="11.38102876005324"><ele>415.0</ele><time>2026-04-25T12:58:44Z</time></trkpt><trkpt lat="43.39476538389966" lon="11.381000622690747"><ele>415.0</ele><time>2026-04-25T12:58:45Z</time></trkpt><trkpt lat="43.39490288240177" lon="11.38097890867517"><ele>415.0</ele><time>2026-04-25T12:58:46Z</time></trkpt><trkpt lat="43.39504417592948" lon="11.380973839105325"><ele>415.25</ele><time>2026-04-25T12:58:47Z</time></trkpt><trkpt lat="43.395183003880156" lon="11.380978920287497"><ele>415.5</ele><time>2026-04-25T12:58:48Z</time></trkpt><trkpt lat="43.395318524027104" lon="11.380996741150549"><ele>415.75</ele><time>2026-04-25T12:58:49Z</time></trkpt><trkpt lat="43.39546083176597" lon="11.38101946696412"><ele>416.0</ele><time>2026-04-25T12:58:50Z</time></trkpt><trkpt lat="43.39560204872111" lon="11.381042326724948"><ele>415.0</ele><time>2026-04-25T12:58:51Z</time></trkpt><trkpt lat="43.395740275332486" lon="11.381050824515635"><ele>414.0</ele><time>2026-04-25T12:58:52Z</time></trkpt><trkpt lat="43.39586550289703" lon="11.381050697085662"><ele>413.0</ele><time>2026-04-25T12:58:53Z</time></trkpt><trkpt lat="43.395994588182496" lon="11.381042274146246"><ele>412.0</ele><time>2026-04-25T12:58:54Z</time></trkpt><trkpt lat="43.39611825266723" lon="11.381001872673709"><ele>412.0</ele><time>2026-04-25T12:58:55Z</time></trkpt><trkpt lat="43.39623916582641" lon="11.380923663708273"><ele>412.0</ele><time>2026-04-25T12:58:56Z</time></trkpt><trkpt lat="43.39634768903065" lon="11.380818661399939"><ele>412.0</ele><time>2026-04-25T12:58:57Z</time></trkpt><trkpt lat="43.3964418090989" lon="11.380684249803645"><ele>412.0</ele><time>2026-04-25T12:58:58Z</time></trkpt><trkpt lat="43.39652769070145" lon="11.380525616080677"><ele>411.25</ele><time>2026-04-25T12:58:59Z</time></trkpt><trkpt lat="43.396586053037325" lon="11.380352682950447"><ele>410.5</ele><time>2026-04-25T12:59:00Z</time></trkpt><trkpt lat="43.39663208249248" lon="11.380164068792705"><ele>409.75</ele><time>2026-04-25T12:59:01Z</time></trkpt><trkpt lat="43.39666575963931" lon="11.379959538280259"><ele>409.0</ele><time>2026-04-25T12:59:02Z</time></trkpt><trkpt lat="43.396701683101675" lon="11.379748964643944"><ele>410.25</ele><time>2026-04-25T12:59:03Z</time></trkpt><trkpt lat="43.39673689322601" lon="11.379558084480294"><ele>411.5</ele><time>2026-04-25T12:59:04Z</time></trkpt><trkpt lat="43.396768792653724" lon="11.379387657179157"><ele>412.75</ele><time>2026-04-25T12:59:05Z</time></trkpt><trkpt lat="43.39679739656021" lon="11.379232523718555"><ele>414.0</ele><time>2026-04-25T12:59:06Z</time></trkpt><trkpt lat="43.396825346402586" lon="11.37908900235543"><ele>414.0</ele><time>2026-04-25T12:59:07Z</time></trkpt><trkpt lat="43.396856215599826" lon="11.378942944380334"><ele>414.0</ele><time>2026-04-25T12:59:08Z</time></trkpt><trkpt lat="43.39689443609755" lon="11.378799495738589"><ele>414.0</ele><time>2026-04-25T12:59:09Z</time></trkpt><trkpt lat="43.39694459226866" lon="11.378661347321106"><ele>414.0</ele><time>2026-04-25T12:59:10Z</time></trkpt><trkpt lat="43.39700317619943" lon="11.378527290350878"><ele>414.0</ele><time>2026-04-25T12:59:11Z</time></trkpt><trkpt lat="43.397071812921425" lon="11.378396289295843"><ele>414.0</ele><time>2026-04-25T12:59:12Z</time></trkpt><trkpt lat="43.397147023768206" lon="11.378263941420316"><ele>414.0</ele><time>2026-04-25T12:59:13Z</time></trkpt><trkpt lat="43.3972333184424" lon="11.378133474413271"><ele>414.0</ele><time>2026-04-25T12:59:14Z</time></trkpt><trkpt lat="43.39731744714974" lon="11.377971999697746"><ele>414.0</ele><time>2026-04-25T12:59:15Z</time></trkpt><trkpt lat="43.39739818308875" lon="11.377826942698059"><ele>415.25</ele><time>2026-04-25T12:59:16Z</time></trkpt><trkpt lat="43.39747947335978" lon="11.37768440408427"><ele>416.5</ele><time>2026-04-25T12:59:17Z</time></trkpt><trkpt lat="43.397562500444565" lon="11.377548965618443"><ele>417.75</ele><time>2026-04-25T12:59:18Z</time></trkpt><trkpt lat="43.397648072840326" lon="11.377414823897684"><ele>419.0</ele><time>2026-04-25T12:59:19Z</time></trkpt><trkpt lat="43.39773194231644" lon="11.377291611526037"><ele>418.5</ele><time>2026-04-25T12:59:20Z</time></trkpt><trkpt lat="43.39781205992392" lon="11.377161611944654"><ele>418.0</ele><time>2026-04-25T12:59:21Z</time></trkpt><trkpt lat="43.39789077152301" lon="11.37703849447134"><ele>417.5</ele><time>2026-04-25T12:59:22Z</time></trkpt><trkpt lat="43.397998992839405" lon="11.376919038112955"><ele>417.0</ele><time>2026-04-25T12:59:23Z</time></trkpt><trkpt lat="43.39809263689344" lon="11.376800678849916"><ele>418.0</ele><time>2026-04-25T12:59:24Z</time></trkpt><trkpt lat="43.398185569896874" lon="11.376689507691795"><ele>419.0</ele><time>2026-04-25T12:59:25Z</time></trkpt><trkpt lat="43.398277833469734" lon="11.376585331783746"><ele>420.0</ele><time>2026-04-25T12:59:26Z</time></trkpt><trkpt lat="43.398365859499854" lon="11.376482281919563"><ele>421.0</ele><time>2026-04-25T12:59:27Z</time></trkpt><trkpt lat="43.39845391463933" lon="11.376385793213796"><ele>421.4</ele><time>2026-04-25T12:59:28Z</time></trkpt><trkpt lat="43.39854022404572" lon="11.3763021526543"><ele>421.8</ele><time>2026-04-25T12:59:29Z</time></trkpt><trkpt lat="43.39863324288588" lon="11.376231603869453"><ele>422.2</ele><time>2026-04-25T12:59:30Z</time></trkpt><trkpt lat="43.39871843772964" lon="11.376176225207276"><ele>422.59999999999997</ele><time>2026-04-25T12:59:31Z</time></trkpt><trkpt lat="43.398820450277725" lon="11.376126702710904"><ele>423.0</ele><time>2026-04-25T12:59:32Z</time></trkpt><trkpt lat="43.39891453990099" lon="11.376085750391335"><ele>424.0</ele><time>2026-04-25T12:59:33Z</time></trkpt><trkpt lat="43.39900876501384" lon="11.376055578471558"><ele>425.0</ele><time>2026-04-25T12:59:34Z</time></trkpt><trkpt lat="43.39909895986734" lon="11.376024768407008"><ele>425.99999999999994</ele><time>2026-04-25T12:59:35Z</time></trkpt><trkpt lat="43.39919077197479" lon="11.375992882015458"><ele>427.0</ele><time>2026-04-25T12:59:36Z</time></trkpt><trkpt lat="43.399280857548646" lon="11.375965112752471"><ele>428.0</ele><time>2026-04-25T12:59:37Z</time></trkpt><trkpt lat="43.399372644351885" lon="11.375963466267018"><ele>428.0</ele><time>2026-04-25T12:59:38Z</time></trkpt><trkpt lat="43.3994456160787" lon="11.37593094709589"><ele>427.99999999999994</ele><time>2026-04-25T12:59:39Z</time></trkpt><trkpt lat="43.399542274915454" lon="11.375845594723353"><ele>427.99999999999994</ele><time>2026-04-25T12:59:40Z</time></trkpt><trkpt lat="43.39960546600232" lon="11.375760825893487"><ele>428.0</ele><time>2026-04-25T12:59:41Z</time></trkpt><trkpt lat="43.39965847346675" lon="11.375683716910476"><ele>428.0</ele><time>2026-04-25T12:59:42Z</time></trkpt><trkpt lat="43.39970612680662" lon="11.375572797661874"><ele>429.59999999999997</ele><time>2026-04-25T12:59:43Z</time></trkpt><trkpt lat="43.39977898332981" lon="11.375473787516565"><ele>431.19999999999993</ele><time>2026-04-25T12:59:44Z</time></trkpt><trkpt lat="43.39983659455482" lon="11.375373086892509"><ele>432.8</ele><time>2026-04-25T12:59:45Z</time></trkpt><trkpt lat="43.39989696976521" lon="11.37527029131368"><ele>434.4</ele><time>2026-04-25T12:59:46Z</time></trkpt><trkpt lat="43.39995488968251" lon="11.375164468678836"><ele>436.0</ele><time>2026-04-25T12:59:47Z</time></trkpt><trkpt lat="43.40001716244796" lon="11.375058418674714"><ele>436.0</ele><time>2026-04-25T12:59:48Z</time></trkpt><trkpt lat="43.40007537264751" lon="11.37494988245929"><ele>436.0</ele><time>2026-04-25T12:59:49Z</time></trkpt><trkpt lat="43.4001415153138" lon="11.374844701496192"><ele>436.0</ele><time>2026-04-25T12:59:50Z</time></trkpt><trkpt lat="43.400204305815414" lon="11.374737702470783"><ele>436.0</ele><time>2026-04-25T12:59:51Z</time></trkpt><trkpt lat="43.400265006621076" lon="11.374625405854825"><ele>436.0</ele><time>2026-04-25T12:59:52Z</time></trkpt><trkpt lat="43.40032599760716" lon="11.37451564413819"><ele>436.0</ele><time>2026-04-25T12:59:53Z</time></trkpt><trkpt lat="43.40039742104569" lon="11.374405236511244"><ele>436.0</ele><time>2026-04-25T12:59:54Z</time></trkpt><trkpt lat="43.400454695565955" lon="11.374307627419224"><ele>436.0</ele><time>2026-04-25T12:59:55Z</time></trkpt><trkpt lat="43.40049990821642" lon="11.374202555267543"><ele>436.0</ele><time>2026-04-25T12:59:56Z</time></trkpt><trkpt lat="43.40054438278407" lon="11.374093642738138"><ele>436.0</ele><time>2026-04-25T12:59:57Z</time></trkpt><trkpt lat="43.40057784029426" lon="11.37396599825306"><ele>436.4</ele><time>2026-04-25T12:59:58Z</time></trkpt><trkpt lat="43.40060321586421" lon="11.373832496810884"><ele>436.8</ele><time>2026-04-25T12:59:59Z</time></trkpt><trkpt lat="43.40064448940428" lon="11.373695706785583"><ele>437.19999999999993</ele><time>2026-04-25T13:00:00Z</time></trkpt><trkpt lat="43.40067371392314" lon="11.373559437860118"><ele>437.59999999999997</ele><time>2026-04-25T13:00:01Z</time></trkpt><trkpt lat="43.40070329700813" lon="11.373443811635688"><ele>438.0</ele><time>2026-04-25T13:00:02Z</time></trkpt><trkpt lat="43.40074756176535" lon="11.373334054980127"><ele>438.0</ele><time>2026-04-25T13:00:03Z</time></trkpt><trkpt lat="43.40079938509574" lon="11.373225580282613"><ele>437.99999999999994</ele><time>2026-04-25T13:00:04Z</time></trkpt><trkpt lat="43.400848550783486" lon="11.373128496933923"><ele>437.99999999999994</ele><time>2026-04-25T13:00:05Z</time></trkpt><trkpt lat="43.400924427889144" lon="11.373032165633624"><ele>438.0</ele><time>2026-04-25T13:00:06Z</time></trkpt><trkpt lat="43.40100712553221" lon="11.372944677213374"><ele>438.0</ele><time>2026-04-25T13:00:07Z</time></trkpt><trkpt lat="43.40108114971138" lon="11.372859698938136"><ele>437.6666666666667</ele><time>2026-04-25T13:00:08Z</time></trkpt><trkpt lat="43.40114276505696" lon="11.372777208385326"><ele>437.33333333333337</ele><time>2026-04-25T13:00:09Z</time></trkpt><trkpt lat="43.40119828305798" lon="11.372690734515572"><ele>437.0</ele><time>2026-04-25T13:00:10Z</time></trkpt><trkpt lat="43.40124360891792" lon="11.372600945015744"><ele>436.6666666666667</ele><time>2026-04-25T13:00:11Z</time></trkpt><trkpt lat="43.40127451951436" lon="11.37250132500581"><ele>436.33333333333337</ele><time>2026-04-25T13:00:12Z</time></trkpt><trkpt lat="43.40129630776469" lon="11.372377616919707"><ele>436.0</ele><time>2026-04-25T13:00:13Z</time></trkpt><trkpt lat="43.40130834872822" lon="11.372241390773326"><ele>435.5</ele><time>2026-04-25T13:00:14Z</time></trkpt><trkpt lat="43.40130280173843" lon="11.372098005851429"><ele>435.0</ele><time>2026-04-25T13:00:15Z</time></trkpt><trkpt lat="43.40130294362478" lon="11.371948944156498"><ele>434.5</ele><time>2026-04-25T13:00:16Z</time></trkpt><trkpt lat="43.40129725312723" lon="11.371781723001504"><ele>434.0</ele><time>2026-04-25T13:00:17Z</time></trkpt><trkpt lat="43.401299005693446" lon="11.371618229268503"><ele>434.0</ele><time>2026-04-25T13:00:18Z</time></trkpt><trkpt lat="43.40129702633615" lon="11.371458615685974"><ele>434.0</ele><time>2026-04-25T13:00:19Z</time></trkpt><trkpt lat="43.401293958018115" lon="11.371303802586075"><ele>434.0</ele><time>2026-04-25T13:00:20Z</time></trkpt><trkpt lat="43.401295672733745" lon="11.371146685163437"><ele>434.0</ele><time>2026-04-25T13:00:21Z</time></trkpt><trkpt lat="43.401307510122706" lon="11.370987045171113"><ele>433.0</ele><time>2026-04-25T13:00:22Z</time></trkpt><trkpt lat="43.40132907686261" lon="11.370823979744483"><ele>432.0</ele><time>2026-04-25T13:00:23Z</time></trkpt><trkpt lat="43.40135771548484" lon="11.370665660080045"><ele>431.0</ele><time>2026-04-25T13:00:24Z</time></trkpt><trkpt lat="43.4013979048912" lon="11.370507740363028"><ele>430.0</ele><time>2026-04-25T13:00:25Z</time></trkpt><trkpt lat="43.40144560360947" lon="11.370346097913341"><ele>430.0</ele><time>2026-04-25T13:00:26Z</time></trkpt><trkpt lat="43.401490368327735" lon="11.370185542338369"><ele>430.0</ele><time>2026-04-25T13:00:27Z</time></trkpt><trkpt lat="43.40155555038456" lon="11.369971865918687"><ele>430.0</ele><time>2026-04-25T13:00:29Z</time></trkpt><trkpt lat="43.401593642133705" lon="11.369824392707889"><ele>430.0</ele><time>2026-04-25T13:00:30Z</time></trkpt><trkpt lat="43.40162450135258" lon="11.369691748521436"><ele>430.00000000000006</ele><time>2026-04-25T13:00:31Z</time></trkpt><trkpt lat="43.401650026055044" lon="11.369565891475181"><ele>430.0</ele><time>2026-04-25T13:00:32Z</time></trkpt><trkpt lat="43.40167281548603" lon="11.369446679013906"><ele>430.0</ele><time>2026-04-25T13:00:33Z</time></trkpt><trkpt lat="43.401693142496704" lon="11.369325189695454"><ele>430.0</ele><time>2026-04-25T13:00:34Z</time></trkpt><trkpt lat="43.40170014428038" lon="11.369211832260463"><ele>430.00000000000006</ele><time>2026-04-25T13:00:35Z</time></trkpt><trkpt lat="43.401713355035426" lon="11.369106562853382"><ele>430.0</ele><time>2026-04-25T13:00:36Z</time></trkpt><trkpt lat="43.40172605015995" lon="11.36900797911088"><ele>430.00000000000006</ele><time>2026-04-25T13:00:37Z</time></trkpt><trkpt lat="43.40173268180249" lon="11.368903640783637"><ele>430.0</ele><time>2026-04-25T13:00:38Z</time></trkpt><trkpt lat="43.40172748013583" lon="11.368804956805661"><ele>430.0</ele><time>2026-04-25T13:00:39Z</time></trkpt><trkpt lat="43.401724904336476" lon="11.368705509241769"><ele>430.0</ele><time>2026-04-25T13:00:40Z</time></trkpt><trkpt lat="43.401717292215785" lon="11.368606428024936"><ele>430.00000000000006</ele><time>2026-04-25T13:00:41Z</time></trkpt><trkpt lat="43.401711331800875" lon="11.368499801491765"><ele>430.0</ele><time>2026-04-25T13:00:42Z</time></trkpt><trkpt lat="43.401704707611266" lon="11.368388272113041"><ele>430.4</ele><time>2026-04-25T13:00:43Z</time></trkpt><trkpt lat="43.40168997526411" lon="11.368273963097927"><ele>430.8</ele><time>2026-04-25T13:00:44Z</time></trkpt><trkpt lat="43.40167595463933" lon="11.3681509950608"><ele>431.20000000000005</ele><time>2026-04-25T13:00:45Z</time></trkpt><trkpt lat="43.401668274626424" lon="11.368010783720596"><ele>431.6</ele><time>2026-04-25T13:00:46Z</time></trkpt><trkpt lat="43.40165355253357" lon="11.367850018302422"><ele>432.0</ele><time>2026-04-25T13:00:47Z</time></trkpt><trkpt lat="43.40163936092038" lon="11.367670745838199"><ele>432.5</ele><time>2026-04-25T13:00:48Z</time></trkpt><trkpt lat="43.40162990156821" lon="11.367493262345992"><ele>433.0</ele><time>2026-04-25T13:00:49Z</time></trkpt><trkpt lat="43.4016120655276" lon="11.367336425382264"><ele>433.5</ele><time>2026-04-25T13:00:50Z</time></trkpt><trkpt lat="43.401595677219305" lon="11.367180812445154"><ele>434.0</ele><time>2026-04-25T13:00:51Z</time></trkpt><trkpt lat="43.401563222024855" lon="11.367026501918366"><ele>434.25</ele><time>2026-04-25T13:00:52Z</time></trkpt><trkpt lat="43.401510839196426" lon="11.366868698917424"><ele>434.5</ele><time>2026-04-25T13:00:53Z</time></trkpt><trkpt lat="43.401446318521266" lon="11.366707854803797"><ele>434.75</ele><time>2026-04-25T13:00:54Z</time></trkpt><trkpt lat="43.40138136001431" lon="11.366563849057835"><ele>435.0</ele><time>2026-04-25T13:00:55Z</time></trkpt><trkpt lat="43.40133215742082" lon="11.36642687688721"><ele>436.5</ele><time>2026-04-25T13:00:56Z</time></trkpt><trkpt lat="43.40129296203009" lon="11.366268266380445"><ele>438.0</ele><time>2026-04-25T13:00:57Z</time></trkpt><trkpt lat="43.401254643158794" lon="11.366095833369751"><ele>439.5</ele><time>2026-04-25T13:00:58Z</time></trkpt><trkpt lat="43.40122789080752" lon="11.36589228088602"><ele>441.0</ele><time>2026-04-25T13:00:59Z</time></trkpt><trkpt lat="43.40120933681962" lon="11.365726813496211"><ele>441.0</ele><time>2026-04-25T13:01:00Z</time></trkpt><trkpt lat="43.40118398644195" lon="11.365579920259329"><ele>441.0</ele><time>2026-04-25T13:01:01Z</time></trkpt><trkpt lat="43.401168101285855" lon="11.365450055312506"><ele>441.0</ele><time>2026-04-25T13:01:02Z</time></trkpt><trkpt lat="43.40114930662926" lon="11.365342566859429"><ele>441.0</ele><time>2026-04-25T13:01:03Z</time></trkpt><trkpt lat="43.40110934979749" lon="11.365245341965784"><ele>441.0</ele><time>2026-04-25T13:01:04Z</time></trkpt><trkpt lat="43.40104862738057" lon="11.36518000254936"><ele>441.0</ele><time>2026-04-25T13:01:05Z</time></trkpt><trkpt lat="43.40109364840044" lon="11.364986465471468"><ele>440.75</ele><time>2026-04-25T13:01:06Z</time></trkpt><trkpt lat="43.40107601438381" lon="11.364820123932308"><ele>440.5</ele><time>2026-04-25T13:01:07Z</time></trkpt><trkpt lat="43.401036859046435" lon="11.364672956977236"><ele>440.25</ele><time>2026-04-25T13:01:08Z</time></trkpt><trkpt lat="43.40098565310768" lon="11.364520870988878"><ele>440.0</ele><time>2026-04-25T13:01:09Z</time></trkpt><trkpt lat="43.4009252418418" lon="11.364379481732659"><ele>440.0</ele><time>2026-04-25T13:01:10Z</time></trkpt><trkpt lat="43.40087369576768" lon="11.364254097388775"><ele>440.0</ele><time>2026-04-25T13:01:11Z</time></trkpt><trkpt lat="43.40083112128719" lon="11.364136971245886"><ele>440.0</ele><time>2026-04-25T13:01:12Z</time></trkpt><trkpt lat="43.40079787903426" lon="11.364010822445694"><ele>440.0</ele><time>2026-04-25T13:01:13Z</time></trkpt><trkpt lat="43.4007824413156" lon="11.363890575121966"><ele>440.0</ele><time>2026-04-25T13:01:14Z</time></trkpt><trkpt lat="43.4007775731847" lon="11.363772622239937"><ele>439.99999999999994</ele><time>2026-04-25T13:01:15Z</time></trkpt><trkpt lat="43.40079347327404" lon="11.36366367676352"><ele>440.0</ele><time>2026-04-25T13:01:16Z</time></trkpt><trkpt lat="43.400840257804546" lon="11.363551482720375"><ele>440.0</ele><time>2026-04-25T13:01:17Z</time></trkpt><trkpt lat="43.40087799164649" lon="11.36342263797727"><ele>440.0</ele><time>2026-04-25T13:01:18Z</time></trkpt><trkpt lat="43.40093747646199" lon="11.363331391062994"><ele>439.99999999999994</ele><time>2026-04-25T13:01:19Z</time></trkpt><trkpt lat="43.40100211410073" lon="11.363258764188057"><ele>440.0</ele><time>2026-04-25T13:01:20Z</time></trkpt><trkpt lat="43.401080688665644" lon="11.36320839354375"><ele>439.99999999999994</ele><time>2026-04-25T13:01:21Z</time></trkpt><trkpt lat="43.40116897538955" lon="11.363171545699558"><ele>440.0</ele><time>2026-04-25T13:01:22Z</time></trkpt><trkpt lat="43.401245489254634" lon="11.363124993316537"><ele>440.0</ele><time>2026-04-25T13:01:23Z</time></trkpt><trkpt lat="43.40131929681413" lon="11.363053784751505"><ele>440.0</ele><time>2026-04-25T13:01:24Z</time></trkpt><trkpt lat="43.40137552125708" lon="11.362963202080392"><ele>439.99999999999994</ele><time>2026-04-25T13:01:25Z</time></trkpt><trkpt lat="43.4014094925308" lon="11.362842164002156"><ele>440.0</ele><time>2026-04-25T13:01:26Z</time></trkpt><trkpt lat="43.40142222087297" lon="11.362712660523897"><ele>440.8</ele><time>2026-04-25T13:01:27Z</time></trkpt><trkpt lat="43.40142986368542" lon="11.362579312918811"><ele>441.6</ele><time>2026-04-25T13:01:28Z</time></trkpt><trkpt lat="43.40141253777684" lon="11.36243369818731"><ele>442.4</ele><time>2026-04-25T13:01:29Z</time></trkpt><trkpt lat="43.401380120184605" lon="11.362304407838382"><ele>443.2</ele><time>2026-04-25T13:01:30Z</time></trkpt><trkpt lat="43.40134235110682" lon="11.36219007561093"><ele>444.0</ele><time>2026-04-25T13:01:31Z</time></trkpt><trkpt lat="43.40132748064625" lon="11.3620803357016"><ele>444.0</ele><time>2026-04-25T13:01:32Z</time></trkpt><trkpt lat="43.40134373242669" lon="11.361985325521204"><ele>444.0</ele><time>2026-04-25T13:01:33Z</time></trkpt><trkpt lat="43.40137891362192" lon="11.36190530086591"><ele>444.0</ele><time>2026-04-25T13:01:34Z</time></trkpt><trkpt lat="43.401438167531055" lon="11.3618331536007"><ele>444.0</ele><time>2026-04-25T13:01:35Z</time></trkpt><trkpt lat="43.40150308926161" lon="11.361766160186562"><ele>444.0</ele><time>2026-04-25T13:01:36Z</time></trkpt><trkpt lat="43.401584485984706" lon="11.361689229659845"><ele>444.0</ele><time>2026-04-25T13:01:37Z</time></trkpt><trkpt lat="43.40166145868193" lon="11.361600207807383"><ele>444.0</ele><time>2026-04-25T13:01:38Z</time></trkpt><trkpt lat="43.40174620834076" lon="11.361500207580496"><ele>444.0</ele><time>2026-04-25T13:01:39Z</time></trkpt><trkpt lat="43.40183461453144" lon="11.361418948501981"><ele>444.0</ele><time>2026-04-25T13:01:40Z</time></trkpt><trkpt lat="43.4019073616732" lon="11.361322342020562"><ele>444.0</ele><time>2026-04-25T13:01:41Z</time></trkpt><trkpt lat="43.40196912741296" lon="11.361237219797834"><ele>444.0</ele><time>2026-04-25T13:01:42Z</time></trkpt><trkpt lat="43.40202495754121" lon="11.361160284757746"><ele>443.5</ele><time>2026-04-25T13:01:43Z</time></trkpt><trkpt lat="43.402080037252865" lon="11.36109356664301"><ele>443.0</ele><time>2026-04-25T13:01:44Z</time></trkpt><trkpt lat="43.40213762751034" lon="11.361034161484527"><ele>442.5</ele><time>2026-04-25T13:01:45Z</time></trkpt><trkpt lat="43.402205986834204" lon="11.360978896782028"><ele>442.0</ele><time>2026-04-25T13:01:46Z</time></trkpt><trkpt lat="43.402270776495676" lon="11.360933612713396"><ele>441.5</ele><time>2026-04-25T13:01:47Z</time></trkpt><trkpt lat="43.4023482731668" lon="11.36089257066608"><ele>441.0</ele><time>2026-04-25T13:01:48Z</time></trkpt><trkpt lat="43.40243508423107" lon="11.36086754893967"><ele>441.0</ele><time>2026-04-25T13:01:49Z</time></trkpt><trkpt lat="43.40252009381426" lon="11.360892615341976"><ele>441.0</ele><time>2026-04-25T13:01:50Z</time></trkpt><trkpt lat="43.402622028766984" lon="11.360890590415996"><ele>441.0</ele><time>2026-04-25T13:01:51Z</time></trkpt><trkpt lat="43.4027371298754" lon="11.360929974940538"><ele>441.0</ele><time>2026-04-25T13:01:52Z</time></trkpt><trkpt lat="43.40284957589428" lon="11.360952243551301"><ele>441.0</ele><time>2026-04-25T13:01:53Z</time></trkpt><trkpt lat="43.402957815270206" lon="11.360947823682952"><ele>442.25</ele><time>2026-04-25T13:01:54Z</time></trkpt><trkpt lat="43.40306915801853" lon="11.360921771004568"><ele>443.5</ele><time>2026-04-25T13:01:55Z</time></trkpt><trkpt lat="43.403205404209686" lon="11.360878985257067"><ele>444.75</ele><time>2026-04-25T13:01:56Z</time></trkpt><trkpt lat="43.40331447329783" lon="11.360835134252591"><ele>446.0</ele><time>2026-04-25T13:01:57Z</time></trkpt><trkpt lat="43.403405373004766" lon="11.36079787226881"><ele>446.0</ele><time>2026-04-25T13:01:58Z</time></trkpt><trkpt lat="43.403473207626284" lon="11.360755886406478"><ele>446.0</ele><time>2026-04-25T13:01:59Z</time></trkpt><trkpt lat="43.40353511135499" lon="11.360689824500499"><ele>446.0</ele><time>2026-04-25T13:02:00Z</time></trkpt><trkpt lat="43.40354645928461" lon="11.36050845664087"><ele>446.0</ele><time>2026-04-25T13:02:02Z</time></trkpt><trkpt lat="43.40353102918681" lon="11.360369894825732"><ele>446.0</ele><time>2026-04-25T13:02:03Z</time></trkpt><trkpt lat="43.40351720609854" lon="11.36023923060236"><ele>445.8</ele><time>2026-04-25T13:02:04Z</time></trkpt><trkpt lat="43.40351461837732" lon="11.360126540235768"><ele>445.6</ele><time>2026-04-25T13:02:05Z</time></trkpt><trkpt lat="43.40351869971919" lon="11.359997982216148"><ele>445.4</ele><time>2026-04-25T13:02:06Z</time></trkpt><trkpt lat="43.40354465138056" lon="11.359854734836585"><ele>445.2</ele><time>2026-04-25T13:02:07Z</time></trkpt><trkpt lat="43.40357339964128" lon="11.359706608785848"><ele>445.0</ele><time>2026-04-25T13:02:08Z</time></trkpt><trkpt lat="43.403609550389696" lon="11.359580400350389"><ele>445.00000000000006</ele><time>2026-04-25T13:02:09Z</time></trkpt><trkpt lat="43.40362622238157" lon="11.359460073560538"><ele>445.0</ele><time>2026-04-25T13:02:10Z</time></trkpt><trkpt lat="43.40361567776286" lon="11.35935200509293"><ele>445.0</ele><time>2026-04-25T13:02:11Z</time></trkpt><trkpt lat="43.40357253541994" lon="11.35925193229666"><ele>445.0</ele><time>2026-04-25T13:02:12Z</time></trkpt><trkpt lat="43.403517829219" lon="11.359160043759582"><ele>445.00000000000006</ele><time>2026-04-25T13:02:13Z</time></trkpt><trkpt lat="43.403467158559124" lon="11.359060093675724"><ele>445.0</ele><time>2026-04-25T13:02:14Z</time></trkpt><trkpt lat="43.40337696581934" lon="11.358979185827858"><ele>445.00000000000006</ele><time>2026-04-25T13:02:15Z</time></trkpt><trkpt lat="43.40326579695032" lon="11.358935570846347"><ele>445.0</ele><time>2026-04-25T13:02:16Z</time></trkpt><trkpt lat="43.40316375698625" lon="11.358913370674069"><ele>445.0</ele><time>2026-04-25T13:02:17Z</time></trkpt><trkpt lat="43.403083461934344" lon="11.3588753728051"><ele>445.0</ele><time>2026-04-25T13:02:18Z</time></trkpt><trkpt lat="43.40301682550422" lon="11.358822924678071"><ele>445.00000000000006</ele><time>2026-04-25T13:02:19Z</time></trkpt><trkpt lat="43.40296116066936" lon="11.358768712193738"><ele>445.0</ele><time>2026-04-25T13:02:20Z</time></trkpt><trkpt lat="43.40292109806867" lon="11.358670751195428"><ele>444.6</ele><time>2026-04-25T13:02:21Z</time></trkpt><trkpt lat="43.40289109310559" lon="11.3585352615158"><ele>444.2</ele><time>2026-04-25T13:02:22Z</time></trkpt><trkpt lat="43.40285590764566" lon="11.358377013725812"><ele>443.79999999999995</ele><time>2026-04-25T13:02:23Z</time></trkpt><trkpt lat="43.40283349860318" lon="11.358228547565409"><ele>443.4</ele><time>2026-04-25T13:02:24Z</time></trkpt><trkpt lat="43.40282844638313" lon="11.358074634137854"><ele>443.0</ele><time>2026-04-25T13:02:25Z</time></trkpt><trkpt lat="43.40280120238025" lon="11.357920482586932"><ele>442.99999999999994</ele><time>2026-04-25T13:02:26Z</time></trkpt><trkpt lat="43.402779011919826" lon="11.357778588660286"><ele>443.0</ele><time>2026-04-25T13:02:27Z</time></trkpt><trkpt lat="43.402771713781725" lon="11.357671100147158"><ele>443.0</ele><time>2026-04-25T13:02:28Z</time></trkpt><trkpt lat="43.40277871938074" lon="11.357554866345655"><ele>443.0</ele><time>2026-04-25T13:02:29Z</time></trkpt><trkpt lat="43.40280684528555" lon="11.357451858770794"><ele>442.99999999999994</ele><time>2026-04-25T13:02:30Z</time></trkpt><trkpt lat="43.40284878008902" lon="11.35734091362162"><ele>443.0</ele><time>2026-04-25T13:02:31Z</time></trkpt><trkpt lat="43.4029102774438" lon="11.357245990952823"><ele>442.3333333333333</ele><time>2026-04-25T13:02:32Z</time></trkpt><trkpt lat="43.40298644291007" lon="11.357178641672593"><ele>441.66666666666663</ele><time>2026-04-25T13:02:33Z</time></trkpt><trkpt lat="43.40306685500562" lon="11.357140058460638"><ele>441.0</ele><time>2026-04-25T13:02:34Z</time></trkpt><trkpt lat="43.40315119076703" lon="11.357117928414478"><ele>440.33333333333337</ele><time>2026-04-25T13:02:35Z</time></trkpt><trkpt lat="43.40324304562245" lon="11.35712342798914"><ele>439.6666666666667</ele><time>2026-04-25T13:02:36Z</time></trkpt><trkpt lat="43.403334662290995" lon="11.357132296870965"><ele>439.0</ele><time>2026-04-25T13:02:37Z</time></trkpt><trkpt lat="43.40342441178807" lon="11.357130883736044"><ele>440.33333333333337</ele><time>2026-04-25T13:02:38Z</time></trkpt><trkpt lat="43.403514885991214" lon="11.357148753842054"><ele>441.6666666666667</ele><time>2026-04-25T13:02:39Z</time></trkpt><trkpt lat="43.40360083957201" lon="11.357133258595736"><ele>443.0</ele><time>2026-04-25T13:02:40Z</time></trkpt><trkpt lat="43.40368063614237" lon="11.357104962711777"><ele>444.33333333333337</ele><time>2026-04-25T13:02:41Z</time></trkpt><trkpt lat="43.40374189291354" lon="11.35706239692811"><ele>445.6666666666667</ele><time>2026-04-25T13:02:42Z</time></trkpt><trkpt lat="43.40380850365242" lon="11.35698758169688"><ele>447.0</ele><time>2026-04-25T13:02:43Z</time></trkpt><trkpt lat="43.40385477451602" lon="11.356903571967294"><ele>447.0</ele><time>2026-04-25T13:02:44Z</time></trkpt><trkpt lat="43.403874764816514" lon="11.356781418535837"><ele>447.00000000000006</ele><time>2026-04-25T13:02:45Z</time></trkpt><trkpt lat="43.40384381467988" lon="11.356622774401584"><ele>447.00000000000006</ele><time>2026-04-25T13:02:46Z</time></trkpt><trkpt lat="43.40378098138419" lon="11.356506978968778"><ele>447.0</ele><time>2026-04-25T13:02:47Z</time></trkpt><trkpt lat="43.40370059282616" lon="11.35639784048058"><ele>447.0</ele><time>2026-04-25T13:02:48Z</time></trkpt><trkpt lat="43.40363041041591" lon="11.356283629753694"><ele>446.8</ele><time>2026-04-25T13:02:49Z</time></trkpt><trkpt lat="43.40359639117491" lon="11.356191363593425"><ele>446.6</ele><time>2026-04-25T13:02:50Z</time></trkpt><trkpt lat="43.40360094654545" lon="11.356058028600218"><ele>446.40000000000003</ele><time>2026-04-25T13:02:52Z</time></trkpt><trkpt lat="43.40369903214373" lon="11.355909907760335"><ele>446.20000000000005</ele><time>2026-04-25T13:02:54Z</time></trkpt><trkpt lat="43.403782321878246" lon="11.355830739369406"><ele>446.0</ele><time>2026-04-25T13:02:55Z</time></trkpt><trkpt lat="43.40388743941272" lon="11.355730283010159"><ele>447.20000000000005</ele><time>2026-04-25T13:02:56Z</time></trkpt><trkpt lat="43.403981776836915" lon="11.355665345392273"><ele>448.40000000000003</ele><time>2026-04-25T13:02:57Z</time></trkpt><trkpt lat="43.40406977858422" lon="11.355613802253332"><ele>449.6</ele><time>2026-04-25T13:02:58Z</time></trkpt><trkpt lat="43.404153641196366" lon="11.355590633010262"><ele>450.8</ele><time>2026-04-25T13:02:59Z</time></trkpt><trkpt lat="43.404239241411155" lon="11.35559590999293"><ele>452.0</ele><time>2026-04-25T13:03:00Z</time></trkpt><trkpt lat="43.404326323750745" lon="11.355611678457228"><ele>451.99999999999994</ele><time>2026-04-25T13:03:01Z</time></trkpt><trkpt lat="43.40441350178477" lon="11.355631921765914"><ele>452.0</ele><time>2026-04-25T13:03:02Z</time></trkpt><trkpt lat="43.404488051814404" lon="11.355656140141019"><ele>452.0</ele><time>2026-04-25T13:03:03Z</time></trkpt><trkpt lat="43.40457303511609" lon="11.355685560675457"><ele>452.0</ele><time>2026-04-25T13:03:04Z</time></trkpt><trkpt lat="43.40465906179892" lon="11.355743547600534"><ele>451.99999999999994</ele><time>2026-04-25T13:03:05Z</time></trkpt><trkpt lat="43.40474394407801" lon="11.355812755017537"><ele>452.0</ele><time>2026-04-25T13:03:06Z</time></trkpt><trkpt lat="43.40482401998201" lon="11.355887779045771"><ele>452.66666666666663</ele><time>2026-04-25T13:03:07Z</time></trkpt><trkpt lat="43.40490388406269" lon="11.35595414388151"><ele>453.3333333333333</ele><time>2026-04-25T13:03:08Z</time></trkpt><trkpt lat="43.4049848564954" lon="11.356010561676383"><ele>454.0</ele><time>2026-04-25T13:03:09Z</time></trkpt><trkpt lat="43.40506667771959" lon="11.356059470509187"><ele>454.66666666666663</ele><time>2026-04-25T13:03:10Z</time></trkpt><trkpt lat="43.405146338949066" lon="11.356102468764313"><ele>455.3333333333333</ele><time>2026-04-25T13:03:11Z</time></trkpt><trkpt lat="43.405217919928596" lon="11.356112475154484"><ele>456.0</ele><time>2026-04-25T13:03:12Z</time></trkpt><trkpt lat="43.40528520925376" lon="11.356096294549355"><ele>456.0</ele><time>2026-04-25T13:03:13Z</time></trkpt><trkpt lat="43.405349330359336" lon="11.35601341020894"><ele>456.0</ele><time>2026-04-25T13:03:14Z</time></trkpt><trkpt lat="43.40537333292008" lon="11.355906479656639"><ele>456.0</ele><time>2026-04-25T13:03:15Z</time></trkpt><trkpt lat="43.40537796441182" lon="11.35578954506801"><ele>456.0</ele><time>2026-04-25T13:03:16Z</time></trkpt><trkpt lat="43.405423815601246" lon="11.355662701629443"><ele>456.0</ele><time>2026-04-25T13:03:17Z</time></trkpt><trkpt lat="43.40545353860736" lon="11.355559911971175"><ele>456.0</ele><time>2026-04-25T13:03:18Z</time></trkpt><trkpt lat="43.405481764439976" lon="11.355475263079263"><ele>455.5</ele><time>2026-04-25T13:03:19Z</time></trkpt><trkpt lat="43.40556362669143" lon="11.355428281787162"><ele>455.0</ele><time>2026-04-25T13:03:20Z</time></trkpt><trkpt lat="43.40565062903878" lon="11.3554265664722"><ele>454.5</ele><time>2026-04-25T13:03:21Z</time></trkpt><trkpt lat="43.40573775808428" lon="11.355458280764285"><ele>454.0</ele><time>2026-04-25T13:03:22Z</time></trkpt><trkpt lat="43.40581155514357" lon="11.355504994630572"><ele>453.5</ele><time>2026-04-25T13:03:23Z</time></trkpt><trkpt lat="43.40588125058313" lon="11.355563716408339"><ele>453.0</ele><time>2026-04-25T13:03:24Z</time></trkpt><trkpt lat="43.405978355061904" lon="11.355638241814754"><ele>455.0</ele><time>2026-04-25T13:03:25Z</time></trkpt><trkpt lat="43.40607973375695" lon="11.355724291350898"><ele>456.99999999999994</ele><time>2026-04-25T13:03:26Z</time></trkpt><trkpt lat="43.40618248288976" lon="11.355811928024806"><ele>458.99999999999994</ele><time>2026-04-25T13:03:27Z</time></trkpt><trkpt lat="43.40626175117491" lon="11.355876414290043"><ele>461.0</ele><time>2026-04-25T13:03:28Z</time></trkpt><trkpt lat="43.40633049723034" lon="11.355941546842264"><ele>463.0</ele><time>2026-04-25T13:03:29Z</time></trkpt><trkpt lat="43.40639845688174" lon="11.355995886954453"><ele>463.50000000000006</ele><time>2026-04-25T13:03:30Z</time></trkpt><trkpt lat="43.40645717223212" lon="11.356033679715885"><ele>464.0</ele><time>2026-04-25T13:03:31Z</time></trkpt><trkpt lat="43.40651050620067" lon="11.35608228701534"><ele>464.5</ele><time>2026-04-25T13:03:32Z</time></trkpt><trkpt lat="43.40663309742778" lon="11.356040018156675"><ele>465.0</ele><time>2026-04-25T13:03:34Z</time></trkpt><trkpt lat="43.40668965238761" lon="11.355954959762451"><ele>465.50000000000006</ele><time>2026-04-25T13:03:35Z</time></trkpt><trkpt lat="43.40672013456512" lon="11.355862224690684"><ele>466.0</ele><time>2026-04-25T13:03:36Z</time></trkpt><trkpt lat="43.40673090168255" lon="11.355767828185716"><ele>466.0</ele><time>2026-04-25T13:03:37Z</time></trkpt><trkpt lat="43.406716704057345" lon="11.355662412029364"><ele>466.0</ele><time>2026-04-25T13:03:38Z</time></trkpt><trkpt lat="43.406667475972405" lon="11.35554767066693"><ele>466.0</ele><time>2026-04-25T13:03:39Z</time></trkpt><trkpt lat="43.40663261411048" lon="11.355383225431975"><ele>466.0</ele><time>2026-04-25T13:03:40Z</time></trkpt><trkpt lat="43.406608747292175" lon="11.355242830552532"><ele>466.0</ele><time>2026-04-25T13:03:41Z</time></trkpt><trkpt lat="43.40659314241537" lon="11.355109483759385"><ele>465.33333333333337</ele><time>2026-04-25T13:03:42Z</time></trkpt><trkpt lat="43.4065804957669" lon="11.354991870743794"><ele>464.6666666666667</ele><time>2026-04-25T13:03:43Z</time></trkpt><trkpt lat="43.406596555123535" lon="11.354878807971067"><ele>464.0</ele><time>2026-04-25T13:03:44Z</time></trkpt><trkpt lat="43.40663095486471" lon="11.354775865753991"><ele>463.33333333333337</ele><time>2026-04-25T13:03:45Z</time></trkpt><trkpt lat="43.40667060950366" lon="11.354695341723733"><ele>462.6666666666667</ele><time>2026-04-25T13:03:46Z</time></trkpt><trkpt lat="43.40674208941555" lon="11.354619596522562"><ele>462.0</ele><time>2026-04-25T13:03:47Z</time></trkpt><trkpt lat="43.40683137143396" lon="11.35455525509793"><ele>462.6</ele><time>2026-04-25T13:03:48Z</time></trkpt><trkpt lat="43.406933794607575" lon="11.35448777113483"><ele>463.20000000000005</ele><time>2026-04-25T13:03:49Z</time></trkpt><trkpt lat="43.40703291058639" lon="11.354425018149795"><ele>463.8</ele><time>2026-04-25T13:03:50Z</time></trkpt><trkpt lat="43.407124008298" lon="11.354387375752275"><ele>464.4</ele><time>2026-04-25T13:03:51Z</time></trkpt><trkpt lat="43.407219108317896" lon="11.3543615616068"><ele>465.0</ele><time>2026-04-25T13:03:52Z</time></trkpt><trkpt lat="43.40730534424798" lon="11.354406031882801"><ele>465.0</ele><time>2026-04-25T13:03:53Z</time></trkpt><trkpt lat="43.40738491216624" lon="11.35443302418277"><ele>465.0</ele><time>2026-04-25T13:03:54Z</time></trkpt><trkpt lat="43.407463860603485" lon="11.354443160311542"><ele>465.0</ele><time>2026-04-25T13:03:55Z</time></trkpt><trkpt lat="43.407570863612534" lon="11.354418620597588"><ele>465.0</ele><time>2026-04-25T13:03:57Z</time></trkpt><trkpt lat="43.407609557664635" lon="11.35434936710163"><ele>465.0</ele><time>2026-04-25T13:03:58Z</time></trkpt><trkpt lat="43.40763406714961" lon="11.354248404216605"><ele>465.0</ele><time>2026-04-25T13:03:59Z</time></trkpt><trkpt lat="43.407661357978526" lon="11.354117006719246"><ele>465.0</ele><time>2026-04-25T13:04:00Z</time></trkpt><trkpt lat="43.40768692109194" lon="11.354004715291635"><ele>465.0</ele><time>2026-04-25T13:04:01Z</time></trkpt><trkpt lat="43.407728763108686" lon="11.353911747049693"><ele>465.0</ele><time>2026-04-25T13:04:02Z</time></trkpt><trkpt lat="43.407782200308" lon="11.353836251870533"><ele>465.0</ele><time>2026-04-25T13:04:03Z</time></trkpt><trkpt lat="43.40785611270429" lon="11.353781175132717"><ele>465.0</ele><time>2026-04-25T13:04:04Z</time></trkpt><trkpt lat="43.40793553488976" lon="11.353754695517635"><ele>465.0</ele><time>2026-04-25T13:04:05Z</time></trkpt><trkpt lat="43.40801173616801" lon="11.353755525584324"><ele>464.1666666666667</ele><time>2026-04-25T13:04:06Z</time></trkpt><trkpt lat="43.4080886862111" lon="11.353799956009858"><ele>463.33333333333337</ele><time>2026-04-25T13:04:07Z</time></trkpt><trkpt lat="43.408156104331546" lon="11.35385676197193"><ele>462.5</ele><time>2026-04-25T13:04:08Z</time></trkpt><trkpt lat="43.40822724097472" lon="11.353946409673357"><ele>461.6666666666667</ele><time>2026-04-25T13:04:09Z</time></trkpt><trkpt lat="43.408302604427895" lon="11.354025779491337"><ele>460.83333333333337</ele><time>2026-04-25T13:04:10Z</time></trkpt><trkpt lat="43.40836826800179" lon="11.354097495375846"><ele>460.0</ele><time>2026-04-25T13:04:11Z</time></trkpt><trkpt lat="43.40843175371013" lon="11.35413924777761"><ele>460.00000000000006</ele><time>2026-04-25T13:04:12Z</time></trkpt><trkpt lat="43.4085050588172" lon="11.354165930609701"><ele>460.0</ele><time>2026-04-25T13:04:13Z</time></trkpt><trkpt lat="43.40857528181822" lon="11.354162272786036"><ele>460.0</ele><time>2026-04-25T13:04:14Z</time></trkpt><trkpt lat="43.40864071149305" lon="11.354127753359307"><ele>460.0</ele><time>2026-04-25T13:04:15Z</time></trkpt><trkpt lat="43.40869754435123" lon="11.35405344331322"><ele>460.00000000000006</ele><time>2026-04-25T13:04:16Z</time></trkpt><trkpt lat="43.40873954300186" lon="11.353948485806168"><ele>460.0</ele><time>2026-04-25T13:04:17Z</time></trkpt><trkpt lat="43.4087598769403" lon="11.353821118356388"><ele>460.00000000000006</ele><time>2026-04-25T13:04:18Z</time></trkpt><trkpt lat="43.40877348284952" lon="11.353681185974912"><ele>460.0</ele><time>2026-04-25T13:04:19Z</time></trkpt><trkpt lat="43.40879551011546" lon="11.353539436923398"><ele>460.0</ele><time>2026-04-25T13:04:20Z</time></trkpt><trkpt lat="43.408819499640174" lon="11.353425623124469"><ele>460.0</ele><time>2026-04-25T13:04:21Z</time></trkpt><trkpt lat="43.408860806246594" lon="11.353341753499624"><ele>460.00000000000006</ele><time>2026-04-25T13:04:22Z</time></trkpt><trkpt lat="43.40891977202844" lon="11.353269891589829"><ele>460.0</ele><time>2026-04-25T13:04:23Z</time></trkpt><trkpt lat="43.40900667975683" lon="11.353228950261213"><ele>461.6</ele><time>2026-04-25T13:04:24Z</time></trkpt><trkpt lat="43.409100220158656" lon="11.353201304764186"><ele>463.2</ele><time>2026-04-25T13:04:25Z</time></trkpt><trkpt lat="43.4091902368739" lon="11.353197762296205"><ele>464.79999999999995</ele><time>2026-04-25T13:04:26Z</time></trkpt><trkpt lat="43.409273515156244" lon="11.353203825698072"><ele>466.4</ele><time>2026-04-25T13:04:27Z</time></trkpt><trkpt lat="43.40935943003553" lon="11.353233635130488"><ele>468.0</ele><time>2026-04-25T13:04:28Z</time></trkpt><trkpt lat="43.409450295523314" lon="11.353281387560028"><ele>468.0</ele><time>2026-04-25T13:04:29Z</time></trkpt><trkpt lat="43.40952242352426" lon="11.353317402857222"><ele>468.0</ele><time>2026-04-25T13:04:30Z</time></trkpt><trkpt lat="43.40958663290422" lon="11.353340519685705"><ele>468.0</ele><time>2026-04-25T13:04:31Z</time></trkpt><trkpt lat="43.40969511573723" lon="11.353344463018281"><ele>468.0</ele><time>2026-04-25T13:04:33Z</time></trkpt><trkpt lat="43.40977545359278" lon="11.353277071124394"><ele>468.0</ele><time>2026-04-25T13:04:34Z</time></trkpt><trkpt lat="43.409814037826145" lon="11.353165985469722"><ele>468.0</ele><time>2026-04-25T13:04:35Z</time></trkpt><trkpt lat="43.409836547315095" lon="11.353048603514635"><ele>468.1666666666667</ele><time>2026-04-25T13:04:36Z</time></trkpt><trkpt lat="43.409850103752056" lon="11.352931756958698"><ele>468.33333333333337</ele><time>2026-04-25T13:04:37Z</time></trkpt><trkpt lat="43.4098976137155" lon="11.352779071598365"><ele>468.5</ele><time>2026-04-25T13:04:39Z</time></trkpt><trkpt lat="43.40993837332157" lon="11.352708053762216"><ele>468.6666666666667</ele><time>2026-04-25T13:04:40Z</time></trkpt><trkpt lat="43.40999432038715" lon="11.352632569834945"><ele>468.83333333333337</ele><time>2026-04-25T13:04:41Z</time></trkpt><trkpt lat="43.41005595346034" lon="11.352554104835365"><ele>469.0</ele><time>2026-04-25T13:04:42Z</time></trkpt><trkpt lat="43.410108961029295" lon="11.352488417051903"><ele>469.00000000000006</ele><time>2026-04-25T13:04:43Z</time></trkpt><trkpt lat="43.410177916370735" lon="11.352393140997144"><ele>469.0</ele><time>2026-04-25T13:04:45Z</time></trkpt><trkpt lat="43.41023844018431" lon="11.352364000861"><ele>469.0</ele><time>2026-04-25T13:04:58Z</time></trkpt><trkpt lat="43.41029061051282" lon="11.352294090115013"><ele>469.0</ele><time>2026-04-25T13:05:12Z</time></trkpt><trkpt lat="43.41037200121696" lon="11.352328166107773"><ele>469.00000000000006</ele><time>2026-04-25T13:05:13Z</time></trkpt><trkpt lat="43.410451557507834" lon="11.352309823842335"><ele>469.0</ele><time>2026-04-25T13:05:15Z</time></trkpt><trkpt lat="43.41053855772334" lon="11.352291455188743"><ele>469.83333333333337</ele><time>2026-04-25T13:05:18Z</time></trkpt><trkpt lat="43.4106082304387" lon="11.352321557034402"><ele>470.6666666666667</ele><time>2026-04-25T13:05:20Z</time></trkpt><trkpt lat="43.410678493057716" lon="11.352330277145478"><ele>471.5</ele><time>2026-04-25T13:05:24Z</time></trkpt><trkpt lat="43.41066256988326" lon="11.352460952934466"><ele>472.33333333333337</ele><time>2026-04-25T13:07:18Z</time></trkpt><trkpt lat="43.410703807983964" lon="11.352393840344106"><ele>473.1666666666667</ele><time>2026-04-25T13:08:12Z</time></trkpt><trkpt lat="43.410653458152446" lon="11.352273912947087"><ele>474.0</ele><time>2026-04-25T13:09:39Z</time></trkpt><trkpt lat="43.41072654877134" lon="11.352253314001988"><ele>474.0</ele><time>2026-04-25T13:09:48Z</time></trkpt><trkpt lat="43.410689687180145" lon="11.352328191151333"><ele>474.0</ele><time>2026-04-25T13:10:04Z</time></trkpt><trkpt lat="43.41076083991028" lon="11.35223366983274"><ele>474.0</ele><time>2026-04-25T13:12:46Z</time></trkpt><trkpt lat="43.41085419372039" lon="11.352193839491333"><ele>474.0</ele><time>2026-04-25T13:12:48Z</time></trkpt><trkpt lat="43.410915156188935" lon="11.352169107710937"><ele>474.0</ele><time>2026-04-25T13:12:49Z</time></trkpt><trkpt lat="43.41099735320641" lon="11.352154698069244"><ele>474.0</ele><time>2026-04-25T13:12:50Z</time></trkpt><trkpt lat="43.411067674182874" lon="11.352133349073837"><ele>473.4</ele><time>2026-04-25T13:12:51Z</time></trkpt><trkpt lat="43.41114761242638" lon="11.352109551578664"><ele>472.79999999999995</ele><time>2026-04-25T13:12:52Z</time></trkpt><trkpt lat="43.41123739523724" lon="11.352086646396803"><ele>472.20000000000005</ele><time>2026-04-25T13:12:53Z</time></trkpt><trkpt lat="43.4113347058716" lon="11.352059491958633"><ele>471.6</ele><time>2026-04-25T13:12:54Z</time></trkpt><trkpt lat="43.41143134503515" lon="11.352054953819609"><ele>471.0</ele><time>2026-04-25T13:12:55Z</time></trkpt><trkpt lat="43.41151301124519" lon="11.352037911710505"><ele>470.20000000000005</ele><time>2026-04-25T13:12:56Z</time></trkpt><trkpt lat="43.41159172495053" lon="11.352019490602732"><ele>469.40000000000003</ele><time>2026-04-25T13:12:57Z</time></trkpt><trkpt lat="43.41167717442129" lon="11.35199639739125"><ele>468.6</ele><time>2026-04-25T13:12:58Z</time></trkpt><trkpt lat="43.411763061247946" lon="11.351979470251102"><ele>467.8</ele><time>2026-04-25T13:12:59Z</time></trkpt><trkpt lat="43.41185313668229" lon="11.351952836595759"><ele>467.0</ele><time>2026-04-25T13:13:00Z</time></trkpt><trkpt lat="43.41195861256135" lon="11.351921019347207"><ele>467.0</ele><time>2026-04-25T13:13:01Z</time></trkpt><trkpt lat="43.41206446782597" lon="11.351896593643941"><ele>467.0</ele><time>2026-04-25T13:13:02Z</time></trkpt><trkpt lat="43.41218549090873" lon="11.351861168906602"><ele>467.0</ele><time>2026-04-25T13:13:03Z</time></trkpt><trkpt lat="43.41230815945643" lon="11.351830308373609"><ele>467.0</ele><time>2026-04-25T13:13:04Z</time></trkpt><trkpt lat="43.41242402887816" lon="11.35179937629033"><ele>468.0</ele><time>2026-04-25T13:13:05Z</time></trkpt><trkpt lat="43.41252877171176" lon="11.35177412113029"><ele>469.00000000000006</ele><time>2026-04-25T13:13:06Z</time></trkpt><trkpt lat="43.41263204190338" lon="11.351743741565897"><ele>470.00000000000006</ele><time>2026-04-25T13:13:07Z</time></trkpt><trkpt lat="43.412739744544446" lon="11.351713966550143"><ele>471.0</ele><time>2026-04-25T13:13:08Z</time></trkpt><trkpt lat="43.412832963620204" lon="11.35165874608215"><ele>472.0</ele><time>2026-04-25T13:13:09Z</time></trkpt><trkpt lat="43.41291612895812" lon="11.35158303020609"><ele>472.0</ele><time>2026-04-25T13:13:10Z</time></trkpt><trkpt lat="43.41298904159343" lon="11.35149991064325"><ele>472.00000000000006</ele><time>2026-04-25T13:13:11Z</time></trkpt><trkpt lat="43.41307093048385" lon="11.351397901529824"><ele>472.00000000000006</ele><time>2026-04-25T13:13:12Z</time></trkpt><trkpt lat="43.41314521024124" lon="11.351296915268135"><ele>472.0</ele><time>2026-04-25T13:13:13Z</time></trkpt><trkpt lat="43.41321764764329" lon="11.35118388808629"><ele>472.0</ele><time>2026-04-25T13:13:14Z</time></trkpt><trkpt lat="43.41331309391887" lon="11.351086841134052"><ele>474.0</ele><time>2026-04-25T13:13:15Z</time></trkpt><trkpt lat="43.41340813468979" lon="11.350945712006903"><ele>476.0</ele><time>2026-04-25T13:13:16Z</time></trkpt><trkpt lat="43.413511800662064" lon="11.350803414835328"><ele>478.0</ele><time>2026-04-25T13:13:17Z</time></trkpt><trkpt lat="43.413601092721606" lon="11.350674261388479"><ele>480.0</ele><time>2026-04-25T13:13:18Z</time></trkpt><trkpt lat="43.41368124698319" lon="11.350561426941113"><ele>482.2</ele><time>2026-04-25T13:13:19Z</time></trkpt><trkpt lat="43.41375281596888" lon="11.3504669644155"><ele>484.4</ele><time>2026-04-25T13:13:20Z</time></trkpt><trkpt lat="43.41382717989232" lon="11.350387853746298"><ele>486.6</ele><time>2026-04-25T13:13:21Z</time></trkpt><trkpt lat="43.4139170647495" lon="11.350332834994022"><ele>488.8</ele><time>2026-04-25T13:13:22Z</time></trkpt><trkpt lat="43.41403311221663" lon="11.35032574269221"><ele>491.0</ele><time>2026-04-25T13:13:23Z</time></trkpt><trkpt lat="43.41414051624274" lon="11.350358844971801"><ele>491.6</ele><time>2026-04-25T13:13:24Z</time></trkpt><trkpt lat="43.414225855038744" lon="11.350419620621519"><ele>492.20000000000005</ele><time>2026-04-25T13:13:25Z</time></trkpt><trkpt lat="43.41431279804308" lon="11.350465110698131"><ele>492.79999999999995</ele><time>2026-04-25T13:13:26Z</time></trkpt><trkpt lat="43.4144038721974" lon="11.350481189196145"><ele>493.4</ele><time>2026-04-25T13:13:27Z</time></trkpt><trkpt lat="43.41448292356991" lon="11.350466824920105"><ele>494.0</ele><time>2026-04-25T13:13:28Z</time></trkpt><trkpt lat="43.41457504019062" lon="11.350381259866424"><ele>493.99999999999994</ele><time>2026-04-25T13:13:29Z</time></trkpt><trkpt lat="43.41460212999967" lon="11.350297684613443"><ele>494.0</ele><time>2026-04-25T13:13:30Z</time></trkpt><trkpt lat="43.41462391673281" lon="11.350192840491804"><ele>494.0</ele><time>2026-04-25T13:13:31Z</time></trkpt><trkpt lat="43.414639512776986" lon="11.350077590240916"><ele>494.0</ele><time>2026-04-25T13:13:32Z</time></trkpt><trkpt lat="43.414637215722834" lon="11.349939293602507"><ele>493.99999999999994</ele><time>2026-04-25T13:13:33Z</time></trkpt><trkpt lat="43.414634384671714" lon="11.349781429449738"><ele>494.0</ele><time>2026-04-25T13:13:34Z</time></trkpt><trkpt lat="43.41463293585466" lon="11.349614527890575"><ele>493.25</ele><time>2026-04-25T13:13:35Z</time></trkpt><trkpt lat="43.41463892604723" lon="11.349458719960749"><ele>492.5</ele><time>2026-04-25T13:13:36Z</time></trkpt><trkpt lat="43.41468190227049" lon="11.34929896149"><ele>491.75</ele><time>2026-04-25T13:13:37Z</time></trkpt><trkpt lat="43.41475797548647" lon="11.349176434759482"><ele>491.0</ele><time>2026-04-25T13:13:38Z</time></trkpt><trkpt lat="43.414845918034985" lon="11.349057629256752"><ele>491.0</ele><time>2026-04-25T13:13:39Z</time></trkpt><trkpt lat="43.414952005911765" lon="11.348951459309545"><ele>491.0</ele><time>2026-04-25T13:13:40Z</time></trkpt><trkpt lat="43.41505425489541" lon="11.348877331472902"><ele>491.0</ele><time>2026-04-25T13:13:41Z</time></trkpt><trkpt lat="43.415150973247705" lon="11.34882601902406"><ele>491.0</ele><time>2026-04-25T13:13:42Z</time></trkpt><trkpt lat="43.41525132419509" lon="11.348811586748607"><ele>491.0</ele><time>2026-04-25T13:13:43Z</time></trkpt><trkpt lat="43.41536410004584" lon="11.348842882353976"><ele>491.0</ele><time>2026-04-25T13:13:44Z</time></trkpt><trkpt lat="43.415474791644" lon="11.348880342235681"><ele>491.0</ele><time>2026-04-25T13:13:45Z</time></trkpt><trkpt lat="43.41557923054141" lon="11.348922381310901"><ele>491.0</ele><time>2026-04-25T13:13:46Z</time></trkpt><trkpt lat="43.41568888940817" lon="11.348943281011508"><ele>491.0</ele><time>2026-04-25T13:13:47Z</time></trkpt><trkpt lat="43.41581047259747" lon="11.348932553763184"><ele>490.75</ele><time>2026-04-25T13:13:48Z</time></trkpt><trkpt lat="43.415932343733445" lon="11.348909485440133"><ele>490.5</ele><time>2026-04-25T13:13:49Z</time></trkpt><trkpt lat="43.41606438325392" lon="11.348877792227496"><ele>490.25</ele><time>2026-04-25T13:13:50Z</time></trkpt><trkpt lat="43.416175692792095" lon="11.348856309260665"><ele>490.0</ele><time>2026-04-25T13:13:51Z</time></trkpt><trkpt lat="43.4162890452293" lon="11.348838585745643"><ele>492.50000000000006</ele><time>2026-04-25T13:13:52Z</time></trkpt><trkpt lat="43.41640067860276" lon="11.348820544019883"><ele>495.0</ele><time>2026-04-25T13:13:53Z</time></trkpt><trkpt lat="43.41650637105288" lon="11.348806733811948"><ele>497.5</ele><time>2026-04-25T13:13:54Z</time></trkpt><trkpt lat="43.41658909378568" lon="11.348806462874494"><ele>500.0</ele><time>2026-04-25T13:13:55Z</time></trkpt><trkpt lat="43.41666567406866" lon="11.348796517452522"><ele>502.50000000000006</ele><time>2026-04-25T13:13:56Z</time></trkpt><trkpt lat="43.41673222742966" lon="11.348787655024141"><ele>505.0</ele><time>2026-04-25T13:13:57Z</time></trkpt><trkpt lat="43.41680778630847" lon="11.348773744533485"><ele>505.0</ele><time>2026-04-25T13:13:58Z</time></trkpt><trkpt lat="43.416900677225684" lon="11.34874740467174"><ele>505.0</ele><time>2026-04-25T13:13:59Z</time></trkpt><trkpt lat="43.4169942939161" lon="11.348710245483181"><ele>505.0</ele><time>2026-04-25T13:14:00Z</time></trkpt><trkpt lat="43.41708015091531" lon="11.348656081242861"><ele>505.0</ele><time>2026-04-25T13:14:01Z</time></trkpt><trkpt lat="43.417148367297976" lon="11.348580930944907"><ele>505.0</ele><time>2026-04-25T13:14:02Z</time></trkpt><trkpt lat="43.41719729390383" lon="11.348489460386366"><ele>506.2</ele><time>2026-04-25T13:14:03Z</time></trkpt><trkpt lat="43.417229685572245" lon="11.34838423155002"><ele>507.4</ele><time>2026-04-25T13:14:04Z</time></trkpt><trkpt lat="43.417230403339104" lon="11.348268390373775"><ele>508.6</ele><time>2026-04-25T13:14:05Z</time></trkpt><trkpt lat="43.41719742391334" lon="11.348138944127237"><ele>509.8</ele><time>2026-04-25T13:14:06Z</time></trkpt><trkpt lat="43.41716286561232" lon="11.34800044509781"><ele>511.0</ele><time>2026-04-25T13:14:07Z</time></trkpt><trkpt lat="43.417142252925004" lon="11.347846310641561"><ele>511.0</ele><time>2026-04-25T13:14:08Z</time></trkpt><trkpt lat="43.41713344930916" lon="11.347686689600915"><ele>511.0</ele><time>2026-04-25T13:14:09Z</time></trkpt><trkpt lat="43.41714910846105" lon="11.347529412141716"><ele>511.0</ele><time>2026-04-25T13:14:10Z</time></trkpt><trkpt lat="43.41719716037117" lon="11.347391584015604"><ele>511.0</ele><time>2026-04-25T13:14:11Z</time></trkpt><trkpt lat="43.41727459596289" lon="11.347267933105968"><ele>511.0</ele><time>2026-04-25T13:14:12Z</time></trkpt><trkpt lat="43.41737795117636" lon="11.347149345275469"><ele>511.0</ele><time>2026-04-25T13:14:13Z</time></trkpt><trkpt lat="43.41748473436942" lon="11.34703849072272"><ele>511.0</ele><time>2026-04-25T13:14:14Z</time></trkpt><trkpt lat="43.417587944886314" lon="11.34693787606205"><ele>511.0</ele><time>2026-04-25T13:14:15Z</time></trkpt><trkpt lat="43.41769925299908" lon="11.34683810716401"><ele>511.0</ele><time>2026-04-25T13:14:16Z</time></trkpt><trkpt lat="43.41781139225933" lon="11.34674697416698"><ele>511.0</ele><time>2026-04-25T13:14:17Z</time></trkpt><trkpt lat="43.41792779696542" lon="11.346665993037176"><ele>511.0</ele><time>2026-04-25T13:14:18Z</time></trkpt><trkpt lat="43.41805590816232" lon="11.346604442943136"><ele>511.0</ele><time>2026-04-25T13:14:19Z</time></trkpt><trkpt lat="43.41817678439146" lon="11.346554217389096"><ele>508.0</ele><time>2026-04-25T13:14:20Z</time></trkpt><trkpt lat="43.4182952101549" lon="11.346519160896156"><ele>505.0</ele><time>2026-04-25T13:14:21Z</time></trkpt><trkpt lat="43.41841585466724" lon="11.346494254480543"><ele>502.0</ele><time>2026-04-25T13:14:22Z</time></trkpt><trkpt lat="43.4185336441029" lon="11.34647417720262"><ele>499.0</ele><time>2026-04-25T13:14:23Z</time></trkpt><trkpt lat="43.41864938016173" lon="11.346459591131545"><ele>499.0</ele><time>2026-04-25T13:14:24Z</time></trkpt><trkpt lat="43.41875435605269" lon="11.346458903169562"><ele>499.0</ele><time>2026-04-25T13:14:25Z</time></trkpt><trkpt lat="43.41885582933837" lon="11.346492580140815"><ele>499.0</ele><time>2026-04-25T13:14:26Z</time></trkpt><trkpt lat="43.41896329262993" lon="11.346570300565087"><ele>499.0</ele><time>2026-04-25T13:14:27Z</time></trkpt><trkpt lat="43.4190602901417" lon="11.346659816588467"><ele>499.0</ele><time>2026-04-25T13:14:28Z</time></trkpt><trkpt lat="43.41915344718752" lon="11.346753157394957"><ele>499.5</ele><time>2026-04-25T13:14:29Z</time></trkpt><trkpt lat="43.419260160059615" lon="11.346840994829263"><ele>500.0</ele><time>2026-04-25T13:14:30Z</time></trkpt><trkpt lat="43.4193649994078" lon="11.346915737949317"><ele>500.5</ele><time>2026-04-25T13:14:31Z</time></trkpt><trkpt lat="43.41947596681137" lon="11.346974118590694"><ele>501.0</ele><time>2026-04-25T13:14:32Z</time></trkpt><trkpt lat="43.41958935313855" lon="11.347004405231973"><ele>502.5</ele><time>2026-04-25T13:14:33Z</time></trkpt><trkpt lat="43.419713580974246" lon="11.346992508562485"><ele>504.0</ele><time>2026-04-25T13:14:34Z</time></trkpt><trkpt lat="43.419831739981404" lon="11.34697465988057"><ele>505.5</ele><time>2026-04-25T13:14:35Z</time></trkpt><trkpt lat="43.419949379621485" lon="11.346973949734405"><ele>507.0</ele><time>2026-04-25T13:14:36Z</time></trkpt><trkpt lat="43.420065629556106" lon="11.34699554871766"><ele>507.0</ele><time>2026-04-25T13:14:37Z</time></trkpt><trkpt lat="43.42017656004781" lon="11.347040927470376"><ele>507.00000000000006</ele><time>2026-04-25T13:14:38Z</time></trkpt><trkpt lat="43.420270865318855" lon="11.347110246820696"><ele>507.00000000000006</ele><time>2026-04-25T13:14:39Z</time></trkpt><trkpt lat="43.42035724088611" lon="11.347181732413132"><ele>507.0</ele><time>2026-04-25T13:14:40Z</time></trkpt><trkpt lat="43.420444831532635" lon="11.347243869686656"><ele>507.0</ele><time>2026-04-25T13:14:41Z</time></trkpt><trkpt lat="43.42053256243071" lon="11.3472790756654"><ele>505.8</ele><time>2026-04-25T13:14:42Z</time></trkpt><trkpt lat="43.420630810195846" lon="11.347273856763422"><ele>504.6</ele><time>2026-04-25T13:14:43Z</time></trkpt><trkpt lat="43.42072568909937" lon="11.347271391030558"><ele>503.40000000000003</ele><time>2026-04-25T13:14:44Z</time></trkpt><trkpt lat="43.42082173743692" lon="11.347276611245556"><ele>502.20000000000005</ele><time>2026-04-25T13:14:45Z</time></trkpt><trkpt lat="43.4209193797875" lon="11.34728171778955"><ele>501.0</ele><time>2026-04-25T13:14:46Z</time></trkpt><trkpt lat="43.42101582180798" lon="11.34730777287113"><ele>501.0</ele><time>2026-04-25T13:14:47Z</time></trkpt><trkpt lat="43.42110557872916" lon="11.347332124484065"><ele>501.0</ele><time>2026-04-25T13:14:48Z</time></trkpt><trkpt lat="43.421183616721024" lon="11.347366121308974"><ele>501.0</ele><time>2026-04-25T13:14:49Z</time></trkpt><trkpt lat="43.42125173003826" lon="11.347414851867718"><ele>501.0</ele><time>2026-04-25T13:14:50Z</time></trkpt><trkpt lat="43.42130560640324" lon="11.3474920848224"><ele>501.0</ele><time>2026-04-25T13:14:51Z</time></trkpt><trkpt lat="43.421349425965985" lon="11.347569986900655"><ele>501.0</ele><time>2026-04-25T13:14:52Z</time></trkpt><trkpt lat="43.42137751361263" lon="11.347652818322947"><ele>501.0</ele><time>2026-04-25T13:14:53Z</time></trkpt><trkpt lat="43.42139289017589" lon="11.347746612988011"><ele>501.0</ele><time>2026-04-25T13:14:54Z</time></trkpt><trkpt lat="43.421392829316346" lon="11.347872172154705"><ele>501.0</ele><time>2026-04-25T13:14:55Z</time></trkpt><trkpt lat="43.42138838545419" lon="11.34802084944677"><ele>501.0</ele><time>2026-04-25T13:14:56Z</time></trkpt><trkpt lat="43.421387402593545" lon="11.348168725339198"><ele>501.0</ele><time>2026-04-25T13:14:57Z</time></trkpt><trkpt lat="43.4213746064277" lon="11.348319408833746"><ele>501.75</ele><time>2026-04-25T13:14:58Z</time></trkpt><trkpt lat="43.421348101583725" lon="11.348473898126388"><ele>502.5</ele><time>2026-04-25T13:14:59Z</time></trkpt><trkpt lat="43.42132539895247" lon="11.348628297148737"><ele>503.25</ele><time>2026-04-25T13:15:00Z</time></trkpt><trkpt lat="43.421313382183364" lon="11.348797903498053"><ele>504.0</ele><time>2026-04-25T13:15:01Z</time></trkpt><trkpt lat="43.4212939311084" lon="11.34895841678022"><ele>502.79999999999995</ele><time>2026-04-25T13:15:02Z</time></trkpt><trkpt lat="43.421309659920006" lon="11.349122267387328"><ele>501.59999999999997</ele><time>2026-04-25T13:15:03Z</time></trkpt><trkpt lat="43.42131060573738" lon="11.349265292203711"><ele>500.4</ele><time>2026-04-25T13:15:04Z</time></trkpt><trkpt lat="43.42132622316744" lon="11.349379775259372"><ele>499.2</ele><time>2026-04-25T13:15:05Z</time></trkpt><trkpt lat="43.421358914282166" lon="11.349478716248976"><ele>498.0</ele><time>2026-04-25T13:15:06Z</time></trkpt><trkpt lat="43.42141630490075" lon="11.349553863149094"><ele>498.0</ele><time>2026-04-25T13:15:07Z</time></trkpt><trkpt lat="43.42149532145265" lon="11.349589634296136"><ele>497.99999999999994</ele><time>2026-04-25T13:15:08Z</time></trkpt><trkpt lat="43.4215877751221" lon="11.349598185600483"><ele>497.99999999999994</ele><time>2026-04-25T13:15:09Z</time></trkpt><trkpt lat="43.42169219729694" lon="11.349563041055415"><ele>498.0</ele><time>2026-04-25T13:15:10Z</time></trkpt><trkpt lat="43.421787873428094" lon="11.34954049008679"><ele>498.0</ele><time>2026-04-25T13:15:11Z</time></trkpt><trkpt lat="43.42187842946232" lon="11.349555517504964"><ele>498.0</ele><time>2026-04-25T13:15:12Z</time></trkpt><trkpt lat="43.42195697191484" lon="11.34959984639368"><ele>497.99999999999994</ele><time>2026-04-25T13:15:13Z</time></trkpt><trkpt lat="43.42203102435765" lon="11.349671769576227"><ele>497.99999999999994</ele><time>2026-04-25T13:15:14Z</time></trkpt><trkpt lat="43.42209271397276" lon="11.349757368616325"><ele>498.0</ele><time>2026-04-25T13:15:15Z</time></trkpt><trkpt lat="43.42213794973404" lon="11.349828561824271"><ele>498.0</ele><time>2026-04-25T13:15:16Z</time></trkpt><trkpt lat="43.42225562832829" lon="11.349925026126368"><ele>495.6666666666667</ele><time>2026-04-25T13:15:18Z</time></trkpt><trkpt lat="43.42231447607021" lon="11.349971202598361"><ele>493.33333333333337</ele><time>2026-04-25T13:15:19Z</time></trkpt><trkpt lat="43.42238591995236" lon="11.350021040777532"><ele>491.0</ele><time>2026-04-25T13:15:20Z</time></trkpt><trkpt lat="43.4224544073101" lon="11.350062933051412"><ele>488.6666666666667</ele><time>2026-04-25T13:15:21Z</time></trkpt><trkpt lat="43.42252770127751" lon="11.35010288176652"><ele>486.33333333333337</ele><time>2026-04-25T13:15:22Z</time></trkpt><trkpt lat="43.42259541414525" lon="11.35014827724445"><ele>484.0</ele><time>2026-04-25T13:15:23Z</time></trkpt><trkpt lat="43.422665046122276" lon="11.350208055441662"><ele>484.00000000000006</ele><time>2026-04-25T13:15:24Z</time></trkpt><trkpt lat="43.4227386865855" lon="11.3502825085216"><ele>484.0</ele><time>2026-04-25T13:15:25Z</time></trkpt><trkpt lat="43.422789578392376" lon="11.350378426072933"><ele>484.0</ele><time>2026-04-25T13:15:26Z</time></trkpt><trkpt lat="43.42281684936158" lon="11.350473670497223"><ele>484.0</ele><time>2026-04-25T13:15:27Z</time></trkpt><trkpt lat="43.422836339945526" lon="11.350566386961164"><ele>484.00000000000006</ele><time>2026-04-25T13:15:28Z</time></trkpt><trkpt lat="43.42289265130671" lon="11.350693117789294"><ele>484.0</ele><time>2026-04-25T13:15:30Z</time></trkpt><trkpt lat="43.42297712710965" lon="11.350719009919064"><ele>482.4</ele><time>2026-04-25T13:15:32Z</time></trkpt><trkpt lat="43.42307082569717" lon="11.350635445223933"><ele>480.79999999999995</ele><time>2026-04-25T13:15:34Z</time></trkpt><trkpt lat="43.42315036129767" lon="11.350499638443326"><ele>479.20000000000005</ele><time>2026-04-25T13:15:36Z</time></trkpt><trkpt lat="43.42324901035294" lon="11.350385610343109"><ele>477.6</ele><time>2026-04-25T13:15:38Z</time></trkpt><trkpt lat="43.42330984420313" lon="11.350349999323333"><ele>476.0</ele><time>2026-04-25T13:15:39Z</time></trkpt><trkpt lat="43.42337772013743" lon="11.350321467434268"><ele>475.99999999999994</ele><time>2026-04-25T13:15:40Z</time></trkpt><trkpt lat="43.42344557348641" lon="11.350296186771155"><ele>476.0</ele><time>2026-04-25T13:15:41Z</time></trkpt><trkpt lat="43.42351137946313" lon="11.350268608661537"><ele>476.0</ele><time>2026-04-25T13:15:42Z</time></trkpt><trkpt lat="43.423575639054754" lon="11.350240929020249"><ele>476.0</ele><time>2026-04-25T13:15:43Z</time></trkpt><trkpt lat="43.42363725635422" lon="11.35020846249578"><ele>475.99999999999994</ele><time>2026-04-25T13:15:44Z</time></trkpt><trkpt lat="43.42375664154512" lon="11.350205894542936"><ele>476.0</ele><time>2026-04-25T13:15:46Z</time></trkpt><trkpt lat="43.42386958318119" lon="11.350216375784113"><ele>473.99999999999994</ele><time>2026-04-25T13:15:48Z</time></trkpt><trkpt lat="43.423939312827905" lon="11.350282573225513"><ele>472.0</ele><time>2026-04-25T13:15:50Z</time></trkpt><trkpt lat="43.423981060770906" lon="11.350415735208097"><ele>470.0</ele><time>2026-04-25T13:15:52Z</time></trkpt><trkpt lat="43.42398120099857" lon="11.350510791835754"><ele>468.0</ele><time>2026-04-25T13:15:53Z</time></trkpt><trkpt lat="43.42398273304451" lon="11.350620137111166"><ele>465.99999999999994</ele><time>2026-04-25T13:15:54Z</time></trkpt><trkpt lat="43.423984204845645" lon="11.350737996520744"><ele>464.0</ele><time>2026-04-25T13:15:55Z</time></trkpt><trkpt lat="43.423964773084386" lon="11.350848383769366"><ele>462.16666666666663</ele><time>2026-04-25T13:15:56Z</time></trkpt><trkpt lat="43.423959293116624" lon="11.350965476142942"><ele>460.3333333333333</ele><time>2026-04-25T13:15:57Z</time></trkpt><trkpt lat="43.42394620752306" lon="11.351077299170862"><ele>458.5</ele><time>2026-04-25T13:15:58Z</time></trkpt><trkpt lat="43.42393004739583" lon="11.351188544186385"><ele>456.66666666666663</ele><time>2026-04-25T13:15:59Z</time></trkpt><trkpt lat="43.42390662245147" lon="11.3513105879598"><ele>454.8333333333333</ele><time>2026-04-25T13:16:00Z</time></trkpt><trkpt lat="43.42387717788561" lon="11.35143820080135"><ele>453.0</ele><time>2026-04-25T13:16:01Z</time></trkpt><trkpt lat="43.42384540162661" lon="11.35156786391576"><ele>452.1666666666667</ele><time>2026-04-25T13:16:02Z</time></trkpt><trkpt lat="43.423804376574154" lon="11.351681167728817"><ele>451.33333333333337</ele><time>2026-04-25T13:16:03Z</time></trkpt><trkpt lat="43.42376393471413" lon="11.351793247329047"><ele>450.5</ele><time>2026-04-25T13:16:04Z</time></trkpt><trkpt lat="43.42373139823161" lon="11.351911564701492"><ele>449.6666666666667</ele><time>2026-04-25T13:16:05Z</time></trkpt><trkpt lat="43.42370104557768" lon="11.352011468050934"><ele>448.83333333333337</ele><time>2026-04-25T13:16:06Z</time></trkpt><trkpt lat="43.423685151935445" lon="11.352116913523423"><ele>448.0</ele><time>2026-04-25T13:16:07Z</time></trkpt><trkpt lat="43.423671939089786" lon="11.352230631375889"><ele>447.0</ele><time>2026-04-25T13:16:08Z</time></trkpt><trkpt lat="43.42366691424884" lon="11.352348597382587"><ele>445.99999999999994</ele><time>2026-04-25T13:16:09Z</time></trkpt><trkpt lat="43.42367193385013" lon="11.352490936712709"><ele>444.99999999999994</ele><time>2026-04-25T13:16:10Z</time></trkpt><trkpt lat="43.42368228515358" lon="11.35263978672757"><ele>444.0</ele><time>2026-04-25T13:16:11Z</time></trkpt><trkpt lat="43.42369728334885" lon="11.352779245199274"><ele>443.0</ele><time>2026-04-25T13:16:12Z</time></trkpt><trkpt lat="43.42371908151409" lon="11.352921681424135"><ele>441.0</ele><time>2026-04-25T13:16:13Z</time></trkpt><trkpt lat="43.423737327868864" lon="11.353063014560853"><ele>438.99999999999994</ele><time>2026-04-25T13:16:14Z</time></trkpt><trkpt lat="43.42375739127254" lon="11.353200236055955"><ele>436.99999999999994</ele><time>2026-04-25T13:16:15Z</time></trkpt><trkpt lat="43.42377350910366" lon="11.353338618150328"><ele>435.0</ele><time>2026-04-25T13:16:16Z</time></trkpt><trkpt lat="43.42378562510207" lon="11.353474602795773"><ele>433.0</ele><time>2026-04-25T13:16:17Z</time></trkpt><trkpt lat="43.42380129066845" lon="11.353606914236822"><ele>433.33333333333337</ele><time>2026-04-25T13:16:18Z</time></trkpt><trkpt lat="43.42381441190922" lon="11.353730652482211"><ele>433.6666666666667</ele><time>2026-04-25T13:16:19Z</time></trkpt><trkpt lat="43.42382646980758" lon="11.353845308119059"><ele>434.0</ele><time>2026-04-25T13:16:20Z</time></trkpt><trkpt lat="43.42383692800118" lon="11.353951435822754"><ele>434.33333333333337</ele><time>2026-04-25T13:16:21Z</time></trkpt><trkpt lat="43.42384834436408" lon="11.354043167974103"><ele>434.6666666666667</ele><time>2026-04-25T13:16:22Z</time></trkpt><trkpt lat="43.423860587434284" lon="11.354132727634866"><ele>435.0</ele><time>2026-04-25T13:16:23Z</time></trkpt><trkpt lat="43.4238795616374" lon="11.35422066395847"><ele>435.0</ele><time>2026-04-25T13:16:24Z</time></trkpt><trkpt lat="43.42394413660778" lon="11.354368159425341"><ele>435.0</ele><time>2026-04-25T13:16:26Z</time></trkpt><trkpt lat="43.423987132232405" lon="11.35444471848882"><ele>435.0</ele><time>2026-04-25T13:16:27Z</time></trkpt><trkpt lat="43.42407630370278" lon="11.354575093838498"><ele>435.0</ele><time>2026-04-25T13:16:29Z</time></trkpt><trkpt lat="43.42412027118131" lon="11.354648651296543"><ele>435.0</ele><time>2026-04-25T13:16:30Z</time></trkpt><trkpt lat="43.42417545398067" lon="11.354722133647556"><ele>432.8</ele><time>2026-04-25T13:16:31Z</time></trkpt><trkpt lat="43.42424858620354" lon="11.354784196033318"><ele>430.6</ele><time>2026-04-25T13:16:32Z</time></trkpt><trkpt lat="43.424340927440525" lon="11.354820998636528"><ele>428.4</ele><time>2026-04-25T13:16:33Z</time></trkpt><trkpt lat="43.4244523384225" lon="11.354826460363226"><ele>426.2</ele><time>2026-04-25T13:16:34Z</time></trkpt><trkpt lat="43.424594056781004" lon="11.354845119204658"><ele>424.0</ele><time>2026-04-25T13:16:35Z</time></trkpt><trkpt lat="43.42471792116865" lon="11.354854995064489"><ele>424.00000000000006</ele><time>2026-04-25T13:16:36Z</time></trkpt><trkpt lat="43.42481917175101" lon="11.35485654270284"><ele>424.0</ele><time>2026-04-25T13:16:37Z</time></trkpt><trkpt lat="43.424903447871785" lon="11.354855997918321"><ele>424.0</ele><time>2026-04-25T13:16:38Z</time></trkpt><trkpt lat="43.42496806539781" lon="11.354831361330648"><ele>424.0</ele><time>2026-04-25T13:16:39Z</time></trkpt><trkpt lat="43.4250178853084" lon="11.354777621108893"><ele>424.00000000000006</ele><time>2026-04-25T13:16:40Z</time></trkpt><trkpt lat="43.42503468374123" lon="11.354686866909534"><ele>424.0</ele><time>2026-04-25T13:16:41Z</time></trkpt><trkpt lat="43.42502776703703" lon="11.354593099108842"><ele>424.2</ele><time>2026-04-25T13:16:42Z</time></trkpt><trkpt lat="43.42505431267706" lon="11.35450453444503"><ele>424.4</ele><time>2026-04-25T13:16:43Z</time></trkpt><trkpt lat="43.42511849659859" lon="11.354442832210436"><ele>424.6</ele><time>2026-04-25T13:16:44Z</time></trkpt><trkpt lat="43.42520617995952" lon="11.354423772682077"><ele>424.8</ele><time>2026-04-25T13:16:45Z</time></trkpt><trkpt lat="43.42533795592116" lon="11.35440823453431"><ele>425.0</ele><time>2026-04-25T13:16:46Z</time></trkpt><trkpt lat="43.42544903260921" lon="11.354407148679886"><ele>421.4</ele><time>2026-04-25T13:16:47Z</time></trkpt><trkpt lat="43.42555069124629" lon="11.354386960110888"><ele>417.8</ele><time>2026-04-25T13:16:48Z</time></trkpt><trkpt lat="43.42563563507246" lon="11.354312787681389"><ele>414.20000000000005</ele><time>2026-04-25T13:16:49Z</time></trkpt><trkpt lat="43.42570458407032" lon="11.354180914802633"><ele>410.6</ele><time>2026-04-25T13:16:50Z</time></trkpt><trkpt lat="43.4257550293678" lon="11.354029403013014"><ele>407.0</ele><time>2026-04-25T13:16:51Z</time></trkpt><trkpt lat="43.4257938950553" lon="11.353876925578927"><ele>405.40000000000003</ele><time>2026-04-25T13:16:52Z</time></trkpt><trkpt lat="43.42581337599107" lon="11.353721202409291"><ele>403.8</ele><time>2026-04-25T13:16:53Z</time></trkpt><trkpt lat="43.425800873975206" lon="11.353562396590792"><ele>402.2</ele><time>2026-04-25T13:16:54Z</time></trkpt><trkpt lat="43.42578568593585" lon="11.353404636005683"><ele>400.6</ele><time>2026-04-25T13:16:55Z</time></trkpt><trkpt lat="43.425769151186906" lon="11.353270708952813"><ele>399.0</ele><time>2026-04-25T13:16:56Z</time></trkpt><trkpt lat="43.42576211200716" lon="11.35315428592988"><ele>399.4</ele><time>2026-04-25T13:16:57Z</time></trkpt><trkpt lat="43.42577094121414" lon="11.353029058010971"><ele>399.79999999999995</ele><time>2026-04-25T13:16:58Z</time></trkpt><trkpt lat="43.42578675296672" lon="11.352900167311997"><ele>400.20000000000005</ele><time>2026-04-25T13:16:59Z</time></trkpt><trkpt lat="43.42580316852303" lon="11.35276971077224"><ele>400.6</ele><time>2026-04-25T13:17:00Z</time></trkpt><trkpt lat="43.425824452506" lon="11.352637918358658"><ele>401.0</ele><time>2026-04-25T13:17:01Z</time></trkpt><trkpt lat="43.42584951604262" lon="11.352509130507567"><ele>401.0</ele><time>2026-04-25T13:17:02Z</time></trkpt><trkpt lat="43.4258834148094" lon="11.352393625230732"><ele>401.0</ele><time>2026-04-25T13:17:03Z</time></trkpt><trkpt lat="43.42592327947532" lon="11.35227048308827"><ele>401.0</ele><time>2026-04-25T13:17:04Z</time></trkpt><trkpt lat="43.42597135813937" lon="11.352164515134394"><ele>401.0</ele><time>2026-04-25T13:17:05Z</time></trkpt><trkpt lat="43.42603149349002" lon="11.352080726323107"><ele>401.0</ele><time>2026-04-25T13:17:06Z</time></trkpt><trkpt lat="43.42610434326971" lon="11.352012376497363"><ele>402.0</ele><time>2026-04-25T13:17:07Z</time></trkpt><trkpt lat="43.42618807092175" lon="11.351947100330664"><ele>403.0</ele><time>2026-04-25T13:17:08Z</time></trkpt><trkpt lat="43.426278036268705" lon="11.35185918792387"><ele>404.0</ele><time>2026-04-25T13:17:09Z</time></trkpt><trkpt lat="43.426353121444734" lon="11.351771808498208"><ele>405.0</ele><time>2026-04-25T13:17:10Z</time></trkpt><trkpt lat="43.42642706974971" lon="11.351682862116613"><ele>406.0</ele><time>2026-04-25T13:17:11Z</time></trkpt><trkpt lat="43.42651363550295" lon="11.35161512426639"><ele>403.6</ele><time>2026-04-25T13:17:12Z</time></trkpt><trkpt lat="43.42658171466877" lon="11.351525088104584"><ele>401.20000000000005</ele><time>2026-04-25T13:17:13Z</time></trkpt><trkpt lat="43.42662878508502" lon="11.351421976286558"><ele>398.79999999999995</ele><time>2026-04-25T13:17:14Z</time></trkpt><trkpt lat="43.426670334472504" lon="11.351318802105263"><ele>396.4</ele><time>2026-04-25T13:17:15Z</time></trkpt><trkpt lat="43.4267155141038" lon="11.351200740648931"><ele>394.0</ele><time>2026-04-25T13:17:16Z</time></trkpt><trkpt lat="43.426748490853406" lon="11.35107076820681"><ele>394.00000000000006</ele><time>2026-04-25T13:17:17Z</time></trkpt><trkpt lat="43.426803388485624" lon="11.350961210190736"><ele>394.0</ele><time>2026-04-25T13:17:18Z</time></trkpt><trkpt lat="43.42684440976727" lon="11.35086907848922"><ele>394.0</ele><time>2026-04-25T13:17:19Z</time></trkpt><trkpt lat="43.426883878791216" lon="11.35078830689613"><ele>394.0</ele><time>2026-04-25T13:17:20Z</time></trkpt><trkpt lat="43.42694280752644" lon="11.350683176872082"><ele>394.00000000000006</ele><time>2026-04-25T13:17:22Z</time></trkpt><trkpt lat="43.426998826803725" lon="11.350565992271383"><ele>394.0</ele><time>2026-04-25T13:17:24Z</time></trkpt><trkpt lat="43.427092967913104" lon="11.350474671534569"><ele>390.79999999999995</ele><time>2026-04-25T13:17:26Z</time></trkpt><trkpt lat="43.42715533729176" lon="11.350441628333074"><ele>387.59999999999997</ele><time>2026-04-25T13:17:27Z</time></trkpt><trkpt lat="43.42725407821328" lon="11.350409554430321"><ele>384.4</ele><time>2026-04-25T13:17:28Z</time></trkpt><trkpt lat="43.427360588734004" lon="11.350381358852653"><ele>381.2</ele><time>2026-04-25T13:17:29Z</time></trkpt><trkpt lat="43.427464255583686" lon="11.350350597747497"><ele>378.0</ele><time>2026-04-25T13:17:30Z</time></trkpt><trkpt lat="43.42757272905189" lon="11.35031291817793"><ele>378.0</ele><time>2026-04-25T13:17:31Z</time></trkpt><trkpt lat="43.42767665320724" lon="11.350291659641814"><ele>378.0</ele><time>2026-04-25T13:17:32Z</time></trkpt><trkpt lat="43.42778165567856" lon="11.350223648496415"><ele>378.0</ele><time>2026-04-25T13:17:33Z</time></trkpt><trkpt lat="43.42788513504768" lon="11.350150132526402"><ele>378.0</ele><time>2026-04-25T13:17:34Z</time></trkpt><trkpt lat="43.42798450715486" lon="11.350090912910192"><ele>378.0</ele><time>2026-04-25T13:17:35Z</time></trkpt><trkpt lat="43.42807936089078" lon="11.350048291801578"><ele>377.79999999999995</ele><time>2026-04-25T13:17:36Z</time></trkpt><trkpt lat="43.42817065951427" lon="11.350020217725346"><ele>377.6</ele><time>2026-04-25T13:17:37Z</time></trkpt><trkpt lat="43.428263143436986" lon="11.35001580652565"><ele>377.4</ele><time>2026-04-25T13:17:38Z</time></trkpt><trkpt lat="43.42835638204242" lon="11.350021774101032"><ele>377.20000000000005</ele><time>2026-04-25T13:17:39Z</time></trkpt><trkpt lat="43.42843957659018" lon="11.350038340373514"><ele>377.0</ele><time>2026-04-25T13:17:40Z</time></trkpt><trkpt lat="43.428523992659706" lon="11.350074216208668"><ele>377.0</ele><time>2026-04-25T13:17:41Z</time></trkpt><trkpt lat="43.428603833736624" lon="11.350124385665467"><ele>377.0</ele><time>2026-04-25T13:17:42Z</time></trkpt><trkpt lat="43.42868382034661" lon="11.350190268571794"><ele>377.0</ele><time>2026-04-25T13:17:43Z</time></trkpt><trkpt lat="43.428772010897646" lon="11.35026235808453"><ele>377.0</ele><time>2026-04-25T13:17:44Z</time></trkpt><trkpt lat="43.42885887043893" lon="11.350331733004625"><ele>377.0</ele><time>2026-04-25T13:17:45Z</time></trkpt><trkpt lat="43.42894014458247" lon="11.35039556401643"><ele>377.0</ele><time>2026-04-25T13:17:46Z</time></trkpt><trkpt lat="43.4290264850995" lon="11.350457944151461"><ele>377.0</ele><time>2026-04-25T13:17:47Z</time></trkpt><trkpt lat="43.42911213299945" lon="11.350532409012507"><ele>377.0</ele><time>2026-04-25T13:17:48Z</time></trkpt><trkpt lat="43.42920648494356" lon="11.35058605735721"><ele>377.0</ele><time>2026-04-25T13:17:49Z</time></trkpt><trkpt lat="43.42931035393047" lon="11.350663905055587"><ele>377.0</ele><time>2026-04-25T13:17:50Z</time></trkpt><trkpt lat="43.429413343257856" lon="11.350738737736707"><ele>377.40000000000003</ele><time>2026-04-25T13:17:51Z</time></trkpt><trkpt lat="43.42951123859777" lon="11.350806677647077"><ele>377.8</ele><time>2026-04-25T13:17:52Z</time></trkpt><trkpt lat="43.429605754045376" lon="11.350879632444157"><ele>378.2</ele><time>2026-04-25T13:17:53Z</time></trkpt><trkpt lat="43.42970057668174" lon="11.35092170690342"><ele>378.6</ele><time>2026-04-25T13:17:54Z</time></trkpt><trkpt lat="43.42980707189346" lon="11.350898424862708"><ele>379.0</ele><time>2026-04-25T13:17:55Z</time></trkpt><trkpt lat="43.42992536973648" lon="11.350891475566026"><ele>379.0</ele><time>2026-04-25T13:17:56Z</time></trkpt><trkpt lat="43.43002511171828" lon="11.350866467185451"><ele>379.0</ele><time>2026-04-25T13:17:57Z</time></trkpt><trkpt lat="43.430140824880624" lon="11.350851305536022"><ele>379.0</ele><time>2026-04-25T13:17:58Z</time></trkpt><trkpt lat="43.43026416262222" lon="11.350853869845425"><ele>379.0</ele><time>2026-04-25T13:17:59Z</time></trkpt><trkpt lat="43.43039487945563" lon="11.350860170965987"><ele>379.75</ele><time>2026-04-25T13:18:00Z</time></trkpt><trkpt lat="43.43052340219596" lon="11.350901798654778"><ele>380.5</ele><time>2026-04-25T13:18:01Z</time></trkpt><trkpt lat="43.430635193800214" lon="11.350928706321227"><ele>381.25</ele><time>2026-04-25T13:18:02Z</time></trkpt><trkpt lat="43.43074133265087" lon="11.350921790503213"><ele>382.0</ele><time>2026-04-25T13:18:03Z</time></trkpt><trkpt lat="43.430847922051534" lon="11.350944228878786"><ele>382.0</ele><time>2026-04-25T13:18:04Z</time></trkpt><trkpt lat="43.43095231410887" lon="11.35091214438106"><ele>382.0</ele><time>2026-04-25T13:18:05Z</time></trkpt><trkpt lat="43.43105412170063" lon="11.350858819901541"><ele>382.0</ele><time>2026-04-25T13:18:06Z</time></trkpt><trkpt lat="43.431151931839196" lon="11.35078237841799"><ele>382.0</ele><time>2026-04-25T13:18:07Z</time></trkpt><trkpt lat="43.431232668376275" lon="11.350699724886923"><ele>382.0</ele><time>2026-04-25T13:18:08Z</time></trkpt><trkpt lat="43.43130740525607" lon="11.350670121788694"><ele>384.8</ele><time>2026-04-25T13:18:09Z</time></trkpt><trkpt lat="43.43142171356773" lon="11.350686161150751"><ele>387.6</ele><time>2026-04-25T13:18:11Z</time></trkpt><trkpt lat="43.43149228835306" lon="11.350787763762666"><ele>390.40000000000003</ele><time>2026-04-25T13:18:13Z</time></trkpt><trkpt lat="43.43156209051855" lon="11.350917325308858"><ele>393.20000000000005</ele><time>2026-04-25T13:18:15Z</time></trkpt><trkpt lat="43.43160565180792" lon="11.350982697004174"><ele>396.0</ele><time>2026-04-25T13:18:16Z</time></trkpt><trkpt lat="43.43168350416177" lon="11.351084126500364"><ele>396.0</ele><time>2026-04-25T13:18:18Z</time></trkpt><trkpt lat="43.43176863511689" lon="11.351176086010312"><ele>396.0</ele><time>2026-04-25T13:18:20Z</time></trkpt><trkpt lat="43.4318505861106" lon="11.351242866215943"><ele>396.0</ele><time>2026-04-25T13:18:22Z</time></trkpt><trkpt lat="43.431917089493616" lon="11.3512918521545"><ele>396.0</ele><time>2026-04-25T13:18:24Z</time></trkpt><trkpt lat="43.4320219394147" lon="11.351348738830517"><ele>396.0</ele><time>2026-04-25T13:18:26Z</time></trkpt><trkpt lat="43.43209164503929" lon="11.35137109023265"><ele>394.8</ele><time>2026-04-25T13:18:27Z</time></trkpt><trkpt lat="43.43217532283294" lon="11.351380523739328"><ele>393.6</ele><time>2026-04-25T13:18:28Z</time></trkpt><trkpt lat="43.432284967533256" lon="11.351395733796227"><ele>392.4</ele><time>2026-04-25T13:18:29Z</time></trkpt><trkpt lat="43.43238334057795" lon="11.351412291717097"><ele>391.2</ele><time>2026-04-25T13:18:30Z</time></trkpt><trkpt lat="43.43249176933274" lon="11.35142816844688"><ele>390.0</ele><time>2026-04-25T13:18:31Z</time></trkpt><trkpt lat="43.43258733367206" lon="11.351431318498785"><ele>390.0</ele><time>2026-04-25T13:18:32Z</time></trkpt><trkpt lat="43.43266845055862" lon="11.351423672217628"><ele>390.0</ele><time>2026-04-25T13:18:33Z</time></trkpt><trkpt lat="43.432741629069255" lon="11.351402989866823"><ele>390.0</ele><time>2026-04-25T13:18:34Z</time></trkpt><trkpt lat="43.43281955664474" lon="11.351360914383697"><ele>390.0</ele><time>2026-04-25T13:18:35Z</time></trkpt><trkpt lat="43.43289800944515" lon="11.351309919215547"><ele>390.0</ele><time>2026-04-25T13:18:36Z</time></trkpt><trkpt lat="43.43298368016743" lon="11.351247637304805"><ele>390.0</ele><time>2026-04-25T13:18:37Z</time></trkpt><trkpt lat="43.43307548622629" lon="11.351185047447865"><ele>388.2</ele><time>2026-04-25T13:18:38Z</time></trkpt><trkpt lat="43.43315915609529" lon="11.351114334900785"><ele>386.4</ele><time>2026-04-25T13:18:39Z</time></trkpt><trkpt lat="43.433246137815374" lon="11.351040213823152"><ele>384.6</ele><time>2026-04-25T13:18:40Z</time></trkpt><trkpt lat="43.43334280466313" lon="11.350963347447456"><ele>382.8</ele><time>2026-04-25T13:18:41Z</time></trkpt><trkpt lat="43.43342976714439" lon="11.350887938775262"><ele>381.0</ele><time>2026-04-25T13:18:42Z</time></trkpt><trkpt lat="43.43351091687601" lon="11.350804175194902"><ele>381.0</ele><time>2026-04-25T13:18:43Z</time></trkpt><trkpt lat="43.43358697044354" lon="11.35070905290526"><ele>381.0</ele><time>2026-04-25T13:18:44Z</time></trkpt><trkpt lat="43.43365335129209" lon="11.350627752425845"><ele>381.0</ele><time>2026-04-25T13:18:45Z</time></trkpt><trkpt lat="43.43372444715878" lon="11.35053785582344"><ele>381.0</ele><time>2026-04-25T13:18:46Z</time></trkpt><trkpt lat="43.433804090232684" lon="11.35044164930539"><ele>381.0</ele><time>2026-04-25T13:18:47Z</time></trkpt><trkpt lat="43.43387992071621" lon="11.350346769496191"><ele>381.20000000000005</ele><time>2026-04-25T13:18:48Z</time></trkpt><trkpt lat="43.43396080307119" lon="11.350246650261974"><ele>381.40000000000003</ele><time>2026-04-25T13:18:49Z</time></trkpt><trkpt lat="43.43403526651063" lon="11.350156323482146"><ele>381.6</ele><time>2026-04-25T13:18:50Z</time></trkpt><trkpt lat="43.434109178878145" lon="11.350070889814567"><ele>381.8</ele><time>2026-04-25T13:18:51Z</time></trkpt><trkpt lat="43.43417854544917" lon="11.3500035656331"><ele>382.0</ele><time>2026-04-25T13:18:52Z</time></trkpt><trkpt lat="43.434240434682046" lon="11.349921356386643"><ele>382.0</ele><time>2026-04-25T13:18:53Z</time></trkpt><trkpt lat="43.43429809817602" lon="11.349826391604696"><ele>382.0</ele><time>2026-04-25T13:18:54Z</time></trkpt><trkpt lat="43.43435207978382" lon="11.34974117877469"><ele>382.0</ele><time>2026-04-25T13:18:55Z</time></trkpt><trkpt lat="43.43440004943574" lon="11.349638263419896"><ele>382.0</ele><time>2026-04-25T13:18:56Z</time></trkpt><trkpt lat="43.434431947135685" lon="11.34952300783251"><ele>382.0</ele><time>2026-04-25T13:18:57Z</time></trkpt><trkpt lat="43.43446634813904" lon="11.349408890441278"><ele>382.0</ele><time>2026-04-25T13:18:58Z</time></trkpt><trkpt lat="43.4345077424007" lon="11.349290459451055"><ele>382.3333333333333</ele><time>2026-04-25T13:18:59Z</time></trkpt><trkpt lat="43.43454395511703" lon="11.34917379883234"><ele>382.66666666666663</ele><time>2026-04-25T13:19:00Z</time></trkpt><trkpt lat="43.43457675078694" lon="11.349061042903289"><ele>383.0</ele><time>2026-04-25T13:19:01Z</time></trkpt><trkpt lat="43.434623328118484" lon="11.34897503896167"><ele>383.3333333333333</ele><time>2026-04-25T13:19:02Z</time></trkpt><trkpt lat="43.43465539114782" lon="11.348899674326331"><ele>383.6666666666667</ele><time>2026-04-25T13:19:03Z</time></trkpt><trkpt lat="43.43472739160238" lon="11.348773734808361"><ele>384.0</ele><time>2026-04-25T13:19:05Z</time></trkpt><trkpt lat="43.43479682444563" lon="11.348741663642295"><ele>383.99999999999994</ele><time>2026-04-25T13:19:06Z</time></trkpt><trkpt lat="43.43486405639885" lon="11.348737224977036"><ele>384.0</ele><time>2026-04-25T13:19:07Z</time></trkpt><trkpt lat="43.434927983648585" lon="11.348738927716534"><ele>384.0</ele><time>2026-04-25T13:19:08Z</time></trkpt><trkpt lat="43.434998516163134" lon="11.348767344868097"><ele>384.0</ele><time>2026-04-25T13:19:09Z</time></trkpt><trkpt lat="43.43506510070176" lon="11.348799010367362"><ele>384.0</ele><time>2026-04-25T13:19:10Z</time></trkpt><trkpt lat="43.435130633149164" lon="11.348815787589052"><ele>383.99999999999994</ele><time>2026-04-25T13:19:11Z</time></trkpt><trkpt lat="43.43519766578719" lon="11.348824156415152"><ele>384.0</ele><time>2026-04-25T13:19:12Z</time></trkpt><trkpt lat="43.435279044689935" lon="11.348813087781988"><ele>384.0</ele><time>2026-04-25T13:19:13Z</time></trkpt><trkpt lat="43.43537389968539" lon="11.34878638861812"><ele>384.0</ele><time>2026-04-25T13:19:14Z</time></trkpt><trkpt lat="43.435454609006825" lon="11.348758860199613"><ele>384.0</ele><time>2026-04-25T13:19:15Z</time></trkpt><trkpt lat="43.435551032447286" lon="11.34873978570083"><ele>384.0</ele><time>2026-04-25T13:19:16Z</time></trkpt><trkpt lat="43.43563472464421" lon="11.348704710793893"><ele>384.0</ele><time>2026-04-25T13:19:17Z</time></trkpt><trkpt lat="43.43571616203789" lon="11.348677757082394"><ele>384.0</ele><time>2026-04-25T13:19:18Z</time></trkpt><trkpt lat="43.435799507805164" lon="11.348673792057882"><ele>383.8333333333333</ele><time>2026-04-25T13:19:19Z</time></trkpt><trkpt lat="43.43588538549093" lon="11.348689024495943"><ele>383.6666666666667</ele><time>2026-04-25T13:19:20Z</time></trkpt><trkpt lat="43.4359697955362" lon="11.34871830724427"><ele>383.5</ele><time>2026-04-25T13:19:21Z</time></trkpt><trkpt lat="43.43605222430496" lon="11.348761955376302"><ele>383.33333333333337</ele><time>2026-04-25T13:19:22Z</time></trkpt><trkpt lat="43.436130675445796" lon="11.348814615066836"><ele>383.1666666666667</ele><time>2026-04-25T13:19:23Z</time></trkpt><trkpt lat="43.436211389234764" lon="11.348873422773403"><ele>383.0</ele><time>2026-04-25T13:19:24Z</time></trkpt><trkpt lat="43.43631029288214" lon="11.348952938284551"><ele>381.0</ele><time>2026-04-25T13:19:25Z</time></trkpt><trkpt lat="43.43641012069877" lon="11.349040349982062"><ele>379.0</ele><time>2026-04-25T13:19:26Z</time></trkpt><trkpt lat="43.43649724644177" lon="11.349129060074667"><ele>377.0</ele><time>2026-04-25T13:19:27Z</time></trkpt><trkpt lat="43.43657809814243" lon="11.34921256867687"><ele>375.0</ele><time>2026-04-25T13:19:28Z</time></trkpt><trkpt lat="43.43665670895147" lon="11.349286581689544"><ele>373.0</ele><time>2026-04-25T13:19:29Z</time></trkpt><trkpt lat="43.43672916599506" lon="11.349344005323575"><ele>373.0</ele><time>2026-04-25T13:19:30Z</time></trkpt><trkpt lat="43.43680132865097" lon="11.34937322885631"><ele>373.0</ele><time>2026-04-25T13:19:31Z</time></trkpt><trkpt lat="43.436881210073935" lon="11.349372387916915"><ele>373.0</ele><time>2026-04-25T13:19:32Z</time></trkpt><trkpt lat="43.43696284728448" lon="11.349351798667643"><ele>373.0</ele><time>2026-04-25T13:19:33Z</time></trkpt><trkpt lat="43.437043437348095" lon="11.349311173738558"><ele>373.0</ele><time>2026-04-25T13:19:34Z</time></trkpt><trkpt lat="43.43711300343012" lon="11.349238598048354"><ele>373.0</ele><time>2026-04-25T13:19:35Z</time></trkpt><trkpt lat="43.43715808453522" lon="11.349145594687622"><ele>372.59999999999997</ele><time>2026-04-25T13:19:36Z</time></trkpt><trkpt lat="43.437188356113126" lon="11.349022306038362"><ele>372.2</ele><time>2026-04-25T13:19:37Z</time></trkpt><trkpt lat="43.4372306032278" lon="11.34886287334734"><ele>371.8</ele><time>2026-04-25T13:19:38Z</time></trkpt><trkpt lat="43.43725705710829" lon="11.34873280872008"><ele>371.4</ele><time>2026-04-25T13:19:39Z</time></trkpt><trkpt lat="43.43728935500232" lon="11.348615720499854"><ele>371.0</ele><time>2026-04-25T13:19:40Z</time></trkpt><trkpt lat="43.43732315440214" lon="11.348535731202174"><ele>377.0</ele><time>2026-04-25T13:19:41Z</time></trkpt><trkpt lat="43.43736118104149" lon="11.348414995892679"><ele>377.0</ele><time>2026-04-25T13:19:43Z</time></trkpt><trkpt lat="43.43737606628626" lon="11.348329876818983"><ele>377.0</ele><time>2026-04-25T13:19:45Z</time></trkpt><trkpt lat="43.4374366159465" lon="11.348294402677428"><ele>377.0</ele><time>2026-04-25T13:22:47Z</time></trkpt></trkseg></trk></gpx>